<?xml version="1.0" encoding="UTF-8" standalone="no" ?>
<gpx xmlns="http://www.topografix.com/GPX/1/1" xmlns:xsi="http://www.w3.org/2001/XMLSchema-instance" xsi:schemaLocation="http://www.topografix.com/GPX/1/1 http://www.topografix.com/GPX/1/1/gpx.xsd" version="1.1" creator="VisuGPX - https://www.visugpx.com">
  <metadata>
    <name>ainsa</name>
  </metadata>
  <trk>
    <name><![CDATA[Aínsa 9]]></name>
    <extensions>
      <line xmlns="http://www.topografix.com/GPX/gpx_style/0/2">
        <color>0000FF</color>
        <width>4</width>
      </line>
    </extensions>
    <trkseg>
      <trkpt lat="42.4147" lon="0.14404">
        <ele>527.3</ele>
        <time>2016-07-24T07:33:55Z</time>
      </trkpt>
      <trkpt lat="42.41463" lon="0.14404">
        <ele>527.3</ele>
        <time>2016-07-24T07:33:59Z</time>
      </trkpt>
      <trkpt lat="42.41473" lon="0.14407">
        <ele>527.3</ele>
        <time>2016-07-24T07:34:03Z</time>
      </trkpt>
      <trkpt lat="42.41473" lon="0.14403">
        <ele>527.2</ele>
        <time>2016-07-24T07:35:17Z</time>
      </trkpt>
      <trkpt lat="42.4147" lon="0.144">
        <ele>527.2</ele>
        <time>2016-07-24T07:35:21Z</time>
      </trkpt>
      <trkpt lat="42.41472" lon="0.14403">
        <ele>527.2</ele>
        <time>2016-07-24T07:35:55Z</time>
      </trkpt>
      <trkpt lat="42.41474" lon="0.14407">
        <ele>527.3</ele>
        <time>2016-07-24T07:35:58Z</time>
      </trkpt>
      <trkpt lat="42.41473" lon="0.14397">
        <ele>527.1</ele>
        <time>2016-07-24T07:39:10Z</time>
      </trkpt>
      <trkpt lat="42.41476" lon="0.14397">
        <ele>527.1</ele>
        <time>2016-07-24T07:39:14Z</time>
      </trkpt>
      <trkpt lat="42.41481" lon="0.14404">
        <ele>527.2</ele>
        <time>2016-07-24T07:40:01Z</time>
      </trkpt>
      <trkpt lat="42.41483" lon="0.14407">
        <ele>527.3</ele>
        <time>2016-07-24T07:40:03Z</time>
      </trkpt>
      <trkpt lat="42.41485" lon="0.14412">
        <ele>527.4</ele>
        <time>2016-07-24T07:40:05Z</time>
      </trkpt>
      <trkpt lat="42.41487" lon="0.14419">
        <ele>527.6</ele>
        <time>2016-07-24T07:40:07Z</time>
      </trkpt>
      <trkpt lat="42.41489" lon="0.14426">
        <ele>527.8</ele>
        <time>2016-07-24T07:40:09Z</time>
      </trkpt>
      <trkpt lat="42.4149" lon="0.14429">
        <ele>527.9</ele>
        <time>2016-07-24T07:40:10Z</time>
      </trkpt>
      <trkpt lat="42.41491" lon="0.14433">
        <ele>528</ele>
        <time>2016-07-24T07:40:11Z</time>
      </trkpt>
      <trkpt lat="42.41492" lon="0.14436">
        <ele>528.1</ele>
        <time>2016-07-24T07:40:12Z</time>
      </trkpt>
      <trkpt lat="42.41494" lon="0.14439">
        <ele>528.2</ele>
        <time>2016-07-24T07:40:13Z</time>
      </trkpt>
      <trkpt lat="42.41496" lon="0.14442">
        <ele>528.3</ele>
        <time>2016-07-24T07:40:14Z</time>
      </trkpt>
      <trkpt lat="42.41499" lon="0.14444">
        <ele>528.5</ele>
        <time>2016-07-24T07:40:15Z</time>
      </trkpt>
      <trkpt lat="42.41502" lon="0.14447">
        <ele>528.6</ele>
        <time>2016-07-24T07:40:16Z</time>
      </trkpt>
      <trkpt lat="42.41505" lon="0.14448">
        <ele>528.7</ele>
        <time>2016-07-24T07:40:17Z</time>
      </trkpt>
      <trkpt lat="42.41509" lon="0.1445">
        <ele>528.8</ele>
        <time>2016-07-24T07:40:18Z</time>
      </trkpt>
      <trkpt lat="42.41512" lon="0.14451">
        <ele>528.9</ele>
        <time>2016-07-24T07:40:19Z</time>
      </trkpt>
      <trkpt lat="42.41515" lon="0.14451">
        <ele>529</ele>
        <time>2016-07-24T07:40:20Z</time>
      </trkpt>
      <trkpt lat="42.41519" lon="0.14452">
        <ele>529.1</ele>
        <time>2016-07-24T07:40:21Z</time>
      </trkpt>
      <trkpt lat="42.41522" lon="0.14452">
        <ele>529.2</ele>
        <time>2016-07-24T07:40:22Z</time>
      </trkpt>
      <trkpt lat="42.41525" lon="0.14452">
        <ele>529.3</ele>
        <time>2016-07-24T07:40:23Z</time>
      </trkpt>
      <trkpt lat="42.41529" lon="0.14451">
        <ele>529.3</ele>
        <time>2016-07-24T07:40:24Z</time>
      </trkpt>
      <trkpt lat="42.41532" lon="0.14448">
        <ele>529.2</ele>
        <time>2016-07-24T07:40:25Z</time>
      </trkpt>
      <trkpt lat="42.41534" lon="0.14443">
        <ele>529</ele>
        <time>2016-07-24T07:40:26Z</time>
      </trkpt>
      <trkpt lat="42.41535" lon="0.14436">
        <ele>528.6</ele>
        <time>2016-07-24T07:40:27Z</time>
      </trkpt>
      <trkpt lat="42.41534" lon="0.1443">
        <ele>528.2</ele>
        <time>2016-07-24T07:40:28Z</time>
      </trkpt>
      <trkpt lat="42.41532" lon="0.14424">
        <ele>527.9</ele>
        <time>2016-07-24T07:40:29Z</time>
      </trkpt>
      <trkpt lat="42.41529" lon="0.14418">
        <ele>527.6</ele>
        <time>2016-07-24T07:40:30Z</time>
      </trkpt>
      <trkpt lat="42.41526" lon="0.14412">
        <ele>527.3</ele>
        <time>2016-07-24T07:40:31Z</time>
      </trkpt>
      <trkpt lat="42.41524" lon="0.14407">
        <ele>527</ele>
        <time>2016-07-24T07:40:32Z</time>
      </trkpt>
      <trkpt lat="42.41523" lon="0.14401">
        <ele>526.7</ele>
        <time>2016-07-24T07:40:33Z</time>
      </trkpt>
      <trkpt lat="42.41521" lon="0.14395">
        <ele>526.4</ele>
        <time>2016-07-24T07:40:34Z</time>
      </trkpt>
      <trkpt lat="42.4152" lon="0.14389">
        <ele>526.2</ele>
        <time>2016-07-24T07:40:35Z</time>
      </trkpt>
      <trkpt lat="42.41519" lon="0.14383">
        <ele>525.9</ele>
        <time>2016-07-24T07:40:36Z</time>
      </trkpt>
      <trkpt lat="42.41518" lon="0.14377">
        <ele>525.6</ele>
        <time>2016-07-24T07:40:37Z</time>
      </trkpt>
      <trkpt lat="42.41517" lon="0.14371">
        <ele>525.6</ele>
        <time>2016-07-24T07:40:38Z</time>
      </trkpt>
      <trkpt lat="42.41516" lon="0.14365">
        <ele>525.7</ele>
        <time>2016-07-24T07:40:39Z</time>
      </trkpt>
      <trkpt lat="42.41515" lon="0.14359">
        <ele>525.8</ele>
        <time>2016-07-24T07:40:40Z</time>
      </trkpt>
      <trkpt lat="42.41514" lon="0.14354">
        <ele>525.8</ele>
        <time>2016-07-24T07:40:41Z</time>
      </trkpt>
      <trkpt lat="42.41513" lon="0.14348">
        <ele>525.9</ele>
        <time>2016-07-24T07:40:42Z</time>
      </trkpt>
      <trkpt lat="42.41513" lon="0.14342">
        <ele>526</ele>
        <time>2016-07-24T07:40:43Z</time>
      </trkpt>
      <trkpt lat="42.41512" lon="0.14336">
        <ele>526</ele>
        <time>2016-07-24T07:40:44Z</time>
      </trkpt>
      <trkpt lat="42.41512" lon="0.1433">
        <ele>526.1</ele>
        <time>2016-07-24T07:40:45Z</time>
      </trkpt>
      <trkpt lat="42.41511" lon="0.14324">
        <ele>526.1</ele>
        <time>2016-07-24T07:40:46Z</time>
      </trkpt>
      <trkpt lat="42.4151" lon="0.14318">
        <ele>526.2</ele>
        <time>2016-07-24T07:40:47Z</time>
      </trkpt>
      <trkpt lat="42.41509" lon="0.14311">
        <ele>526.2</ele>
        <time>2016-07-24T07:40:48Z</time>
      </trkpt>
      <trkpt lat="42.41508" lon="0.14305">
        <ele>526.3</ele>
        <time>2016-07-24T07:40:49Z</time>
      </trkpt>
      <trkpt lat="42.41507" lon="0.14298">
        <ele>526.4</ele>
        <time>2016-07-24T07:40:50Z</time>
      </trkpt>
      <trkpt lat="42.41506" lon="0.14292">
        <ele>526.4</ele>
        <time>2016-07-24T07:40:51Z</time>
      </trkpt>
      <trkpt lat="42.41505" lon="0.14285">
        <ele>526.7</ele>
        <time>2016-07-24T07:40:52Z</time>
      </trkpt>
      <trkpt lat="42.41504" lon="0.14279">
        <ele>527</ele>
        <time>2016-07-24T07:40:53Z</time>
      </trkpt>
      <trkpt lat="42.41503" lon="0.14272">
        <ele>527.3</ele>
        <time>2016-07-24T07:40:54Z</time>
      </trkpt>
      <trkpt lat="42.41503" lon="0.14265">
        <ele>527.6</ele>
        <time>2016-07-24T07:40:55Z</time>
      </trkpt>
      <trkpt lat="42.41502" lon="0.14259">
        <ele>527.9</ele>
        <time>2016-07-24T07:40:56Z</time>
      </trkpt>
      <trkpt lat="42.41501" lon="0.14252">
        <ele>528.2</ele>
        <time>2016-07-24T07:40:57Z</time>
      </trkpt>
      <trkpt lat="42.415" lon="0.14245">
        <ele>528.4</ele>
        <time>2016-07-24T07:40:58Z</time>
      </trkpt>
      <trkpt lat="42.41499" lon="0.14239">
        <ele>528.7</ele>
        <time>2016-07-24T07:40:59Z</time>
      </trkpt>
      <trkpt lat="42.41497" lon="0.14232">
        <ele>529</ele>
        <time>2016-07-24T07:41:00Z</time>
      </trkpt>
      <trkpt lat="42.41496" lon="0.14226">
        <ele>529.2</ele>
        <time>2016-07-24T07:41:01Z</time>
      </trkpt>
      <trkpt lat="42.41495" lon="0.14219">
        <ele>529.5</ele>
        <time>2016-07-24T07:41:02Z</time>
      </trkpt>
      <trkpt lat="42.41494" lon="0.14212">
        <ele>529.7</ele>
        <time>2016-07-24T07:41:03Z</time>
      </trkpt>
      <trkpt lat="42.41493" lon="0.14206">
        <ele>530</ele>
        <time>2016-07-24T07:41:04Z</time>
      </trkpt>
      <trkpt lat="42.41492" lon="0.142">
        <ele>530.5</ele>
        <time>2016-07-24T07:41:05Z</time>
      </trkpt>
      <trkpt lat="42.41491" lon="0.14193">
        <ele>531</ele>
        <time>2016-07-24T07:41:06Z</time>
      </trkpt>
      <trkpt lat="42.4149" lon="0.14187">
        <ele>531.5</ele>
        <time>2016-07-24T07:41:07Z</time>
      </trkpt>
      <trkpt lat="42.41489" lon="0.1418">
        <ele>532</ele>
        <time>2016-07-24T07:41:08Z</time>
      </trkpt>
      <trkpt lat="42.41488" lon="0.14174">
        <ele>532.4</ele>
        <time>2016-07-24T07:41:09Z</time>
      </trkpt>
      <trkpt lat="42.41487" lon="0.14168">
        <ele>532.9</ele>
        <time>2016-07-24T07:41:10Z</time>
      </trkpt>
      <trkpt lat="42.41486" lon="0.14162">
        <ele>533.4</ele>
        <time>2016-07-24T07:41:11Z</time>
      </trkpt>
      <trkpt lat="42.41485" lon="0.14155">
        <ele>533.9</ele>
        <time>2016-07-24T07:41:12Z</time>
      </trkpt>
      <trkpt lat="42.41483" lon="0.14149">
        <ele>534.4</ele>
        <time>2016-07-24T07:41:13Z</time>
      </trkpt>
      <trkpt lat="42.41483" lon="0.14142">
        <ele>534.9</ele>
        <time>2016-07-24T07:41:14Z</time>
      </trkpt>
      <trkpt lat="42.41481" lon="0.14136">
        <ele>535.4</ele>
        <time>2016-07-24T07:41:15Z</time>
      </trkpt>
      <trkpt lat="42.4148" lon="0.1413">
        <ele>535.9</ele>
        <time>2016-07-24T07:41:16Z</time>
      </trkpt>
      <trkpt lat="42.41478" lon="0.14124">
        <ele>536.3</ele>
        <time>2016-07-24T07:41:17Z</time>
      </trkpt>
      <trkpt lat="42.41477" lon="0.14118">
        <ele>536.4</ele>
        <time>2016-07-24T07:41:18Z</time>
      </trkpt>
      <trkpt lat="42.41476" lon="0.1411">
        <ele>536.5</ele>
        <time>2016-07-24T07:41:19Z</time>
      </trkpt>
      <trkpt lat="42.41476" lon="0.14104">
        <ele>536.6</ele>
        <time>2016-07-24T07:41:20Z</time>
      </trkpt>
      <trkpt lat="42.41475" lon="0.14097">
        <ele>536.7</ele>
        <time>2016-07-24T07:41:21Z</time>
      </trkpt>
      <trkpt lat="42.41474" lon="0.14092">
        <ele>536.7</ele>
        <time>2016-07-24T07:41:22Z</time>
      </trkpt>
      <trkpt lat="42.41473" lon="0.14086">
        <ele>536.6</ele>
        <time>2016-07-24T07:41:23Z</time>
      </trkpt>
      <trkpt lat="42.41472" lon="0.1408">
        <ele>536.6</ele>
        <time>2016-07-24T07:41:24Z</time>
      </trkpt>
      <trkpt lat="42.41471" lon="0.14074">
        <ele>536.5</ele>
        <time>2016-07-24T07:41:25Z</time>
      </trkpt>
      <trkpt lat="42.41471" lon="0.14069">
        <ele>536.5</ele>
        <time>2016-07-24T07:41:26Z</time>
      </trkpt>
      <trkpt lat="42.4147" lon="0.14064">
        <ele>536.4</ele>
        <time>2016-07-24T07:41:27Z</time>
      </trkpt>
      <trkpt lat="42.41469" lon="0.14059">
        <ele>536.3</ele>
        <time>2016-07-24T07:41:28Z</time>
      </trkpt>
      <trkpt lat="42.41468" lon="0.14054">
        <ele>536.2</ele>
        <time>2016-07-24T07:41:29Z</time>
      </trkpt>
      <trkpt lat="42.41468" lon="0.1405">
        <ele>536</ele>
        <time>2016-07-24T07:41:30Z</time>
      </trkpt>
      <trkpt lat="42.41466" lon="0.14045">
        <ele>535.8</ele>
        <time>2016-07-24T07:41:32Z</time>
      </trkpt>
      <trkpt lat="42.41465" lon="0.14039">
        <ele>535.3</ele>
        <time>2016-07-24T07:41:35Z</time>
      </trkpt>
      <trkpt lat="42.41464" lon="0.14031">
        <ele>534.7</ele>
        <time>2016-07-24T07:41:37Z</time>
      </trkpt>
      <trkpt lat="42.41463" lon="0.14027">
        <ele>534.2</ele>
        <time>2016-07-24T07:41:38Z</time>
      </trkpt>
      <trkpt lat="42.4146" lon="0.14024">
        <ele>533.5</ele>
        <time>2016-07-24T07:41:39Z</time>
      </trkpt>
      <trkpt lat="42.41457" lon="0.14022">
        <ele>532.9</ele>
        <time>2016-07-24T07:41:40Z</time>
      </trkpt>
      <trkpt lat="42.41452" lon="0.14021">
        <ele>532.6</ele>
        <time>2016-07-24T07:41:41Z</time>
      </trkpt>
      <trkpt lat="42.41447" lon="0.14022">
        <ele>532.4</ele>
        <time>2016-07-24T07:41:42Z</time>
      </trkpt>
      <trkpt lat="42.41441" lon="0.14027">
        <ele>532.1</ele>
        <time>2016-07-24T07:41:43Z</time>
      </trkpt>
      <trkpt lat="42.41437" lon="0.14027">
        <ele>531.9</ele>
        <time>2016-07-24T07:41:44Z</time>
      </trkpt>
      <trkpt lat="42.41433" lon="0.14027">
        <ele>531.6</ele>
        <time>2016-07-24T07:41:45Z</time>
      </trkpt>
      <trkpt lat="42.4143" lon="0.14029">
        <ele>531.5</ele>
        <time>2016-07-24T07:41:46Z</time>
      </trkpt>
      <trkpt lat="42.41427" lon="0.14028">
        <ele>531.3</ele>
        <time>2016-07-24T07:41:47Z</time>
      </trkpt>
      <trkpt lat="42.41423" lon="0.14029">
        <ele>531.1</ele>
        <time>2016-07-24T07:41:48Z</time>
      </trkpt>
      <trkpt lat="42.41419" lon="0.14029">
        <ele>530.8</ele>
        <time>2016-07-24T07:41:49Z</time>
      </trkpt>
      <trkpt lat="42.41416" lon="0.1403">
        <ele>530.6</ele>
        <time>2016-07-24T07:41:50Z</time>
      </trkpt>
      <trkpt lat="42.41413" lon="0.1403">
        <ele>530.4</ele>
        <time>2016-07-24T07:41:51Z</time>
      </trkpt>
      <trkpt lat="42.41409" lon="0.14031">
        <ele>530.2</ele>
        <time>2016-07-24T07:41:52Z</time>
      </trkpt>
      <trkpt lat="42.41406" lon="0.14031">
        <ele>530</ele>
        <time>2016-07-24T07:41:53Z</time>
      </trkpt>
      <trkpt lat="42.41403" lon="0.14031">
        <ele>529.7</ele>
        <time>2016-07-24T07:41:55Z</time>
      </trkpt>
      <trkpt lat="42.41397" lon="0.14039">
        <ele>529.5</ele>
        <time>2016-07-24T07:43:06Z</time>
      </trkpt>
      <trkpt lat="42.41394" lon="0.14039">
        <ele>529.3</ele>
        <time>2016-07-24T07:43:07Z</time>
      </trkpt>
      <trkpt lat="42.41391" lon="0.14039">
        <ele>529.1</ele>
        <time>2016-07-24T07:43:08Z</time>
      </trkpt>
      <trkpt lat="42.41387" lon="0.14039">
        <ele>528.8</ele>
        <time>2016-07-24T07:43:09Z</time>
      </trkpt>
      <trkpt lat="42.41382" lon="0.14038">
        <ele>528.5</ele>
        <time>2016-07-24T07:43:10Z</time>
      </trkpt>
      <trkpt lat="42.41378" lon="0.14038">
        <ele>528.2</ele>
        <time>2016-07-24T07:43:11Z</time>
      </trkpt>
      <trkpt lat="42.41374" lon="0.14037">
        <ele>528</ele>
        <time>2016-07-24T07:43:12Z</time>
      </trkpt>
      <trkpt lat="42.4137" lon="0.14037">
        <ele>528.2</ele>
        <time>2016-07-24T07:43:13Z</time>
      </trkpt>
      <trkpt lat="42.41366" lon="0.14037">
        <ele>528.5</ele>
        <time>2016-07-24T07:43:14Z</time>
      </trkpt>
      <trkpt lat="42.41362" lon="0.14036">
        <ele>528.7</ele>
        <time>2016-07-24T07:43:15Z</time>
      </trkpt>
      <trkpt lat="42.41358" lon="0.14036">
        <ele>528.9</ele>
        <time>2016-07-24T07:43:16Z</time>
      </trkpt>
      <trkpt lat="42.41353" lon="0.14036">
        <ele>529.2</ele>
        <time>2016-07-24T07:43:17Z</time>
      </trkpt>
      <trkpt lat="42.41349" lon="0.14036">
        <ele>529.4</ele>
        <time>2016-07-24T07:43:18Z</time>
      </trkpt>
      <trkpt lat="42.41345" lon="0.14036">
        <ele>529.6</ele>
        <time>2016-07-24T07:43:19Z</time>
      </trkpt>
      <trkpt lat="42.41341" lon="0.14036">
        <ele>529.9</ele>
        <time>2016-07-24T07:43:20Z</time>
      </trkpt>
      <trkpt lat="42.41337" lon="0.14035">
        <ele>530.1</ele>
        <time>2016-07-24T07:43:21Z</time>
      </trkpt>
      <trkpt lat="42.41333" lon="0.14036">
        <ele>530.4</ele>
        <time>2016-07-24T07:43:22Z</time>
      </trkpt>
      <trkpt lat="42.41328" lon="0.14036">
        <ele>530.6</ele>
        <time>2016-07-24T07:43:23Z</time>
      </trkpt>
      <trkpt lat="42.41324" lon="0.14036">
        <ele>530.9</ele>
        <time>2016-07-24T07:43:24Z</time>
      </trkpt>
      <trkpt lat="42.4132" lon="0.14036">
        <ele>531.1</ele>
        <time>2016-07-24T07:43:25Z</time>
      </trkpt>
      <trkpt lat="42.41315" lon="0.14036">
        <ele>531.4</ele>
        <time>2016-07-24T07:43:26Z</time>
      </trkpt>
      <trkpt lat="42.41311" lon="0.14037">
        <ele>531.7</ele>
        <time>2016-07-24T07:43:27Z</time>
      </trkpt>
      <trkpt lat="42.41306" lon="0.14037">
        <ele>531.9</ele>
        <time>2016-07-24T07:43:28Z</time>
      </trkpt>
      <trkpt lat="42.41302" lon="0.14037">
        <ele>532.2</ele>
        <time>2016-07-24T07:43:29Z</time>
      </trkpt>
      <trkpt lat="42.41298" lon="0.14037">
        <ele>532.5</ele>
        <time>2016-07-24T07:43:30Z</time>
      </trkpt>
      <trkpt lat="42.41293" lon="0.14038">
        <ele>532.7</ele>
        <time>2016-07-24T07:43:31Z</time>
      </trkpt>
      <trkpt lat="42.41289" lon="0.14038">
        <ele>533</ele>
        <time>2016-07-24T07:43:32Z</time>
      </trkpt>
      <trkpt lat="42.41285" lon="0.14039">
        <ele>533.2</ele>
        <time>2016-07-24T07:43:33Z</time>
      </trkpt>
      <trkpt lat="42.4128" lon="0.14039">
        <ele>533.4</ele>
        <time>2016-07-24T07:43:34Z</time>
      </trkpt>
      <trkpt lat="42.41276" lon="0.14039">
        <ele>533.6</ele>
        <time>2016-07-24T07:43:35Z</time>
      </trkpt>
      <trkpt lat="42.41272" lon="0.1404">
        <ele>533.9</ele>
        <time>2016-07-24T07:43:36Z</time>
      </trkpt>
      <trkpt lat="42.41268" lon="0.1404">
        <ele>534.1</ele>
        <time>2016-07-24T07:43:37Z</time>
      </trkpt>
      <trkpt lat="42.41264" lon="0.1404">
        <ele>534.3</ele>
        <time>2016-07-24T07:43:38Z</time>
      </trkpt>
      <trkpt lat="42.41261" lon="0.14039">
        <ele>534.4</ele>
        <time>2016-07-24T07:43:39Z</time>
      </trkpt>
      <trkpt lat="42.41257" lon="0.14037">
        <ele>534.5</ele>
        <time>2016-07-24T07:43:40Z</time>
      </trkpt>
      <trkpt lat="42.41254" lon="0.14033">
        <ele>534.6</ele>
        <time>2016-07-24T07:43:41Z</time>
      </trkpt>
      <trkpt lat="42.41251" lon="0.14029">
        <ele>534.6</ele>
        <time>2016-07-24T07:43:42Z</time>
      </trkpt>
      <trkpt lat="42.41248" lon="0.14026">
        <ele>534.8</ele>
        <time>2016-07-24T07:43:43Z</time>
      </trkpt>
      <trkpt lat="42.41244" lon="0.14025">
        <ele>535</ele>
        <time>2016-07-24T07:43:44Z</time>
      </trkpt>
      <trkpt lat="42.41239" lon="0.14026">
        <ele>535.2</ele>
        <time>2016-07-24T07:43:45Z</time>
      </trkpt>
      <trkpt lat="42.41235" lon="0.14026">
        <ele>535.5</ele>
        <time>2016-07-24T07:43:46Z</time>
      </trkpt>
      <trkpt lat="42.41231" lon="0.14026">
        <ele>535.7</ele>
        <time>2016-07-24T07:43:47Z</time>
      </trkpt>
      <trkpt lat="42.41227" lon="0.14022">
        <ele>535.9</ele>
        <time>2016-07-24T07:43:48Z</time>
      </trkpt>
      <trkpt lat="42.41224" lon="0.14016">
        <ele>536</ele>
        <time>2016-07-24T07:43:49Z</time>
      </trkpt>
      <trkpt lat="42.41221" lon="0.14011">
        <ele>536.2</ele>
        <time>2016-07-24T07:43:50Z</time>
      </trkpt>
      <trkpt lat="42.41218" lon="0.14007">
        <ele>536.3</ele>
        <time>2016-07-24T07:43:51Z</time>
      </trkpt>
      <trkpt lat="42.41217" lon="0.14001">
        <ele>536.4</ele>
        <time>2016-07-24T07:43:52Z</time>
      </trkpt>
      <trkpt lat="42.41218" lon="0.13995">
        <ele>536.3</ele>
        <time>2016-07-24T07:43:53Z</time>
      </trkpt>
      <trkpt lat="42.4122" lon="0.13989">
        <ele>536.1</ele>
        <time>2016-07-24T07:43:54Z</time>
      </trkpt>
      <trkpt lat="42.41223" lon="0.13985">
        <ele>535.9</ele>
        <time>2016-07-24T07:43:55Z</time>
      </trkpt>
      <trkpt lat="42.41225" lon="0.13983">
        <ele>535.6</ele>
        <time>2016-07-24T07:43:56Z</time>
      </trkpt>
      <trkpt lat="42.4123" lon="0.1398">
        <ele>535.2</ele>
        <time>2016-07-24T07:43:58Z</time>
      </trkpt>
      <trkpt lat="42.41235" lon="0.13977">
        <ele>534.7</ele>
        <time>2016-07-24T07:44:00Z</time>
      </trkpt>
      <trkpt lat="42.41239" lon="0.13972">
        <ele>534.3</ele>
        <time>2016-07-24T07:44:02Z</time>
      </trkpt>
      <trkpt lat="42.41242" lon="0.1397">
        <ele>534</ele>
        <time>2016-07-24T07:44:03Z</time>
      </trkpt>
      <trkpt lat="42.41245" lon="0.13968">
        <ele>533.7</ele>
        <time>2016-07-24T07:44:04Z</time>
      </trkpt>
      <trkpt lat="42.41248" lon="0.13967">
        <ele>533.4</ele>
        <time>2016-07-24T07:44:05Z</time>
      </trkpt>
      <trkpt lat="42.41252" lon="0.13965">
        <ele>532.9</ele>
        <time>2016-07-24T07:44:06Z</time>
      </trkpt>
      <trkpt lat="42.41258" lon="0.13964">
        <ele>532.4</ele>
        <time>2016-07-24T07:44:07Z</time>
      </trkpt>
      <trkpt lat="42.41262" lon="0.13962">
        <ele>532</ele>
        <time>2016-07-24T07:44:08Z</time>
      </trkpt>
      <trkpt lat="42.41265" lon="0.13958">
        <ele>531.5</ele>
        <time>2016-07-24T07:44:09Z</time>
      </trkpt>
      <trkpt lat="42.41268" lon="0.13953">
        <ele>531.4</ele>
        <time>2016-07-24T07:44:10Z</time>
      </trkpt>
      <trkpt lat="42.41269" lon="0.13947">
        <ele>531.4</ele>
        <time>2016-07-24T07:44:11Z</time>
      </trkpt>
      <trkpt lat="42.4127" lon="0.1394">
        <ele>531.4</ele>
        <time>2016-07-24T07:44:12Z</time>
      </trkpt>
      <trkpt lat="42.41272" lon="0.13934">
        <ele>531.4</ele>
        <time>2016-07-24T07:44:13Z</time>
      </trkpt>
      <trkpt lat="42.41273" lon="0.13927">
        <ele>531.5</ele>
        <time>2016-07-24T07:44:14Z</time>
      </trkpt>
      <trkpt lat="42.41273" lon="0.13922">
        <ele>531.5</ele>
        <time>2016-07-24T07:44:15Z</time>
      </trkpt>
      <trkpt lat="42.41274" lon="0.13915">
        <ele>531.7</ele>
        <time>2016-07-24T07:44:16Z</time>
      </trkpt>
      <trkpt lat="42.41274" lon="0.13909">
        <ele>531.8</ele>
        <time>2016-07-24T07:44:17Z</time>
      </trkpt>
      <trkpt lat="42.41273" lon="0.13903">
        <ele>531.9</ele>
        <time>2016-07-24T07:44:18Z</time>
      </trkpt>
      <trkpt lat="42.41274" lon="0.13897">
        <ele>532</ele>
        <time>2016-07-24T07:44:19Z</time>
      </trkpt>
      <trkpt lat="42.41273" lon="0.13892">
        <ele>532.2</ele>
        <time>2016-07-24T07:44:20Z</time>
      </trkpt>
      <trkpt lat="42.41273" lon="0.13886">
        <ele>532.3</ele>
        <time>2016-07-24T07:44:21Z</time>
      </trkpt>
      <trkpt lat="42.41274" lon="0.13881">
        <ele>532.4</ele>
        <time>2016-07-24T07:44:22Z</time>
      </trkpt>
      <trkpt lat="42.41274" lon="0.13875">
        <ele>532.5</ele>
        <time>2016-07-24T07:44:23Z</time>
      </trkpt>
      <trkpt lat="42.41274" lon="0.1387">
        <ele>532.6</ele>
        <time>2016-07-24T07:44:24Z</time>
      </trkpt>
      <trkpt lat="42.41274" lon="0.13864">
        <ele>532.6</ele>
        <time>2016-07-24T07:44:25Z</time>
      </trkpt>
      <trkpt lat="42.41274" lon="0.13857">
        <ele>532.7</ele>
        <time>2016-07-24T07:44:26Z</time>
      </trkpt>
      <trkpt lat="42.41274" lon="0.13851">
        <ele>532.8</ele>
        <time>2016-07-24T07:44:27Z</time>
      </trkpt>
      <trkpt lat="42.41274" lon="0.13846">
        <ele>532.8</ele>
        <time>2016-07-24T07:44:28Z</time>
      </trkpt>
      <trkpt lat="42.41274" lon="0.13839">
        <ele>532.9</ele>
        <time>2016-07-24T07:44:29Z</time>
      </trkpt>
      <trkpt lat="42.41275" lon="0.13833">
        <ele>532.9</ele>
        <time>2016-07-24T07:44:30Z</time>
      </trkpt>
      <trkpt lat="42.41277" lon="0.13828">
        <ele>532.8</ele>
        <time>2016-07-24T07:44:31Z</time>
      </trkpt>
      <trkpt lat="42.41279" lon="0.13822">
        <ele>532.7</ele>
        <time>2016-07-24T07:44:32Z</time>
      </trkpt>
      <trkpt lat="42.4128" lon="0.13816">
        <ele>532.7</ele>
        <time>2016-07-24T07:44:33Z</time>
      </trkpt>
      <trkpt lat="42.41282" lon="0.13809">
        <ele>532.6</ele>
        <time>2016-07-24T07:44:34Z</time>
      </trkpt>
      <trkpt lat="42.41283" lon="0.13802">
        <ele>532.6</ele>
        <time>2016-07-24T07:44:35Z</time>
      </trkpt>
      <trkpt lat="42.41285" lon="0.13797">
        <ele>532.5</ele>
        <time>2016-07-24T07:44:36Z</time>
      </trkpt>
      <trkpt lat="42.41286" lon="0.13791">
        <ele>532.4</ele>
        <time>2016-07-24T07:44:37Z</time>
      </trkpt>
      <trkpt lat="42.41288" lon="0.13784">
        <ele>532.2</ele>
        <time>2016-07-24T07:44:38Z</time>
      </trkpt>
      <trkpt lat="42.4129" lon="0.13778">
        <ele>532</ele>
        <time>2016-07-24T07:44:39Z</time>
      </trkpt>
      <trkpt lat="42.41291" lon="0.13772">
        <ele>531.8</ele>
        <time>2016-07-24T07:44:40Z</time>
      </trkpt>
      <trkpt lat="42.41292" lon="0.13766">
        <ele>531.7</ele>
        <time>2016-07-24T07:44:41Z</time>
      </trkpt>
      <trkpt lat="42.41294" lon="0.1376">
        <ele>531.6</ele>
        <time>2016-07-24T07:44:42Z</time>
      </trkpt>
      <trkpt lat="42.41297" lon="0.13755">
        <ele>531.5</ele>
        <time>2016-07-24T07:44:43Z</time>
      </trkpt>
      <trkpt lat="42.41299" lon="0.13748">
        <ele>531.4</ele>
        <time>2016-07-24T07:44:44Z</time>
      </trkpt>
      <trkpt lat="42.41301" lon="0.13743">
        <ele>531.3</ele>
        <time>2016-07-24T07:44:45Z</time>
      </trkpt>
      <trkpt lat="42.41304" lon="0.13738">
        <ele>531.3</ele>
        <time>2016-07-24T07:44:46Z</time>
      </trkpt>
      <trkpt lat="42.41305" lon="0.13733">
        <ele>531.2</ele>
        <time>2016-07-24T07:44:47Z</time>
      </trkpt>
      <trkpt lat="42.41308" lon="0.13727">
        <ele>531.1</ele>
        <time>2016-07-24T07:44:48Z</time>
      </trkpt>
      <trkpt lat="42.4131" lon="0.13722">
        <ele>531.1</ele>
        <time>2016-07-24T07:44:49Z</time>
      </trkpt>
      <trkpt lat="42.41312" lon="0.13716">
        <ele>531</ele>
        <time>2016-07-24T07:44:50Z</time>
      </trkpt>
      <trkpt lat="42.41315" lon="0.13711">
        <ele>531</ele>
        <time>2016-07-24T07:44:51Z</time>
      </trkpt>
      <trkpt lat="42.41317" lon="0.13706">
        <ele>531</ele>
        <time>2016-07-24T07:44:52Z</time>
      </trkpt>
      <trkpt lat="42.4132" lon="0.137">
        <ele>531.1</ele>
        <time>2016-07-24T07:44:53Z</time>
      </trkpt>
      <trkpt lat="42.41322" lon="0.13695">
        <ele>531.2</ele>
        <time>2016-07-24T07:44:54Z</time>
      </trkpt>
      <trkpt lat="42.41325" lon="0.13689">
        <ele>531.3</ele>
        <time>2016-07-24T07:44:55Z</time>
      </trkpt>
      <trkpt lat="42.41328" lon="0.13684">
        <ele>531.3</ele>
        <time>2016-07-24T07:44:56Z</time>
      </trkpt>
      <trkpt lat="42.41329" lon="0.13679">
        <ele>531.4</ele>
        <time>2016-07-24T07:44:57Z</time>
      </trkpt>
      <trkpt lat="42.41332" lon="0.13674">
        <ele>531.4</ele>
        <time>2016-07-24T07:44:58Z</time>
      </trkpt>
      <trkpt lat="42.41335" lon="0.1367">
        <ele>531.4</ele>
        <time>2016-07-24T07:44:59Z</time>
      </trkpt>
      <trkpt lat="42.41337" lon="0.13665">
        <ele>531.5</ele>
        <time>2016-07-24T07:45:00Z</time>
      </trkpt>
      <trkpt lat="42.41341" lon="0.1366">
        <ele>531.5</ele>
        <time>2016-07-24T07:45:01Z</time>
      </trkpt>
      <trkpt lat="42.41344" lon="0.13656">
        <ele>531.5</ele>
        <time>2016-07-24T07:45:02Z</time>
      </trkpt>
      <trkpt lat="42.41347" lon="0.13651">
        <ele>531.5</ele>
        <time>2016-07-24T07:45:03Z</time>
      </trkpt>
      <trkpt lat="42.41351" lon="0.13647">
        <ele>531.4</ele>
        <time>2016-07-24T07:45:04Z</time>
      </trkpt>
      <trkpt lat="42.41354" lon="0.13642">
        <ele>531.4</ele>
        <time>2016-07-24T07:45:05Z</time>
      </trkpt>
      <trkpt lat="42.41358" lon="0.13638">
        <ele>531.4</ele>
        <time>2016-07-24T07:45:06Z</time>
      </trkpt>
      <trkpt lat="42.41361" lon="0.13633">
        <ele>531.3</ele>
        <time>2016-07-24T07:45:07Z</time>
      </trkpt>
      <trkpt lat="42.41364" lon="0.13629">
        <ele>531.2</ele>
        <time>2016-07-24T07:45:08Z</time>
      </trkpt>
      <trkpt lat="42.41368" lon="0.13623">
        <ele>531.2</ele>
        <time>2016-07-24T07:45:09Z</time>
      </trkpt>
      <trkpt lat="42.4137" lon="0.13618">
        <ele>531.1</ele>
        <time>2016-07-24T07:45:10Z</time>
      </trkpt>
      <trkpt lat="42.41373" lon="0.13613">
        <ele>530.9</ele>
        <time>2016-07-24T07:45:11Z</time>
      </trkpt>
      <trkpt lat="42.41376" lon="0.13609">
        <ele>530.8</ele>
        <time>2016-07-24T07:45:12Z</time>
      </trkpt>
      <trkpt lat="42.41379" lon="0.13604">
        <ele>530.8</ele>
        <time>2016-07-24T07:45:13Z</time>
      </trkpt>
      <trkpt lat="42.41381" lon="0.13598">
        <ele>530.7</ele>
        <time>2016-07-24T07:45:14Z</time>
      </trkpt>
      <trkpt lat="42.41384" lon="0.13592">
        <ele>530.7</ele>
        <time>2016-07-24T07:45:15Z</time>
      </trkpt>
      <trkpt lat="42.41387" lon="0.13586">
        <ele>530.7</ele>
        <time>2016-07-24T07:45:16Z</time>
      </trkpt>
      <trkpt lat="42.41389" lon="0.13581">
        <ele>530.7</ele>
        <time>2016-07-24T07:45:17Z</time>
      </trkpt>
      <trkpt lat="42.41392" lon="0.13576">
        <ele>530.7</ele>
        <time>2016-07-24T07:45:18Z</time>
      </trkpt>
      <trkpt lat="42.41395" lon="0.13571">
        <ele>530.7</ele>
        <time>2016-07-24T07:45:19Z</time>
      </trkpt>
      <trkpt lat="42.41398" lon="0.13566">
        <ele>530.7</ele>
        <time>2016-07-24T07:45:20Z</time>
      </trkpt>
      <trkpt lat="42.414" lon="0.13561">
        <ele>530.7</ele>
        <time>2016-07-24T07:45:21Z</time>
      </trkpt>
      <trkpt lat="42.41403" lon="0.13555">
        <ele>530.7</ele>
        <time>2016-07-24T07:45:22Z</time>
      </trkpt>
      <trkpt lat="42.41406" lon="0.13549">
        <ele>530.8</ele>
        <time>2016-07-24T07:45:23Z</time>
      </trkpt>
      <trkpt lat="42.41408" lon="0.13544">
        <ele>530.8</ele>
        <time>2016-07-24T07:45:24Z</time>
      </trkpt>
      <trkpt lat="42.4141" lon="0.13538">
        <ele>530.9</ele>
        <time>2016-07-24T07:45:25Z</time>
      </trkpt>
      <trkpt lat="42.41412" lon="0.13532">
        <ele>531.1</ele>
        <time>2016-07-24T07:45:26Z</time>
      </trkpt>
      <trkpt lat="42.41414" lon="0.13525">
        <ele>531.3</ele>
        <time>2016-07-24T07:45:27Z</time>
      </trkpt>
      <trkpt lat="42.41415" lon="0.13518">
        <ele>531.5</ele>
        <time>2016-07-24T07:45:28Z</time>
      </trkpt>
      <trkpt lat="42.41417" lon="0.13513">
        <ele>531.7</ele>
        <time>2016-07-24T07:45:29Z</time>
      </trkpt>
      <trkpt lat="42.4142" lon="0.13507">
        <ele>531.9</ele>
        <time>2016-07-24T07:45:30Z</time>
      </trkpt>
      <trkpt lat="42.41422" lon="0.13501">
        <ele>532</ele>
        <time>2016-07-24T07:45:31Z</time>
      </trkpt>
      <trkpt lat="42.41424" lon="0.13495">
        <ele>532.2</ele>
        <time>2016-07-24T07:45:32Z</time>
      </trkpt>
      <trkpt lat="42.41426" lon="0.13489">
        <ele>532.4</ele>
        <time>2016-07-24T07:45:33Z</time>
      </trkpt>
      <trkpt lat="42.41428" lon="0.13483">
        <ele>532.5</ele>
        <time>2016-07-24T07:45:34Z</time>
      </trkpt>
      <trkpt lat="42.4143" lon="0.13477">
        <ele>532.6</ele>
        <time>2016-07-24T07:45:35Z</time>
      </trkpt>
      <trkpt lat="42.41432" lon="0.13472">
        <ele>532.7</ele>
        <time>2016-07-24T07:45:36Z</time>
      </trkpt>
      <trkpt lat="42.41435" lon="0.13466">
        <ele>532.9</ele>
        <time>2016-07-24T07:45:37Z</time>
      </trkpt>
      <trkpt lat="42.41437" lon="0.1346">
        <ele>533</ele>
        <time>2016-07-24T07:45:38Z</time>
      </trkpt>
      <trkpt lat="42.41439" lon="0.13453">
        <ele>533.1</ele>
        <time>2016-07-24T07:45:39Z</time>
      </trkpt>
      <trkpt lat="42.41441" lon="0.13447">
        <ele>533.3</ele>
        <time>2016-07-24T07:45:40Z</time>
      </trkpt>
      <trkpt lat="42.41443" lon="0.13442">
        <ele>533.4</ele>
        <time>2016-07-24T07:45:41Z</time>
      </trkpt>
      <trkpt lat="42.41446" lon="0.13436">
        <ele>533.5</ele>
        <time>2016-07-24T07:45:42Z</time>
      </trkpt>
      <trkpt lat="42.41447" lon="0.13431">
        <ele>533.7</ele>
        <time>2016-07-24T07:45:43Z</time>
      </trkpt>
      <trkpt lat="42.41448" lon="0.13426">
        <ele>533.8</ele>
        <time>2016-07-24T07:45:44Z</time>
      </trkpt>
      <trkpt lat="42.41449" lon="0.13419">
        <ele>533.9</ele>
        <time>2016-07-24T07:45:45Z</time>
      </trkpt>
      <trkpt lat="42.4145" lon="0.13413">
        <ele>534.1</ele>
        <time>2016-07-24T07:45:46Z</time>
      </trkpt>
      <trkpt lat="42.41451" lon="0.13406">
        <ele>534.2</ele>
        <time>2016-07-24T07:45:47Z</time>
      </trkpt>
      <trkpt lat="42.41452" lon="0.13399">
        <ele>534.4</ele>
        <time>2016-07-24T07:45:48Z</time>
      </trkpt>
      <trkpt lat="42.41453" lon="0.13392">
        <ele>534.6</ele>
        <time>2016-07-24T07:45:49Z</time>
      </trkpt>
      <trkpt lat="42.41454" lon="0.13386">
        <ele>534.7</ele>
        <time>2016-07-24T07:45:50Z</time>
      </trkpt>
      <trkpt lat="42.41455" lon="0.1338">
        <ele>534.9</ele>
        <time>2016-07-24T07:45:51Z</time>
      </trkpt>
      <trkpt lat="42.41456" lon="0.13374">
        <ele>535</ele>
        <time>2016-07-24T07:45:52Z</time>
      </trkpt>
      <trkpt lat="42.41457" lon="0.13369">
        <ele>534.9</ele>
        <time>2016-07-24T07:45:53Z</time>
      </trkpt>
      <trkpt lat="42.41459" lon="0.13363">
        <ele>534.8</ele>
        <time>2016-07-24T07:45:54Z</time>
      </trkpt>
      <trkpt lat="42.4146" lon="0.13356">
        <ele>534.7</ele>
        <time>2016-07-24T07:45:55Z</time>
      </trkpt>
      <trkpt lat="42.41461" lon="0.1335">
        <ele>534.6</ele>
        <time>2016-07-24T07:45:56Z</time>
      </trkpt>
      <trkpt lat="42.41461" lon="0.13342">
        <ele>534.5</ele>
        <time>2016-07-24T07:45:57Z</time>
      </trkpt>
      <trkpt lat="42.41462" lon="0.13336">
        <ele>534.4</ele>
        <time>2016-07-24T07:45:58Z</time>
      </trkpt>
      <trkpt lat="42.41463" lon="0.1333">
        <ele>534.3</ele>
        <time>2016-07-24T07:45:59Z</time>
      </trkpt>
      <trkpt lat="42.41465" lon="0.13325">
        <ele>534.2</ele>
        <time>2016-07-24T07:46:00Z</time>
      </trkpt>
      <trkpt lat="42.41465" lon="0.13319">
        <ele>534.1</ele>
        <time>2016-07-24T07:46:01Z</time>
      </trkpt>
      <trkpt lat="42.41466" lon="0.13313">
        <ele>534</ele>
        <time>2016-07-24T07:46:02Z</time>
      </trkpt>
      <trkpt lat="42.41467" lon="0.13306">
        <ele>533.9</ele>
        <time>2016-07-24T07:46:03Z</time>
      </trkpt>
      <trkpt lat="42.41467" lon="0.133">
        <ele>533.9</ele>
        <time>2016-07-24T07:46:04Z</time>
      </trkpt>
      <trkpt lat="42.41467" lon="0.13294">
        <ele>533.8</ele>
        <time>2016-07-24T07:46:05Z</time>
      </trkpt>
      <trkpt lat="42.41467" lon="0.13288">
        <ele>533.9</ele>
        <time>2016-07-24T07:46:06Z</time>
      </trkpt>
      <trkpt lat="42.41467" lon="0.13281">
        <ele>533.9</ele>
        <time>2016-07-24T07:46:07Z</time>
      </trkpt>
      <trkpt lat="42.41465" lon="0.13274">
        <ele>534.1</ele>
        <time>2016-07-24T07:46:08Z</time>
      </trkpt>
      <trkpt lat="42.41465" lon="0.13269">
        <ele>534.1</ele>
        <time>2016-07-24T07:46:09Z</time>
      </trkpt>
      <trkpt lat="42.41466" lon="0.13262">
        <ele>534.2</ele>
        <time>2016-07-24T07:46:10Z</time>
      </trkpt>
      <trkpt lat="42.41466" lon="0.13257">
        <ele>534.3</ele>
        <time>2016-07-24T07:46:11Z</time>
      </trkpt>
      <trkpt lat="42.41465" lon="0.13249">
        <ele>534.4</ele>
        <time>2016-07-24T07:46:12Z</time>
      </trkpt>
      <trkpt lat="42.41464" lon="0.13244">
        <ele>534.5</ele>
        <time>2016-07-24T07:46:13Z</time>
      </trkpt>
      <trkpt lat="42.41464" lon="0.13239">
        <ele>534.6</ele>
        <time>2016-07-24T07:46:14Z</time>
      </trkpt>
      <trkpt lat="42.41462" lon="0.13232">
        <ele>534.7</ele>
        <time>2016-07-24T07:46:15Z</time>
      </trkpt>
      <trkpt lat="42.41462" lon="0.13226">
        <ele>534.7</ele>
        <time>2016-07-24T07:46:16Z</time>
      </trkpt>
      <trkpt lat="42.41462" lon="0.13221">
        <ele>534.8</ele>
        <time>2016-07-24T07:46:17Z</time>
      </trkpt>
      <trkpt lat="42.41461" lon="0.13215">
        <ele>534.9</ele>
        <time>2016-07-24T07:46:18Z</time>
      </trkpt>
      <trkpt lat="42.4146" lon="0.13208">
        <ele>535</ele>
        <time>2016-07-24T07:46:19Z</time>
      </trkpt>
      <trkpt lat="42.41458" lon="0.13202">
        <ele>535.1</ele>
        <time>2016-07-24T07:46:20Z</time>
      </trkpt>
      <trkpt lat="42.41456" lon="0.13195">
        <ele>535.3</ele>
        <time>2016-07-24T07:46:21Z</time>
      </trkpt>
      <trkpt lat="42.41455" lon="0.13189">
        <ele>535.4</ele>
        <time>2016-07-24T07:46:22Z</time>
      </trkpt>
      <trkpt lat="42.41455" lon="0.13183">
        <ele>535.5</ele>
        <time>2016-07-24T07:46:23Z</time>
      </trkpt>
      <trkpt lat="42.41453" lon="0.13176">
        <ele>535.6</ele>
        <time>2016-07-24T07:46:24Z</time>
      </trkpt>
      <trkpt lat="42.41452" lon="0.13171">
        <ele>535.7</ele>
        <time>2016-07-24T07:46:25Z</time>
      </trkpt>
      <trkpt lat="42.41451" lon="0.13165">
        <ele>535.8</ele>
        <time>2016-07-24T07:46:26Z</time>
      </trkpt>
      <trkpt lat="42.4145" lon="0.13159">
        <ele>536</ele>
        <time>2016-07-24T07:46:27Z</time>
      </trkpt>
      <trkpt lat="42.41448" lon="0.13153">
        <ele>536.1</ele>
        <time>2016-07-24T07:46:28Z</time>
      </trkpt>
      <trkpt lat="42.41447" lon="0.13146">
        <ele>536.3</ele>
        <time>2016-07-24T07:46:29Z</time>
      </trkpt>
      <trkpt lat="42.41445" lon="0.1314">
        <ele>536.4</ele>
        <time>2016-07-24T07:46:30Z</time>
      </trkpt>
      <trkpt lat="42.41444" lon="0.13133">
        <ele>536.6</ele>
        <time>2016-07-24T07:46:31Z</time>
      </trkpt>
      <trkpt lat="42.41442" lon="0.13127">
        <ele>536.7</ele>
        <time>2016-07-24T07:46:32Z</time>
      </trkpt>
      <trkpt lat="42.41441" lon="0.13121">
        <ele>536.9</ele>
        <time>2016-07-24T07:46:33Z</time>
      </trkpt>
      <trkpt lat="42.4144" lon="0.13114">
        <ele>537.1</ele>
        <time>2016-07-24T07:46:34Z</time>
      </trkpt>
      <trkpt lat="42.41439" lon="0.13108">
        <ele>537.2</ele>
        <time>2016-07-24T07:46:35Z</time>
      </trkpt>
      <trkpt lat="42.41437" lon="0.131">
        <ele>537.5</ele>
        <time>2016-07-24T07:46:36Z</time>
      </trkpt>
      <trkpt lat="42.41437" lon="0.13094">
        <ele>537.6</ele>
        <time>2016-07-24T07:46:37Z</time>
      </trkpt>
      <trkpt lat="42.41436" lon="0.13088">
        <ele>537.8</ele>
        <time>2016-07-24T07:46:38Z</time>
      </trkpt>
      <trkpt lat="42.41435" lon="0.13083">
        <ele>537.9</ele>
        <time>2016-07-24T07:46:39Z</time>
      </trkpt>
      <trkpt lat="42.41434" lon="0.13078">
        <ele>538.2</ele>
        <time>2016-07-24T07:46:40Z</time>
      </trkpt>
      <trkpt lat="42.41433" lon="0.13071">
        <ele>538.4</ele>
        <time>2016-07-24T07:46:41Z</time>
      </trkpt>
      <trkpt lat="42.41432" lon="0.13064">
        <ele>538.7</ele>
        <time>2016-07-24T07:46:42Z</time>
      </trkpt>
      <trkpt lat="42.41432" lon="0.13059">
        <ele>538.8</ele>
        <time>2016-07-24T07:46:43Z</time>
      </trkpt>
      <trkpt lat="42.4143" lon="0.13052">
        <ele>539.2</ele>
        <time>2016-07-24T07:46:44Z</time>
      </trkpt>
      <trkpt lat="42.41429" lon="0.13046">
        <ele>539.4</ele>
        <time>2016-07-24T07:46:45Z</time>
      </trkpt>
      <trkpt lat="42.41428" lon="0.13039">
        <ele>539.7</ele>
        <time>2016-07-24T07:46:46Z</time>
      </trkpt>
      <trkpt lat="42.41427" lon="0.13032">
        <ele>539.8</ele>
        <time>2016-07-24T07:46:47Z</time>
      </trkpt>
      <trkpt lat="42.41426" lon="0.13027">
        <ele>539.9</ele>
        <time>2016-07-24T07:46:48Z</time>
      </trkpt>
      <trkpt lat="42.41427" lon="0.13022">
        <ele>539.8</ele>
        <time>2016-07-24T07:46:49Z</time>
      </trkpt>
      <trkpt lat="42.41425" lon="0.13018">
        <ele>540</ele>
        <time>2016-07-24T07:46:50Z</time>
      </trkpt>
      <trkpt lat="42.41425" lon="0.13012">
        <ele>540</ele>
        <time>2016-07-24T07:46:51Z</time>
      </trkpt>
      <trkpt lat="42.41422" lon="0.13005">
        <ele>540.4</ele>
        <time>2016-07-24T07:46:52Z</time>
      </trkpt>
      <trkpt lat="42.41421" lon="0.12999">
        <ele>540.5</ele>
        <time>2016-07-24T07:46:53Z</time>
      </trkpt>
      <trkpt lat="42.4142" lon="0.12993">
        <ele>540.7</ele>
        <time>2016-07-24T07:46:54Z</time>
      </trkpt>
      <trkpt lat="42.41419" lon="0.12988">
        <ele>540.7</ele>
        <time>2016-07-24T07:46:55Z</time>
      </trkpt>
      <trkpt lat="42.41418" lon="0.12982">
        <ele>540.9</ele>
        <time>2016-07-24T07:46:56Z</time>
      </trkpt>
      <trkpt lat="42.41417" lon="0.12975">
        <ele>540.9</ele>
        <time>2016-07-24T07:46:57Z</time>
      </trkpt>
      <trkpt lat="42.41415" lon="0.12969">
        <ele>541.2</ele>
        <time>2016-07-24T07:46:58Z</time>
      </trkpt>
      <trkpt lat="42.41414" lon="0.12963">
        <ele>541.3</ele>
        <time>2016-07-24T07:46:59Z</time>
      </trkpt>
      <trkpt lat="42.41413" lon="0.12957">
        <ele>541.5</ele>
        <time>2016-07-24T07:47:00Z</time>
      </trkpt>
      <trkpt lat="42.41411" lon="0.12951">
        <ele>541.5</ele>
        <time>2016-07-24T07:47:01Z</time>
      </trkpt>
      <trkpt lat="42.4141" lon="0.12945">
        <ele>541.5</ele>
        <time>2016-07-24T07:47:02Z</time>
      </trkpt>
      <trkpt lat="42.4141" lon="0.12938">
        <ele>541.4</ele>
        <time>2016-07-24T07:47:03Z</time>
      </trkpt>
      <trkpt lat="42.41409" lon="0.12932">
        <ele>541.3</ele>
        <time>2016-07-24T07:47:04Z</time>
      </trkpt>
      <trkpt lat="42.41409" lon="0.12925">
        <ele>541.3</ele>
        <time>2016-07-24T07:47:05Z</time>
      </trkpt>
      <trkpt lat="42.41407" lon="0.12918">
        <ele>541.3</ele>
        <time>2016-07-24T07:47:06Z</time>
      </trkpt>
      <trkpt lat="42.41406" lon="0.12912">
        <ele>541.3</ele>
        <time>2016-07-24T07:47:07Z</time>
      </trkpt>
      <trkpt lat="42.41405" lon="0.12905">
        <ele>541.2</ele>
        <time>2016-07-24T07:47:08Z</time>
      </trkpt>
      <trkpt lat="42.41404" lon="0.12899">
        <ele>541.2</ele>
        <time>2016-07-24T07:47:09Z</time>
      </trkpt>
      <trkpt lat="42.41402" lon="0.12892">
        <ele>541.1</ele>
        <time>2016-07-24T07:47:10Z</time>
      </trkpt>
      <trkpt lat="42.41401" lon="0.12886">
        <ele>541.1</ele>
        <time>2016-07-24T07:47:11Z</time>
      </trkpt>
      <trkpt lat="42.414" lon="0.1288">
        <ele>541.1</ele>
        <time>2016-07-24T07:47:12Z</time>
      </trkpt>
      <trkpt lat="42.41399" lon="0.12875">
        <ele>541</ele>
        <time>2016-07-24T07:47:13Z</time>
      </trkpt>
      <trkpt lat="42.41397" lon="0.12871">
        <ele>541.2</ele>
        <time>2016-07-24T07:47:14Z</time>
      </trkpt>
      <trkpt lat="42.41396" lon="0.12864">
        <ele>541.4</ele>
        <time>2016-07-24T07:47:15Z</time>
      </trkpt>
      <trkpt lat="42.41394" lon="0.12858">
        <ele>541.6</ele>
        <time>2016-07-24T07:47:16Z</time>
      </trkpt>
      <trkpt lat="42.41394" lon="0.12853">
        <ele>541.6</ele>
        <time>2016-07-24T07:47:17Z</time>
      </trkpt>
      <trkpt lat="42.41395" lon="0.12848">
        <ele>541.7</ele>
        <time>2016-07-24T07:47:18Z</time>
      </trkpt>
      <trkpt lat="42.41394" lon="0.12841">
        <ele>541.8</ele>
        <time>2016-07-24T07:47:19Z</time>
      </trkpt>
      <trkpt lat="42.41392" lon="0.12834">
        <ele>542</ele>
        <time>2016-07-24T07:47:20Z</time>
      </trkpt>
      <trkpt lat="42.41391" lon="0.12827">
        <ele>542.1</ele>
        <time>2016-07-24T07:47:21Z</time>
      </trkpt>
      <trkpt lat="42.41389" lon="0.12821">
        <ele>542.2</ele>
        <time>2016-07-24T07:47:22Z</time>
      </trkpt>
      <trkpt lat="42.41387" lon="0.12814">
        <ele>542.4</ele>
        <time>2016-07-24T07:47:23Z</time>
      </trkpt>
      <trkpt lat="42.41388" lon="0.1281">
        <ele>542.4</ele>
        <time>2016-07-24T07:47:24Z</time>
      </trkpt>
      <trkpt lat="42.41387" lon="0.12803">
        <ele>542.5</ele>
        <time>2016-07-24T07:47:25Z</time>
      </trkpt>
      <trkpt lat="42.41386" lon="0.12798">
        <ele>542.6</ele>
        <time>2016-07-24T07:47:26Z</time>
      </trkpt>
      <trkpt lat="42.41385" lon="0.12792">
        <ele>542.6</ele>
        <time>2016-07-24T07:47:27Z</time>
      </trkpt>
      <trkpt lat="42.41383" lon="0.12786">
        <ele>542.7</ele>
        <time>2016-07-24T07:47:28Z</time>
      </trkpt>
      <trkpt lat="42.41384" lon="0.12782">
        <ele>542.6</ele>
        <time>2016-07-24T07:47:29Z</time>
      </trkpt>
      <trkpt lat="42.41383" lon="0.12775">
        <ele>542.6</ele>
        <time>2016-07-24T07:47:30Z</time>
      </trkpt>
      <trkpt lat="42.41381" lon="0.12768">
        <ele>542.6</ele>
        <time>2016-07-24T07:47:31Z</time>
      </trkpt>
      <trkpt lat="42.41381" lon="0.12763">
        <ele>542.5</ele>
        <time>2016-07-24T07:47:32Z</time>
      </trkpt>
      <trkpt lat="42.4138" lon="0.12757">
        <ele>542.5</ele>
        <time>2016-07-24T07:47:33Z</time>
      </trkpt>
      <trkpt lat="42.41379" lon="0.12751">
        <ele>542.4</ele>
        <time>2016-07-24T07:47:34Z</time>
      </trkpt>
      <trkpt lat="42.41378" lon="0.12745">
        <ele>542.4</ele>
        <time>2016-07-24T07:47:35Z</time>
      </trkpt>
      <trkpt lat="42.41377" lon="0.12739">
        <ele>542.3</ele>
        <time>2016-07-24T07:47:36Z</time>
      </trkpt>
      <trkpt lat="42.41375" lon="0.12734">
        <ele>542.3</ele>
        <time>2016-07-24T07:47:37Z</time>
      </trkpt>
      <trkpt lat="42.41374" lon="0.12728">
        <ele>542.3</ele>
        <time>2016-07-24T07:47:38Z</time>
      </trkpt>
      <trkpt lat="42.41372" lon="0.12722">
        <ele>542.3</ele>
        <time>2016-07-24T07:47:39Z</time>
      </trkpt>
      <trkpt lat="42.41371" lon="0.12718">
        <ele>542.3</ele>
        <time>2016-07-24T07:47:40Z</time>
      </trkpt>
      <trkpt lat="42.41369" lon="0.12711">
        <ele>542.2</ele>
        <time>2016-07-24T07:47:42Z</time>
      </trkpt>
      <trkpt lat="42.41367" lon="0.12707">
        <ele>542.3</ele>
        <time>2016-07-24T07:47:43Z</time>
      </trkpt>
      <trkpt lat="42.41365" lon="0.12702">
        <ele>542.3</ele>
        <time>2016-07-24T07:47:44Z</time>
      </trkpt>
      <trkpt lat="42.41364" lon="0.12698">
        <ele>542.3</ele>
        <time>2016-07-24T07:47:45Z</time>
      </trkpt>
      <trkpt lat="42.41363" lon="0.12694">
        <ele>542.3</ele>
        <time>2016-07-24T07:47:46Z</time>
      </trkpt>
      <trkpt lat="42.41364" lon="0.12689">
        <ele>542.3</ele>
        <time>2016-07-24T07:47:47Z</time>
      </trkpt>
      <trkpt lat="42.41366" lon="0.12683">
        <ele>542.1</ele>
        <time>2016-07-24T07:47:48Z</time>
      </trkpt>
      <trkpt lat="42.41372" lon="0.12678">
        <ele>541.8</ele>
        <time>2016-07-24T07:47:49Z</time>
      </trkpt>
      <trkpt lat="42.41375" lon="0.12673">
        <ele>541.6</ele>
        <time>2016-07-24T07:47:50Z</time>
      </trkpt>
      <trkpt lat="42.41377" lon="0.12668">
        <ele>541.5</ele>
        <time>2016-07-24T07:47:51Z</time>
      </trkpt>
      <trkpt lat="42.4138" lon="0.12663">
        <ele>541.5</ele>
        <time>2016-07-24T07:47:52Z</time>
      </trkpt>
      <trkpt lat="42.41383" lon="0.12658">
        <ele>541.5</ele>
        <time>2016-07-24T07:47:53Z</time>
      </trkpt>
      <trkpt lat="42.41387" lon="0.12654">
        <ele>541.4</ele>
        <time>2016-07-24T07:47:54Z</time>
      </trkpt>
      <trkpt lat="42.41389" lon="0.1265">
        <ele>541.4</ele>
        <time>2016-07-24T07:47:55Z</time>
      </trkpt>
      <trkpt lat="42.41393" lon="0.12645">
        <ele>541.4</ele>
        <time>2016-07-24T07:47:56Z</time>
      </trkpt>
      <trkpt lat="42.41395" lon="0.12639">
        <ele>541.4</ele>
        <time>2016-07-24T07:47:57Z</time>
      </trkpt>
      <trkpt lat="42.41398" lon="0.12635">
        <ele>541.4</ele>
        <time>2016-07-24T07:47:58Z</time>
      </trkpt>
      <trkpt lat="42.41402" lon="0.12631">
        <ele>541.4</ele>
        <time>2016-07-24T07:47:59Z</time>
      </trkpt>
      <trkpt lat="42.41406" lon="0.1263">
        <ele>541.4</ele>
        <time>2016-07-24T07:48:00Z</time>
      </trkpt>
      <trkpt lat="42.4141" lon="0.1263">
        <ele>541.5</ele>
        <time>2016-07-24T07:48:01Z</time>
      </trkpt>
      <trkpt lat="42.41413" lon="0.12634">
        <ele>541.5</ele>
        <time>2016-07-24T07:48:02Z</time>
      </trkpt>
      <trkpt lat="42.41417" lon="0.1264">
        <ele>541.6</ele>
        <time>2016-07-24T07:48:03Z</time>
      </trkpt>
      <trkpt lat="42.4142" lon="0.12647">
        <ele>541.7</ele>
        <time>2016-07-24T07:48:04Z</time>
      </trkpt>
      <trkpt lat="42.41421" lon="0.12654">
        <ele>541.7</ele>
        <time>2016-07-24T07:48:05Z</time>
      </trkpt>
      <trkpt lat="42.41422" lon="0.12661">
        <ele>541.8</ele>
        <time>2016-07-24T07:48:06Z</time>
      </trkpt>
      <trkpt lat="42.41424" lon="0.12669">
        <ele>541.8</ele>
        <time>2016-07-24T07:48:07Z</time>
      </trkpt>
      <trkpt lat="42.41425" lon="0.12677">
        <ele>541.9</ele>
        <time>2016-07-24T07:48:08Z</time>
      </trkpt>
      <trkpt lat="42.41427" lon="0.12685">
        <ele>541.9</ele>
        <time>2016-07-24T07:48:09Z</time>
      </trkpt>
      <trkpt lat="42.41429" lon="0.12692">
        <ele>541.9</ele>
        <time>2016-07-24T07:48:10Z</time>
      </trkpt>
      <trkpt lat="42.41429" lon="0.12699">
        <ele>542</ele>
        <time>2016-07-24T07:48:11Z</time>
      </trkpt>
      <trkpt lat="42.41431" lon="0.12705">
        <ele>542</ele>
        <time>2016-07-24T07:48:12Z</time>
      </trkpt>
      <trkpt lat="42.41433" lon="0.12712">
        <ele>542</ele>
        <time>2016-07-24T07:48:13Z</time>
      </trkpt>
      <trkpt lat="42.41434" lon="0.12718">
        <ele>541.9</ele>
        <time>2016-07-24T07:48:14Z</time>
      </trkpt>
      <trkpt lat="42.41436" lon="0.12724">
        <ele>541.8</ele>
        <time>2016-07-24T07:48:15Z</time>
      </trkpt>
      <trkpt lat="42.41438" lon="0.12731">
        <ele>541.7</ele>
        <time>2016-07-24T07:48:16Z</time>
      </trkpt>
      <trkpt lat="42.41439" lon="0.12738">
        <ele>541.5</ele>
        <time>2016-07-24T07:48:17Z</time>
      </trkpt>
      <trkpt lat="42.41443" lon="0.12746">
        <ele>541.3</ele>
        <time>2016-07-24T07:48:18Z</time>
      </trkpt>
      <trkpt lat="42.41448" lon="0.12755">
        <ele>541.1</ele>
        <time>2016-07-24T07:48:19Z</time>
      </trkpt>
      <trkpt lat="42.41451" lon="0.12761">
        <ele>540.9</ele>
        <time>2016-07-24T07:48:20Z</time>
      </trkpt>
      <trkpt lat="42.41457" lon="0.12768">
        <ele>540.6</ele>
        <time>2016-07-24T07:48:21Z</time>
      </trkpt>
      <trkpt lat="42.41462" lon="0.12775">
        <ele>540.3</ele>
        <time>2016-07-24T07:48:22Z</time>
      </trkpt>
      <trkpt lat="42.41468" lon="0.12778">
        <ele>540.1</ele>
        <time>2016-07-24T07:48:23Z</time>
      </trkpt>
      <trkpt lat="42.41473" lon="0.1278">
        <ele>540</ele>
        <time>2016-07-24T07:48:24Z</time>
      </trkpt>
      <trkpt lat="42.4148" lon="0.12779">
        <ele>539.9</ele>
        <time>2016-07-24T07:48:25Z</time>
      </trkpt>
      <trkpt lat="42.41487" lon="0.1278">
        <ele>539.7</ele>
        <time>2016-07-24T07:48:26Z</time>
      </trkpt>
      <trkpt lat="42.41493" lon="0.1278">
        <ele>539.6</ele>
        <time>2016-07-24T07:48:27Z</time>
      </trkpt>
      <trkpt lat="42.41499" lon="0.12778">
        <ele>539.5</ele>
        <time>2016-07-24T07:48:28Z</time>
      </trkpt>
      <trkpt lat="42.41504" lon="0.12779">
        <ele>539.4</ele>
        <time>2016-07-24T07:48:29Z</time>
      </trkpt>
      <trkpt lat="42.4151" lon="0.1278">
        <ele>539.2</ele>
        <time>2016-07-24T07:48:30Z</time>
      </trkpt>
      <trkpt lat="42.41516" lon="0.12782">
        <ele>539</ele>
        <time>2016-07-24T07:48:31Z</time>
      </trkpt>
      <trkpt lat="42.41521" lon="0.12784">
        <ele>538.8</ele>
        <time>2016-07-24T07:48:32Z</time>
      </trkpt>
      <trkpt lat="42.41526" lon="0.12788">
        <ele>538.5</ele>
        <time>2016-07-24T07:48:33Z</time>
      </trkpt>
      <trkpt lat="42.41532" lon="0.12793">
        <ele>538.2</ele>
        <time>2016-07-24T07:48:34Z</time>
      </trkpt>
      <trkpt lat="42.41537" lon="0.12798">
        <ele>538.1</ele>
        <time>2016-07-24T07:48:35Z</time>
      </trkpt>
      <trkpt lat="42.41542" lon="0.12804">
        <ele>538</ele>
        <time>2016-07-24T07:48:36Z</time>
      </trkpt>
      <trkpt lat="42.41546" lon="0.1281">
        <ele>538.1</ele>
        <time>2016-07-24T07:48:37Z</time>
      </trkpt>
      <trkpt lat="42.41551" lon="0.12816">
        <ele>538.2</ele>
        <time>2016-07-24T07:48:38Z</time>
      </trkpt>
      <trkpt lat="42.41556" lon="0.12822">
        <ele>538.2</ele>
        <time>2016-07-24T07:48:39Z</time>
      </trkpt>
      <trkpt lat="42.41561" lon="0.12826">
        <ele>538.3</ele>
        <time>2016-07-24T07:48:40Z</time>
      </trkpt>
      <trkpt lat="42.41566" lon="0.12832">
        <ele>538.3</ele>
        <time>2016-07-24T07:48:41Z</time>
      </trkpt>
      <trkpt lat="42.41572" lon="0.12837">
        <ele>538.3</ele>
        <time>2016-07-24T07:48:42Z</time>
      </trkpt>
      <trkpt lat="42.41577" lon="0.1284">
        <ele>538.4</ele>
        <time>2016-07-24T07:48:43Z</time>
      </trkpt>
      <trkpt lat="42.41583" lon="0.12843">
        <ele>538.4</ele>
        <time>2016-07-24T07:48:44Z</time>
      </trkpt>
      <trkpt lat="42.41588" lon="0.12845">
        <ele>538.4</ele>
        <time>2016-07-24T07:48:45Z</time>
      </trkpt>
      <trkpt lat="42.41593" lon="0.12849">
        <ele>538.4</ele>
        <time>2016-07-24T07:48:46Z</time>
      </trkpt>
      <trkpt lat="42.416" lon="0.1285">
        <ele>538.4</ele>
        <time>2016-07-24T07:48:47Z</time>
      </trkpt>
      <trkpt lat="42.41605" lon="0.12852">
        <ele>538.4</ele>
        <time>2016-07-24T07:48:48Z</time>
      </trkpt>
      <trkpt lat="42.4161" lon="0.12856">
        <ele>538.4</ele>
        <time>2016-07-24T07:48:49Z</time>
      </trkpt>
      <trkpt lat="42.41615" lon="0.12857">
        <ele>538.4</ele>
        <time>2016-07-24T07:48:50Z</time>
      </trkpt>
      <trkpt lat="42.41622" lon="0.12858">
        <ele>538.4</ele>
        <time>2016-07-24T07:48:51Z</time>
      </trkpt>
      <trkpt lat="42.41628" lon="0.12859">
        <ele>538.4</ele>
        <time>2016-07-24T07:48:52Z</time>
      </trkpt>
      <trkpt lat="42.41634" lon="0.12861">
        <ele>538.4</ele>
        <time>2016-07-24T07:48:53Z</time>
      </trkpt>
      <trkpt lat="42.4164" lon="0.12861">
        <ele>538.4</ele>
        <time>2016-07-24T07:48:54Z</time>
      </trkpt>
      <trkpt lat="42.41645" lon="0.12862">
        <ele>538.5</ele>
        <time>2016-07-24T07:48:55Z</time>
      </trkpt>
      <trkpt lat="42.4165" lon="0.12865">
        <ele>538.5</ele>
        <time>2016-07-24T07:48:56Z</time>
      </trkpt>
      <trkpt lat="42.41655" lon="0.12867">
        <ele>538.5</ele>
        <time>2016-07-24T07:48:57Z</time>
      </trkpt>
      <trkpt lat="42.41661" lon="0.1287">
        <ele>538.5</ele>
        <time>2016-07-24T07:48:58Z</time>
      </trkpt>
      <trkpt lat="42.41666" lon="0.12872">
        <ele>538.5</ele>
        <time>2016-07-24T07:48:59Z</time>
      </trkpt>
      <trkpt lat="42.41671" lon="0.12875">
        <ele>538.6</ele>
        <time>2016-07-24T07:49:00Z</time>
      </trkpt>
      <trkpt lat="42.41675" lon="0.12878">
        <ele>538.5</ele>
        <time>2016-07-24T07:49:01Z</time>
      </trkpt>
      <trkpt lat="42.4168" lon="0.1288">
        <ele>538.5</ele>
        <time>2016-07-24T07:49:02Z</time>
      </trkpt>
      <trkpt lat="42.41684" lon="0.12883">
        <ele>538.5</ele>
        <time>2016-07-24T07:49:03Z</time>
      </trkpt>
      <trkpt lat="42.4169" lon="0.12883">
        <ele>538.5</ele>
        <time>2016-07-24T07:49:04Z</time>
      </trkpt>
      <trkpt lat="42.41697" lon="0.12883">
        <ele>538.6</ele>
        <time>2016-07-24T07:49:05Z</time>
      </trkpt>
      <trkpt lat="42.41702" lon="0.12881">
        <ele>538.7</ele>
        <time>2016-07-24T07:49:06Z</time>
      </trkpt>
      <trkpt lat="42.41705" lon="0.12877">
        <ele>538.9</ele>
        <time>2016-07-24T07:49:07Z</time>
      </trkpt>
      <trkpt lat="42.41708" lon="0.12872">
        <ele>539</ele>
        <time>2016-07-24T07:49:08Z</time>
      </trkpt>
      <trkpt lat="42.41711" lon="0.12866">
        <ele>538.9</ele>
        <time>2016-07-24T07:49:09Z</time>
      </trkpt>
      <trkpt lat="42.41714" lon="0.12859">
        <ele>538.8</ele>
        <time>2016-07-24T07:49:10Z</time>
      </trkpt>
      <trkpt lat="42.41716" lon="0.12853">
        <ele>538.8</ele>
        <time>2016-07-24T07:49:11Z</time>
      </trkpt>
      <trkpt lat="42.41718" lon="0.12847">
        <ele>538.7</ele>
        <time>2016-07-24T07:49:12Z</time>
      </trkpt>
      <trkpt lat="42.41719" lon="0.1284">
        <ele>538.7</ele>
        <time>2016-07-24T07:49:13Z</time>
      </trkpt>
      <trkpt lat="42.41722" lon="0.12834">
        <ele>538.7</ele>
        <time>2016-07-24T07:49:14Z</time>
      </trkpt>
      <trkpt lat="42.41723" lon="0.12825">
        <ele>538.7</ele>
        <time>2016-07-24T07:49:15Z</time>
      </trkpt>
      <trkpt lat="42.41725" lon="0.12818">
        <ele>538.7</ele>
        <time>2016-07-24T07:49:16Z</time>
      </trkpt>
      <trkpt lat="42.41726" lon="0.12812">
        <ele>538.7</ele>
        <time>2016-07-24T07:49:17Z</time>
      </trkpt>
      <trkpt lat="42.41728" lon="0.12805">
        <ele>538.7</ele>
        <time>2016-07-24T07:49:18Z</time>
      </trkpt>
      <trkpt lat="42.41731" lon="0.12797">
        <ele>538.7</ele>
        <time>2016-07-24T07:49:19Z</time>
      </trkpt>
      <trkpt lat="42.41734" lon="0.12791">
        <ele>538.7</ele>
        <time>2016-07-24T07:49:20Z</time>
      </trkpt>
      <trkpt lat="42.41737" lon="0.12786">
        <ele>538.6</ele>
        <time>2016-07-24T07:49:21Z</time>
      </trkpt>
      <trkpt lat="42.41739" lon="0.1278">
        <ele>538.5</ele>
        <time>2016-07-24T07:49:22Z</time>
      </trkpt>
      <trkpt lat="42.41743" lon="0.12775">
        <ele>538.3</ele>
        <time>2016-07-24T07:49:23Z</time>
      </trkpt>
      <trkpt lat="42.41748" lon="0.12771">
        <ele>538.3</ele>
        <time>2016-07-24T07:49:24Z</time>
      </trkpt>
      <trkpt lat="42.41752" lon="0.12765">
        <ele>538.2</ele>
        <time>2016-07-24T07:49:25Z</time>
      </trkpt>
      <trkpt lat="42.41754" lon="0.12759">
        <ele>538.1</ele>
        <time>2016-07-24T07:49:26Z</time>
      </trkpt>
      <trkpt lat="42.41758" lon="0.12755">
        <ele>538</ele>
        <time>2016-07-24T07:49:27Z</time>
      </trkpt>
      <trkpt lat="42.41762" lon="0.1275">
        <ele>538</ele>
        <time>2016-07-24T07:49:28Z</time>
      </trkpt>
      <trkpt lat="42.41765" lon="0.12747">
        <ele>538</ele>
        <time>2016-07-24T07:49:29Z</time>
      </trkpt>
      <trkpt lat="42.41768" lon="0.12742">
        <ele>537.9</ele>
        <time>2016-07-24T07:49:30Z</time>
      </trkpt>
      <trkpt lat="42.41774" lon="0.12737">
        <ele>537.9</ele>
        <time>2016-07-24T07:49:31Z</time>
      </trkpt>
      <trkpt lat="42.41779" lon="0.12733">
        <ele>537.9</ele>
        <time>2016-07-24T07:49:32Z</time>
      </trkpt>
      <trkpt lat="42.41784" lon="0.12728">
        <ele>538</ele>
        <time>2016-07-24T07:49:33Z</time>
      </trkpt>
      <trkpt lat="42.41788" lon="0.12725">
        <ele>538</ele>
        <time>2016-07-24T07:49:34Z</time>
      </trkpt>
      <trkpt lat="42.41793" lon="0.12721">
        <ele>538</ele>
        <time>2016-07-24T07:49:35Z</time>
      </trkpt>
      <trkpt lat="42.41797" lon="0.12717">
        <ele>538</ele>
        <time>2016-07-24T07:49:36Z</time>
      </trkpt>
      <trkpt lat="42.41802" lon="0.12713">
        <ele>538.1</ele>
        <time>2016-07-24T07:49:37Z</time>
      </trkpt>
      <trkpt lat="42.41805" lon="0.12707">
        <ele>538.2</ele>
        <time>2016-07-24T07:49:38Z</time>
      </trkpt>
      <trkpt lat="42.41809" lon="0.12702">
        <ele>538.2</ele>
        <time>2016-07-24T07:49:39Z</time>
      </trkpt>
      <trkpt lat="42.41811" lon="0.12697">
        <ele>538.2</ele>
        <time>2016-07-24T07:49:40Z</time>
      </trkpt>
      <trkpt lat="42.41813" lon="0.12691">
        <ele>538.2</ele>
        <time>2016-07-24T07:49:41Z</time>
      </trkpt>
      <trkpt lat="42.41816" lon="0.12686">
        <ele>538.2</ele>
        <time>2016-07-24T07:49:42Z</time>
      </trkpt>
      <trkpt lat="42.41818" lon="0.12681">
        <ele>538.2</ele>
        <time>2016-07-24T07:49:43Z</time>
      </trkpt>
      <trkpt lat="42.41819" lon="0.12675">
        <ele>538.2</ele>
        <time>2016-07-24T07:49:44Z</time>
      </trkpt>
      <trkpt lat="42.41822" lon="0.12671">
        <ele>538.2</ele>
        <time>2016-07-24T07:49:45Z</time>
      </trkpt>
      <trkpt lat="42.41825" lon="0.12666">
        <ele>538.2</ele>
        <time>2016-07-24T07:49:46Z</time>
      </trkpt>
      <trkpt lat="42.41828" lon="0.1266">
        <ele>538.2</ele>
        <time>2016-07-24T07:49:47Z</time>
      </trkpt>
      <trkpt lat="42.41829" lon="0.12655">
        <ele>538.2</ele>
        <time>2016-07-24T07:49:48Z</time>
      </trkpt>
      <trkpt lat="42.41832" lon="0.1265">
        <ele>538.1</ele>
        <time>2016-07-24T07:49:49Z</time>
      </trkpt>
      <trkpt lat="42.41836" lon="0.12647">
        <ele>538.1</ele>
        <time>2016-07-24T07:49:50Z</time>
      </trkpt>
      <trkpt lat="42.41839" lon="0.12643">
        <ele>538.1</ele>
        <time>2016-07-24T07:49:51Z</time>
      </trkpt>
      <trkpt lat="42.41841" lon="0.12639">
        <ele>538.1</ele>
        <time>2016-07-24T07:49:52Z</time>
      </trkpt>
      <trkpt lat="42.41844" lon="0.12635">
        <ele>538.1</ele>
        <time>2016-07-24T07:49:53Z</time>
      </trkpt>
      <trkpt lat="42.41848" lon="0.1263">
        <ele>538</ele>
        <time>2016-07-24T07:49:54Z</time>
      </trkpt>
      <trkpt lat="42.41852" lon="0.12627">
        <ele>538</ele>
        <time>2016-07-24T07:49:55Z</time>
      </trkpt>
      <trkpt lat="42.41857" lon="0.12624">
        <ele>538</ele>
        <time>2016-07-24T07:49:56Z</time>
      </trkpt>
      <trkpt lat="42.41861" lon="0.1262">
        <ele>538.1</ele>
        <time>2016-07-24T07:49:57Z</time>
      </trkpt>
      <trkpt lat="42.41865" lon="0.12617">
        <ele>538.1</ele>
        <time>2016-07-24T07:49:58Z</time>
      </trkpt>
      <trkpt lat="42.41869" lon="0.12612">
        <ele>538.2</ele>
        <time>2016-07-24T07:49:59Z</time>
      </trkpt>
      <trkpt lat="42.41874" lon="0.12609">
        <ele>538.2</ele>
        <time>2016-07-24T07:50:00Z</time>
      </trkpt>
      <trkpt lat="42.41878" lon="0.12605">
        <ele>538.2</ele>
        <time>2016-07-24T07:50:01Z</time>
      </trkpt>
      <trkpt lat="42.4188" lon="0.126">
        <ele>538.3</ele>
        <time>2016-07-24T07:50:02Z</time>
      </trkpt>
      <trkpt lat="42.41883" lon="0.12597">
        <ele>538.3</ele>
        <time>2016-07-24T07:50:03Z</time>
      </trkpt>
      <trkpt lat="42.41886" lon="0.12593">
        <ele>538.3</ele>
        <time>2016-07-24T07:50:04Z</time>
      </trkpt>
      <trkpt lat="42.4189" lon="0.12591">
        <ele>538.3</ele>
        <time>2016-07-24T07:50:05Z</time>
      </trkpt>
      <trkpt lat="42.41894" lon="0.1259">
        <ele>538.2</ele>
        <time>2016-07-24T07:50:06Z</time>
      </trkpt>
      <trkpt lat="42.41899" lon="0.12591">
        <ele>538.2</ele>
        <time>2016-07-24T07:50:07Z</time>
      </trkpt>
      <trkpt lat="42.41904" lon="0.12593">
        <ele>538.1</ele>
        <time>2016-07-24T07:50:08Z</time>
      </trkpt>
      <trkpt lat="42.41908" lon="0.12594">
        <ele>538.1</ele>
        <time>2016-07-24T07:50:09Z</time>
      </trkpt>
      <trkpt lat="42.41913" lon="0.12593">
        <ele>538</ele>
        <time>2016-07-24T07:50:10Z</time>
      </trkpt>
      <trkpt lat="42.41917" lon="0.12592">
        <ele>538</ele>
        <time>2016-07-24T07:50:11Z</time>
      </trkpt>
      <trkpt lat="42.41921" lon="0.12589">
        <ele>538</ele>
        <time>2016-07-24T07:50:12Z</time>
      </trkpt>
      <trkpt lat="42.41924" lon="0.12584">
        <ele>537.9</ele>
        <time>2016-07-24T07:50:13Z</time>
      </trkpt>
      <trkpt lat="42.41927" lon="0.12579">
        <ele>537.9</ele>
        <time>2016-07-24T07:50:14Z</time>
      </trkpt>
      <trkpt lat="42.4193" lon="0.12573">
        <ele>537.8</ele>
        <time>2016-07-24T07:50:15Z</time>
      </trkpt>
      <trkpt lat="42.41933" lon="0.12568">
        <ele>537.7</ele>
        <time>2016-07-24T07:50:16Z</time>
      </trkpt>
      <trkpt lat="42.41935" lon="0.12561">
        <ele>537.7</ele>
        <time>2016-07-24T07:50:17Z</time>
      </trkpt>
      <trkpt lat="42.41938" lon="0.12556">
        <ele>537.6</ele>
        <time>2016-07-24T07:50:18Z</time>
      </trkpt>
      <trkpt lat="42.41941" lon="0.12551">
        <ele>537.5</ele>
        <time>2016-07-24T07:50:19Z</time>
      </trkpt>
      <trkpt lat="42.41943" lon="0.12546">
        <ele>537.4</ele>
        <time>2016-07-24T07:50:20Z</time>
      </trkpt>
      <trkpt lat="42.41947" lon="0.12539">
        <ele>537.4</ele>
        <time>2016-07-24T07:50:21Z</time>
      </trkpt>
      <trkpt lat="42.41949" lon="0.12534">
        <ele>537.5</ele>
        <time>2016-07-24T07:50:22Z</time>
      </trkpt>
      <trkpt lat="42.41952" lon="0.1253">
        <ele>537.6</ele>
        <time>2016-07-24T07:50:23Z</time>
      </trkpt>
      <trkpt lat="42.41957" lon="0.12523">
        <ele>537.7</ele>
        <time>2016-07-24T07:50:24Z</time>
      </trkpt>
      <trkpt lat="42.41962" lon="0.12518">
        <ele>537.8</ele>
        <time>2016-07-24T07:50:25Z</time>
      </trkpt>
      <trkpt lat="42.41965" lon="0.12514">
        <ele>537.9</ele>
        <time>2016-07-24T07:50:26Z</time>
      </trkpt>
      <trkpt lat="42.41968" lon="0.12509">
        <ele>538</ele>
        <time>2016-07-24T07:50:27Z</time>
      </trkpt>
      <trkpt lat="42.41972" lon="0.12503">
        <ele>538.2</ele>
        <time>2016-07-24T07:50:28Z</time>
      </trkpt>
      <trkpt lat="42.41974" lon="0.12499">
        <ele>538.2</ele>
        <time>2016-07-24T07:50:29Z</time>
      </trkpt>
      <trkpt lat="42.41977" lon="0.12494">
        <ele>538.3</ele>
        <time>2016-07-24T07:50:30Z</time>
      </trkpt>
      <trkpt lat="42.4198" lon="0.12489">
        <ele>538.4</ele>
        <time>2016-07-24T07:50:31Z</time>
      </trkpt>
      <trkpt lat="42.41983" lon="0.12483">
        <ele>538.5</ele>
        <time>2016-07-24T07:50:32Z</time>
      </trkpt>
      <trkpt lat="42.41986" lon="0.12478">
        <ele>538.5</ele>
        <time>2016-07-24T07:50:33Z</time>
      </trkpt>
      <trkpt lat="42.41989" lon="0.12473">
        <ele>538.6</ele>
        <time>2016-07-24T07:50:34Z</time>
      </trkpt>
      <trkpt lat="42.41992" lon="0.12469">
        <ele>538.6</ele>
        <time>2016-07-24T07:50:35Z</time>
      </trkpt>
      <trkpt lat="42.41994" lon="0.12462">
        <ele>538.6</ele>
        <time>2016-07-24T07:50:36Z</time>
      </trkpt>
      <trkpt lat="42.41997" lon="0.12458">
        <ele>538.6</ele>
        <time>2016-07-24T07:50:37Z</time>
      </trkpt>
      <trkpt lat="42.41998" lon="0.12453">
        <ele>538.7</ele>
        <time>2016-07-24T07:50:38Z</time>
      </trkpt>
      <trkpt lat="42.42" lon="0.12447">
        <ele>538.8</ele>
        <time>2016-07-24T07:50:39Z</time>
      </trkpt>
      <trkpt lat="42.42002" lon="0.12442">
        <ele>538.8</ele>
        <time>2016-07-24T07:50:40Z</time>
      </trkpt>
      <trkpt lat="42.42004" lon="0.12437">
        <ele>538.9</ele>
        <time>2016-07-24T07:50:41Z</time>
      </trkpt>
      <trkpt lat="42.42008" lon="0.12434">
        <ele>538.8</ele>
        <time>2016-07-24T07:50:42Z</time>
      </trkpt>
      <trkpt lat="42.42011" lon="0.12428">
        <ele>538.8</ele>
        <time>2016-07-24T07:50:43Z</time>
      </trkpt>
      <trkpt lat="42.42014" lon="0.12423">
        <ele>538.9</ele>
        <time>2016-07-24T07:50:44Z</time>
      </trkpt>
      <trkpt lat="42.42017" lon="0.12418">
        <ele>538.9</ele>
        <time>2016-07-24T07:50:45Z</time>
      </trkpt>
      <trkpt lat="42.4202" lon="0.12413">
        <ele>538.9</ele>
        <time>2016-07-24T07:50:46Z</time>
      </trkpt>
      <trkpt lat="42.42023" lon="0.12408">
        <ele>538.9</ele>
        <time>2016-07-24T07:50:47Z</time>
      </trkpt>
      <trkpt lat="42.42027" lon="0.12403">
        <ele>538.9</ele>
        <time>2016-07-24T07:50:48Z</time>
      </trkpt>
      <trkpt lat="42.4203" lon="0.12398">
        <ele>538.9</ele>
        <time>2016-07-24T07:50:49Z</time>
      </trkpt>
      <trkpt lat="42.42033" lon="0.12392">
        <ele>538.9</ele>
        <time>2016-07-24T07:50:50Z</time>
      </trkpt>
      <trkpt lat="42.42036" lon="0.12387">
        <ele>538.9</ele>
        <time>2016-07-24T07:50:51Z</time>
      </trkpt>
      <trkpt lat="42.4204" lon="0.12382">
        <ele>538.9</ele>
        <time>2016-07-24T07:50:52Z</time>
      </trkpt>
      <trkpt lat="42.42041" lon="0.12375">
        <ele>539</ele>
        <time>2016-07-24T07:50:53Z</time>
      </trkpt>
      <trkpt lat="42.42043" lon="0.1237">
        <ele>539.2</ele>
        <time>2016-07-24T07:50:54Z</time>
      </trkpt>
      <trkpt lat="42.42046" lon="0.12365">
        <ele>539.3</ele>
        <time>2016-07-24T07:50:55Z</time>
      </trkpt>
      <trkpt lat="42.42049" lon="0.1236">
        <ele>539.5</ele>
        <time>2016-07-24T07:50:56Z</time>
      </trkpt>
      <trkpt lat="42.42052" lon="0.12355">
        <ele>539.7</ele>
        <time>2016-07-24T07:50:57Z</time>
      </trkpt>
      <trkpt lat="42.42056" lon="0.12349">
        <ele>539.9</ele>
        <time>2016-07-24T07:50:58Z</time>
      </trkpt>
      <trkpt lat="42.42058" lon="0.12344">
        <ele>540</ele>
        <time>2016-07-24T07:50:59Z</time>
      </trkpt>
      <trkpt lat="42.42061" lon="0.1234">
        <ele>540.2</ele>
        <time>2016-07-24T07:51:00Z</time>
      </trkpt>
      <trkpt lat="42.42063" lon="0.12334">
        <ele>540.3</ele>
        <time>2016-07-24T07:51:01Z</time>
      </trkpt>
      <trkpt lat="42.42066" lon="0.12329">
        <ele>540.5</ele>
        <time>2016-07-24T07:51:02Z</time>
      </trkpt>
      <trkpt lat="42.42069" lon="0.12324">
        <ele>540.6</ele>
        <time>2016-07-24T07:51:03Z</time>
      </trkpt>
      <trkpt lat="42.42071" lon="0.12319">
        <ele>540.8</ele>
        <time>2016-07-24T07:51:04Z</time>
      </trkpt>
      <trkpt lat="42.42075" lon="0.12314">
        <ele>540.9</ele>
        <time>2016-07-24T07:51:05Z</time>
      </trkpt>
      <trkpt lat="42.42078" lon="0.12309">
        <ele>541</ele>
        <time>2016-07-24T07:51:06Z</time>
      </trkpt>
      <trkpt lat="42.42081" lon="0.12304">
        <ele>541.2</ele>
        <time>2016-07-24T07:51:07Z</time>
      </trkpt>
      <trkpt lat="42.42084" lon="0.12299">
        <ele>541.3</ele>
        <time>2016-07-24T07:51:08Z</time>
      </trkpt>
      <trkpt lat="42.42087" lon="0.12294">
        <ele>541.4</ele>
        <time>2016-07-24T07:51:09Z</time>
      </trkpt>
      <trkpt lat="42.4209" lon="0.12288">
        <ele>541.5</ele>
        <time>2016-07-24T07:51:10Z</time>
      </trkpt>
      <trkpt lat="42.42093" lon="0.12282">
        <ele>541.6</ele>
        <time>2016-07-24T07:51:11Z</time>
      </trkpt>
      <trkpt lat="42.42097" lon="0.12277">
        <ele>541.6</ele>
        <time>2016-07-24T07:51:12Z</time>
      </trkpt>
      <trkpt lat="42.421" lon="0.12274">
        <ele>541.7</ele>
        <time>2016-07-24T07:51:13Z</time>
      </trkpt>
      <trkpt lat="42.42102" lon="0.12271">
        <ele>541.7</ele>
        <time>2016-07-24T07:51:14Z</time>
      </trkpt>
      <trkpt lat="42.42105" lon="0.12266">
        <ele>541.8</ele>
        <time>2016-07-24T07:51:15Z</time>
      </trkpt>
      <trkpt lat="42.42107" lon="0.12261">
        <ele>541.9</ele>
        <time>2016-07-24T07:51:16Z</time>
      </trkpt>
      <trkpt lat="42.4211" lon="0.12256">
        <ele>542</ele>
        <time>2016-07-24T07:51:17Z</time>
      </trkpt>
      <trkpt lat="42.42112" lon="0.12252">
        <ele>542</ele>
        <time>2016-07-24T07:51:18Z</time>
      </trkpt>
      <trkpt lat="42.42114" lon="0.12247">
        <ele>542.1</ele>
        <time>2016-07-24T07:51:19Z</time>
      </trkpt>
      <trkpt lat="42.42116" lon="0.12243">
        <ele>542.2</ele>
        <time>2016-07-24T07:51:20Z</time>
      </trkpt>
      <trkpt lat="42.4212" lon="0.12239">
        <ele>542.3</ele>
        <time>2016-07-24T07:51:21Z</time>
      </trkpt>
      <trkpt lat="42.42124" lon="0.12234">
        <ele>542.4</ele>
        <time>2016-07-24T07:51:22Z</time>
      </trkpt>
      <trkpt lat="42.42128" lon="0.12228">
        <ele>542.5</ele>
        <time>2016-07-24T07:51:23Z</time>
      </trkpt>
      <trkpt lat="42.4213" lon="0.12222">
        <ele>542.7</ele>
        <time>2016-07-24T07:51:24Z</time>
      </trkpt>
      <trkpt lat="42.42133" lon="0.12215">
        <ele>542.8</ele>
        <time>2016-07-24T07:51:25Z</time>
      </trkpt>
      <trkpt lat="42.42136" lon="0.1221">
        <ele>543</ele>
        <time>2016-07-24T07:51:26Z</time>
      </trkpt>
      <trkpt lat="42.42138" lon="0.12205">
        <ele>543</ele>
        <time>2016-07-24T07:51:27Z</time>
      </trkpt>
      <trkpt lat="42.42142" lon="0.122">
        <ele>542.9</ele>
        <time>2016-07-24T07:51:28Z</time>
      </trkpt>
      <trkpt lat="42.42146" lon="0.12194">
        <ele>542.9</ele>
        <time>2016-07-24T07:51:29Z</time>
      </trkpt>
      <trkpt lat="42.4215" lon="0.1219">
        <ele>542.8</ele>
        <time>2016-07-24T07:51:30Z</time>
      </trkpt>
      <trkpt lat="42.42153" lon="0.12184">
        <ele>542.8</ele>
        <time>2016-07-24T07:51:31Z</time>
      </trkpt>
      <trkpt lat="42.42157" lon="0.12179">
        <ele>542.8</ele>
        <time>2016-07-24T07:51:32Z</time>
      </trkpt>
      <trkpt lat="42.42158" lon="0.12172">
        <ele>542.7</ele>
        <time>2016-07-24T07:51:33Z</time>
      </trkpt>
      <trkpt lat="42.42162" lon="0.12168">
        <ele>542.7</ele>
        <time>2016-07-24T07:51:34Z</time>
      </trkpt>
      <trkpt lat="42.42165" lon="0.12163">
        <ele>542.7</ele>
        <time>2016-07-24T07:51:35Z</time>
      </trkpt>
      <trkpt lat="42.42168" lon="0.12159">
        <ele>542.7</ele>
        <time>2016-07-24T07:51:36Z</time>
      </trkpt>
      <trkpt lat="42.42172" lon="0.12154">
        <ele>542.7</ele>
        <time>2016-07-24T07:51:37Z</time>
      </trkpt>
      <trkpt lat="42.42175" lon="0.12148">
        <ele>542.7</ele>
        <time>2016-07-24T07:51:38Z</time>
      </trkpt>
      <trkpt lat="42.42177" lon="0.12143">
        <ele>542.7</ele>
        <time>2016-07-24T07:51:39Z</time>
      </trkpt>
      <trkpt lat="42.42179" lon="0.12138">
        <ele>542.7</ele>
        <time>2016-07-24T07:51:40Z</time>
      </trkpt>
      <trkpt lat="42.42182" lon="0.12133">
        <ele>542.7</ele>
        <time>2016-07-24T07:51:41Z</time>
      </trkpt>
      <trkpt lat="42.42185" lon="0.12127">
        <ele>542.7</ele>
        <time>2016-07-24T07:51:42Z</time>
      </trkpt>
      <trkpt lat="42.42188" lon="0.12121">
        <ele>542.8</ele>
        <time>2016-07-24T07:51:43Z</time>
      </trkpt>
      <trkpt lat="42.4219" lon="0.12117">
        <ele>542.9</ele>
        <time>2016-07-24T07:51:44Z</time>
      </trkpt>
      <trkpt lat="42.42192" lon="0.12111">
        <ele>543</ele>
        <time>2016-07-24T07:51:45Z</time>
      </trkpt>
      <trkpt lat="42.42195" lon="0.12105">
        <ele>543.2</ele>
        <time>2016-07-24T07:51:46Z</time>
      </trkpt>
      <trkpt lat="42.42198" lon="0.121">
        <ele>543.3</ele>
        <time>2016-07-24T07:51:47Z</time>
      </trkpt>
      <trkpt lat="42.422" lon="0.12095">
        <ele>543.3</ele>
        <time>2016-07-24T07:51:48Z</time>
      </trkpt>
      <trkpt lat="42.42203" lon="0.1209">
        <ele>543.4</ele>
        <time>2016-07-24T07:51:49Z</time>
      </trkpt>
      <trkpt lat="42.42206" lon="0.12084">
        <ele>543.5</ele>
        <time>2016-07-24T07:51:50Z</time>
      </trkpt>
      <trkpt lat="42.4221" lon="0.12079">
        <ele>543.5</ele>
        <time>2016-07-24T07:51:51Z</time>
      </trkpt>
      <trkpt lat="42.42213" lon="0.12075">
        <ele>543.6</ele>
        <time>2016-07-24T07:51:52Z</time>
      </trkpt>
      <trkpt lat="42.42217" lon="0.1207">
        <ele>543.6</ele>
        <time>2016-07-24T07:51:53Z</time>
      </trkpt>
      <trkpt lat="42.4222" lon="0.12064">
        <ele>543.7</ele>
        <time>2016-07-24T07:51:54Z</time>
      </trkpt>
      <trkpt lat="42.42224" lon="0.1206">
        <ele>543.7</ele>
        <time>2016-07-24T07:51:55Z</time>
      </trkpt>
      <trkpt lat="42.42226" lon="0.12054">
        <ele>543.8</ele>
        <time>2016-07-24T07:51:56Z</time>
      </trkpt>
      <trkpt lat="42.42229" lon="0.12049">
        <ele>543.9</ele>
        <time>2016-07-24T07:51:57Z</time>
      </trkpt>
      <trkpt lat="42.42232" lon="0.12044">
        <ele>544</ele>
        <time>2016-07-24T07:51:58Z</time>
      </trkpt>
      <trkpt lat="42.42234" lon="0.12038">
        <ele>544.2</ele>
        <time>2016-07-24T07:51:59Z</time>
      </trkpt>
      <trkpt lat="42.42238" lon="0.12033">
        <ele>544.4</ele>
        <time>2016-07-24T07:52:00Z</time>
      </trkpt>
      <trkpt lat="42.42241" lon="0.12027">
        <ele>544.7</ele>
        <time>2016-07-24T07:52:01Z</time>
      </trkpt>
      <trkpt lat="42.42243" lon="0.12021">
        <ele>544.9</ele>
        <time>2016-07-24T07:52:02Z</time>
      </trkpt>
      <trkpt lat="42.42247" lon="0.12016">
        <ele>545.1</ele>
        <time>2016-07-24T07:52:03Z</time>
      </trkpt>
      <trkpt lat="42.42249" lon="0.1201">
        <ele>545.3</ele>
        <time>2016-07-24T07:52:04Z</time>
      </trkpt>
      <trkpt lat="42.42251" lon="0.12006">
        <ele>545.5</ele>
        <time>2016-07-24T07:52:05Z</time>
      </trkpt>
      <trkpt lat="42.42253" lon="0.12002">
        <ele>545.6</ele>
        <time>2016-07-24T07:52:06Z</time>
      </trkpt>
      <trkpt lat="42.42256" lon="0.11997">
        <ele>545.8</ele>
        <time>2016-07-24T07:52:07Z</time>
      </trkpt>
      <trkpt lat="42.42257" lon="0.11991">
        <ele>546</ele>
        <time>2016-07-24T07:52:08Z</time>
      </trkpt>
      <trkpt lat="42.4226" lon="0.11986">
        <ele>546.1</ele>
        <time>2016-07-24T07:52:09Z</time>
      </trkpt>
      <trkpt lat="42.42262" lon="0.11981">
        <ele>546.2</ele>
        <time>2016-07-24T07:52:10Z</time>
      </trkpt>
      <trkpt lat="42.42267" lon="0.11977">
        <ele>546.2</ele>
        <time>2016-07-24T07:52:11Z</time>
      </trkpt>
      <trkpt lat="42.4227" lon="0.11972">
        <ele>546.3</ele>
        <time>2016-07-24T07:52:12Z</time>
      </trkpt>
      <trkpt lat="42.42273" lon="0.11966">
        <ele>546.4</ele>
        <time>2016-07-24T07:52:13Z</time>
      </trkpt>
      <trkpt lat="42.42277" lon="0.11961">
        <ele>546.4</ele>
        <time>2016-07-24T07:52:14Z</time>
      </trkpt>
      <trkpt lat="42.42281" lon="0.11955">
        <ele>546.4</ele>
        <time>2016-07-24T07:52:15Z</time>
      </trkpt>
      <trkpt lat="42.42284" lon="0.1195">
        <ele>546.4</ele>
        <time>2016-07-24T07:52:16Z</time>
      </trkpt>
      <trkpt lat="42.42287" lon="0.11945">
        <ele>546.3</ele>
        <time>2016-07-24T07:52:17Z</time>
      </trkpt>
      <trkpt lat="42.4229" lon="0.11939">
        <ele>546.3</ele>
        <time>2016-07-24T07:52:18Z</time>
      </trkpt>
      <trkpt lat="42.42293" lon="0.11934">
        <ele>546.3</ele>
        <time>2016-07-24T07:52:19Z</time>
      </trkpt>
      <trkpt lat="42.42297" lon="0.1193">
        <ele>546.2</ele>
        <time>2016-07-24T07:52:20Z</time>
      </trkpt>
      <trkpt lat="42.423" lon="0.11926">
        <ele>546.2</ele>
        <time>2016-07-24T07:52:21Z</time>
      </trkpt>
      <trkpt lat="42.42303" lon="0.1192">
        <ele>546.2</ele>
        <time>2016-07-24T07:52:22Z</time>
      </trkpt>
      <trkpt lat="42.42306" lon="0.11915">
        <ele>546.2</ele>
        <time>2016-07-24T07:52:23Z</time>
      </trkpt>
      <trkpt lat="42.4231" lon="0.11911">
        <ele>546.2</ele>
        <time>2016-07-24T07:52:24Z</time>
      </trkpt>
      <trkpt lat="42.42313" lon="0.11905">
        <ele>546.2</ele>
        <time>2016-07-24T07:52:25Z</time>
      </trkpt>
      <trkpt lat="42.42316" lon="0.11901">
        <ele>546.2</ele>
        <time>2016-07-24T07:52:26Z</time>
      </trkpt>
      <trkpt lat="42.42319" lon="0.11895">
        <ele>546.3</ele>
        <time>2016-07-24T07:52:27Z</time>
      </trkpt>
      <trkpt lat="42.42322" lon="0.1189">
        <ele>546.3</ele>
        <time>2016-07-24T07:52:28Z</time>
      </trkpt>
      <trkpt lat="42.42325" lon="0.11884">
        <ele>546.4</ele>
        <time>2016-07-24T07:52:29Z</time>
      </trkpt>
      <trkpt lat="42.42328" lon="0.11879">
        <ele>546.5</ele>
        <time>2016-07-24T07:52:30Z</time>
      </trkpt>
      <trkpt lat="42.42332" lon="0.11873">
        <ele>546.5</ele>
        <time>2016-07-24T07:52:31Z</time>
      </trkpt>
      <trkpt lat="42.42335" lon="0.11867">
        <ele>546.5</ele>
        <time>2016-07-24T07:52:32Z</time>
      </trkpt>
      <trkpt lat="42.42339" lon="0.11863">
        <ele>546.5</ele>
        <time>2016-07-24T07:52:33Z</time>
      </trkpt>
      <trkpt lat="42.42342" lon="0.11858">
        <ele>546.6</ele>
        <time>2016-07-24T07:52:34Z</time>
      </trkpt>
      <trkpt lat="42.42346" lon="0.11854">
        <ele>546.6</ele>
        <time>2016-07-24T07:52:35Z</time>
      </trkpt>
      <trkpt lat="42.4235" lon="0.11848">
        <ele>546.7</ele>
        <time>2016-07-24T07:52:36Z</time>
      </trkpt>
      <trkpt lat="42.42353" lon="0.11841">
        <ele>546.8</ele>
        <time>2016-07-24T07:52:37Z</time>
      </trkpt>
      <trkpt lat="42.42356" lon="0.11837">
        <ele>546.8</ele>
        <time>2016-07-24T07:52:38Z</time>
      </trkpt>
      <trkpt lat="42.4236" lon="0.11833">
        <ele>546.9</ele>
        <time>2016-07-24T07:52:39Z</time>
      </trkpt>
      <trkpt lat="42.42363" lon="0.11829">
        <ele>547</ele>
        <time>2016-07-24T07:52:40Z</time>
      </trkpt>
      <trkpt lat="42.42367" lon="0.11824">
        <ele>547.1</ele>
        <time>2016-07-24T07:52:41Z</time>
      </trkpt>
      <trkpt lat="42.42371" lon="0.11819">
        <ele>547.3</ele>
        <time>2016-07-24T07:52:42Z</time>
      </trkpt>
      <trkpt lat="42.42376" lon="0.11814">
        <ele>547.5</ele>
        <time>2016-07-24T07:52:43Z</time>
      </trkpt>
      <trkpt lat="42.42381" lon="0.1181">
        <ele>547.6</ele>
        <time>2016-07-24T07:52:44Z</time>
      </trkpt>
      <trkpt lat="42.42386" lon="0.11805">
        <ele>547.7</ele>
        <time>2016-07-24T07:52:45Z</time>
      </trkpt>
      <trkpt lat="42.42389" lon="0.11801">
        <ele>547.9</ele>
        <time>2016-07-24T07:52:46Z</time>
      </trkpt>
      <trkpt lat="42.42392" lon="0.11798">
        <ele>548</ele>
        <time>2016-07-24T07:52:47Z</time>
      </trkpt>
      <trkpt lat="42.42396" lon="0.11794">
        <ele>548.2</ele>
        <time>2016-07-24T07:52:48Z</time>
      </trkpt>
      <trkpt lat="42.424" lon="0.11791">
        <ele>548.3</ele>
        <time>2016-07-24T07:52:49Z</time>
      </trkpt>
      <trkpt lat="42.42405" lon="0.11786">
        <ele>548.3</ele>
        <time>2016-07-24T07:52:50Z</time>
      </trkpt>
      <trkpt lat="42.42409" lon="0.11783">
        <ele>548.3</ele>
        <time>2016-07-24T07:52:51Z</time>
      </trkpt>
      <trkpt lat="42.42413" lon="0.1178">
        <ele>548.3</ele>
        <time>2016-07-24T07:52:52Z</time>
      </trkpt>
      <trkpt lat="42.42417" lon="0.11776">
        <ele>548.3</ele>
        <time>2016-07-24T07:52:53Z</time>
      </trkpt>
      <trkpt lat="42.42421" lon="0.11772">
        <ele>548.3</ele>
        <time>2016-07-24T07:52:54Z</time>
      </trkpt>
      <trkpt lat="42.42425" lon="0.11767">
        <ele>548.4</ele>
        <time>2016-07-24T07:52:55Z</time>
      </trkpt>
      <trkpt lat="42.42429" lon="0.11764">
        <ele>548.4</ele>
        <time>2016-07-24T07:52:56Z</time>
      </trkpt>
      <trkpt lat="42.42434" lon="0.11762">
        <ele>548.5</ele>
        <time>2016-07-24T07:52:57Z</time>
      </trkpt>
      <trkpt lat="42.42437" lon="0.11758">
        <ele>548.5</ele>
        <time>2016-07-24T07:52:58Z</time>
      </trkpt>
      <trkpt lat="42.42442" lon="0.11754">
        <ele>548.6</ele>
        <time>2016-07-24T07:52:59Z</time>
      </trkpt>
      <trkpt lat="42.42445" lon="0.11752">
        <ele>548.7</ele>
        <time>2016-07-24T07:53:00Z</time>
      </trkpt>
      <trkpt lat="42.42451" lon="0.11751">
        <ele>548.8</ele>
        <time>2016-07-24T07:53:01Z</time>
      </trkpt>
      <trkpt lat="42.42455" lon="0.11747">
        <ele>548.9</ele>
        <time>2016-07-24T07:53:02Z</time>
      </trkpt>
      <trkpt lat="42.42459" lon="0.11744">
        <ele>549</ele>
        <time>2016-07-24T07:53:03Z</time>
      </trkpt>
      <trkpt lat="42.42464" lon="0.11741">
        <ele>548.8</ele>
        <time>2016-07-24T07:53:04Z</time>
      </trkpt>
      <trkpt lat="42.42469" lon="0.11738">
        <ele>548.7</ele>
        <time>2016-07-24T07:53:05Z</time>
      </trkpt>
      <trkpt lat="42.42472" lon="0.11733">
        <ele>548.6</ele>
        <time>2016-07-24T07:53:06Z</time>
      </trkpt>
      <trkpt lat="42.42475" lon="0.1173">
        <ele>548.5</ele>
        <time>2016-07-24T07:53:07Z</time>
      </trkpt>
      <trkpt lat="42.42478" lon="0.11729">
        <ele>548.4</ele>
        <time>2016-07-24T07:53:08Z</time>
      </trkpt>
      <trkpt lat="42.42483" lon="0.11724">
        <ele>548.3</ele>
        <time>2016-07-24T07:53:09Z</time>
      </trkpt>
      <trkpt lat="42.42487" lon="0.11721">
        <ele>548.2</ele>
        <time>2016-07-24T07:53:10Z</time>
      </trkpt>
      <trkpt lat="42.4249" lon="0.11717">
        <ele>548.2</ele>
        <time>2016-07-24T07:53:11Z</time>
      </trkpt>
      <trkpt lat="42.42494" lon="0.11713">
        <ele>548.1</ele>
        <time>2016-07-24T07:53:12Z</time>
      </trkpt>
      <trkpt lat="42.42499" lon="0.11708">
        <ele>548</ele>
        <time>2016-07-24T07:53:13Z</time>
      </trkpt>
      <trkpt lat="42.42502" lon="0.11705">
        <ele>547.9</ele>
        <time>2016-07-24T07:53:14Z</time>
      </trkpt>
      <trkpt lat="42.42507" lon="0.11702">
        <ele>547.8</ele>
        <time>2016-07-24T07:53:15Z</time>
      </trkpt>
      <trkpt lat="42.42512" lon="0.11699">
        <ele>547.7</ele>
        <time>2016-07-24T07:53:16Z</time>
      </trkpt>
      <trkpt lat="42.42516" lon="0.11696">
        <ele>547.7</ele>
        <time>2016-07-24T07:53:17Z</time>
      </trkpt>
      <trkpt lat="42.42519" lon="0.11694">
        <ele>547.7</ele>
        <time>2016-07-24T07:53:18Z</time>
      </trkpt>
      <trkpt lat="42.42522" lon="0.11689">
        <ele>547.7</ele>
        <time>2016-07-24T07:53:19Z</time>
      </trkpt>
      <trkpt lat="42.42525" lon="0.11684">
        <ele>547.7</ele>
        <time>2016-07-24T07:53:20Z</time>
      </trkpt>
      <trkpt lat="42.42528" lon="0.1168">
        <ele>547.7</ele>
        <time>2016-07-24T07:53:21Z</time>
      </trkpt>
      <trkpt lat="42.42532" lon="0.11675">
        <ele>547.8</ele>
        <time>2016-07-24T07:53:22Z</time>
      </trkpt>
      <trkpt lat="42.42536" lon="0.11672">
        <ele>547.9</ele>
        <time>2016-07-24T07:53:23Z</time>
      </trkpt>
      <trkpt lat="42.42541" lon="0.11668">
        <ele>548</ele>
        <time>2016-07-24T07:53:24Z</time>
      </trkpt>
      <trkpt lat="42.42544" lon="0.11664">
        <ele>548</ele>
        <time>2016-07-24T07:53:25Z</time>
      </trkpt>
      <trkpt lat="42.42548" lon="0.11659">
        <ele>548.1</ele>
        <time>2016-07-24T07:53:26Z</time>
      </trkpt>
      <trkpt lat="42.42551" lon="0.11655">
        <ele>548.2</ele>
        <time>2016-07-24T07:53:27Z</time>
      </trkpt>
      <trkpt lat="42.42554" lon="0.1165">
        <ele>548.2</ele>
        <time>2016-07-24T07:53:28Z</time>
      </trkpt>
      <trkpt lat="42.42558" lon="0.11647">
        <ele>548.2</ele>
        <time>2016-07-24T07:53:29Z</time>
      </trkpt>
      <trkpt lat="42.42561" lon="0.11643">
        <ele>548.2</ele>
        <time>2016-07-24T07:53:30Z</time>
      </trkpt>
      <trkpt lat="42.42565" lon="0.11637">
        <ele>548.2</ele>
        <time>2016-07-24T07:53:31Z</time>
      </trkpt>
      <trkpt lat="42.4257" lon="0.11634">
        <ele>548.2</ele>
        <time>2016-07-24T07:53:32Z</time>
      </trkpt>
      <trkpt lat="42.42575" lon="0.1163">
        <ele>548.1</ele>
        <time>2016-07-24T07:53:33Z</time>
      </trkpt>
      <trkpt lat="42.42577" lon="0.11626">
        <ele>548.1</ele>
        <time>2016-07-24T07:53:34Z</time>
      </trkpt>
      <trkpt lat="42.4258" lon="0.11622">
        <ele>548.2</ele>
        <time>2016-07-24T07:53:35Z</time>
      </trkpt>
      <trkpt lat="42.42583" lon="0.11617">
        <ele>548.2</ele>
        <time>2016-07-24T07:53:36Z</time>
      </trkpt>
      <trkpt lat="42.42587" lon="0.11612">
        <ele>548.3</ele>
        <time>2016-07-24T07:53:37Z</time>
      </trkpt>
      <trkpt lat="42.4259" lon="0.11607">
        <ele>548.4</ele>
        <time>2016-07-24T07:53:38Z</time>
      </trkpt>
      <trkpt lat="42.42594" lon="0.11603">
        <ele>548.5</ele>
        <time>2016-07-24T07:53:39Z</time>
      </trkpt>
      <trkpt lat="42.42598" lon="0.11599">
        <ele>548.6</ele>
        <time>2016-07-24T07:53:40Z</time>
      </trkpt>
      <trkpt lat="42.42601" lon="0.11595">
        <ele>548.7</ele>
        <time>2016-07-24T07:53:41Z</time>
      </trkpt>
      <trkpt lat="42.42605" lon="0.11589">
        <ele>548.9</ele>
        <time>2016-07-24T07:53:42Z</time>
      </trkpt>
      <trkpt lat="42.42608" lon="0.11585">
        <ele>549</ele>
        <time>2016-07-24T07:53:43Z</time>
      </trkpt>
      <trkpt lat="42.42613" lon="0.1158">
        <ele>549.2</ele>
        <time>2016-07-24T07:53:44Z</time>
      </trkpt>
      <trkpt lat="42.42617" lon="0.11576">
        <ele>549.4</ele>
        <time>2016-07-24T07:53:45Z</time>
      </trkpt>
      <trkpt lat="42.42621" lon="0.11572">
        <ele>549.6</ele>
        <time>2016-07-24T07:53:46Z</time>
      </trkpt>
      <trkpt lat="42.42626" lon="0.11568">
        <ele>549.8</ele>
        <time>2016-07-24T07:53:47Z</time>
      </trkpt>
      <trkpt lat="42.42629" lon="0.11564">
        <ele>549.9</ele>
        <time>2016-07-24T07:53:48Z</time>
      </trkpt>
      <trkpt lat="42.42633" lon="0.1156">
        <ele>550</ele>
        <time>2016-07-24T07:53:49Z</time>
      </trkpt>
      <trkpt lat="42.42638" lon="0.11556">
        <ele>550.2</ele>
        <time>2016-07-24T07:53:50Z</time>
      </trkpt>
      <trkpt lat="42.42641" lon="0.11552">
        <ele>550.3</ele>
        <time>2016-07-24T07:53:51Z</time>
      </trkpt>
      <trkpt lat="42.42645" lon="0.11547">
        <ele>550.5</ele>
        <time>2016-07-24T07:53:52Z</time>
      </trkpt>
      <trkpt lat="42.42649" lon="0.11543">
        <ele>550.7</ele>
        <time>2016-07-24T07:53:53Z</time>
      </trkpt>
      <trkpt lat="42.42652" lon="0.11539">
        <ele>550.7</ele>
        <time>2016-07-24T07:53:54Z</time>
      </trkpt>
      <trkpt lat="42.42656" lon="0.11534">
        <ele>550.8</ele>
        <time>2016-07-24T07:53:55Z</time>
      </trkpt>
      <trkpt lat="42.4266" lon="0.1153">
        <ele>550.8</ele>
        <time>2016-07-24T07:53:56Z</time>
      </trkpt>
      <trkpt lat="42.42665" lon="0.11526">
        <ele>550.9</ele>
        <time>2016-07-24T07:53:57Z</time>
      </trkpt>
      <trkpt lat="42.42669" lon="0.11522">
        <ele>551</ele>
        <time>2016-07-24T07:53:58Z</time>
      </trkpt>
      <trkpt lat="42.42673" lon="0.11516">
        <ele>551.1</ele>
        <time>2016-07-24T07:53:59Z</time>
      </trkpt>
      <trkpt lat="42.42677" lon="0.11512">
        <ele>551.2</ele>
        <time>2016-07-24T07:54:00Z</time>
      </trkpt>
      <trkpt lat="42.42682" lon="0.11507">
        <ele>551.3</ele>
        <time>2016-07-24T07:54:01Z</time>
      </trkpt>
      <trkpt lat="42.42686" lon="0.11502">
        <ele>551.4</ele>
        <time>2016-07-24T07:54:02Z</time>
      </trkpt>
      <trkpt lat="42.4269" lon="0.11498">
        <ele>551.5</ele>
        <time>2016-07-24T07:54:03Z</time>
      </trkpt>
      <trkpt lat="42.42694" lon="0.11494">
        <ele>551.7</ele>
        <time>2016-07-24T07:54:04Z</time>
      </trkpt>
      <trkpt lat="42.42698" lon="0.11488">
        <ele>551.9</ele>
        <time>2016-07-24T07:54:05Z</time>
      </trkpt>
      <trkpt lat="42.42702" lon="0.11483">
        <ele>552.1</ele>
        <time>2016-07-24T07:54:06Z</time>
      </trkpt>
      <trkpt lat="42.42706" lon="0.1148">
        <ele>552.2</ele>
        <time>2016-07-24T07:54:07Z</time>
      </trkpt>
      <trkpt lat="42.4271" lon="0.11474">
        <ele>552.4</ele>
        <time>2016-07-24T07:54:08Z</time>
      </trkpt>
      <trkpt lat="42.42713" lon="0.11469">
        <ele>552.5</ele>
        <time>2016-07-24T07:54:09Z</time>
      </trkpt>
      <trkpt lat="42.42717" lon="0.11465">
        <ele>552.5</ele>
        <time>2016-07-24T07:54:10Z</time>
      </trkpt>
      <trkpt lat="42.42721" lon="0.11461">
        <ele>552.4</ele>
        <time>2016-07-24T07:54:11Z</time>
      </trkpt>
      <trkpt lat="42.42725" lon="0.11457">
        <ele>552.4</ele>
        <time>2016-07-24T07:54:12Z</time>
      </trkpt>
      <trkpt lat="42.42732" lon="0.11453">
        <ele>552</ele>
        <time>2016-07-24T07:54:13Z</time>
      </trkpt>
      <trkpt lat="42.42735" lon="0.11449">
        <ele>551.8</ele>
        <time>2016-07-24T07:54:14Z</time>
      </trkpt>
      <trkpt lat="42.4274" lon="0.11445">
        <ele>551.6</ele>
        <time>2016-07-24T07:54:15Z</time>
      </trkpt>
      <trkpt lat="42.42743" lon="0.11441">
        <ele>551.5</ele>
        <time>2016-07-24T07:54:16Z</time>
      </trkpt>
      <trkpt lat="42.42747" lon="0.11436">
        <ele>551.3</ele>
        <time>2016-07-24T07:54:17Z</time>
      </trkpt>
      <trkpt lat="42.42751" lon="0.11432">
        <ele>551.2</ele>
        <time>2016-07-24T07:54:18Z</time>
      </trkpt>
      <trkpt lat="42.42756" lon="0.11428">
        <ele>551</ele>
        <time>2016-07-24T07:54:19Z</time>
      </trkpt>
      <trkpt lat="42.42759" lon="0.11423">
        <ele>550.9</ele>
        <time>2016-07-24T07:54:20Z</time>
      </trkpt>
      <trkpt lat="42.42763" lon="0.11418">
        <ele>550.8</ele>
        <time>2016-07-24T07:54:21Z</time>
      </trkpt>
      <trkpt lat="42.42767" lon="0.11414">
        <ele>550.8</ele>
        <time>2016-07-24T07:54:22Z</time>
      </trkpt>
      <trkpt lat="42.42771" lon="0.11409">
        <ele>550.8</ele>
        <time>2016-07-24T07:54:23Z</time>
      </trkpt>
      <trkpt lat="42.42775" lon="0.11404">
        <ele>550.7</ele>
        <time>2016-07-24T07:54:24Z</time>
      </trkpt>
      <trkpt lat="42.42778" lon="0.11398">
        <ele>550.7</ele>
        <time>2016-07-24T07:54:25Z</time>
      </trkpt>
      <trkpt lat="42.42782" lon="0.11392">
        <ele>550.8</ele>
        <time>2016-07-24T07:54:26Z</time>
      </trkpt>
      <trkpt lat="42.42785" lon="0.11387">
        <ele>550.8</ele>
        <time>2016-07-24T07:54:27Z</time>
      </trkpt>
      <trkpt lat="42.42788" lon="0.11382">
        <ele>550.9</ele>
        <time>2016-07-24T07:54:28Z</time>
      </trkpt>
      <trkpt lat="42.42792" lon="0.11377">
        <ele>551</ele>
        <time>2016-07-24T07:54:29Z</time>
      </trkpt>
      <trkpt lat="42.42795" lon="0.11371">
        <ele>551</ele>
        <time>2016-07-24T07:54:30Z</time>
      </trkpt>
      <trkpt lat="42.42799" lon="0.11366">
        <ele>551.1</ele>
        <time>2016-07-24T07:54:31Z</time>
      </trkpt>
      <trkpt lat="42.42802" lon="0.1136">
        <ele>551.1</ele>
        <time>2016-07-24T07:54:32Z</time>
      </trkpt>
      <trkpt lat="42.42806" lon="0.11354">
        <ele>551.2</ele>
        <time>2016-07-24T07:54:33Z</time>
      </trkpt>
      <trkpt lat="42.42808" lon="0.11348">
        <ele>551.3</ele>
        <time>2016-07-24T07:54:34Z</time>
      </trkpt>
      <trkpt lat="42.42812" lon="0.11343">
        <ele>551.3</ele>
        <time>2016-07-24T07:54:35Z</time>
      </trkpt>
      <trkpt lat="42.42815" lon="0.11338">
        <ele>551.4</ele>
        <time>2016-07-24T07:54:36Z</time>
      </trkpt>
      <trkpt lat="42.42818" lon="0.11332">
        <ele>551.5</ele>
        <time>2016-07-24T07:54:37Z</time>
      </trkpt>
      <trkpt lat="42.42821" lon="0.11326">
        <ele>551.6</ele>
        <time>2016-07-24T07:54:38Z</time>
      </trkpt>
      <trkpt lat="42.42823" lon="0.1132">
        <ele>551.6</ele>
        <time>2016-07-24T07:54:39Z</time>
      </trkpt>
      <trkpt lat="42.42826" lon="0.11315">
        <ele>551.7</ele>
        <time>2016-07-24T07:54:40Z</time>
      </trkpt>
      <trkpt lat="42.42829" lon="0.11309">
        <ele>551.8</ele>
        <time>2016-07-24T07:54:41Z</time>
      </trkpt>
      <trkpt lat="42.42831" lon="0.11303">
        <ele>551.9</ele>
        <time>2016-07-24T07:54:42Z</time>
      </trkpt>
      <trkpt lat="42.42834" lon="0.11297">
        <ele>552</ele>
        <time>2016-07-24T07:54:43Z</time>
      </trkpt>
      <trkpt lat="42.42836" lon="0.1129">
        <ele>552.1</ele>
        <time>2016-07-24T07:54:44Z</time>
      </trkpt>
      <trkpt lat="42.42838" lon="0.11284">
        <ele>552.3</ele>
        <time>2016-07-24T07:54:45Z</time>
      </trkpt>
      <trkpt lat="42.42841" lon="0.11278">
        <ele>552.6</ele>
        <time>2016-07-24T07:54:46Z</time>
      </trkpt>
      <trkpt lat="42.42843" lon="0.11271">
        <ele>552.8</ele>
        <time>2016-07-24T07:54:47Z</time>
      </trkpt>
      <trkpt lat="42.42844" lon="0.11265">
        <ele>553</ele>
        <time>2016-07-24T07:54:48Z</time>
      </trkpt>
      <trkpt lat="42.42846" lon="0.11259">
        <ele>553.2</ele>
        <time>2016-07-24T07:54:49Z</time>
      </trkpt>
      <trkpt lat="42.42847" lon="0.11252">
        <ele>553.5</ele>
        <time>2016-07-24T07:54:50Z</time>
      </trkpt>
      <trkpt lat="42.42849" lon="0.11245">
        <ele>553.7</ele>
        <time>2016-07-24T07:54:51Z</time>
      </trkpt>
      <trkpt lat="42.42851" lon="0.11238">
        <ele>553.9</ele>
        <time>2016-07-24T07:54:52Z</time>
      </trkpt>
      <trkpt lat="42.42852" lon="0.11232">
        <ele>554.1</ele>
        <time>2016-07-24T07:54:53Z</time>
      </trkpt>
      <trkpt lat="42.42853" lon="0.11226">
        <ele>554.3</ele>
        <time>2016-07-24T07:54:54Z</time>
      </trkpt>
      <trkpt lat="42.42855" lon="0.11219">
        <ele>554.5</ele>
        <time>2016-07-24T07:54:55Z</time>
      </trkpt>
      <trkpt lat="42.42857" lon="0.11212">
        <ele>554.7</ele>
        <time>2016-07-24T07:54:56Z</time>
      </trkpt>
      <trkpt lat="42.42859" lon="0.11206">
        <ele>554.8</ele>
        <time>2016-07-24T07:54:57Z</time>
      </trkpt>
      <trkpt lat="42.4286" lon="0.11199">
        <ele>555</ele>
        <time>2016-07-24T07:54:58Z</time>
      </trkpt>
      <trkpt lat="42.42862" lon="0.11193">
        <ele>555.1</ele>
        <time>2016-07-24T07:54:59Z</time>
      </trkpt>
      <trkpt lat="42.42864" lon="0.11185">
        <ele>555.3</ele>
        <time>2016-07-24T07:55:00Z</time>
      </trkpt>
      <trkpt lat="42.42865" lon="0.11178">
        <ele>555.5</ele>
        <time>2016-07-24T07:55:01Z</time>
      </trkpt>
      <trkpt lat="42.42866" lon="0.11172">
        <ele>555.6</ele>
        <time>2016-07-24T07:55:02Z</time>
      </trkpt>
      <trkpt lat="42.42867" lon="0.11165">
        <ele>555.8</ele>
        <time>2016-07-24T07:55:03Z</time>
      </trkpt>
      <trkpt lat="42.42868" lon="0.1116">
        <ele>555.9</ele>
        <time>2016-07-24T07:55:04Z</time>
      </trkpt>
      <trkpt lat="42.4287" lon="0.11154">
        <ele>556.1</ele>
        <time>2016-07-24T07:55:05Z</time>
      </trkpt>
      <trkpt lat="42.42871" lon="0.11147">
        <ele>556.3</ele>
        <time>2016-07-24T07:55:06Z</time>
      </trkpt>
      <trkpt lat="42.42872" lon="0.11141">
        <ele>556.5</ele>
        <time>2016-07-24T07:55:07Z</time>
      </trkpt>
      <trkpt lat="42.42872" lon="0.11135">
        <ele>556.6</ele>
        <time>2016-07-24T07:55:08Z</time>
      </trkpt>
      <trkpt lat="42.42873" lon="0.11129">
        <ele>556.8</ele>
        <time>2016-07-24T07:55:09Z</time>
      </trkpt>
      <trkpt lat="42.42875" lon="0.11123">
        <ele>557</ele>
        <time>2016-07-24T07:55:10Z</time>
      </trkpt>
      <trkpt lat="42.42876" lon="0.11116">
        <ele>556.9</ele>
        <time>2016-07-24T07:55:11Z</time>
      </trkpt>
      <trkpt lat="42.42876" lon="0.11109">
        <ele>556.8</ele>
        <time>2016-07-24T07:55:12Z</time>
      </trkpt>
      <trkpt lat="42.42878" lon="0.11105">
        <ele>556.6</ele>
        <time>2016-07-24T07:55:13Z</time>
      </trkpt>
      <trkpt lat="42.42878" lon="0.11097">
        <ele>556.5</ele>
        <time>2016-07-24T07:55:14Z</time>
      </trkpt>
      <trkpt lat="42.42879" lon="0.1109">
        <ele>556.4</ele>
        <time>2016-07-24T07:55:15Z</time>
      </trkpt>
      <trkpt lat="42.42879" lon="0.11083">
        <ele>556.3</ele>
        <time>2016-07-24T07:55:16Z</time>
      </trkpt>
      <trkpt lat="42.42879" lon="0.11076">
        <ele>556.3</ele>
        <time>2016-07-24T07:55:17Z</time>
      </trkpt>
      <trkpt lat="42.42879" lon="0.1107">
        <ele>556.2</ele>
        <time>2016-07-24T07:55:18Z</time>
      </trkpt>
      <trkpt lat="42.42878" lon="0.11064">
        <ele>556.2</ele>
        <time>2016-07-24T07:55:19Z</time>
      </trkpt>
      <trkpt lat="42.42875" lon="0.11057">
        <ele>556.2</ele>
        <time>2016-07-24T07:55:20Z</time>
      </trkpt>
      <trkpt lat="42.42873" lon="0.11051">
        <ele>556</ele>
        <time>2016-07-24T07:55:21Z</time>
      </trkpt>
      <trkpt lat="42.42871" lon="0.11047">
        <ele>555.9</ele>
        <time>2016-07-24T07:55:22Z</time>
      </trkpt>
      <trkpt lat="42.42868" lon="0.1104">
        <ele>555.8</ele>
        <time>2016-07-24T07:55:23Z</time>
      </trkpt>
      <trkpt lat="42.42866" lon="0.11035">
        <ele>555.6</ele>
        <time>2016-07-24T07:55:24Z</time>
      </trkpt>
      <trkpt lat="42.42865" lon="0.11029">
        <ele>555.6</ele>
        <time>2016-07-24T07:55:25Z</time>
      </trkpt>
      <trkpt lat="42.42862" lon="0.11023">
        <ele>555.5</ele>
        <time>2016-07-24T07:55:26Z</time>
      </trkpt>
      <trkpt lat="42.4286" lon="0.11017">
        <ele>555.4</ele>
        <time>2016-07-24T07:55:27Z</time>
      </trkpt>
      <trkpt lat="42.42857" lon="0.11011">
        <ele>555.3</ele>
        <time>2016-07-24T07:55:28Z</time>
      </trkpt>
      <trkpt lat="42.42855" lon="0.11006">
        <ele>555.3</ele>
        <time>2016-07-24T07:55:29Z</time>
      </trkpt>
      <trkpt lat="42.42853" lon="0.11001">
        <ele>555.2</ele>
        <time>2016-07-24T07:55:30Z</time>
      </trkpt>
      <trkpt lat="42.42851" lon="0.10995">
        <ele>555.2</ele>
        <time>2016-07-24T07:55:31Z</time>
      </trkpt>
      <trkpt lat="42.42848" lon="0.10989">
        <ele>555.2</ele>
        <time>2016-07-24T07:55:32Z</time>
      </trkpt>
      <trkpt lat="42.42845" lon="0.10983">
        <ele>555.2</ele>
        <time>2016-07-24T07:55:33Z</time>
      </trkpt>
      <trkpt lat="42.42842" lon="0.10975">
        <ele>555.3</ele>
        <time>2016-07-24T07:55:34Z</time>
      </trkpt>
      <trkpt lat="42.42841" lon="0.10968">
        <ele>555.3</ele>
        <time>2016-07-24T07:55:35Z</time>
      </trkpt>
      <trkpt lat="42.42839" lon="0.10962">
        <ele>555.4</ele>
        <time>2016-07-24T07:55:36Z</time>
      </trkpt>
      <trkpt lat="42.42838" lon="0.10955">
        <ele>555.4</ele>
        <time>2016-07-24T07:55:37Z</time>
      </trkpt>
      <trkpt lat="42.42837" lon="0.10948">
        <ele>555.5</ele>
        <time>2016-07-24T07:55:38Z</time>
      </trkpt>
      <trkpt lat="42.42838" lon="0.1094">
        <ele>555.4</ele>
        <time>2016-07-24T07:55:39Z</time>
      </trkpt>
      <trkpt lat="42.42837" lon="0.10933">
        <ele>555.4</ele>
        <time>2016-07-24T07:55:40Z</time>
      </trkpt>
      <trkpt lat="42.42837" lon="0.10928">
        <ele>555.4</ele>
        <time>2016-07-24T07:55:41Z</time>
      </trkpt>
      <trkpt lat="42.42837" lon="0.10924">
        <ele>555.4</ele>
        <time>2016-07-24T07:55:42Z</time>
      </trkpt>
      <trkpt lat="42.42836" lon="0.10917">
        <ele>555.4</ele>
        <time>2016-07-24T07:55:43Z</time>
      </trkpt>
      <trkpt lat="42.42835" lon="0.1091">
        <ele>555.4</ele>
        <time>2016-07-24T07:55:44Z</time>
      </trkpt>
      <trkpt lat="42.42835" lon="0.10904">
        <ele>555.5</ele>
        <time>2016-07-24T07:55:45Z</time>
      </trkpt>
      <trkpt lat="42.42835" lon="0.10893">
        <ele>555.4</ele>
        <time>2016-07-24T07:55:47Z</time>
      </trkpt>
      <trkpt lat="42.42835" lon="0.10887">
        <ele>555.5</ele>
        <time>2016-07-24T07:55:48Z</time>
      </trkpt>
      <trkpt lat="42.42834" lon="0.1088">
        <ele>555.5</ele>
        <time>2016-07-24T07:55:49Z</time>
      </trkpt>
      <trkpt lat="42.42835" lon="0.10872">
        <ele>555.4</ele>
        <time>2016-07-24T07:55:50Z</time>
      </trkpt>
      <trkpt lat="42.42834" lon="0.10864">
        <ele>555.3</ele>
        <time>2016-07-24T07:55:51Z</time>
      </trkpt>
      <trkpt lat="42.42834" lon="0.10857">
        <ele>555.3</ele>
        <time>2016-07-24T07:55:52Z</time>
      </trkpt>
      <trkpt lat="42.42834" lon="0.10849">
        <ele>555.2</ele>
        <time>2016-07-24T07:55:53Z</time>
      </trkpt>
      <trkpt lat="42.42834" lon="0.10842">
        <ele>555.1</ele>
        <time>2016-07-24T07:55:54Z</time>
      </trkpt>
      <trkpt lat="42.42833" lon="0.10835">
        <ele>555</ele>
        <time>2016-07-24T07:55:55Z</time>
      </trkpt>
      <trkpt lat="42.42832" lon="0.10828">
        <ele>555</ele>
        <time>2016-07-24T07:55:56Z</time>
      </trkpt>
      <trkpt lat="42.42831" lon="0.10821">
        <ele>554.9</ele>
        <time>2016-07-24T07:55:57Z</time>
      </trkpt>
      <trkpt lat="42.4283" lon="0.10814">
        <ele>554.8</ele>
        <time>2016-07-24T07:55:58Z</time>
      </trkpt>
      <trkpt lat="42.4283" lon="0.10808">
        <ele>554.7</ele>
        <time>2016-07-24T07:55:59Z</time>
      </trkpt>
      <trkpt lat="42.4283" lon="0.10801">
        <ele>554.7</ele>
        <time>2016-07-24T07:56:00Z</time>
      </trkpt>
      <trkpt lat="42.4283" lon="0.10793">
        <ele>554.6</ele>
        <time>2016-07-24T07:56:01Z</time>
      </trkpt>
      <trkpt lat="42.42829" lon="0.10786">
        <ele>554.6</ele>
        <time>2016-07-24T07:56:02Z</time>
      </trkpt>
      <trkpt lat="42.42829" lon="0.10778">
        <ele>554.8</ele>
        <time>2016-07-24T07:56:03Z</time>
      </trkpt>
      <trkpt lat="42.42829" lon="0.10772">
        <ele>554.9</ele>
        <time>2016-07-24T07:56:04Z</time>
      </trkpt>
      <trkpt lat="42.4283" lon="0.10764">
        <ele>555</ele>
        <time>2016-07-24T07:56:05Z</time>
      </trkpt>
      <trkpt lat="42.42829" lon="0.10756">
        <ele>555.2</ele>
        <time>2016-07-24T07:56:06Z</time>
      </trkpt>
      <trkpt lat="42.42829" lon="0.10751">
        <ele>555.3</ele>
        <time>2016-07-24T07:56:07Z</time>
      </trkpt>
      <trkpt lat="42.4283" lon="0.10744">
        <ele>555.4</ele>
        <time>2016-07-24T07:56:08Z</time>
      </trkpt>
      <trkpt lat="42.42832" lon="0.10738">
        <ele>555.5</ele>
        <time>2016-07-24T07:56:09Z</time>
      </trkpt>
      <trkpt lat="42.42832" lon="0.1073">
        <ele>555.6</ele>
        <time>2016-07-24T07:56:10Z</time>
      </trkpt>
      <trkpt lat="42.42833" lon="0.10723">
        <ele>555.7</ele>
        <time>2016-07-24T07:56:11Z</time>
      </trkpt>
      <trkpt lat="42.42833" lon="0.10717">
        <ele>555.9</ele>
        <time>2016-07-24T07:56:12Z</time>
      </trkpt>
      <trkpt lat="42.42833" lon="0.1071">
        <ele>556</ele>
        <time>2016-07-24T07:56:13Z</time>
      </trkpt>
      <trkpt lat="42.42833" lon="0.10703">
        <ele>556</ele>
        <time>2016-07-24T07:56:14Z</time>
      </trkpt>
      <trkpt lat="42.42833" lon="0.10695">
        <ele>556.1</ele>
        <time>2016-07-24T07:56:15Z</time>
      </trkpt>
      <trkpt lat="42.42832" lon="0.10687">
        <ele>556.1</ele>
        <time>2016-07-24T07:56:16Z</time>
      </trkpt>
      <trkpt lat="42.42832" lon="0.1068">
        <ele>556.2</ele>
        <time>2016-07-24T07:56:17Z</time>
      </trkpt>
      <trkpt lat="42.42831" lon="0.10673">
        <ele>556.2</ele>
        <time>2016-07-24T07:56:18Z</time>
      </trkpt>
      <trkpt lat="42.42831" lon="0.10667">
        <ele>556.2</ele>
        <time>2016-07-24T07:56:19Z</time>
      </trkpt>
      <trkpt lat="42.4283" lon="0.1066">
        <ele>556.3</ele>
        <time>2016-07-24T07:56:20Z</time>
      </trkpt>
      <trkpt lat="42.42829" lon="0.10653">
        <ele>556.3</ele>
        <time>2016-07-24T07:56:21Z</time>
      </trkpt>
      <trkpt lat="42.42829" lon="0.10646">
        <ele>556.3</ele>
        <time>2016-07-24T07:56:22Z</time>
      </trkpt>
      <trkpt lat="42.42829" lon="0.10639">
        <ele>556.4</ele>
        <time>2016-07-24T07:56:23Z</time>
      </trkpt>
      <trkpt lat="42.42829" lon="0.10631">
        <ele>556.4</ele>
        <time>2016-07-24T07:56:24Z</time>
      </trkpt>
      <trkpt lat="42.4283" lon="0.10624">
        <ele>556.5</ele>
        <time>2016-07-24T07:56:25Z</time>
      </trkpt>
      <trkpt lat="42.42831" lon="0.10616">
        <ele>556.7</ele>
        <time>2016-07-24T07:56:26Z</time>
      </trkpt>
      <trkpt lat="42.42831" lon="0.10609">
        <ele>556.9</ele>
        <time>2016-07-24T07:56:27Z</time>
      </trkpt>
      <trkpt lat="42.42831" lon="0.10602">
        <ele>557</ele>
        <time>2016-07-24T07:56:28Z</time>
      </trkpt>
      <trkpt lat="42.42832" lon="0.10595">
        <ele>557.2</ele>
        <time>2016-07-24T07:56:29Z</time>
      </trkpt>
      <trkpt lat="42.42832" lon="0.10587">
        <ele>557.4</ele>
        <time>2016-07-24T07:56:30Z</time>
      </trkpt>
      <trkpt lat="42.42833" lon="0.10581">
        <ele>557.6</ele>
        <time>2016-07-24T07:56:31Z</time>
      </trkpt>
      <trkpt lat="42.42834" lon="0.10575">
        <ele>557.7</ele>
        <time>2016-07-24T07:56:32Z</time>
      </trkpt>
      <trkpt lat="42.42835" lon="0.10569">
        <ele>557.8</ele>
        <time>2016-07-24T07:56:33Z</time>
      </trkpt>
      <trkpt lat="42.42836" lon="0.10561">
        <ele>558</ele>
        <time>2016-07-24T07:56:34Z</time>
      </trkpt>
      <trkpt lat="42.42837" lon="0.10554">
        <ele>558.2</ele>
        <time>2016-07-24T07:56:35Z</time>
      </trkpt>
      <trkpt lat="42.42836" lon="0.10548">
        <ele>558.3</ele>
        <time>2016-07-24T07:56:36Z</time>
      </trkpt>
      <trkpt lat="42.42837" lon="0.10542">
        <ele>558.5</ele>
        <time>2016-07-24T07:56:37Z</time>
      </trkpt>
      <trkpt lat="42.42838" lon="0.10535">
        <ele>558.4</ele>
        <time>2016-07-24T07:56:38Z</time>
      </trkpt>
      <trkpt lat="42.42839" lon="0.10529">
        <ele>558.4</ele>
        <time>2016-07-24T07:56:39Z</time>
      </trkpt>
      <trkpt lat="42.4284" lon="0.10522">
        <ele>558.4</ele>
        <time>2016-07-24T07:56:40Z</time>
      </trkpt>
      <trkpt lat="42.42841" lon="0.10515">
        <ele>558.4</ele>
        <time>2016-07-24T07:56:41Z</time>
      </trkpt>
      <trkpt lat="42.42841" lon="0.10509">
        <ele>558.4</ele>
        <time>2016-07-24T07:56:42Z</time>
      </trkpt>
      <trkpt lat="42.42843" lon="0.10502">
        <ele>558.4</ele>
        <time>2016-07-24T07:56:43Z</time>
      </trkpt>
      <trkpt lat="42.42843" lon="0.10496">
        <ele>558.4</ele>
        <time>2016-07-24T07:56:44Z</time>
      </trkpt>
      <trkpt lat="42.42845" lon="0.10489">
        <ele>558.4</ele>
        <time>2016-07-24T07:56:45Z</time>
      </trkpt>
      <trkpt lat="42.42845" lon="0.10483">
        <ele>558.4</ele>
        <time>2016-07-24T07:56:46Z</time>
      </trkpt>
      <trkpt lat="42.42846" lon="0.10477">
        <ele>558.3</ele>
        <time>2016-07-24T07:56:47Z</time>
      </trkpt>
      <trkpt lat="42.42847" lon="0.1047">
        <ele>558.3</ele>
        <time>2016-07-24T07:56:48Z</time>
      </trkpt>
      <trkpt lat="42.42848" lon="0.10463">
        <ele>558.3</ele>
        <time>2016-07-24T07:56:49Z</time>
      </trkpt>
      <trkpt lat="42.42849" lon="0.10457">
        <ele>558.3</ele>
        <time>2016-07-24T07:56:50Z</time>
      </trkpt>
      <trkpt lat="42.42849" lon="0.1045">
        <ele>558.5</ele>
        <time>2016-07-24T07:56:51Z</time>
      </trkpt>
      <trkpt lat="42.4285" lon="0.10443">
        <ele>558.7</ele>
        <time>2016-07-24T07:56:52Z</time>
      </trkpt>
      <trkpt lat="42.4285" lon="0.10438">
        <ele>558.8</ele>
        <time>2016-07-24T07:56:53Z</time>
      </trkpt>
      <trkpt lat="42.42852" lon="0.10431">
        <ele>559</ele>
        <time>2016-07-24T07:56:54Z</time>
      </trkpt>
      <trkpt lat="42.42853" lon="0.10424">
        <ele>559.2</ele>
        <time>2016-07-24T07:56:55Z</time>
      </trkpt>
      <trkpt lat="42.42853" lon="0.10417">
        <ele>559.4</ele>
        <time>2016-07-24T07:56:56Z</time>
      </trkpt>
      <trkpt lat="42.42854" lon="0.1041">
        <ele>559.6</ele>
        <time>2016-07-24T07:56:57Z</time>
      </trkpt>
      <trkpt lat="42.42854" lon="0.10403">
        <ele>559.8</ele>
        <time>2016-07-24T07:56:58Z</time>
      </trkpt>
      <trkpt lat="42.42855" lon="0.10396">
        <ele>559.9</ele>
        <time>2016-07-24T07:56:59Z</time>
      </trkpt>
      <trkpt lat="42.42856" lon="0.10389">
        <ele>560.1</ele>
        <time>2016-07-24T07:57:00Z</time>
      </trkpt>
      <trkpt lat="42.42857" lon="0.10383">
        <ele>560.4</ele>
        <time>2016-07-24T07:57:01Z</time>
      </trkpt>
      <trkpt lat="42.42859" lon="0.10375">
        <ele>560.6</ele>
        <time>2016-07-24T07:57:02Z</time>
      </trkpt>
      <trkpt lat="42.4286" lon="0.10368">
        <ele>560.8</ele>
        <time>2016-07-24T07:57:03Z</time>
      </trkpt>
      <trkpt lat="42.42861" lon="0.10362">
        <ele>560.9</ele>
        <time>2016-07-24T07:57:04Z</time>
      </trkpt>
      <trkpt lat="42.42862" lon="0.10356">
        <ele>561.1</ele>
        <time>2016-07-24T07:57:05Z</time>
      </trkpt>
      <trkpt lat="42.42862" lon="0.1035">
        <ele>561.2</ele>
        <time>2016-07-24T07:57:06Z</time>
      </trkpt>
      <trkpt lat="42.42862" lon="0.10344">
        <ele>561.3</ele>
        <time>2016-07-24T07:57:07Z</time>
      </trkpt>
      <trkpt lat="42.42863" lon="0.10337">
        <ele>561.5</ele>
        <time>2016-07-24T07:57:08Z</time>
      </trkpt>
      <trkpt lat="42.42864" lon="0.1033">
        <ele>561.7</ele>
        <time>2016-07-24T07:57:09Z</time>
      </trkpt>
      <trkpt lat="42.42866" lon="0.10324">
        <ele>561.9</ele>
        <time>2016-07-24T07:57:10Z</time>
      </trkpt>
      <trkpt lat="42.42867" lon="0.10318">
        <ele>562</ele>
        <time>2016-07-24T07:57:11Z</time>
      </trkpt>
      <trkpt lat="42.42868" lon="0.10311">
        <ele>562.2</ele>
        <time>2016-07-24T07:57:12Z</time>
      </trkpt>
      <trkpt lat="42.4287" lon="0.10305">
        <ele>562.4</ele>
        <time>2016-07-24T07:57:13Z</time>
      </trkpt>
      <trkpt lat="42.42871" lon="0.10297">
        <ele>562.7</ele>
        <time>2016-07-24T07:57:14Z</time>
      </trkpt>
      <trkpt lat="42.42874" lon="0.10292">
        <ele>562.9</ele>
        <time>2016-07-24T07:57:15Z</time>
      </trkpt>
      <trkpt lat="42.42874" lon="0.10285">
        <ele>563</ele>
        <time>2016-07-24T07:57:16Z</time>
      </trkpt>
      <trkpt lat="42.42875" lon="0.1028">
        <ele>563.1</ele>
        <time>2016-07-24T07:57:17Z</time>
      </trkpt>
      <trkpt lat="42.42876" lon="0.10273">
        <ele>563.2</ele>
        <time>2016-07-24T07:57:18Z</time>
      </trkpt>
      <trkpt lat="42.42877" lon="0.10266">
        <ele>563.2</ele>
        <time>2016-07-24T07:57:19Z</time>
      </trkpt>
      <trkpt lat="42.42876" lon="0.1026">
        <ele>563.4</ele>
        <time>2016-07-24T07:57:20Z</time>
      </trkpt>
      <trkpt lat="42.42875" lon="0.10253">
        <ele>563.5</ele>
        <time>2016-07-24T07:57:21Z</time>
      </trkpt>
      <trkpt lat="42.42876" lon="0.10248">
        <ele>563.5</ele>
        <time>2016-07-24T07:57:22Z</time>
      </trkpt>
      <trkpt lat="42.42873" lon="0.10243">
        <ele>563.5</ele>
        <time>2016-07-24T07:57:23Z</time>
      </trkpt>
      <trkpt lat="42.42872" lon="0.10237">
        <ele>563.6</ele>
        <time>2016-07-24T07:57:24Z</time>
      </trkpt>
      <trkpt lat="42.42869" lon="0.10232">
        <ele>563.5</ele>
        <time>2016-07-24T07:57:25Z</time>
      </trkpt>
      <trkpt lat="42.42866" lon="0.10229">
        <ele>563.5</ele>
        <time>2016-07-24T07:57:26Z</time>
      </trkpt>
      <trkpt lat="42.42863" lon="0.10226">
        <ele>563.4</ele>
        <time>2016-07-24T07:57:27Z</time>
      </trkpt>
      <trkpt lat="42.4286" lon="0.10223">
        <ele>563.4</ele>
        <time>2016-07-24T07:57:28Z</time>
      </trkpt>
      <trkpt lat="42.42857" lon="0.1022">
        <ele>563.4</ele>
        <time>2016-07-24T07:57:29Z</time>
      </trkpt>
      <trkpt lat="42.42856" lon="0.10215">
        <ele>563.4</ele>
        <time>2016-07-24T07:57:30Z</time>
      </trkpt>
      <trkpt lat="42.42855" lon="0.1021">
        <ele>563.5</ele>
        <time>2016-07-24T07:57:31Z</time>
      </trkpt>
      <trkpt lat="42.42855" lon="0.10202">
        <ele>563.5</ele>
        <time>2016-07-24T07:57:32Z</time>
      </trkpt>
      <trkpt lat="42.42857" lon="0.10195">
        <ele>563.4</ele>
        <time>2016-07-24T07:57:33Z</time>
      </trkpt>
      <trkpt lat="42.42857" lon="0.10189">
        <ele>563.4</ele>
        <time>2016-07-24T07:57:34Z</time>
      </trkpt>
      <trkpt lat="42.4286" lon="0.10181">
        <ele>563.3</ele>
        <time>2016-07-24T07:57:35Z</time>
      </trkpt>
      <trkpt lat="42.4286" lon="0.10174">
        <ele>563.2</ele>
        <time>2016-07-24T07:57:36Z</time>
      </trkpt>
      <trkpt lat="42.42861" lon="0.10167">
        <ele>563.1</ele>
        <time>2016-07-24T07:57:37Z</time>
      </trkpt>
      <trkpt lat="42.4286" lon="0.1016">
        <ele>563</ele>
        <time>2016-07-24T07:57:38Z</time>
      </trkpt>
      <trkpt lat="42.42859" lon="0.10154">
        <ele>562.9</ele>
        <time>2016-07-24T07:57:39Z</time>
      </trkpt>
      <trkpt lat="42.42856" lon="0.10146">
        <ele>562.9</ele>
        <time>2016-07-24T07:57:40Z</time>
      </trkpt>
      <trkpt lat="42.42855" lon="0.10141">
        <ele>562.9</ele>
        <time>2016-07-24T07:57:41Z</time>
      </trkpt>
      <trkpt lat="42.42853" lon="0.10137">
        <ele>562.9</ele>
        <time>2016-07-24T07:57:42Z</time>
      </trkpt>
      <trkpt lat="42.4285" lon="0.10134">
        <ele>562.9</ele>
        <time>2016-07-24T07:57:43Z</time>
      </trkpt>
      <trkpt lat="42.42846" lon="0.10131">
        <ele>563.1</ele>
        <time>2016-07-24T07:57:44Z</time>
      </trkpt>
      <trkpt lat="42.42843" lon="0.10127">
        <ele>563.2</ele>
        <time>2016-07-24T07:57:45Z</time>
      </trkpt>
      <trkpt lat="42.42838" lon="0.10121">
        <ele>563.3</ele>
        <time>2016-07-24T07:57:46Z</time>
      </trkpt>
      <trkpt lat="42.42835" lon="0.10114">
        <ele>563.4</ele>
        <time>2016-07-24T07:57:47Z</time>
      </trkpt>
      <trkpt lat="42.42833" lon="0.10107">
        <ele>563.4</ele>
        <time>2016-07-24T07:57:48Z</time>
      </trkpt>
      <trkpt lat="42.42833" lon="0.101">
        <ele>563.4</ele>
        <time>2016-07-24T07:57:49Z</time>
      </trkpt>
      <trkpt lat="42.42832" lon="0.10092">
        <ele>563.3</ele>
        <time>2016-07-24T07:57:50Z</time>
      </trkpt>
      <trkpt lat="42.42831" lon="0.10085">
        <ele>563.4</ele>
        <time>2016-07-24T07:57:51Z</time>
      </trkpt>
      <trkpt lat="42.42829" lon="0.10078">
        <ele>563.4</ele>
        <time>2016-07-24T07:57:52Z</time>
      </trkpt>
      <trkpt lat="42.42828" lon="0.1007">
        <ele>563.4</ele>
        <time>2016-07-24T07:57:53Z</time>
      </trkpt>
      <trkpt lat="42.42827" lon="0.10062">
        <ele>563.4</ele>
        <time>2016-07-24T07:57:54Z</time>
      </trkpt>
      <trkpt lat="42.42826" lon="0.10054">
        <ele>563.4</ele>
        <time>2016-07-24T07:57:55Z</time>
      </trkpt>
      <trkpt lat="42.42825" lon="0.10048">
        <ele>563.4</ele>
        <time>2016-07-24T07:57:56Z</time>
      </trkpt>
      <trkpt lat="42.42824" lon="0.1004">
        <ele>563.5</ele>
        <time>2016-07-24T07:57:57Z</time>
      </trkpt>
      <trkpt lat="42.42823" lon="0.10033">
        <ele>563.6</ele>
        <time>2016-07-24T07:57:58Z</time>
      </trkpt>
      <trkpt lat="42.42823" lon="0.10026">
        <ele>563.7</ele>
        <time>2016-07-24T07:57:59Z</time>
      </trkpt>
      <trkpt lat="42.42824" lon="0.10018">
        <ele>563.8</ele>
        <time>2016-07-24T07:58:00Z</time>
      </trkpt>
      <trkpt lat="42.42824" lon="0.1001">
        <ele>563.8</ele>
        <time>2016-07-24T07:58:01Z</time>
      </trkpt>
      <trkpt lat="42.42824" lon="0.10004">
        <ele>563.9</ele>
        <time>2016-07-24T07:58:02Z</time>
      </trkpt>
      <trkpt lat="42.42824" lon="0.09996">
        <ele>564</ele>
        <time>2016-07-24T07:58:03Z</time>
      </trkpt>
      <trkpt lat="42.42824" lon="0.09989">
        <ele>564.1</ele>
        <time>2016-07-24T07:58:04Z</time>
      </trkpt>
      <trkpt lat="42.42823" lon="0.09981">
        <ele>564.2</ele>
        <time>2016-07-24T07:58:05Z</time>
      </trkpt>
      <trkpt lat="42.42824" lon="0.09974">
        <ele>564.2</ele>
        <time>2016-07-24T07:58:06Z</time>
      </trkpt>
      <trkpt lat="42.42824" lon="0.09968">
        <ele>564.3</ele>
        <time>2016-07-24T07:58:07Z</time>
      </trkpt>
      <trkpt lat="42.42823" lon="0.09962">
        <ele>564.5</ele>
        <time>2016-07-24T07:58:08Z</time>
      </trkpt>
      <trkpt lat="42.4282" lon="0.09954">
        <ele>564.7</ele>
        <time>2016-07-24T07:58:09Z</time>
      </trkpt>
      <trkpt lat="42.4282" lon="0.09948">
        <ele>564.7</ele>
        <time>2016-07-24T07:58:10Z</time>
      </trkpt>
      <trkpt lat="42.42818" lon="0.09941">
        <ele>564.9</ele>
        <time>2016-07-24T07:58:11Z</time>
      </trkpt>
      <trkpt lat="42.42817" lon="0.09934">
        <ele>565</ele>
        <time>2016-07-24T07:58:12Z</time>
      </trkpt>
      <trkpt lat="42.42816" lon="0.09926">
        <ele>565.1</ele>
        <time>2016-07-24T07:58:13Z</time>
      </trkpt>
      <trkpt lat="42.42816" lon="0.09918">
        <ele>565.1</ele>
        <time>2016-07-24T07:58:14Z</time>
      </trkpt>
      <trkpt lat="42.42817" lon="0.0991">
        <ele>565.2</ele>
        <time>2016-07-24T07:58:15Z</time>
      </trkpt>
      <trkpt lat="42.42815" lon="0.09904">
        <ele>565.2</ele>
        <time>2016-07-24T07:58:16Z</time>
      </trkpt>
      <trkpt lat="42.42815" lon="0.09897">
        <ele>565.3</ele>
        <time>2016-07-24T07:58:17Z</time>
      </trkpt>
      <trkpt lat="42.42815" lon="0.09889">
        <ele>565.3</ele>
        <time>2016-07-24T07:58:18Z</time>
      </trkpt>
      <trkpt lat="42.42815" lon="0.09882">
        <ele>565.4</ele>
        <time>2016-07-24T07:58:19Z</time>
      </trkpt>
      <trkpt lat="42.42816" lon="0.09875">
        <ele>565.4</ele>
        <time>2016-07-24T07:58:20Z</time>
      </trkpt>
      <trkpt lat="42.42816" lon="0.09867">
        <ele>565.6</ele>
        <time>2016-07-24T07:58:21Z</time>
      </trkpt>
      <trkpt lat="42.42815" lon="0.0986">
        <ele>565.7</ele>
        <time>2016-07-24T07:58:22Z</time>
      </trkpt>
      <trkpt lat="42.42815" lon="0.09852">
        <ele>565.9</ele>
        <time>2016-07-24T07:58:23Z</time>
      </trkpt>
      <trkpt lat="42.42814" lon="0.09845">
        <ele>566</ele>
        <time>2016-07-24T07:58:24Z</time>
      </trkpt>
      <trkpt lat="42.42812" lon="0.09837">
        <ele>566.2</ele>
        <time>2016-07-24T07:58:25Z</time>
      </trkpt>
      <trkpt lat="42.42812" lon="0.0983">
        <ele>566.3</ele>
        <time>2016-07-24T07:58:26Z</time>
      </trkpt>
      <trkpt lat="42.42811" lon="0.09823">
        <ele>566.4</ele>
        <time>2016-07-24T07:58:27Z</time>
      </trkpt>
      <trkpt lat="42.42811" lon="0.09818">
        <ele>566.5</ele>
        <time>2016-07-24T07:58:28Z</time>
      </trkpt>
      <trkpt lat="42.42811" lon="0.09812">
        <ele>566.6</ele>
        <time>2016-07-24T07:58:29Z</time>
      </trkpt>
      <trkpt lat="42.42811" lon="0.09805">
        <ele>566.8</ele>
        <time>2016-07-24T07:58:30Z</time>
      </trkpt>
      <trkpt lat="42.42811" lon="0.098">
        <ele>566.9</ele>
        <time>2016-07-24T07:58:31Z</time>
      </trkpt>
      <trkpt lat="42.42808" lon="0.09793">
        <ele>567</ele>
        <time>2016-07-24T07:58:32Z</time>
      </trkpt>
      <trkpt lat="42.42804" lon="0.09788">
        <ele>567.1</ele>
        <time>2016-07-24T07:58:33Z</time>
      </trkpt>
      <trkpt lat="42.42802" lon="0.09781">
        <ele>567.3</ele>
        <time>2016-07-24T07:58:34Z</time>
      </trkpt>
      <trkpt lat="42.42793" lon="0.09776">
        <ele>567.5</ele>
        <time>2016-07-24T07:58:35Z</time>
      </trkpt>
      <trkpt lat="42.42796" lon="0.09768">
        <ele>567.8</ele>
        <time>2016-07-24T07:58:36Z</time>
      </trkpt>
      <trkpt lat="42.42796" lon="0.09763">
        <ele>567.9</ele>
        <time>2016-07-24T07:58:37Z</time>
      </trkpt>
      <trkpt lat="42.428" lon="0.09758">
        <ele>568</ele>
        <time>2016-07-24T07:58:38Z</time>
      </trkpt>
      <trkpt lat="42.428" lon="0.09755">
        <ele>568.1</ele>
        <time>2016-07-24T07:58:39Z</time>
      </trkpt>
      <trkpt lat="42.42807" lon="0.09747">
        <ele>568.1</ele>
        <time>2016-07-24T07:58:40Z</time>
      </trkpt>
      <trkpt lat="42.42809" lon="0.09742">
        <ele>568.2</ele>
        <time>2016-07-24T07:58:41Z</time>
      </trkpt>
      <trkpt lat="42.42811" lon="0.09736">
        <ele>568.2</ele>
        <time>2016-07-24T07:58:42Z</time>
      </trkpt>
      <trkpt lat="42.42812" lon="0.09731">
        <ele>568.3</ele>
        <time>2016-07-24T07:58:43Z</time>
      </trkpt>
      <trkpt lat="42.42813" lon="0.09727">
        <ele>568.3</ele>
        <time>2016-07-24T07:58:44Z</time>
      </trkpt>
      <trkpt lat="42.42814" lon="0.09721">
        <ele>568.4</ele>
        <time>2016-07-24T07:58:45Z</time>
      </trkpt>
      <trkpt lat="42.42815" lon="0.09713">
        <ele>568.5</ele>
        <time>2016-07-24T07:58:46Z</time>
      </trkpt>
      <trkpt lat="42.42815" lon="0.09706">
        <ele>568.6</ele>
        <time>2016-07-24T07:58:47Z</time>
      </trkpt>
      <trkpt lat="42.42813" lon="0.09701">
        <ele>568.8</ele>
        <time>2016-07-24T07:58:48Z</time>
      </trkpt>
      <trkpt lat="42.42812" lon="0.09695">
        <ele>568.9</ele>
        <time>2016-07-24T07:58:49Z</time>
      </trkpt>
      <trkpt lat="42.42812" lon="0.09689">
        <ele>569</ele>
        <time>2016-07-24T07:58:50Z</time>
      </trkpt>
      <trkpt lat="42.42811" lon="0.09682">
        <ele>569.1</ele>
        <time>2016-07-24T07:58:51Z</time>
      </trkpt>
      <trkpt lat="42.4281" lon="0.09678">
        <ele>569.2</ele>
        <time>2016-07-24T07:58:52Z</time>
      </trkpt>
      <trkpt lat="42.42808" lon="0.09674">
        <ele>569.4</ele>
        <time>2016-07-24T07:58:53Z</time>
      </trkpt>
      <trkpt lat="42.42807" lon="0.09669">
        <ele>569.5</ele>
        <time>2016-07-24T07:58:54Z</time>
      </trkpt>
      <trkpt lat="42.42805" lon="0.09662">
        <ele>569.7</ele>
        <time>2016-07-24T07:58:55Z</time>
      </trkpt>
      <trkpt lat="42.42804" lon="0.09656">
        <ele>569.8</ele>
        <time>2016-07-24T07:58:56Z</time>
      </trkpt>
      <trkpt lat="42.42803" lon="0.09649">
        <ele>570</ele>
        <time>2016-07-24T07:58:57Z</time>
      </trkpt>
      <trkpt lat="42.42801" lon="0.09644">
        <ele>570.1</ele>
        <time>2016-07-24T07:58:58Z</time>
      </trkpt>
      <trkpt lat="42.428" lon="0.09638">
        <ele>570.3</ele>
        <time>2016-07-24T07:58:59Z</time>
      </trkpt>
      <trkpt lat="42.42798" lon="0.09632">
        <ele>570.5</ele>
        <time>2016-07-24T07:59:00Z</time>
      </trkpt>
      <trkpt lat="42.42796" lon="0.09624">
        <ele>570.7</ele>
        <time>2016-07-24T07:59:02Z</time>
      </trkpt>
      <trkpt lat="42.42793" lon="0.0962">
        <ele>571.1</ele>
        <time>2016-07-24T07:59:03Z</time>
      </trkpt>
      <trkpt lat="42.42791" lon="0.09615">
        <ele>571.5</ele>
        <time>2016-07-24T07:59:04Z</time>
      </trkpt>
      <trkpt lat="42.42789" lon="0.0961">
        <ele>572.3</ele>
        <time>2016-07-24T07:59:05Z</time>
      </trkpt>
      <trkpt lat="42.42787" lon="0.09604">
        <ele>573.1</ele>
        <time>2016-07-24T07:59:06Z</time>
      </trkpt>
      <trkpt lat="42.42786" lon="0.09599">
        <ele>573.6</ele>
        <time>2016-07-24T07:59:07Z</time>
      </trkpt>
      <trkpt lat="42.42786" lon="0.09593">
        <ele>573.9</ele>
        <time>2016-07-24T07:59:08Z</time>
      </trkpt>
      <trkpt lat="42.42787" lon="0.09588">
        <ele>573.7</ele>
        <time>2016-07-24T07:59:09Z</time>
      </trkpt>
      <trkpt lat="42.42786" lon="0.09581">
        <ele>574.1</ele>
        <time>2016-07-24T07:59:10Z</time>
      </trkpt>
      <trkpt lat="42.42786" lon="0.09574">
        <ele>574.5</ele>
        <time>2016-07-24T07:59:11Z</time>
      </trkpt>
      <trkpt lat="42.42785" lon="0.09568">
        <ele>575</ele>
        <time>2016-07-24T07:59:12Z</time>
      </trkpt>
      <trkpt lat="42.42784" lon="0.0956">
        <ele>575.7</ele>
        <time>2016-07-24T07:59:13Z</time>
      </trkpt>
      <trkpt lat="42.42782" lon="0.09553">
        <ele>576.4</ele>
        <time>2016-07-24T07:59:14Z</time>
      </trkpt>
      <trkpt lat="42.42781" lon="0.09545">
        <ele>577.3</ele>
        <time>2016-07-24T07:59:15Z</time>
      </trkpt>
      <trkpt lat="42.4278" lon="0.09538">
        <ele>577.9</ele>
        <time>2016-07-24T07:59:16Z</time>
      </trkpt>
      <trkpt lat="42.42778" lon="0.09531">
        <ele>578.7</ele>
        <time>2016-07-24T07:59:17Z</time>
      </trkpt>
      <trkpt lat="42.42777" lon="0.09523">
        <ele>579.3</ele>
        <time>2016-07-24T07:59:18Z</time>
      </trkpt>
      <trkpt lat="42.42776" lon="0.09516">
        <ele>580.1</ele>
        <time>2016-07-24T07:59:19Z</time>
      </trkpt>
      <trkpt lat="42.42775" lon="0.09508">
        <ele>580.7</ele>
        <time>2016-07-24T07:59:20Z</time>
      </trkpt>
      <trkpt lat="42.42774" lon="0.09503">
        <ele>581.2</ele>
        <time>2016-07-24T07:59:21Z</time>
      </trkpt>
      <trkpt lat="42.42773" lon="0.09496">
        <ele>581.7</ele>
        <time>2016-07-24T07:59:22Z</time>
      </trkpt>
      <trkpt lat="42.42773" lon="0.09492">
        <ele>581.8</ele>
        <time>2016-07-24T07:59:23Z</time>
      </trkpt>
      <trkpt lat="42.42772" lon="0.09485">
        <ele>582.5</ele>
        <time>2016-07-24T07:59:24Z</time>
      </trkpt>
      <trkpt lat="42.42776" lon="0.09479">
        <ele>581.6</ele>
        <time>2016-07-24T07:59:25Z</time>
      </trkpt>
      <trkpt lat="42.42776" lon="0.09472">
        <ele>581.9</ele>
        <time>2016-07-24T07:59:26Z</time>
      </trkpt>
      <trkpt lat="42.42775" lon="0.09466">
        <ele>582.4</ele>
        <time>2016-07-24T07:59:27Z</time>
      </trkpt>
      <trkpt lat="42.42773" lon="0.0946">
        <ele>583.3</ele>
        <time>2016-07-24T07:59:28Z</time>
      </trkpt>
      <trkpt lat="42.42772" lon="0.09453">
        <ele>583.7</ele>
        <time>2016-07-24T07:59:29Z</time>
      </trkpt>
      <trkpt lat="42.42772" lon="0.09447">
        <ele>584.1</ele>
        <time>2016-07-24T07:59:30Z</time>
      </trkpt>
      <trkpt lat="42.42771" lon="0.0944">
        <ele>584.5</ele>
        <time>2016-07-24T07:59:31Z</time>
      </trkpt>
      <trkpt lat="42.42772" lon="0.09433">
        <ele>584.5</ele>
        <time>2016-07-24T07:59:32Z</time>
      </trkpt>
      <trkpt lat="42.42773" lon="0.09426">
        <ele>584.2</ele>
        <time>2016-07-24T07:59:33Z</time>
      </trkpt>
      <trkpt lat="42.42773" lon="0.09419">
        <ele>584.6</ele>
        <time>2016-07-24T07:59:34Z</time>
      </trkpt>
      <trkpt lat="42.42773" lon="0.09412">
        <ele>585</ele>
        <time>2016-07-24T07:59:35Z</time>
      </trkpt>
      <trkpt lat="42.42773" lon="0.09406">
        <ele>585.1</ele>
        <time>2016-07-24T07:59:36Z</time>
      </trkpt>
      <trkpt lat="42.42772" lon="0.094">
        <ele>585.6</ele>
        <time>2016-07-24T07:59:37Z</time>
      </trkpt>
      <trkpt lat="42.42772" lon="0.09394">
        <ele>586.1</ele>
        <time>2016-07-24T07:59:38Z</time>
      </trkpt>
      <trkpt lat="42.42772" lon="0.09385">
        <ele>586.2</ele>
        <time>2016-07-24T07:59:40Z</time>
      </trkpt>
      <trkpt lat="42.42772" lon="0.0938">
        <ele>586.4</ele>
        <time>2016-07-24T07:59:41Z</time>
      </trkpt>
      <trkpt lat="42.42772" lon="0.09374">
        <ele>586.5</ele>
        <time>2016-07-24T07:59:42Z</time>
      </trkpt>
      <trkpt lat="42.42773" lon="0.09367">
        <ele>586.7</ele>
        <time>2016-07-24T07:59:43Z</time>
      </trkpt>
      <trkpt lat="42.42774" lon="0.09361">
        <ele>586.5</ele>
        <time>2016-07-24T07:59:44Z</time>
      </trkpt>
      <trkpt lat="42.42775" lon="0.09355">
        <ele>586.5</ele>
        <time>2016-07-24T07:59:45Z</time>
      </trkpt>
      <trkpt lat="42.42775" lon="0.09349">
        <ele>586.7</ele>
        <time>2016-07-24T07:59:46Z</time>
      </trkpt>
      <trkpt lat="42.42775" lon="0.09342">
        <ele>586.8</ele>
        <time>2016-07-24T07:59:47Z</time>
      </trkpt>
      <trkpt lat="42.42776" lon="0.09335">
        <ele>587</ele>
        <time>2016-07-24T07:59:48Z</time>
      </trkpt>
      <trkpt lat="42.42775" lon="0.09331">
        <ele>587.3</ele>
        <time>2016-07-24T07:59:49Z</time>
      </trkpt>
      <trkpt lat="42.42776" lon="0.09325">
        <ele>587.2</ele>
        <time>2016-07-24T07:59:50Z</time>
      </trkpt>
      <trkpt lat="42.42778" lon="0.09318">
        <ele>586.9</ele>
        <time>2016-07-24T07:59:51Z</time>
      </trkpt>
      <trkpt lat="42.42781" lon="0.0931">
        <ele>586</ele>
        <time>2016-07-24T07:59:52Z</time>
      </trkpt>
      <trkpt lat="42.42783" lon="0.09305">
        <ele>585.6</ele>
        <time>2016-07-24T07:59:53Z</time>
      </trkpt>
      <trkpt lat="42.42786" lon="0.09299">
        <ele>585</ele>
        <time>2016-07-24T07:59:54Z</time>
      </trkpt>
      <trkpt lat="42.4279" lon="0.09292">
        <ele>583.5</ele>
        <time>2016-07-24T07:59:55Z</time>
      </trkpt>
      <trkpt lat="42.42793" lon="0.09286">
        <ele>583.3</ele>
        <time>2016-07-24T07:59:56Z</time>
      </trkpt>
      <trkpt lat="42.42797" lon="0.09279">
        <ele>583.3</ele>
        <time>2016-07-24T07:59:57Z</time>
      </trkpt>
      <trkpt lat="42.42801" lon="0.09273">
        <ele>583.2</ele>
        <time>2016-07-24T07:59:58Z</time>
      </trkpt>
      <trkpt lat="42.42805" lon="0.09265">
        <ele>583.3</ele>
        <time>2016-07-24T07:59:59Z</time>
      </trkpt>
      <trkpt lat="42.42809" lon="0.09259">
        <ele>583</ele>
        <time>2016-07-24T08:00:00Z</time>
      </trkpt>
      <trkpt lat="42.42812" lon="0.09252">
        <ele>582.8</ele>
        <time>2016-07-24T08:00:01Z</time>
      </trkpt>
      <trkpt lat="42.42815" lon="0.09244">
        <ele>582.9</ele>
        <time>2016-07-24T08:00:02Z</time>
      </trkpt>
      <trkpt lat="42.42818" lon="0.0924">
        <ele>582.8</ele>
        <time>2016-07-24T08:00:03Z</time>
      </trkpt>
      <trkpt lat="42.42821" lon="0.09235">
        <ele>582.4</ele>
        <time>2016-07-24T08:00:04Z</time>
      </trkpt>
      <trkpt lat="42.42826" lon="0.09229">
        <ele>581.7</ele>
        <time>2016-07-24T08:00:05Z</time>
      </trkpt>
      <trkpt lat="42.42831" lon="0.09223">
        <ele>581</ele>
        <time>2016-07-24T08:00:06Z</time>
      </trkpt>
      <trkpt lat="42.42835" lon="0.09219">
        <ele>580.3</ele>
        <time>2016-07-24T08:00:07Z</time>
      </trkpt>
      <trkpt lat="42.42838" lon="0.09214">
        <ele>579.9</ele>
        <time>2016-07-24T08:00:08Z</time>
      </trkpt>
      <trkpt lat="42.42842" lon="0.09208">
        <ele>579.5</ele>
        <time>2016-07-24T08:00:09Z</time>
      </trkpt>
      <trkpt lat="42.42845" lon="0.09202">
        <ele>579</ele>
        <time>2016-07-24T08:00:10Z</time>
      </trkpt>
      <trkpt lat="42.42848" lon="0.09197">
        <ele>578.4</ele>
        <time>2016-07-24T08:00:11Z</time>
      </trkpt>
      <trkpt lat="42.42852" lon="0.0919">
        <ele>577.6</ele>
        <time>2016-07-24T08:00:12Z</time>
      </trkpt>
      <trkpt lat="42.42856" lon="0.09184">
        <ele>576.8</ele>
        <time>2016-07-24T08:00:13Z</time>
      </trkpt>
      <trkpt lat="42.4286" lon="0.09178">
        <ele>575.9</ele>
        <time>2016-07-24T08:00:14Z</time>
      </trkpt>
      <trkpt lat="42.42864" lon="0.09173">
        <ele>575</ele>
        <time>2016-07-24T08:00:15Z</time>
      </trkpt>
      <trkpt lat="42.42867" lon="0.09166">
        <ele>574.4</ele>
        <time>2016-07-24T08:00:16Z</time>
      </trkpt>
      <trkpt lat="42.42871" lon="0.0916">
        <ele>573.4</ele>
        <time>2016-07-24T08:00:17Z</time>
      </trkpt>
      <trkpt lat="42.42875" lon="0.09154">
        <ele>572.3</ele>
        <time>2016-07-24T08:00:18Z</time>
      </trkpt>
      <trkpt lat="42.42879" lon="0.09149">
        <ele>572.2</ele>
        <time>2016-07-24T08:00:19Z</time>
      </trkpt>
      <trkpt lat="42.42883" lon="0.09144">
        <ele>572.1</ele>
        <time>2016-07-24T08:00:20Z</time>
      </trkpt>
      <trkpt lat="42.42888" lon="0.09139">
        <ele>572.1</ele>
        <time>2016-07-24T08:00:21Z</time>
      </trkpt>
      <trkpt lat="42.42891" lon="0.09133">
        <ele>572</ele>
        <time>2016-07-24T08:00:22Z</time>
      </trkpt>
      <trkpt lat="42.42895" lon="0.09126">
        <ele>572</ele>
        <time>2016-07-24T08:00:23Z</time>
      </trkpt>
      <trkpt lat="42.42899" lon="0.09121">
        <ele>572</ele>
        <time>2016-07-24T08:00:24Z</time>
      </trkpt>
      <trkpt lat="42.42904" lon="0.09116">
        <ele>571.9</ele>
        <time>2016-07-24T08:00:25Z</time>
      </trkpt>
      <trkpt lat="42.42908" lon="0.09112">
        <ele>571.8</ele>
        <time>2016-07-24T08:00:26Z</time>
      </trkpt>
      <trkpt lat="42.42913" lon="0.09108">
        <ele>571.7</ele>
        <time>2016-07-24T08:00:27Z</time>
      </trkpt>
      <trkpt lat="42.42917" lon="0.09105">
        <ele>571.6</ele>
        <time>2016-07-24T08:00:28Z</time>
      </trkpt>
      <trkpt lat="42.42921" lon="0.09101">
        <ele>571.5</ele>
        <time>2016-07-24T08:00:29Z</time>
      </trkpt>
      <trkpt lat="42.42927" lon="0.09097">
        <ele>571.3</ele>
        <time>2016-07-24T08:00:30Z</time>
      </trkpt>
      <trkpt lat="42.42932" lon="0.09093">
        <ele>571.1</ele>
        <time>2016-07-24T08:00:31Z</time>
      </trkpt>
      <trkpt lat="42.42937" lon="0.09089">
        <ele>571</ele>
        <time>2016-07-24T08:00:32Z</time>
      </trkpt>
      <trkpt lat="42.42942" lon="0.09086">
        <ele>570.8</ele>
        <time>2016-07-24T08:00:33Z</time>
      </trkpt>
      <trkpt lat="42.42946" lon="0.0908">
        <ele>570.8</ele>
        <time>2016-07-24T08:00:34Z</time>
      </trkpt>
      <trkpt lat="42.42949" lon="0.09073">
        <ele>570.8</ele>
        <time>2016-07-24T08:00:35Z</time>
      </trkpt>
      <trkpt lat="42.42954" lon="0.09067">
        <ele>570.7</ele>
        <time>2016-07-24T08:00:36Z</time>
      </trkpt>
      <trkpt lat="42.42958" lon="0.09059">
        <ele>570.6</ele>
        <time>2016-07-24T08:00:37Z</time>
      </trkpt>
      <trkpt lat="42.42963" lon="0.09055">
        <ele>570.5</ele>
        <time>2016-07-24T08:00:38Z</time>
      </trkpt>
      <trkpt lat="42.42968" lon="0.0905">
        <ele>570.5</ele>
        <time>2016-07-24T08:00:39Z</time>
      </trkpt>
      <trkpt lat="42.42972" lon="0.09044">
        <ele>570.5</ele>
        <time>2016-07-24T08:00:40Z</time>
      </trkpt>
      <trkpt lat="42.42975" lon="0.09039">
        <ele>570.4</ele>
        <time>2016-07-24T08:00:41Z</time>
      </trkpt>
      <trkpt lat="42.42979" lon="0.09034">
        <ele>570.2</ele>
        <time>2016-07-24T08:00:42Z</time>
      </trkpt>
      <trkpt lat="42.42984" lon="0.09028">
        <ele>570.1</ele>
        <time>2016-07-24T08:00:43Z</time>
      </trkpt>
      <trkpt lat="42.42988" lon="0.09023">
        <ele>569.9</ele>
        <time>2016-07-24T08:00:44Z</time>
      </trkpt>
      <trkpt lat="42.42993" lon="0.09018">
        <ele>569.8</ele>
        <time>2016-07-24T08:00:45Z</time>
      </trkpt>
      <trkpt lat="42.42996" lon="0.09012">
        <ele>569.7</ele>
        <time>2016-07-24T08:00:46Z</time>
      </trkpt>
      <trkpt lat="42.42999" lon="0.09005">
        <ele>569.5</ele>
        <time>2016-07-24T08:00:47Z</time>
      </trkpt>
      <trkpt lat="42.43003" lon="0.08999">
        <ele>569.4</ele>
        <time>2016-07-24T08:00:48Z</time>
      </trkpt>
      <trkpt lat="42.43006" lon="0.08993">
        <ele>569.3</ele>
        <time>2016-07-24T08:00:49Z</time>
      </trkpt>
      <trkpt lat="42.43011" lon="0.08987">
        <ele>569.1</ele>
        <time>2016-07-24T08:00:50Z</time>
      </trkpt>
      <trkpt lat="42.43014" lon="0.0898">
        <ele>569</ele>
        <time>2016-07-24T08:00:51Z</time>
      </trkpt>
      <trkpt lat="42.43019" lon="0.08973">
        <ele>568.8</ele>
        <time>2016-07-24T08:00:52Z</time>
      </trkpt>
      <trkpt lat="42.43021" lon="0.08966">
        <ele>568.7</ele>
        <time>2016-07-24T08:00:53Z</time>
      </trkpt>
      <trkpt lat="42.43024" lon="0.0896">
        <ele>568.6</ele>
        <time>2016-07-24T08:00:54Z</time>
      </trkpt>
      <trkpt lat="42.43027" lon="0.08953">
        <ele>568.7</ele>
        <time>2016-07-24T08:00:55Z</time>
      </trkpt>
      <trkpt lat="42.4303" lon="0.08946">
        <ele>568.8</ele>
        <time>2016-07-24T08:00:56Z</time>
      </trkpt>
      <trkpt lat="42.43033" lon="0.0894">
        <ele>569</ele>
        <time>2016-07-24T08:00:57Z</time>
      </trkpt>
      <trkpt lat="42.43036" lon="0.08934">
        <ele>569.1</ele>
        <time>2016-07-24T08:00:58Z</time>
      </trkpt>
      <trkpt lat="42.43039" lon="0.08928">
        <ele>569.2</ele>
        <time>2016-07-24T08:00:59Z</time>
      </trkpt>
      <trkpt lat="42.43041" lon="0.08921">
        <ele>569.3</ele>
        <time>2016-07-24T08:01:00Z</time>
      </trkpt>
      <trkpt lat="42.43045" lon="0.08915">
        <ele>569.6</ele>
        <time>2016-07-24T08:01:01Z</time>
      </trkpt>
      <trkpt lat="42.43047" lon="0.08909">
        <ele>569.8</ele>
        <time>2016-07-24T08:01:02Z</time>
      </trkpt>
      <trkpt lat="42.4305" lon="0.08903">
        <ele>570.1</ele>
        <time>2016-07-24T08:01:03Z</time>
      </trkpt>
      <trkpt lat="42.43053" lon="0.08896">
        <ele>570.3</ele>
        <time>2016-07-24T08:01:04Z</time>
      </trkpt>
      <trkpt lat="42.43056" lon="0.08889">
        <ele>570.5</ele>
        <time>2016-07-24T08:01:05Z</time>
      </trkpt>
      <trkpt lat="42.43058" lon="0.08883">
        <ele>570.7</ele>
        <time>2016-07-24T08:01:06Z</time>
      </trkpt>
      <trkpt lat="42.4306" lon="0.08875">
        <ele>571</ele>
        <time>2016-07-24T08:01:07Z</time>
      </trkpt>
      <trkpt lat="42.43062" lon="0.0887">
        <ele>571</ele>
        <time>2016-07-24T08:01:08Z</time>
      </trkpt>
      <trkpt lat="42.43062" lon="0.08863">
        <ele>571.1</ele>
        <time>2016-07-24T08:01:09Z</time>
      </trkpt>
      <trkpt lat="42.43066" lon="0.08861">
        <ele>571.1</ele>
        <time>2016-07-24T08:01:10Z</time>
      </trkpt>
      <trkpt lat="42.43068" lon="0.08857">
        <ele>571.1</ele>
        <time>2016-07-24T08:01:11Z</time>
      </trkpt>
      <trkpt lat="42.43071" lon="0.08854">
        <ele>571.2</ele>
        <time>2016-07-24T08:01:12Z</time>
      </trkpt>
      <trkpt lat="42.43073" lon="0.0885">
        <ele>571.2</ele>
        <time>2016-07-24T08:01:13Z</time>
      </trkpt>
      <trkpt lat="42.43075" lon="0.08847">
        <ele>571.2</ele>
        <time>2016-07-24T08:01:14Z</time>
      </trkpt>
      <trkpt lat="42.43078" lon="0.08844">
        <ele>571.2</ele>
        <time>2016-07-24T08:01:15Z</time>
      </trkpt>
      <trkpt lat="42.43081" lon="0.08841">
        <ele>571.2</ele>
        <time>2016-07-24T08:01:16Z</time>
      </trkpt>
      <trkpt lat="42.43084" lon="0.08839">
        <ele>571.2</ele>
        <time>2016-07-24T08:01:18Z</time>
      </trkpt>
      <trkpt lat="42.43088" lon="0.08836">
        <ele>571.2</ele>
        <time>2016-07-24T08:01:20Z</time>
      </trkpt>
      <trkpt lat="42.43092" lon="0.08833">
        <ele>571.2</ele>
        <time>2016-07-24T08:01:22Z</time>
      </trkpt>
      <trkpt lat="42.43096" lon="0.0883">
        <ele>571.2</ele>
        <time>2016-07-24T08:01:24Z</time>
      </trkpt>
      <trkpt lat="42.43099" lon="0.08826">
        <ele>571.2</ele>
        <time>2016-07-24T08:01:26Z</time>
      </trkpt>
      <trkpt lat="42.43102" lon="0.08821">
        <ele>571.2</ele>
        <time>2016-07-24T08:01:28Z</time>
      </trkpt>
      <trkpt lat="42.43105" lon="0.08816">
        <ele>571.2</ele>
        <time>2016-07-24T08:01:30Z</time>
      </trkpt>
      <trkpt lat="42.43107" lon="0.08813">
        <ele>571.2</ele>
        <time>2016-07-24T08:01:31Z</time>
      </trkpt>
      <trkpt lat="42.43109" lon="0.0881">
        <ele>571.2</ele>
        <time>2016-07-24T08:01:32Z</time>
      </trkpt>
      <trkpt lat="42.4311" lon="0.08806">
        <ele>571.1</ele>
        <time>2016-07-24T08:01:33Z</time>
      </trkpt>
      <trkpt lat="42.43112" lon="0.08801">
        <ele>571.1</ele>
        <time>2016-07-24T08:01:35Z</time>
      </trkpt>
      <trkpt lat="42.43114" lon="0.08797">
        <ele>571.1</ele>
        <time>2016-07-24T08:01:36Z</time>
      </trkpt>
      <trkpt lat="42.43116" lon="0.08794">
        <ele>571.1</ele>
        <time>2016-07-24T08:01:37Z</time>
      </trkpt>
      <trkpt lat="42.43117" lon="0.08789">
        <ele>571.2</ele>
        <time>2016-07-24T08:01:38Z</time>
      </trkpt>
      <trkpt lat="42.4312" lon="0.08785">
        <ele>571.4</ele>
        <time>2016-07-24T08:01:39Z</time>
      </trkpt>
      <trkpt lat="42.43122" lon="0.08781">
        <ele>571.5</ele>
        <time>2016-07-24T08:01:40Z</time>
      </trkpt>
      <trkpt lat="42.43125" lon="0.08777">
        <ele>571.7</ele>
        <time>2016-07-24T08:01:41Z</time>
      </trkpt>
      <trkpt lat="42.43127" lon="0.08773">
        <ele>571.9</ele>
        <time>2016-07-24T08:01:42Z</time>
      </trkpt>
      <trkpt lat="42.43131" lon="0.0877">
        <ele>572.1</ele>
        <time>2016-07-24T08:01:43Z</time>
      </trkpt>
      <trkpt lat="42.43134" lon="0.08766">
        <ele>572.3</ele>
        <time>2016-07-24T08:01:44Z</time>
      </trkpt>
      <trkpt lat="42.43138" lon="0.08763">
        <ele>572.5</ele>
        <time>2016-07-24T08:01:45Z</time>
      </trkpt>
      <trkpt lat="42.43142" lon="0.0876">
        <ele>572.6</ele>
        <time>2016-07-24T08:01:46Z</time>
      </trkpt>
      <trkpt lat="42.43147" lon="0.08758">
        <ele>572.7</ele>
        <time>2016-07-24T08:01:47Z</time>
      </trkpt>
      <trkpt lat="42.43151" lon="0.08757">
        <ele>572.8</ele>
        <time>2016-07-24T08:01:48Z</time>
      </trkpt>
      <trkpt lat="42.43156" lon="0.08756">
        <ele>572.8</ele>
        <time>2016-07-24T08:01:49Z</time>
      </trkpt>
      <trkpt lat="42.4316" lon="0.08754">
        <ele>572.9</ele>
        <time>2016-07-24T08:01:50Z</time>
      </trkpt>
      <trkpt lat="42.43164" lon="0.08753">
        <ele>572.9</ele>
        <time>2016-07-24T08:01:51Z</time>
      </trkpt>
      <trkpt lat="42.43168" lon="0.08752">
        <ele>573</ele>
        <time>2016-07-24T08:01:52Z</time>
      </trkpt>
      <trkpt lat="42.43172" lon="0.08749">
        <ele>573</ele>
        <time>2016-07-24T08:01:53Z</time>
      </trkpt>
      <trkpt lat="42.43176" lon="0.08748">
        <ele>573</ele>
        <time>2016-07-24T08:01:54Z</time>
      </trkpt>
      <trkpt lat="42.4318" lon="0.08743">
        <ele>573.1</ele>
        <time>2016-07-24T08:01:55Z</time>
      </trkpt>
      <trkpt lat="42.43182" lon="0.08738">
        <ele>573.2</ele>
        <time>2016-07-24T08:01:56Z</time>
      </trkpt>
      <trkpt lat="42.43186" lon="0.08733">
        <ele>573.2</ele>
        <time>2016-07-24T08:01:57Z</time>
      </trkpt>
      <trkpt lat="42.43189" lon="0.08727">
        <ele>573.3</ele>
        <time>2016-07-24T08:01:58Z</time>
      </trkpt>
      <trkpt lat="42.43192" lon="0.08722">
        <ele>573.3</ele>
        <time>2016-07-24T08:01:59Z</time>
      </trkpt>
      <trkpt lat="42.43195" lon="0.08716">
        <ele>573.3</ele>
        <time>2016-07-24T08:02:00Z</time>
      </trkpt>
      <trkpt lat="42.43198" lon="0.08711">
        <ele>573.2</ele>
        <time>2016-07-24T08:02:01Z</time>
      </trkpt>
      <trkpt lat="42.43201" lon="0.08706">
        <ele>573.2</ele>
        <time>2016-07-24T08:02:02Z</time>
      </trkpt>
      <trkpt lat="42.43205" lon="0.08701">
        <ele>573.1</ele>
        <time>2016-07-24T08:02:03Z</time>
      </trkpt>
      <trkpt lat="42.43207" lon="0.08696">
        <ele>573</ele>
        <time>2016-07-24T08:02:04Z</time>
      </trkpt>
      <trkpt lat="42.43211" lon="0.08691">
        <ele>573</ele>
        <time>2016-07-24T08:02:05Z</time>
      </trkpt>
      <trkpt lat="42.43213" lon="0.08685">
        <ele>573.1</ele>
        <time>2016-07-24T08:02:06Z</time>
      </trkpt>
      <trkpt lat="42.43216" lon="0.0868">
        <ele>573.1</ele>
        <time>2016-07-24T08:02:07Z</time>
      </trkpt>
      <trkpt lat="42.43219" lon="0.08674">
        <ele>573.1</ele>
        <time>2016-07-24T08:02:08Z</time>
      </trkpt>
      <trkpt lat="42.43222" lon="0.08669">
        <ele>573.2</ele>
        <time>2016-07-24T08:02:09Z</time>
      </trkpt>
      <trkpt lat="42.43226" lon="0.08663">
        <ele>573.2</ele>
        <time>2016-07-24T08:02:10Z</time>
      </trkpt>
      <trkpt lat="42.43229" lon="0.08658">
        <ele>573.2</ele>
        <time>2016-07-24T08:02:11Z</time>
      </trkpt>
      <trkpt lat="42.43231" lon="0.08652">
        <ele>573.3</ele>
        <time>2016-07-24T08:02:12Z</time>
      </trkpt>
      <trkpt lat="42.43234" lon="0.08645">
        <ele>573.3</ele>
        <time>2016-07-24T08:02:13Z</time>
      </trkpt>
      <trkpt lat="42.43237" lon="0.0864">
        <ele>573.3</ele>
        <time>2016-07-24T08:02:14Z</time>
      </trkpt>
      <trkpt lat="42.4324" lon="0.08634">
        <ele>573.4</ele>
        <time>2016-07-24T08:02:15Z</time>
      </trkpt>
      <trkpt lat="42.43243" lon="0.08629">
        <ele>573.4</ele>
        <time>2016-07-24T08:02:16Z</time>
      </trkpt>
      <trkpt lat="42.43246" lon="0.08624">
        <ele>573.5</ele>
        <time>2016-07-24T08:02:17Z</time>
      </trkpt>
      <trkpt lat="42.43249" lon="0.08619">
        <ele>573.6</ele>
        <time>2016-07-24T08:02:18Z</time>
      </trkpt>
      <trkpt lat="42.43251" lon="0.08611">
        <ele>573.8</ele>
        <time>2016-07-24T08:02:19Z</time>
      </trkpt>
      <trkpt lat="42.43254" lon="0.08606">
        <ele>574</ele>
        <time>2016-07-24T08:02:20Z</time>
      </trkpt>
      <trkpt lat="42.43257" lon="0.08602">
        <ele>574.1</ele>
        <time>2016-07-24T08:02:21Z</time>
      </trkpt>
      <trkpt lat="42.4326" lon="0.08597">
        <ele>574.3</ele>
        <time>2016-07-24T08:02:22Z</time>
      </trkpt>
      <trkpt lat="42.43263" lon="0.08592">
        <ele>574.4</ele>
        <time>2016-07-24T08:02:23Z</time>
      </trkpt>
      <trkpt lat="42.43266" lon="0.08587">
        <ele>574.6</ele>
        <time>2016-07-24T08:02:24Z</time>
      </trkpt>
      <trkpt lat="42.43269" lon="0.08582">
        <ele>574.7</ele>
        <time>2016-07-24T08:02:25Z</time>
      </trkpt>
      <trkpt lat="42.43271" lon="0.08577">
        <ele>574.9</ele>
        <time>2016-07-24T08:02:26Z</time>
      </trkpt>
      <trkpt lat="42.43273" lon="0.08571">
        <ele>575.1</ele>
        <time>2016-07-24T08:02:27Z</time>
      </trkpt>
      <trkpt lat="42.43274" lon="0.08564">
        <ele>575.2</ele>
        <time>2016-07-24T08:02:28Z</time>
      </trkpt>
      <trkpt lat="42.43276" lon="0.08559">
        <ele>575.4</ele>
        <time>2016-07-24T08:02:29Z</time>
      </trkpt>
      <trkpt lat="42.43278" lon="0.08554">
        <ele>575.5</ele>
        <time>2016-07-24T08:02:30Z</time>
      </trkpt>
      <trkpt lat="42.43281" lon="0.08549">
        <ele>575.7</ele>
        <time>2016-07-24T08:02:31Z</time>
      </trkpt>
      <trkpt lat="42.43284" lon="0.08544">
        <ele>575.9</ele>
        <time>2016-07-24T08:02:32Z</time>
      </trkpt>
      <trkpt lat="42.43287" lon="0.08537">
        <ele>575.9</ele>
        <time>2016-07-24T08:02:33Z</time>
      </trkpt>
      <trkpt lat="42.43289" lon="0.08533">
        <ele>576</ele>
        <time>2016-07-24T08:02:34Z</time>
      </trkpt>
      <trkpt lat="42.43293" lon="0.08529">
        <ele>576</ele>
        <time>2016-07-24T08:02:35Z</time>
      </trkpt>
      <trkpt lat="42.43296" lon="0.08524">
        <ele>576</ele>
        <time>2016-07-24T08:02:36Z</time>
      </trkpt>
      <trkpt lat="42.43299" lon="0.08521">
        <ele>575.9</ele>
        <time>2016-07-24T08:02:37Z</time>
      </trkpt>
      <trkpt lat="42.43303" lon="0.08516">
        <ele>575.9</ele>
        <time>2016-07-24T08:02:38Z</time>
      </trkpt>
      <trkpt lat="42.43307" lon="0.08512">
        <ele>575.9</ele>
        <time>2016-07-24T08:02:39Z</time>
      </trkpt>
      <trkpt lat="42.4331" lon="0.08509">
        <ele>575.9</ele>
        <time>2016-07-24T08:02:40Z</time>
      </trkpt>
      <trkpt lat="42.43314" lon="0.08504">
        <ele>575.9</ele>
        <time>2016-07-24T08:02:41Z</time>
      </trkpt>
      <trkpt lat="42.43317" lon="0.08501">
        <ele>575.8</ele>
        <time>2016-07-24T08:02:42Z</time>
      </trkpt>
      <trkpt lat="42.4332" lon="0.08497">
        <ele>575.8</ele>
        <time>2016-07-24T08:02:43Z</time>
      </trkpt>
      <trkpt lat="42.43324" lon="0.08493">
        <ele>575.8</ele>
        <time>2016-07-24T08:02:44Z</time>
      </trkpt>
      <trkpt lat="42.43327" lon="0.08488">
        <ele>575.8</ele>
        <time>2016-07-24T08:02:45Z</time>
      </trkpt>
      <trkpt lat="42.43329" lon="0.08484">
        <ele>575.9</ele>
        <time>2016-07-24T08:02:46Z</time>
      </trkpt>
      <trkpt lat="42.43331" lon="0.0848">
        <ele>575.9</ele>
        <time>2016-07-24T08:02:47Z</time>
      </trkpt>
      <trkpt lat="42.4333" lon="0.08474">
        <ele>575.9</ele>
        <time>2016-07-24T08:02:48Z</time>
      </trkpt>
      <trkpt lat="42.43328" lon="0.08468">
        <ele>575.9</ele>
        <time>2016-07-24T08:02:49Z</time>
      </trkpt>
      <trkpt lat="42.43325" lon="0.08464">
        <ele>576</ele>
        <time>2016-07-24T08:02:50Z</time>
      </trkpt>
      <trkpt lat="42.43322" lon="0.0846">
        <ele>576</ele>
        <time>2016-07-24T08:02:51Z</time>
      </trkpt>
      <trkpt lat="42.43317" lon="0.08457">
        <ele>576</ele>
        <time>2016-07-24T08:02:52Z</time>
      </trkpt>
      <trkpt lat="42.43314" lon="0.08453">
        <ele>576</ele>
        <time>2016-07-24T08:02:53Z</time>
      </trkpt>
      <trkpt lat="42.43309" lon="0.0845">
        <ele>576.1</ele>
        <time>2016-07-24T08:02:54Z</time>
      </trkpt>
      <trkpt lat="42.43305" lon="0.08446">
        <ele>576.1</ele>
        <time>2016-07-24T08:02:55Z</time>
      </trkpt>
      <trkpt lat="42.43301" lon="0.08443">
        <ele>576.2</ele>
        <time>2016-07-24T08:02:56Z</time>
      </trkpt>
      <trkpt lat="42.43297" lon="0.08439">
        <ele>576.2</ele>
        <time>2016-07-24T08:02:57Z</time>
      </trkpt>
      <trkpt lat="42.43293" lon="0.08436">
        <ele>576.3</ele>
        <time>2016-07-24T08:02:58Z</time>
      </trkpt>
      <trkpt lat="42.43289" lon="0.08432">
        <ele>576.3</ele>
        <time>2016-07-24T08:02:59Z</time>
      </trkpt>
      <trkpt lat="42.43285" lon="0.08429">
        <ele>576.4</ele>
        <time>2016-07-24T08:03:00Z</time>
      </trkpt>
      <trkpt lat="42.43281" lon="0.08425">
        <ele>576.4</ele>
        <time>2016-07-24T08:03:01Z</time>
      </trkpt>
      <trkpt lat="42.43278" lon="0.0842">
        <ele>576.5</ele>
        <time>2016-07-24T08:03:02Z</time>
      </trkpt>
      <trkpt lat="42.43275" lon="0.08416">
        <ele>576.5</ele>
        <time>2016-07-24T08:03:03Z</time>
      </trkpt>
      <trkpt lat="42.43272" lon="0.08411">
        <ele>576.6</ele>
        <time>2016-07-24T08:03:04Z</time>
      </trkpt>
      <trkpt lat="42.43269" lon="0.08407">
        <ele>576.6</ele>
        <time>2016-07-24T08:03:05Z</time>
      </trkpt>
      <trkpt lat="42.43266" lon="0.08402">
        <ele>576.7</ele>
        <time>2016-07-24T08:03:06Z</time>
      </trkpt>
      <trkpt lat="42.43264" lon="0.08398">
        <ele>576.7</ele>
        <time>2016-07-24T08:03:07Z</time>
      </trkpt>
      <trkpt lat="42.43263" lon="0.08394">
        <ele>576.8</ele>
        <time>2016-07-24T08:03:08Z</time>
      </trkpt>
      <trkpt lat="42.4326" lon="0.08389">
        <ele>576.8</ele>
        <time>2016-07-24T08:03:09Z</time>
      </trkpt>
      <trkpt lat="42.43257" lon="0.08386">
        <ele>576.9</ele>
        <time>2016-07-24T08:03:10Z</time>
      </trkpt>
      <trkpt lat="42.43254" lon="0.08383">
        <ele>576.9</ele>
        <time>2016-07-24T08:03:11Z</time>
      </trkpt>
      <trkpt lat="42.4325" lon="0.08381">
        <ele>576.9</ele>
        <time>2016-07-24T08:03:12Z</time>
      </trkpt>
      <trkpt lat="42.43247" lon="0.08379">
        <ele>577</ele>
        <time>2016-07-24T08:03:13Z</time>
      </trkpt>
      <trkpt lat="42.43243" lon="0.08376">
        <ele>577</ele>
        <time>2016-07-24T08:03:14Z</time>
      </trkpt>
      <trkpt lat="42.43238" lon="0.08373">
        <ele>577</ele>
        <time>2016-07-24T08:03:15Z</time>
      </trkpt>
      <trkpt lat="42.43234" lon="0.0837">
        <ele>577</ele>
        <time>2016-07-24T08:03:16Z</time>
      </trkpt>
      <trkpt lat="42.43229" lon="0.08368">
        <ele>577</ele>
        <time>2016-07-24T08:03:17Z</time>
      </trkpt>
      <trkpt lat="42.43225" lon="0.08366">
        <ele>577</ele>
        <time>2016-07-24T08:03:18Z</time>
      </trkpt>
      <trkpt lat="42.4322" lon="0.08363">
        <ele>577</ele>
        <time>2016-07-24T08:03:19Z</time>
      </trkpt>
      <trkpt lat="42.43216" lon="0.08361">
        <ele>577.1</ele>
        <time>2016-07-24T08:03:20Z</time>
      </trkpt>
      <trkpt lat="42.43211" lon="0.08358">
        <ele>577.2</ele>
        <time>2016-07-24T08:03:21Z</time>
      </trkpt>
      <trkpt lat="42.43206" lon="0.08355">
        <ele>577.2</ele>
        <time>2016-07-24T08:03:22Z</time>
      </trkpt>
      <trkpt lat="42.43202" lon="0.08353">
        <ele>577.3</ele>
        <time>2016-07-24T08:03:23Z</time>
      </trkpt>
      <trkpt lat="42.43197" lon="0.0835">
        <ele>577.3</ele>
        <time>2016-07-24T08:03:24Z</time>
      </trkpt>
      <trkpt lat="42.43192" lon="0.08347">
        <ele>577.4</ele>
        <time>2016-07-24T08:03:25Z</time>
      </trkpt>
      <trkpt lat="42.43187" lon="0.08344">
        <ele>577.5</ele>
        <time>2016-07-24T08:03:26Z</time>
      </trkpt>
      <trkpt lat="42.43182" lon="0.08342">
        <ele>577.5</ele>
        <time>2016-07-24T08:03:27Z</time>
      </trkpt>
      <trkpt lat="42.43178" lon="0.08339">
        <ele>577.6</ele>
        <time>2016-07-24T08:03:28Z</time>
      </trkpt>
      <trkpt lat="42.43173" lon="0.08336">
        <ele>577.7</ele>
        <time>2016-07-24T08:03:29Z</time>
      </trkpt>
      <trkpt lat="42.43168" lon="0.08333">
        <ele>577.7</ele>
        <time>2016-07-24T08:03:30Z</time>
      </trkpt>
      <trkpt lat="42.43163" lon="0.0833">
        <ele>577.8</ele>
        <time>2016-07-24T08:03:31Z</time>
      </trkpt>
      <trkpt lat="42.43158" lon="0.08327">
        <ele>577.9</ele>
        <time>2016-07-24T08:03:32Z</time>
      </trkpt>
      <trkpt lat="42.43153" lon="0.08324">
        <ele>578</ele>
        <time>2016-07-24T08:03:33Z</time>
      </trkpt>
      <trkpt lat="42.43149" lon="0.08321">
        <ele>578.1</ele>
        <time>2016-07-24T08:03:34Z</time>
      </trkpt>
      <trkpt lat="42.43145" lon="0.08318">
        <ele>578.2</ele>
        <time>2016-07-24T08:03:35Z</time>
      </trkpt>
      <trkpt lat="42.4314" lon="0.08315">
        <ele>578.3</ele>
        <time>2016-07-24T08:03:36Z</time>
      </trkpt>
      <trkpt lat="42.43135" lon="0.08312">
        <ele>578.4</ele>
        <time>2016-07-24T08:03:37Z</time>
      </trkpt>
      <trkpt lat="42.43131" lon="0.0831">
        <ele>578.5</ele>
        <time>2016-07-24T08:03:38Z</time>
      </trkpt>
      <trkpt lat="42.43126" lon="0.08307">
        <ele>578.6</ele>
        <time>2016-07-24T08:03:39Z</time>
      </trkpt>
      <trkpt lat="42.43122" lon="0.08304">
        <ele>578.8</ele>
        <time>2016-07-24T08:03:40Z</time>
      </trkpt>
      <trkpt lat="42.43117" lon="0.08301">
        <ele>578.9</ele>
        <time>2016-07-24T08:03:41Z</time>
      </trkpt>
      <trkpt lat="42.43113" lon="0.08298">
        <ele>579</ele>
        <time>2016-07-24T08:03:42Z</time>
      </trkpt>
      <trkpt lat="42.43108" lon="0.08295">
        <ele>579.1</ele>
        <time>2016-07-24T08:03:43Z</time>
      </trkpt>
      <trkpt lat="42.43103" lon="0.08293">
        <ele>579.2</ele>
        <time>2016-07-24T08:03:44Z</time>
      </trkpt>
      <trkpt lat="42.43099" lon="0.08291">
        <ele>579.3</ele>
        <time>2016-07-24T08:03:45Z</time>
      </trkpt>
      <trkpt lat="42.43094" lon="0.08288">
        <ele>579.3</ele>
        <time>2016-07-24T08:03:46Z</time>
      </trkpt>
      <trkpt lat="42.4309" lon="0.08285">
        <ele>579.3</ele>
        <time>2016-07-24T08:03:47Z</time>
      </trkpt>
      <trkpt lat="42.43085" lon="0.08283">
        <ele>579.4</ele>
        <time>2016-07-24T08:03:48Z</time>
      </trkpt>
      <trkpt lat="42.43081" lon="0.08279">
        <ele>579.4</ele>
        <time>2016-07-24T08:03:49Z</time>
      </trkpt>
      <trkpt lat="42.43076" lon="0.08277">
        <ele>579.4</ele>
        <time>2016-07-24T08:03:50Z</time>
      </trkpt>
      <trkpt lat="42.43072" lon="0.08274">
        <ele>579.4</ele>
        <time>2016-07-24T08:03:51Z</time>
      </trkpt>
      <trkpt lat="42.43068" lon="0.08272">
        <ele>579.4</ele>
        <time>2016-07-24T08:03:52Z</time>
      </trkpt>
      <trkpt lat="42.43064" lon="0.08269">
        <ele>579.5</ele>
        <time>2016-07-24T08:03:53Z</time>
      </trkpt>
      <trkpt lat="42.4306" lon="0.08266">
        <ele>579.5</ele>
        <time>2016-07-24T08:03:54Z</time>
      </trkpt>
      <trkpt lat="42.43056" lon="0.08263">
        <ele>579.5</ele>
        <time>2016-07-24T08:03:55Z</time>
      </trkpt>
      <trkpt lat="42.43052" lon="0.0826">
        <ele>579.5</ele>
        <time>2016-07-24T08:03:56Z</time>
      </trkpt>
      <trkpt lat="42.43047" lon="0.08257">
        <ele>579.5</ele>
        <time>2016-07-24T08:03:57Z</time>
      </trkpt>
      <trkpt lat="42.43043" lon="0.08254">
        <ele>579.5</ele>
        <time>2016-07-24T08:03:58Z</time>
      </trkpt>
      <trkpt lat="42.43039" lon="0.08252">
        <ele>579.7</ele>
        <time>2016-07-24T08:03:59Z</time>
      </trkpt>
      <trkpt lat="42.43035" lon="0.0825">
        <ele>579.9</ele>
        <time>2016-07-24T08:04:00Z</time>
      </trkpt>
      <trkpt lat="42.4303" lon="0.08247">
        <ele>580.2</ele>
        <time>2016-07-24T08:04:01Z</time>
      </trkpt>
      <trkpt lat="42.43025" lon="0.08245">
        <ele>580.5</ele>
        <time>2016-07-24T08:04:02Z</time>
      </trkpt>
      <trkpt lat="42.43021" lon="0.08243">
        <ele>580.8</ele>
        <time>2016-07-24T08:04:03Z</time>
      </trkpt>
      <trkpt lat="42.43017" lon="0.08241">
        <ele>581.1</ele>
        <time>2016-07-24T08:04:04Z</time>
      </trkpt>
      <trkpt lat="42.43012" lon="0.08239">
        <ele>581.4</ele>
        <time>2016-07-24T08:04:05Z</time>
      </trkpt>
      <trkpt lat="42.43008" lon="0.08236">
        <ele>581.8</ele>
        <time>2016-07-24T08:04:06Z</time>
      </trkpt>
      <trkpt lat="42.43004" lon="0.08234">
        <ele>582.1</ele>
        <time>2016-07-24T08:04:07Z</time>
      </trkpt>
      <trkpt lat="42.43" lon="0.08231">
        <ele>582.5</ele>
        <time>2016-07-24T08:04:08Z</time>
      </trkpt>
      <trkpt lat="42.42995" lon="0.08229">
        <ele>582.9</ele>
        <time>2016-07-24T08:04:09Z</time>
      </trkpt>
      <trkpt lat="42.4299" lon="0.08226">
        <ele>583.4</ele>
        <time>2016-07-24T08:04:10Z</time>
      </trkpt>
      <trkpt lat="42.42986" lon="0.08223">
        <ele>583.8</ele>
        <time>2016-07-24T08:04:11Z</time>
      </trkpt>
      <trkpt lat="42.42982" lon="0.0822">
        <ele>584.3</ele>
        <time>2016-07-24T08:04:12Z</time>
      </trkpt>
      <trkpt lat="42.42977" lon="0.08218">
        <ele>584.8</ele>
        <time>2016-07-24T08:04:13Z</time>
      </trkpt>
      <trkpt lat="42.42973" lon="0.08215">
        <ele>585.3</ele>
        <time>2016-07-24T08:04:14Z</time>
      </trkpt>
      <trkpt lat="42.42969" lon="0.08213">
        <ele>585.8</ele>
        <time>2016-07-24T08:04:15Z</time>
      </trkpt>
      <trkpt lat="42.42964" lon="0.0821">
        <ele>586.3</ele>
        <time>2016-07-24T08:04:16Z</time>
      </trkpt>
      <trkpt lat="42.4296" lon="0.08207">
        <ele>587.1</ele>
        <time>2016-07-24T08:04:17Z</time>
      </trkpt>
      <trkpt lat="42.42956" lon="0.08204">
        <ele>587.7</ele>
        <time>2016-07-24T08:04:18Z</time>
      </trkpt>
      <trkpt lat="42.42952" lon="0.08202">
        <ele>588</ele>
        <time>2016-07-24T08:04:19Z</time>
      </trkpt>
      <trkpt lat="42.42948" lon="0.08199">
        <ele>588.6</ele>
        <time>2016-07-24T08:04:20Z</time>
      </trkpt>
      <trkpt lat="42.42943" lon="0.08197">
        <ele>589</ele>
        <time>2016-07-24T08:04:21Z</time>
      </trkpt>
      <trkpt lat="42.42939" lon="0.08194">
        <ele>589.5</ele>
        <time>2016-07-24T08:04:22Z</time>
      </trkpt>
      <trkpt lat="42.42934" lon="0.08192">
        <ele>589.9</ele>
        <time>2016-07-24T08:04:23Z</time>
      </trkpt>
      <trkpt lat="42.4293" lon="0.0819">
        <ele>590.3</ele>
        <time>2016-07-24T08:04:24Z</time>
      </trkpt>
      <trkpt lat="42.42926" lon="0.08187">
        <ele>590.9</ele>
        <time>2016-07-24T08:04:25Z</time>
      </trkpt>
      <trkpt lat="42.42922" lon="0.08184">
        <ele>591.5</ele>
        <time>2016-07-24T08:04:26Z</time>
      </trkpt>
      <trkpt lat="42.42918" lon="0.08181">
        <ele>592.1</ele>
        <time>2016-07-24T08:04:27Z</time>
      </trkpt>
      <trkpt lat="42.42913" lon="0.08178">
        <ele>592.8</ele>
        <time>2016-07-24T08:04:28Z</time>
      </trkpt>
      <trkpt lat="42.42909" lon="0.08175">
        <ele>593.4</ele>
        <time>2016-07-24T08:04:29Z</time>
      </trkpt>
      <trkpt lat="42.42905" lon="0.08173">
        <ele>593.9</ele>
        <time>2016-07-24T08:04:30Z</time>
      </trkpt>
      <trkpt lat="42.42902" lon="0.08171">
        <ele>594.4</ele>
        <time>2016-07-24T08:04:31Z</time>
      </trkpt>
      <trkpt lat="42.42898" lon="0.08168">
        <ele>595</ele>
        <time>2016-07-24T08:04:32Z</time>
      </trkpt>
      <trkpt lat="42.42895" lon="0.08166">
        <ele>595.6</ele>
        <time>2016-07-24T08:04:33Z</time>
      </trkpt>
      <trkpt lat="42.42891" lon="0.08162">
        <ele>596.4</ele>
        <time>2016-07-24T08:04:34Z</time>
      </trkpt>
      <trkpt lat="42.42887" lon="0.0816">
        <ele>597</ele>
        <time>2016-07-24T08:04:35Z</time>
      </trkpt>
      <trkpt lat="42.42882" lon="0.08158">
        <ele>597.7</ele>
        <time>2016-07-24T08:04:36Z</time>
      </trkpt>
      <trkpt lat="42.42878" lon="0.08156">
        <ele>598.3</ele>
        <time>2016-07-24T08:04:37Z</time>
      </trkpt>
      <trkpt lat="42.42874" lon="0.08154">
        <ele>598.6</ele>
        <time>2016-07-24T08:04:38Z</time>
      </trkpt>
      <trkpt lat="42.4287" lon="0.08152">
        <ele>598.5</ele>
        <time>2016-07-24T08:04:39Z</time>
      </trkpt>
      <trkpt lat="42.42866" lon="0.08149">
        <ele>598.5</ele>
        <time>2016-07-24T08:04:40Z</time>
      </trkpt>
      <trkpt lat="42.42861" lon="0.08146">
        <ele>598.5</ele>
        <time>2016-07-24T08:04:41Z</time>
      </trkpt>
      <trkpt lat="42.42857" lon="0.08143">
        <ele>598.3</ele>
        <time>2016-07-24T08:04:42Z</time>
      </trkpt>
      <trkpt lat="42.42852" lon="0.0814">
        <ele>598.2</ele>
        <time>2016-07-24T08:04:43Z</time>
      </trkpt>
      <trkpt lat="42.42848" lon="0.08138">
        <ele>597.8</ele>
        <time>2016-07-24T08:04:44Z</time>
      </trkpt>
      <trkpt lat="42.42844" lon="0.08135">
        <ele>597.5</ele>
        <time>2016-07-24T08:04:45Z</time>
      </trkpt>
      <trkpt lat="42.42841" lon="0.08133">
        <ele>597.1</ele>
        <time>2016-07-24T08:04:46Z</time>
      </trkpt>
      <trkpt lat="42.42837" lon="0.08131">
        <ele>596.6</ele>
        <time>2016-07-24T08:04:47Z</time>
      </trkpt>
      <trkpt lat="42.42833" lon="0.08129">
        <ele>596</ele>
        <time>2016-07-24T08:04:48Z</time>
      </trkpt>
      <trkpt lat="42.42829" lon="0.08127">
        <ele>595.5</ele>
        <time>2016-07-24T08:04:49Z</time>
      </trkpt>
      <trkpt lat="42.42826" lon="0.08124">
        <ele>595</ele>
        <time>2016-07-24T08:04:50Z</time>
      </trkpt>
      <trkpt lat="42.42822" lon="0.08122">
        <ele>594.5</ele>
        <time>2016-07-24T08:04:51Z</time>
      </trkpt>
      <trkpt lat="42.42818" lon="0.0812">
        <ele>594</ele>
        <time>2016-07-24T08:04:52Z</time>
      </trkpt>
      <trkpt lat="42.42814" lon="0.08117">
        <ele>593.4</ele>
        <time>2016-07-24T08:04:53Z</time>
      </trkpt>
      <trkpt lat="42.4281" lon="0.08114">
        <ele>592.8</ele>
        <time>2016-07-24T08:04:54Z</time>
      </trkpt>
      <trkpt lat="42.42807" lon="0.08112">
        <ele>592.3</ele>
        <time>2016-07-24T08:04:55Z</time>
      </trkpt>
      <trkpt lat="42.42802" lon="0.08111">
        <ele>591.5</ele>
        <time>2016-07-24T08:04:56Z</time>
      </trkpt>
      <trkpt lat="42.42798" lon="0.08108">
        <ele>590.8</ele>
        <time>2016-07-24T08:04:57Z</time>
      </trkpt>
      <trkpt lat="42.42794" lon="0.08105">
        <ele>590.1</ele>
        <time>2016-07-24T08:04:58Z</time>
      </trkpt>
      <trkpt lat="42.4279" lon="0.08104">
        <ele>589.7</ele>
        <time>2016-07-24T08:04:59Z</time>
      </trkpt>
      <trkpt lat="42.42785" lon="0.08101">
        <ele>589.9</ele>
        <time>2016-07-24T08:05:00Z</time>
      </trkpt>
      <trkpt lat="42.42781" lon="0.08098">
        <ele>590</ele>
        <time>2016-07-24T08:05:01Z</time>
      </trkpt>
      <trkpt lat="42.42777" lon="0.08093">
        <ele>590.2</ele>
        <time>2016-07-24T08:05:02Z</time>
      </trkpt>
      <trkpt lat="42.42773" lon="0.08088">
        <ele>590.4</ele>
        <time>2016-07-24T08:05:03Z</time>
      </trkpt>
      <trkpt lat="42.42768" lon="0.08083">
        <ele>590.5</ele>
        <time>2016-07-24T08:05:04Z</time>
      </trkpt>
      <trkpt lat="42.42764" lon="0.08078">
        <ele>590.7</ele>
        <time>2016-07-24T08:05:05Z</time>
      </trkpt>
      <trkpt lat="42.42757" lon="0.08074">
        <ele>590.5</ele>
        <time>2016-07-24T08:05:07Z</time>
      </trkpt>
      <trkpt lat="42.42753" lon="0.0807">
        <ele>590.5</ele>
        <time>2016-07-24T08:05:08Z</time>
      </trkpt>
      <trkpt lat="42.42749" lon="0.08066">
        <ele>590.4</ele>
        <time>2016-07-24T08:05:09Z</time>
      </trkpt>
      <trkpt lat="42.42745" lon="0.08062">
        <ele>590.3</ele>
        <time>2016-07-24T08:05:10Z</time>
      </trkpt>
      <trkpt lat="42.42742" lon="0.08056">
        <ele>590.3</ele>
        <time>2016-07-24T08:05:11Z</time>
      </trkpt>
      <trkpt lat="42.4274" lon="0.08053">
        <ele>590.3</ele>
        <time>2016-07-24T08:05:12Z</time>
      </trkpt>
      <trkpt lat="42.42736" lon="0.08048">
        <ele>590.1</ele>
        <time>2016-07-24T08:05:13Z</time>
      </trkpt>
      <trkpt lat="42.42734" lon="0.08045">
        <ele>590.1</ele>
        <time>2016-07-24T08:05:14Z</time>
      </trkpt>
      <trkpt lat="42.42732" lon="0.0804">
        <ele>590</ele>
        <time>2016-07-24T08:05:15Z</time>
      </trkpt>
      <trkpt lat="42.4273" lon="0.08035">
        <ele>590</ele>
        <time>2016-07-24T08:05:16Z</time>
      </trkpt>
      <trkpt lat="42.42728" lon="0.0803">
        <ele>589.9</ele>
        <time>2016-07-24T08:05:17Z</time>
      </trkpt>
      <trkpt lat="42.42726" lon="0.08024">
        <ele>589.9</ele>
        <time>2016-07-24T08:05:18Z</time>
      </trkpt>
      <trkpt lat="42.42724" lon="0.0802">
        <ele>589.9</ele>
        <time>2016-07-24T08:05:19Z</time>
      </trkpt>
      <trkpt lat="42.42723" lon="0.08015">
        <ele>590</ele>
        <time>2016-07-24T08:05:20Z</time>
      </trkpt>
      <trkpt lat="42.42722" lon="0.0801">
        <ele>590</ele>
        <time>2016-07-24T08:05:21Z</time>
      </trkpt>
      <trkpt lat="42.4272" lon="0.08005">
        <ele>590.1</ele>
        <time>2016-07-24T08:05:22Z</time>
      </trkpt>
      <trkpt lat="42.42719" lon="0.08">
        <ele>590.1</ele>
        <time>2016-07-24T08:05:23Z</time>
      </trkpt>
      <trkpt lat="42.42717" lon="0.07996">
        <ele>590.2</ele>
        <time>2016-07-24T08:05:24Z</time>
      </trkpt>
      <trkpt lat="42.42716" lon="0.07991">
        <ele>590.2</ele>
        <time>2016-07-24T08:05:25Z</time>
      </trkpt>
      <trkpt lat="42.42714" lon="0.07986">
        <ele>590.3</ele>
        <time>2016-07-24T08:05:26Z</time>
      </trkpt>
      <trkpt lat="42.42713" lon="0.07982">
        <ele>590.4</ele>
        <time>2016-07-24T08:05:27Z</time>
      </trkpt>
      <trkpt lat="42.42712" lon="0.07977">
        <ele>590.5</ele>
        <time>2016-07-24T08:05:28Z</time>
      </trkpt>
      <trkpt lat="42.4271" lon="0.07972">
        <ele>590.6</ele>
        <time>2016-07-24T08:05:29Z</time>
      </trkpt>
      <trkpt lat="42.42709" lon="0.07967">
        <ele>590.7</ele>
        <time>2016-07-24T08:05:30Z</time>
      </trkpt>
      <trkpt lat="42.42707" lon="0.07963">
        <ele>591.1</ele>
        <time>2016-07-24T08:05:31Z</time>
      </trkpt>
      <trkpt lat="42.42706" lon="0.07958">
        <ele>591.5</ele>
        <time>2016-07-24T08:05:32Z</time>
      </trkpt>
      <trkpt lat="42.42705" lon="0.07953">
        <ele>591.8</ele>
        <time>2016-07-24T08:05:33Z</time>
      </trkpt>
      <trkpt lat="42.42704" lon="0.07948">
        <ele>592.1</ele>
        <time>2016-07-24T08:05:34Z</time>
      </trkpt>
      <trkpt lat="42.42703" lon="0.07943">
        <ele>592.5</ele>
        <time>2016-07-24T08:05:35Z</time>
      </trkpt>
      <trkpt lat="42.42702" lon="0.07938">
        <ele>592.9</ele>
        <time>2016-07-24T08:05:36Z</time>
      </trkpt>
      <trkpt lat="42.427" lon="0.07934">
        <ele>593.3</ele>
        <time>2016-07-24T08:05:37Z</time>
      </trkpt>
      <trkpt lat="42.42698" lon="0.0793">
        <ele>593.7</ele>
        <time>2016-07-24T08:05:38Z</time>
      </trkpt>
      <trkpt lat="42.42696" lon="0.07926">
        <ele>594.1</ele>
        <time>2016-07-24T08:05:39Z</time>
      </trkpt>
      <trkpt lat="42.42695" lon="0.07922">
        <ele>594.5</ele>
        <time>2016-07-24T08:05:40Z</time>
      </trkpt>
      <trkpt lat="42.42693" lon="0.07919">
        <ele>594.9</ele>
        <time>2016-07-24T08:05:41Z</time>
      </trkpt>
      <trkpt lat="42.42689" lon="0.07915">
        <ele>595.5</ele>
        <time>2016-07-24T08:05:43Z</time>
      </trkpt>
      <trkpt lat="42.42687" lon="0.07916">
        <ele>596.1</ele>
        <time>2016-07-24T08:05:46Z</time>
      </trkpt>
      <trkpt lat="42.4269" lon="0.0792">
        <ele>595.5</ele>
        <time>2016-07-24T08:05:48Z</time>
      </trkpt>
      <trkpt lat="42.42693" lon="0.07918">
        <ele>594.8</ele>
        <time>2016-07-24T08:05:50Z</time>
      </trkpt>
      <trkpt lat="42.42693" lon="0.07913">
        <ele>594.8</ele>
        <time>2016-07-24T08:05:52Z</time>
      </trkpt>
      <trkpt lat="42.4269" lon="0.07907">
        <ele>595.4</ele>
        <time>2016-07-24T08:05:54Z</time>
      </trkpt>
      <trkpt lat="42.42688" lon="0.07903">
        <ele>595.8</ele>
        <time>2016-07-24T08:05:55Z</time>
      </trkpt>
      <trkpt lat="42.42685" lon="0.079">
        <ele>596.2</ele>
        <time>2016-07-24T08:05:56Z</time>
      </trkpt>
      <trkpt lat="42.42683" lon="0.07896">
        <ele>596.6</ele>
        <time>2016-07-24T08:05:57Z</time>
      </trkpt>
      <trkpt lat="42.4268" lon="0.07893">
        <ele>596.9</ele>
        <time>2016-07-24T08:05:58Z</time>
      </trkpt>
      <trkpt lat="42.42676" lon="0.0789">
        <ele>597.5</ele>
        <time>2016-07-24T08:06:00Z</time>
      </trkpt>
      <trkpt lat="42.42672" lon="0.07885">
        <ele>598</ele>
        <time>2016-07-24T08:06:02Z</time>
      </trkpt>
      <trkpt lat="42.4267" lon="0.07882">
        <ele>598.3</ele>
        <time>2016-07-24T08:06:03Z</time>
      </trkpt>
      <trkpt lat="42.42668" lon="0.07879">
        <ele>598.5</ele>
        <time>2016-07-24T08:06:04Z</time>
      </trkpt>
      <trkpt lat="42.42666" lon="0.07876">
        <ele>598.7</ele>
        <time>2016-07-24T08:06:05Z</time>
      </trkpt>
      <trkpt lat="42.42664" lon="0.07873">
        <ele>598.8</ele>
        <time>2016-07-24T08:06:06Z</time>
      </trkpt>
      <trkpt lat="42.42662" lon="0.07871">
        <ele>598.9</ele>
        <time>2016-07-24T08:06:07Z</time>
      </trkpt>
      <trkpt lat="42.4266" lon="0.07869">
        <ele>599.1</ele>
        <time>2016-07-24T08:06:08Z</time>
      </trkpt>
      <trkpt lat="42.42655" lon="0.07865">
        <ele>599.5</ele>
        <time>2016-07-24T08:06:10Z</time>
      </trkpt>
      <trkpt lat="42.42651" lon="0.07862">
        <ele>599.7</ele>
        <time>2016-07-24T08:06:12Z</time>
      </trkpt>
      <trkpt lat="42.42647" lon="0.07859">
        <ele>599.9</ele>
        <time>2016-07-24T08:06:14Z</time>
      </trkpt>
      <trkpt lat="42.42645" lon="0.07854">
        <ele>599.8</ele>
        <time>2016-07-24T08:06:16Z</time>
      </trkpt>
      <trkpt lat="42.42641" lon="0.07849">
        <ele>599.7</ele>
        <time>2016-07-24T08:06:18Z</time>
      </trkpt>
      <trkpt lat="42.42638" lon="0.07843">
        <ele>599.6</ele>
        <time>2016-07-24T08:06:20Z</time>
      </trkpt>
      <trkpt lat="42.42635" lon="0.07841">
        <ele>599.5</ele>
        <time>2016-07-24T08:06:21Z</time>
      </trkpt>
      <trkpt lat="42.42633" lon="0.07839">
        <ele>599.5</ele>
        <time>2016-07-24T08:06:22Z</time>
      </trkpt>
      <trkpt lat="42.42631" lon="0.07836">
        <ele>599.4</ele>
        <time>2016-07-24T08:06:23Z</time>
      </trkpt>
      <trkpt lat="42.42629" lon="0.07834">
        <ele>599.3</ele>
        <time>2016-07-24T08:06:24Z</time>
      </trkpt>
      <trkpt lat="42.42625" lon="0.07831">
        <ele>599.2</ele>
        <time>2016-07-24T08:06:26Z</time>
      </trkpt>
      <trkpt lat="42.42621" lon="0.07828">
        <ele>600.1</ele>
        <time>2016-07-24T08:06:28Z</time>
      </trkpt>
      <trkpt lat="42.42618" lon="0.07825">
        <ele>600.8</ele>
        <time>2016-07-24T08:06:30Z</time>
      </trkpt>
      <trkpt lat="42.42615" lon="0.07823">
        <ele>601.5</ele>
        <time>2016-07-24T08:06:32Z</time>
      </trkpt>
      <trkpt lat="42.42611" lon="0.0782">
        <ele>602.2</ele>
        <time>2016-07-24T08:06:34Z</time>
      </trkpt>
      <trkpt lat="42.42608" lon="0.07818">
        <ele>602.9</ele>
        <time>2016-07-24T08:06:36Z</time>
      </trkpt>
      <trkpt lat="42.42606" lon="0.07815">
        <ele>603.4</ele>
        <time>2016-07-24T08:06:38Z</time>
      </trkpt>
      <trkpt lat="42.42604" lon="0.07811">
        <ele>603.4</ele>
        <time>2016-07-24T08:06:40Z</time>
      </trkpt>
      <trkpt lat="42.42602" lon="0.07808">
        <ele>603.6</ele>
        <time>2016-07-24T08:06:43Z</time>
      </trkpt>
      <trkpt lat="42.42601" lon="0.07811">
        <ele>604.4</ele>
        <time>2016-07-24T08:06:46Z</time>
      </trkpt>
      <trkpt lat="42.42605" lon="0.07816">
        <ele>603.6</ele>
        <time>2016-07-24T08:06:48Z</time>
      </trkpt>
      <trkpt lat="42.42608" lon="0.07818">
        <ele>603</ele>
        <time>2016-07-24T08:06:49Z</time>
      </trkpt>
      <trkpt lat="42.42611" lon="0.07821">
        <ele>602.3</ele>
        <time>2016-07-24T08:06:50Z</time>
      </trkpt>
      <trkpt lat="42.42615" lon="0.07824">
        <ele>601.6</ele>
        <time>2016-07-24T08:06:51Z</time>
      </trkpt>
      <trkpt lat="42.42618" lon="0.07826">
        <ele>600.8</ele>
        <time>2016-07-24T08:06:52Z</time>
      </trkpt>
      <trkpt lat="42.42622" lon="0.07829">
        <ele>600</ele>
        <time>2016-07-24T08:06:53Z</time>
      </trkpt>
      <trkpt lat="42.42625" lon="0.07832">
        <ele>599.4</ele>
        <time>2016-07-24T08:06:54Z</time>
      </trkpt>
      <trkpt lat="42.42628" lon="0.07835">
        <ele>599.4</ele>
        <time>2016-07-24T08:06:55Z</time>
      </trkpt>
      <trkpt lat="42.42631" lon="0.07838">
        <ele>599.5</ele>
        <time>2016-07-24T08:06:57Z</time>
      </trkpt>
      <trkpt lat="42.42632" lon="0.07841">
        <ele>599.8</ele>
        <time>2016-07-24T08:06:59Z</time>
      </trkpt>
      <trkpt lat="42.4263" lon="0.07843">
        <ele>600.2</ele>
        <time>2016-07-24T08:07:03Z</time>
      </trkpt>
      <trkpt lat="42.42627" lon="0.07842">
        <ele>600.2</ele>
        <time>2016-07-24T08:07:05Z</time>
      </trkpt>
      <trkpt lat="42.42623" lon="0.07839">
        <ele>600.8</ele>
        <time>2016-07-24T08:07:07Z</time>
      </trkpt>
      <trkpt lat="42.42618" lon="0.07837">
        <ele>602</ele>
        <time>2016-07-24T08:07:09Z</time>
      </trkpt>
      <trkpt lat="42.42613" lon="0.07834">
        <ele>603.3</ele>
        <time>2016-07-24T08:07:11Z</time>
      </trkpt>
      <trkpt lat="42.4261" lon="0.07833">
        <ele>604</ele>
        <time>2016-07-24T08:07:12Z</time>
      </trkpt>
      <trkpt lat="42.42608" lon="0.07831">
        <ele>604.6</ele>
        <time>2016-07-24T08:07:13Z</time>
      </trkpt>
      <trkpt lat="42.42605" lon="0.0783">
        <ele>605.2</ele>
        <time>2016-07-24T08:07:14Z</time>
      </trkpt>
      <trkpt lat="42.42603" lon="0.07828">
        <ele>605.8</ele>
        <time>2016-07-24T08:07:15Z</time>
      </trkpt>
      <trkpt lat="42.426" lon="0.07826">
        <ele>606.5</ele>
        <time>2016-07-24T08:07:16Z</time>
      </trkpt>
      <trkpt lat="42.42597" lon="0.07825">
        <ele>607.3</ele>
        <time>2016-07-24T08:07:17Z</time>
      </trkpt>
      <trkpt lat="42.42593" lon="0.07823">
        <ele>608</ele>
        <time>2016-07-24T08:07:18Z</time>
      </trkpt>
      <trkpt lat="42.4259" lon="0.07821">
        <ele>608.8</ele>
        <time>2016-07-24T08:07:19Z</time>
      </trkpt>
      <trkpt lat="42.42587" lon="0.07818">
        <ele>609.5</ele>
        <time>2016-07-24T08:07:20Z</time>
      </trkpt>
      <trkpt lat="42.42584" lon="0.07816">
        <ele>610.1</ele>
        <time>2016-07-24T08:07:21Z</time>
      </trkpt>
      <trkpt lat="42.42581" lon="0.07813">
        <ele>610.7</ele>
        <time>2016-07-24T08:07:22Z</time>
      </trkpt>
      <trkpt lat="42.42578" lon="0.07811">
        <ele>611.2</ele>
        <time>2016-07-24T08:07:23Z</time>
      </trkpt>
      <trkpt lat="42.42575" lon="0.07808">
        <ele>611.5</ele>
        <time>2016-07-24T08:07:24Z</time>
      </trkpt>
      <trkpt lat="42.42573" lon="0.07805">
        <ele>611.9</ele>
        <time>2016-07-24T08:07:25Z</time>
      </trkpt>
      <trkpt lat="42.4257" lon="0.07802">
        <ele>612.3</ele>
        <time>2016-07-24T08:07:26Z</time>
      </trkpt>
      <trkpt lat="42.42567" lon="0.07799">
        <ele>612.6</ele>
        <time>2016-07-24T08:07:27Z</time>
      </trkpt>
      <trkpt lat="42.42565" lon="0.07796">
        <ele>613</ele>
        <time>2016-07-24T08:07:28Z</time>
      </trkpt>
      <trkpt lat="42.42562" lon="0.07793">
        <ele>613.2</ele>
        <time>2016-07-24T08:07:29Z</time>
      </trkpt>
      <trkpt lat="42.4256" lon="0.07789">
        <ele>613.5</ele>
        <time>2016-07-24T08:07:30Z</time>
      </trkpt>
      <trkpt lat="42.42558" lon="0.07786">
        <ele>613.7</ele>
        <time>2016-07-24T08:07:31Z</time>
      </trkpt>
      <trkpt lat="42.42556" lon="0.07783">
        <ele>613.9</ele>
        <time>2016-07-24T08:07:32Z</time>
      </trkpt>
      <trkpt lat="42.42554" lon="0.07779">
        <ele>614</ele>
        <time>2016-07-24T08:07:33Z</time>
      </trkpt>
      <trkpt lat="42.42552" lon="0.07776">
        <ele>614.2</ele>
        <time>2016-07-24T08:07:34Z</time>
      </trkpt>
      <trkpt lat="42.4255" lon="0.07774">
        <ele>614.3</ele>
        <time>2016-07-24T08:07:35Z</time>
      </trkpt>
      <trkpt lat="42.42548" lon="0.07771">
        <ele>614.5</ele>
        <time>2016-07-24T08:07:36Z</time>
      </trkpt>
      <trkpt lat="42.42546" lon="0.07768">
        <ele>614.5</ele>
        <time>2016-07-24T08:07:37Z</time>
      </trkpt>
      <trkpt lat="42.42544" lon="0.07765">
        <ele>614.6</ele>
        <time>2016-07-24T08:07:38Z</time>
      </trkpt>
      <trkpt lat="42.42542" lon="0.07762">
        <ele>614.5</ele>
        <time>2016-07-24T08:07:39Z</time>
      </trkpt>
      <trkpt lat="42.42541" lon="0.07759">
        <ele>614.3</ele>
        <time>2016-07-24T08:07:40Z</time>
      </trkpt>
      <trkpt lat="42.4254" lon="0.07755">
        <ele>614</ele>
        <time>2016-07-24T08:07:41Z</time>
      </trkpt>
      <trkpt lat="42.42538" lon="0.0775">
        <ele>613.3</ele>
        <time>2016-07-24T08:07:43Z</time>
      </trkpt>
      <trkpt lat="42.42537" lon="0.07746">
        <ele>612.8</ele>
        <time>2016-07-24T08:07:45Z</time>
      </trkpt>
      <trkpt lat="42.42536" lon="0.07741">
        <ele>612.3</ele>
        <time>2016-07-24T08:07:47Z</time>
      </trkpt>
      <trkpt lat="42.42534" lon="0.07737">
        <ele>611.6</ele>
        <time>2016-07-24T08:07:49Z</time>
      </trkpt>
      <trkpt lat="42.42532" lon="0.07731">
        <ele>611</ele>
        <time>2016-07-24T08:07:51Z</time>
      </trkpt>
      <trkpt lat="42.4253" lon="0.07726">
        <ele>610.3</ele>
        <time>2016-07-24T08:07:53Z</time>
      </trkpt>
      <trkpt lat="42.42528" lon="0.07721">
        <ele>609.7</ele>
        <time>2016-07-24T08:07:55Z</time>
      </trkpt>
      <trkpt lat="42.42526" lon="0.07717">
        <ele>609.2</ele>
        <time>2016-07-24T08:07:57Z</time>
      </trkpt>
      <trkpt lat="42.42524" lon="0.07712">
        <ele>608.7</ele>
        <time>2016-07-24T08:07:59Z</time>
      </trkpt>
      <trkpt lat="42.42522" lon="0.07708">
        <ele>608.2</ele>
        <time>2016-07-24T08:08:01Z</time>
      </trkpt>
      <trkpt lat="42.42521" lon="0.07702">
        <ele>608.5</ele>
        <time>2016-07-24T08:08:03Z</time>
      </trkpt>
      <trkpt lat="42.42521" lon="0.07697">
        <ele>608.7</ele>
        <time>2016-07-24T08:08:05Z</time>
      </trkpt>
      <trkpt lat="42.42523" lon="0.07692">
        <ele>608.8</ele>
        <time>2016-07-24T08:08:07Z</time>
      </trkpt>
      <trkpt lat="42.42524" lon="0.07689">
        <ele>608.8</ele>
        <time>2016-07-24T08:08:09Z</time>
      </trkpt>
      <trkpt lat="42.42526" lon="0.07685">
        <ele>608.7</ele>
        <time>2016-07-24T08:08:11Z</time>
      </trkpt>
      <trkpt lat="42.4253" lon="0.07682">
        <ele>608.6</ele>
        <time>2016-07-24T08:08:13Z</time>
      </trkpt>
      <trkpt lat="42.42533" lon="0.07679">
        <ele>608.4</ele>
        <time>2016-07-24T08:08:15Z</time>
      </trkpt>
      <trkpt lat="42.42536" lon="0.07674">
        <ele>608.3</ele>
        <time>2016-07-24T08:08:17Z</time>
      </trkpt>
      <trkpt lat="42.42536" lon="0.07671">
        <ele>608.4</ele>
        <time>2016-07-24T08:08:19Z</time>
      </trkpt>
      <trkpt lat="42.42536" lon="0.07666">
        <ele>608.6</ele>
        <time>2016-07-24T08:08:21Z</time>
      </trkpt>
      <trkpt lat="42.42534" lon="0.07662">
        <ele>608.8</ele>
        <time>2016-07-24T08:08:23Z</time>
      </trkpt>
      <trkpt lat="42.42532" lon="0.07658">
        <ele>609.1</ele>
        <time>2016-07-24T08:08:25Z</time>
      </trkpt>
      <trkpt lat="42.4253" lon="0.07653">
        <ele>609.5</ele>
        <time>2016-07-24T08:08:27Z</time>
      </trkpt>
      <trkpt lat="42.4253" lon="0.07647">
        <ele>609.7</ele>
        <time>2016-07-24T08:08:29Z</time>
      </trkpt>
      <trkpt lat="42.4253" lon="0.07641">
        <ele>609.9</ele>
        <time>2016-07-24T08:08:31Z</time>
      </trkpt>
      <trkpt lat="42.42528" lon="0.07635">
        <ele>610.3</ele>
        <time>2016-07-24T08:08:33Z</time>
      </trkpt>
      <trkpt lat="42.42526" lon="0.07632">
        <ele>610.6</ele>
        <time>2016-07-24T08:08:34Z</time>
      </trkpt>
      <trkpt lat="42.42524" lon="0.07629">
        <ele>611</ele>
        <time>2016-07-24T08:08:35Z</time>
      </trkpt>
      <trkpt lat="42.42522" lon="0.07626">
        <ele>611.3</ele>
        <time>2016-07-24T08:08:36Z</time>
      </trkpt>
      <trkpt lat="42.42518" lon="0.07623">
        <ele>612.5</ele>
        <time>2016-07-24T08:08:38Z</time>
      </trkpt>
      <trkpt lat="42.42515" lon="0.07619">
        <ele>613.8</ele>
        <time>2016-07-24T08:08:40Z</time>
      </trkpt>
      <trkpt lat="42.42513" lon="0.07617">
        <ele>614.6</ele>
        <time>2016-07-24T08:08:42Z</time>
      </trkpt>
      <trkpt lat="42.42509" lon="0.07619">
        <ele>614.6</ele>
        <time>2016-07-24T08:08:45Z</time>
      </trkpt>
      <trkpt lat="42.42505" lon="0.07622">
        <ele>614.1</ele>
        <time>2016-07-24T08:08:47Z</time>
      </trkpt>
      <trkpt lat="42.42501" lon="0.07624">
        <ele>614.2</ele>
        <time>2016-07-24T08:08:49Z</time>
      </trkpt>
      <trkpt lat="42.42496" lon="0.07625">
        <ele>614.6</ele>
        <time>2016-07-24T08:08:51Z</time>
      </trkpt>
      <trkpt lat="42.42491" lon="0.07626">
        <ele>615</ele>
        <time>2016-07-24T08:08:53Z</time>
      </trkpt>
      <trkpt lat="42.42488" lon="0.07627">
        <ele>615.4</ele>
        <time>2016-07-24T08:08:54Z</time>
      </trkpt>
      <trkpt lat="42.42484" lon="0.07628">
        <ele>615.7</ele>
        <time>2016-07-24T08:08:55Z</time>
      </trkpt>
      <trkpt lat="42.42481" lon="0.07629">
        <ele>616</ele>
        <time>2016-07-24T08:08:56Z</time>
      </trkpt>
      <trkpt lat="42.42476" lon="0.0763">
        <ele>616.5</ele>
        <time>2016-07-24T08:08:58Z</time>
      </trkpt>
      <trkpt lat="42.42472" lon="0.07628">
        <ele>617.2</ele>
        <time>2016-07-24T08:09:00Z</time>
      </trkpt>
      <trkpt lat="42.42469" lon="0.07625">
        <ele>617.7</ele>
        <time>2016-07-24T08:09:01Z</time>
      </trkpt>
      <trkpt lat="42.42467" lon="0.07623">
        <ele>618.4</ele>
        <time>2016-07-24T08:09:02Z</time>
      </trkpt>
      <trkpt lat="42.42464" lon="0.07621">
        <ele>619.2</ele>
        <time>2016-07-24T08:09:03Z</time>
      </trkpt>
      <trkpt lat="42.4246" lon="0.07617">
        <ele>620.5</ele>
        <time>2016-07-24T08:09:05Z</time>
      </trkpt>
      <trkpt lat="42.42458" lon="0.07613">
        <ele>621.6</ele>
        <time>2016-07-24T08:09:07Z</time>
      </trkpt>
      <trkpt lat="42.42455" lon="0.07609">
        <ele>622.5</ele>
        <time>2016-07-24T08:09:09Z</time>
      </trkpt>
      <trkpt lat="42.42452" lon="0.07604">
        <ele>623.7</ele>
        <time>2016-07-24T08:09:11Z</time>
      </trkpt>
      <trkpt lat="42.42448" lon="0.076">
        <ele>624.6</ele>
        <time>2016-07-24T08:09:13Z</time>
      </trkpt>
      <trkpt lat="42.42445" lon="0.07598">
        <ele>624.9</ele>
        <time>2016-07-24T08:09:15Z</time>
      </trkpt>
      <trkpt lat="42.42441" lon="0.076">
        <ele>624.6</ele>
        <time>2016-07-24T08:09:17Z</time>
      </trkpt>
      <trkpt lat="42.42437" lon="0.07601">
        <ele>624.4</ele>
        <time>2016-07-24T08:09:19Z</time>
      </trkpt>
      <trkpt lat="42.42433" lon="0.07603">
        <ele>624</ele>
        <time>2016-07-24T08:09:21Z</time>
      </trkpt>
      <trkpt lat="42.4243" lon="0.07606">
        <ele>623.4</ele>
        <time>2016-07-24T08:09:23Z</time>
      </trkpt>
      <trkpt lat="42.42426" lon="0.07608">
        <ele>623</ele>
        <time>2016-07-24T08:09:25Z</time>
      </trkpt>
      <trkpt lat="42.42423" lon="0.07609">
        <ele>622.7</ele>
        <time>2016-07-24T08:09:27Z</time>
      </trkpt>
      <trkpt lat="42.4242" lon="0.0761">
        <ele>622.4</ele>
        <time>2016-07-24T08:09:29Z</time>
      </trkpt>
      <trkpt lat="42.42417" lon="0.07612">
        <ele>622.1</ele>
        <time>2016-07-24T08:09:31Z</time>
      </trkpt>
      <trkpt lat="42.42414" lon="0.07613">
        <ele>621.9</ele>
        <time>2016-07-24T08:09:33Z</time>
      </trkpt>
      <trkpt lat="42.42411" lon="0.07612">
        <ele>622.1</ele>
        <time>2016-07-24T08:09:35Z</time>
      </trkpt>
      <trkpt lat="42.42407" lon="0.07612">
        <ele>622.1</ele>
        <time>2016-07-24T08:09:37Z</time>
      </trkpt>
      <trkpt lat="42.42404" lon="0.07613">
        <ele>621.9</ele>
        <time>2016-07-24T08:09:39Z</time>
      </trkpt>
      <trkpt lat="42.42401" lon="0.07612">
        <ele>622</ele>
        <time>2016-07-24T08:09:41Z</time>
      </trkpt>
      <trkpt lat="42.42398" lon="0.07611">
        <ele>622.3</ele>
        <time>2016-07-24T08:09:43Z</time>
      </trkpt>
      <trkpt lat="42.42395" lon="0.0761">
        <ele>622.6</ele>
        <time>2016-07-24T08:09:45Z</time>
      </trkpt>
      <trkpt lat="42.42392" lon="0.07609">
        <ele>622.8</ele>
        <time>2016-07-24T08:09:47Z</time>
      </trkpt>
      <trkpt lat="42.42389" lon="0.07609">
        <ele>623</ele>
        <time>2016-07-24T08:09:50Z</time>
      </trkpt>
      <trkpt lat="42.42385" lon="0.07607">
        <ele>623.5</ele>
        <time>2016-07-24T08:09:53Z</time>
      </trkpt>
      <trkpt lat="42.42383" lon="0.07604">
        <ele>624.1</ele>
        <time>2016-07-24T08:09:55Z</time>
      </trkpt>
      <trkpt lat="42.42381" lon="0.076">
        <ele>625.2</ele>
        <time>2016-07-24T08:09:58Z</time>
      </trkpt>
      <trkpt lat="42.42379" lon="0.07596">
        <ele>626.4</ele>
        <time>2016-07-24T08:10:01Z</time>
      </trkpt>
      <trkpt lat="42.42377" lon="0.07591">
        <ele>627.5</ele>
        <time>2016-07-24T08:10:04Z</time>
      </trkpt>
      <trkpt lat="42.42375" lon="0.07587">
        <ele>628.5</ele>
        <time>2016-07-24T08:10:07Z</time>
      </trkpt>
      <trkpt lat="42.42372" lon="0.07583">
        <ele>629.4</ele>
        <time>2016-07-24T08:10:10Z</time>
      </trkpt>
      <trkpt lat="42.4237" lon="0.07581">
        <ele>629.8</ele>
        <time>2016-07-24T08:10:12Z</time>
      </trkpt>
      <trkpt lat="42.42368" lon="0.07579">
        <ele>630.2</ele>
        <time>2016-07-24T08:10:14Z</time>
      </trkpt>
      <trkpt lat="42.42365" lon="0.07577">
        <ele>630.5</ele>
        <time>2016-07-24T08:10:16Z</time>
      </trkpt>
      <trkpt lat="42.42363" lon="0.07575">
        <ele>630.8</ele>
        <time>2016-07-24T08:10:18Z</time>
      </trkpt>
      <trkpt lat="42.4236" lon="0.07572">
        <ele>631.3</ele>
        <time>2016-07-24T08:10:21Z</time>
      </trkpt>
      <trkpt lat="42.42357" lon="0.07568">
        <ele>631.9</ele>
        <time>2016-07-24T08:10:24Z</time>
      </trkpt>
      <trkpt lat="42.42355" lon="0.07563">
        <ele>632.9</ele>
        <time>2016-07-24T08:10:27Z</time>
      </trkpt>
      <trkpt lat="42.42352" lon="0.07561">
        <ele>633.1</ele>
        <time>2016-07-24T08:10:30Z</time>
      </trkpt>
      <trkpt lat="42.42348" lon="0.07561">
        <ele>632.8</ele>
        <time>2016-07-24T08:10:33Z</time>
      </trkpt>
      <trkpt lat="42.42345" lon="0.07559">
        <ele>632.9</ele>
        <time>2016-07-24T08:10:35Z</time>
      </trkpt>
      <trkpt lat="42.42342" lon="0.07555">
        <ele>633.5</ele>
        <time>2016-07-24T08:10:38Z</time>
      </trkpt>
      <trkpt lat="42.42341" lon="0.07553">
        <ele>634</ele>
        <time>2016-07-24T08:10:40Z</time>
      </trkpt>
      <trkpt lat="42.42338" lon="0.07548">
        <ele>634.6</ele>
        <time>2016-07-24T08:10:43Z</time>
      </trkpt>
      <trkpt lat="42.42336" lon="0.07544">
        <ele>635.2</ele>
        <time>2016-07-24T08:10:46Z</time>
      </trkpt>
      <trkpt lat="42.42333" lon="0.07541">
        <ele>635.6</ele>
        <time>2016-07-24T08:10:49Z</time>
      </trkpt>
      <trkpt lat="42.4233" lon="0.07537">
        <ele>635.8</ele>
        <time>2016-07-24T08:10:52Z</time>
      </trkpt>
      <trkpt lat="42.42328" lon="0.07534">
        <ele>636.1</ele>
        <time>2016-07-24T08:10:54Z</time>
      </trkpt>
      <trkpt lat="42.42326" lon="0.07531">
        <ele>636.4</ele>
        <time>2016-07-24T08:10:56Z</time>
      </trkpt>
      <trkpt lat="42.42324" lon="0.07529">
        <ele>636.6</ele>
        <time>2016-07-24T08:10:58Z</time>
      </trkpt>
      <trkpt lat="42.42321" lon="0.07526">
        <ele>636.8</ele>
        <time>2016-07-24T08:11:00Z</time>
      </trkpt>
      <trkpt lat="42.42319" lon="0.07523">
        <ele>637</ele>
        <time>2016-07-24T08:11:02Z</time>
      </trkpt>
      <trkpt lat="42.42316" lon="0.07521">
        <ele>637.2</ele>
        <time>2016-07-24T08:11:04Z</time>
      </trkpt>
      <trkpt lat="42.42315" lon="0.07517">
        <ele>637.9</ele>
        <time>2016-07-24T08:11:07Z</time>
      </trkpt>
      <trkpt lat="42.42313" lon="0.07512">
        <ele>638.6</ele>
        <time>2016-07-24T08:11:10Z</time>
      </trkpt>
      <trkpt lat="42.4231" lon="0.07509">
        <ele>638.9</ele>
        <time>2016-07-24T08:11:12Z</time>
      </trkpt>
      <trkpt lat="42.42308" lon="0.07507">
        <ele>639.1</ele>
        <time>2016-07-24T08:11:14Z</time>
      </trkpt>
      <trkpt lat="42.42306" lon="0.07505">
        <ele>639.4</ele>
        <time>2016-07-24T08:11:16Z</time>
      </trkpt>
      <trkpt lat="42.42304" lon="0.07503">
        <ele>639.6</ele>
        <time>2016-07-24T08:11:18Z</time>
      </trkpt>
      <trkpt lat="42.42301" lon="0.07501">
        <ele>639.9</ele>
        <time>2016-07-24T08:11:20Z</time>
      </trkpt>
      <trkpt lat="42.42299" lon="0.07499">
        <ele>640.1</ele>
        <time>2016-07-24T08:11:22Z</time>
      </trkpt>
      <trkpt lat="42.42297" lon="0.07497">
        <ele>640.5</ele>
        <time>2016-07-24T08:11:24Z</time>
      </trkpt>
      <trkpt lat="42.42294" lon="0.07493">
        <ele>641.1</ele>
        <time>2016-07-24T08:11:27Z</time>
      </trkpt>
      <trkpt lat="42.42292" lon="0.07489">
        <ele>641.7</ele>
        <time>2016-07-24T08:11:30Z</time>
      </trkpt>
      <trkpt lat="42.42288" lon="0.07487">
        <ele>642.2</ele>
        <time>2016-07-24T08:11:33Z</time>
      </trkpt>
      <trkpt lat="42.42286" lon="0.07485">
        <ele>642.6</ele>
        <time>2016-07-24T08:11:35Z</time>
      </trkpt>
      <trkpt lat="42.42283" lon="0.07483">
        <ele>642.9</ele>
        <time>2016-07-24T08:11:37Z</time>
      </trkpt>
      <trkpt lat="42.4228" lon="0.07481">
        <ele>643.2</ele>
        <time>2016-07-24T08:11:39Z</time>
      </trkpt>
      <trkpt lat="42.42278" lon="0.07479">
        <ele>643.8</ele>
        <time>2016-07-24T08:11:41Z</time>
      </trkpt>
      <trkpt lat="42.42276" lon="0.07476">
        <ele>644.3</ele>
        <time>2016-07-24T08:11:43Z</time>
      </trkpt>
      <trkpt lat="42.42274" lon="0.07473">
        <ele>644.9</ele>
        <time>2016-07-24T08:11:45Z</time>
      </trkpt>
      <trkpt lat="42.42272" lon="0.0747">
        <ele>645.6</ele>
        <time>2016-07-24T08:11:47Z</time>
      </trkpt>
      <trkpt lat="42.4227" lon="0.07467">
        <ele>646.3</ele>
        <time>2016-07-24T08:11:49Z</time>
      </trkpt>
      <trkpt lat="42.42269" lon="0.07464">
        <ele>647</ele>
        <time>2016-07-24T08:11:51Z</time>
      </trkpt>
      <trkpt lat="42.42267" lon="0.07459">
        <ele>648.2</ele>
        <time>2016-07-24T08:11:54Z</time>
      </trkpt>
      <trkpt lat="42.42265" lon="0.07455">
        <ele>648.7</ele>
        <time>2016-07-24T08:11:57Z</time>
      </trkpt>
      <trkpt lat="42.42263" lon="0.07452">
        <ele>649.1</ele>
        <time>2016-07-24T08:11:59Z</time>
      </trkpt>
      <trkpt lat="42.42262" lon="0.07449">
        <ele>649.6</ele>
        <time>2016-07-24T08:12:01Z</time>
      </trkpt>
      <trkpt lat="42.4226" lon="0.07444">
        <ele>650.2</ele>
        <time>2016-07-24T08:12:04Z</time>
      </trkpt>
      <trkpt lat="42.42259" lon="0.0744">
        <ele>650.6</ele>
        <time>2016-07-24T08:12:06Z</time>
      </trkpt>
      <trkpt lat="42.42258" lon="0.07436">
        <ele>651</ele>
        <time>2016-07-24T08:12:08Z</time>
      </trkpt>
      <trkpt lat="42.42258" lon="0.07431">
        <ele>651.7</ele>
        <time>2016-07-24T08:12:11Z</time>
      </trkpt>
      <trkpt lat="42.42257" lon="0.07426">
        <ele>652.2</ele>
        <time>2016-07-24T08:12:14Z</time>
      </trkpt>
      <trkpt lat="42.42255" lon="0.07424">
        <ele>652.5</ele>
        <time>2016-07-24T08:12:16Z</time>
      </trkpt>
      <trkpt lat="42.42251" lon="0.07422">
        <ele>652.6</ele>
        <time>2016-07-24T08:12:19Z</time>
      </trkpt>
      <trkpt lat="42.42248" lon="0.0742">
        <ele>652.8</ele>
        <time>2016-07-24T08:12:21Z</time>
      </trkpt>
      <trkpt lat="42.42246" lon="0.07418">
        <ele>653</ele>
        <time>2016-07-24T08:12:23Z</time>
      </trkpt>
      <trkpt lat="42.42243" lon="0.07417">
        <ele>653.1</ele>
        <time>2016-07-24T08:12:25Z</time>
      </trkpt>
      <trkpt lat="42.4224" lon="0.07412">
        <ele>653.5</ele>
        <time>2016-07-24T08:12:28Z</time>
      </trkpt>
      <trkpt lat="42.42239" lon="0.07408">
        <ele>653.9</ele>
        <time>2016-07-24T08:12:30Z</time>
      </trkpt>
      <trkpt lat="42.4224" lon="0.07403">
        <ele>654.5</ele>
        <time>2016-07-24T08:12:33Z</time>
      </trkpt>
      <trkpt lat="42.42239" lon="0.07399">
        <ele>654.9</ele>
        <time>2016-07-24T08:12:35Z</time>
      </trkpt>
      <trkpt lat="42.42238" lon="0.07396">
        <ele>655.3</ele>
        <time>2016-07-24T08:12:37Z</time>
      </trkpt>
      <trkpt lat="42.42238" lon="0.07391">
        <ele>655.8</ele>
        <time>2016-07-24T08:12:40Z</time>
      </trkpt>
      <trkpt lat="42.42238" lon="0.07386">
        <ele>656.3</ele>
        <time>2016-07-24T08:12:43Z</time>
      </trkpt>
      <trkpt lat="42.42236" lon="0.07382">
        <ele>656.6</ele>
        <time>2016-07-24T08:12:45Z</time>
      </trkpt>
      <trkpt lat="42.42236" lon="0.07377">
        <ele>657.1</ele>
        <time>2016-07-24T08:12:48Z</time>
      </trkpt>
      <trkpt lat="42.42235" lon="0.07372">
        <ele>657.7</ele>
        <time>2016-07-24T08:12:51Z</time>
      </trkpt>
      <trkpt lat="42.42234" lon="0.07367">
        <ele>658.3</ele>
        <time>2016-07-24T08:12:54Z</time>
      </trkpt>
      <trkpt lat="42.42234" lon="0.07364">
        <ele>658.8</ele>
        <time>2016-07-24T08:12:56Z</time>
      </trkpt>
      <trkpt lat="42.42233" lon="0.0736">
        <ele>659.2</ele>
        <time>2016-07-24T08:12:58Z</time>
      </trkpt>
      <trkpt lat="42.42232" lon="0.07357">
        <ele>659.6</ele>
        <time>2016-07-24T08:13:00Z</time>
      </trkpt>
      <trkpt lat="42.42233" lon="0.07351">
        <ele>660.4</ele>
        <time>2016-07-24T08:13:03Z</time>
      </trkpt>
      <trkpt lat="42.42233" lon="0.07347">
        <ele>661</ele>
        <time>2016-07-24T08:13:05Z</time>
      </trkpt>
      <trkpt lat="42.42233" lon="0.07343">
        <ele>661.6</ele>
        <time>2016-07-24T08:13:07Z</time>
      </trkpt>
      <trkpt lat="42.42235" lon="0.07338">
        <ele>662.3</ele>
        <time>2016-07-24T08:13:09Z</time>
      </trkpt>
      <trkpt lat="42.42236" lon="0.07334">
        <ele>662.9</ele>
        <time>2016-07-24T08:13:11Z</time>
      </trkpt>
      <trkpt lat="42.42237" lon="0.07329">
        <ele>663.6</ele>
        <time>2016-07-24T08:13:13Z</time>
      </trkpt>
      <trkpt lat="42.42237" lon="0.07325">
        <ele>664.2</ele>
        <time>2016-07-24T08:13:15Z</time>
      </trkpt>
      <trkpt lat="42.42238" lon="0.07322">
        <ele>664.7</ele>
        <time>2016-07-24T08:13:17Z</time>
      </trkpt>
      <trkpt lat="42.4224" lon="0.07318">
        <ele>665.2</ele>
        <time>2016-07-24T08:13:19Z</time>
      </trkpt>
      <trkpt lat="42.4224" lon="0.07315">
        <ele>665.8</ele>
        <time>2016-07-24T08:13:21Z</time>
      </trkpt>
      <trkpt lat="42.42239" lon="0.07311">
        <ele>666.3</ele>
        <time>2016-07-24T08:13:23Z</time>
      </trkpt>
      <trkpt lat="42.42237" lon="0.07307">
        <ele>666.7</ele>
        <time>2016-07-24T08:13:25Z</time>
      </trkpt>
      <trkpt lat="42.42235" lon="0.07303">
        <ele>667</ele>
        <time>2016-07-24T08:13:27Z</time>
      </trkpt>
      <trkpt lat="42.42233" lon="0.073">
        <ele>667.4</ele>
        <time>2016-07-24T08:13:29Z</time>
      </trkpt>
      <trkpt lat="42.42231" lon="0.07296">
        <ele>667.7</ele>
        <time>2016-07-24T08:13:31Z</time>
      </trkpt>
      <trkpt lat="42.42229" lon="0.07293">
        <ele>668.1</ele>
        <time>2016-07-24T08:13:33Z</time>
      </trkpt>
      <trkpt lat="42.42226" lon="0.07289">
        <ele>668.6</ele>
        <time>2016-07-24T08:13:35Z</time>
      </trkpt>
      <trkpt lat="42.42224" lon="0.07285">
        <ele>669.1</ele>
        <time>2016-07-24T08:13:37Z</time>
      </trkpt>
      <trkpt lat="42.42222" lon="0.07282">
        <ele>669.6</ele>
        <time>2016-07-24T08:13:39Z</time>
      </trkpt>
      <trkpt lat="42.4222" lon="0.07278">
        <ele>670.1</ele>
        <time>2016-07-24T08:13:41Z</time>
      </trkpt>
      <trkpt lat="42.42217" lon="0.07274">
        <ele>670.6</ele>
        <time>2016-07-24T08:13:43Z</time>
      </trkpt>
      <trkpt lat="42.42215" lon="0.0727">
        <ele>671.2</ele>
        <time>2016-07-24T08:13:45Z</time>
      </trkpt>
      <trkpt lat="42.42213" lon="0.07264">
        <ele>672</ele>
        <time>2016-07-24T08:13:47Z</time>
      </trkpt>
      <trkpt lat="42.42211" lon="0.07259">
        <ele>672.7</ele>
        <time>2016-07-24T08:13:49Z</time>
      </trkpt>
      <trkpt lat="42.42209" lon="0.07254">
        <ele>673.5</ele>
        <time>2016-07-24T08:13:51Z</time>
      </trkpt>
      <trkpt lat="42.42208" lon="0.07249">
        <ele>674.1</ele>
        <time>2016-07-24T08:13:53Z</time>
      </trkpt>
      <trkpt lat="42.42206" lon="0.07244">
        <ele>674.6</ele>
        <time>2016-07-24T08:13:55Z</time>
      </trkpt>
      <trkpt lat="42.42204" lon="0.07239">
        <ele>675.1</ele>
        <time>2016-07-24T08:13:57Z</time>
      </trkpt>
      <trkpt lat="42.42202" lon="0.07235">
        <ele>675.4</ele>
        <time>2016-07-24T08:13:59Z</time>
      </trkpt>
      <trkpt lat="42.422" lon="0.0723">
        <ele>675.9</ele>
        <time>2016-07-24T08:14:01Z</time>
      </trkpt>
      <trkpt lat="42.42199" lon="0.07225">
        <ele>676.4</ele>
        <time>2016-07-24T08:14:03Z</time>
      </trkpt>
      <trkpt lat="42.42197" lon="0.07221">
        <ele>676.9</ele>
        <time>2016-07-24T08:14:05Z</time>
      </trkpt>
      <trkpt lat="42.42194" lon="0.07216">
        <ele>677.2</ele>
        <time>2016-07-24T08:14:07Z</time>
      </trkpt>
      <trkpt lat="42.4219" lon="0.07211">
        <ele>677.4</ele>
        <time>2016-07-24T08:14:09Z</time>
      </trkpt>
      <trkpt lat="42.42186" lon="0.07207">
        <ele>677.4</ele>
        <time>2016-07-24T08:14:11Z</time>
      </trkpt>
      <trkpt lat="42.42182" lon="0.07203">
        <ele>677.3</ele>
        <time>2016-07-24T08:14:13Z</time>
      </trkpt>
      <trkpt lat="42.42177" lon="0.07199">
        <ele>677.1</ele>
        <time>2016-07-24T08:14:15Z</time>
      </trkpt>
      <trkpt lat="42.42174" lon="0.07198">
        <ele>676.9</ele>
        <time>2016-07-24T08:14:16Z</time>
      </trkpt>
      <trkpt lat="42.42172" lon="0.07196">
        <ele>676.8</ele>
        <time>2016-07-24T08:14:17Z</time>
      </trkpt>
      <trkpt lat="42.42169" lon="0.07194">
        <ele>676.7</ele>
        <time>2016-07-24T08:14:18Z</time>
      </trkpt>
      <trkpt lat="42.42165" lon="0.0719">
        <ele>676.6</ele>
        <time>2016-07-24T08:14:20Z</time>
      </trkpt>
      <trkpt lat="42.42161" lon="0.07187">
        <ele>676.4</ele>
        <time>2016-07-24T08:14:22Z</time>
      </trkpt>
      <trkpt lat="42.42156" lon="0.07183">
        <ele>676.2</ele>
        <time>2016-07-24T08:14:24Z</time>
      </trkpt>
      <trkpt lat="42.42152" lon="0.07181">
        <ele>675.9</ele>
        <time>2016-07-24T08:14:26Z</time>
      </trkpt>
      <trkpt lat="42.42149" lon="0.07179">
        <ele>675.7</ele>
        <time>2016-07-24T08:14:27Z</time>
      </trkpt>
      <trkpt lat="42.42146" lon="0.07178">
        <ele>675.4</ele>
        <time>2016-07-24T08:14:28Z</time>
      </trkpt>
      <trkpt lat="42.42143" lon="0.07177">
        <ele>675.2</ele>
        <time>2016-07-24T08:14:29Z</time>
      </trkpt>
      <trkpt lat="42.4214" lon="0.07176">
        <ele>674.9</ele>
        <time>2016-07-24T08:14:30Z</time>
      </trkpt>
      <trkpt lat="42.42137" lon="0.07174">
        <ele>674.7</ele>
        <time>2016-07-24T08:14:31Z</time>
      </trkpt>
      <trkpt lat="42.42134" lon="0.07172">
        <ele>674.5</ele>
        <time>2016-07-24T08:14:32Z</time>
      </trkpt>
      <trkpt lat="42.42131" lon="0.07171">
        <ele>674.3</ele>
        <time>2016-07-24T08:14:33Z</time>
      </trkpt>
      <trkpt lat="42.42128" lon="0.07169">
        <ele>674.1</ele>
        <time>2016-07-24T08:14:34Z</time>
      </trkpt>
      <trkpt lat="42.42125" lon="0.07167">
        <ele>674</ele>
        <time>2016-07-24T08:14:35Z</time>
      </trkpt>
      <trkpt lat="42.42123" lon="0.07165">
        <ele>674.2</ele>
        <time>2016-07-24T08:14:36Z</time>
      </trkpt>
      <trkpt lat="42.4212" lon="0.07162">
        <ele>674.5</ele>
        <time>2016-07-24T08:14:37Z</time>
      </trkpt>
      <trkpt lat="42.42117" lon="0.07159">
        <ele>674.8</ele>
        <time>2016-07-24T08:14:38Z</time>
      </trkpt>
      <trkpt lat="42.42115" lon="0.07156">
        <ele>675.2</ele>
        <time>2016-07-24T08:14:39Z</time>
      </trkpt>
      <trkpt lat="42.42113" lon="0.07152">
        <ele>675.7</ele>
        <time>2016-07-24T08:14:40Z</time>
      </trkpt>
      <trkpt lat="42.42111" lon="0.07149">
        <ele>676.2</ele>
        <time>2016-07-24T08:14:41Z</time>
      </trkpt>
      <trkpt lat="42.4211" lon="0.07145">
        <ele>676.7</ele>
        <time>2016-07-24T08:14:42Z</time>
      </trkpt>
      <trkpt lat="42.42111" lon="0.07139">
        <ele>677.8</ele>
        <time>2016-07-24T08:14:44Z</time>
      </trkpt>
      <trkpt lat="42.42112" lon="0.07135">
        <ele>678.4</ele>
        <time>2016-07-24T08:14:45Z</time>
      </trkpt>
      <trkpt lat="42.42114" lon="0.07132">
        <ele>679.1</ele>
        <time>2016-07-24T08:14:46Z</time>
      </trkpt>
      <trkpt lat="42.42116" lon="0.07129">
        <ele>679.7</ele>
        <time>2016-07-24T08:14:47Z</time>
      </trkpt>
      <trkpt lat="42.42117" lon="0.07126">
        <ele>680.3</ele>
        <time>2016-07-24T08:14:48Z</time>
      </trkpt>
      <trkpt lat="42.42119" lon="0.07119">
        <ele>681.5</ele>
        <time>2016-07-24T08:14:50Z</time>
      </trkpt>
      <trkpt lat="42.42121" lon="0.07113">
        <ele>682.5</ele>
        <time>2016-07-24T08:14:52Z</time>
      </trkpt>
      <trkpt lat="42.42123" lon="0.07108">
        <ele>683.5</ele>
        <time>2016-07-24T08:14:54Z</time>
      </trkpt>
      <trkpt lat="42.42125" lon="0.07103">
        <ele>684.5</ele>
        <time>2016-07-24T08:14:56Z</time>
      </trkpt>
      <trkpt lat="42.42127" lon="0.07098">
        <ele>685.5</ele>
        <time>2016-07-24T08:14:58Z</time>
      </trkpt>
      <trkpt lat="42.42129" lon="0.07093">
        <ele>686.6</ele>
        <time>2016-07-24T08:15:00Z</time>
      </trkpt>
      <trkpt lat="42.4213" lon="0.07087">
        <ele>687.7</ele>
        <time>2016-07-24T08:15:02Z</time>
      </trkpt>
      <trkpt lat="42.42132" lon="0.07082">
        <ele>688.7</ele>
        <time>2016-07-24T08:15:04Z</time>
      </trkpt>
      <trkpt lat="42.42133" lon="0.07077">
        <ele>689.7</ele>
        <time>2016-07-24T08:15:06Z</time>
      </trkpt>
      <trkpt lat="42.42135" lon="0.07074">
        <ele>690.4</ele>
        <time>2016-07-24T08:15:08Z</time>
      </trkpt>
      <trkpt lat="42.42136" lon="0.0707">
        <ele>691.2</ele>
        <time>2016-07-24T08:15:10Z</time>
      </trkpt>
      <trkpt lat="42.42136" lon="0.07066">
        <ele>691.8</ele>
        <time>2016-07-24T08:15:12Z</time>
      </trkpt>
      <trkpt lat="42.42134" lon="0.07063">
        <ele>692</ele>
        <time>2016-07-24T08:15:14Z</time>
      </trkpt>
      <trkpt lat="42.4213" lon="0.0706">
        <ele>691.9</ele>
        <time>2016-07-24T08:15:16Z</time>
      </trkpt>
      <trkpt lat="42.42127" lon="0.07058">
        <ele>691.8</ele>
        <time>2016-07-24T08:15:18Z</time>
      </trkpt>
      <trkpt lat="42.42124" lon="0.07056">
        <ele>691.7</ele>
        <time>2016-07-24T08:15:20Z</time>
      </trkpt>
      <trkpt lat="42.42121" lon="0.07055">
        <ele>691.6</ele>
        <time>2016-07-24T08:15:22Z</time>
      </trkpt>
      <trkpt lat="42.42118" lon="0.07053">
        <ele>691.5</ele>
        <time>2016-07-24T08:15:24Z</time>
      </trkpt>
      <trkpt lat="42.42116" lon="0.07052">
        <ele>691.4</ele>
        <time>2016-07-24T08:15:26Z</time>
      </trkpt>
      <trkpt lat="42.42113" lon="0.07049">
        <ele>691.7</ele>
        <time>2016-07-24T08:15:28Z</time>
      </trkpt>
      <trkpt lat="42.42111" lon="0.07045">
        <ele>692</ele>
        <time>2016-07-24T08:15:30Z</time>
      </trkpt>
      <trkpt lat="42.42109" lon="0.07041">
        <ele>692.4</ele>
        <time>2016-07-24T08:15:32Z</time>
      </trkpt>
      <trkpt lat="42.42106" lon="0.07037">
        <ele>692.8</ele>
        <time>2016-07-24T08:15:34Z</time>
      </trkpt>
      <trkpt lat="42.42104" lon="0.07034">
        <ele>693.1</ele>
        <time>2016-07-24T08:15:36Z</time>
      </trkpt>
      <trkpt lat="42.42102" lon="0.0703">
        <ele>693.6</ele>
        <time>2016-07-24T08:15:38Z</time>
      </trkpt>
      <trkpt lat="42.421" lon="0.07026">
        <ele>694</ele>
        <time>2016-07-24T08:15:40Z</time>
      </trkpt>
      <trkpt lat="42.42097" lon="0.07022">
        <ele>694.6</ele>
        <time>2016-07-24T08:15:42Z</time>
      </trkpt>
      <trkpt lat="42.42096" lon="0.07018">
        <ele>695.1</ele>
        <time>2016-07-24T08:15:44Z</time>
      </trkpt>
      <trkpt lat="42.42093" lon="0.07013">
        <ele>695.7</ele>
        <time>2016-07-24T08:15:46Z</time>
      </trkpt>
      <trkpt lat="42.42091" lon="0.07008">
        <ele>696.3</ele>
        <time>2016-07-24T08:15:48Z</time>
      </trkpt>
      <trkpt lat="42.42089" lon="0.07004">
        <ele>696.9</ele>
        <time>2016-07-24T08:15:50Z</time>
      </trkpt>
      <trkpt lat="42.42087" lon="0.06999">
        <ele>697.4</ele>
        <time>2016-07-24T08:15:52Z</time>
      </trkpt>
      <trkpt lat="42.42085" lon="0.06995">
        <ele>697.9</ele>
        <time>2016-07-24T08:15:54Z</time>
      </trkpt>
      <trkpt lat="42.42083" lon="0.0699">
        <ele>698.4</ele>
        <time>2016-07-24T08:15:56Z</time>
      </trkpt>
      <trkpt lat="42.4208" lon="0.06985">
        <ele>698.9</ele>
        <time>2016-07-24T08:15:58Z</time>
      </trkpt>
      <trkpt lat="42.42077" lon="0.06981">
        <ele>699.3</ele>
        <time>2016-07-24T08:16:00Z</time>
      </trkpt>
      <trkpt lat="42.42075" lon="0.06977">
        <ele>699.6</ele>
        <time>2016-07-24T08:16:02Z</time>
      </trkpt>
      <trkpt lat="42.42072" lon="0.06973">
        <ele>699.9</ele>
        <time>2016-07-24T08:16:04Z</time>
      </trkpt>
      <trkpt lat="42.42068" lon="0.06969">
        <ele>700.1</ele>
        <time>2016-07-24T08:16:06Z</time>
      </trkpt>
      <trkpt lat="42.42065" lon="0.06965">
        <ele>700.2</ele>
        <time>2016-07-24T08:16:08Z</time>
      </trkpt>
      <trkpt lat="42.42061" lon="0.06961">
        <ele>700.4</ele>
        <time>2016-07-24T08:16:10Z</time>
      </trkpt>
      <trkpt lat="42.42058" lon="0.06956">
        <ele>700.9</ele>
        <time>2016-07-24T08:16:12Z</time>
      </trkpt>
      <trkpt lat="42.42056" lon="0.06951">
        <ele>701.8</ele>
        <time>2016-07-24T08:16:14Z</time>
      </trkpt>
      <trkpt lat="42.42055" lon="0.06946">
        <ele>702.9</ele>
        <time>2016-07-24T08:16:16Z</time>
      </trkpt>
      <trkpt lat="42.42052" lon="0.06942">
        <ele>703.6</ele>
        <time>2016-07-24T08:16:18Z</time>
      </trkpt>
      <trkpt lat="42.42049" lon="0.06938">
        <ele>704.2</ele>
        <time>2016-07-24T08:16:20Z</time>
      </trkpt>
      <trkpt lat="42.42044" lon="0.06933">
        <ele>704.6</ele>
        <time>2016-07-24T08:16:22Z</time>
      </trkpt>
      <trkpt lat="42.42042" lon="0.06931">
        <ele>704.8</ele>
        <time>2016-07-24T08:16:23Z</time>
      </trkpt>
      <trkpt lat="42.4204" lon="0.06929">
        <ele>705.2</ele>
        <time>2016-07-24T08:16:24Z</time>
      </trkpt>
      <trkpt lat="42.42037" lon="0.06927">
        <ele>705.6</ele>
        <time>2016-07-24T08:16:25Z</time>
      </trkpt>
      <trkpt lat="42.42034" lon="0.06924">
        <ele>705.9</ele>
        <time>2016-07-24T08:16:26Z</time>
      </trkpt>
      <trkpt lat="42.42032" lon="0.06923">
        <ele>706.1</ele>
        <time>2016-07-24T08:16:27Z</time>
      </trkpt>
      <trkpt lat="42.42027" lon="0.06921">
        <ele>706</ele>
        <time>2016-07-24T08:16:29Z</time>
      </trkpt>
      <trkpt lat="42.42022" lon="0.06919">
        <ele>706</ele>
        <time>2016-07-24T08:16:31Z</time>
      </trkpt>
      <trkpt lat="42.42018" lon="0.06917">
        <ele>706.2</ele>
        <time>2016-07-24T08:16:33Z</time>
      </trkpt>
      <trkpt lat="42.42014" lon="0.06914">
        <ele>706.3</ele>
        <time>2016-07-24T08:16:35Z</time>
      </trkpt>
      <trkpt lat="42.42009" lon="0.06911">
        <ele>706.5</ele>
        <time>2016-07-24T08:16:37Z</time>
      </trkpt>
      <trkpt lat="42.42005" lon="0.06908">
        <ele>706.8</ele>
        <time>2016-07-24T08:16:39Z</time>
      </trkpt>
      <trkpt lat="42.42002" lon="0.06904">
        <ele>707.3</ele>
        <time>2016-07-24T08:16:41Z</time>
      </trkpt>
      <trkpt lat="42.41999" lon="0.06901">
        <ele>707.7</ele>
        <time>2016-07-24T08:16:43Z</time>
      </trkpt>
      <trkpt lat="42.41996" lon="0.06898">
        <ele>707.9</ele>
        <time>2016-07-24T08:16:45Z</time>
      </trkpt>
      <trkpt lat="42.41993" lon="0.06894">
        <ele>708.2</ele>
        <time>2016-07-24T08:16:47Z</time>
      </trkpt>
      <trkpt lat="42.4199" lon="0.06891">
        <ele>708.4</ele>
        <time>2016-07-24T08:16:49Z</time>
      </trkpt>
      <trkpt lat="42.41987" lon="0.06888">
        <ele>708.7</ele>
        <time>2016-07-24T08:16:51Z</time>
      </trkpt>
      <trkpt lat="42.41984" lon="0.06885">
        <ele>708.8</ele>
        <time>2016-07-24T08:16:53Z</time>
      </trkpt>
      <trkpt lat="42.41981" lon="0.06882">
        <ele>709</ele>
        <time>2016-07-24T08:16:55Z</time>
      </trkpt>
      <trkpt lat="42.41979" lon="0.06878">
        <ele>709.4</ele>
        <time>2016-07-24T08:16:57Z</time>
      </trkpt>
      <trkpt lat="42.41977" lon="0.06875">
        <ele>709.8</ele>
        <time>2016-07-24T08:16:59Z</time>
      </trkpt>
      <trkpt lat="42.41975" lon="0.06871">
        <ele>710.4</ele>
        <time>2016-07-24T08:17:01Z</time>
      </trkpt>
      <trkpt lat="42.41973" lon="0.06867">
        <ele>710.9</ele>
        <time>2016-07-24T08:17:03Z</time>
      </trkpt>
      <trkpt lat="42.41972" lon="0.06864">
        <ele>711.4</ele>
        <time>2016-07-24T08:17:05Z</time>
      </trkpt>
      <trkpt lat="42.4197" lon="0.06859">
        <ele>712.1</ele>
        <time>2016-07-24T08:17:08Z</time>
      </trkpt>
      <trkpt lat="42.41969" lon="0.06855">
        <ele>712.9</ele>
        <time>2016-07-24T08:17:10Z</time>
      </trkpt>
      <trkpt lat="42.41968" lon="0.06851">
        <ele>713.6</ele>
        <time>2016-07-24T08:17:12Z</time>
      </trkpt>
      <trkpt lat="42.41968" lon="0.06847">
        <ele>714.4</ele>
        <time>2016-07-24T08:17:14Z</time>
      </trkpt>
      <trkpt lat="42.41967" lon="0.06843">
        <ele>715.1</ele>
        <time>2016-07-24T08:17:16Z</time>
      </trkpt>
      <trkpt lat="42.41965" lon="0.0684">
        <ele>715.7</ele>
        <time>2016-07-24T08:17:18Z</time>
      </trkpt>
      <trkpt lat="42.41964" lon="0.06836">
        <ele>716.4</ele>
        <time>2016-07-24T08:17:20Z</time>
      </trkpt>
      <trkpt lat="42.41963" lon="0.06832">
        <ele>717.1</ele>
        <time>2016-07-24T08:17:22Z</time>
      </trkpt>
      <trkpt lat="42.41963" lon="0.06828">
        <ele>717.8</ele>
        <time>2016-07-24T08:17:24Z</time>
      </trkpt>
      <trkpt lat="42.41962" lon="0.06823">
        <ele>718.7</ele>
        <time>2016-07-24T08:17:27Z</time>
      </trkpt>
      <trkpt lat="42.4196" lon="0.06819">
        <ele>719.5</ele>
        <time>2016-07-24T08:17:30Z</time>
      </trkpt>
      <trkpt lat="42.41958" lon="0.06814">
        <ele>720.2</ele>
        <time>2016-07-24T08:17:33Z</time>
      </trkpt>
      <trkpt lat="42.41957" lon="0.06811">
        <ele>720.8</ele>
        <time>2016-07-24T08:17:35Z</time>
      </trkpt>
      <trkpt lat="42.41956" lon="0.06807">
        <ele>721.6</ele>
        <time>2016-07-24T08:17:37Z</time>
      </trkpt>
      <trkpt lat="42.41956" lon="0.06803">
        <ele>722.4</ele>
        <time>2016-07-24T08:17:39Z</time>
      </trkpt>
      <trkpt lat="42.41956" lon="0.06799">
        <ele>723.3</ele>
        <time>2016-07-24T08:17:41Z</time>
      </trkpt>
      <trkpt lat="42.41955" lon="0.06795">
        <ele>724.1</ele>
        <time>2016-07-24T08:17:43Z</time>
      </trkpt>
      <trkpt lat="42.41954" lon="0.06791">
        <ele>725.1</ele>
        <time>2016-07-24T08:17:45Z</time>
      </trkpt>
      <trkpt lat="42.41953" lon="0.06786">
        <ele>726.2</ele>
        <time>2016-07-24T08:17:47Z</time>
      </trkpt>
      <trkpt lat="42.41952" lon="0.06782">
        <ele>727.2</ele>
        <time>2016-07-24T08:17:49Z</time>
      </trkpt>
      <trkpt lat="42.4195" lon="0.06778">
        <ele>728.2</ele>
        <time>2016-07-24T08:17:51Z</time>
      </trkpt>
      <trkpt lat="42.41947" lon="0.06773">
        <ele>729.6</ele>
        <time>2016-07-24T08:17:53Z</time>
      </trkpt>
      <trkpt lat="42.41943" lon="0.0677">
        <ele>730.2</ele>
        <time>2016-07-24T08:17:55Z</time>
      </trkpt>
      <trkpt lat="42.41938" lon="0.0677">
        <ele>729.9</ele>
        <time>2016-07-24T08:17:57Z</time>
      </trkpt>
      <trkpt lat="42.41934" lon="0.0677">
        <ele>729.6</ele>
        <time>2016-07-24T08:17:59Z</time>
      </trkpt>
      <trkpt lat="42.4193" lon="0.0677">
        <ele>729.3</ele>
        <time>2016-07-24T08:18:01Z</time>
      </trkpt>
      <trkpt lat="42.41926" lon="0.0677">
        <ele>728.8</ele>
        <time>2016-07-24T08:18:03Z</time>
      </trkpt>
      <trkpt lat="42.41923" lon="0.06771">
        <ele>728.3</ele>
        <time>2016-07-24T08:18:05Z</time>
      </trkpt>
      <trkpt lat="42.41919" lon="0.06772">
        <ele>727.9</ele>
        <time>2016-07-24T08:18:07Z</time>
      </trkpt>
      <trkpt lat="42.41916" lon="0.06771">
        <ele>727.8</ele>
        <time>2016-07-24T08:18:09Z</time>
      </trkpt>
      <trkpt lat="42.41912" lon="0.06771">
        <ele>727.8</ele>
        <time>2016-07-24T08:18:11Z</time>
      </trkpt>
      <trkpt lat="42.41909" lon="0.06769">
        <ele>728</ele>
        <time>2016-07-24T08:18:13Z</time>
      </trkpt>
      <trkpt lat="42.41906" lon="0.06767">
        <ele>728.4</ele>
        <time>2016-07-24T08:18:15Z</time>
      </trkpt>
      <trkpt lat="42.41903" lon="0.06764">
        <ele>729</ele>
        <time>2016-07-24T08:18:17Z</time>
      </trkpt>
      <trkpt lat="42.419" lon="0.06762">
        <ele>729.4</ele>
        <time>2016-07-24T08:18:19Z</time>
      </trkpt>
      <trkpt lat="42.41896" lon="0.06759">
        <ele>729.9</ele>
        <time>2016-07-24T08:18:21Z</time>
      </trkpt>
      <trkpt lat="42.41891" lon="0.06756">
        <ele>730.4</ele>
        <time>2016-07-24T08:18:23Z</time>
      </trkpt>
      <trkpt lat="42.41887" lon="0.06753">
        <ele>731</ele>
        <time>2016-07-24T08:18:25Z</time>
      </trkpt>
      <trkpt lat="42.41883" lon="0.0675">
        <ele>731.6</ele>
        <time>2016-07-24T08:18:27Z</time>
      </trkpt>
      <trkpt lat="42.41878" lon="0.06747">
        <ele>732.2</ele>
        <time>2016-07-24T08:18:29Z</time>
      </trkpt>
      <trkpt lat="42.41876" lon="0.06745">
        <ele>732.5</ele>
        <time>2016-07-24T08:18:30Z</time>
      </trkpt>
      <trkpt lat="42.41872" lon="0.06741">
        <ele>733.8</ele>
        <time>2016-07-24T08:18:32Z</time>
      </trkpt>
      <trkpt lat="42.41868" lon="0.06737">
        <ele>735.1</ele>
        <time>2016-07-24T08:18:34Z</time>
      </trkpt>
      <trkpt lat="42.41864" lon="0.06733">
        <ele>736</ele>
        <time>2016-07-24T08:18:36Z</time>
      </trkpt>
      <trkpt lat="42.4186" lon="0.0673">
        <ele>737</ele>
        <time>2016-07-24T08:18:38Z</time>
      </trkpt>
      <trkpt lat="42.41857" lon="0.06725">
        <ele>738.3</ele>
        <time>2016-07-24T08:18:40Z</time>
      </trkpt>
      <trkpt lat="42.41854" lon="0.06722">
        <ele>739.2</ele>
        <time>2016-07-24T08:18:42Z</time>
      </trkpt>
      <trkpt lat="42.41851" lon="0.06719">
        <ele>739.9</ele>
        <time>2016-07-24T08:18:44Z</time>
      </trkpt>
      <trkpt lat="42.41848" lon="0.06715">
        <ele>740.8</ele>
        <time>2016-07-24T08:18:46Z</time>
      </trkpt>
      <trkpt lat="42.41846" lon="0.06711">
        <ele>741.6</ele>
        <time>2016-07-24T08:18:48Z</time>
      </trkpt>
      <trkpt lat="42.41843" lon="0.06708">
        <ele>742.2</ele>
        <time>2016-07-24T08:18:50Z</time>
      </trkpt>
      <trkpt lat="42.41841" lon="0.06705">
        <ele>743.1</ele>
        <time>2016-07-24T08:18:52Z</time>
      </trkpt>
      <trkpt lat="42.41839" lon="0.06701">
        <ele>744.4</ele>
        <time>2016-07-24T08:18:55Z</time>
      </trkpt>
      <trkpt lat="42.41835" lon="0.06699">
        <ele>745</ele>
        <time>2016-07-24T08:18:57Z</time>
      </trkpt>
      <trkpt lat="42.4183" lon="0.06697">
        <ele>745.4</ele>
        <time>2016-07-24T08:18:59Z</time>
      </trkpt>
      <trkpt lat="42.41826" lon="0.06696">
        <ele>745.6</ele>
        <time>2016-07-24T08:19:01Z</time>
      </trkpt>
      <trkpt lat="42.41821" lon="0.06695">
        <ele>745.7</ele>
        <time>2016-07-24T08:19:03Z</time>
      </trkpt>
      <trkpt lat="42.41817" lon="0.06693">
        <ele>746.1</ele>
        <time>2016-07-24T08:19:05Z</time>
      </trkpt>
      <trkpt lat="42.41813" lon="0.06691">
        <ele>746.6</ele>
        <time>2016-07-24T08:19:07Z</time>
      </trkpt>
      <trkpt lat="42.41809" lon="0.06689">
        <ele>747.2</ele>
        <time>2016-07-24T08:19:09Z</time>
      </trkpt>
      <trkpt lat="42.41805" lon="0.06687">
        <ele>747.7</ele>
        <time>2016-07-24T08:19:11Z</time>
      </trkpt>
      <trkpt lat="42.41802" lon="0.06686">
        <ele>747.8</ele>
        <time>2016-07-24T08:19:13Z</time>
      </trkpt>
      <trkpt lat="42.41798" lon="0.06685">
        <ele>748</ele>
        <time>2016-07-24T08:19:15Z</time>
      </trkpt>
      <trkpt lat="42.41794" lon="0.06684">
        <ele>748.2</ele>
        <time>2016-07-24T08:19:17Z</time>
      </trkpt>
      <trkpt lat="42.41791" lon="0.06683">
        <ele>748.3</ele>
        <time>2016-07-24T08:19:19Z</time>
      </trkpt>
      <trkpt lat="42.41788" lon="0.06681">
        <ele>749</ele>
        <time>2016-07-24T08:19:21Z</time>
      </trkpt>
      <trkpt lat="42.41787" lon="0.06678">
        <ele>750.1</ele>
        <time>2016-07-24T08:19:23Z</time>
      </trkpt>
      <trkpt lat="42.41786" lon="0.06674">
        <ele>751.2</ele>
        <time>2016-07-24T08:19:25Z</time>
      </trkpt>
      <trkpt lat="42.41784" lon="0.06671">
        <ele>752.1</ele>
        <time>2016-07-24T08:19:27Z</time>
      </trkpt>
      <trkpt lat="42.41781" lon="0.06669">
        <ele>752.7</ele>
        <time>2016-07-24T08:19:29Z</time>
      </trkpt>
      <trkpt lat="42.41777" lon="0.06668">
        <ele>753.2</ele>
        <time>2016-07-24T08:19:32Z</time>
      </trkpt>
      <trkpt lat="42.41775" lon="0.06666">
        <ele>753.8</ele>
        <time>2016-07-24T08:19:34Z</time>
      </trkpt>
      <trkpt lat="42.41772" lon="0.06664">
        <ele>754.4</ele>
        <time>2016-07-24T08:19:36Z</time>
      </trkpt>
      <trkpt lat="42.41769" lon="0.06662">
        <ele>754.8</ele>
        <time>2016-07-24T08:19:38Z</time>
      </trkpt>
      <trkpt lat="42.41766" lon="0.0666">
        <ele>755.5</ele>
        <time>2016-07-24T08:19:40Z</time>
      </trkpt>
      <trkpt lat="42.41764" lon="0.06657">
        <ele>756.2</ele>
        <time>2016-07-24T08:19:42Z</time>
      </trkpt>
      <trkpt lat="42.41762" lon="0.06654">
        <ele>756.9</ele>
        <time>2016-07-24T08:19:44Z</time>
      </trkpt>
      <trkpt lat="42.41759" lon="0.06651">
        <ele>757.6</ele>
        <time>2016-07-24T08:19:46Z</time>
      </trkpt>
      <trkpt lat="42.41757" lon="0.06648">
        <ele>758.2</ele>
        <time>2016-07-24T08:19:48Z</time>
      </trkpt>
      <trkpt lat="42.41754" lon="0.06644">
        <ele>759.1</ele>
        <time>2016-07-24T08:19:51Z</time>
      </trkpt>
      <trkpt lat="42.41751" lon="0.06641">
        <ele>759.6</ele>
        <time>2016-07-24T08:19:53Z</time>
      </trkpt>
      <trkpt lat="42.41748" lon="0.06645">
        <ele>758.8</ele>
        <time>2016-07-24T08:19:56Z</time>
      </trkpt>
      <trkpt lat="42.41746" lon="0.06648">
        <ele>758.3</ele>
        <time>2016-07-24T08:19:58Z</time>
      </trkpt>
      <trkpt lat="42.41744" lon="0.06649">
        <ele>757.9</ele>
        <time>2016-07-24T08:20:00Z</time>
      </trkpt>
      <trkpt lat="42.41741" lon="0.06651">
        <ele>757.6</ele>
        <time>2016-07-24T08:20:02Z</time>
      </trkpt>
      <trkpt lat="42.41738" lon="0.06652">
        <ele>757.4</ele>
        <time>2016-07-24T08:20:04Z</time>
      </trkpt>
      <trkpt lat="42.41735" lon="0.06653">
        <ele>757.2</ele>
        <time>2016-07-24T08:20:06Z</time>
      </trkpt>
      <trkpt lat="42.41731" lon="0.06654">
        <ele>757.1</ele>
        <time>2016-07-24T08:20:09Z</time>
      </trkpt>
      <trkpt lat="42.41727" lon="0.06654">
        <ele>757.1</ele>
        <time>2016-07-24T08:20:11Z</time>
      </trkpt>
      <trkpt lat="42.41724" lon="0.06653">
        <ele>757.3</ele>
        <time>2016-07-24T08:20:13Z</time>
      </trkpt>
      <trkpt lat="42.41721" lon="0.06653">
        <ele>757.3</ele>
        <time>2016-07-24T08:20:15Z</time>
      </trkpt>
      <trkpt lat="42.41717" lon="0.06653">
        <ele>757.3</ele>
        <time>2016-07-24T08:20:17Z</time>
      </trkpt>
      <trkpt lat="42.41712" lon="0.06652">
        <ele>757.4</ele>
        <time>2016-07-24T08:20:19Z</time>
      </trkpt>
      <trkpt lat="42.41708" lon="0.06651">
        <ele>757.6</ele>
        <time>2016-07-24T08:20:21Z</time>
      </trkpt>
      <trkpt lat="42.41704" lon="0.06651">
        <ele>757</ele>
        <time>2016-07-24T08:20:23Z</time>
      </trkpt>
      <trkpt lat="42.417" lon="0.06652">
        <ele>756.3</ele>
        <time>2016-07-24T08:20:25Z</time>
      </trkpt>
      <trkpt lat="42.41696" lon="0.06654">
        <ele>755.4</ele>
        <time>2016-07-24T08:20:27Z</time>
      </trkpt>
      <trkpt lat="42.41693" lon="0.06653">
        <ele>755.1</ele>
        <time>2016-07-24T08:20:30Z</time>
      </trkpt>
      <trkpt lat="42.4169" lon="0.06651">
        <ele>755</ele>
        <time>2016-07-24T08:20:33Z</time>
      </trkpt>
      <trkpt lat="42.41686" lon="0.06651">
        <ele>754.4</ele>
        <time>2016-07-24T08:20:36Z</time>
      </trkpt>
      <trkpt lat="42.41682" lon="0.06651">
        <ele>754</ele>
        <time>2016-07-24T08:20:39Z</time>
      </trkpt>
      <trkpt lat="42.41679" lon="0.06652">
        <ele>753.4</ele>
        <time>2016-07-24T08:20:41Z</time>
      </trkpt>
      <trkpt lat="42.41676" lon="0.06652">
        <ele>753</ele>
        <time>2016-07-24T08:20:43Z</time>
      </trkpt>
      <trkpt lat="42.41674" lon="0.0665">
        <ele>753</ele>
        <time>2016-07-24T08:20:45Z</time>
      </trkpt>
      <trkpt lat="42.41672" lon="0.06648">
        <ele>753.1</ele>
        <time>2016-07-24T08:20:47Z</time>
      </trkpt>
      <trkpt lat="42.41668" lon="0.06646">
        <ele>753</ele>
        <time>2016-07-24T08:20:49Z</time>
      </trkpt>
      <trkpt lat="42.41664" lon="0.06644">
        <ele>752.8</ele>
        <time>2016-07-24T08:20:51Z</time>
      </trkpt>
      <trkpt lat="42.4166" lon="0.0664">
        <ele>752.9</ele>
        <time>2016-07-24T08:20:53Z</time>
      </trkpt>
      <trkpt lat="42.41658" lon="0.06635">
        <ele>753.6</ele>
        <time>2016-07-24T08:20:55Z</time>
      </trkpt>
      <trkpt lat="42.41656" lon="0.06631">
        <ele>754.1</ele>
        <time>2016-07-24T08:20:57Z</time>
      </trkpt>
      <trkpt lat="42.41653" lon="0.06628">
        <ele>754.5</ele>
        <time>2016-07-24T08:21:00Z</time>
      </trkpt>
      <trkpt lat="42.41651" lon="0.06624">
        <ele>755</ele>
        <time>2016-07-24T08:21:03Z</time>
      </trkpt>
      <trkpt lat="42.41648" lon="0.06621">
        <ele>755.5</ele>
        <time>2016-07-24T08:21:05Z</time>
      </trkpt>
      <trkpt lat="42.41647" lon="0.06618">
        <ele>756.3</ele>
        <time>2016-07-24T08:21:07Z</time>
      </trkpt>
      <trkpt lat="42.41647" lon="0.06614">
        <ele>757.3</ele>
        <time>2016-07-24T08:21:09Z</time>
      </trkpt>
      <trkpt lat="42.41646" lon="0.06611">
        <ele>758.1</ele>
        <time>2016-07-24T08:21:11Z</time>
      </trkpt>
      <trkpt lat="42.41644" lon="0.06608">
        <ele>758.6</ele>
        <time>2016-07-24T08:21:13Z</time>
      </trkpt>
      <trkpt lat="42.41642" lon="0.06604">
        <ele>759.4</ele>
        <time>2016-07-24T08:21:15Z</time>
      </trkpt>
      <trkpt lat="42.4164" lon="0.066">
        <ele>760.3</ele>
        <time>2016-07-24T08:21:18Z</time>
      </trkpt>
      <trkpt lat="42.41639" lon="0.06596">
        <ele>761</ele>
        <time>2016-07-24T08:21:20Z</time>
      </trkpt>
      <trkpt lat="42.41637" lon="0.06593">
        <ele>761.7</ele>
        <time>2016-07-24T08:21:26Z</time>
      </trkpt>
      <trkpt lat="42.41638" lon="0.06589">
        <ele>762.8</ele>
        <time>2016-07-24T08:21:31Z</time>
      </trkpt>
      <trkpt lat="42.41637" lon="0.06585">
        <ele>763.9</ele>
        <time>2016-07-24T08:21:36Z</time>
      </trkpt>
      <trkpt lat="42.41635" lon="0.06582">
        <ele>764.2</ele>
        <time>2016-07-24T08:21:39Z</time>
      </trkpt>
      <trkpt lat="42.41632" lon="0.06579">
        <ele>764.6</ele>
        <time>2016-07-24T08:21:43Z</time>
      </trkpt>
      <trkpt lat="42.4163" lon="0.06576">
        <ele>765</ele>
        <time>2016-07-24T08:21:47Z</time>
      </trkpt>
      <trkpt lat="42.41628" lon="0.06573">
        <ele>765.6</ele>
        <time>2016-07-24T08:21:51Z</time>
      </trkpt>
      <trkpt lat="42.41627" lon="0.06569">
        <ele>766.3</ele>
        <time>2016-07-24T08:21:56Z</time>
      </trkpt>
      <trkpt lat="42.41626" lon="0.06566">
        <ele>767.1</ele>
        <time>2016-07-24T08:22:03Z</time>
      </trkpt>
      <trkpt lat="42.41626" lon="0.06562">
        <ele>768.1</ele>
        <time>2016-07-24T08:22:08Z</time>
      </trkpt>
      <trkpt lat="42.41627" lon="0.06558">
        <ele>769.4</ele>
        <time>2016-07-24T08:22:12Z</time>
      </trkpt>
      <trkpt lat="42.41628" lon="0.06554">
        <ele>770.4</ele>
        <time>2016-07-24T08:22:16Z</time>
      </trkpt>
      <trkpt lat="42.41626" lon="0.0655">
        <ele>771</ele>
        <time>2016-07-24T08:22:25Z</time>
      </trkpt>
      <trkpt lat="42.41623" lon="0.06547">
        <ele>771.5</ele>
        <time>2016-07-24T08:22:28Z</time>
      </trkpt>
      <trkpt lat="42.41622" lon="0.06543">
        <ele>772.1</ele>
        <time>2016-07-24T08:22:30Z</time>
      </trkpt>
      <trkpt lat="42.4162" lon="0.0654">
        <ele>772.5</ele>
        <time>2016-07-24T08:22:32Z</time>
      </trkpt>
      <trkpt lat="42.41619" lon="0.06535">
        <ele>772.9</ele>
        <time>2016-07-24T08:22:35Z</time>
      </trkpt>
      <trkpt lat="42.41617" lon="0.0653">
        <ele>773.3</ele>
        <time>2016-07-24T08:22:38Z</time>
      </trkpt>
      <trkpt lat="42.41616" lon="0.06525">
        <ele>773.8</ele>
        <time>2016-07-24T08:22:41Z</time>
      </trkpt>
      <trkpt lat="42.41614" lon="0.06522">
        <ele>773.9</ele>
        <time>2016-07-24T08:22:43Z</time>
      </trkpt>
      <trkpt lat="42.41611" lon="0.06518">
        <ele>774</ele>
        <time>2016-07-24T08:22:45Z</time>
      </trkpt>
      <trkpt lat="42.41609" lon="0.06513">
        <ele>774.4</ele>
        <time>2016-07-24T08:22:47Z</time>
      </trkpt>
      <trkpt lat="42.41607" lon="0.06509">
        <ele>774.8</ele>
        <time>2016-07-24T08:22:49Z</time>
      </trkpt>
      <trkpt lat="42.41605" lon="0.06505">
        <ele>775.2</ele>
        <time>2016-07-24T08:22:51Z</time>
      </trkpt>
      <trkpt lat="42.41604" lon="0.06501">
        <ele>775.6</ele>
        <time>2016-07-24T08:22:54Z</time>
      </trkpt>
      <trkpt lat="42.41602" lon="0.06497">
        <ele>775.8</ele>
        <time>2016-07-24T08:22:56Z</time>
      </trkpt>
      <trkpt lat="42.41599" lon="0.06495">
        <ele>775.9</ele>
        <time>2016-07-24T08:22:58Z</time>
      </trkpt>
      <trkpt lat="42.41596" lon="0.06492">
        <ele>775.9</ele>
        <time>2016-07-24T08:23:00Z</time>
      </trkpt>
      <trkpt lat="42.41594" lon="0.0649">
        <ele>776</ele>
        <time>2016-07-24T08:23:02Z</time>
      </trkpt>
      <trkpt lat="42.41591" lon="0.06488">
        <ele>776</ele>
        <time>2016-07-24T08:23:04Z</time>
      </trkpt>
      <trkpt lat="42.41589" lon="0.06486">
        <ele>776</ele>
        <time>2016-07-24T08:23:06Z</time>
      </trkpt>
      <trkpt lat="42.41586" lon="0.06483">
        <ele>776.2</ele>
        <time>2016-07-24T08:23:08Z</time>
      </trkpt>
      <trkpt lat="42.41583" lon="0.0648">
        <ele>776.3</ele>
        <time>2016-07-24T08:23:10Z</time>
      </trkpt>
      <trkpt lat="42.4158" lon="0.06478">
        <ele>776.3</ele>
        <time>2016-07-24T08:23:12Z</time>
      </trkpt>
      <trkpt lat="42.41577" lon="0.06476">
        <ele>776.3</ele>
        <time>2016-07-24T08:23:14Z</time>
      </trkpt>
      <trkpt lat="42.41573" lon="0.06474">
        <ele>776.3</ele>
        <time>2016-07-24T08:23:17Z</time>
      </trkpt>
      <trkpt lat="42.41571" lon="0.06471">
        <ele>776.6</ele>
        <time>2016-07-24T08:23:19Z</time>
      </trkpt>
      <trkpt lat="42.41569" lon="0.06468">
        <ele>776.9</ele>
        <time>2016-07-24T08:23:22Z</time>
      </trkpt>
      <trkpt lat="42.41566" lon="0.06464">
        <ele>777.3</ele>
        <time>2016-07-24T08:23:25Z</time>
      </trkpt>
      <trkpt lat="42.41564" lon="0.0646">
        <ele>777.9</ele>
        <time>2016-07-24T08:23:28Z</time>
      </trkpt>
      <trkpt lat="42.41561" lon="0.06456">
        <ele>777.9</ele>
        <time>2016-07-24T08:23:31Z</time>
      </trkpt>
      <trkpt lat="42.4156" lon="0.06453">
        <ele>777.9</ele>
        <time>2016-07-24T08:23:33Z</time>
      </trkpt>
      <trkpt lat="42.41558" lon="0.06448">
        <ele>777.9</ele>
        <time>2016-07-24T08:23:36Z</time>
      </trkpt>
      <trkpt lat="42.41557" lon="0.06444">
        <ele>778</ele>
        <time>2016-07-24T08:23:38Z</time>
      </trkpt>
      <trkpt lat="42.41556" lon="0.0644">
        <ele>778.1</ele>
        <time>2016-07-24T08:23:40Z</time>
      </trkpt>
      <trkpt lat="42.41555" lon="0.06437">
        <ele>778.3</ele>
        <time>2016-07-24T08:23:42Z</time>
      </trkpt>
      <trkpt lat="42.41553" lon="0.06433">
        <ele>778.4</ele>
        <time>2016-07-24T08:23:44Z</time>
      </trkpt>
      <trkpt lat="42.41552" lon="0.06429">
        <ele>778.6</ele>
        <time>2016-07-24T08:23:47Z</time>
      </trkpt>
      <trkpt lat="42.41551" lon="0.06425">
        <ele>778.8</ele>
        <time>2016-07-24T08:23:49Z</time>
      </trkpt>
      <trkpt lat="42.4155" lon="0.06422">
        <ele>779</ele>
        <time>2016-07-24T08:23:51Z</time>
      </trkpt>
      <trkpt lat="42.41549" lon="0.06418">
        <ele>779.3</ele>
        <time>2016-07-24T08:23:53Z</time>
      </trkpt>
      <trkpt lat="42.41548" lon="0.06414">
        <ele>779.5</ele>
        <time>2016-07-24T08:23:55Z</time>
      </trkpt>
      <trkpt lat="42.41547" lon="0.0641">
        <ele>779.9</ele>
        <time>2016-07-24T08:23:57Z</time>
      </trkpt>
      <trkpt lat="42.41545" lon="0.06406">
        <ele>780.2</ele>
        <time>2016-07-24T08:23:59Z</time>
      </trkpt>
      <trkpt lat="42.41544" lon="0.06402">
        <ele>780.6</ele>
        <time>2016-07-24T08:24:01Z</time>
      </trkpt>
      <trkpt lat="42.41542" lon="0.06398">
        <ele>781</ele>
        <time>2016-07-24T08:24:03Z</time>
      </trkpt>
      <trkpt lat="42.4154" lon="0.06395">
        <ele>781.5</ele>
        <time>2016-07-24T08:24:05Z</time>
      </trkpt>
      <trkpt lat="42.41538" lon="0.06392">
        <ele>782</ele>
        <time>2016-07-24T08:24:07Z</time>
      </trkpt>
      <trkpt lat="42.41536" lon="0.06388">
        <ele>782.4</ele>
        <time>2016-07-24T08:24:09Z</time>
      </trkpt>
      <trkpt lat="42.41535" lon="0.06384">
        <ele>782.9</ele>
        <time>2016-07-24T08:24:11Z</time>
      </trkpt>
      <trkpt lat="42.41533" lon="0.0638">
        <ele>783.5</ele>
        <time>2016-07-24T08:24:13Z</time>
      </trkpt>
      <trkpt lat="42.4153" lon="0.06377">
        <ele>784.2</ele>
        <time>2016-07-24T08:24:15Z</time>
      </trkpt>
      <trkpt lat="42.41528" lon="0.06374">
        <ele>784.4</ele>
        <time>2016-07-24T08:24:17Z</time>
      </trkpt>
      <trkpt lat="42.41525" lon="0.06368">
        <ele>784</ele>
        <time>2016-07-24T08:25:40Z</time>
      </trkpt>
      <trkpt lat="42.41523" lon="0.06365">
        <ele>784.1</ele>
        <time>2016-07-24T08:25:43Z</time>
      </trkpt>
      <trkpt lat="42.4152" lon="0.06364">
        <ele>784.3</ele>
        <time>2016-07-24T08:25:45Z</time>
      </trkpt>
      <trkpt lat="42.41518" lon="0.06361">
        <ele>784.2</ele>
        <time>2016-07-24T08:25:47Z</time>
      </trkpt>
      <trkpt lat="42.41516" lon="0.06358">
        <ele>784.2</ele>
        <time>2016-07-24T08:25:49Z</time>
      </trkpt>
      <trkpt lat="42.41512" lon="0.06356">
        <ele>784.6</ele>
        <time>2016-07-24T08:25:51Z</time>
      </trkpt>
      <trkpt lat="42.41509" lon="0.06354">
        <ele>785.1</ele>
        <time>2016-07-24T08:25:53Z</time>
      </trkpt>
      <trkpt lat="42.41506" lon="0.06352">
        <ele>785.4</ele>
        <time>2016-07-24T08:25:55Z</time>
      </trkpt>
      <trkpt lat="42.41502" lon="0.06349">
        <ele>785.9</ele>
        <time>2016-07-24T08:25:57Z</time>
      </trkpt>
      <trkpt lat="42.41499" lon="0.06347">
        <ele>786.3</ele>
        <time>2016-07-24T08:25:59Z</time>
      </trkpt>
      <trkpt lat="42.41495" lon="0.06346">
        <ele>787.1</ele>
        <time>2016-07-24T08:26:01Z</time>
      </trkpt>
      <trkpt lat="42.4149" lon="0.06345">
        <ele>788</ele>
        <time>2016-07-24T08:26:03Z</time>
      </trkpt>
      <trkpt lat="42.41486" lon="0.06344">
        <ele>788.7</ele>
        <time>2016-07-24T08:26:05Z</time>
      </trkpt>
      <trkpt lat="42.41483" lon="0.06342">
        <ele>789.5</ele>
        <time>2016-07-24T08:26:07Z</time>
      </trkpt>
      <trkpt lat="42.41479" lon="0.0634">
        <ele>790.3</ele>
        <time>2016-07-24T08:26:09Z</time>
      </trkpt>
      <trkpt lat="42.41475" lon="0.06338">
        <ele>791.1</ele>
        <time>2016-07-24T08:26:11Z</time>
      </trkpt>
      <trkpt lat="42.41471" lon="0.06335">
        <ele>792</ele>
        <time>2016-07-24T08:26:13Z</time>
      </trkpt>
      <trkpt lat="42.41467" lon="0.06333">
        <ele>792.9</ele>
        <time>2016-07-24T08:26:15Z</time>
      </trkpt>
      <trkpt lat="42.41464" lon="0.06331">
        <ele>793.8</ele>
        <time>2016-07-24T08:26:17Z</time>
      </trkpt>
      <trkpt lat="42.4146" lon="0.06329">
        <ele>794.8</ele>
        <time>2016-07-24T08:26:19Z</time>
      </trkpt>
      <trkpt lat="42.41456" lon="0.06329">
        <ele>795.3</ele>
        <time>2016-07-24T08:26:21Z</time>
      </trkpt>
      <trkpt lat="42.41453" lon="0.0633">
        <ele>795.3</ele>
        <time>2016-07-24T08:26:23Z</time>
      </trkpt>
      <trkpt lat="42.41449" lon="0.06331">
        <ele>795.3</ele>
        <time>2016-07-24T08:26:26Z</time>
      </trkpt>
      <trkpt lat="42.41445" lon="0.0633">
        <ele>795.3</ele>
        <time>2016-07-24T08:26:29Z</time>
      </trkpt>
      <trkpt lat="42.41442" lon="0.0633">
        <ele>795.4</ele>
        <time>2016-07-24T08:26:31Z</time>
      </trkpt>
      <trkpt lat="42.41439" lon="0.06329">
        <ele>795.5</ele>
        <time>2016-07-24T08:26:33Z</time>
      </trkpt>
      <trkpt lat="42.41436" lon="0.06328">
        <ele>795.6</ele>
        <time>2016-07-24T08:26:35Z</time>
      </trkpt>
      <trkpt lat="42.41432" lon="0.06327">
        <ele>795.8</ele>
        <time>2016-07-24T08:26:37Z</time>
      </trkpt>
      <trkpt lat="42.41429" lon="0.06326">
        <ele>796</ele>
        <time>2016-07-24T08:26:38Z</time>
      </trkpt>
      <trkpt lat="42.41426" lon="0.06325">
        <ele>796.1</ele>
        <time>2016-07-24T08:26:39Z</time>
      </trkpt>
      <trkpt lat="42.41423" lon="0.06323">
        <ele>796.3</ele>
        <time>2016-07-24T08:26:40Z</time>
      </trkpt>
      <trkpt lat="42.4142" lon="0.06321">
        <ele>796.5</ele>
        <time>2016-07-24T08:26:41Z</time>
      </trkpt>
      <trkpt lat="42.41418" lon="0.0632">
        <ele>796.8</ele>
        <time>2016-07-24T08:26:42Z</time>
      </trkpt>
      <trkpt lat="42.41415" lon="0.06318">
        <ele>797</ele>
        <time>2016-07-24T08:26:43Z</time>
      </trkpt>
      <trkpt lat="42.41412" lon="0.06317">
        <ele>797.3</ele>
        <time>2016-07-24T08:26:44Z</time>
      </trkpt>
      <trkpt lat="42.41409" lon="0.06316">
        <ele>797.4</ele>
        <time>2016-07-24T08:26:45Z</time>
      </trkpt>
      <trkpt lat="42.41406" lon="0.06316">
        <ele>797.6</ele>
        <time>2016-07-24T08:26:46Z</time>
      </trkpt>
      <trkpt lat="42.41402" lon="0.06315">
        <ele>797.7</ele>
        <time>2016-07-24T08:26:47Z</time>
      </trkpt>
      <trkpt lat="42.41398" lon="0.06315">
        <ele>797.9</ele>
        <time>2016-07-24T08:26:48Z</time>
      </trkpt>
      <trkpt lat="42.41395" lon="0.06314">
        <ele>798.2</ele>
        <time>2016-07-24T08:26:49Z</time>
      </trkpt>
      <trkpt lat="42.41391" lon="0.06313">
        <ele>798.4</ele>
        <time>2016-07-24T08:26:50Z</time>
      </trkpt>
      <trkpt lat="42.41388" lon="0.06312">
        <ele>798.7</ele>
        <time>2016-07-24T08:26:51Z</time>
      </trkpt>
      <trkpt lat="42.41385" lon="0.0631">
        <ele>799</ele>
        <time>2016-07-24T08:26:52Z</time>
      </trkpt>
      <trkpt lat="42.41382" lon="0.06308">
        <ele>799.4</ele>
        <time>2016-07-24T08:26:53Z</time>
      </trkpt>
      <trkpt lat="42.41379" lon="0.06305">
        <ele>800</ele>
        <time>2016-07-24T08:26:54Z</time>
      </trkpt>
      <trkpt lat="42.41377" lon="0.06301">
        <ele>800.5</ele>
        <time>2016-07-24T08:26:55Z</time>
      </trkpt>
      <trkpt lat="42.41375" lon="0.06298">
        <ele>801.1</ele>
        <time>2016-07-24T08:26:56Z</time>
      </trkpt>
      <trkpt lat="42.41373" lon="0.06295">
        <ele>801.7</ele>
        <time>2016-07-24T08:26:57Z</time>
      </trkpt>
      <trkpt lat="42.41371" lon="0.06292">
        <ele>802.3</ele>
        <time>2016-07-24T08:26:58Z</time>
      </trkpt>
      <trkpt lat="42.41369" lon="0.06289">
        <ele>801.9</ele>
        <time>2016-07-24T08:26:59Z</time>
      </trkpt>
      <trkpt lat="42.41366" lon="0.06283">
        <ele>801.1</ele>
        <time>2016-07-24T08:27:01Z</time>
      </trkpt>
      <trkpt lat="42.41362" lon="0.06278">
        <ele>800.5</ele>
        <time>2016-07-24T08:27:03Z</time>
      </trkpt>
      <trkpt lat="42.4136" lon="0.06276">
        <ele>800.2</ele>
        <time>2016-07-24T08:27:04Z</time>
      </trkpt>
      <trkpt lat="42.41357" lon="0.06275">
        <ele>800.1</ele>
        <time>2016-07-24T08:27:05Z</time>
      </trkpt>
      <trkpt lat="42.41355" lon="0.06273">
        <ele>799.9</ele>
        <time>2016-07-24T08:27:06Z</time>
      </trkpt>
      <trkpt lat="42.41352" lon="0.06271">
        <ele>799.7</ele>
        <time>2016-07-24T08:27:07Z</time>
      </trkpt>
      <trkpt lat="42.4135" lon="0.06269">
        <ele>799.5</ele>
        <time>2016-07-24T08:27:08Z</time>
      </trkpt>
      <trkpt lat="42.41347" lon="0.06267">
        <ele>799.3</ele>
        <time>2016-07-24T08:27:09Z</time>
      </trkpt>
      <trkpt lat="42.41344" lon="0.06266">
        <ele>799.3</ele>
        <time>2016-07-24T08:27:10Z</time>
      </trkpt>
      <trkpt lat="42.41341" lon="0.06265">
        <ele>799.4</ele>
        <time>2016-07-24T08:27:11Z</time>
      </trkpt>
      <trkpt lat="42.41336" lon="0.06265">
        <ele>799.7</ele>
        <time>2016-07-24T08:27:13Z</time>
      </trkpt>
      <trkpt lat="42.41332" lon="0.06266">
        <ele>800.2</ele>
        <time>2016-07-24T08:27:15Z</time>
      </trkpt>
      <trkpt lat="42.41329" lon="0.06264">
        <ele>800</ele>
        <time>2016-07-24T08:27:17Z</time>
      </trkpt>
      <trkpt lat="42.41326" lon="0.06259">
        <ele>799.2</ele>
        <time>2016-07-24T08:27:19Z</time>
      </trkpt>
      <trkpt lat="42.41324" lon="0.06256">
        <ele>798.6</ele>
        <time>2016-07-24T08:27:21Z</time>
      </trkpt>
      <trkpt lat="42.41322" lon="0.06253">
        <ele>798.1</ele>
        <time>2016-07-24T08:27:26Z</time>
      </trkpt>
      <trkpt lat="42.4132" lon="0.0625">
        <ele>797.7</ele>
        <time>2016-07-24T08:27:31Z</time>
      </trkpt>
      <trkpt lat="42.41318" lon="0.06248">
        <ele>797.3</ele>
        <time>2016-07-24T08:27:35Z</time>
      </trkpt>
      <trkpt lat="42.41315" lon="0.06243">
        <ele>796.4</ele>
        <time>2016-07-24T08:27:40Z</time>
      </trkpt>
      <trkpt lat="42.41313" lon="0.0624">
        <ele>795.8</ele>
        <time>2016-07-24T08:27:41Z</time>
      </trkpt>
      <trkpt lat="42.4131" lon="0.06235">
        <ele>795</ele>
        <time>2016-07-24T08:27:43Z</time>
      </trkpt>
      <trkpt lat="42.41307" lon="0.06231">
        <ele>794.3</ele>
        <time>2016-07-24T08:27:45Z</time>
      </trkpt>
      <trkpt lat="42.41304" lon="0.06228">
        <ele>793.8</ele>
        <time>2016-07-24T08:27:47Z</time>
      </trkpt>
      <trkpt lat="42.41301" lon="0.06226">
        <ele>793.6</ele>
        <time>2016-07-24T08:27:49Z</time>
      </trkpt>
      <trkpt lat="42.41298" lon="0.06224">
        <ele>793.2</ele>
        <time>2016-07-24T08:27:52Z</time>
      </trkpt>
      <trkpt lat="42.41294" lon="0.06221">
        <ele>792.8</ele>
        <time>2016-07-24T08:27:54Z</time>
      </trkpt>
      <trkpt lat="42.41292" lon="0.06219">
        <ele>792.5</ele>
        <time>2016-07-24T08:28:00Z</time>
      </trkpt>
      <trkpt lat="42.41289" lon="0.06217">
        <ele>792.6</ele>
        <time>2016-07-24T08:28:04Z</time>
      </trkpt>
      <trkpt lat="42.41286" lon="0.06215">
        <ele>792.8</ele>
        <time>2016-07-24T08:28:11Z</time>
      </trkpt>
      <trkpt lat="42.41283" lon="0.06213">
        <ele>793</ele>
        <time>2016-07-24T08:28:13Z</time>
      </trkpt>
      <trkpt lat="42.4128" lon="0.06212">
        <ele>793.3</ele>
        <time>2016-07-24T08:28:15Z</time>
      </trkpt>
      <trkpt lat="42.41276" lon="0.06213">
        <ele>794.5</ele>
        <time>2016-07-24T08:28:17Z</time>
      </trkpt>
      <trkpt lat="42.41273" lon="0.06218">
        <ele>796.4</ele>
        <time>2016-07-24T08:28:19Z</time>
      </trkpt>
      <trkpt lat="42.41269" lon="0.06223">
        <ele>798.1</ele>
        <time>2016-07-24T08:28:21Z</time>
      </trkpt>
      <trkpt lat="42.41267" lon="0.06224">
        <ele>798.9</ele>
        <time>2016-07-24T08:28:22Z</time>
      </trkpt>
      <trkpt lat="42.41264" lon="0.06224">
        <ele>799.6</ele>
        <time>2016-07-24T08:28:23Z</time>
      </trkpt>
      <trkpt lat="42.4126" lon="0.06224">
        <ele>800.3</ele>
        <time>2016-07-24T08:28:24Z</time>
      </trkpt>
      <trkpt lat="42.41257" lon="0.06223">
        <ele>800.8</ele>
        <time>2016-07-24T08:28:25Z</time>
      </trkpt>
      <trkpt lat="42.41254" lon="0.06222">
        <ele>801.3</ele>
        <time>2016-07-24T08:28:26Z</time>
      </trkpt>
      <trkpt lat="42.41251" lon="0.06221">
        <ele>801.7</ele>
        <time>2016-07-24T08:28:27Z</time>
      </trkpt>
      <trkpt lat="42.41247" lon="0.06219">
        <ele>802.2</ele>
        <time>2016-07-24T08:28:28Z</time>
      </trkpt>
      <trkpt lat="42.41244" lon="0.06218">
        <ele>802.6</ele>
        <time>2016-07-24T08:28:29Z</time>
      </trkpt>
      <trkpt lat="42.4124" lon="0.06216">
        <ele>803.1</ele>
        <time>2016-07-24T08:28:31Z</time>
      </trkpt>
      <trkpt lat="42.41238" lon="0.06216">
        <ele>803.7</ele>
        <time>2016-07-24T08:28:32Z</time>
      </trkpt>
      <trkpt lat="42.41234" lon="0.06216">
        <ele>804.6</ele>
        <time>2016-07-24T08:28:33Z</time>
      </trkpt>
      <trkpt lat="42.4123" lon="0.06216">
        <ele>805.5</ele>
        <time>2016-07-24T08:28:34Z</time>
      </trkpt>
      <trkpt lat="42.41226" lon="0.06216">
        <ele>806.3</ele>
        <time>2016-07-24T08:28:35Z</time>
      </trkpt>
      <trkpt lat="42.41222" lon="0.06215">
        <ele>807.2</ele>
        <time>2016-07-24T08:28:36Z</time>
      </trkpt>
      <trkpt lat="42.41218" lon="0.06215">
        <ele>808</ele>
        <time>2016-07-24T08:28:37Z</time>
      </trkpt>
      <trkpt lat="42.41214" lon="0.06215">
        <ele>808.7</ele>
        <time>2016-07-24T08:28:38Z</time>
      </trkpt>
      <trkpt lat="42.41211" lon="0.06214">
        <ele>809.3</ele>
        <time>2016-07-24T08:28:39Z</time>
      </trkpt>
      <trkpt lat="42.41207" lon="0.06215">
        <ele>810.3</ele>
        <time>2016-07-24T08:28:41Z</time>
      </trkpt>
      <trkpt lat="42.41203" lon="0.06217">
        <ele>811.4</ele>
        <time>2016-07-24T08:28:43Z</time>
      </trkpt>
      <trkpt lat="42.412" lon="0.06217">
        <ele>812.2</ele>
        <time>2016-07-24T08:28:45Z</time>
      </trkpt>
      <trkpt lat="42.41196" lon="0.06216">
        <ele>812.6</ele>
        <time>2016-07-24T08:28:47Z</time>
      </trkpt>
      <trkpt lat="42.41192" lon="0.06214">
        <ele>813</ele>
        <time>2016-07-24T08:28:49Z</time>
      </trkpt>
      <trkpt lat="42.41189" lon="0.06214">
        <ele>813.7</ele>
        <time>2016-07-24T08:28:51Z</time>
      </trkpt>
      <trkpt lat="42.41187" lon="0.06214">
        <ele>814.2</ele>
        <time>2016-07-24T08:28:53Z</time>
      </trkpt>
      <trkpt lat="42.41183" lon="0.06212">
        <ele>814.5</ele>
        <time>2016-07-24T08:28:55Z</time>
      </trkpt>
      <trkpt lat="42.41181" lon="0.06207">
        <ele>814.1</ele>
        <time>2016-07-24T08:28:57Z</time>
      </trkpt>
      <trkpt lat="42.41179" lon="0.06202">
        <ele>813.4</ele>
        <time>2016-07-24T08:28:59Z</time>
      </trkpt>
      <trkpt lat="42.41178" lon="0.06194">
        <ele>812</ele>
        <time>2016-07-24T08:29:01Z</time>
      </trkpt>
      <trkpt lat="42.41177" lon="0.06189">
        <ele>811.2</ele>
        <time>2016-07-24T08:29:02Z</time>
      </trkpt>
      <trkpt lat="42.41175" lon="0.06184">
        <ele>810.6</ele>
        <time>2016-07-24T08:29:03Z</time>
      </trkpt>
      <trkpt lat="42.41174" lon="0.0618">
        <ele>810.1</ele>
        <time>2016-07-24T08:29:04Z</time>
      </trkpt>
      <trkpt lat="42.41172" lon="0.06177">
        <ele>809.7</ele>
        <time>2016-07-24T08:29:05Z</time>
      </trkpt>
      <trkpt lat="42.41169" lon="0.06172">
        <ele>809.1</ele>
        <time>2016-07-24T08:29:07Z</time>
      </trkpt>
      <trkpt lat="42.41168" lon="0.06167">
        <ele>808.4</ele>
        <time>2016-07-24T08:29:09Z</time>
      </trkpt>
      <trkpt lat="42.41166" lon="0.0616">
        <ele>807.2</ele>
        <time>2016-07-24T08:29:11Z</time>
      </trkpt>
      <trkpt lat="42.41166" lon="0.06155">
        <ele>806.3</ele>
        <time>2016-07-24T08:29:12Z</time>
      </trkpt>
      <trkpt lat="42.41165" lon="0.0615">
        <ele>805.3</ele>
        <time>2016-07-24T08:29:13Z</time>
      </trkpt>
      <trkpt lat="42.41165" lon="0.06145">
        <ele>804.4</ele>
        <time>2016-07-24T08:29:14Z</time>
      </trkpt>
      <trkpt lat="42.41164" lon="0.0614">
        <ele>803.5</ele>
        <time>2016-07-24T08:29:15Z</time>
      </trkpt>
      <trkpt lat="42.41163" lon="0.06135">
        <ele>802.5</ele>
        <time>2016-07-24T08:29:16Z</time>
      </trkpt>
      <trkpt lat="42.41161" lon="0.06129">
        <ele>801.6</ele>
        <time>2016-07-24T08:29:17Z</time>
      </trkpt>
      <trkpt lat="42.41159" lon="0.06124">
        <ele>800.8</ele>
        <time>2016-07-24T08:29:18Z</time>
      </trkpt>
      <trkpt lat="42.41157" lon="0.0612">
        <ele>800.2</ele>
        <time>2016-07-24T08:29:19Z</time>
      </trkpt>
      <trkpt lat="42.41156" lon="0.06117">
        <ele>799.7</ele>
        <time>2016-07-24T08:29:20Z</time>
      </trkpt>
      <trkpt lat="42.41155" lon="0.06111">
        <ele>798.9</ele>
        <time>2016-07-24T08:29:22Z</time>
      </trkpt>
      <trkpt lat="42.41154" lon="0.06105">
        <ele>797.8</ele>
        <time>2016-07-24T08:29:24Z</time>
      </trkpt>
      <trkpt lat="42.41152" lon="0.06103">
        <ele>797.4</ele>
        <time>2016-07-24T08:29:25Z</time>
      </trkpt>
      <trkpt lat="42.41149" lon="0.06101">
        <ele>797.3</ele>
        <time>2016-07-24T08:29:26Z</time>
      </trkpt>
      <trkpt lat="42.41146" lon="0.06099">
        <ele>797.3</ele>
        <time>2016-07-24T08:29:27Z</time>
      </trkpt>
      <trkpt lat="42.41144" lon="0.06098">
        <ele>797.2</ele>
        <time>2016-07-24T08:29:28Z</time>
      </trkpt>
      <trkpt lat="42.41141" lon="0.06095">
        <ele>796.8</ele>
        <time>2016-07-24T08:29:29Z</time>
      </trkpt>
      <trkpt lat="42.41139" lon="0.06092">
        <ele>796.5</ele>
        <time>2016-07-24T08:29:30Z</time>
      </trkpt>
      <trkpt lat="42.41136" lon="0.06091">
        <ele>796.4</ele>
        <time>2016-07-24T08:29:31Z</time>
      </trkpt>
      <trkpt lat="42.41132" lon="0.06091">
        <ele>796.6</ele>
        <time>2016-07-24T08:29:33Z</time>
      </trkpt>
      <trkpt lat="42.41128" lon="0.06091">
        <ele>797.1</ele>
        <time>2016-07-24T08:29:35Z</time>
      </trkpt>
      <trkpt lat="42.41123" lon="0.06089">
        <ele>796.8</ele>
        <time>2016-07-24T08:29:37Z</time>
      </trkpt>
      <trkpt lat="42.4112" lon="0.06086">
        <ele>796.3</ele>
        <time>2016-07-24T08:29:38Z</time>
      </trkpt>
      <trkpt lat="42.41116" lon="0.06083">
        <ele>795.8</ele>
        <time>2016-07-24T08:29:39Z</time>
      </trkpt>
      <trkpt lat="42.41111" lon="0.06081">
        <ele>795.4</ele>
        <time>2016-07-24T08:29:40Z</time>
      </trkpt>
      <trkpt lat="42.41106" lon="0.06079">
        <ele>795.3</ele>
        <time>2016-07-24T08:29:41Z</time>
      </trkpt>
      <trkpt lat="42.41101" lon="0.06078">
        <ele>795.2</ele>
        <time>2016-07-24T08:29:42Z</time>
      </trkpt>
      <trkpt lat="42.41097" lon="0.06078">
        <ele>795.3</ele>
        <time>2016-07-24T08:29:43Z</time>
      </trkpt>
      <trkpt lat="42.41094" lon="0.06077">
        <ele>795.2</ele>
        <time>2016-07-24T08:29:44Z</time>
      </trkpt>
      <trkpt lat="42.41091" lon="0.06076">
        <ele>795.2</ele>
        <time>2016-07-24T08:29:45Z</time>
      </trkpt>
      <trkpt lat="42.41088" lon="0.06075">
        <ele>795</ele>
        <time>2016-07-24T08:29:46Z</time>
      </trkpt>
      <trkpt lat="42.41084" lon="0.06074">
        <ele>794.9</ele>
        <time>2016-07-24T08:29:47Z</time>
      </trkpt>
      <trkpt lat="42.41081" lon="0.06074">
        <ele>794.9</ele>
        <time>2016-07-24T08:29:48Z</time>
      </trkpt>
      <trkpt lat="42.41077" lon="0.06073">
        <ele>794.9</ele>
        <time>2016-07-24T08:29:49Z</time>
      </trkpt>
      <trkpt lat="42.41074" lon="0.06073">
        <ele>794.8</ele>
        <time>2016-07-24T08:29:50Z</time>
      </trkpt>
      <trkpt lat="42.41071" lon="0.06072">
        <ele>794.6</ele>
        <time>2016-07-24T08:29:51Z</time>
      </trkpt>
      <trkpt lat="42.41067" lon="0.06069">
        <ele>794.2</ele>
        <time>2016-07-24T08:29:53Z</time>
      </trkpt>
      <trkpt lat="42.41064" lon="0.06067">
        <ele>793.7</ele>
        <time>2016-07-24T08:29:55Z</time>
      </trkpt>
      <trkpt lat="42.41062" lon="0.06064">
        <ele>792.7</ele>
        <time>2016-07-24T08:29:57Z</time>
      </trkpt>
      <trkpt lat="42.4106" lon="0.06059">
        <ele>791.5</ele>
        <time>2016-07-24T08:29:59Z</time>
      </trkpt>
      <trkpt lat="42.41058" lon="0.06057">
        <ele>791.1</ele>
        <time>2016-07-24T08:30:07Z</time>
      </trkpt>
      <trkpt lat="42.41055" lon="0.06056">
        <ele>790.9</ele>
        <time>2016-07-24T08:30:16Z</time>
      </trkpt>
      <trkpt lat="42.41052" lon="0.06057">
        <ele>791.1</ele>
        <time>2016-07-24T08:30:22Z</time>
      </trkpt>
      <trkpt lat="42.41049" lon="0.06056">
        <ele>791.1</ele>
        <time>2016-07-24T08:30:28Z</time>
      </trkpt>
      <trkpt lat="42.41045" lon="0.06056">
        <ele>791</ele>
        <time>2016-07-24T08:30:31Z</time>
      </trkpt>
      <trkpt lat="42.41043" lon="0.06056">
        <ele>791.1</ele>
        <time>2016-07-24T08:30:36Z</time>
      </trkpt>
      <trkpt lat="42.41038" lon="0.06057">
        <ele>791.9</ele>
        <time>2016-07-24T08:30:39Z</time>
      </trkpt>
      <trkpt lat="42.41035" lon="0.06058">
        <ele>792.8</ele>
        <time>2016-07-24T08:30:41Z</time>
      </trkpt>
      <trkpt lat="42.41031" lon="0.06058">
        <ele>793.3</ele>
        <time>2016-07-24T08:30:43Z</time>
      </trkpt>
      <trkpt lat="42.41027" lon="0.06057">
        <ele>793.4</ele>
        <time>2016-07-24T08:30:45Z</time>
      </trkpt>
      <trkpt lat="42.41022" lon="0.06053">
        <ele>793.2</ele>
        <time>2016-07-24T08:30:47Z</time>
      </trkpt>
      <trkpt lat="42.41019" lon="0.06052">
        <ele>793.2</ele>
        <time>2016-07-24T08:30:48Z</time>
      </trkpt>
      <trkpt lat="42.41016" lon="0.0605">
        <ele>793.3</ele>
        <time>2016-07-24T08:30:49Z</time>
      </trkpt>
      <trkpt lat="42.41012" lon="0.06048">
        <ele>793.3</ele>
        <time>2016-07-24T08:30:50Z</time>
      </trkpt>
      <trkpt lat="42.41009" lon="0.06047">
        <ele>793.5</ele>
        <time>2016-07-24T08:30:51Z</time>
      </trkpt>
      <trkpt lat="42.41005" lon="0.06047">
        <ele>794</ele>
        <time>2016-07-24T08:30:52Z</time>
      </trkpt>
      <trkpt lat="42.41002" lon="0.06048">
        <ele>794.8</ele>
        <time>2016-07-24T08:30:53Z</time>
      </trkpt>
      <trkpt lat="42.40998" lon="0.06049">
        <ele>795.5</ele>
        <time>2016-07-24T08:30:54Z</time>
      </trkpt>
      <trkpt lat="42.40995" lon="0.06049">
        <ele>796.1</ele>
        <time>2016-07-24T08:30:55Z</time>
      </trkpt>
      <trkpt lat="42.40992" lon="0.06049">
        <ele>796.7</ele>
        <time>2016-07-24T08:30:56Z</time>
      </trkpt>
      <trkpt lat="42.40989" lon="0.0605">
        <ele>797.3</ele>
        <time>2016-07-24T08:30:57Z</time>
      </trkpt>
      <trkpt lat="42.40986" lon="0.06051">
        <ele>797.9</ele>
        <time>2016-07-24T08:30:58Z</time>
      </trkpt>
      <trkpt lat="42.40983" lon="0.06051">
        <ele>798.5</ele>
        <time>2016-07-24T08:30:59Z</time>
      </trkpt>
      <trkpt lat="42.40978" lon="0.06053">
        <ele>799.7</ele>
        <time>2016-07-24T08:31:01Z</time>
      </trkpt>
      <trkpt lat="42.40973" lon="0.06055">
        <ele>800.8</ele>
        <time>2016-07-24T08:31:03Z</time>
      </trkpt>
      <trkpt lat="42.4097" lon="0.06056">
        <ele>801.5</ele>
        <time>2016-07-24T08:31:04Z</time>
      </trkpt>
      <trkpt lat="42.40967" lon="0.06056">
        <ele>802</ele>
        <time>2016-07-24T08:31:05Z</time>
      </trkpt>
      <trkpt lat="42.40963" lon="0.06054">
        <ele>802.2</ele>
        <time>2016-07-24T08:31:07Z</time>
      </trkpt>
      <trkpt lat="42.4096" lon="0.06051">
        <ele>801.9</ele>
        <time>2016-07-24T08:31:08Z</time>
      </trkpt>
      <trkpt lat="42.40958" lon="0.06047">
        <ele>801.1</ele>
        <time>2016-07-24T08:31:10Z</time>
      </trkpt>
      <trkpt lat="42.40955" lon="0.06043">
        <ele>800.3</ele>
        <time>2016-07-24T08:31:12Z</time>
      </trkpt>
      <trkpt lat="42.40953" lon="0.0604">
        <ele>800</ele>
        <time>2016-07-24T08:31:13Z</time>
      </trkpt>
      <trkpt lat="42.40949" lon="0.06036">
        <ele>799.8</ele>
        <time>2016-07-24T08:31:15Z</time>
      </trkpt>
      <trkpt lat="42.40945" lon="0.06034">
        <ele>799.8</ele>
        <time>2016-07-24T08:31:17Z</time>
      </trkpt>
      <trkpt lat="42.4094" lon="0.06032">
        <ele>799.8</ele>
        <time>2016-07-24T08:31:19Z</time>
      </trkpt>
      <trkpt lat="42.40937" lon="0.0603">
        <ele>799.8</ele>
        <time>2016-07-24T08:31:20Z</time>
      </trkpt>
      <trkpt lat="42.40934" lon="0.06028">
        <ele>799.7</ele>
        <time>2016-07-24T08:31:21Z</time>
      </trkpt>
      <trkpt lat="42.40931" lon="0.06027">
        <ele>799.8</ele>
        <time>2016-07-24T08:31:22Z</time>
      </trkpt>
      <trkpt lat="42.40928" lon="0.06028">
        <ele>799.9</ele>
        <time>2016-07-24T08:31:23Z</time>
      </trkpt>
      <trkpt lat="42.40924" lon="0.06027">
        <ele>800</ele>
        <time>2016-07-24T08:31:24Z</time>
      </trkpt>
      <trkpt lat="42.40921" lon="0.06026">
        <ele>800</ele>
        <time>2016-07-24T08:31:25Z</time>
      </trkpt>
      <trkpt lat="42.40918" lon="0.06024">
        <ele>800</ele>
        <time>2016-07-24T08:31:26Z</time>
      </trkpt>
      <trkpt lat="42.40914" lon="0.06022">
        <ele>800</ele>
        <time>2016-07-24T08:31:28Z</time>
      </trkpt>
      <trkpt lat="42.40909" lon="0.06021">
        <ele>800.2</ele>
        <time>2016-07-24T08:31:30Z</time>
      </trkpt>
      <trkpt lat="42.40906" lon="0.06019">
        <ele>800.2</ele>
        <time>2016-07-24T08:31:32Z</time>
      </trkpt>
      <trkpt lat="42.40903" lon="0.06014">
        <ele>800</ele>
        <time>2016-07-24T08:31:34Z</time>
      </trkpt>
      <trkpt lat="42.40901" lon="0.06009">
        <ele>799.9</ele>
        <time>2016-07-24T08:31:36Z</time>
      </trkpt>
      <trkpt lat="42.40897" lon="0.06005">
        <ele>799.8</ele>
        <time>2016-07-24T08:31:38Z</time>
      </trkpt>
      <trkpt lat="42.40894" lon="0.06003">
        <ele>799.8</ele>
        <time>2016-07-24T08:31:39Z</time>
      </trkpt>
      <trkpt lat="42.40891" lon="0.06">
        <ele>799.8</ele>
        <time>2016-07-24T08:31:40Z</time>
      </trkpt>
      <trkpt lat="42.40888" lon="0.05997">
        <ele>799.9</ele>
        <time>2016-07-24T08:31:41Z</time>
      </trkpt>
      <trkpt lat="42.40885" lon="0.05993">
        <ele>799.8</ele>
        <time>2016-07-24T08:31:43Z</time>
      </trkpt>
      <trkpt lat="42.40884" lon="0.0599">
        <ele>799.7</ele>
        <time>2016-07-24T08:31:45Z</time>
      </trkpt>
      <trkpt lat="42.40881" lon="0.05988">
        <ele>799.8</ele>
        <time>2016-07-24T08:31:47Z</time>
      </trkpt>
      <trkpt lat="42.40875" lon="0.05987">
        <ele>800</ele>
        <time>2016-07-24T08:31:50Z</time>
      </trkpt>
      <trkpt lat="42.40872" lon="0.05983">
        <ele>799.7</ele>
        <time>2016-07-24T08:31:52Z</time>
      </trkpt>
      <trkpt lat="42.40869" lon="0.05981">
        <ele>799.5</ele>
        <time>2016-07-24T08:31:53Z</time>
      </trkpt>
      <trkpt lat="42.40864" lon="0.05979">
        <ele>799.1</ele>
        <time>2016-07-24T08:31:55Z</time>
      </trkpt>
      <trkpt lat="42.40861" lon="0.05978">
        <ele>798.9</ele>
        <time>2016-07-24T08:31:56Z</time>
      </trkpt>
      <trkpt lat="42.40858" lon="0.05978">
        <ele>798.7</ele>
        <time>2016-07-24T08:31:57Z</time>
      </trkpt>
      <trkpt lat="42.40853" lon="0.05975">
        <ele>798.2</ele>
        <time>2016-07-24T08:31:59Z</time>
      </trkpt>
      <trkpt lat="42.4085" lon="0.05972">
        <ele>797.9</ele>
        <time>2016-07-24T08:32:00Z</time>
      </trkpt>
      <trkpt lat="42.40847" lon="0.0597">
        <ele>797.6</ele>
        <time>2016-07-24T08:32:01Z</time>
      </trkpt>
      <trkpt lat="42.40843" lon="0.05969">
        <ele>797.3</ele>
        <time>2016-07-24T08:32:03Z</time>
      </trkpt>
      <trkpt lat="42.4084" lon="0.05971">
        <ele>797.2</ele>
        <time>2016-07-24T08:32:09Z</time>
      </trkpt>
      <trkpt lat="42.40837" lon="0.05971">
        <ele>797</ele>
        <time>2016-07-24T08:32:20Z</time>
      </trkpt>
      <trkpt lat="42.40834" lon="0.05968">
        <ele>796.6</ele>
        <time>2016-07-24T08:32:24Z</time>
      </trkpt>
      <trkpt lat="42.40831" lon="0.05966">
        <ele>796.3</ele>
        <time>2016-07-24T08:32:25Z</time>
      </trkpt>
      <trkpt lat="42.40829" lon="0.05964">
        <ele>796</ele>
        <time>2016-07-24T08:32:26Z</time>
      </trkpt>
      <trkpt lat="42.40826" lon="0.05962">
        <ele>795.7</ele>
        <time>2016-07-24T08:32:27Z</time>
      </trkpt>
      <trkpt lat="42.40823" lon="0.0596">
        <ele>795.3</ele>
        <time>2016-07-24T08:32:28Z</time>
      </trkpt>
      <trkpt lat="42.40819" lon="0.05959">
        <ele>795</ele>
        <time>2016-07-24T08:32:29Z</time>
      </trkpt>
      <trkpt lat="42.40815" lon="0.0596">
        <ele>794.8</ele>
        <time>2016-07-24T08:32:30Z</time>
      </trkpt>
      <trkpt lat="42.40811" lon="0.0596">
        <ele>794.6</ele>
        <time>2016-07-24T08:32:31Z</time>
      </trkpt>
      <trkpt lat="42.40808" lon="0.0596">
        <ele>794.3</ele>
        <time>2016-07-24T08:32:32Z</time>
      </trkpt>
      <trkpt lat="42.40805" lon="0.05959">
        <ele>794</ele>
        <time>2016-07-24T08:32:33Z</time>
      </trkpt>
      <trkpt lat="42.40802" lon="0.05956">
        <ele>793.5</ele>
        <time>2016-07-24T08:32:34Z</time>
      </trkpt>
      <trkpt lat="42.408" lon="0.05953">
        <ele>792.9</ele>
        <time>2016-07-24T08:32:35Z</time>
      </trkpt>
      <trkpt lat="42.40797" lon="0.0595">
        <ele>792.4</ele>
        <time>2016-07-24T08:32:36Z</time>
      </trkpt>
      <trkpt lat="42.40794" lon="0.05949">
        <ele>791.9</ele>
        <time>2016-07-24T08:32:37Z</time>
      </trkpt>
      <trkpt lat="42.40791" lon="0.05947">
        <ele>791.6</ele>
        <time>2016-07-24T08:32:38Z</time>
      </trkpt>
      <trkpt lat="42.40786" lon="0.05946">
        <ele>792.3</ele>
        <time>2016-07-24T08:32:40Z</time>
      </trkpt>
      <trkpt lat="42.40784" lon="0.05945">
        <ele>792.6</ele>
        <time>2016-07-24T08:32:41Z</time>
      </trkpt>
      <trkpt lat="42.4078" lon="0.05944">
        <ele>793.2</ele>
        <time>2016-07-24T08:32:42Z</time>
      </trkpt>
      <trkpt lat="42.40776" lon="0.05943">
        <ele>793.7</ele>
        <time>2016-07-24T08:32:43Z</time>
      </trkpt>
      <trkpt lat="42.40772" lon="0.05942">
        <ele>794.3</ele>
        <time>2016-07-24T08:32:44Z</time>
      </trkpt>
      <trkpt lat="42.40769" lon="0.0594">
        <ele>794.6</ele>
        <time>2016-07-24T08:32:45Z</time>
      </trkpt>
      <trkpt lat="42.40765" lon="0.05936">
        <ele>794.7</ele>
        <time>2016-07-24T08:32:47Z</time>
      </trkpt>
      <trkpt lat="42.40763" lon="0.05931">
        <ele>794.6</ele>
        <time>2016-07-24T08:32:49Z</time>
      </trkpt>
      <trkpt lat="42.40761" lon="0.05929">
        <ele>794.6</ele>
        <time>2016-07-24T08:32:50Z</time>
      </trkpt>
      <trkpt lat="42.40759" lon="0.05925">
        <ele>794.6</ele>
        <time>2016-07-24T08:32:51Z</time>
      </trkpt>
      <trkpt lat="42.40757" lon="0.05923">
        <ele>794.6</ele>
        <time>2016-07-24T08:32:52Z</time>
      </trkpt>
      <trkpt lat="42.40755" lon="0.0592">
        <ele>794.7</ele>
        <time>2016-07-24T08:32:53Z</time>
      </trkpt>
      <trkpt lat="42.40753" lon="0.05917">
        <ele>794.8</ele>
        <time>2016-07-24T08:32:54Z</time>
      </trkpt>
      <trkpt lat="42.40751" lon="0.05915">
        <ele>794.9</ele>
        <time>2016-07-24T08:32:55Z</time>
      </trkpt>
      <trkpt lat="42.40748" lon="0.05913">
        <ele>795.2</ele>
        <time>2016-07-24T08:33:00Z</time>
      </trkpt>
      <trkpt lat="42.40746" lon="0.0591">
        <ele>795.4</ele>
        <time>2016-07-24T08:33:03Z</time>
      </trkpt>
      <trkpt lat="42.40743" lon="0.05908">
        <ele>795.6</ele>
        <time>2016-07-24T08:33:10Z</time>
      </trkpt>
      <trkpt lat="42.40742" lon="0.05905">
        <ele>795.4</ele>
        <time>2016-07-24T08:33:15Z</time>
      </trkpt>
      <trkpt lat="42.4074" lon="0.05902">
        <ele>795.5</ele>
        <time>2016-07-24T08:33:22Z</time>
      </trkpt>
      <trkpt lat="42.40737" lon="0.05901">
        <ele>796.1</ele>
        <time>2016-07-24T08:33:27Z</time>
      </trkpt>
      <trkpt lat="42.40734" lon="0.059">
        <ele>796.3</ele>
        <time>2016-07-24T08:33:30Z</time>
      </trkpt>
      <trkpt lat="42.40732" lon="0.05897">
        <ele>796.4</ele>
        <time>2016-07-24T08:33:38Z</time>
      </trkpt>
      <trkpt lat="42.40728" lon="0.05895">
        <ele>797</ele>
        <time>2016-07-24T08:33:41Z</time>
      </trkpt>
      <trkpt lat="42.40726" lon="0.05893">
        <ele>797.3</ele>
        <time>2016-07-24T08:33:43Z</time>
      </trkpt>
      <trkpt lat="42.40723" lon="0.0589">
        <ele>797.5</ele>
        <time>2016-07-24T08:33:45Z</time>
      </trkpt>
      <trkpt lat="42.40721" lon="0.05888">
        <ele>797.7</ele>
        <time>2016-07-24T08:33:47Z</time>
      </trkpt>
      <trkpt lat="42.40718" lon="0.05886">
        <ele>798.2</ele>
        <time>2016-07-24T08:33:49Z</time>
      </trkpt>
      <trkpt lat="42.40714" lon="0.05885">
        <ele>798.8</ele>
        <time>2016-07-24T08:33:51Z</time>
      </trkpt>
      <trkpt lat="42.40711" lon="0.05883">
        <ele>799.3</ele>
        <time>2016-07-24T08:33:53Z</time>
      </trkpt>
      <trkpt lat="42.40708" lon="0.05881">
        <ele>799.7</ele>
        <time>2016-07-24T08:33:55Z</time>
      </trkpt>
      <trkpt lat="42.40704" lon="0.05879">
        <ele>799.8</ele>
        <time>2016-07-24T08:33:57Z</time>
      </trkpt>
      <trkpt lat="42.407" lon="0.05878">
        <ele>800.1</ele>
        <time>2016-07-24T08:33:59Z</time>
      </trkpt>
      <trkpt lat="42.40696" lon="0.05877">
        <ele>800.4</ele>
        <time>2016-07-24T08:34:01Z</time>
      </trkpt>
      <trkpt lat="42.40691" lon="0.05875">
        <ele>800.7</ele>
        <time>2016-07-24T08:34:03Z</time>
      </trkpt>
      <trkpt lat="42.40688" lon="0.05875">
        <ele>801</ele>
        <time>2016-07-24T08:34:04Z</time>
      </trkpt>
      <trkpt lat="42.40685" lon="0.05876">
        <ele>801.4</ele>
        <time>2016-07-24T08:34:05Z</time>
      </trkpt>
      <trkpt lat="42.40681" lon="0.05877">
        <ele>801.8</ele>
        <time>2016-07-24T08:34:06Z</time>
      </trkpt>
      <trkpt lat="42.40678" lon="0.05878">
        <ele>802.2</ele>
        <time>2016-07-24T08:34:07Z</time>
      </trkpt>
      <trkpt lat="42.40675" lon="0.05878">
        <ele>802.6</ele>
        <time>2016-07-24T08:34:08Z</time>
      </trkpt>
      <trkpt lat="42.40672" lon="0.05879">
        <ele>803</ele>
        <time>2016-07-24T08:34:09Z</time>
      </trkpt>
      <trkpt lat="42.40669" lon="0.05879">
        <ele>803.3</ele>
        <time>2016-07-24T08:34:10Z</time>
      </trkpt>
      <trkpt lat="42.40666" lon="0.05879">
        <ele>803.6</ele>
        <time>2016-07-24T08:34:11Z</time>
      </trkpt>
      <trkpt lat="42.40661" lon="0.05878">
        <ele>804</ele>
        <time>2016-07-24T08:34:13Z</time>
      </trkpt>
      <trkpt lat="42.40658" lon="0.05877">
        <ele>804.2</ele>
        <time>2016-07-24T08:34:15Z</time>
      </trkpt>
      <trkpt lat="42.40655" lon="0.05878">
        <ele>804.5</ele>
        <time>2016-07-24T08:34:17Z</time>
      </trkpt>
      <trkpt lat="42.40653" lon="0.05881">
        <ele>805.1</ele>
        <time>2016-07-24T08:34:19Z</time>
      </trkpt>
      <trkpt lat="42.40653" lon="0.05885">
        <ele>805.7</ele>
        <time>2016-07-24T08:34:23Z</time>
      </trkpt>
      <trkpt lat="42.4065" lon="0.05886">
        <ele>806.1</ele>
        <time>2016-07-24T08:34:28Z</time>
      </trkpt>
      <trkpt lat="42.40646" lon="0.05885">
        <ele>806.3</ele>
        <time>2016-07-24T08:34:36Z</time>
      </trkpt>
      <trkpt lat="42.40642" lon="0.05883">
        <ele>806.6</ele>
        <time>2016-07-24T08:34:38Z</time>
      </trkpt>
      <trkpt lat="42.40639" lon="0.05882">
        <ele>806.7</ele>
        <time>2016-07-24T08:34:39Z</time>
      </trkpt>
      <trkpt lat="42.40636" lon="0.0588">
        <ele>806.8</ele>
        <time>2016-07-24T08:34:40Z</time>
      </trkpt>
      <trkpt lat="42.40632" lon="0.05878">
        <ele>806.7</ele>
        <time>2016-07-24T08:34:41Z</time>
      </trkpt>
      <trkpt lat="42.4063" lon="0.05875">
        <ele>806.5</ele>
        <time>2016-07-24T08:34:42Z</time>
      </trkpt>
      <trkpt lat="42.40628" lon="0.0587">
        <ele>806.9</ele>
        <time>2016-07-24T08:34:44Z</time>
      </trkpt>
      <trkpt lat="42.40627" lon="0.05865">
        <ele>807.3</ele>
        <time>2016-07-24T08:34:47Z</time>
      </trkpt>
      <trkpt lat="42.40626" lon="0.05862">
        <ele>807.6</ele>
        <time>2016-07-24T08:34:52Z</time>
      </trkpt>
      <trkpt lat="42.40624" lon="0.05858">
        <ele>807.8</ele>
        <time>2016-07-24T08:34:56Z</time>
      </trkpt>
      <trkpt lat="42.40622" lon="0.05854">
        <ele>808</ele>
        <time>2016-07-24T08:34:58Z</time>
      </trkpt>
      <trkpt lat="42.40619" lon="0.05851">
        <ele>808.2</ele>
        <time>2016-07-24T08:35:00Z</time>
      </trkpt>
      <trkpt lat="42.40616" lon="0.05847">
        <ele>808.3</ele>
        <time>2016-07-24T08:35:02Z</time>
      </trkpt>
      <trkpt lat="42.40614" lon="0.05843">
        <ele>808.4</ele>
        <time>2016-07-24T08:35:04Z</time>
      </trkpt>
      <trkpt lat="42.40612" lon="0.05839">
        <ele>808.5</ele>
        <time>2016-07-24T08:35:06Z</time>
      </trkpt>
      <trkpt lat="42.40609" lon="0.05835">
        <ele>808.6</ele>
        <time>2016-07-24T08:35:08Z</time>
      </trkpt>
      <trkpt lat="42.40606" lon="0.05833">
        <ele>808.6</ele>
        <time>2016-07-24T08:35:10Z</time>
      </trkpt>
      <trkpt lat="42.40604" lon="0.05829">
        <ele>808.5</ele>
        <time>2016-07-24T08:35:12Z</time>
      </trkpt>
      <trkpt lat="42.40602" lon="0.05826">
        <ele>808.5</ele>
        <time>2016-07-24T08:35:14Z</time>
      </trkpt>
      <trkpt lat="42.40601" lon="0.05822">
        <ele>808.5</ele>
        <time>2016-07-24T08:35:16Z</time>
      </trkpt>
      <trkpt lat="42.40599" lon="0.05817">
        <ele>808.4</ele>
        <time>2016-07-24T08:35:18Z</time>
      </trkpt>
      <trkpt lat="42.40597" lon="0.05813">
        <ele>808.3</ele>
        <time>2016-07-24T08:35:20Z</time>
      </trkpt>
      <trkpt lat="42.40594" lon="0.05809">
        <ele>808.1</ele>
        <time>2016-07-24T08:35:22Z</time>
      </trkpt>
      <trkpt lat="42.40593" lon="0.05804">
        <ele>808</ele>
        <time>2016-07-24T08:35:24Z</time>
      </trkpt>
      <trkpt lat="42.40592" lon="0.05798">
        <ele>807.9</ele>
        <time>2016-07-24T08:35:26Z</time>
      </trkpt>
      <trkpt lat="42.40591" lon="0.05792">
        <ele>807.7</ele>
        <time>2016-07-24T08:35:28Z</time>
      </trkpt>
      <trkpt lat="42.4059" lon="0.05789">
        <ele>807.5</ele>
        <time>2016-07-24T08:35:29Z</time>
      </trkpt>
      <trkpt lat="42.40588" lon="0.05784">
        <ele>807.1</ele>
        <time>2016-07-24T08:35:30Z</time>
      </trkpt>
      <trkpt lat="42.40585" lon="0.0578">
        <ele>806.6</ele>
        <time>2016-07-24T08:35:31Z</time>
      </trkpt>
      <trkpt lat="42.40583" lon="0.05775">
        <ele>806.2</ele>
        <time>2016-07-24T08:35:32Z</time>
      </trkpt>
      <trkpt lat="42.4058" lon="0.05772">
        <ele>805.6</ele>
        <time>2016-07-24T08:35:33Z</time>
      </trkpt>
      <trkpt lat="42.40577" lon="0.05768">
        <ele>805</ele>
        <time>2016-07-24T08:35:34Z</time>
      </trkpt>
      <trkpt lat="42.40573" lon="0.05765">
        <ele>804.4</ele>
        <time>2016-07-24T08:35:35Z</time>
      </trkpt>
      <trkpt lat="42.40569" lon="0.05762">
        <ele>803.6</ele>
        <time>2016-07-24T08:35:36Z</time>
      </trkpt>
      <trkpt lat="42.40566" lon="0.05759">
        <ele>802.9</ele>
        <time>2016-07-24T08:35:37Z</time>
      </trkpt>
      <trkpt lat="42.40562" lon="0.05755">
        <ele>802</ele>
        <time>2016-07-24T08:35:38Z</time>
      </trkpt>
      <trkpt lat="42.40558" lon="0.05752">
        <ele>801.1</ele>
        <time>2016-07-24T08:35:39Z</time>
      </trkpt>
      <trkpt lat="42.40554" lon="0.05749">
        <ele>800.2</ele>
        <time>2016-07-24T08:35:40Z</time>
      </trkpt>
      <trkpt lat="42.4055" lon="0.05746">
        <ele>799.4</ele>
        <time>2016-07-24T08:35:41Z</time>
      </trkpt>
      <trkpt lat="42.40546" lon="0.05744">
        <ele>798.6</ele>
        <time>2016-07-24T08:35:42Z</time>
      </trkpt>
      <trkpt lat="42.40543" lon="0.05743">
        <ele>798</ele>
        <time>2016-07-24T08:35:43Z</time>
      </trkpt>
      <trkpt lat="42.40541" lon="0.05742">
        <ele>797.7</ele>
        <time>2016-07-24T08:35:44Z</time>
      </trkpt>
      <trkpt lat="42.40537" lon="0.05741">
        <ele>797.7</ele>
        <time>2016-07-24T08:35:45Z</time>
      </trkpt>
      <trkpt lat="42.40534" lon="0.0574">
        <ele>797.7</ele>
        <time>2016-07-24T08:35:46Z</time>
      </trkpt>
      <trkpt lat="42.40531" lon="0.05737">
        <ele>797.6</ele>
        <time>2016-07-24T08:35:48Z</time>
      </trkpt>
      <trkpt lat="42.40528" lon="0.05734">
        <ele>797.4</ele>
        <time>2016-07-24T08:35:50Z</time>
      </trkpt>
      <trkpt lat="42.40526" lon="0.05731">
        <ele>797.3</ele>
        <time>2016-07-24T08:35:52Z</time>
      </trkpt>
      <trkpt lat="42.40524" lon="0.05727">
        <ele>796.9</ele>
        <time>2016-07-24T08:35:54Z</time>
      </trkpt>
      <trkpt lat="42.40522" lon="0.05724">
        <ele>796.8</ele>
        <time>2016-07-24T08:35:56Z</time>
      </trkpt>
      <trkpt lat="42.40519" lon="0.05725">
        <ele>796.9</ele>
        <time>2016-07-24T08:35:59Z</time>
      </trkpt>
      <trkpt lat="42.40517" lon="0.05726">
        <ele>797.2</ele>
        <time>2016-07-24T08:36:04Z</time>
      </trkpt>
      <trkpt lat="42.40517" lon="0.05721">
        <ele>796.7</ele>
        <time>2016-07-24T08:36:09Z</time>
      </trkpt>
      <trkpt lat="42.40515" lon="0.05718">
        <ele>796.5</ele>
        <time>2016-07-24T08:36:12Z</time>
      </trkpt>
      <trkpt lat="42.40513" lon="0.05716">
        <ele>796.5</ele>
        <time>2016-07-24T08:36:13Z</time>
      </trkpt>
      <trkpt lat="42.40509" lon="0.05713">
        <ele>796.4</ele>
        <time>2016-07-24T08:36:15Z</time>
      </trkpt>
      <trkpt lat="42.40506" lon="0.0571">
        <ele>796.3</ele>
        <time>2016-07-24T08:36:18Z</time>
      </trkpt>
      <trkpt lat="42.40504" lon="0.05706">
        <ele>795.9</ele>
        <time>2016-07-24T08:36:20Z</time>
      </trkpt>
      <trkpt lat="42.40502" lon="0.05701">
        <ele>795.4</ele>
        <time>2016-07-24T08:36:22Z</time>
      </trkpt>
      <trkpt lat="42.40501" lon="0.05696">
        <ele>794.7</ele>
        <time>2016-07-24T08:36:24Z</time>
      </trkpt>
      <trkpt lat="42.405" lon="0.0569">
        <ele>794.1</ele>
        <time>2016-07-24T08:36:26Z</time>
      </trkpt>
      <trkpt lat="42.40498" lon="0.05685">
        <ele>793.6</ele>
        <time>2016-07-24T08:36:28Z</time>
      </trkpt>
      <trkpt lat="42.40495" lon="0.05681">
        <ele>793.3</ele>
        <time>2016-07-24T08:36:30Z</time>
      </trkpt>
      <trkpt lat="42.40493" lon="0.05677">
        <ele>793.1</ele>
        <time>2016-07-24T08:36:32Z</time>
      </trkpt>
      <trkpt lat="42.40491" lon="0.05673">
        <ele>792.9</ele>
        <time>2016-07-24T08:36:34Z</time>
      </trkpt>
      <trkpt lat="42.40488" lon="0.05667">
        <ele>792.5</ele>
        <time>2016-07-24T08:36:36Z</time>
      </trkpt>
      <trkpt lat="42.40487" lon="0.05663">
        <ele>792.3</ele>
        <time>2016-07-24T08:36:37Z</time>
      </trkpt>
      <trkpt lat="42.40485" lon="0.05659">
        <ele>792.1</ele>
        <time>2016-07-24T08:36:38Z</time>
      </trkpt>
      <trkpt lat="42.40483" lon="0.05655">
        <ele>792</ele>
        <time>2016-07-24T08:36:39Z</time>
      </trkpt>
      <trkpt lat="42.40481" lon="0.05651">
        <ele>792</ele>
        <time>2016-07-24T08:36:40Z</time>
      </trkpt>
      <trkpt lat="42.40479" lon="0.05648">
        <ele>792</ele>
        <time>2016-07-24T08:36:41Z</time>
      </trkpt>
      <trkpt lat="42.40476" lon="0.05644">
        <ele>792.2</ele>
        <time>2016-07-24T08:36:43Z</time>
      </trkpt>
      <trkpt lat="42.40473" lon="0.05642">
        <ele>792.5</ele>
        <time>2016-07-24T08:36:45Z</time>
      </trkpt>
      <trkpt lat="42.4047" lon="0.0564">
        <ele>792.9</ele>
        <time>2016-07-24T08:36:47Z</time>
      </trkpt>
      <trkpt lat="42.40465" lon="0.05639">
        <ele>793.6</ele>
        <time>2016-07-24T08:36:49Z</time>
      </trkpt>
      <trkpt lat="42.4046" lon="0.05638">
        <ele>794.5</ele>
        <time>2016-07-24T08:36:51Z</time>
      </trkpt>
      <trkpt lat="42.40455" lon="0.05637">
        <ele>795.6</ele>
        <time>2016-07-24T08:36:53Z</time>
      </trkpt>
      <trkpt lat="42.40452" lon="0.05636">
        <ele>796.3</ele>
        <time>2016-07-24T08:36:54Z</time>
      </trkpt>
      <trkpt lat="42.40449" lon="0.05636">
        <ele>797</ele>
        <time>2016-07-24T08:36:55Z</time>
      </trkpt>
      <trkpt lat="42.40445" lon="0.05636">
        <ele>798.2</ele>
        <time>2016-07-24T08:36:57Z</time>
      </trkpt>
      <trkpt lat="42.40441" lon="0.05635">
        <ele>799.2</ele>
        <time>2016-07-24T08:36:59Z</time>
      </trkpt>
      <trkpt lat="42.40439" lon="0.05633">
        <ele>799.7</ele>
        <time>2016-07-24T08:37:01Z</time>
      </trkpt>
      <trkpt lat="42.40437" lon="0.05627">
        <ele>799.9</ele>
        <time>2016-07-24T08:37:03Z</time>
      </trkpt>
      <trkpt lat="42.40436" lon="0.05621">
        <ele>799.5</ele>
        <time>2016-07-24T08:37:05Z</time>
      </trkpt>
      <trkpt lat="42.40435" lon="0.05616">
        <ele>799</ele>
        <time>2016-07-24T08:37:07Z</time>
      </trkpt>
      <trkpt lat="42.40436" lon="0.05611">
        <ele>797.7</ele>
        <time>2016-07-24T08:37:09Z</time>
      </trkpt>
      <trkpt lat="42.40437" lon="0.05605">
        <ele>796.3</ele>
        <time>2016-07-24T08:37:11Z</time>
      </trkpt>
      <trkpt lat="42.40438" lon="0.05601">
        <ele>795.4</ele>
        <time>2016-07-24T08:37:12Z</time>
      </trkpt>
      <trkpt lat="42.40439" lon="0.05597">
        <ele>794.5</ele>
        <time>2016-07-24T08:37:13Z</time>
      </trkpt>
      <trkpt lat="42.4044" lon="0.05594">
        <ele>793.6</ele>
        <time>2016-07-24T08:37:14Z</time>
      </trkpt>
      <trkpt lat="42.40442" lon="0.05591">
        <ele>792.7</ele>
        <time>2016-07-24T08:37:15Z</time>
      </trkpt>
      <trkpt lat="42.40445" lon="0.05586">
        <ele>791.1</ele>
        <time>2016-07-24T08:37:17Z</time>
      </trkpt>
      <trkpt lat="42.40448" lon="0.05584">
        <ele>789.9</ele>
        <time>2016-07-24T08:37:19Z</time>
      </trkpt>
      <trkpt lat="42.40451" lon="0.05582">
        <ele>789.1</ele>
        <time>2016-07-24T08:37:23Z</time>
      </trkpt>
      <trkpt lat="42.40454" lon="0.05581">
        <ele>788.1</ele>
        <time>2016-07-24T08:37:27Z</time>
      </trkpt>
      <trkpt lat="42.40457" lon="0.05579">
        <ele>787.2</ele>
        <time>2016-07-24T08:37:30Z</time>
      </trkpt>
      <trkpt lat="42.4046" lon="0.05577">
        <ele>786.1</ele>
        <time>2016-07-24T08:37:32Z</time>
      </trkpt>
      <trkpt lat="42.40464" lon="0.05573">
        <ele>784.6</ele>
        <time>2016-07-24T08:37:34Z</time>
      </trkpt>
      <trkpt lat="42.40465" lon="0.0557">
        <ele>783.7</ele>
        <time>2016-07-24T08:37:35Z</time>
      </trkpt>
      <trkpt lat="42.40467" lon="0.05565">
        <ele>782.5</ele>
        <time>2016-07-24T08:37:37Z</time>
      </trkpt>
      <trkpt lat="42.40467" lon="0.05561">
        <ele>782</ele>
        <time>2016-07-24T08:37:39Z</time>
      </trkpt>
      <trkpt lat="42.40467" lon="0.05555">
        <ele>780.9</ele>
        <time>2016-07-24T08:37:41Z</time>
      </trkpt>
      <trkpt lat="42.40467" lon="0.05551">
        <ele>780.1</ele>
        <time>2016-07-24T08:37:42Z</time>
      </trkpt>
      <trkpt lat="42.40467" lon="0.05547">
        <ele>779.5</ele>
        <time>2016-07-24T08:37:43Z</time>
      </trkpt>
      <trkpt lat="42.40466" lon="0.05541">
        <ele>778.8</ele>
        <time>2016-07-24T08:37:45Z</time>
      </trkpt>
      <trkpt lat="42.40465" lon="0.05533">
        <ele>778</ele>
        <time>2016-07-24T08:37:47Z</time>
      </trkpt>
      <trkpt lat="42.40464" lon="0.05528">
        <ele>777.4</ele>
        <time>2016-07-24T08:37:48Z</time>
      </trkpt>
      <trkpt lat="42.40463" lon="0.05523">
        <ele>776.8</ele>
        <time>2016-07-24T08:37:49Z</time>
      </trkpt>
      <trkpt lat="42.40463" lon="0.05519">
        <ele>776.2</ele>
        <time>2016-07-24T08:37:50Z</time>
      </trkpt>
      <trkpt lat="42.40462" lon="0.05512">
        <ele>775.4</ele>
        <time>2016-07-24T08:37:52Z</time>
      </trkpt>
      <trkpt lat="42.40461" lon="0.05507">
        <ele>774.9</ele>
        <time>2016-07-24T08:37:54Z</time>
      </trkpt>
      <trkpt lat="42.40461" lon="0.05503">
        <ele>774.4</ele>
        <time>2016-07-24T08:37:56Z</time>
      </trkpt>
      <trkpt lat="42.40461" lon="0.05499">
        <ele>773.8</ele>
        <time>2016-07-24T08:41:02Z</time>
      </trkpt>
      <trkpt lat="42.40459" lon="0.05497">
        <ele>773.8</ele>
        <time>2016-07-24T08:41:04Z</time>
      </trkpt>
      <trkpt lat="42.40457" lon="0.0549">
        <ele>773.1</ele>
        <time>2016-07-24T08:41:06Z</time>
      </trkpt>
      <trkpt lat="42.40455" lon="0.05486">
        <ele>772.6</ele>
        <time>2016-07-24T08:41:07Z</time>
      </trkpt>
      <trkpt lat="42.40454" lon="0.05481">
        <ele>772.2</ele>
        <time>2016-07-24T08:41:08Z</time>
      </trkpt>
      <trkpt lat="42.40452" lon="0.05477">
        <ele>771.6</ele>
        <time>2016-07-24T08:41:09Z</time>
      </trkpt>
      <trkpt lat="42.40451" lon="0.05472">
        <ele>771</ele>
        <time>2016-07-24T08:41:10Z</time>
      </trkpt>
      <trkpt lat="42.4045" lon="0.05467">
        <ele>770.3</ele>
        <time>2016-07-24T08:41:11Z</time>
      </trkpt>
      <trkpt lat="42.4045" lon="0.05463">
        <ele>769.6</ele>
        <time>2016-07-24T08:41:12Z</time>
      </trkpt>
      <trkpt lat="42.4045" lon="0.05459">
        <ele>768.9</ele>
        <time>2016-07-24T08:41:13Z</time>
      </trkpt>
      <trkpt lat="42.4045" lon="0.05455">
        <ele>768.4</ele>
        <time>2016-07-24T08:41:14Z</time>
      </trkpt>
      <trkpt lat="42.4045" lon="0.05451">
        <ele>767.9</ele>
        <time>2016-07-24T08:41:15Z</time>
      </trkpt>
      <trkpt lat="42.4045" lon="0.05447">
        <ele>767.5</ele>
        <time>2016-07-24T08:41:16Z</time>
      </trkpt>
      <trkpt lat="42.40448" lon="0.05442">
        <ele>766.8</ele>
        <time>2016-07-24T08:41:18Z</time>
      </trkpt>
      <trkpt lat="42.40446" lon="0.05437">
        <ele>766.4</ele>
        <time>2016-07-24T08:41:20Z</time>
      </trkpt>
      <trkpt lat="42.40442" lon="0.05432">
        <ele>765.8</ele>
        <time>2016-07-24T08:41:22Z</time>
      </trkpt>
      <trkpt lat="42.4044" lon="0.05429">
        <ele>765.4</ele>
        <time>2016-07-24T08:41:23Z</time>
      </trkpt>
      <trkpt lat="42.40438" lon="0.05425">
        <ele>765</ele>
        <time>2016-07-24T08:41:24Z</time>
      </trkpt>
      <trkpt lat="42.40436" lon="0.05422">
        <ele>764.6</ele>
        <time>2016-07-24T08:41:25Z</time>
      </trkpt>
      <trkpt lat="42.40433" lon="0.0542">
        <ele>764.3</ele>
        <time>2016-07-24T08:41:26Z</time>
      </trkpt>
      <trkpt lat="42.40431" lon="0.05417">
        <ele>763.9</ele>
        <time>2016-07-24T08:41:27Z</time>
      </trkpt>
      <trkpt lat="42.40428" lon="0.05413">
        <ele>763.3</ele>
        <time>2016-07-24T08:41:28Z</time>
      </trkpt>
      <trkpt lat="42.40426" lon="0.0541">
        <ele>762.7</ele>
        <time>2016-07-24T08:41:29Z</time>
      </trkpt>
      <trkpt lat="42.40424" lon="0.05406">
        <ele>762.1</ele>
        <time>2016-07-24T08:41:30Z</time>
      </trkpt>
      <trkpt lat="42.40423" lon="0.05403">
        <ele>761.5</ele>
        <time>2016-07-24T08:41:31Z</time>
      </trkpt>
      <trkpt lat="42.40421" lon="0.05399">
        <ele>760.8</ele>
        <time>2016-07-24T08:41:32Z</time>
      </trkpt>
      <trkpt lat="42.40421" lon="0.05394">
        <ele>759.8</ele>
        <time>2016-07-24T08:41:33Z</time>
      </trkpt>
      <trkpt lat="42.4042" lon="0.05388">
        <ele>758.7</ele>
        <time>2016-07-24T08:41:34Z</time>
      </trkpt>
      <trkpt lat="42.40419" lon="0.05383">
        <ele>757.6</ele>
        <time>2016-07-24T08:41:35Z</time>
      </trkpt>
      <trkpt lat="42.40419" lon="0.05378">
        <ele>756.6</ele>
        <time>2016-07-24T08:41:36Z</time>
      </trkpt>
      <trkpt lat="42.40418" lon="0.05372">
        <ele>756</ele>
        <time>2016-07-24T08:41:37Z</time>
      </trkpt>
      <trkpt lat="42.40418" lon="0.05366">
        <ele>755.8</ele>
        <time>2016-07-24T08:41:38Z</time>
      </trkpt>
      <trkpt lat="42.40417" lon="0.05361">
        <ele>755.6</ele>
        <time>2016-07-24T08:41:39Z</time>
      </trkpt>
      <trkpt lat="42.40416" lon="0.05356">
        <ele>755.4</ele>
        <time>2016-07-24T08:41:40Z</time>
      </trkpt>
      <trkpt lat="42.40415" lon="0.05351">
        <ele>755.1</ele>
        <time>2016-07-24T08:41:41Z</time>
      </trkpt>
      <trkpt lat="42.40413" lon="0.05345">
        <ele>754.7</ele>
        <time>2016-07-24T08:41:42Z</time>
      </trkpt>
      <trkpt lat="42.40411" lon="0.0534">
        <ele>754.4</ele>
        <time>2016-07-24T08:41:43Z</time>
      </trkpt>
      <trkpt lat="42.40409" lon="0.05335">
        <ele>754</ele>
        <time>2016-07-24T08:41:44Z</time>
      </trkpt>
      <trkpt lat="42.40408" lon="0.05332">
        <ele>753.8</ele>
        <time>2016-07-24T08:41:45Z</time>
      </trkpt>
      <trkpt lat="42.40408" lon="0.05325">
        <ele>753.6</ele>
        <time>2016-07-24T08:41:47Z</time>
      </trkpt>
      <trkpt lat="42.40408" lon="0.05319">
        <ele>753.4</ele>
        <time>2016-07-24T08:41:49Z</time>
      </trkpt>
      <trkpt lat="42.40406" lon="0.05316">
        <ele>753</ele>
        <time>2016-07-24T08:41:50Z</time>
      </trkpt>
      <trkpt lat="42.40403" lon="0.05314">
        <ele>752.6</ele>
        <time>2016-07-24T08:41:51Z</time>
      </trkpt>
      <trkpt lat="42.404" lon="0.05312">
        <ele>752.1</ele>
        <time>2016-07-24T08:41:52Z</time>
      </trkpt>
      <trkpt lat="42.40397" lon="0.0531">
        <ele>751.7</ele>
        <time>2016-07-24T08:41:53Z</time>
      </trkpt>
      <trkpt lat="42.40393" lon="0.05309">
        <ele>751.2</ele>
        <time>2016-07-24T08:41:54Z</time>
      </trkpt>
      <trkpt lat="42.40389" lon="0.05308">
        <ele>750.6</ele>
        <time>2016-07-24T08:41:55Z</time>
      </trkpt>
      <trkpt lat="42.40384" lon="0.05306">
        <ele>750</ele>
        <time>2016-07-24T08:41:56Z</time>
      </trkpt>
      <trkpt lat="42.4038" lon="0.05305">
        <ele>749.4</ele>
        <time>2016-07-24T08:41:57Z</time>
      </trkpt>
      <trkpt lat="42.40376" lon="0.05301">
        <ele>748.6</ele>
        <time>2016-07-24T08:41:58Z</time>
      </trkpt>
      <trkpt lat="42.40372" lon="0.05296">
        <ele>748</ele>
        <time>2016-07-24T08:41:59Z</time>
      </trkpt>
      <trkpt lat="42.40368" lon="0.0529">
        <ele>747.5</ele>
        <time>2016-07-24T08:42:00Z</time>
      </trkpt>
      <trkpt lat="42.40366" lon="0.05282">
        <ele>747.8</ele>
        <time>2016-07-24T08:42:01Z</time>
      </trkpt>
      <trkpt lat="42.40364" lon="0.05274">
        <ele>748.2</ele>
        <time>2016-07-24T08:42:02Z</time>
      </trkpt>
      <trkpt lat="42.40363" lon="0.05265">
        <ele>748.6</ele>
        <time>2016-07-24T08:42:03Z</time>
      </trkpt>
      <trkpt lat="42.4036" lon="0.05257">
        <ele>749</ele>
        <time>2016-07-24T08:42:04Z</time>
      </trkpt>
      <trkpt lat="42.40358" lon="0.05249">
        <ele>749.3</ele>
        <time>2016-07-24T08:42:05Z</time>
      </trkpt>
      <trkpt lat="42.40356" lon="0.0524">
        <ele>749.9</ele>
        <time>2016-07-24T08:42:06Z</time>
      </trkpt>
      <trkpt lat="42.40355" lon="0.05232">
        <ele>750.3</ele>
        <time>2016-07-24T08:42:07Z</time>
      </trkpt>
      <trkpt lat="42.40352" lon="0.05224">
        <ele>750.8</ele>
        <time>2016-07-24T08:42:08Z</time>
      </trkpt>
      <trkpt lat="42.4035" lon="0.05217">
        <ele>751.1</ele>
        <time>2016-07-24T08:42:09Z</time>
      </trkpt>
      <trkpt lat="42.40348" lon="0.05211">
        <ele>751.5</ele>
        <time>2016-07-24T08:42:10Z</time>
      </trkpt>
      <trkpt lat="42.40345" lon="0.05199">
        <ele>751.1</ele>
        <time>2016-07-24T08:42:12Z</time>
      </trkpt>
      <trkpt lat="42.40345" lon="0.05193">
        <ele>750.7</ele>
        <time>2016-07-24T08:42:13Z</time>
      </trkpt>
      <trkpt lat="42.40346" lon="0.05188">
        <ele>750.5</ele>
        <time>2016-07-24T08:42:14Z</time>
      </trkpt>
      <trkpt lat="42.40347" lon="0.05184">
        <ele>750.4</ele>
        <time>2016-07-24T08:42:15Z</time>
      </trkpt>
      <trkpt lat="42.40348" lon="0.05179">
        <ele>750.2</ele>
        <time>2016-07-24T08:42:16Z</time>
      </trkpt>
      <trkpt lat="42.40347" lon="0.05174">
        <ele>749.9</ele>
        <time>2016-07-24T08:42:17Z</time>
      </trkpt>
      <trkpt lat="42.40346" lon="0.05169">
        <ele>749.6</ele>
        <time>2016-07-24T08:42:18Z</time>
      </trkpt>
      <trkpt lat="42.40345" lon="0.05163">
        <ele>749.2</ele>
        <time>2016-07-24T08:42:19Z</time>
      </trkpt>
      <trkpt lat="42.40343" lon="0.05157">
        <ele>748.8</ele>
        <time>2016-07-24T08:42:20Z</time>
      </trkpt>
      <trkpt lat="42.40341" lon="0.05151">
        <ele>748.3</ele>
        <time>2016-07-24T08:42:21Z</time>
      </trkpt>
      <trkpt lat="42.40338" lon="0.05143">
        <ele>747.7</ele>
        <time>2016-07-24T08:42:22Z</time>
      </trkpt>
      <trkpt lat="42.40335" lon="0.05135">
        <ele>747.1</ele>
        <time>2016-07-24T08:42:23Z</time>
      </trkpt>
      <trkpt lat="42.40332" lon="0.05127">
        <ele>746.5</ele>
        <time>2016-07-24T08:42:24Z</time>
      </trkpt>
      <trkpt lat="42.4033" lon="0.05118">
        <ele>746.3</ele>
        <time>2016-07-24T08:42:25Z</time>
      </trkpt>
      <trkpt lat="42.40327" lon="0.05109">
        <ele>746.1</ele>
        <time>2016-07-24T08:42:26Z</time>
      </trkpt>
      <trkpt lat="42.40326" lon="0.051">
        <ele>746</ele>
        <time>2016-07-24T08:42:27Z</time>
      </trkpt>
      <trkpt lat="42.40325" lon="0.05091">
        <ele>746</ele>
        <time>2016-07-24T08:42:28Z</time>
      </trkpt>
      <trkpt lat="42.40324" lon="0.05082">
        <ele>746</ele>
        <time>2016-07-24T08:42:29Z</time>
      </trkpt>
      <trkpt lat="42.40322" lon="0.05074">
        <ele>745.9</ele>
        <time>2016-07-24T08:42:30Z</time>
      </trkpt>
      <trkpt lat="42.40321" lon="0.05066">
        <ele>745.9</ele>
        <time>2016-07-24T08:42:31Z</time>
      </trkpt>
      <trkpt lat="42.40319" lon="0.05058">
        <ele>745.9</ele>
        <time>2016-07-24T08:42:32Z</time>
      </trkpt>
      <trkpt lat="42.40316" lon="0.05044">
        <ele>746</ele>
        <time>2016-07-24T08:42:34Z</time>
      </trkpt>
      <trkpt lat="42.40314" lon="0.05038">
        <ele>746.3</ele>
        <time>2016-07-24T08:42:35Z</time>
      </trkpt>
      <trkpt lat="42.40313" lon="0.05032">
        <ele>746.7</ele>
        <time>2016-07-24T08:42:36Z</time>
      </trkpt>
      <trkpt lat="42.40312" lon="0.05025">
        <ele>747.1</ele>
        <time>2016-07-24T08:42:37Z</time>
      </trkpt>
      <trkpt lat="42.40311" lon="0.0502">
        <ele>747.6</ele>
        <time>2016-07-24T08:42:38Z</time>
      </trkpt>
      <trkpt lat="42.4031" lon="0.05014">
        <ele>748</ele>
        <time>2016-07-24T08:42:39Z</time>
      </trkpt>
      <trkpt lat="42.40308" lon="0.05009">
        <ele>748.5</ele>
        <time>2016-07-24T08:42:40Z</time>
      </trkpt>
      <trkpt lat="42.40306" lon="0.05004">
        <ele>748.9</ele>
        <time>2016-07-24T08:42:41Z</time>
      </trkpt>
      <trkpt lat="42.40305" lon="0.04999">
        <ele>749.4</ele>
        <time>2016-07-24T08:42:42Z</time>
      </trkpt>
      <trkpt lat="42.40304" lon="0.04994">
        <ele>749.8</ele>
        <time>2016-07-24T08:42:43Z</time>
      </trkpt>
      <trkpt lat="42.40303" lon="0.04989">
        <ele>750.3</ele>
        <time>2016-07-24T08:42:44Z</time>
      </trkpt>
      <trkpt lat="42.40302" lon="0.04985">
        <ele>750.7</ele>
        <time>2016-07-24T08:42:45Z</time>
      </trkpt>
      <trkpt lat="42.40301" lon="0.04979">
        <ele>751.3</ele>
        <time>2016-07-24T08:42:47Z</time>
      </trkpt>
      <trkpt lat="42.403" lon="0.04972">
        <ele>751.9</ele>
        <time>2016-07-24T08:42:49Z</time>
      </trkpt>
      <trkpt lat="42.40299" lon="0.04965">
        <ele>752.6</ele>
        <time>2016-07-24T08:42:51Z</time>
      </trkpt>
      <trkpt lat="42.40299" lon="0.04958">
        <ele>753.2</ele>
        <time>2016-07-24T08:42:53Z</time>
      </trkpt>
      <trkpt lat="42.40298" lon="0.04952">
        <ele>753.7</ele>
        <time>2016-07-24T08:42:55Z</time>
      </trkpt>
      <trkpt lat="42.40297" lon="0.04946">
        <ele>754</ele>
        <time>2016-07-24T08:42:57Z</time>
      </trkpt>
      <trkpt lat="42.40295" lon="0.04941">
        <ele>754.4</ele>
        <time>2016-07-24T08:42:59Z</time>
      </trkpt>
      <trkpt lat="42.40292" lon="0.04932">
        <ele>755.2</ele>
        <time>2016-07-24T08:43:02Z</time>
      </trkpt>
      <trkpt lat="42.40291" lon="0.04926">
        <ele>755.5</ele>
        <time>2016-07-24T08:43:04Z</time>
      </trkpt>
      <trkpt lat="42.4029" lon="0.04921">
        <ele>755.7</ele>
        <time>2016-07-24T08:43:06Z</time>
      </trkpt>
      <trkpt lat="42.40289" lon="0.04915">
        <ele>755.9</ele>
        <time>2016-07-24T08:43:08Z</time>
      </trkpt>
      <trkpt lat="42.40288" lon="0.0491">
        <ele>756</ele>
        <time>2016-07-24T08:43:10Z</time>
      </trkpt>
      <trkpt lat="42.40287" lon="0.04904">
        <ele>756.2</ele>
        <time>2016-07-24T08:43:12Z</time>
      </trkpt>
      <trkpt lat="42.40286" lon="0.04899">
        <ele>756.3</ele>
        <time>2016-07-24T08:43:14Z</time>
      </trkpt>
      <trkpt lat="42.40284" lon="0.04894">
        <ele>756.4</ele>
        <time>2016-07-24T08:43:16Z</time>
      </trkpt>
      <trkpt lat="42.40283" lon="0.04889">
        <ele>756.5</ele>
        <time>2016-07-24T08:43:18Z</time>
      </trkpt>
      <trkpt lat="42.40282" lon="0.04885">
        <ele>756.6</ele>
        <time>2016-07-24T08:43:20Z</time>
      </trkpt>
      <trkpt lat="42.4028" lon="0.0488">
        <ele>756.7</ele>
        <time>2016-07-24T08:43:22Z</time>
      </trkpt>
      <trkpt lat="42.40278" lon="0.04876">
        <ele>756.6</ele>
        <time>2016-07-24T08:43:24Z</time>
      </trkpt>
      <trkpt lat="42.40275" lon="0.04872">
        <ele>756.4</ele>
        <time>2016-07-24T08:43:26Z</time>
      </trkpt>
      <trkpt lat="42.40272" lon="0.04867">
        <ele>756.1</ele>
        <time>2016-07-24T08:43:28Z</time>
      </trkpt>
      <trkpt lat="42.40269" lon="0.04862">
        <ele>755.7</ele>
        <time>2016-07-24T08:43:30Z</time>
      </trkpt>
      <trkpt lat="42.40266" lon="0.04856">
        <ele>755.5</ele>
        <time>2016-07-24T08:43:32Z</time>
      </trkpt>
      <trkpt lat="42.40265" lon="0.04852">
        <ele>755.4</ele>
        <time>2016-07-24T08:43:33Z</time>
      </trkpt>
      <trkpt lat="42.40265" lon="0.04848">
        <ele>755.3</ele>
        <time>2016-07-24T08:43:34Z</time>
      </trkpt>
      <trkpt lat="42.40263" lon="0.04842">
        <ele>755.1</ele>
        <time>2016-07-24T08:43:36Z</time>
      </trkpt>
      <trkpt lat="42.40261" lon="0.04836">
        <ele>755</ele>
        <time>2016-07-24T08:43:38Z</time>
      </trkpt>
      <trkpt lat="42.40258" lon="0.0483">
        <ele>754.7</ele>
        <time>2016-07-24T08:43:40Z</time>
      </trkpt>
      <trkpt lat="42.40257" lon="0.04826">
        <ele>754.6</ele>
        <time>2016-07-24T08:43:41Z</time>
      </trkpt>
      <trkpt lat="42.40256" lon="0.04823">
        <ele>754.5</ele>
        <time>2016-07-24T08:43:42Z</time>
      </trkpt>
      <trkpt lat="42.40254" lon="0.04819">
        <ele>754.3</ele>
        <time>2016-07-24T08:43:43Z</time>
      </trkpt>
      <trkpt lat="42.40252" lon="0.04816">
        <ele>754.2</ele>
        <time>2016-07-24T08:43:44Z</time>
      </trkpt>
      <trkpt lat="42.4025" lon="0.04813">
        <ele>754</ele>
        <time>2016-07-24T08:43:45Z</time>
      </trkpt>
      <trkpt lat="42.40248" lon="0.0481">
        <ele>753.9</ele>
        <time>2016-07-24T08:43:46Z</time>
      </trkpt>
      <trkpt lat="42.40246" lon="0.04807">
        <ele>753.7</ele>
        <time>2016-07-24T08:43:47Z</time>
      </trkpt>
      <trkpt lat="42.40244" lon="0.04803">
        <ele>753.5</ele>
        <time>2016-07-24T08:43:48Z</time>
      </trkpt>
      <trkpt lat="42.40242" lon="0.048">
        <ele>753.4</ele>
        <time>2016-07-24T08:43:49Z</time>
      </trkpt>
      <trkpt lat="42.4024" lon="0.04796">
        <ele>753.3</ele>
        <time>2016-07-24T08:43:50Z</time>
      </trkpt>
      <trkpt lat="42.40239" lon="0.04793">
        <ele>753.2</ele>
        <time>2016-07-24T08:43:51Z</time>
      </trkpt>
      <trkpt lat="42.40237" lon="0.04789">
        <ele>753.4</ele>
        <time>2016-07-24T08:43:52Z</time>
      </trkpt>
      <trkpt lat="42.40236" lon="0.04786">
        <ele>753.6</ele>
        <time>2016-07-24T08:43:53Z</time>
      </trkpt>
      <trkpt lat="42.40234" lon="0.04783">
        <ele>754</ele>
        <time>2016-07-24T08:43:54Z</time>
      </trkpt>
      <trkpt lat="42.40233" lon="0.04779">
        <ele>754.3</ele>
        <time>2016-07-24T08:43:55Z</time>
      </trkpt>
      <trkpt lat="42.40232" lon="0.04776">
        <ele>754.7</ele>
        <time>2016-07-24T08:43:56Z</time>
      </trkpt>
      <trkpt lat="42.40229" lon="0.04769">
        <ele>755.3</ele>
        <time>2016-07-24T08:43:58Z</time>
      </trkpt>
      <trkpt lat="42.40228" lon="0.04766">
        <ele>755.6</ele>
        <time>2016-07-24T08:43:59Z</time>
      </trkpt>
      <trkpt lat="42.40224" lon="0.04758">
        <ele>756.4</ele>
        <time>2016-07-24T08:44:01Z</time>
      </trkpt>
      <trkpt lat="42.40222" lon="0.04754">
        <ele>756.8</ele>
        <time>2016-07-24T08:44:02Z</time>
      </trkpt>
      <trkpt lat="42.4022" lon="0.04749">
        <ele>757.3</ele>
        <time>2016-07-24T08:44:03Z</time>
      </trkpt>
      <trkpt lat="42.40219" lon="0.04743">
        <ele>758</ele>
        <time>2016-07-24T08:44:04Z</time>
      </trkpt>
      <trkpt lat="42.4022" lon="0.04736">
        <ele>758.9</ele>
        <time>2016-07-24T08:44:05Z</time>
      </trkpt>
      <trkpt lat="42.40221" lon="0.0473">
        <ele>759.7</ele>
        <time>2016-07-24T08:44:06Z</time>
      </trkpt>
      <trkpt lat="42.40223" lon="0.04725">
        <ele>760.4</ele>
        <time>2016-07-24T08:44:07Z</time>
      </trkpt>
      <trkpt lat="42.40224" lon="0.04721">
        <ele>761</ele>
        <time>2016-07-24T08:44:08Z</time>
      </trkpt>
      <trkpt lat="42.40226" lon="0.04717">
        <ele>761.6</ele>
        <time>2016-07-24T08:44:09Z</time>
      </trkpt>
      <trkpt lat="42.40227" lon="0.04713">
        <ele>762.1</ele>
        <time>2016-07-24T08:44:10Z</time>
      </trkpt>
      <trkpt lat="42.40228" lon="0.04709">
        <ele>762.6</ele>
        <time>2016-07-24T08:44:11Z</time>
      </trkpt>
      <trkpt lat="42.40229" lon="0.04705">
        <ele>763.3</ele>
        <time>2016-07-24T08:44:12Z</time>
      </trkpt>
      <trkpt lat="42.4023" lon="0.04701">
        <ele>763.9</ele>
        <time>2016-07-24T08:44:13Z</time>
      </trkpt>
      <trkpt lat="42.40231" lon="0.04697">
        <ele>764.7</ele>
        <time>2016-07-24T08:44:14Z</time>
      </trkpt>
      <trkpt lat="42.40232" lon="0.04693">
        <ele>765.4</ele>
        <time>2016-07-24T08:44:15Z</time>
      </trkpt>
      <trkpt lat="42.40233" lon="0.04689">
        <ele>766</ele>
        <time>2016-07-24T08:44:16Z</time>
      </trkpt>
      <trkpt lat="42.40234" lon="0.04685">
        <ele>766.7</ele>
        <time>2016-07-24T08:44:17Z</time>
      </trkpt>
      <trkpt lat="42.40235" lon="0.04681">
        <ele>767.4</ele>
        <time>2016-07-24T08:44:18Z</time>
      </trkpt>
      <trkpt lat="42.40236" lon="0.04677">
        <ele>768</ele>
        <time>2016-07-24T08:44:19Z</time>
      </trkpt>
      <trkpt lat="42.40237" lon="0.04673">
        <ele>768.6</ele>
        <time>2016-07-24T08:44:20Z</time>
      </trkpt>
      <trkpt lat="42.40238" lon="0.04667">
        <ele>769.7</ele>
        <time>2016-07-24T08:44:22Z</time>
      </trkpt>
      <trkpt lat="42.40238" lon="0.04661">
        <ele>770.7</ele>
        <time>2016-07-24T08:44:24Z</time>
      </trkpt>
      <trkpt lat="42.40237" lon="0.04655">
        <ele>771.6</ele>
        <time>2016-07-24T08:44:26Z</time>
      </trkpt>
      <trkpt lat="42.40235" lon="0.0465">
        <ele>772.3</ele>
        <time>2016-07-24T08:44:28Z</time>
      </trkpt>
      <trkpt lat="42.40233" lon="0.04645">
        <ele>773</ele>
        <time>2016-07-24T08:44:30Z</time>
      </trkpt>
      <trkpt lat="42.40233" lon="0.0464">
        <ele>773.7</ele>
        <time>2016-07-24T08:44:32Z</time>
      </trkpt>
      <trkpt lat="42.40232" lon="0.04635">
        <ele>774.5</ele>
        <time>2016-07-24T08:44:34Z</time>
      </trkpt>
      <trkpt lat="42.40232" lon="0.0463">
        <ele>775.2</ele>
        <time>2016-07-24T08:44:36Z</time>
      </trkpt>
      <trkpt lat="42.40234" lon="0.04626">
        <ele>776</ele>
        <time>2016-07-24T08:44:38Z</time>
      </trkpt>
      <trkpt lat="42.40236" lon="0.04622">
        <ele>777.1</ele>
        <time>2016-07-24T08:44:40Z</time>
      </trkpt>
      <trkpt lat="42.4024" lon="0.04621">
        <ele>777.8</ele>
        <time>2016-07-24T08:44:42Z</time>
      </trkpt>
      <trkpt lat="42.40244" lon="0.04621">
        <ele>778.1</ele>
        <time>2016-07-24T08:44:44Z</time>
      </trkpt>
      <trkpt lat="42.40248" lon="0.0462">
        <ele>778.5</ele>
        <time>2016-07-24T08:44:46Z</time>
      </trkpt>
      <trkpt lat="42.40252" lon="0.0462">
        <ele>779</ele>
        <time>2016-07-24T08:44:48Z</time>
      </trkpt>
      <trkpt lat="42.40256" lon="0.04618">
        <ele>779.7</ele>
        <time>2016-07-24T08:44:50Z</time>
      </trkpt>
      <trkpt lat="42.4026" lon="0.04617">
        <ele>780.3</ele>
        <time>2016-07-24T08:44:52Z</time>
      </trkpt>
      <trkpt lat="42.40266" lon="0.04617">
        <ele>780.9</ele>
        <time>2016-07-24T08:44:54Z</time>
      </trkpt>
      <trkpt lat="42.40269" lon="0.04617">
        <ele>781</ele>
        <time>2016-07-24T08:44:55Z</time>
      </trkpt>
      <trkpt lat="42.40271" lon="0.04618">
        <ele>781.2</ele>
        <time>2016-07-24T08:44:56Z</time>
      </trkpt>
      <trkpt lat="42.40274" lon="0.04618">
        <ele>781.3</ele>
        <time>2016-07-24T08:44:57Z</time>
      </trkpt>
      <trkpt lat="42.40277" lon="0.04618">
        <ele>781.5</ele>
        <time>2016-07-24T08:44:58Z</time>
      </trkpt>
      <trkpt lat="42.40281" lon="0.04618">
        <ele>781.8</ele>
        <time>2016-07-24T08:44:59Z</time>
      </trkpt>
      <trkpt lat="42.40284" lon="0.04618">
        <ele>782</ele>
        <time>2016-07-24T08:45:00Z</time>
      </trkpt>
      <trkpt lat="42.40287" lon="0.04618">
        <ele>782.3</ele>
        <time>2016-07-24T08:45:01Z</time>
      </trkpt>
      <trkpt lat="42.4029" lon="0.04618">
        <ele>782.6</ele>
        <time>2016-07-24T08:45:02Z</time>
      </trkpt>
      <trkpt lat="42.40294" lon="0.04618">
        <ele>782.8</ele>
        <time>2016-07-24T08:45:03Z</time>
      </trkpt>
      <trkpt lat="42.40297" lon="0.04618">
        <ele>783.1</ele>
        <time>2016-07-24T08:45:04Z</time>
      </trkpt>
      <trkpt lat="42.40301" lon="0.04618">
        <ele>783.4</ele>
        <time>2016-07-24T08:45:05Z</time>
      </trkpt>
      <trkpt lat="42.40305" lon="0.04617">
        <ele>783.8</ele>
        <time>2016-07-24T08:45:06Z</time>
      </trkpt>
      <trkpt lat="42.40309" lon="0.04617">
        <ele>784.2</ele>
        <time>2016-07-24T08:45:07Z</time>
      </trkpt>
      <trkpt lat="42.40313" lon="0.04617">
        <ele>784.4</ele>
        <time>2016-07-24T08:45:08Z</time>
      </trkpt>
      <trkpt lat="42.40317" lon="0.04617">
        <ele>784.5</ele>
        <time>2016-07-24T08:45:09Z</time>
      </trkpt>
      <trkpt lat="42.40321" lon="0.0462">
        <ele>784.2</ele>
        <time>2016-07-24T08:45:10Z</time>
      </trkpt>
      <trkpt lat="42.40325" lon="0.04623">
        <ele>783.5</ele>
        <time>2016-07-24T08:45:11Z</time>
      </trkpt>
      <trkpt lat="42.40327" lon="0.04627">
        <ele>782.8</ele>
        <time>2016-07-24T08:45:12Z</time>
      </trkpt>
      <trkpt lat="42.4033" lon="0.04631">
        <ele>782.1</ele>
        <time>2016-07-24T08:45:13Z</time>
      </trkpt>
      <trkpt lat="42.40333" lon="0.04635">
        <ele>781.6</ele>
        <time>2016-07-24T08:45:14Z</time>
      </trkpt>
      <trkpt lat="42.40336" lon="0.04638">
        <ele>781.2</ele>
        <time>2016-07-24T08:45:15Z</time>
      </trkpt>
      <trkpt lat="42.40339" lon="0.0464">
        <ele>780.9</ele>
        <time>2016-07-24T08:45:16Z</time>
      </trkpt>
      <trkpt lat="42.40342" lon="0.04642">
        <ele>780.6</ele>
        <time>2016-07-24T08:45:17Z</time>
      </trkpt>
      <trkpt lat="42.40345" lon="0.04644">
        <ele>780.4</ele>
        <time>2016-07-24T08:45:18Z</time>
      </trkpt>
      <trkpt lat="42.40349" lon="0.04646">
        <ele>780.3</ele>
        <time>2016-07-24T08:45:19Z</time>
      </trkpt>
      <trkpt lat="42.40353" lon="0.04647">
        <ele>780.3</ele>
        <time>2016-07-24T08:45:20Z</time>
      </trkpt>
      <trkpt lat="42.40357" lon="0.04647">
        <ele>780.5</ele>
        <time>2016-07-24T08:45:21Z</time>
      </trkpt>
      <trkpt lat="42.40362" lon="0.04647">
        <ele>780.8</ele>
        <time>2016-07-24T08:45:22Z</time>
      </trkpt>
      <trkpt lat="42.40367" lon="0.04646">
        <ele>781.3</ele>
        <time>2016-07-24T08:45:23Z</time>
      </trkpt>
      <trkpt lat="42.40372" lon="0.04644">
        <ele>781.9</ele>
        <time>2016-07-24T08:45:24Z</time>
      </trkpt>
      <trkpt lat="42.40377" lon="0.04641">
        <ele>782.7</ele>
        <time>2016-07-24T08:45:25Z</time>
      </trkpt>
      <trkpt lat="42.40382" lon="0.04638">
        <ele>783.4</ele>
        <time>2016-07-24T08:45:26Z</time>
      </trkpt>
      <trkpt lat="42.40387" lon="0.04637">
        <ele>783.8</ele>
        <time>2016-07-24T08:45:27Z</time>
      </trkpt>
      <trkpt lat="42.40392" lon="0.04637">
        <ele>783.8</ele>
        <time>2016-07-24T08:45:28Z</time>
      </trkpt>
      <trkpt lat="42.40396" lon="0.04639">
        <ele>783.4</ele>
        <time>2016-07-24T08:45:29Z</time>
      </trkpt>
      <trkpt lat="42.404" lon="0.04641">
        <ele>782.9</ele>
        <time>2016-07-24T08:45:30Z</time>
      </trkpt>
      <trkpt lat="42.40403" lon="0.04643">
        <ele>782.5</ele>
        <time>2016-07-24T08:45:31Z</time>
      </trkpt>
      <trkpt lat="42.40408" lon="0.04645">
        <ele>782.2</ele>
        <time>2016-07-24T08:45:32Z</time>
      </trkpt>
      <trkpt lat="42.40412" lon="0.04645">
        <ele>782.1</ele>
        <time>2016-07-24T08:45:33Z</time>
      </trkpt>
      <trkpt lat="42.40416" lon="0.04645">
        <ele>782.1</ele>
        <time>2016-07-24T08:45:34Z</time>
      </trkpt>
      <trkpt lat="42.4042" lon="0.04645">
        <ele>782.2</ele>
        <time>2016-07-24T08:45:35Z</time>
      </trkpt>
      <trkpt lat="42.40425" lon="0.04644">
        <ele>782.5</ele>
        <time>2016-07-24T08:45:36Z</time>
      </trkpt>
      <trkpt lat="42.40429" lon="0.04643">
        <ele>782.9</ele>
        <time>2016-07-24T08:45:37Z</time>
      </trkpt>
      <trkpt lat="42.40433" lon="0.0464">
        <ele>783.6</ele>
        <time>2016-07-24T08:45:38Z</time>
      </trkpt>
      <trkpt lat="42.40437" lon="0.04637">
        <ele>784.5</ele>
        <time>2016-07-24T08:45:39Z</time>
      </trkpt>
      <trkpt lat="42.4044" lon="0.04632">
        <ele>785.6</ele>
        <time>2016-07-24T08:45:40Z</time>
      </trkpt>
      <trkpt lat="42.40443" lon="0.04629">
        <ele>786.7</ele>
        <time>2016-07-24T08:45:41Z</time>
      </trkpt>
      <trkpt lat="42.40447" lon="0.04625">
        <ele>787.7</ele>
        <time>2016-07-24T08:45:42Z</time>
      </trkpt>
      <trkpt lat="42.40451" lon="0.04623">
        <ele>788.3</ele>
        <time>2016-07-24T08:45:43Z</time>
      </trkpt>
      <trkpt lat="42.40455" lon="0.04622">
        <ele>788.8</ele>
        <time>2016-07-24T08:45:44Z</time>
      </trkpt>
      <trkpt lat="42.40459" lon="0.04621">
        <ele>789.2</ele>
        <time>2016-07-24T08:45:45Z</time>
      </trkpt>
      <trkpt lat="42.40462" lon="0.04619">
        <ele>789.3</ele>
        <time>2016-07-24T08:45:46Z</time>
      </trkpt>
      <trkpt lat="42.40466" lon="0.04617">
        <ele>789.7</ele>
        <time>2016-07-24T08:45:47Z</time>
      </trkpt>
      <trkpt lat="42.40468" lon="0.04614">
        <ele>790.5</ele>
        <time>2016-07-24T08:45:48Z</time>
      </trkpt>
      <trkpt lat="42.4047" lon="0.04609">
        <ele>791.7</ele>
        <time>2016-07-24T08:45:49Z</time>
      </trkpt>
      <trkpt lat="42.4047" lon="0.04603">
        <ele>793.1</ele>
        <time>2016-07-24T08:45:50Z</time>
      </trkpt>
      <trkpt lat="42.4047" lon="0.04598">
        <ele>794.5</ele>
        <time>2016-07-24T08:45:51Z</time>
      </trkpt>
      <trkpt lat="42.4047" lon="0.04593">
        <ele>795.9</ele>
        <time>2016-07-24T08:45:52Z</time>
      </trkpt>
      <trkpt lat="42.40471" lon="0.04588">
        <ele>797.1</ele>
        <time>2016-07-24T08:45:53Z</time>
      </trkpt>
      <trkpt lat="42.40472" lon="0.04583">
        <ele>798.3</ele>
        <time>2016-07-24T08:45:54Z</time>
      </trkpt>
      <trkpt lat="42.40473" lon="0.04579">
        <ele>799.3</ele>
        <time>2016-07-24T08:45:55Z</time>
      </trkpt>
      <trkpt lat="42.40476" lon="0.04575">
        <ele>800.2</ele>
        <time>2016-07-24T08:45:56Z</time>
      </trkpt>
      <trkpt lat="42.40479" lon="0.04573">
        <ele>800.7</ele>
        <time>2016-07-24T08:45:57Z</time>
      </trkpt>
      <trkpt lat="42.40483" lon="0.04572">
        <ele>800.8</ele>
        <time>2016-07-24T08:45:58Z</time>
      </trkpt>
      <trkpt lat="42.40486" lon="0.04572">
        <ele>800.6</ele>
        <time>2016-07-24T08:45:59Z</time>
      </trkpt>
      <trkpt lat="42.4049" lon="0.04573">
        <ele>800</ele>
        <time>2016-07-24T08:46:00Z</time>
      </trkpt>
      <trkpt lat="42.40494" lon="0.04575">
        <ele>799.2</ele>
        <time>2016-07-24T08:46:01Z</time>
      </trkpt>
      <trkpt lat="42.40497" lon="0.04579">
        <ele>798.2</ele>
        <time>2016-07-24T08:46:02Z</time>
      </trkpt>
      <trkpt lat="42.40499" lon="0.04582">
        <ele>797.1</ele>
        <time>2016-07-24T08:46:03Z</time>
      </trkpt>
      <trkpt lat="42.40502" lon="0.04586">
        <ele>796</ele>
        <time>2016-07-24T08:46:04Z</time>
      </trkpt>
      <trkpt lat="42.40505" lon="0.0459">
        <ele>794.8</ele>
        <time>2016-07-24T08:46:05Z</time>
      </trkpt>
      <trkpt lat="42.40507" lon="0.04594">
        <ele>793.5</ele>
        <time>2016-07-24T08:46:06Z</time>
      </trkpt>
      <trkpt lat="42.40509" lon="0.04599">
        <ele>792.2</ele>
        <time>2016-07-24T08:46:07Z</time>
      </trkpt>
      <trkpt lat="42.4051" lon="0.04605">
        <ele>790.7</ele>
        <time>2016-07-24T08:46:08Z</time>
      </trkpt>
      <trkpt lat="42.4051" lon="0.04611">
        <ele>789.1</ele>
        <time>2016-07-24T08:46:09Z</time>
      </trkpt>
      <trkpt lat="42.40509" lon="0.04617">
        <ele>787.5</ele>
        <time>2016-07-24T08:46:10Z</time>
      </trkpt>
      <trkpt lat="42.40508" lon="0.04624">
        <ele>786</ele>
        <time>2016-07-24T08:46:11Z</time>
      </trkpt>
      <trkpt lat="42.40508" lon="0.04629">
        <ele>784.7</ele>
        <time>2016-07-24T08:46:12Z</time>
      </trkpt>
      <trkpt lat="42.40508" lon="0.04635">
        <ele>783.4</ele>
        <time>2016-07-24T08:46:13Z</time>
      </trkpt>
      <trkpt lat="42.40509" lon="0.0464">
        <ele>782.3</ele>
        <time>2016-07-24T08:46:14Z</time>
      </trkpt>
      <trkpt lat="42.40509" lon="0.04643">
        <ele>781.4</ele>
        <time>2016-07-24T08:46:15Z</time>
      </trkpt>
      <trkpt lat="42.4051" lon="0.04647">
        <ele>780.6</ele>
        <time>2016-07-24T08:46:16Z</time>
      </trkpt>
      <trkpt lat="42.40513" lon="0.04652">
        <ele>779.5</ele>
        <time>2016-07-24T08:46:18Z</time>
      </trkpt>
      <trkpt lat="42.40518" lon="0.04654">
        <ele>778.9</ele>
        <time>2016-07-24T08:46:20Z</time>
      </trkpt>
      <trkpt lat="42.40521" lon="0.04655">
        <ele>778.7</ele>
        <time>2016-07-24T08:46:21Z</time>
      </trkpt>
      <trkpt lat="42.40524" lon="0.04656">
        <ele>778.4</ele>
        <time>2016-07-24T08:46:22Z</time>
      </trkpt>
      <trkpt lat="42.40528" lon="0.04659">
        <ele>777.7</ele>
        <time>2016-07-24T08:46:24Z</time>
      </trkpt>
      <trkpt lat="42.40532" lon="0.04661">
        <ele>777.1</ele>
        <time>2016-07-24T08:46:26Z</time>
      </trkpt>
      <trkpt lat="42.40537" lon="0.04663">
        <ele>776.8</ele>
        <time>2016-07-24T08:46:28Z</time>
      </trkpt>
      <trkpt lat="42.40542" lon="0.04663">
        <ele>776.7</ele>
        <time>2016-07-24T08:46:30Z</time>
      </trkpt>
      <trkpt lat="42.40547" lon="0.04662">
        <ele>777.6</ele>
        <time>2016-07-24T08:46:32Z</time>
      </trkpt>
      <trkpt lat="42.40551" lon="0.04659">
        <ele>778.7</ele>
        <time>2016-07-24T08:46:34Z</time>
      </trkpt>
      <trkpt lat="42.40556" lon="0.04656">
        <ele>779.9</ele>
        <time>2016-07-24T08:46:36Z</time>
      </trkpt>
      <trkpt lat="42.40561" lon="0.04653">
        <ele>781.1</ele>
        <time>2016-07-24T08:46:38Z</time>
      </trkpt>
      <trkpt lat="42.40565" lon="0.0465">
        <ele>782.2</ele>
        <time>2016-07-24T08:46:40Z</time>
      </trkpt>
      <trkpt lat="42.4057" lon="0.04648">
        <ele>783.2</ele>
        <time>2016-07-24T08:46:42Z</time>
      </trkpt>
      <trkpt lat="42.40574" lon="0.04646">
        <ele>784.2</ele>
        <time>2016-07-24T08:46:44Z</time>
      </trkpt>
      <trkpt lat="42.40579" lon="0.04643">
        <ele>785.3</ele>
        <time>2016-07-24T08:46:46Z</time>
      </trkpt>
      <trkpt lat="42.40584" lon="0.0464">
        <ele>786.6</ele>
        <time>2016-07-24T08:46:48Z</time>
      </trkpt>
      <trkpt lat="42.40586" lon="0.04638">
        <ele>787.3</ele>
        <time>2016-07-24T08:46:49Z</time>
      </trkpt>
      <trkpt lat="42.40591" lon="0.04634">
        <ele>788.6</ele>
        <time>2016-07-24T08:46:51Z</time>
      </trkpt>
      <trkpt lat="42.40593" lon="0.04633">
        <ele>789.3</ele>
        <time>2016-07-24T08:46:52Z</time>
      </trkpt>
      <trkpt lat="42.40598" lon="0.04629">
        <ele>790.6</ele>
        <time>2016-07-24T08:46:54Z</time>
      </trkpt>
      <trkpt lat="42.40602" lon="0.04626">
        <ele>791.8</ele>
        <time>2016-07-24T08:46:56Z</time>
      </trkpt>
      <trkpt lat="42.40607" lon="0.04624">
        <ele>792.9</ele>
        <time>2016-07-24T08:46:58Z</time>
      </trkpt>
      <trkpt lat="42.40612" lon="0.04621">
        <ele>794</ele>
        <time>2016-07-24T08:47:00Z</time>
      </trkpt>
      <trkpt lat="42.40617" lon="0.0462">
        <ele>795</ele>
        <time>2016-07-24T08:47:02Z</time>
      </trkpt>
      <trkpt lat="42.40622" lon="0.04618">
        <ele>795.8</ele>
        <time>2016-07-24T08:47:04Z</time>
      </trkpt>
      <trkpt lat="42.40627" lon="0.04618">
        <ele>796.4</ele>
        <time>2016-07-24T08:47:06Z</time>
      </trkpt>
      <trkpt lat="42.40632" lon="0.04619">
        <ele>796.7</ele>
        <time>2016-07-24T08:47:08Z</time>
      </trkpt>
      <trkpt lat="42.40636" lon="0.04619">
        <ele>797.1</ele>
        <time>2016-07-24T08:47:10Z</time>
      </trkpt>
      <trkpt lat="42.4064" lon="0.04619">
        <ele>797.5</ele>
        <time>2016-07-24T08:47:12Z</time>
      </trkpt>
      <trkpt lat="42.40645" lon="0.04619">
        <ele>797.8</ele>
        <time>2016-07-24T08:47:14Z</time>
      </trkpt>
      <trkpt lat="42.40649" lon="0.04619">
        <ele>798.1</ele>
        <time>2016-07-24T08:47:16Z</time>
      </trkpt>
      <trkpt lat="42.40653" lon="0.0462">
        <ele>798.3</ele>
        <time>2016-07-24T08:47:18Z</time>
      </trkpt>
      <trkpt lat="42.40657" lon="0.04622">
        <ele>798.3</ele>
        <time>2016-07-24T08:47:20Z</time>
      </trkpt>
      <trkpt lat="42.4066" lon="0.04623">
        <ele>798.3</ele>
        <time>2016-07-24T08:47:22Z</time>
      </trkpt>
      <trkpt lat="42.40664" lon="0.04626">
        <ele>798.1</ele>
        <time>2016-07-24T08:47:24Z</time>
      </trkpt>
      <trkpt lat="42.40668" lon="0.04629">
        <ele>797.7</ele>
        <time>2016-07-24T08:47:26Z</time>
      </trkpt>
      <trkpt lat="42.40671" lon="0.04632">
        <ele>797.3</ele>
        <time>2016-07-24T08:47:28Z</time>
      </trkpt>
      <trkpt lat="42.40674" lon="0.04634">
        <ele>797.2</ele>
        <time>2016-07-24T08:47:30Z</time>
      </trkpt>
      <trkpt lat="42.40678" lon="0.04634">
        <ele>797.3</ele>
        <time>2016-07-24T08:47:32Z</time>
      </trkpt>
      <trkpt lat="42.40682" lon="0.04634">
        <ele>797.8</ele>
        <time>2016-07-24T08:47:34Z</time>
      </trkpt>
      <trkpt lat="42.40686" lon="0.04632">
        <ele>798.5</ele>
        <time>2016-07-24T08:47:36Z</time>
      </trkpt>
      <trkpt lat="42.40689" lon="0.04629">
        <ele>799.5</ele>
        <time>2016-07-24T08:47:38Z</time>
      </trkpt>
      <trkpt lat="42.40691" lon="0.04624">
        <ele>800.7</ele>
        <time>2016-07-24T08:47:40Z</time>
      </trkpt>
      <trkpt lat="42.40692" lon="0.0462">
        <ele>801.8</ele>
        <time>2016-07-24T08:47:42Z</time>
      </trkpt>
      <trkpt lat="42.40692" lon="0.04614">
        <ele>802.9</ele>
        <time>2016-07-24T08:47:44Z</time>
      </trkpt>
      <trkpt lat="42.4069" lon="0.0461">
        <ele>803.8</ele>
        <time>2016-07-24T08:47:46Z</time>
      </trkpt>
      <trkpt lat="42.40687" lon="0.04606">
        <ele>804.4</ele>
        <time>2016-07-24T08:47:48Z</time>
      </trkpt>
      <trkpt lat="42.40684" lon="0.04603">
        <ele>804.7</ele>
        <time>2016-07-24T08:47:50Z</time>
      </trkpt>
      <trkpt lat="42.4068" lon="0.04601">
        <ele>804.8</ele>
        <time>2016-07-24T08:47:52Z</time>
      </trkpt>
      <trkpt lat="42.40676" lon="0.04598">
        <ele>804.9</ele>
        <time>2016-07-24T08:47:54Z</time>
      </trkpt>
      <trkpt lat="42.40673" lon="0.04596">
        <ele>804.9</ele>
        <time>2016-07-24T08:47:56Z</time>
      </trkpt>
      <trkpt lat="42.40669" lon="0.04594">
        <ele>805.1</ele>
        <time>2016-07-24T08:47:58Z</time>
      </trkpt>
      <trkpt lat="42.40666" lon="0.04591">
        <ele>805.4</ele>
        <time>2016-07-24T08:48:00Z</time>
      </trkpt>
      <trkpt lat="42.40663" lon="0.04588">
        <ele>805.6</ele>
        <time>2016-07-24T08:48:02Z</time>
      </trkpt>
      <trkpt lat="42.40659" lon="0.04585">
        <ele>805.8</ele>
        <time>2016-07-24T08:48:04Z</time>
      </trkpt>
      <trkpt lat="42.40656" lon="0.04583">
        <ele>805.9</ele>
        <time>2016-07-24T08:48:06Z</time>
      </trkpt>
      <trkpt lat="42.40652" lon="0.04581">
        <ele>805.9</ele>
        <time>2016-07-24T08:48:08Z</time>
      </trkpt>
      <trkpt lat="42.40647" lon="0.04579">
        <ele>805.8</ele>
        <time>2016-07-24T08:48:10Z</time>
      </trkpt>
      <trkpt lat="42.40643" lon="0.04577">
        <ele>805.7</ele>
        <time>2016-07-24T08:48:12Z</time>
      </trkpt>
      <trkpt lat="42.40639" lon="0.04575">
        <ele>805.6</ele>
        <time>2016-07-24T08:48:14Z</time>
      </trkpt>
      <trkpt lat="42.40636" lon="0.04573">
        <ele>805.6</ele>
        <time>2016-07-24T08:48:16Z</time>
      </trkpt>
      <trkpt lat="42.40632" lon="0.04571">
        <ele>805.5</ele>
        <time>2016-07-24T08:48:18Z</time>
      </trkpt>
      <trkpt lat="42.40628" lon="0.04569">
        <ele>805.3</ele>
        <time>2016-07-24T08:48:20Z</time>
      </trkpt>
      <trkpt lat="42.40624" lon="0.04567">
        <ele>805.3</ele>
        <time>2016-07-24T08:48:22Z</time>
      </trkpt>
      <trkpt lat="42.40621" lon="0.04566">
        <ele>805.3</ele>
        <time>2016-07-24T08:48:24Z</time>
      </trkpt>
      <trkpt lat="42.40617" lon="0.04565">
        <ele>805.2</ele>
        <time>2016-07-24T08:48:26Z</time>
      </trkpt>
      <trkpt lat="42.40613" lon="0.04564">
        <ele>805.1</ele>
        <time>2016-07-24T08:48:28Z</time>
      </trkpt>
      <trkpt lat="42.40609" lon="0.04562">
        <ele>805.1</ele>
        <time>2016-07-24T08:48:30Z</time>
      </trkpt>
      <trkpt lat="42.40606" lon="0.0456">
        <ele>805.3</ele>
        <time>2016-07-24T08:48:32Z</time>
      </trkpt>
      <trkpt lat="42.40603" lon="0.04558">
        <ele>805.5</ele>
        <time>2016-07-24T08:48:34Z</time>
      </trkpt>
      <trkpt lat="42.406" lon="0.04556">
        <ele>805.7</ele>
        <time>2016-07-24T08:48:36Z</time>
      </trkpt>
      <trkpt lat="42.40597" lon="0.04554">
        <ele>805.9</ele>
        <time>2016-07-24T08:48:38Z</time>
      </trkpt>
      <trkpt lat="42.40595" lon="0.04551">
        <ele>806.2</ele>
        <time>2016-07-24T08:48:40Z</time>
      </trkpt>
      <trkpt lat="42.40592" lon="0.04548">
        <ele>806.7</ele>
        <time>2016-07-24T08:48:42Z</time>
      </trkpt>
      <trkpt lat="42.4059" lon="0.04545">
        <ele>807.3</ele>
        <time>2016-07-24T08:48:44Z</time>
      </trkpt>
      <trkpt lat="42.40588" lon="0.0454">
        <ele>808.1</ele>
        <time>2016-07-24T08:48:46Z</time>
      </trkpt>
      <trkpt lat="42.40586" lon="0.04536">
        <ele>808.9</ele>
        <time>2016-07-24T08:48:48Z</time>
      </trkpt>
      <trkpt lat="42.40585" lon="0.04532">
        <ele>809.8</ele>
        <time>2016-07-24T08:48:50Z</time>
      </trkpt>
      <trkpt lat="42.40583" lon="0.04528">
        <ele>810.6</ele>
        <time>2016-07-24T08:48:52Z</time>
      </trkpt>
      <trkpt lat="42.40582" lon="0.04524">
        <ele>811.4</ele>
        <time>2016-07-24T08:48:54Z</time>
      </trkpt>
      <trkpt lat="42.40581" lon="0.0452">
        <ele>812.2</ele>
        <time>2016-07-24T08:48:56Z</time>
      </trkpt>
      <trkpt lat="42.40579" lon="0.04517">
        <ele>813</ele>
        <time>2016-07-24T08:48:58Z</time>
      </trkpt>
      <trkpt lat="42.40577" lon="0.04514">
        <ele>813.6</ele>
        <time>2016-07-24T08:49:00Z</time>
      </trkpt>
      <trkpt lat="42.40574" lon="0.04511">
        <ele>814.1</ele>
        <time>2016-07-24T08:49:02Z</time>
      </trkpt>
      <trkpt lat="42.40571" lon="0.04508">
        <ele>814.6</ele>
        <time>2016-07-24T08:49:04Z</time>
      </trkpt>
      <trkpt lat="42.40568" lon="0.04506">
        <ele>815.1</ele>
        <time>2016-07-24T08:49:06Z</time>
      </trkpt>
      <trkpt lat="42.40566" lon="0.04503">
        <ele>815.7</ele>
        <time>2016-07-24T08:49:08Z</time>
      </trkpt>
      <trkpt lat="42.40563" lon="0.045">
        <ele>816.3</ele>
        <time>2016-07-24T08:49:10Z</time>
      </trkpt>
      <trkpt lat="42.4056" lon="0.04497">
        <ele>817</ele>
        <time>2016-07-24T08:49:12Z</time>
      </trkpt>
      <trkpt lat="42.40558" lon="0.04493">
        <ele>817.7</ele>
        <time>2016-07-24T08:49:14Z</time>
      </trkpt>
      <trkpt lat="42.40557" lon="0.04489">
        <ele>818.7</ele>
        <time>2016-07-24T08:49:16Z</time>
      </trkpt>
      <trkpt lat="42.40555" lon="0.04484">
        <ele>819.9</ele>
        <time>2016-07-24T08:49:18Z</time>
      </trkpt>
      <trkpt lat="42.40554" lon="0.04479">
        <ele>821</ele>
        <time>2016-07-24T08:49:20Z</time>
      </trkpt>
      <trkpt lat="42.40554" lon="0.04474">
        <ele>822.3</ele>
        <time>2016-07-24T08:49:22Z</time>
      </trkpt>
      <trkpt lat="42.40553" lon="0.04469">
        <ele>823.6</ele>
        <time>2016-07-24T08:49:24Z</time>
      </trkpt>
      <trkpt lat="42.40552" lon="0.04463">
        <ele>824.9</ele>
        <time>2016-07-24T08:49:26Z</time>
      </trkpt>
      <trkpt lat="42.4055" lon="0.04458">
        <ele>826.1</ele>
        <time>2016-07-24T08:49:28Z</time>
      </trkpt>
      <trkpt lat="42.40549" lon="0.04454">
        <ele>827.2</ele>
        <time>2016-07-24T08:49:30Z</time>
      </trkpt>
      <trkpt lat="42.40548" lon="0.0445">
        <ele>828.2</ele>
        <time>2016-07-24T08:49:32Z</time>
      </trkpt>
      <trkpt lat="42.40547" lon="0.04446">
        <ele>829.2</ele>
        <time>2016-07-24T08:49:34Z</time>
      </trkpt>
      <trkpt lat="42.40546" lon="0.04442">
        <ele>830.2</ele>
        <time>2016-07-24T08:49:36Z</time>
      </trkpt>
      <trkpt lat="42.40544" lon="0.04438">
        <ele>831.2</ele>
        <time>2016-07-24T08:49:38Z</time>
      </trkpt>
      <trkpt lat="42.40543" lon="0.04434">
        <ele>832.2</ele>
        <time>2016-07-24T08:49:40Z</time>
      </trkpt>
      <trkpt lat="42.40542" lon="0.0443">
        <ele>833.2</ele>
        <time>2016-07-24T08:49:42Z</time>
      </trkpt>
      <trkpt lat="42.40541" lon="0.04426">
        <ele>834.4</ele>
        <time>2016-07-24T08:49:44Z</time>
      </trkpt>
      <trkpt lat="42.4054" lon="0.04422">
        <ele>835.5</ele>
        <time>2016-07-24T08:49:46Z</time>
      </trkpt>
      <trkpt lat="42.40539" lon="0.04418">
        <ele>836.7</ele>
        <time>2016-07-24T08:49:48Z</time>
      </trkpt>
      <trkpt lat="42.40538" lon="0.04414">
        <ele>837.7</ele>
        <time>2016-07-24T08:49:50Z</time>
      </trkpt>
      <trkpt lat="42.40538" lon="0.0441">
        <ele>838.7</ele>
        <time>2016-07-24T08:49:52Z</time>
      </trkpt>
      <trkpt lat="42.40539" lon="0.04406">
        <ele>839.8</ele>
        <time>2016-07-24T08:49:54Z</time>
      </trkpt>
      <trkpt lat="42.40539" lon="0.04401">
        <ele>840.8</ele>
        <time>2016-07-24T08:49:56Z</time>
      </trkpt>
      <trkpt lat="42.40541" lon="0.04397">
        <ele>841.6</ele>
        <time>2016-07-24T08:49:58Z</time>
      </trkpt>
      <trkpt lat="42.40543" lon="0.04394">
        <ele>842.3</ele>
        <time>2016-07-24T08:50:00Z</time>
      </trkpt>
      <trkpt lat="42.40545" lon="0.0439">
        <ele>843.2</ele>
        <time>2016-07-24T08:50:02Z</time>
      </trkpt>
      <trkpt lat="42.40547" lon="0.04388">
        <ele>843.8</ele>
        <time>2016-07-24T08:50:04Z</time>
      </trkpt>
      <trkpt lat="42.40551" lon="0.04386">
        <ele>844.2</ele>
        <time>2016-07-24T08:50:06Z</time>
      </trkpt>
      <trkpt lat="42.40554" lon="0.04385">
        <ele>844.3</ele>
        <time>2016-07-24T08:50:08Z</time>
      </trkpt>
      <trkpt lat="42.40557" lon="0.04386">
        <ele>844.2</ele>
        <time>2016-07-24T08:50:10Z</time>
      </trkpt>
      <trkpt lat="42.4056" lon="0.04386">
        <ele>844</ele>
        <time>2016-07-24T08:50:12Z</time>
      </trkpt>
      <trkpt lat="42.40564" lon="0.04387">
        <ele>843.8</ele>
        <time>2016-07-24T08:50:14Z</time>
      </trkpt>
      <trkpt lat="42.40567" lon="0.04388">
        <ele>843.6</ele>
        <time>2016-07-24T08:50:16Z</time>
      </trkpt>
      <trkpt lat="42.4057" lon="0.04389">
        <ele>843.3</ele>
        <time>2016-07-24T08:50:18Z</time>
      </trkpt>
      <trkpt lat="42.40572" lon="0.04391">
        <ele>842.8</ele>
        <time>2016-07-24T08:50:20Z</time>
      </trkpt>
      <trkpt lat="42.40575" lon="0.04393">
        <ele>842.2</ele>
        <time>2016-07-24T08:50:22Z</time>
      </trkpt>
      <trkpt lat="42.40577" lon="0.04396">
        <ele>841.6</ele>
        <time>2016-07-24T08:50:24Z</time>
      </trkpt>
      <trkpt lat="42.4058" lon="0.04398">
        <ele>840.9</ele>
        <time>2016-07-24T08:50:26Z</time>
      </trkpt>
      <trkpt lat="42.40582" lon="0.04402">
        <ele>840.1</ele>
        <time>2016-07-24T08:50:28Z</time>
      </trkpt>
      <trkpt lat="42.40584" lon="0.04405">
        <ele>839.3</ele>
        <time>2016-07-24T08:50:30Z</time>
      </trkpt>
      <trkpt lat="42.40586" lon="0.04408">
        <ele>838.7</ele>
        <time>2016-07-24T08:50:32Z</time>
      </trkpt>
      <trkpt lat="42.40589" lon="0.04409">
        <ele>838.2</ele>
        <time>2016-07-24T08:50:34Z</time>
      </trkpt>
      <trkpt lat="42.40592" lon="0.0441">
        <ele>838</ele>
        <time>2016-07-24T08:50:36Z</time>
      </trkpt>
      <trkpt lat="42.40595" lon="0.0441">
        <ele>838</ele>
        <time>2016-07-24T08:50:38Z</time>
      </trkpt>
      <trkpt lat="42.40598" lon="0.04409">
        <ele>838.3</ele>
        <time>2016-07-24T08:50:40Z</time>
      </trkpt>
      <trkpt lat="42.40602" lon="0.04408">
        <ele>838.7</ele>
        <time>2016-07-24T08:50:42Z</time>
      </trkpt>
      <trkpt lat="42.40604" lon="0.04405">
        <ele>839.2</ele>
        <time>2016-07-24T08:50:44Z</time>
      </trkpt>
      <trkpt lat="42.40607" lon="0.04403">
        <ele>839.8</ele>
        <time>2016-07-24T08:50:46Z</time>
      </trkpt>
      <trkpt lat="42.4061" lon="0.044">
        <ele>840.3</ele>
        <time>2016-07-24T08:50:48Z</time>
      </trkpt>
      <trkpt lat="42.40612" lon="0.04398">
        <ele>840.8</ele>
        <time>2016-07-24T08:50:50Z</time>
      </trkpt>
      <trkpt lat="42.40615" lon="0.04396">
        <ele>841.2</ele>
        <time>2016-07-24T08:50:52Z</time>
      </trkpt>
      <trkpt lat="42.40618" lon="0.04395">
        <ele>841.6</ele>
        <time>2016-07-24T08:50:54Z</time>
      </trkpt>
      <trkpt lat="42.40621" lon="0.04394">
        <ele>841.7</ele>
        <time>2016-07-24T08:50:56Z</time>
      </trkpt>
      <trkpt lat="42.40625" lon="0.04394">
        <ele>841.6</ele>
        <time>2016-07-24T08:50:59Z</time>
      </trkpt>
      <trkpt lat="42.40628" lon="0.04394">
        <ele>842</ele>
        <time>2016-07-24T08:51:02Z</time>
      </trkpt>
      <trkpt lat="42.40631" lon="0.04395">
        <ele>842.4</ele>
        <time>2016-07-24T08:51:04Z</time>
      </trkpt>
      <trkpt lat="42.40635" lon="0.04395">
        <ele>842.8</ele>
        <time>2016-07-24T08:51:07Z</time>
      </trkpt>
      <trkpt lat="42.40638" lon="0.04396">
        <ele>842.9</ele>
        <time>2016-07-24T08:51:09Z</time>
      </trkpt>
      <trkpt lat="42.4064" lon="0.04398">
        <ele>842.9</ele>
        <time>2016-07-24T08:51:11Z</time>
      </trkpt>
      <trkpt lat="42.40643" lon="0.044">
        <ele>842.9</ele>
        <time>2016-07-24T08:51:13Z</time>
      </trkpt>
      <trkpt lat="42.40646" lon="0.044">
        <ele>843.2</ele>
        <time>2016-07-24T08:51:15Z</time>
      </trkpt>
      <trkpt lat="42.40648" lon="0.04399">
        <ele>843.7</ele>
        <time>2016-07-24T08:51:17Z</time>
      </trkpt>
      <trkpt lat="42.40651" lon="0.04399">
        <ele>844.3</ele>
        <time>2016-07-24T08:51:19Z</time>
      </trkpt>
      <trkpt lat="42.40654" lon="0.04398">
        <ele>844.8</ele>
        <time>2016-07-24T08:51:21Z</time>
      </trkpt>
      <trkpt lat="42.40657" lon="0.04397">
        <ele>845.5</ele>
        <time>2016-07-24T08:51:23Z</time>
      </trkpt>
      <trkpt lat="42.4066" lon="0.04395">
        <ele>846.3</ele>
        <time>2016-07-24T08:51:25Z</time>
      </trkpt>
      <trkpt lat="42.40662" lon="0.04393">
        <ele>847.2</ele>
        <time>2016-07-24T08:51:27Z</time>
      </trkpt>
      <trkpt lat="42.40665" lon="0.0439">
        <ele>848.2</ele>
        <time>2016-07-24T08:51:29Z</time>
      </trkpt>
      <trkpt lat="42.40667" lon="0.04388">
        <ele>849.2</ele>
        <time>2016-07-24T08:51:31Z</time>
      </trkpt>
      <trkpt lat="42.4067" lon="0.04386">
        <ele>850</ele>
        <time>2016-07-24T08:51:33Z</time>
      </trkpt>
      <trkpt lat="42.40673" lon="0.04384">
        <ele>850.7</ele>
        <time>2016-07-24T08:51:35Z</time>
      </trkpt>
      <trkpt lat="42.40676" lon="0.04383">
        <ele>851.3</ele>
        <time>2016-07-24T08:51:37Z</time>
      </trkpt>
      <trkpt lat="42.40679" lon="0.04383">
        <ele>851.9</ele>
        <time>2016-07-24T08:51:39Z</time>
      </trkpt>
      <trkpt lat="42.40682" lon="0.04382">
        <ele>852.5</ele>
        <time>2016-07-24T08:51:41Z</time>
      </trkpt>
      <trkpt lat="42.40685" lon="0.04382">
        <ele>852.9</ele>
        <time>2016-07-24T08:51:43Z</time>
      </trkpt>
      <trkpt lat="42.40688" lon="0.04382">
        <ele>853.4</ele>
        <time>2016-07-24T08:51:45Z</time>
      </trkpt>
      <trkpt lat="42.40692" lon="0.04382">
        <ele>854</ele>
        <time>2016-07-24T08:51:47Z</time>
      </trkpt>
      <trkpt lat="42.40694" lon="0.04377">
        <ele>855.4</ele>
        <time>2016-07-24T08:51:50Z</time>
      </trkpt>
      <trkpt lat="42.40692" lon="0.04373">
        <ele>856</ele>
        <time>2016-07-24T08:51:52Z</time>
      </trkpt>
      <trkpt lat="42.40689" lon="0.0437">
        <ele>856.2</ele>
        <time>2016-07-24T08:51:54Z</time>
      </trkpt>
      <trkpt lat="42.40686" lon="0.04367">
        <ele>856.4</ele>
        <time>2016-07-24T08:51:56Z</time>
      </trkpt>
      <trkpt lat="42.40683" lon="0.04365">
        <ele>856.4</ele>
        <time>2016-07-24T08:51:58Z</time>
      </trkpt>
      <trkpt lat="42.40681" lon="0.04364">
        <ele>856.4</ele>
        <time>2016-07-24T08:52:00Z</time>
      </trkpt>
      <trkpt lat="42.40678" lon="0.04361">
        <ele>856.7</ele>
        <time>2016-07-24T08:52:02Z</time>
      </trkpt>
      <trkpt lat="42.40676" lon="0.04358">
        <ele>857</ele>
        <time>2016-07-24T08:52:04Z</time>
      </trkpt>
      <trkpt lat="42.40673" lon="0.04357">
        <ele>856.9</ele>
        <time>2016-07-24T08:52:06Z</time>
      </trkpt>
      <trkpt lat="42.4067" lon="0.04356">
        <ele>856.8</ele>
        <time>2016-07-24T08:52:08Z</time>
      </trkpt>
      <trkpt lat="42.40667" lon="0.04355">
        <ele>856.7</ele>
        <time>2016-07-24T08:52:10Z</time>
      </trkpt>
      <trkpt lat="42.40665" lon="0.04355">
        <ele>856.5</ele>
        <time>2016-07-24T08:52:12Z</time>
      </trkpt>
      <trkpt lat="42.40661" lon="0.04354">
        <ele>856.3</ele>
        <time>2016-07-24T08:52:15Z</time>
      </trkpt>
      <trkpt lat="42.40658" lon="0.04352">
        <ele>856.3</ele>
        <time>2016-07-24T08:52:17Z</time>
      </trkpt>
      <trkpt lat="42.40655" lon="0.0435">
        <ele>856.5</ele>
        <time>2016-07-24T08:52:19Z</time>
      </trkpt>
      <trkpt lat="42.40652" lon="0.04347">
        <ele>856.9</ele>
        <time>2016-07-24T08:52:21Z</time>
      </trkpt>
      <trkpt lat="42.40648" lon="0.04344">
        <ele>857.3</ele>
        <time>2016-07-24T08:52:23Z</time>
      </trkpt>
      <trkpt lat="42.40644" lon="0.04341">
        <ele>857.8</ele>
        <time>2016-07-24T08:52:25Z</time>
      </trkpt>
      <trkpt lat="42.4064" lon="0.04338">
        <ele>858</ele>
        <time>2016-07-24T08:52:27Z</time>
      </trkpt>
      <trkpt lat="42.40636" lon="0.04336">
        <ele>858.4</ele>
        <time>2016-07-24T08:52:29Z</time>
      </trkpt>
      <trkpt lat="42.40633" lon="0.04333">
        <ele>858.8</ele>
        <time>2016-07-24T08:52:31Z</time>
      </trkpt>
      <trkpt lat="42.40629" lon="0.04331">
        <ele>859.2</ele>
        <time>2016-07-24T08:52:33Z</time>
      </trkpt>
      <trkpt lat="42.40625" lon="0.04328">
        <ele>859.5</ele>
        <time>2016-07-24T08:52:35Z</time>
      </trkpt>
      <trkpt lat="42.40621" lon="0.04326">
        <ele>860</ele>
        <time>2016-07-24T08:52:37Z</time>
      </trkpt>
      <trkpt lat="42.40618" lon="0.04323">
        <ele>860.6</ele>
        <time>2016-07-24T08:52:39Z</time>
      </trkpt>
      <trkpt lat="42.40613" lon="0.04321">
        <ele>861.1</ele>
        <time>2016-07-24T08:52:41Z</time>
      </trkpt>
      <trkpt lat="42.40609" lon="0.04318">
        <ele>861.6</ele>
        <time>2016-07-24T08:52:43Z</time>
      </trkpt>
      <trkpt lat="42.40604" lon="0.04314">
        <ele>862.2</ele>
        <time>2016-07-24T08:52:45Z</time>
      </trkpt>
      <trkpt lat="42.40599" lon="0.04311">
        <ele>862.9</ele>
        <time>2016-07-24T08:52:47Z</time>
      </trkpt>
      <trkpt lat="42.40597" lon="0.04309">
        <ele>863.2</ele>
        <time>2016-07-24T08:52:48Z</time>
      </trkpt>
      <trkpt lat="42.40594" lon="0.04307">
        <ele>863.6</ele>
        <time>2016-07-24T08:52:49Z</time>
      </trkpt>
      <trkpt lat="42.40592" lon="0.04305">
        <ele>863.9</ele>
        <time>2016-07-24T08:52:50Z</time>
      </trkpt>
      <trkpt lat="42.40588" lon="0.04301">
        <ele>864.5</ele>
        <time>2016-07-24T08:52:52Z</time>
      </trkpt>
      <trkpt lat="42.40584" lon="0.04298">
        <ele>865.1</ele>
        <time>2016-07-24T08:52:54Z</time>
      </trkpt>
      <trkpt lat="42.4058" lon="0.04294">
        <ele>865.6</ele>
        <time>2016-07-24T08:52:56Z</time>
      </trkpt>
      <trkpt lat="42.40576" lon="0.04291">
        <ele>866.1</ele>
        <time>2016-07-24T08:52:58Z</time>
      </trkpt>
      <trkpt lat="42.40572" lon="0.04287">
        <ele>866.3</ele>
        <time>2016-07-24T08:53:00Z</time>
      </trkpt>
      <trkpt lat="42.40569" lon="0.04284">
        <ele>866.6</ele>
        <time>2016-07-24T08:53:02Z</time>
      </trkpt>
      <trkpt lat="42.40565" lon="0.04281">
        <ele>866.9</ele>
        <time>2016-07-24T08:53:04Z</time>
      </trkpt>
      <trkpt lat="42.40561" lon="0.04278">
        <ele>867.1</ele>
        <time>2016-07-24T08:53:06Z</time>
      </trkpt>
      <trkpt lat="42.40557" lon="0.04276">
        <ele>867.3</ele>
        <time>2016-07-24T08:53:08Z</time>
      </trkpt>
      <trkpt lat="42.40551" lon="0.04273">
        <ele>867.4</ele>
        <time>2016-07-24T08:53:10Z</time>
      </trkpt>
      <trkpt lat="42.40548" lon="0.04272">
        <ele>867.3</ele>
        <time>2016-07-24T08:53:11Z</time>
      </trkpt>
      <trkpt lat="42.40544" lon="0.04271">
        <ele>867.3</ele>
        <time>2016-07-24T08:53:12Z</time>
      </trkpt>
      <trkpt lat="42.4054" lon="0.04271">
        <ele>867.4</ele>
        <time>2016-07-24T08:53:13Z</time>
      </trkpt>
      <trkpt lat="42.40536" lon="0.0427">
        <ele>867.8</ele>
        <time>2016-07-24T08:53:14Z</time>
      </trkpt>
      <trkpt lat="42.40532" lon="0.0427">
        <ele>868.2</ele>
        <time>2016-07-24T08:53:15Z</time>
      </trkpt>
      <trkpt lat="42.40528" lon="0.04269">
        <ele>868.6</ele>
        <time>2016-07-24T08:53:16Z</time>
      </trkpt>
      <trkpt lat="42.40525" lon="0.04269">
        <ele>869</ele>
        <time>2016-07-24T08:53:17Z</time>
      </trkpt>
      <trkpt lat="42.40521" lon="0.04268">
        <ele>869.3</ele>
        <time>2016-07-24T08:53:18Z</time>
      </trkpt>
      <trkpt lat="42.40518" lon="0.04268">
        <ele>869.6</ele>
        <time>2016-07-24T08:53:19Z</time>
      </trkpt>
      <trkpt lat="42.40515" lon="0.04267">
        <ele>869.9</ele>
        <time>2016-07-24T08:53:20Z</time>
      </trkpt>
      <trkpt lat="42.4051" lon="0.04267">
        <ele>870.5</ele>
        <time>2016-07-24T08:53:22Z</time>
      </trkpt>
      <trkpt lat="42.40505" lon="0.04267">
        <ele>870.9</ele>
        <time>2016-07-24T08:53:24Z</time>
      </trkpt>
      <trkpt lat="42.405" lon="0.04265">
        <ele>871.5</ele>
        <time>2016-07-24T08:53:26Z</time>
      </trkpt>
      <trkpt lat="42.40495" lon="0.04261">
        <ele>872.4</ele>
        <time>2016-07-24T08:53:28Z</time>
      </trkpt>
      <trkpt lat="42.40493" lon="0.04259">
        <ele>872.9</ele>
        <time>2016-07-24T08:53:29Z</time>
      </trkpt>
      <trkpt lat="42.40491" lon="0.04257">
        <ele>873.4</ele>
        <time>2016-07-24T08:53:30Z</time>
      </trkpt>
      <trkpt lat="42.40488" lon="0.04255">
        <ele>874</ele>
        <time>2016-07-24T08:53:31Z</time>
      </trkpt>
      <trkpt lat="42.40486" lon="0.04253">
        <ele>874.5</ele>
        <time>2016-07-24T08:53:32Z</time>
      </trkpt>
      <trkpt lat="42.40483" lon="0.04251">
        <ele>874.9</ele>
        <time>2016-07-24T08:53:33Z</time>
      </trkpt>
      <trkpt lat="42.4048" lon="0.04249">
        <ele>875.4</ele>
        <time>2016-07-24T08:53:34Z</time>
      </trkpt>
      <trkpt lat="42.40477" lon="0.04248">
        <ele>875.8</ele>
        <time>2016-07-24T08:53:35Z</time>
      </trkpt>
      <trkpt lat="42.40474" lon="0.04246">
        <ele>876.1</ele>
        <time>2016-07-24T08:53:36Z</time>
      </trkpt>
      <trkpt lat="42.40471" lon="0.04245">
        <ele>876.4</ele>
        <time>2016-07-24T08:53:37Z</time>
      </trkpt>
      <trkpt lat="42.40469" lon="0.04244">
        <ele>876.7</ele>
        <time>2016-07-24T08:53:38Z</time>
      </trkpt>
      <trkpt lat="42.40463" lon="0.04243">
        <ele>877.2</ele>
        <time>2016-07-24T08:53:40Z</time>
      </trkpt>
      <trkpt lat="42.4046" lon="0.04243">
        <ele>877.3</ele>
        <time>2016-07-24T08:53:41Z</time>
      </trkpt>
      <trkpt lat="42.40457" lon="0.04245">
        <ele>877.3</ele>
        <time>2016-07-24T08:53:42Z</time>
      </trkpt>
      <trkpt lat="42.40454" lon="0.04247">
        <ele>877.4</ele>
        <time>2016-07-24T08:53:43Z</time>
      </trkpt>
      <trkpt lat="42.40452" lon="0.0425">
        <ele>877.2</ele>
        <time>2016-07-24T08:53:44Z</time>
      </trkpt>
      <trkpt lat="42.4045" lon="0.04254">
        <ele>876.9</ele>
        <time>2016-07-24T08:53:45Z</time>
      </trkpt>
      <trkpt lat="42.40449" lon="0.04259">
        <ele>876.3</ele>
        <time>2016-07-24T08:53:46Z</time>
      </trkpt>
      <trkpt lat="42.40449" lon="0.04263">
        <ele>875.8</ele>
        <time>2016-07-24T08:53:47Z</time>
      </trkpt>
      <trkpt lat="42.40449" lon="0.04267">
        <ele>875.3</ele>
        <time>2016-07-24T08:53:48Z</time>
      </trkpt>
      <trkpt lat="42.40448" lon="0.04271">
        <ele>874.8</ele>
        <time>2016-07-24T08:53:49Z</time>
      </trkpt>
      <trkpt lat="42.40447" lon="0.04275">
        <ele>874.3</ele>
        <time>2016-07-24T08:53:50Z</time>
      </trkpt>
      <trkpt lat="42.40446" lon="0.0428">
        <ele>873.8</ele>
        <time>2016-07-24T08:53:51Z</time>
      </trkpt>
      <trkpt lat="42.40445" lon="0.04284">
        <ele>873.4</ele>
        <time>2016-07-24T08:53:52Z</time>
      </trkpt>
      <trkpt lat="42.40444" lon="0.04288">
        <ele>872.9</ele>
        <time>2016-07-24T08:53:53Z</time>
      </trkpt>
      <trkpt lat="42.40442" lon="0.04293">
        <ele>872.4</ele>
        <time>2016-07-24T08:53:54Z</time>
      </trkpt>
      <trkpt lat="42.40441" lon="0.04297">
        <ele>871.9</ele>
        <time>2016-07-24T08:53:55Z</time>
      </trkpt>
      <trkpt lat="42.4044" lon="0.04301">
        <ele>871.3</ele>
        <time>2016-07-24T08:53:56Z</time>
      </trkpt>
      <trkpt lat="42.4044" lon="0.04305">
        <ele>870.8</ele>
        <time>2016-07-24T08:53:57Z</time>
      </trkpt>
      <trkpt lat="42.40439" lon="0.04309">
        <ele>870.2</ele>
        <time>2016-07-24T08:53:58Z</time>
      </trkpt>
      <trkpt lat="42.40439" lon="0.04313">
        <ele>869.6</ele>
        <time>2016-07-24T08:53:59Z</time>
      </trkpt>
      <trkpt lat="42.40439" lon="0.04317">
        <ele>869</ele>
        <time>2016-07-24T08:54:00Z</time>
      </trkpt>
      <trkpt lat="42.40438" lon="0.04321">
        <ele>868.4</ele>
        <time>2016-07-24T08:54:01Z</time>
      </trkpt>
      <trkpt lat="42.40437" lon="0.04325">
        <ele>867.9</ele>
        <time>2016-07-24T08:54:02Z</time>
      </trkpt>
      <trkpt lat="42.40436" lon="0.04329">
        <ele>867.4</ele>
        <time>2016-07-24T08:54:03Z</time>
      </trkpt>
      <trkpt lat="42.40434" lon="0.04332">
        <ele>867</ele>
        <time>2016-07-24T08:54:04Z</time>
      </trkpt>
      <trkpt lat="42.40431" lon="0.04334">
        <ele>866.7</ele>
        <time>2016-07-24T08:54:05Z</time>
      </trkpt>
      <trkpt lat="42.40428" lon="0.04336">
        <ele>866.5</ele>
        <time>2016-07-24T08:54:06Z</time>
      </trkpt>
      <trkpt lat="42.40425" lon="0.04337">
        <ele>866.4</ele>
        <time>2016-07-24T08:54:07Z</time>
      </trkpt>
      <trkpt lat="42.40422" lon="0.04337">
        <ele>866.4</ele>
        <time>2016-07-24T08:54:08Z</time>
      </trkpt>
      <trkpt lat="42.40418" lon="0.04337">
        <ele>866.5</ele>
        <time>2016-07-24T08:54:10Z</time>
      </trkpt>
      <trkpt lat="42.40413" lon="0.04335">
        <ele>867</ele>
        <time>2016-07-24T08:54:12Z</time>
      </trkpt>
      <trkpt lat="42.40409" lon="0.04332">
        <ele>867.7</ele>
        <time>2016-07-24T08:54:14Z</time>
      </trkpt>
      <trkpt lat="42.40406" lon="0.0433">
        <ele>868.3</ele>
        <time>2016-07-24T08:54:16Z</time>
      </trkpt>
      <trkpt lat="42.40402" lon="0.04328">
        <ele>868.8</ele>
        <time>2016-07-24T08:54:18Z</time>
      </trkpt>
      <trkpt lat="42.40398" lon="0.04327">
        <ele>869.2</ele>
        <time>2016-07-24T08:54:20Z</time>
      </trkpt>
      <trkpt lat="42.40395" lon="0.04324">
        <ele>869.9</ele>
        <time>2016-07-24T08:54:22Z</time>
      </trkpt>
      <trkpt lat="42.40392" lon="0.04322">
        <ele>870.6</ele>
        <time>2016-07-24T08:54:24Z</time>
      </trkpt>
      <trkpt lat="42.40388" lon="0.0432">
        <ele>871.2</ele>
        <time>2016-07-24T08:54:26Z</time>
      </trkpt>
      <trkpt lat="42.40385" lon="0.04318">
        <ele>871.9</ele>
        <time>2016-07-24T08:54:28Z</time>
      </trkpt>
      <trkpt lat="42.40382" lon="0.04315">
        <ele>872.7</ele>
        <time>2016-07-24T08:54:30Z</time>
      </trkpt>
      <trkpt lat="42.40379" lon="0.04313">
        <ele>873.4</ele>
        <time>2016-07-24T08:54:32Z</time>
      </trkpt>
      <trkpt lat="42.40376" lon="0.0431">
        <ele>874.3</ele>
        <time>2016-07-24T08:54:34Z</time>
      </trkpt>
      <trkpt lat="42.40374" lon="0.04307">
        <ele>875</ele>
        <time>2016-07-24T08:54:36Z</time>
      </trkpt>
      <trkpt lat="42.40372" lon="0.04304">
        <ele>875.7</ele>
        <time>2016-07-24T08:54:38Z</time>
      </trkpt>
      <trkpt lat="42.4037" lon="0.043">
        <ele>876.5</ele>
        <time>2016-07-24T08:54:40Z</time>
      </trkpt>
      <trkpt lat="42.40368" lon="0.04296">
        <ele>877.3</ele>
        <time>2016-07-24T08:54:42Z</time>
      </trkpt>
      <trkpt lat="42.40367" lon="0.04292">
        <ele>878.3</ele>
        <time>2016-07-24T08:54:44Z</time>
      </trkpt>
      <trkpt lat="42.40365" lon="0.04287">
        <ele>878.9</ele>
        <time>2016-07-24T08:54:46Z</time>
      </trkpt>
      <trkpt lat="42.40362" lon="0.04283">
        <ele>879.3</ele>
        <time>2016-07-24T08:54:48Z</time>
      </trkpt>
      <trkpt lat="42.40359" lon="0.04279">
        <ele>879.9</ele>
        <time>2016-07-24T08:54:50Z</time>
      </trkpt>
      <trkpt lat="42.40357" lon="0.04274">
        <ele>880.4</ele>
        <time>2016-07-24T08:54:52Z</time>
      </trkpt>
      <trkpt lat="42.40354" lon="0.04271">
        <ele>880.8</ele>
        <time>2016-07-24T08:54:54Z</time>
      </trkpt>
      <trkpt lat="42.40351" lon="0.04268">
        <ele>881.1</ele>
        <time>2016-07-24T08:54:56Z</time>
      </trkpt>
      <trkpt lat="42.40348" lon="0.04265">
        <ele>881.2</ele>
        <time>2016-07-24T08:54:58Z</time>
      </trkpt>
      <trkpt lat="42.40344" lon="0.04263">
        <ele>881.3</ele>
        <time>2016-07-24T08:55:00Z</time>
      </trkpt>
      <trkpt lat="42.40341" lon="0.04261">
        <ele>881.4</ele>
        <time>2016-07-24T08:55:02Z</time>
      </trkpt>
      <trkpt lat="42.40337" lon="0.0426">
        <ele>881.3</ele>
        <time>2016-07-24T08:55:04Z</time>
      </trkpt>
      <trkpt lat="42.40334" lon="0.04259">
        <ele>881.3</ele>
        <time>2016-07-24T08:55:06Z</time>
      </trkpt>
      <trkpt lat="42.40331" lon="0.04257">
        <ele>881.3</ele>
        <time>2016-07-24T08:55:08Z</time>
      </trkpt>
      <trkpt lat="42.40328" lon="0.04255">
        <ele>881.5</ele>
        <time>2016-07-24T08:55:10Z</time>
      </trkpt>
      <trkpt lat="42.40325" lon="0.04254">
        <ele>881.4</ele>
        <time>2016-07-24T08:55:12Z</time>
      </trkpt>
      <trkpt lat="42.40321" lon="0.04252">
        <ele>881.4</ele>
        <time>2016-07-24T08:55:14Z</time>
      </trkpt>
      <trkpt lat="42.40318" lon="0.04251">
        <ele>881.4</ele>
        <time>2016-07-24T08:55:16Z</time>
      </trkpt>
      <trkpt lat="42.40315" lon="0.04249">
        <ele>881.4</ele>
        <time>2016-07-24T08:55:18Z</time>
      </trkpt>
      <trkpt lat="42.40311" lon="0.04248">
        <ele>881.4</ele>
        <time>2016-07-24T08:55:20Z</time>
      </trkpt>
      <trkpt lat="42.40307" lon="0.04247">
        <ele>881.3</ele>
        <time>2016-07-24T08:55:22Z</time>
      </trkpt>
      <trkpt lat="42.40304" lon="0.04246">
        <ele>881.2</ele>
        <time>2016-07-24T08:55:24Z</time>
      </trkpt>
      <trkpt lat="42.403" lon="0.04245">
        <ele>881.2</ele>
        <time>2016-07-24T08:55:26Z</time>
      </trkpt>
      <trkpt lat="42.40297" lon="0.04243">
        <ele>881.1</ele>
        <time>2016-07-24T08:55:28Z</time>
      </trkpt>
      <trkpt lat="42.40294" lon="0.04243">
        <ele>881</ele>
        <time>2016-07-24T08:55:30Z</time>
      </trkpt>
      <trkpt lat="42.4029" lon="0.04242">
        <ele>880.5</ele>
        <time>2016-07-24T08:55:32Z</time>
      </trkpt>
      <trkpt lat="42.40286" lon="0.04242">
        <ele>879.4</ele>
        <time>2016-07-24T08:55:34Z</time>
      </trkpt>
      <trkpt lat="42.40281" lon="0.04241">
        <ele>878.2</ele>
        <time>2016-07-24T08:55:36Z</time>
      </trkpt>
      <trkpt lat="42.40277" lon="0.0424">
        <ele>877.2</ele>
        <time>2016-07-24T08:55:38Z</time>
      </trkpt>
      <trkpt lat="42.40272" lon="0.04238">
        <ele>876.1</ele>
        <time>2016-07-24T08:55:40Z</time>
      </trkpt>
      <trkpt lat="42.40267" lon="0.04236">
        <ele>875.1</ele>
        <time>2016-07-24T08:55:42Z</time>
      </trkpt>
      <trkpt lat="42.40262" lon="0.04233">
        <ele>874</ele>
        <time>2016-07-24T08:55:44Z</time>
      </trkpt>
      <trkpt lat="42.40259" lon="0.04232">
        <ele>873.4</ele>
        <time>2016-07-24T08:55:45Z</time>
      </trkpt>
      <trkpt lat="42.40257" lon="0.04231">
        <ele>872.8</ele>
        <time>2016-07-24T08:55:46Z</time>
      </trkpt>
      <trkpt lat="42.40252" lon="0.04229">
        <ele>871.6</ele>
        <time>2016-07-24T08:55:48Z</time>
      </trkpt>
      <trkpt lat="42.40249" lon="0.04228">
        <ele>871</ele>
        <time>2016-07-24T08:55:49Z</time>
      </trkpt>
      <trkpt lat="42.40246" lon="0.04227">
        <ele>870.3</ele>
        <time>2016-07-24T08:55:50Z</time>
      </trkpt>
      <trkpt lat="42.40243" lon="0.04226">
        <ele>869.6</ele>
        <time>2016-07-24T08:55:51Z</time>
      </trkpt>
      <trkpt lat="42.4024" lon="0.04225">
        <ele>868.8</ele>
        <time>2016-07-24T08:55:52Z</time>
      </trkpt>
      <trkpt lat="42.40237" lon="0.04224">
        <ele>868</ele>
        <time>2016-07-24T08:55:53Z</time>
      </trkpt>
      <trkpt lat="42.40234" lon="0.04222">
        <ele>867.4</ele>
        <time>2016-07-24T08:55:54Z</time>
      </trkpt>
      <trkpt lat="42.40232" lon="0.04219">
        <ele>867</ele>
        <time>2016-07-24T08:55:55Z</time>
      </trkpt>
      <trkpt lat="42.40229" lon="0.04215">
        <ele>866.7</ele>
        <time>2016-07-24T08:55:56Z</time>
      </trkpt>
      <trkpt lat="42.40226" lon="0.04211">
        <ele>866.3</ele>
        <time>2016-07-24T08:55:57Z</time>
      </trkpt>
      <trkpt lat="42.40224" lon="0.04207">
        <ele>865.8</ele>
        <time>2016-07-24T08:55:58Z</time>
      </trkpt>
      <trkpt lat="42.4022" lon="0.04203">
        <ele>864.9</ele>
        <time>2016-07-24T08:55:59Z</time>
      </trkpt>
      <trkpt lat="42.40217" lon="0.04199">
        <ele>863.8</ele>
        <time>2016-07-24T08:56:00Z</time>
      </trkpt>
      <trkpt lat="42.40213" lon="0.04196">
        <ele>862.6</ele>
        <time>2016-07-24T08:56:01Z</time>
      </trkpt>
      <trkpt lat="42.40208" lon="0.04193">
        <ele>861.4</ele>
        <time>2016-07-24T08:56:02Z</time>
      </trkpt>
      <trkpt lat="42.40204" lon="0.04192">
        <ele>860.5</ele>
        <time>2016-07-24T08:56:03Z</time>
      </trkpt>
      <trkpt lat="42.40201" lon="0.0419">
        <ele>859.8</ele>
        <time>2016-07-24T08:56:04Z</time>
      </trkpt>
      <trkpt lat="42.40199" lon="0.04187">
        <ele>859.3</ele>
        <time>2016-07-24T08:56:05Z</time>
      </trkpt>
      <trkpt lat="42.40197" lon="0.04184">
        <ele>859.1</ele>
        <time>2016-07-24T08:56:06Z</time>
      </trkpt>
      <trkpt lat="42.40197" lon="0.0418">
        <ele>859.2</ele>
        <time>2016-07-24T08:56:07Z</time>
      </trkpt>
      <trkpt lat="42.40198" lon="0.04176">
        <ele>859.6</ele>
        <time>2016-07-24T08:56:08Z</time>
      </trkpt>
      <trkpt lat="42.40201" lon="0.04173">
        <ele>860.2</ele>
        <time>2016-07-24T08:56:09Z</time>
      </trkpt>
      <trkpt lat="42.40203" lon="0.0417">
        <ele>860.8</ele>
        <time>2016-07-24T08:56:10Z</time>
      </trkpt>
      <trkpt lat="42.40206" lon="0.04168">
        <ele>861.4</ele>
        <time>2016-07-24T08:56:11Z</time>
      </trkpt>
      <trkpt lat="42.40208" lon="0.04165">
        <ele>862</ele>
        <time>2016-07-24T08:56:12Z</time>
      </trkpt>
      <trkpt lat="42.4021" lon="0.04162">
        <ele>862.7</ele>
        <time>2016-07-24T08:56:13Z</time>
      </trkpt>
      <trkpt lat="42.40212" lon="0.04159">
        <ele>863.4</ele>
        <time>2016-07-24T08:56:14Z</time>
      </trkpt>
      <trkpt lat="42.40214" lon="0.04156">
        <ele>864</ele>
        <time>2016-07-24T08:56:15Z</time>
      </trkpt>
      <trkpt lat="42.40215" lon="0.04152">
        <ele>864.4</ele>
        <time>2016-07-24T08:56:16Z</time>
      </trkpt>
      <trkpt lat="42.40216" lon="0.04149">
        <ele>864.7</ele>
        <time>2016-07-24T08:56:17Z</time>
      </trkpt>
      <trkpt lat="42.40216" lon="0.04145">
        <ele>864.8</ele>
        <time>2016-07-24T08:56:18Z</time>
      </trkpt>
      <trkpt lat="42.40216" lon="0.04141">
        <ele>864.8</ele>
        <time>2016-07-24T08:56:19Z</time>
      </trkpt>
      <trkpt lat="42.40215" lon="0.04137">
        <ele>864.8</ele>
        <time>2016-07-24T08:56:20Z</time>
      </trkpt>
      <trkpt lat="42.40215" lon="0.04132">
        <ele>864.7</ele>
        <time>2016-07-24T08:56:21Z</time>
      </trkpt>
      <trkpt lat="42.40215" lon="0.04128">
        <ele>864.8</ele>
        <time>2016-07-24T08:56:22Z</time>
      </trkpt>
      <trkpt lat="42.40215" lon="0.04123">
        <ele>865.5</ele>
        <time>2016-07-24T08:56:23Z</time>
      </trkpt>
      <trkpt lat="42.40216" lon="0.04118">
        <ele>867</ele>
        <time>2016-07-24T08:56:24Z</time>
      </trkpt>
      <trkpt lat="42.40218" lon="0.04114">
        <ele>868.7</ele>
        <time>2016-07-24T08:56:25Z</time>
      </trkpt>
      <trkpt lat="42.40219" lon="0.04109">
        <ele>870.5</ele>
        <time>2016-07-24T08:56:26Z</time>
      </trkpt>
      <trkpt lat="42.40221" lon="0.04104">
        <ele>872.2</ele>
        <time>2016-07-24T08:56:27Z</time>
      </trkpt>
      <trkpt lat="42.40222" lon="0.04099">
        <ele>873.7</ele>
        <time>2016-07-24T08:56:28Z</time>
      </trkpt>
      <trkpt lat="42.40223" lon="0.04095">
        <ele>875</ele>
        <time>2016-07-24T08:56:29Z</time>
      </trkpt>
      <trkpt lat="42.40224" lon="0.0409">
        <ele>876.2</ele>
        <time>2016-07-24T08:56:30Z</time>
      </trkpt>
      <trkpt lat="42.40224" lon="0.04086">
        <ele>877.2</ele>
        <time>2016-07-24T08:56:31Z</time>
      </trkpt>
      <trkpt lat="42.40224" lon="0.04083">
        <ele>878.1</ele>
        <time>2016-07-24T08:56:32Z</time>
      </trkpt>
      <trkpt lat="42.40224" lon="0.04079">
        <ele>879.2</ele>
        <time>2016-07-24T08:56:33Z</time>
      </trkpt>
      <trkpt lat="42.40224" lon="0.04075">
        <ele>880.3</ele>
        <time>2016-07-24T08:56:34Z</time>
      </trkpt>
      <trkpt lat="42.40225" lon="0.0407">
        <ele>881.4</ele>
        <time>2016-07-24T08:56:35Z</time>
      </trkpt>
      <trkpt lat="42.40225" lon="0.04066">
        <ele>882.5</ele>
        <time>2016-07-24T08:56:36Z</time>
      </trkpt>
      <trkpt lat="42.40224" lon="0.04062">
        <ele>883.5</ele>
        <time>2016-07-24T08:56:37Z</time>
      </trkpt>
      <trkpt lat="42.40224" lon="0.04058">
        <ele>884.4</ele>
        <time>2016-07-24T08:56:38Z</time>
      </trkpt>
      <trkpt lat="42.40224" lon="0.04054">
        <ele>885.3</ele>
        <time>2016-07-24T08:56:39Z</time>
      </trkpt>
      <trkpt lat="42.40223" lon="0.0405">
        <ele>886.1</ele>
        <time>2016-07-24T08:56:40Z</time>
      </trkpt>
      <trkpt lat="42.40222" lon="0.04046">
        <ele>886.8</ele>
        <time>2016-07-24T08:56:41Z</time>
      </trkpt>
      <trkpt lat="42.4022" lon="0.04043">
        <ele>887.3</ele>
        <time>2016-07-24T08:56:42Z</time>
      </trkpt>
      <trkpt lat="42.40217" lon="0.04039">
        <ele>887.6</ele>
        <time>2016-07-24T08:56:43Z</time>
      </trkpt>
      <trkpt lat="42.40214" lon="0.04037">
        <ele>887.6</ele>
        <time>2016-07-24T08:56:44Z</time>
      </trkpt>
      <trkpt lat="42.40211" lon="0.04036">
        <ele>887.2</ele>
        <time>2016-07-24T08:56:45Z</time>
      </trkpt>
      <trkpt lat="42.40207" lon="0.04035">
        <ele>886.7</ele>
        <time>2016-07-24T08:56:46Z</time>
      </trkpt>
      <trkpt lat="42.40204" lon="0.04034">
        <ele>886.1</ele>
        <time>2016-07-24T08:56:47Z</time>
      </trkpt>
      <trkpt lat="42.402" lon="0.04034">
        <ele>885.5</ele>
        <time>2016-07-24T08:56:48Z</time>
      </trkpt>
      <trkpt lat="42.40196" lon="0.04033">
        <ele>885</ele>
        <time>2016-07-24T08:56:49Z</time>
      </trkpt>
      <trkpt lat="42.40193" lon="0.04031">
        <ele>884.6</ele>
        <time>2016-07-24T08:56:50Z</time>
      </trkpt>
      <trkpt lat="42.4019" lon="0.04029">
        <ele>884.3</ele>
        <time>2016-07-24T08:56:51Z</time>
      </trkpt>
      <trkpt lat="42.40187" lon="0.04028">
        <ele>884</ele>
        <time>2016-07-24T08:56:52Z</time>
      </trkpt>
      <trkpt lat="42.40184" lon="0.04026">
        <ele>883.7</ele>
        <time>2016-07-24T08:56:53Z</time>
      </trkpt>
      <trkpt lat="42.40182" lon="0.04025">
        <ele>883.5</ele>
        <time>2016-07-24T08:56:54Z</time>
      </trkpt>
      <trkpt lat="42.40179" lon="0.04023">
        <ele>883.2</ele>
        <time>2016-07-24T08:56:55Z</time>
      </trkpt>
      <trkpt lat="42.40176" lon="0.04022">
        <ele>882.9</ele>
        <time>2016-07-24T08:56:56Z</time>
      </trkpt>
      <trkpt lat="42.40173" lon="0.0402">
        <ele>882.7</ele>
        <time>2016-07-24T08:56:57Z</time>
      </trkpt>
      <trkpt lat="42.4017" lon="0.04017">
        <ele>882.4</ele>
        <time>2016-07-24T08:56:58Z</time>
      </trkpt>
      <trkpt lat="42.40167" lon="0.04015">
        <ele>882.2</ele>
        <time>2016-07-24T08:56:59Z</time>
      </trkpt>
      <trkpt lat="42.40164" lon="0.04012">
        <ele>881.9</ele>
        <time>2016-07-24T08:57:00Z</time>
      </trkpt>
      <trkpt lat="42.4016" lon="0.04009">
        <ele>881.6</ele>
        <time>2016-07-24T08:57:01Z</time>
      </trkpt>
      <trkpt lat="42.40156" lon="0.04006">
        <ele>881.3</ele>
        <time>2016-07-24T08:57:02Z</time>
      </trkpt>
      <trkpt lat="42.40153" lon="0.04003">
        <ele>880.9</ele>
        <time>2016-07-24T08:57:03Z</time>
      </trkpt>
      <trkpt lat="42.40149" lon="0.04">
        <ele>880.5</ele>
        <time>2016-07-24T08:57:04Z</time>
      </trkpt>
      <trkpt lat="42.40145" lon="0.03996">
        <ele>880.1</ele>
        <time>2016-07-24T08:57:05Z</time>
      </trkpt>
      <trkpt lat="42.40142" lon="0.03992">
        <ele>879.7</ele>
        <time>2016-07-24T08:57:06Z</time>
      </trkpt>
      <trkpt lat="42.40138" lon="0.03988">
        <ele>879.4</ele>
        <time>2016-07-24T08:57:07Z</time>
      </trkpt>
      <trkpt lat="42.40135" lon="0.03984">
        <ele>879.2</ele>
        <time>2016-07-24T08:57:08Z</time>
      </trkpt>
      <trkpt lat="42.40132" lon="0.0398">
        <ele>878.9</ele>
        <time>2016-07-24T08:57:09Z</time>
      </trkpt>
      <trkpt lat="42.40128" lon="0.03976">
        <ele>878.4</ele>
        <time>2016-07-24T08:57:10Z</time>
      </trkpt>
      <trkpt lat="42.40124" lon="0.03973">
        <ele>877.6</ele>
        <time>2016-07-24T08:57:11Z</time>
      </trkpt>
      <trkpt lat="42.40121" lon="0.0397">
        <ele>877.1</ele>
        <time>2016-07-24T08:57:12Z</time>
      </trkpt>
      <trkpt lat="42.40117" lon="0.03967">
        <ele>876.6</ele>
        <time>2016-07-24T08:57:13Z</time>
      </trkpt>
      <trkpt lat="42.40114" lon="0.03964">
        <ele>876.2</ele>
        <time>2016-07-24T08:57:14Z</time>
      </trkpt>
      <trkpt lat="42.40111" lon="0.03961">
        <ele>876</ele>
        <time>2016-07-24T08:57:15Z</time>
      </trkpt>
      <trkpt lat="42.40109" lon="0.03958">
        <ele>875.9</ele>
        <time>2016-07-24T08:57:16Z</time>
      </trkpt>
      <trkpt lat="42.40107" lon="0.03954">
        <ele>875.9</ele>
        <time>2016-07-24T08:57:17Z</time>
      </trkpt>
      <trkpt lat="42.40105" lon="0.03949">
        <ele>876</ele>
        <time>2016-07-24T08:57:18Z</time>
      </trkpt>
      <trkpt lat="42.40104" lon="0.03945">
        <ele>876.1</ele>
        <time>2016-07-24T08:57:19Z</time>
      </trkpt>
      <trkpt lat="42.40103" lon="0.0394">
        <ele>876.3</ele>
        <time>2016-07-24T08:57:20Z</time>
      </trkpt>
      <trkpt lat="42.40101" lon="0.03936">
        <ele>876.3</ele>
        <time>2016-07-24T08:57:21Z</time>
      </trkpt>
      <trkpt lat="42.401" lon="0.03932">
        <ele>876.4</ele>
        <time>2016-07-24T08:57:22Z</time>
      </trkpt>
      <trkpt lat="42.40098" lon="0.03928">
        <ele>876.3</ele>
        <time>2016-07-24T08:57:23Z</time>
      </trkpt>
      <trkpt lat="42.40097" lon="0.03924">
        <ele>876.2</ele>
        <time>2016-07-24T08:57:24Z</time>
      </trkpt>
      <trkpt lat="42.40094" lon="0.03918">
        <ele>876.2</ele>
        <time>2016-07-24T08:57:26Z</time>
      </trkpt>
      <trkpt lat="42.40093" lon="0.03914">
        <ele>876.3</ele>
        <time>2016-07-24T08:57:27Z</time>
      </trkpt>
      <trkpt lat="42.40093" lon="0.03911">
        <ele>876.5</ele>
        <time>2016-07-24T08:57:28Z</time>
      </trkpt>
      <trkpt lat="42.40093" lon="0.03907">
        <ele>876.9</ele>
        <time>2016-07-24T08:57:29Z</time>
      </trkpt>
      <trkpt lat="42.40093" lon="0.03903">
        <ele>877.4</ele>
        <time>2016-07-24T08:57:30Z</time>
      </trkpt>
      <trkpt lat="42.40093" lon="0.03899">
        <ele>877.8</ele>
        <time>2016-07-24T08:57:31Z</time>
      </trkpt>
      <trkpt lat="42.40093" lon="0.03896">
        <ele>878.2</ele>
        <time>2016-07-24T08:57:32Z</time>
      </trkpt>
      <trkpt lat="42.40094" lon="0.03891">
        <ele>878.7</ele>
        <time>2016-07-24T08:57:33Z</time>
      </trkpt>
      <trkpt lat="42.40094" lon="0.03887">
        <ele>879.2</ele>
        <time>2016-07-24T08:57:34Z</time>
      </trkpt>
      <trkpt lat="42.40094" lon="0.03882">
        <ele>879.7</ele>
        <time>2016-07-24T08:57:35Z</time>
      </trkpt>
      <trkpt lat="42.40093" lon="0.03877">
        <ele>880.1</ele>
        <time>2016-07-24T08:57:36Z</time>
      </trkpt>
      <trkpt lat="42.40093" lon="0.03872">
        <ele>880.4</ele>
        <time>2016-07-24T08:57:37Z</time>
      </trkpt>
      <trkpt lat="42.40093" lon="0.03867">
        <ele>880.7</ele>
        <time>2016-07-24T08:57:38Z</time>
      </trkpt>
      <trkpt lat="42.40092" lon="0.03862">
        <ele>880.9</ele>
        <time>2016-07-24T08:57:39Z</time>
      </trkpt>
      <trkpt lat="42.40091" lon="0.03857">
        <ele>881</ele>
        <time>2016-07-24T08:57:40Z</time>
      </trkpt>
      <trkpt lat="42.4009" lon="0.03852">
        <ele>881</ele>
        <time>2016-07-24T08:57:41Z</time>
      </trkpt>
      <trkpt lat="42.40088" lon="0.03847">
        <ele>881.1</ele>
        <time>2016-07-24T08:57:42Z</time>
      </trkpt>
      <trkpt lat="42.40087" lon="0.03842">
        <ele>881.1</ele>
        <time>2016-07-24T08:57:43Z</time>
      </trkpt>
      <trkpt lat="42.40085" lon="0.03837">
        <ele>881.1</ele>
        <time>2016-07-24T08:57:44Z</time>
      </trkpt>
      <trkpt lat="42.40084" lon="0.03832">
        <ele>881.1</ele>
        <time>2016-07-24T08:57:45Z</time>
      </trkpt>
      <trkpt lat="42.40082" lon="0.03828">
        <ele>881.2</ele>
        <time>2016-07-24T08:57:46Z</time>
      </trkpt>
      <trkpt lat="42.40081" lon="0.03823">
        <ele>881.2</ele>
        <time>2016-07-24T08:57:47Z</time>
      </trkpt>
      <trkpt lat="42.4008" lon="0.03819">
        <ele>881.3</ele>
        <time>2016-07-24T08:57:48Z</time>
      </trkpt>
      <trkpt lat="42.40078" lon="0.03815">
        <ele>881.3</ele>
        <time>2016-07-24T08:57:49Z</time>
      </trkpt>
      <trkpt lat="42.40077" lon="0.03812">
        <ele>881.3</ele>
        <time>2016-07-24T08:57:50Z</time>
      </trkpt>
      <trkpt lat="42.40076" lon="0.03807">
        <ele>881.4</ele>
        <time>2016-07-24T08:57:51Z</time>
      </trkpt>
      <trkpt lat="42.40075" lon="0.03803">
        <ele>881.5</ele>
        <time>2016-07-24T08:57:52Z</time>
      </trkpt>
      <trkpt lat="42.40074" lon="0.03799">
        <ele>881.7</ele>
        <time>2016-07-24T08:57:53Z</time>
      </trkpt>
      <trkpt lat="42.40073" lon="0.03794">
        <ele>881.8</ele>
        <time>2016-07-24T08:57:54Z</time>
      </trkpt>
      <trkpt lat="42.40072" lon="0.0379">
        <ele>882.2</ele>
        <time>2016-07-24T08:57:55Z</time>
      </trkpt>
      <trkpt lat="42.40071" lon="0.03785">
        <ele>883</ele>
        <time>2016-07-24T08:57:56Z</time>
      </trkpt>
      <trkpt lat="42.4007" lon="0.0378">
        <ele>883.9</ele>
        <time>2016-07-24T08:57:57Z</time>
      </trkpt>
      <trkpt lat="42.4007" lon="0.03775">
        <ele>884.9</ele>
        <time>2016-07-24T08:57:58Z</time>
      </trkpt>
      <trkpt lat="42.4007" lon="0.03769">
        <ele>886</ele>
        <time>2016-07-24T08:57:59Z</time>
      </trkpt>
      <trkpt lat="42.40069" lon="0.03763">
        <ele>887.3</ele>
        <time>2016-07-24T08:58:00Z</time>
      </trkpt>
      <trkpt lat="42.40069" lon="0.03757">
        <ele>888.6</ele>
        <time>2016-07-24T08:58:01Z</time>
      </trkpt>
      <trkpt lat="42.40069" lon="0.0375">
        <ele>889.9</ele>
        <time>2016-07-24T08:58:02Z</time>
      </trkpt>
      <trkpt lat="42.40069" lon="0.03745">
        <ele>891.1</ele>
        <time>2016-07-24T08:58:03Z</time>
      </trkpt>
      <trkpt lat="42.4007" lon="0.03739">
        <ele>892.3</ele>
        <time>2016-07-24T08:58:04Z</time>
      </trkpt>
      <trkpt lat="42.4007" lon="0.03734">
        <ele>893.4</ele>
        <time>2016-07-24T08:58:05Z</time>
      </trkpt>
      <trkpt lat="42.4007" lon="0.03729">
        <ele>894.5</ele>
        <time>2016-07-24T08:58:06Z</time>
      </trkpt>
      <trkpt lat="42.4007" lon="0.03724">
        <ele>895.5</ele>
        <time>2016-07-24T08:58:07Z</time>
      </trkpt>
      <trkpt lat="42.4007" lon="0.0372">
        <ele>896.3</ele>
        <time>2016-07-24T08:58:08Z</time>
      </trkpt>
      <trkpt lat="42.4007" lon="0.03713">
        <ele>897.7</ele>
        <time>2016-07-24T08:58:10Z</time>
      </trkpt>
      <trkpt lat="42.40069" lon="0.03708">
        <ele>898.8</ele>
        <time>2016-07-24T08:58:12Z</time>
      </trkpt>
      <trkpt lat="42.40068" lon="0.03702">
        <ele>899.7</ele>
        <time>2016-07-24T08:58:14Z</time>
      </trkpt>
      <trkpt lat="42.40067" lon="0.03697">
        <ele>900.7</ele>
        <time>2016-07-24T08:58:16Z</time>
      </trkpt>
      <trkpt lat="42.40066" lon="0.03692">
        <ele>901.5</ele>
        <time>2016-07-24T08:58:18Z</time>
      </trkpt>
      <trkpt lat="42.40064" lon="0.03687">
        <ele>902.3</ele>
        <time>2016-07-24T08:58:20Z</time>
      </trkpt>
      <trkpt lat="42.4006" lon="0.03682">
        <ele>902.7</ele>
        <time>2016-07-24T08:58:22Z</time>
      </trkpt>
      <trkpt lat="42.40056" lon="0.03678">
        <ele>902.7</ele>
        <time>2016-07-24T08:58:24Z</time>
      </trkpt>
      <trkpt lat="42.40051" lon="0.03675">
        <ele>902.2</ele>
        <time>2016-07-24T08:58:26Z</time>
      </trkpt>
      <trkpt lat="42.40047" lon="0.03674">
        <ele>901.5</ele>
        <time>2016-07-24T08:58:28Z</time>
      </trkpt>
      <trkpt lat="42.40042" lon="0.03673">
        <ele>900.8</ele>
        <time>2016-07-24T08:58:30Z</time>
      </trkpt>
      <trkpt lat="42.40038" lon="0.03673">
        <ele>900.3</ele>
        <time>2016-07-24T08:58:32Z</time>
      </trkpt>
      <trkpt lat="42.40033" lon="0.03672">
        <ele>899.9</ele>
        <time>2016-07-24T08:58:34Z</time>
      </trkpt>
      <trkpt lat="42.40029" lon="0.03671">
        <ele>899.6</ele>
        <time>2016-07-24T08:58:36Z</time>
      </trkpt>
      <trkpt lat="42.40026" lon="0.0367">
        <ele>899.3</ele>
        <time>2016-07-24T08:58:38Z</time>
      </trkpt>
      <trkpt lat="42.40022" lon="0.0367">
        <ele>898.9</ele>
        <time>2016-07-24T08:58:40Z</time>
      </trkpt>
      <trkpt lat="42.40019" lon="0.03669">
        <ele>898.5</ele>
        <time>2016-07-24T08:58:42Z</time>
      </trkpt>
      <trkpt lat="42.40015" lon="0.03668">
        <ele>898.3</ele>
        <time>2016-07-24T08:58:44Z</time>
      </trkpt>
      <trkpt lat="42.40012" lon="0.03666">
        <ele>898.2</ele>
        <time>2016-07-24T08:58:46Z</time>
      </trkpt>
      <trkpt lat="42.40008" lon="0.03665">
        <ele>898</ele>
        <time>2016-07-24T08:58:48Z</time>
      </trkpt>
      <trkpt lat="42.40005" lon="0.03663">
        <ele>897.9</ele>
        <time>2016-07-24T08:58:50Z</time>
      </trkpt>
      <trkpt lat="42.40001" lon="0.03661">
        <ele>897.9</ele>
        <time>2016-07-24T08:58:52Z</time>
      </trkpt>
      <trkpt lat="42.39998" lon="0.03658">
        <ele>898</ele>
        <time>2016-07-24T08:58:54Z</time>
      </trkpt>
      <trkpt lat="42.39995" lon="0.03655">
        <ele>898.2</ele>
        <time>2016-07-24T08:58:56Z</time>
      </trkpt>
      <trkpt lat="42.39993" lon="0.03651">
        <ele>898.7</ele>
        <time>2016-07-24T08:58:58Z</time>
      </trkpt>
      <trkpt lat="42.39991" lon="0.03647">
        <ele>899.3</ele>
        <time>2016-07-24T08:59:00Z</time>
      </trkpt>
      <trkpt lat="42.39989" lon="0.03644">
        <ele>899.7</ele>
        <time>2016-07-24T08:59:02Z</time>
      </trkpt>
      <trkpt lat="42.39987" lon="0.03641">
        <ele>900.2</ele>
        <time>2016-07-24T08:59:04Z</time>
      </trkpt>
      <trkpt lat="42.39985" lon="0.03636">
        <ele>900.9</ele>
        <time>2016-07-24T08:59:06Z</time>
      </trkpt>
      <trkpt lat="42.39983" lon="0.03631">
        <ele>901.8</ele>
        <time>2016-07-24T08:59:08Z</time>
      </trkpt>
      <trkpt lat="42.39981" lon="0.03625">
        <ele>902.8</ele>
        <time>2016-07-24T08:59:10Z</time>
      </trkpt>
      <trkpt lat="42.3998" lon="0.03619">
        <ele>903.6</ele>
        <time>2016-07-24T08:59:12Z</time>
      </trkpt>
      <trkpt lat="42.39979" lon="0.03612">
        <ele>904.5</ele>
        <time>2016-07-24T08:59:14Z</time>
      </trkpt>
      <trkpt lat="42.39977" lon="0.03605">
        <ele>905.4</ele>
        <time>2016-07-24T08:59:16Z</time>
      </trkpt>
      <trkpt lat="42.39976" lon="0.03598">
        <ele>906.3</ele>
        <time>2016-07-24T08:59:18Z</time>
      </trkpt>
      <trkpt lat="42.39974" lon="0.03591">
        <ele>907.2</ele>
        <time>2016-07-24T08:59:20Z</time>
      </trkpt>
      <trkpt lat="42.39972" lon="0.03585">
        <ele>908</ele>
        <time>2016-07-24T08:59:22Z</time>
      </trkpt>
      <trkpt lat="42.39971" lon="0.03581">
        <ele>908.4</ele>
        <time>2016-07-24T08:59:23Z</time>
      </trkpt>
      <trkpt lat="42.39969" lon="0.03575">
        <ele>909.2</ele>
        <time>2016-07-24T08:59:25Z</time>
      </trkpt>
      <trkpt lat="42.39967" lon="0.03569">
        <ele>909.9</ele>
        <time>2016-07-24T08:59:27Z</time>
      </trkpt>
      <trkpt lat="42.39965" lon="0.03564">
        <ele>910.5</ele>
        <time>2016-07-24T08:59:29Z</time>
      </trkpt>
      <trkpt lat="42.39963" lon="0.03558">
        <ele>911</ele>
        <time>2016-07-24T08:59:31Z</time>
      </trkpt>
      <trkpt lat="42.3996" lon="0.03553">
        <ele>911.4</ele>
        <time>2016-07-24T08:59:33Z</time>
      </trkpt>
      <trkpt lat="42.39957" lon="0.03549">
        <ele>911.6</ele>
        <time>2016-07-24T08:59:35Z</time>
      </trkpt>
      <trkpt lat="42.39953" lon="0.03545">
        <ele>911.6</ele>
        <time>2016-07-24T08:59:37Z</time>
      </trkpt>
      <trkpt lat="42.3995" lon="0.0354">
        <ele>911.5</ele>
        <time>2016-07-24T08:59:39Z</time>
      </trkpt>
      <trkpt lat="42.39946" lon="0.03536">
        <ele>911.2</ele>
        <time>2016-07-24T08:59:41Z</time>
      </trkpt>
      <trkpt lat="42.39942" lon="0.03533">
        <ele>910.5</ele>
        <time>2016-07-24T08:59:43Z</time>
      </trkpt>
      <trkpt lat="42.39939" lon="0.03532">
        <ele>910</ele>
        <time>2016-07-24T08:59:44Z</time>
      </trkpt>
      <trkpt lat="42.39936" lon="0.03532">
        <ele>909.4</ele>
        <time>2016-07-24T08:59:45Z</time>
      </trkpt>
      <trkpt lat="42.39933" lon="0.03534">
        <ele>908.6</ele>
        <time>2016-07-24T08:59:46Z</time>
      </trkpt>
      <trkpt lat="42.39931" lon="0.03537">
        <ele>907.9</ele>
        <time>2016-07-24T08:59:47Z</time>
      </trkpt>
      <trkpt lat="42.39928" lon="0.03541">
        <ele>907.3</ele>
        <time>2016-07-24T08:59:48Z</time>
      </trkpt>
      <trkpt lat="42.39926" lon="0.03545">
        <ele>906.6</ele>
        <time>2016-07-24T08:59:49Z</time>
      </trkpt>
      <trkpt lat="42.39924" lon="0.03549">
        <ele>905.9</ele>
        <time>2016-07-24T08:59:50Z</time>
      </trkpt>
      <trkpt lat="42.39923" lon="0.03554">
        <ele>905.3</ele>
        <time>2016-07-24T08:59:51Z</time>
      </trkpt>
      <trkpt lat="42.39921" lon="0.03558">
        <ele>904.6</ele>
        <time>2016-07-24T08:59:52Z</time>
      </trkpt>
      <trkpt lat="42.39918" lon="0.03562">
        <ele>904</ele>
        <time>2016-07-24T08:59:53Z</time>
      </trkpt>
      <trkpt lat="42.39916" lon="0.03566">
        <ele>903.5</ele>
        <time>2016-07-24T08:59:54Z</time>
      </trkpt>
      <trkpt lat="42.39913" lon="0.0357">
        <ele>902.9</ele>
        <time>2016-07-24T08:59:55Z</time>
      </trkpt>
      <trkpt lat="42.3991" lon="0.03573">
        <ele>902.4</ele>
        <time>2016-07-24T08:59:56Z</time>
      </trkpt>
      <trkpt lat="42.39907" lon="0.03576">
        <ele>901.9</ele>
        <time>2016-07-24T08:59:57Z</time>
      </trkpt>
      <trkpt lat="42.39905" lon="0.03578">
        <ele>901.5</ele>
        <time>2016-07-24T08:59:58Z</time>
      </trkpt>
      <trkpt lat="42.39902" lon="0.03581">
        <ele>901.1</ele>
        <time>2016-07-24T08:59:59Z</time>
      </trkpt>
      <trkpt lat="42.39899" lon="0.03584">
        <ele>900.8</ele>
        <time>2016-07-24T09:00:00Z</time>
      </trkpt>
      <trkpt lat="42.39896" lon="0.03587">
        <ele>900.5</ele>
        <time>2016-07-24T09:00:01Z</time>
      </trkpt>
      <trkpt lat="42.39894" lon="0.03591">
        <ele>900.3</ele>
        <time>2016-07-24T09:00:02Z</time>
      </trkpt>
      <trkpt lat="42.39892" lon="0.03594">
        <ele>900.1</ele>
        <time>2016-07-24T09:00:03Z</time>
      </trkpt>
      <trkpt lat="42.39889" lon="0.03597">
        <ele>899.9</ele>
        <time>2016-07-24T09:00:04Z</time>
      </trkpt>
      <trkpt lat="42.39887" lon="0.036">
        <ele>899.8</ele>
        <time>2016-07-24T09:00:05Z</time>
      </trkpt>
      <trkpt lat="42.39884" lon="0.03603">
        <ele>899.6</ele>
        <time>2016-07-24T09:00:06Z</time>
      </trkpt>
      <trkpt lat="42.39881" lon="0.03606">
        <ele>899.6</ele>
        <time>2016-07-24T09:00:07Z</time>
      </trkpt>
      <trkpt lat="42.39877" lon="0.03609">
        <ele>899.5</ele>
        <time>2016-07-24T09:00:08Z</time>
      </trkpt>
      <trkpt lat="42.39874" lon="0.03611">
        <ele>899.1</ele>
        <time>2016-07-24T09:00:09Z</time>
      </trkpt>
      <trkpt lat="42.39871" lon="0.03613">
        <ele>897.8</ele>
        <time>2016-07-24T09:00:10Z</time>
      </trkpt>
      <trkpt lat="42.39867" lon="0.03616">
        <ele>896.6</ele>
        <time>2016-07-24T09:00:11Z</time>
      </trkpt>
      <trkpt lat="42.39864" lon="0.03617">
        <ele>895.4</ele>
        <time>2016-07-24T09:00:12Z</time>
      </trkpt>
      <trkpt lat="42.39861" lon="0.03619">
        <ele>894.3</ele>
        <time>2016-07-24T09:00:13Z</time>
      </trkpt>
      <trkpt lat="42.39858" lon="0.03621">
        <ele>893.4</ele>
        <time>2016-07-24T09:00:14Z</time>
      </trkpt>
      <trkpt lat="42.39854" lon="0.03624">
        <ele>891.8</ele>
        <time>2016-07-24T09:00:16Z</time>
      </trkpt>
      <trkpt lat="42.3985" lon="0.03627">
        <ele>890.2</ele>
        <time>2016-07-24T09:00:18Z</time>
      </trkpt>
      <trkpt lat="42.39846" lon="0.03629">
        <ele>888.5</ele>
        <time>2016-07-24T09:00:20Z</time>
      </trkpt>
      <trkpt lat="42.39841" lon="0.0363">
        <ele>886.6</ele>
        <time>2016-07-24T09:00:22Z</time>
      </trkpt>
      <trkpt lat="42.39836" lon="0.03629">
        <ele>884.8</ele>
        <time>2016-07-24T09:00:24Z</time>
      </trkpt>
      <trkpt lat="42.39833" lon="0.03623">
        <ele>883.5</ele>
        <time>2016-07-24T09:00:26Z</time>
      </trkpt>
      <trkpt lat="42.39832" lon="0.03619">
        <ele>883</ele>
        <time>2016-07-24T09:00:27Z</time>
      </trkpt>
      <trkpt lat="42.39832" lon="0.03615">
        <ele>882.7</ele>
        <time>2016-07-24T09:00:28Z</time>
      </trkpt>
      <trkpt lat="42.39832" lon="0.03611">
        <ele>882.6</ele>
        <time>2016-07-24T09:00:29Z</time>
      </trkpt>
      <trkpt lat="42.39833" lon="0.03608">
        <ele>882.8</ele>
        <time>2016-07-24T09:00:30Z</time>
      </trkpt>
      <trkpt lat="42.39835" lon="0.03604">
        <ele>883.1</ele>
        <time>2016-07-24T09:00:31Z</time>
      </trkpt>
      <trkpt lat="42.39837" lon="0.03601">
        <ele>883.6</ele>
        <time>2016-07-24T09:00:32Z</time>
      </trkpt>
      <trkpt lat="42.3984" lon="0.03596">
        <ele>884.6</ele>
        <time>2016-07-24T09:00:34Z</time>
      </trkpt>
      <trkpt lat="42.39844" lon="0.03591">
        <ele>885.9</ele>
        <time>2016-07-24T09:00:36Z</time>
      </trkpt>
      <trkpt lat="42.39848" lon="0.03586">
        <ele>887.1</ele>
        <time>2016-07-24T09:00:38Z</time>
      </trkpt>
      <trkpt lat="42.39851" lon="0.03581">
        <ele>888.3</ele>
        <time>2016-07-24T09:00:40Z</time>
      </trkpt>
      <trkpt lat="42.39854" lon="0.03576">
        <ele>889.2</ele>
        <time>2016-07-24T09:00:42Z</time>
      </trkpt>
      <trkpt lat="42.39857" lon="0.03571">
        <ele>890.2</ele>
        <time>2016-07-24T09:00:44Z</time>
      </trkpt>
      <trkpt lat="42.39859" lon="0.03567">
        <ele>891</ele>
        <time>2016-07-24T09:00:46Z</time>
      </trkpt>
      <trkpt lat="42.39862" lon="0.03563">
        <ele>891.9</ele>
        <time>2016-07-24T09:00:48Z</time>
      </trkpt>
      <trkpt lat="42.39864" lon="0.03558">
        <ele>892.7</ele>
        <time>2016-07-24T09:00:50Z</time>
      </trkpt>
      <trkpt lat="42.39866" lon="0.03554">
        <ele>893.3</ele>
        <time>2016-07-24T09:00:52Z</time>
      </trkpt>
      <trkpt lat="42.39868" lon="0.03551">
        <ele>894</ele>
        <time>2016-07-24T09:00:54Z</time>
      </trkpt>
      <trkpt lat="42.3987" lon="0.03547">
        <ele>894.7</ele>
        <time>2016-07-24T09:00:56Z</time>
      </trkpt>
      <trkpt lat="42.39871" lon="0.03544">
        <ele>895.4</ele>
        <time>2016-07-24T09:00:58Z</time>
      </trkpt>
      <trkpt lat="42.39874" lon="0.03541">
        <ele>896.3</ele>
        <time>2016-07-24T09:01:00Z</time>
      </trkpt>
      <trkpt lat="42.39876" lon="0.03538">
        <ele>896.9</ele>
        <time>2016-07-24T09:01:02Z</time>
      </trkpt>
      <trkpt lat="42.39878" lon="0.03535">
        <ele>897.1</ele>
        <time>2016-07-24T09:01:04Z</time>
      </trkpt>
      <trkpt lat="42.39881" lon="0.03531">
        <ele>897.4</ele>
        <time>2016-07-24T09:01:06Z</time>
      </trkpt>
      <trkpt lat="42.39884" lon="0.03528">
        <ele>897.8</ele>
        <time>2016-07-24T09:01:08Z</time>
      </trkpt>
      <trkpt lat="42.39887" lon="0.03524">
        <ele>898.3</ele>
        <time>2016-07-24T09:01:10Z</time>
      </trkpt>
      <trkpt lat="42.39889" lon="0.0352">
        <ele>898.7</ele>
        <time>2016-07-24T09:01:12Z</time>
      </trkpt>
      <trkpt lat="42.39892" lon="0.03516">
        <ele>899.2</ele>
        <time>2016-07-24T09:01:14Z</time>
      </trkpt>
      <trkpt lat="42.39895" lon="0.03512">
        <ele>899.8</ele>
        <time>2016-07-24T09:01:16Z</time>
      </trkpt>
      <trkpt lat="42.39898" lon="0.03508">
        <ele>900.5</ele>
        <time>2016-07-24T09:01:18Z</time>
      </trkpt>
      <trkpt lat="42.39901" lon="0.03505">
        <ele>901.2</ele>
        <time>2016-07-24T09:01:20Z</time>
      </trkpt>
      <trkpt lat="42.39904" lon="0.03501">
        <ele>902</ele>
        <time>2016-07-24T09:01:22Z</time>
      </trkpt>
      <trkpt lat="42.39908" lon="0.03497">
        <ele>903</ele>
        <time>2016-07-24T09:01:24Z</time>
      </trkpt>
      <trkpt lat="42.39911" lon="0.03492">
        <ele>904</ele>
        <time>2016-07-24T09:01:26Z</time>
      </trkpt>
      <trkpt lat="42.39914" lon="0.03488">
        <ele>905</ele>
        <time>2016-07-24T09:01:28Z</time>
      </trkpt>
      <trkpt lat="42.39917" lon="0.03484">
        <ele>906.1</ele>
        <time>2016-07-24T09:01:30Z</time>
      </trkpt>
      <trkpt lat="42.3992" lon="0.0348">
        <ele>907.3</ele>
        <time>2016-07-24T09:01:32Z</time>
      </trkpt>
      <trkpt lat="42.39922" lon="0.03475">
        <ele>908.1</ele>
        <time>2016-07-24T09:01:34Z</time>
      </trkpt>
      <trkpt lat="42.39924" lon="0.03472">
        <ele>909</ele>
        <time>2016-07-24T09:01:36Z</time>
      </trkpt>
      <trkpt lat="42.39927" lon="0.03468">
        <ele>910.1</ele>
        <time>2016-07-24T09:01:38Z</time>
      </trkpt>
      <trkpt lat="42.39929" lon="0.03464">
        <ele>911.2</ele>
        <time>2016-07-24T09:01:40Z</time>
      </trkpt>
      <trkpt lat="42.39932" lon="0.03461">
        <ele>912.5</ele>
        <time>2016-07-24T09:01:42Z</time>
      </trkpt>
      <trkpt lat="42.39935" lon="0.03458">
        <ele>913.6</ele>
        <time>2016-07-24T09:01:44Z</time>
      </trkpt>
      <trkpt lat="42.39937" lon="0.03455">
        <ele>914.8</ele>
        <time>2016-07-24T09:01:46Z</time>
      </trkpt>
      <trkpt lat="42.3994" lon="0.03451">
        <ele>916.2</ele>
        <time>2016-07-24T09:01:48Z</time>
      </trkpt>
      <trkpt lat="42.39944" lon="0.03448">
        <ele>917.7</ele>
        <time>2016-07-24T09:01:50Z</time>
      </trkpt>
      <trkpt lat="42.39947" lon="0.03446">
        <ele>919</ele>
        <time>2016-07-24T09:01:52Z</time>
      </trkpt>
      <trkpt lat="42.3995" lon="0.03443">
        <ele>920.4</ele>
        <time>2016-07-24T09:01:54Z</time>
      </trkpt>
      <trkpt lat="42.39953" lon="0.03441">
        <ele>921.9</ele>
        <time>2016-07-24T09:01:56Z</time>
      </trkpt>
      <trkpt lat="42.39956" lon="0.0344">
        <ele>923.3</ele>
        <time>2016-07-24T09:01:58Z</time>
      </trkpt>
      <trkpt lat="42.3996" lon="0.03438">
        <ele>924.6</ele>
        <time>2016-07-24T09:02:00Z</time>
      </trkpt>
      <trkpt lat="42.39965" lon="0.03439">
        <ele>925.5</ele>
        <time>2016-07-24T09:02:02Z</time>
      </trkpt>
      <trkpt lat="42.39969" lon="0.03442">
        <ele>926.3</ele>
        <time>2016-07-24T09:02:04Z</time>
      </trkpt>
      <trkpt lat="42.39972" lon="0.03444">
        <ele>926.6</ele>
        <time>2016-07-24T09:02:05Z</time>
      </trkpt>
      <trkpt lat="42.39974" lon="0.03447">
        <ele>926.8</ele>
        <time>2016-07-24T09:02:06Z</time>
      </trkpt>
      <trkpt lat="42.39976" lon="0.0345">
        <ele>927.1</ele>
        <time>2016-07-24T09:02:07Z</time>
      </trkpt>
      <trkpt lat="42.39978" lon="0.03453">
        <ele>927.2</ele>
        <time>2016-07-24T09:02:08Z</time>
      </trkpt>
      <trkpt lat="42.3998" lon="0.03455">
        <ele>927.4</ele>
        <time>2016-07-24T09:02:09Z</time>
      </trkpt>
      <trkpt lat="42.39982" lon="0.03458">
        <ele>927.5</ele>
        <time>2016-07-24T09:02:10Z</time>
      </trkpt>
      <trkpt lat="42.39984" lon="0.03461">
        <ele>927.6</ele>
        <time>2016-07-24T09:02:11Z</time>
      </trkpt>
      <trkpt lat="42.39986" lon="0.03463">
        <ele>927.6</ele>
        <time>2016-07-24T09:02:12Z</time>
      </trkpt>
      <trkpt lat="42.39988" lon="0.03466">
        <ele>927.6</ele>
        <time>2016-07-24T09:02:13Z</time>
      </trkpt>
      <trkpt lat="42.39992" lon="0.03471">
        <ele>927.6</ele>
        <time>2016-07-24T09:02:15Z</time>
      </trkpt>
      <trkpt lat="42.39996" lon="0.03476">
        <ele>927.6</ele>
        <time>2016-07-24T09:02:17Z</time>
      </trkpt>
      <trkpt lat="42.39998" lon="0.03479">
        <ele>927.6</ele>
        <time>2016-07-24T09:02:18Z</time>
      </trkpt>
      <trkpt lat="42.4" lon="0.03481">
        <ele>927.5</ele>
        <time>2016-07-24T09:02:19Z</time>
      </trkpt>
      <trkpt lat="42.40002" lon="0.03484">
        <ele>927.5</ele>
        <time>2016-07-24T09:02:20Z</time>
      </trkpt>
      <trkpt lat="42.40004" lon="0.03486">
        <ele>927.6</ele>
        <time>2016-07-24T09:02:21Z</time>
      </trkpt>
      <trkpt lat="42.40006" lon="0.03488">
        <ele>927.6</ele>
        <time>2016-07-24T09:02:22Z</time>
      </trkpt>
      <trkpt lat="42.4001" lon="0.03492">
        <ele>927.7</ele>
        <time>2016-07-24T09:02:24Z</time>
      </trkpt>
      <trkpt lat="42.40014" lon="0.03496">
        <ele>927.6</ele>
        <time>2016-07-24T09:02:26Z</time>
      </trkpt>
      <trkpt lat="42.40017" lon="0.03501">
        <ele>927.4</ele>
        <time>2016-07-24T09:02:28Z</time>
      </trkpt>
      <trkpt lat="42.40021" lon="0.03506">
        <ele>927</ele>
        <time>2016-07-24T09:02:30Z</time>
      </trkpt>
      <trkpt lat="42.40023" lon="0.03511">
        <ele>926.6</ele>
        <time>2016-07-24T09:02:32Z</time>
      </trkpt>
      <trkpt lat="42.40026" lon="0.03517">
        <ele>926.1</ele>
        <time>2016-07-24T09:02:34Z</time>
      </trkpt>
      <trkpt lat="42.40028" lon="0.03522">
        <ele>925.5</ele>
        <time>2016-07-24T09:02:36Z</time>
      </trkpt>
      <trkpt lat="42.4003" lon="0.03527">
        <ele>924.9</ele>
        <time>2016-07-24T09:02:38Z</time>
      </trkpt>
      <trkpt lat="42.40033" lon="0.03531">
        <ele>924.7</ele>
        <time>2016-07-24T09:02:40Z</time>
      </trkpt>
      <trkpt lat="42.40037" lon="0.03531">
        <ele>925.1</ele>
        <time>2016-07-24T09:02:42Z</time>
      </trkpt>
      <trkpt lat="42.4004" lon="0.03528">
        <ele>926.2</ele>
        <time>2016-07-24T09:02:44Z</time>
      </trkpt>
      <trkpt lat="42.4004" lon="0.03522">
        <ele>927.4</ele>
        <time>2016-07-24T09:02:46Z</time>
      </trkpt>
      <trkpt lat="42.40039" lon="0.03515">
        <ele>928.3</ele>
        <time>2016-07-24T09:02:48Z</time>
      </trkpt>
      <trkpt lat="42.40036" lon="0.03509">
        <ele>929</ele>
        <time>2016-07-24T09:02:50Z</time>
      </trkpt>
      <trkpt lat="42.40034" lon="0.03503">
        <ele>929.7</ele>
        <time>2016-07-24T09:02:52Z</time>
      </trkpt>
      <trkpt lat="42.40032" lon="0.03497">
        <ele>930.5</ele>
        <time>2016-07-24T09:02:54Z</time>
      </trkpt>
      <trkpt lat="42.4003" lon="0.03491">
        <ele>931.1</ele>
        <time>2016-07-24T09:02:56Z</time>
      </trkpt>
      <trkpt lat="42.40029" lon="0.03486">
        <ele>931.8</ele>
        <time>2016-07-24T09:02:58Z</time>
      </trkpt>
      <trkpt lat="42.40027" lon="0.03481">
        <ele>932.4</ele>
        <time>2016-07-24T09:03:00Z</time>
      </trkpt>
      <trkpt lat="42.40026" lon="0.03475">
        <ele>933.1</ele>
        <time>2016-07-24T09:03:02Z</time>
      </trkpt>
      <trkpt lat="42.40025" lon="0.03469">
        <ele>933.9</ele>
        <time>2016-07-24T09:03:04Z</time>
      </trkpt>
      <trkpt lat="42.40023" lon="0.03464">
        <ele>934.6</ele>
        <time>2016-07-24T09:03:06Z</time>
      </trkpt>
      <trkpt lat="42.40022" lon="0.03458">
        <ele>935.2</ele>
        <time>2016-07-24T09:03:08Z</time>
      </trkpt>
      <trkpt lat="42.4002" lon="0.03453">
        <ele>935.6</ele>
        <time>2016-07-24T09:03:10Z</time>
      </trkpt>
      <trkpt lat="42.40019" lon="0.03448">
        <ele>936</ele>
        <time>2016-07-24T09:03:12Z</time>
      </trkpt>
      <trkpt lat="42.40017" lon="0.03444">
        <ele>936.3</ele>
        <time>2016-07-24T09:03:14Z</time>
      </trkpt>
      <trkpt lat="42.40015" lon="0.0344">
        <ele>936.3</ele>
        <time>2016-07-24T09:03:16Z</time>
      </trkpt>
      <trkpt lat="42.40013" lon="0.03436">
        <ele>936.3</ele>
        <time>2016-07-24T09:03:18Z</time>
      </trkpt>
      <trkpt lat="42.40011" lon="0.03433">
        <ele>936.3</ele>
        <time>2016-07-24T09:03:20Z</time>
      </trkpt>
      <trkpt lat="42.40009" lon="0.03429">
        <ele>936.3</ele>
        <time>2016-07-24T09:03:22Z</time>
      </trkpt>
      <trkpt lat="42.40007" lon="0.03425">
        <ele>936.4</ele>
        <time>2016-07-24T09:03:24Z</time>
      </trkpt>
      <trkpt lat="42.40005" lon="0.03421">
        <ele>936.4</ele>
        <time>2016-07-24T09:03:26Z</time>
      </trkpt>
      <trkpt lat="42.40004" lon="0.03418">
        <ele>936.5</ele>
        <time>2016-07-24T09:03:28Z</time>
      </trkpt>
      <trkpt lat="42.40002" lon="0.03415">
        <ele>936.5</ele>
        <time>2016-07-24T09:03:30Z</time>
      </trkpt>
      <trkpt lat="42.40001" lon="0.03411">
        <ele>936.5</ele>
        <time>2016-07-24T09:03:32Z</time>
      </trkpt>
      <trkpt lat="42.39999" lon="0.03408">
        <ele>936.6</ele>
        <time>2016-07-24T09:03:34Z</time>
      </trkpt>
      <trkpt lat="42.39998" lon="0.03403">
        <ele>936.7</ele>
        <time>2016-07-24T09:03:36Z</time>
      </trkpt>
      <trkpt lat="42.39996" lon="0.03399">
        <ele>936.8</ele>
        <time>2016-07-24T09:03:38Z</time>
      </trkpt>
      <trkpt lat="42.39995" lon="0.03395">
        <ele>936.9</ele>
        <time>2016-07-24T09:03:40Z</time>
      </trkpt>
      <trkpt lat="42.39995" lon="0.03391">
        <ele>937.2</ele>
        <time>2016-07-24T09:03:42Z</time>
      </trkpt>
      <trkpt lat="42.39994" lon="0.03387">
        <ele>937.5</ele>
        <time>2016-07-24T09:03:44Z</time>
      </trkpt>
      <trkpt lat="42.39993" lon="0.03382">
        <ele>937.8</ele>
        <time>2016-07-24T09:03:46Z</time>
      </trkpt>
      <trkpt lat="42.39993" lon="0.03378">
        <ele>938</ele>
        <time>2016-07-24T09:03:48Z</time>
      </trkpt>
      <trkpt lat="42.39991" lon="0.03373">
        <ele>938</ele>
        <time>2016-07-24T09:03:50Z</time>
      </trkpt>
      <trkpt lat="42.39989" lon="0.03368">
        <ele>937.7</ele>
        <time>2016-07-24T09:03:52Z</time>
      </trkpt>
      <trkpt lat="42.39987" lon="0.03364">
        <ele>937.3</ele>
        <time>2016-07-24T09:03:54Z</time>
      </trkpt>
      <trkpt lat="42.39985" lon="0.0336">
        <ele>936.8</ele>
        <time>2016-07-24T09:03:56Z</time>
      </trkpt>
      <trkpt lat="42.39983" lon="0.03356">
        <ele>936.2</ele>
        <time>2016-07-24T09:03:58Z</time>
      </trkpt>
      <trkpt lat="42.3998" lon="0.03353">
        <ele>935.5</ele>
        <time>2016-07-24T09:04:00Z</time>
      </trkpt>
      <trkpt lat="42.39978" lon="0.0335">
        <ele>934.7</ele>
        <time>2016-07-24T09:04:02Z</time>
      </trkpt>
      <trkpt lat="42.39975" lon="0.03347">
        <ele>933.8</ele>
        <time>2016-07-24T09:04:04Z</time>
      </trkpt>
      <trkpt lat="42.39972" lon="0.03344">
        <ele>932.9</ele>
        <time>2016-07-24T09:04:06Z</time>
      </trkpt>
      <trkpt lat="42.39969" lon="0.03342">
        <ele>931.9</ele>
        <time>2016-07-24T09:04:08Z</time>
      </trkpt>
      <trkpt lat="42.39966" lon="0.0334">
        <ele>930.8</ele>
        <time>2016-07-24T09:04:10Z</time>
      </trkpt>
      <trkpt lat="42.39963" lon="0.03338">
        <ele>929.6</ele>
        <time>2016-07-24T09:04:12Z</time>
      </trkpt>
      <trkpt lat="42.3996" lon="0.03335">
        <ele>928.5</ele>
        <time>2016-07-24T09:04:14Z</time>
      </trkpt>
      <trkpt lat="42.39957" lon="0.03332">
        <ele>927.6</ele>
        <time>2016-07-24T09:04:16Z</time>
      </trkpt>
      <trkpt lat="42.39956" lon="0.03329">
        <ele>926.7</ele>
        <time>2016-07-24T09:04:18Z</time>
      </trkpt>
      <trkpt lat="42.39953" lon="0.03326">
        <ele>925.7</ele>
        <time>2016-07-24T09:04:20Z</time>
      </trkpt>
      <trkpt lat="42.39951" lon="0.03324">
        <ele>924.8</ele>
        <time>2016-07-24T09:04:22Z</time>
      </trkpt>
      <trkpt lat="42.3995" lon="0.0332">
        <ele>924.2</ele>
        <time>2016-07-24T09:04:24Z</time>
      </trkpt>
      <trkpt lat="42.3995" lon="0.03316">
        <ele>924.5</ele>
        <time>2016-07-24T09:04:26Z</time>
      </trkpt>
      <trkpt lat="42.39953" lon="0.03313">
        <ele>925.6</ele>
        <time>2016-07-24T09:04:28Z</time>
      </trkpt>
      <trkpt lat="42.39956" lon="0.03311">
        <ele>927.2</ele>
        <time>2016-07-24T09:04:30Z</time>
      </trkpt>
      <trkpt lat="42.39961" lon="0.03312">
        <ele>929</ele>
        <time>2016-07-24T09:04:32Z</time>
      </trkpt>
      <trkpt lat="42.39965" lon="0.03314">
        <ele>930.8</ele>
        <time>2016-07-24T09:04:34Z</time>
      </trkpt>
      <trkpt lat="42.39969" lon="0.03317">
        <ele>932.4</ele>
        <time>2016-07-24T09:04:36Z</time>
      </trkpt>
      <trkpt lat="42.39973" lon="0.0332">
        <ele>934</ele>
        <time>2016-07-24T09:04:38Z</time>
      </trkpt>
      <trkpt lat="42.39977" lon="0.03321">
        <ele>935.6</ele>
        <time>2016-07-24T09:04:40Z</time>
      </trkpt>
      <trkpt lat="42.39981" lon="0.03322">
        <ele>937.1</ele>
        <time>2016-07-24T09:04:42Z</time>
      </trkpt>
      <trkpt lat="42.39985" lon="0.03324">
        <ele>938.5</ele>
        <time>2016-07-24T09:04:44Z</time>
      </trkpt>
      <trkpt lat="42.39989" lon="0.03326">
        <ele>940.1</ele>
        <time>2016-07-24T09:04:46Z</time>
      </trkpt>
      <trkpt lat="42.39993" lon="0.03327">
        <ele>941.5</ele>
        <time>2016-07-24T09:04:48Z</time>
      </trkpt>
      <trkpt lat="42.39997" lon="0.03328">
        <ele>943</ele>
        <time>2016-07-24T09:04:50Z</time>
      </trkpt>
      <trkpt lat="42.40001" lon="0.0333">
        <ele>944.3</ele>
        <time>2016-07-24T09:04:52Z</time>
      </trkpt>
      <trkpt lat="42.40004" lon="0.03331">
        <ele>945.6</ele>
        <time>2016-07-24T09:04:54Z</time>
      </trkpt>
      <trkpt lat="42.40008" lon="0.03332">
        <ele>947</ele>
        <time>2016-07-24T09:04:56Z</time>
      </trkpt>
      <trkpt lat="42.40011" lon="0.03333">
        <ele>948.1</ele>
        <time>2016-07-24T09:04:58Z</time>
      </trkpt>
      <trkpt lat="42.40015" lon="0.03334">
        <ele>949.2</ele>
        <time>2016-07-24T09:05:00Z</time>
      </trkpt>
      <trkpt lat="42.40018" lon="0.03335">
        <ele>950.3</ele>
        <time>2016-07-24T09:05:02Z</time>
      </trkpt>
      <trkpt lat="42.40021" lon="0.03336">
        <ele>951.3</ele>
        <time>2016-07-24T09:05:04Z</time>
      </trkpt>
      <trkpt lat="42.40024" lon="0.03337">
        <ele>952.3</ele>
        <time>2016-07-24T09:05:06Z</time>
      </trkpt>
      <trkpt lat="42.40027" lon="0.03339">
        <ele>953.2</ele>
        <time>2016-07-24T09:05:08Z</time>
      </trkpt>
      <trkpt lat="42.4003" lon="0.0334">
        <ele>954</ele>
        <time>2016-07-24T09:05:10Z</time>
      </trkpt>
      <trkpt lat="42.40032" lon="0.03342">
        <ele>954.6</ele>
        <time>2016-07-24T09:05:12Z</time>
      </trkpt>
      <trkpt lat="42.40034" lon="0.03345">
        <ele>955</ele>
        <time>2016-07-24T09:05:14Z</time>
      </trkpt>
      <trkpt lat="42.40037" lon="0.03348">
        <ele>955.4</ele>
        <time>2016-07-24T09:05:16Z</time>
      </trkpt>
      <trkpt lat="42.40039" lon="0.03351">
        <ele>955.9</ele>
        <time>2016-07-24T09:05:18Z</time>
      </trkpt>
      <trkpt lat="42.40042" lon="0.03353">
        <ele>956.4</ele>
        <time>2016-07-24T09:05:20Z</time>
      </trkpt>
      <trkpt lat="42.40044" lon="0.03355">
        <ele>956.4</ele>
        <time>2016-07-24T09:05:22Z</time>
      </trkpt>
      <trkpt lat="42.40047" lon="0.03357">
        <ele>956.4</ele>
        <time>2016-07-24T09:05:24Z</time>
      </trkpt>
      <trkpt lat="42.4005" lon="0.0336">
        <ele>956.4</ele>
        <time>2016-07-24T09:05:26Z</time>
      </trkpt>
      <trkpt lat="42.40052" lon="0.03362">
        <ele>956.5</ele>
        <time>2016-07-24T09:05:28Z</time>
      </trkpt>
      <trkpt lat="42.40055" lon="0.03364">
        <ele>956.5</ele>
        <time>2016-07-24T09:05:30Z</time>
      </trkpt>
      <trkpt lat="42.40059" lon="0.03366">
        <ele>956.7</ele>
        <time>2016-07-24T09:05:32Z</time>
      </trkpt>
      <trkpt lat="42.40062" lon="0.03368">
        <ele>956.8</ele>
        <time>2016-07-24T09:05:34Z</time>
      </trkpt>
      <trkpt lat="42.40065" lon="0.03369">
        <ele>957</ele>
        <time>2016-07-24T09:05:36Z</time>
      </trkpt>
      <trkpt lat="42.40068" lon="0.03371">
        <ele>957.2</ele>
        <time>2016-07-24T09:05:38Z</time>
      </trkpt>
      <trkpt lat="42.40072" lon="0.03372">
        <ele>957.4</ele>
        <time>2016-07-24T09:05:40Z</time>
      </trkpt>
      <trkpt lat="42.40075" lon="0.03372">
        <ele>957.8</ele>
        <time>2016-07-24T09:05:42Z</time>
      </trkpt>
      <trkpt lat="42.40078" lon="0.03371">
        <ele>958.4</ele>
        <time>2016-07-24T09:05:44Z</time>
      </trkpt>
      <trkpt lat="42.40081" lon="0.0337">
        <ele>959.1</ele>
        <time>2016-07-24T09:05:46Z</time>
      </trkpt>
      <trkpt lat="42.40084" lon="0.03367">
        <ele>959.8</ele>
        <time>2016-07-24T09:05:48Z</time>
      </trkpt>
      <trkpt lat="42.40086" lon="0.03364">
        <ele>960.6</ele>
        <time>2016-07-24T09:05:50Z</time>
      </trkpt>
      <trkpt lat="42.40088" lon="0.0336">
        <ele>961.4</ele>
        <time>2016-07-24T09:05:52Z</time>
      </trkpt>
      <trkpt lat="42.40087" lon="0.03355">
        <ele>961.9</ele>
        <time>2016-07-24T09:05:54Z</time>
      </trkpt>
      <trkpt lat="42.40084" lon="0.03352">
        <ele>962.1</ele>
        <time>2016-07-24T09:05:56Z</time>
      </trkpt>
      <trkpt lat="42.4008" lon="0.0335">
        <ele>961.9</ele>
        <time>2016-07-24T09:05:58Z</time>
      </trkpt>
      <trkpt lat="42.40077" lon="0.03348">
        <ele>961.8</ele>
        <time>2016-07-24T09:06:00Z</time>
      </trkpt>
      <trkpt lat="42.40075" lon="0.03344">
        <ele>962</ele>
        <time>2016-07-24T09:06:02Z</time>
      </trkpt>
      <trkpt lat="42.40074" lon="0.0334">
        <ele>962.6</ele>
        <time>2016-07-24T09:06:04Z</time>
      </trkpt>
      <trkpt lat="42.40074" lon="0.03335">
        <ele>963.2</ele>
        <time>2016-07-24T09:06:07Z</time>
      </trkpt>
      <trkpt lat="42.40072" lon="0.03331">
        <ele>963.8</ele>
        <time>2016-07-24T09:06:10Z</time>
      </trkpt>
      <trkpt lat="42.4007" lon="0.03326">
        <ele>964.2</ele>
        <time>2016-07-24T09:06:13Z</time>
      </trkpt>
      <trkpt lat="42.40069" lon="0.03323">
        <ele>964.5</ele>
        <time>2016-07-24T09:06:15Z</time>
      </trkpt>
      <trkpt lat="42.40066" lon="0.03319">
        <ele>964.8</ele>
        <time>2016-07-24T09:06:18Z</time>
      </trkpt>
      <trkpt lat="42.40064" lon="0.03315">
        <ele>965.1</ele>
        <time>2016-07-24T09:06:21Z</time>
      </trkpt>
      <trkpt lat="42.40062" lon="0.03311">
        <ele>965.4</ele>
        <time>2016-07-24T09:06:23Z</time>
      </trkpt>
      <trkpt lat="42.4006" lon="0.03308">
        <ele>965.7</ele>
        <time>2016-07-24T09:06:25Z</time>
      </trkpt>
      <trkpt lat="42.40058" lon="0.03305">
        <ele>965.9</ele>
        <time>2016-07-24T09:06:27Z</time>
      </trkpt>
      <trkpt lat="42.40056" lon="0.03301">
        <ele>966.3</ele>
        <time>2016-07-24T09:06:29Z</time>
      </trkpt>
      <trkpt lat="42.40055" lon="0.03297">
        <ele>966.8</ele>
        <time>2016-07-24T09:06:31Z</time>
      </trkpt>
      <trkpt lat="42.40054" lon="0.03293">
        <ele>967.3</ele>
        <time>2016-07-24T09:06:33Z</time>
      </trkpt>
      <trkpt lat="42.40053" lon="0.03289">
        <ele>967.6</ele>
        <time>2016-07-24T09:06:35Z</time>
      </trkpt>
      <trkpt lat="42.40052" lon="0.03285">
        <ele>967.7</ele>
        <time>2016-07-24T09:06:37Z</time>
      </trkpt>
      <trkpt lat="42.4005" lon="0.03281">
        <ele>967.8</ele>
        <time>2016-07-24T09:06:39Z</time>
      </trkpt>
      <trkpt lat="42.40048" lon="0.03278">
        <ele>967.8</ele>
        <time>2016-07-24T09:06:41Z</time>
      </trkpt>
      <trkpt lat="42.40046" lon="0.03274">
        <ele>967.8</ele>
        <time>2016-07-24T09:06:43Z</time>
      </trkpt>
      <trkpt lat="42.40044" lon="0.03271">
        <ele>967.8</ele>
        <time>2016-07-24T09:06:45Z</time>
      </trkpt>
      <trkpt lat="42.40043" lon="0.03267">
        <ele>968</ele>
        <time>2016-07-24T09:06:47Z</time>
      </trkpt>
      <trkpt lat="42.40042" lon="0.03262">
        <ele>968.1</ele>
        <time>2016-07-24T09:06:49Z</time>
      </trkpt>
      <trkpt lat="42.4004" lon="0.03259">
        <ele>967.7</ele>
        <time>2016-07-24T09:06:51Z</time>
      </trkpt>
      <trkpt lat="42.40038" lon="0.03255">
        <ele>967</ele>
        <time>2016-07-24T09:06:53Z</time>
      </trkpt>
      <trkpt lat="42.40036" lon="0.03252">
        <ele>966.1</ele>
        <time>2016-07-24T09:06:55Z</time>
      </trkpt>
      <trkpt lat="42.40033" lon="0.03249">
        <ele>965</ele>
        <time>2016-07-24T09:06:57Z</time>
      </trkpt>
      <trkpt lat="42.40031" lon="0.03246">
        <ele>964</ele>
        <time>2016-07-24T09:06:59Z</time>
      </trkpt>
      <trkpt lat="42.40029" lon="0.03243">
        <ele>963.4</ele>
        <time>2016-07-24T09:07:01Z</time>
      </trkpt>
      <trkpt lat="42.40028" lon="0.03239">
        <ele>963.1</ele>
        <time>2016-07-24T09:07:03Z</time>
      </trkpt>
      <trkpt lat="42.40027" lon="0.03235">
        <ele>963.2</ele>
        <time>2016-07-24T09:07:05Z</time>
      </trkpt>
      <trkpt lat="42.40027" lon="0.0323">
        <ele>963.4</ele>
        <time>2016-07-24T09:07:07Z</time>
      </trkpt>
      <trkpt lat="42.40026" lon="0.03227">
        <ele>963.2</ele>
        <time>2016-07-24T09:07:09Z</time>
      </trkpt>
      <trkpt lat="42.40025" lon="0.03223">
        <ele>962.8</ele>
        <time>2016-07-24T09:07:11Z</time>
      </trkpt>
      <trkpt lat="42.40024" lon="0.0322">
        <ele>962.5</ele>
        <time>2016-07-24T09:07:13Z</time>
      </trkpt>
      <trkpt lat="42.40023" lon="0.03216">
        <ele>962.4</ele>
        <time>2016-07-24T09:07:15Z</time>
      </trkpt>
      <trkpt lat="42.40022" lon="0.03212">
        <ele>962.4</ele>
        <time>2016-07-24T09:07:17Z</time>
      </trkpt>
      <trkpt lat="42.40021" lon="0.03208">
        <ele>962.3</ele>
        <time>2016-07-24T09:07:19Z</time>
      </trkpt>
      <trkpt lat="42.40021" lon="0.03203">
        <ele>962.8</ele>
        <time>2016-07-24T09:07:21Z</time>
      </trkpt>
      <trkpt lat="42.40022" lon="0.03198">
        <ele>963.4</ele>
        <time>2016-07-24T09:07:23Z</time>
      </trkpt>
      <trkpt lat="42.40021" lon="0.03193">
        <ele>963.8</ele>
        <time>2016-07-24T09:07:25Z</time>
      </trkpt>
      <trkpt lat="42.40021" lon="0.03188">
        <ele>964.1</ele>
        <time>2016-07-24T09:07:27Z</time>
      </trkpt>
      <trkpt lat="42.40021" lon="0.03183">
        <ele>964.5</ele>
        <time>2016-07-24T09:07:29Z</time>
      </trkpt>
      <trkpt lat="42.40021" lon="0.03178">
        <ele>964.9</ele>
        <time>2016-07-24T09:07:31Z</time>
      </trkpt>
      <trkpt lat="42.4002" lon="0.03173">
        <ele>965.1</ele>
        <time>2016-07-24T09:07:33Z</time>
      </trkpt>
      <trkpt lat="42.40019" lon="0.03168">
        <ele>965.3</ele>
        <time>2016-07-24T09:07:35Z</time>
      </trkpt>
      <trkpt lat="42.40018" lon="0.03162">
        <ele>965.3</ele>
        <time>2016-07-24T09:07:37Z</time>
      </trkpt>
      <trkpt lat="42.40017" lon="0.03158">
        <ele>965.2</ele>
        <time>2016-07-24T09:07:39Z</time>
      </trkpt>
      <trkpt lat="42.40016" lon="0.03152">
        <ele>965.2</ele>
        <time>2016-07-24T09:07:41Z</time>
      </trkpt>
      <trkpt lat="42.40015" lon="0.03148">
        <ele>965</ele>
        <time>2016-07-24T09:07:43Z</time>
      </trkpt>
      <trkpt lat="42.40013" lon="0.03143">
        <ele>964.9</ele>
        <time>2016-07-24T09:07:45Z</time>
      </trkpt>
      <trkpt lat="42.40013" lon="0.03138">
        <ele>965.3</ele>
        <time>2016-07-24T09:07:47Z</time>
      </trkpt>
      <trkpt lat="42.40012" lon="0.03133">
        <ele>965.5</ele>
        <time>2016-07-24T09:07:49Z</time>
      </trkpt>
      <trkpt lat="42.40012" lon="0.03128">
        <ele>965.9</ele>
        <time>2016-07-24T09:07:51Z</time>
      </trkpt>
      <trkpt lat="42.40012" lon="0.03123">
        <ele>966.2</ele>
        <time>2016-07-24T09:07:53Z</time>
      </trkpt>
      <trkpt lat="42.40012" lon="0.03119">
        <ele>966.4</ele>
        <time>2016-07-24T09:07:55Z</time>
      </trkpt>
      <trkpt lat="42.40011" lon="0.03114">
        <ele>966.5</ele>
        <time>2016-07-24T09:07:57Z</time>
      </trkpt>
      <trkpt lat="42.4001" lon="0.0311">
        <ele>966.5</ele>
        <time>2016-07-24T09:07:59Z</time>
      </trkpt>
      <trkpt lat="42.40009" lon="0.03105">
        <ele>966.4</ele>
        <time>2016-07-24T09:08:01Z</time>
      </trkpt>
      <trkpt lat="42.40008" lon="0.03101">
        <ele>966.2</ele>
        <time>2016-07-24T09:08:03Z</time>
      </trkpt>
      <trkpt lat="42.40007" lon="0.03097">
        <ele>966.1</ele>
        <time>2016-07-24T09:08:05Z</time>
      </trkpt>
      <trkpt lat="42.40006" lon="0.03092">
        <ele>966.2</ele>
        <time>2016-07-24T09:08:07Z</time>
      </trkpt>
      <trkpt lat="42.40005" lon="0.03087">
        <ele>966.3</ele>
        <time>2016-07-24T09:08:09Z</time>
      </trkpt>
      <trkpt lat="42.40005" lon="0.03082">
        <ele>966.5</ele>
        <time>2016-07-24T09:08:11Z</time>
      </trkpt>
      <trkpt lat="42.40004" lon="0.03077">
        <ele>966.6</ele>
        <time>2016-07-24T09:08:13Z</time>
      </trkpt>
      <trkpt lat="42.40003" lon="0.03072">
        <ele>966.8</ele>
        <time>2016-07-24T09:08:15Z</time>
      </trkpt>
      <trkpt lat="42.40002" lon="0.03068">
        <ele>966.9</ele>
        <time>2016-07-24T09:08:17Z</time>
      </trkpt>
      <trkpt lat="42.40002" lon="0.03063">
        <ele>967.1</ele>
        <time>2016-07-24T09:08:19Z</time>
      </trkpt>
      <trkpt lat="42.40001" lon="0.03057">
        <ele>967.5</ele>
        <time>2016-07-24T09:08:21Z</time>
      </trkpt>
      <trkpt lat="42.40001" lon="0.03053">
        <ele>967.9</ele>
        <time>2016-07-24T09:08:23Z</time>
      </trkpt>
      <trkpt lat="42.40002" lon="0.03048">
        <ele>968.4</ele>
        <time>2016-07-24T09:08:25Z</time>
      </trkpt>
      <trkpt lat="42.40002" lon="0.03043">
        <ele>969</ele>
        <time>2016-07-24T09:08:27Z</time>
      </trkpt>
      <trkpt lat="42.40004" lon="0.03039">
        <ele>970.2</ele>
        <time>2016-07-24T09:08:29Z</time>
      </trkpt>
      <trkpt lat="42.40006" lon="0.03034">
        <ele>971.6</ele>
        <time>2016-07-24T09:08:31Z</time>
      </trkpt>
      <trkpt lat="42.40008" lon="0.03031">
        <ele>972.9</ele>
        <time>2016-07-24T09:08:33Z</time>
      </trkpt>
      <trkpt lat="42.4001" lon="0.03026">
        <ele>974.3</ele>
        <time>2016-07-24T09:08:35Z</time>
      </trkpt>
      <trkpt lat="42.40012" lon="0.03021">
        <ele>975.7</ele>
        <time>2016-07-24T09:08:37Z</time>
      </trkpt>
      <trkpt lat="42.40014" lon="0.03017">
        <ele>977.1</ele>
        <time>2016-07-24T09:08:39Z</time>
      </trkpt>
      <trkpt lat="42.40017" lon="0.03012">
        <ele>978.4</ele>
        <time>2016-07-24T09:08:41Z</time>
      </trkpt>
      <trkpt lat="42.40019" lon="0.03007">
        <ele>979.7</ele>
        <time>2016-07-24T09:08:43Z</time>
      </trkpt>
      <trkpt lat="42.40022" lon="0.03003">
        <ele>981</ele>
        <time>2016-07-24T09:08:45Z</time>
      </trkpt>
      <trkpt lat="42.40024" lon="0.02998">
        <ele>982.2</ele>
        <time>2016-07-24T09:08:47Z</time>
      </trkpt>
      <trkpt lat="42.40026" lon="0.02992">
        <ele>983.4</ele>
        <time>2016-07-24T09:08:49Z</time>
      </trkpt>
      <trkpt lat="42.40028" lon="0.02987">
        <ele>984.6</ele>
        <time>2016-07-24T09:08:51Z</time>
      </trkpt>
      <trkpt lat="42.40029" lon="0.02981">
        <ele>985.5</ele>
        <time>2016-07-24T09:08:53Z</time>
      </trkpt>
      <trkpt lat="42.4003" lon="0.02976">
        <ele>986.4</ele>
        <time>2016-07-24T09:08:55Z</time>
      </trkpt>
      <trkpt lat="42.40031" lon="0.0297">
        <ele>987.5</ele>
        <time>2016-07-24T09:08:57Z</time>
      </trkpt>
      <trkpt lat="42.40033" lon="0.02964">
        <ele>988.5</ele>
        <time>2016-07-24T09:08:59Z</time>
      </trkpt>
      <trkpt lat="42.40034" lon="0.02957">
        <ele>989.5</ele>
        <time>2016-07-24T09:09:01Z</time>
      </trkpt>
      <trkpt lat="42.40035" lon="0.0295">
        <ele>990.7</ele>
        <time>2016-07-24T09:09:03Z</time>
      </trkpt>
      <trkpt lat="42.40037" lon="0.02944">
        <ele>991.9</ele>
        <time>2016-07-24T09:09:05Z</time>
      </trkpt>
      <trkpt lat="42.40039" lon="0.02938">
        <ele>993</ele>
        <time>2016-07-24T09:09:07Z</time>
      </trkpt>
      <trkpt lat="42.40042" lon="0.02932">
        <ele>994.2</ele>
        <time>2016-07-24T09:09:09Z</time>
      </trkpt>
      <trkpt lat="42.40043" lon="0.02928">
        <ele>994.6</ele>
        <time>2016-07-24T09:09:10Z</time>
      </trkpt>
      <trkpt lat="42.40044" lon="0.02921">
        <ele>995.5</ele>
        <time>2016-07-24T09:09:12Z</time>
      </trkpt>
      <trkpt lat="42.40044" lon="0.02917">
        <ele>996.1</ele>
        <time>2016-07-24T09:09:13Z</time>
      </trkpt>
      <trkpt lat="42.40043" lon="0.02913">
        <ele>996.8</ele>
        <time>2016-07-24T09:09:14Z</time>
      </trkpt>
      <trkpt lat="42.40043" lon="0.02907">
        <ele>997.9</ele>
        <time>2016-07-24T09:09:16Z</time>
      </trkpt>
      <trkpt lat="42.40043" lon="0.029">
        <ele>998.9</ele>
        <time>2016-07-24T09:09:18Z</time>
      </trkpt>
      <trkpt lat="42.40042" lon="0.02895">
        <ele>999.9</ele>
        <time>2016-07-24T09:09:20Z</time>
      </trkpt>
      <trkpt lat="42.40041" lon="0.02889">
        <ele>1000.9</ele>
        <time>2016-07-24T09:09:22Z</time>
      </trkpt>
      <trkpt lat="42.40041" lon="0.02883">
        <ele>1001.8</ele>
        <time>2016-07-24T09:09:24Z</time>
      </trkpt>
      <trkpt lat="42.4004" lon="0.02877">
        <ele>1002.7</ele>
        <time>2016-07-24T09:09:26Z</time>
      </trkpt>
      <trkpt lat="42.40039" lon="0.02872">
        <ele>1003.4</ele>
        <time>2016-07-24T09:09:28Z</time>
      </trkpt>
      <trkpt lat="42.40038" lon="0.02867">
        <ele>1004.1</ele>
        <time>2016-07-24T09:09:30Z</time>
      </trkpt>
      <trkpt lat="42.40037" lon="0.02862">
        <ele>1004.7</ele>
        <time>2016-07-24T09:09:32Z</time>
      </trkpt>
      <trkpt lat="42.40035" lon="0.02858">
        <ele>1005.4</ele>
        <time>2016-07-24T09:09:34Z</time>
      </trkpt>
      <trkpt lat="42.40033" lon="0.02854">
        <ele>1006</ele>
        <time>2016-07-24T09:09:36Z</time>
      </trkpt>
      <trkpt lat="42.40031" lon="0.02849">
        <ele>1006.7</ele>
        <time>2016-07-24T09:09:38Z</time>
      </trkpt>
      <trkpt lat="42.40029" lon="0.02845">
        <ele>1007.4</ele>
        <time>2016-07-24T09:09:40Z</time>
      </trkpt>
      <trkpt lat="42.40027" lon="0.02841">
        <ele>1008.2</ele>
        <time>2016-07-24T09:09:42Z</time>
      </trkpt>
      <trkpt lat="42.40025" lon="0.02837">
        <ele>1008.8</ele>
        <time>2016-07-24T09:09:44Z</time>
      </trkpt>
      <trkpt lat="42.40022" lon="0.02835">
        <ele>1009.4</ele>
        <time>2016-07-24T09:09:46Z</time>
      </trkpt>
      <trkpt lat="42.40019" lon="0.02832">
        <ele>1009.9</ele>
        <time>2016-07-24T09:09:48Z</time>
      </trkpt>
      <trkpt lat="42.40016" lon="0.0283">
        <ele>1010.4</ele>
        <time>2016-07-24T09:09:50Z</time>
      </trkpt>
      <trkpt lat="42.40013" lon="0.02828">
        <ele>1011.1</ele>
        <time>2016-07-24T09:09:52Z</time>
      </trkpt>
      <trkpt lat="42.4001" lon="0.02826">
        <ele>1011.5</ele>
        <time>2016-07-24T09:09:54Z</time>
      </trkpt>
      <trkpt lat="42.40006" lon="0.02826">
        <ele>1011.9</ele>
        <time>2016-07-24T09:09:56Z</time>
      </trkpt>
      <trkpt lat="42.40003" lon="0.02825">
        <ele>1012.2</ele>
        <time>2016-07-24T09:09:58Z</time>
      </trkpt>
      <trkpt lat="42.39999" lon="0.02825">
        <ele>1012.6</ele>
        <time>2016-07-24T09:10:00Z</time>
      </trkpt>
      <trkpt lat="42.39996" lon="0.02824">
        <ele>1013</ele>
        <time>2016-07-24T09:10:02Z</time>
      </trkpt>
      <trkpt lat="42.39992" lon="0.02823">
        <ele>1013.4</ele>
        <time>2016-07-24T09:10:04Z</time>
      </trkpt>
      <trkpt lat="42.39988" lon="0.02822">
        <ele>1013.9</ele>
        <time>2016-07-24T09:10:06Z</time>
      </trkpt>
      <trkpt lat="42.39985" lon="0.02821">
        <ele>1014.3</ele>
        <time>2016-07-24T09:10:08Z</time>
      </trkpt>
      <trkpt lat="42.39981" lon="0.0282">
        <ele>1014.7</ele>
        <time>2016-07-24T09:10:10Z</time>
      </trkpt>
      <trkpt lat="42.39978" lon="0.02819">
        <ele>1015.3</ele>
        <time>2016-07-24T09:10:12Z</time>
      </trkpt>
      <trkpt lat="42.39975" lon="0.02818">
        <ele>1015.8</ele>
        <time>2016-07-24T09:10:14Z</time>
      </trkpt>
      <trkpt lat="42.39971" lon="0.02818">
        <ele>1016.2</ele>
        <time>2016-07-24T09:10:16Z</time>
      </trkpt>
      <trkpt lat="42.39968" lon="0.02817">
        <ele>1016.6</ele>
        <time>2016-07-24T09:10:18Z</time>
      </trkpt>
      <trkpt lat="42.39964" lon="0.02816">
        <ele>1017.1</ele>
        <time>2016-07-24T09:10:20Z</time>
      </trkpt>
      <trkpt lat="42.3996" lon="0.02815">
        <ele>1017.6</ele>
        <time>2016-07-24T09:10:22Z</time>
      </trkpt>
      <trkpt lat="42.39957" lon="0.02814">
        <ele>1018</ele>
        <time>2016-07-24T09:10:24Z</time>
      </trkpt>
      <trkpt lat="42.39952" lon="0.02813">
        <ele>1018.3</ele>
        <time>2016-07-24T09:10:26Z</time>
      </trkpt>
      <trkpt lat="42.39948" lon="0.02812">
        <ele>1018.6</ele>
        <time>2016-07-24T09:10:28Z</time>
      </trkpt>
      <trkpt lat="42.39942" lon="0.02811">
        <ele>1018.8</ele>
        <time>2016-07-24T09:10:30Z</time>
      </trkpt>
      <trkpt lat="42.39937" lon="0.0281">
        <ele>1018.9</ele>
        <time>2016-07-24T09:10:32Z</time>
      </trkpt>
      <trkpt lat="42.39934" lon="0.0281">
        <ele>1018.9</ele>
        <time>2016-07-24T09:10:33Z</time>
      </trkpt>
      <trkpt lat="42.39931" lon="0.0281">
        <ele>1018.9</ele>
        <time>2016-07-24T09:10:34Z</time>
      </trkpt>
      <trkpt lat="42.39928" lon="0.0281">
        <ele>1018.8</ele>
        <time>2016-07-24T09:10:35Z</time>
      </trkpt>
      <trkpt lat="42.39925" lon="0.02809">
        <ele>1018.8</ele>
        <time>2016-07-24T09:10:36Z</time>
      </trkpt>
      <trkpt lat="42.39922" lon="0.02809">
        <ele>1018.8</ele>
        <time>2016-07-24T09:10:37Z</time>
      </trkpt>
      <trkpt lat="42.39919" lon="0.02809">
        <ele>1018.8</ele>
        <time>2016-07-24T09:10:38Z</time>
      </trkpt>
      <trkpt lat="42.39915" lon="0.02809">
        <ele>1018.8</ele>
        <time>2016-07-24T09:10:39Z</time>
      </trkpt>
      <trkpt lat="42.39912" lon="0.02808">
        <ele>1018.9</ele>
        <time>2016-07-24T09:10:40Z</time>
      </trkpt>
      <trkpt lat="42.3991" lon="0.02807">
        <ele>1019.1</ele>
        <time>2016-07-24T09:10:41Z</time>
      </trkpt>
      <trkpt lat="42.39907" lon="0.02805">
        <ele>1019.4</ele>
        <time>2016-07-24T09:10:42Z</time>
      </trkpt>
      <trkpt lat="42.39904" lon="0.02803">
        <ele>1019.8</ele>
        <time>2016-07-24T09:10:43Z</time>
      </trkpt>
      <trkpt lat="42.39902" lon="0.028">
        <ele>1020.3</ele>
        <time>2016-07-24T09:10:44Z</time>
      </trkpt>
      <trkpt lat="42.399" lon="0.02797">
        <ele>1020.8</ele>
        <time>2016-07-24T09:10:45Z</time>
      </trkpt>
      <trkpt lat="42.39898" lon="0.02794">
        <ele>1021.4</ele>
        <time>2016-07-24T09:10:46Z</time>
      </trkpt>
      <trkpt lat="42.39896" lon="0.02791">
        <ele>1022</ele>
        <time>2016-07-24T09:10:47Z</time>
      </trkpt>
      <trkpt lat="42.39894" lon="0.02787">
        <ele>1022.7</ele>
        <time>2016-07-24T09:10:48Z</time>
      </trkpt>
      <trkpt lat="42.39893" lon="0.02784">
        <ele>1023.5</ele>
        <time>2016-07-24T09:10:49Z</time>
      </trkpt>
      <trkpt lat="42.39892" lon="0.0278">
        <ele>1024.2</ele>
        <time>2016-07-24T09:10:50Z</time>
      </trkpt>
      <trkpt lat="42.3989" lon="0.02777">
        <ele>1024.9</ele>
        <time>2016-07-24T09:10:51Z</time>
      </trkpt>
      <trkpt lat="42.39888" lon="0.02774">
        <ele>1025.6</ele>
        <time>2016-07-24T09:10:52Z</time>
      </trkpt>
      <trkpt lat="42.39885" lon="0.02768">
        <ele>1026.8</ele>
        <time>2016-07-24T09:10:54Z</time>
      </trkpt>
      <trkpt lat="42.39882" lon="0.02764">
        <ele>1027.9</ele>
        <time>2016-07-24T09:10:56Z</time>
      </trkpt>
      <trkpt lat="42.39879" lon="0.02759">
        <ele>1028.8</ele>
        <time>2016-07-24T09:10:58Z</time>
      </trkpt>
      <trkpt lat="42.39876" lon="0.02755">
        <ele>1029.9</ele>
        <time>2016-07-24T09:11:00Z</time>
      </trkpt>
      <trkpt lat="42.39873" lon="0.0275">
        <ele>1031.1</ele>
        <time>2016-07-24T09:11:02Z</time>
      </trkpt>
      <trkpt lat="42.39871" lon="0.02746">
        <ele>1032.2</ele>
        <time>2016-07-24T09:11:04Z</time>
      </trkpt>
      <trkpt lat="42.39868" lon="0.02742">
        <ele>1033.3</ele>
        <time>2016-07-24T09:11:06Z</time>
      </trkpt>
      <trkpt lat="42.39865" lon="0.0274">
        <ele>1034</ele>
        <time>2016-07-24T09:11:08Z</time>
      </trkpt>
      <trkpt lat="42.39862" lon="0.02738">
        <ele>1034.6</ele>
        <time>2016-07-24T09:11:10Z</time>
      </trkpt>
      <trkpt lat="42.39858" lon="0.02737">
        <ele>1035</ele>
        <time>2016-07-24T09:11:13Z</time>
      </trkpt>
      <trkpt lat="42.39855" lon="0.02737">
        <ele>1035.2</ele>
        <time>2016-07-24T09:11:15Z</time>
      </trkpt>
      <trkpt lat="42.39852" lon="0.02736">
        <ele>1035.5</ele>
        <time>2016-07-24T09:11:17Z</time>
      </trkpt>
      <trkpt lat="42.39849" lon="0.02735">
        <ele>1035.8</ele>
        <time>2016-07-24T09:11:19Z</time>
      </trkpt>
      <trkpt lat="42.39846" lon="0.02734">
        <ele>1036.2</ele>
        <time>2016-07-24T09:11:21Z</time>
      </trkpt>
      <trkpt lat="42.39843" lon="0.02733">
        <ele>1036.6</ele>
        <time>2016-07-24T09:11:23Z</time>
      </trkpt>
      <trkpt lat="42.3984" lon="0.02732">
        <ele>1037</ele>
        <time>2016-07-24T09:11:25Z</time>
      </trkpt>
      <trkpt lat="42.39836" lon="0.02731">
        <ele>1037.3</ele>
        <time>2016-07-24T09:11:27Z</time>
      </trkpt>
      <trkpt lat="42.39832" lon="0.02729">
        <ele>1037.8</ele>
        <time>2016-07-24T09:11:29Z</time>
      </trkpt>
      <trkpt lat="42.39829" lon="0.02728">
        <ele>1038.1</ele>
        <time>2016-07-24T09:11:31Z</time>
      </trkpt>
      <trkpt lat="42.39827" lon="0.02727">
        <ele>1038.5</ele>
        <time>2016-07-24T09:11:33Z</time>
      </trkpt>
      <trkpt lat="42.39824" lon="0.02726">
        <ele>1038.9</ele>
        <time>2016-07-24T09:11:35Z</time>
      </trkpt>
      <trkpt lat="42.39821" lon="0.02725">
        <ele>1039</ele>
        <time>2016-07-24T09:11:37Z</time>
      </trkpt>
      <trkpt lat="42.39817" lon="0.02726">
        <ele>1039.1</ele>
        <time>2016-07-24T09:11:39Z</time>
      </trkpt>
      <trkpt lat="42.39814" lon="0.02725">
        <ele>1039.3</ele>
        <time>2016-07-24T09:11:41Z</time>
      </trkpt>
      <trkpt lat="42.39811" lon="0.02724">
        <ele>1039.6</ele>
        <time>2016-07-24T09:11:43Z</time>
      </trkpt>
      <trkpt lat="42.39809" lon="0.02724">
        <ele>1039.8</ele>
        <time>2016-07-24T09:11:45Z</time>
      </trkpt>
      <trkpt lat="42.39806" lon="0.02723">
        <ele>1040</ele>
        <time>2016-07-24T09:11:47Z</time>
      </trkpt>
      <trkpt lat="42.39802" lon="0.02723">
        <ele>1040.2</ele>
        <time>2016-07-24T09:11:49Z</time>
      </trkpt>
      <trkpt lat="42.39799" lon="0.02721">
        <ele>1040.6</ele>
        <time>2016-07-24T09:11:51Z</time>
      </trkpt>
      <trkpt lat="42.39795" lon="0.02719">
        <ele>1041</ele>
        <time>2016-07-24T09:11:54Z</time>
      </trkpt>
      <trkpt lat="42.39792" lon="0.02718">
        <ele>1041.3</ele>
        <time>2016-07-24T09:11:56Z</time>
      </trkpt>
      <trkpt lat="42.39789" lon="0.02717">
        <ele>1042.3</ele>
        <time>2016-07-24T09:11:58Z</time>
      </trkpt>
      <trkpt lat="42.39786" lon="0.02716">
        <ele>1043.3</ele>
        <time>2016-07-24T09:12:00Z</time>
      </trkpt>
      <trkpt lat="42.39784" lon="0.02714">
        <ele>1044.4</ele>
        <time>2016-07-24T09:12:02Z</time>
      </trkpt>
      <trkpt lat="42.3978" lon="0.02713">
        <ele>1045.7</ele>
        <time>2016-07-24T09:12:05Z</time>
      </trkpt>
      <trkpt lat="42.39776" lon="0.02712">
        <ele>1047.1</ele>
        <time>2016-07-24T09:12:08Z</time>
      </trkpt>
      <trkpt lat="42.39773" lon="0.02711">
        <ele>1048.1</ele>
        <time>2016-07-24T09:12:10Z</time>
      </trkpt>
      <trkpt lat="42.3977" lon="0.0271">
        <ele>1049.2</ele>
        <time>2016-07-24T09:12:12Z</time>
      </trkpt>
      <trkpt lat="42.39767" lon="0.0271">
        <ele>1050.2</ele>
        <time>2016-07-24T09:12:14Z</time>
      </trkpt>
      <trkpt lat="42.39764" lon="0.02711">
        <ele>1051</ele>
        <time>2016-07-24T09:12:16Z</time>
      </trkpt>
      <trkpt lat="42.3976" lon="0.02711">
        <ele>1052</ele>
        <time>2016-07-24T09:12:18Z</time>
      </trkpt>
      <trkpt lat="42.39758" lon="0.0271">
        <ele>1052.9</ele>
        <time>2016-07-24T09:12:20Z</time>
      </trkpt>
      <trkpt lat="42.39755" lon="0.02708">
        <ele>1054</ele>
        <time>2016-07-24T09:12:22Z</time>
      </trkpt>
      <trkpt lat="42.39752" lon="0.02707">
        <ele>1055.3</ele>
        <time>2016-07-24T09:12:24Z</time>
      </trkpt>
      <trkpt lat="42.39749" lon="0.02707">
        <ele>1056.4</ele>
        <time>2016-07-24T09:12:26Z</time>
      </trkpt>
      <trkpt lat="42.39746" lon="0.02707">
        <ele>1057.1</ele>
        <time>2016-07-24T09:12:28Z</time>
      </trkpt>
      <trkpt lat="42.39743" lon="0.02707">
        <ele>1058.1</ele>
        <time>2016-07-24T09:12:30Z</time>
      </trkpt>
      <trkpt lat="42.3974" lon="0.02706">
        <ele>1059.1</ele>
        <time>2016-07-24T09:12:32Z</time>
      </trkpt>
      <trkpt lat="42.39736" lon="0.02706">
        <ele>1060.1</ele>
        <time>2016-07-24T09:12:34Z</time>
      </trkpt>
      <trkpt lat="42.39733" lon="0.02706">
        <ele>1061.2</ele>
        <time>2016-07-24T09:12:36Z</time>
      </trkpt>
      <trkpt lat="42.3973" lon="0.02704">
        <ele>1062.4</ele>
        <time>2016-07-24T09:12:38Z</time>
      </trkpt>
      <trkpt lat="42.39729" lon="0.02701">
        <ele>1063.7</ele>
        <time>2016-07-24T09:12:40Z</time>
      </trkpt>
      <trkpt lat="42.3973" lon="0.02696">
        <ele>1064.7</ele>
        <time>2016-07-24T09:12:42Z</time>
      </trkpt>
      <trkpt lat="42.39731" lon="0.02691">
        <ele>1065.4</ele>
        <time>2016-07-24T09:12:44Z</time>
      </trkpt>
      <trkpt lat="42.39735" lon="0.02688">
        <ele>1065.2</ele>
        <time>2016-07-24T09:12:46Z</time>
      </trkpt>
      <trkpt lat="42.3974" lon="0.02686">
        <ele>1064.3</ele>
        <time>2016-07-24T09:12:48Z</time>
      </trkpt>
      <trkpt lat="42.39743" lon="0.02686">
        <ele>1063.3</ele>
        <time>2016-07-24T09:12:50Z</time>
      </trkpt>
      <trkpt lat="42.39747" lon="0.02687">
        <ele>1062.3</ele>
        <time>2016-07-24T09:12:52Z</time>
      </trkpt>
      <trkpt lat="42.39751" lon="0.02686">
        <ele>1061.1</ele>
        <time>2016-07-24T09:12:54Z</time>
      </trkpt>
      <trkpt lat="42.39754" lon="0.02686">
        <ele>1060.5</ele>
        <time>2016-07-24T09:12:55Z</time>
      </trkpt>
      <trkpt lat="42.39757" lon="0.02685">
        <ele>1060</ele>
        <time>2016-07-24T09:12:56Z</time>
      </trkpt>
      <trkpt lat="42.39759" lon="0.02684">
        <ele>1059.5</ele>
        <time>2016-07-24T09:12:57Z</time>
      </trkpt>
      <trkpt lat="42.39762" lon="0.02683">
        <ele>1059.1</ele>
        <time>2016-07-24T09:12:58Z</time>
      </trkpt>
      <trkpt lat="42.39765" lon="0.02682">
        <ele>1058.7</ele>
        <time>2016-07-24T09:12:59Z</time>
      </trkpt>
      <trkpt lat="42.39768" lon="0.02681">
        <ele>1058.2</ele>
        <time>2016-07-24T09:13:00Z</time>
      </trkpt>
      <trkpt lat="42.39771" lon="0.02679">
        <ele>1057.9</ele>
        <time>2016-07-24T09:13:01Z</time>
      </trkpt>
      <trkpt lat="42.39774" lon="0.02678">
        <ele>1057.6</ele>
        <time>2016-07-24T09:13:02Z</time>
      </trkpt>
      <trkpt lat="42.39777" lon="0.02676">
        <ele>1057.4</ele>
        <time>2016-07-24T09:13:03Z</time>
      </trkpt>
      <trkpt lat="42.3978" lon="0.02673">
        <ele>1057.3</ele>
        <time>2016-07-24T09:13:04Z</time>
      </trkpt>
      <trkpt lat="42.39783" lon="0.02671">
        <ele>1057.2</ele>
        <time>2016-07-24T09:13:05Z</time>
      </trkpt>
      <trkpt lat="42.39786" lon="0.0267">
        <ele>1057</ele>
        <time>2016-07-24T09:13:06Z</time>
      </trkpt>
      <trkpt lat="42.39788" lon="0.02669">
        <ele>1056.7</ele>
        <time>2016-07-24T09:13:07Z</time>
      </trkpt>
      <trkpt lat="42.39791" lon="0.02668">
        <ele>1056.1</ele>
        <time>2016-07-24T09:13:08Z</time>
      </trkpt>
      <trkpt lat="42.39794" lon="0.02668">
        <ele>1056</ele>
        <time>2016-07-24T09:13:09Z</time>
      </trkpt>
      <trkpt lat="42.39797" lon="0.02668">
        <ele>1055.9</ele>
        <time>2016-07-24T09:13:10Z</time>
      </trkpt>
      <trkpt lat="42.39802" lon="0.02669">
        <ele>1055.7</ele>
        <time>2016-07-24T09:13:12Z</time>
      </trkpt>
      <trkpt lat="42.39806" lon="0.02669">
        <ele>1055.3</ele>
        <time>2016-07-24T09:13:14Z</time>
      </trkpt>
      <trkpt lat="42.3981" lon="0.02669">
        <ele>1055.2</ele>
        <time>2016-07-24T09:13:16Z</time>
      </trkpt>
      <trkpt lat="42.39813" lon="0.02668">
        <ele>1055.6</ele>
        <time>2016-07-24T09:13:18Z</time>
      </trkpt>
      <trkpt lat="42.39816" lon="0.02665">
        <ele>1056.4</ele>
        <time>2016-07-24T09:13:20Z</time>
      </trkpt>
      <trkpt lat="42.39818" lon="0.02662">
        <ele>1057.6</ele>
        <time>2016-07-24T09:13:22Z</time>
      </trkpt>
      <trkpt lat="42.39816" lon="0.02657">
        <ele>1059.1</ele>
        <time>2016-07-24T09:13:24Z</time>
      </trkpt>
      <trkpt lat="42.39813" lon="0.02654">
        <ele>1060.3</ele>
        <time>2016-07-24T09:13:26Z</time>
      </trkpt>
      <trkpt lat="42.39808" lon="0.02652">
        <ele>1061</ele>
        <time>2016-07-24T09:13:28Z</time>
      </trkpt>
      <trkpt lat="42.39804" lon="0.0265">
        <ele>1061.8</ele>
        <time>2016-07-24T09:13:30Z</time>
      </trkpt>
      <trkpt lat="42.398" lon="0.02647">
        <ele>1062.6</ele>
        <time>2016-07-24T09:13:32Z</time>
      </trkpt>
      <trkpt lat="42.39796" lon="0.02646">
        <ele>1063.2</ele>
        <time>2016-07-24T09:13:34Z</time>
      </trkpt>
      <trkpt lat="42.39792" lon="0.02646">
        <ele>1063.3</ele>
        <time>2016-07-24T09:13:36Z</time>
      </trkpt>
      <trkpt lat="42.39787" lon="0.02647">
        <ele>1063.9</ele>
        <time>2016-07-24T09:13:38Z</time>
      </trkpt>
      <trkpt lat="42.39783" lon="0.02648">
        <ele>1064.3</ele>
        <time>2016-07-24T09:13:40Z</time>
      </trkpt>
      <trkpt lat="42.39779" lon="0.02649">
        <ele>1065</ele>
        <time>2016-07-24T09:13:42Z</time>
      </trkpt>
      <trkpt lat="42.39775" lon="0.0265">
        <ele>1065.9</ele>
        <time>2016-07-24T09:13:44Z</time>
      </trkpt>
      <trkpt lat="42.3977" lon="0.02649">
        <ele>1066.9</ele>
        <time>2016-07-24T09:13:46Z</time>
      </trkpt>
      <trkpt lat="42.39767" lon="0.02649">
        <ele>1067.8</ele>
        <time>2016-07-24T09:13:48Z</time>
      </trkpt>
      <trkpt lat="42.39763" lon="0.02648">
        <ele>1068.8</ele>
        <time>2016-07-24T09:13:50Z</time>
      </trkpt>
      <trkpt lat="42.39759" lon="0.02647">
        <ele>1070</ele>
        <time>2016-07-24T09:13:52Z</time>
      </trkpt>
      <trkpt lat="42.39756" lon="0.02646">
        <ele>1071.2</ele>
        <time>2016-07-24T09:13:54Z</time>
      </trkpt>
      <trkpt lat="42.39752" lon="0.02645">
        <ele>1072.3</ele>
        <time>2016-07-24T09:13:56Z</time>
      </trkpt>
      <trkpt lat="42.39748" lon="0.02643">
        <ele>1073.5</ele>
        <time>2016-07-24T09:13:58Z</time>
      </trkpt>
      <trkpt lat="42.39746" lon="0.02641">
        <ele>1074.7</ele>
        <time>2016-07-24T09:14:00Z</time>
      </trkpt>
      <trkpt lat="42.39743" lon="0.02638">
        <ele>1075.9</ele>
        <time>2016-07-24T09:14:02Z</time>
      </trkpt>
      <trkpt lat="42.39742" lon="0.02635">
        <ele>1077.1</ele>
        <time>2016-07-24T09:14:04Z</time>
      </trkpt>
      <trkpt lat="42.39743" lon="0.0263">
        <ele>1078.1</ele>
        <time>2016-07-24T09:14:07Z</time>
      </trkpt>
      <trkpt lat="42.39746" lon="0.02628">
        <ele>1077.9</ele>
        <time>2016-07-24T09:14:09Z</time>
      </trkpt>
      <trkpt lat="42.3975" lon="0.02628">
        <ele>1077.1</ele>
        <time>2016-07-24T09:14:11Z</time>
      </trkpt>
      <trkpt lat="42.39755" lon="0.02628">
        <ele>1076.2</ele>
        <time>2016-07-24T09:14:13Z</time>
      </trkpt>
      <trkpt lat="42.39759" lon="0.02629">
        <ele>1075.2</ele>
        <time>2016-07-24T09:14:15Z</time>
      </trkpt>
      <trkpt lat="42.39762" lon="0.02631">
        <ele>1074</ele>
        <time>2016-07-24T09:14:17Z</time>
      </trkpt>
      <trkpt lat="42.39766" lon="0.02632">
        <ele>1072.8</ele>
        <time>2016-07-24T09:14:19Z</time>
      </trkpt>
      <trkpt lat="42.3977" lon="0.02633">
        <ele>1071.8</ele>
        <time>2016-07-24T09:14:21Z</time>
      </trkpt>
      <trkpt lat="42.39774" lon="0.02633">
        <ele>1071.2</ele>
        <time>2016-07-24T09:14:23Z</time>
      </trkpt>
      <trkpt lat="42.39778" lon="0.02632">
        <ele>1070.6</ele>
        <time>2016-07-24T09:14:25Z</time>
      </trkpt>
      <trkpt lat="42.39781" lon="0.02631">
        <ele>1070.2</ele>
        <time>2016-07-24T09:14:27Z</time>
      </trkpt>
      <trkpt lat="42.39785" lon="0.02629">
        <ele>1070</ele>
        <time>2016-07-24T09:14:29Z</time>
      </trkpt>
      <trkpt lat="42.39789" lon="0.02627">
        <ele>1070.1</ele>
        <time>2016-07-24T09:14:31Z</time>
      </trkpt>
      <trkpt lat="42.39792" lon="0.02624">
        <ele>1070.2</ele>
        <time>2016-07-24T09:14:33Z</time>
      </trkpt>
      <trkpt lat="42.39794" lon="0.02622">
        <ele>1070.7</ele>
        <time>2016-07-24T09:14:35Z</time>
      </trkpt>
      <trkpt lat="42.39797" lon="0.02619">
        <ele>1071.2</ele>
        <time>2016-07-24T09:14:37Z</time>
      </trkpt>
      <trkpt lat="42.398" lon="0.02617">
        <ele>1071.6</ele>
        <time>2016-07-24T09:14:39Z</time>
      </trkpt>
      <trkpt lat="42.39803" lon="0.02615">
        <ele>1072</ele>
        <time>2016-07-24T09:14:41Z</time>
      </trkpt>
      <trkpt lat="42.39806" lon="0.02612">
        <ele>1072.6</ele>
        <time>2016-07-24T09:14:44Z</time>
      </trkpt>
      <trkpt lat="42.39809" lon="0.02611">
        <ele>1072.9</ele>
        <time>2016-07-24T09:14:46Z</time>
      </trkpt>
      <trkpt lat="42.39812" lon="0.0261">
        <ele>1073.1</ele>
        <time>2016-07-24T09:14:48Z</time>
      </trkpt>
      <trkpt lat="42.39815" lon="0.02608">
        <ele>1073.3</ele>
        <time>2016-07-24T09:14:51Z</time>
      </trkpt>
      <trkpt lat="42.39819" lon="0.02608">
        <ele>1073.3</ele>
        <time>2016-07-24T09:14:54Z</time>
      </trkpt>
      <trkpt lat="42.39822" lon="0.02606">
        <ele>1073.7</ele>
        <time>2016-07-24T09:14:57Z</time>
      </trkpt>
      <trkpt lat="42.39826" lon="0.02603">
        <ele>1074.2</ele>
        <time>2016-07-24T09:15:00Z</time>
      </trkpt>
      <trkpt lat="42.39828" lon="0.02602">
        <ele>1074.4</ele>
        <time>2016-07-24T09:15:02Z</time>
      </trkpt>
      <trkpt lat="42.39831" lon="0.02602">
        <ele>1074.4</ele>
        <time>2016-07-24T09:15:04Z</time>
      </trkpt>
      <trkpt lat="42.39834" lon="0.026">
        <ele>1074.7</ele>
        <time>2016-07-24T09:15:06Z</time>
      </trkpt>
      <trkpt lat="42.39837" lon="0.02598">
        <ele>1075.2</ele>
        <time>2016-07-24T09:15:08Z</time>
      </trkpt>
      <trkpt lat="42.39839" lon="0.02596">
        <ele>1075.7</ele>
        <time>2016-07-24T09:15:10Z</time>
      </trkpt>
      <trkpt lat="42.39842" lon="0.02594">
        <ele>1076.1</ele>
        <time>2016-07-24T09:15:12Z</time>
      </trkpt>
      <trkpt lat="42.39845" lon="0.02592">
        <ele>1076.6</ele>
        <time>2016-07-24T09:15:14Z</time>
      </trkpt>
      <trkpt lat="42.39847" lon="0.0259">
        <ele>1077</ele>
        <time>2016-07-24T09:15:16Z</time>
      </trkpt>
      <trkpt lat="42.3985" lon="0.02588">
        <ele>1077.3</ele>
        <time>2016-07-24T09:15:18Z</time>
      </trkpt>
      <trkpt lat="42.39853" lon="0.02587">
        <ele>1077.6</ele>
        <time>2016-07-24T09:15:20Z</time>
      </trkpt>
      <trkpt lat="42.39856" lon="0.02585">
        <ele>1078</ele>
        <time>2016-07-24T09:15:22Z</time>
      </trkpt>
      <trkpt lat="42.39858" lon="0.02583">
        <ele>1078.4</ele>
        <time>2016-07-24T09:15:24Z</time>
      </trkpt>
      <trkpt lat="42.39861" lon="0.02582">
        <ele>1078.7</ele>
        <time>2016-07-24T09:15:26Z</time>
      </trkpt>
      <trkpt lat="42.39864" lon="0.0258">
        <ele>1079.1</ele>
        <time>2016-07-24T09:15:28Z</time>
      </trkpt>
      <trkpt lat="42.39866" lon="0.02578">
        <ele>1079.4</ele>
        <time>2016-07-24T09:15:30Z</time>
      </trkpt>
      <trkpt lat="42.39869" lon="0.02576">
        <ele>1079.8</ele>
        <time>2016-07-24T09:15:32Z</time>
      </trkpt>
      <trkpt lat="42.39872" lon="0.02574">
        <ele>1080.2</ele>
        <time>2016-07-24T09:15:34Z</time>
      </trkpt>
      <trkpt lat="42.39874" lon="0.02573">
        <ele>1080.6</ele>
        <time>2016-07-24T09:15:36Z</time>
      </trkpt>
      <trkpt lat="42.39877" lon="0.02571">
        <ele>1080.9</ele>
        <time>2016-07-24T09:15:38Z</time>
      </trkpt>
      <trkpt lat="42.3988" lon="0.02569">
        <ele>1081.1</ele>
        <time>2016-07-24T09:15:40Z</time>
      </trkpt>
      <trkpt lat="42.39882" lon="0.02566">
        <ele>1081.5</ele>
        <time>2016-07-24T09:15:42Z</time>
      </trkpt>
      <trkpt lat="42.39885" lon="0.02564">
        <ele>1081.7</ele>
        <time>2016-07-24T09:15:44Z</time>
      </trkpt>
      <trkpt lat="42.39887" lon="0.02562">
        <ele>1082</ele>
        <time>2016-07-24T09:15:46Z</time>
      </trkpt>
      <trkpt lat="42.3989" lon="0.02561">
        <ele>1082.1</ele>
        <time>2016-07-24T09:15:48Z</time>
      </trkpt>
      <trkpt lat="42.39892" lon="0.02559">
        <ele>1082.4</ele>
        <time>2016-07-24T09:15:50Z</time>
      </trkpt>
      <trkpt lat="42.39895" lon="0.02557">
        <ele>1082.7</ele>
        <time>2016-07-24T09:15:52Z</time>
      </trkpt>
      <trkpt lat="42.39897" lon="0.02554">
        <ele>1083.2</ele>
        <time>2016-07-24T09:15:54Z</time>
      </trkpt>
      <trkpt lat="42.39899" lon="0.02551">
        <ele>1083.6</ele>
        <time>2016-07-24T09:15:56Z</time>
      </trkpt>
      <trkpt lat="42.39902" lon="0.02549">
        <ele>1084</ele>
        <time>2016-07-24T09:15:58Z</time>
      </trkpt>
      <trkpt lat="42.39905" lon="0.02547">
        <ele>1084.3</ele>
        <time>2016-07-24T09:16:00Z</time>
      </trkpt>
      <trkpt lat="42.39907" lon="0.02545">
        <ele>1084.6</ele>
        <time>2016-07-24T09:16:02Z</time>
      </trkpt>
      <trkpt lat="42.39909" lon="0.02542">
        <ele>1085</ele>
        <time>2016-07-24T09:16:04Z</time>
      </trkpt>
      <trkpt lat="42.39912" lon="0.0254">
        <ele>1084.9</ele>
        <time>2016-07-24T09:16:06Z</time>
      </trkpt>
      <trkpt lat="42.39914" lon="0.02538">
        <ele>1084.6</ele>
        <time>2016-07-24T09:16:08Z</time>
      </trkpt>
      <trkpt lat="42.39916" lon="0.02536">
        <ele>1084.4</ele>
        <time>2016-07-24T09:16:10Z</time>
      </trkpt>
      <trkpt lat="42.39919" lon="0.02534">
        <ele>1084.2</ele>
        <time>2016-07-24T09:16:12Z</time>
      </trkpt>
      <trkpt lat="42.39921" lon="0.02531">
        <ele>1084</ele>
        <time>2016-07-24T09:16:14Z</time>
      </trkpt>
      <trkpt lat="42.39923" lon="0.02529">
        <ele>1083.7</ele>
        <time>2016-07-24T09:16:16Z</time>
      </trkpt>
      <trkpt lat="42.39925" lon="0.02527">
        <ele>1083.6</ele>
        <time>2016-07-24T09:16:18Z</time>
      </trkpt>
      <trkpt lat="42.39927" lon="0.02524">
        <ele>1083.3</ele>
        <time>2016-07-24T09:16:20Z</time>
      </trkpt>
      <trkpt lat="42.3993" lon="0.02522">
        <ele>1083.1</ele>
        <time>2016-07-24T09:16:22Z</time>
      </trkpt>
      <trkpt lat="42.39933" lon="0.0252">
        <ele>1082.9</ele>
        <time>2016-07-24T09:16:24Z</time>
      </trkpt>
      <trkpt lat="42.39935" lon="0.02518">
        <ele>1082.8</ele>
        <time>2016-07-24T09:16:26Z</time>
      </trkpt>
      <trkpt lat="42.39938" lon="0.02516">
        <ele>1082.6</ele>
        <time>2016-07-24T09:16:28Z</time>
      </trkpt>
      <trkpt lat="42.39941" lon="0.02513">
        <ele>1082.4</ele>
        <time>2016-07-24T09:16:30Z</time>
      </trkpt>
      <trkpt lat="42.39943" lon="0.02511">
        <ele>1082.2</ele>
        <time>2016-07-24T09:16:32Z</time>
      </trkpt>
      <trkpt lat="42.39946" lon="0.02509">
        <ele>1082.1</ele>
        <time>2016-07-24T09:16:34Z</time>
      </trkpt>
      <trkpt lat="42.3995" lon="0.02506">
        <ele>1081.9</ele>
        <time>2016-07-24T09:16:36Z</time>
      </trkpt>
      <trkpt lat="42.39953" lon="0.02504">
        <ele>1081.7</ele>
        <time>2016-07-24T09:16:38Z</time>
      </trkpt>
      <trkpt lat="42.39956" lon="0.02502">
        <ele>1081.6</ele>
        <time>2016-07-24T09:16:40Z</time>
      </trkpt>
      <trkpt lat="42.39959" lon="0.025">
        <ele>1081.3</ele>
        <time>2016-07-24T09:16:42Z</time>
      </trkpt>
      <trkpt lat="42.39963" lon="0.02498">
        <ele>1080.8</ele>
        <time>2016-07-24T09:16:44Z</time>
      </trkpt>
      <trkpt lat="42.39966" lon="0.02497">
        <ele>1080.3</ele>
        <time>2016-07-24T09:16:46Z</time>
      </trkpt>
      <trkpt lat="42.3997" lon="0.02495">
        <ele>1079.8</ele>
        <time>2016-07-24T09:16:48Z</time>
      </trkpt>
      <trkpt lat="42.39973" lon="0.02493">
        <ele>1079.4</ele>
        <time>2016-07-24T09:16:50Z</time>
      </trkpt>
      <trkpt lat="42.39975" lon="0.0249">
        <ele>1079.1</ele>
        <time>2016-07-24T09:16:52Z</time>
      </trkpt>
      <trkpt lat="42.39977" lon="0.02487">
        <ele>1078.9</ele>
        <time>2016-07-24T09:16:54Z</time>
      </trkpt>
      <trkpt lat="42.39979" lon="0.02483">
        <ele>1078.8</ele>
        <time>2016-07-24T09:16:56Z</time>
      </trkpt>
      <trkpt lat="42.39979" lon="0.02479">
        <ele>1078.9</ele>
        <time>2016-07-24T09:16:58Z</time>
      </trkpt>
      <trkpt lat="42.3998" lon="0.02474">
        <ele>1079</ele>
        <time>2016-07-24T09:17:00Z</time>
      </trkpt>
      <trkpt lat="42.39979" lon="0.02469">
        <ele>1079.3</ele>
        <time>2016-07-24T09:17:02Z</time>
      </trkpt>
      <trkpt lat="42.39977" lon="0.02465">
        <ele>1079.6</ele>
        <time>2016-07-24T09:17:04Z</time>
      </trkpt>
      <trkpt lat="42.39974" lon="0.02461">
        <ele>1080</ele>
        <time>2016-07-24T09:17:06Z</time>
      </trkpt>
      <trkpt lat="42.39971" lon="0.02457">
        <ele>1080.4</ele>
        <time>2016-07-24T09:17:08Z</time>
      </trkpt>
      <trkpt lat="42.39969" lon="0.02454">
        <ele>1080.4</ele>
        <time>2016-07-24T09:17:10Z</time>
      </trkpt>
      <trkpt lat="42.39966" lon="0.02452">
        <ele>1080.6</ele>
        <time>2016-07-24T09:17:12Z</time>
      </trkpt>
      <trkpt lat="42.39963" lon="0.0245">
        <ele>1080.8</ele>
        <time>2016-07-24T09:17:14Z</time>
      </trkpt>
      <trkpt lat="42.39959" lon="0.02449">
        <ele>1081.1</ele>
        <time>2016-07-24T09:17:16Z</time>
      </trkpt>
      <trkpt lat="42.39957" lon="0.02447">
        <ele>1081.1</ele>
        <time>2016-07-24T09:17:18Z</time>
      </trkpt>
      <trkpt lat="42.39954" lon="0.02446">
        <ele>1081.1</ele>
        <time>2016-07-24T09:17:20Z</time>
      </trkpt>
      <trkpt lat="42.39951" lon="0.02445">
        <ele>1081</ele>
        <time>2016-07-24T09:17:22Z</time>
      </trkpt>
      <trkpt lat="42.39948" lon="0.02444">
        <ele>1081</ele>
        <time>2016-07-24T09:17:24Z</time>
      </trkpt>
      <trkpt lat="42.39944" lon="0.02443">
        <ele>1081</ele>
        <time>2016-07-24T09:17:26Z</time>
      </trkpt>
      <trkpt lat="42.39941" lon="0.02442">
        <ele>1081</ele>
        <time>2016-07-24T09:17:28Z</time>
      </trkpt>
      <trkpt lat="42.39938" lon="0.02441">
        <ele>1081</ele>
        <time>2016-07-24T09:17:30Z</time>
      </trkpt>
      <trkpt lat="42.39934" lon="0.0244">
        <ele>1081</ele>
        <time>2016-07-24T09:17:32Z</time>
      </trkpt>
      <trkpt lat="42.3993" lon="0.02439">
        <ele>1081</ele>
        <time>2016-07-24T09:17:34Z</time>
      </trkpt>
      <trkpt lat="42.39925" lon="0.02439">
        <ele>1081.1</ele>
        <time>2016-07-24T09:17:36Z</time>
      </trkpt>
      <trkpt lat="42.39921" lon="0.0244">
        <ele>1081.3</ele>
        <time>2016-07-24T09:17:38Z</time>
      </trkpt>
      <trkpt lat="42.39916" lon="0.02441">
        <ele>1081.5</ele>
        <time>2016-07-24T09:17:40Z</time>
      </trkpt>
      <trkpt lat="42.39913" lon="0.02444">
        <ele>1081.7</ele>
        <time>2016-07-24T09:17:42Z</time>
      </trkpt>
      <trkpt lat="42.3991" lon="0.02447">
        <ele>1081.9</ele>
        <time>2016-07-24T09:17:45Z</time>
      </trkpt>
      <trkpt lat="42.39913" lon="0.02445">
        <ele>1081.8</ele>
        <time>2016-07-24T09:17:59Z</time>
      </trkpt>
      <trkpt lat="42.39916" lon="0.02444">
        <ele>1081.7</ele>
        <time>2016-07-24T09:18:22Z</time>
      </trkpt>
      <trkpt lat="42.39919" lon="0.02443">
        <ele>1081.5</ele>
        <time>2016-07-24T09:18:46Z</time>
      </trkpt>
      <trkpt lat="42.39926" lon="0.02444">
        <ele>1081.5</ele>
        <time>2016-07-24T09:19:12Z</time>
      </trkpt>
      <trkpt lat="42.39928" lon="0.02446">
        <ele>1081.6</ele>
        <time>2016-07-24T09:19:23Z</time>
      </trkpt>
      <trkpt lat="42.39931" lon="0.02447">
        <ele>1081.6</ele>
        <time>2016-07-24T09:19:30Z</time>
      </trkpt>
      <trkpt lat="42.39935" lon="0.0245">
        <ele>1081.7</ele>
        <time>2016-07-24T09:19:34Z</time>
      </trkpt>
      <trkpt lat="42.39936" lon="0.02449">
        <ele>1081.6</ele>
        <time>2016-07-24T09:20:22Z</time>
      </trkpt>
      <trkpt lat="42.39939" lon="0.02447">
        <ele>1081.4</ele>
        <time>2016-07-24T09:20:25Z</time>
      </trkpt>
      <trkpt lat="42.39942" lon="0.02445">
        <ele>1081.2</ele>
        <time>2016-07-24T09:20:30Z</time>
      </trkpt>
      <trkpt lat="42.39945" lon="0.02447">
        <ele>1081.3</ele>
        <time>2016-07-24T09:20:34Z</time>
      </trkpt>
      <trkpt lat="42.39948" lon="0.02444">
        <ele>1081</ele>
        <time>2016-07-24T09:20:39Z</time>
      </trkpt>
      <trkpt lat="42.39951" lon="0.02443">
        <ele>1080.9</ele>
        <time>2016-07-24T09:20:51Z</time>
      </trkpt>
      <trkpt lat="42.39948" lon="0.02442">
        <ele>1080.9</ele>
        <time>2016-07-24T09:20:57Z</time>
      </trkpt>
      <trkpt lat="42.39946" lon="0.02441">
        <ele>1080.8</ele>
        <time>2016-07-24T09:21:01Z</time>
      </trkpt>
      <trkpt lat="42.39942" lon="0.02441">
        <ele>1080.9</ele>
        <time>2016-07-24T09:21:04Z</time>
      </trkpt>
      <trkpt lat="42.39937" lon="0.02441">
        <ele>1081</ele>
        <time>2016-07-24T09:23:29Z</time>
      </trkpt>
      <trkpt lat="42.39934" lon="0.02442">
        <ele>1081.1</ele>
        <time>2016-07-24T09:23:31Z</time>
      </trkpt>
      <trkpt lat="42.39931" lon="0.02443">
        <ele>1081.2</ele>
        <time>2016-07-24T09:23:42Z</time>
      </trkpt>
      <trkpt lat="42.39928" lon="0.02443">
        <ele>1081.3</ele>
        <time>2016-07-24T09:23:46Z</time>
      </trkpt>
      <trkpt lat="42.39925" lon="0.02445">
        <ele>1081.6</ele>
        <time>2016-07-24T09:23:50Z</time>
      </trkpt>
      <trkpt lat="42.39922" lon="0.02446">
        <ele>1081.7</ele>
        <time>2016-07-24T09:23:55Z</time>
      </trkpt>
      <trkpt lat="42.39919" lon="0.02446">
        <ele>1081.7</ele>
        <time>2016-07-24T09:24:00Z</time>
      </trkpt>
      <trkpt lat="42.39916" lon="0.02445">
        <ele>1081.7</ele>
        <time>2016-07-24T09:24:28Z</time>
      </trkpt>
      <trkpt lat="42.39913" lon="0.02446">
        <ele>1081.8</ele>
        <time>2016-07-24T09:24:33Z</time>
      </trkpt>
      <trkpt lat="42.39916" lon="0.02445">
        <ele>1081.7</ele>
        <time>2016-07-24T09:24:48Z</time>
      </trkpt>
      <trkpt lat="42.39919" lon="0.02443">
        <ele>1081.5</ele>
        <time>2016-07-24T09:24:50Z</time>
      </trkpt>
      <trkpt lat="42.39922" lon="0.02441">
        <ele>1081.3</ele>
        <time>2016-07-24T09:24:52Z</time>
      </trkpt>
      <trkpt lat="42.39924" lon="0.02439">
        <ele>1081.2</ele>
        <time>2016-07-24T09:24:54Z</time>
      </trkpt>
      <trkpt lat="42.39928" lon="0.02439">
        <ele>1081.1</ele>
        <time>2016-07-24T09:24:56Z</time>
      </trkpt>
      <trkpt lat="42.39932" lon="0.02441">
        <ele>1081.1</ele>
        <time>2016-07-24T09:24:58Z</time>
      </trkpt>
      <trkpt lat="42.39935" lon="0.02443">
        <ele>1081.2</ele>
        <time>2016-07-24T09:25:00Z</time>
      </trkpt>
      <trkpt lat="42.39936" lon="0.02449">
        <ele>1081.6</ele>
        <time>2016-07-24T09:25:02Z</time>
      </trkpt>
      <trkpt lat="42.39935" lon="0.02453">
        <ele>1081.9</ele>
        <time>2016-07-24T09:25:04Z</time>
      </trkpt>
      <trkpt lat="42.39934" lon="0.02457">
        <ele>1082.2</ele>
        <time>2016-07-24T09:25:10Z</time>
      </trkpt>
      <trkpt lat="42.39933" lon="0.0246">
        <ele>1082.3</ele>
        <time>2016-07-24T09:25:16Z</time>
      </trkpt>
      <trkpt lat="42.39932" lon="0.02464">
        <ele>1082.4</ele>
        <time>2016-07-24T09:25:22Z</time>
      </trkpt>
      <trkpt lat="42.3993" lon="0.02467">
        <ele>1082.5</ele>
        <time>2016-07-24T09:25:31Z</time>
      </trkpt>
      <trkpt lat="42.39929" lon="0.0247">
        <ele>1082.5</ele>
        <time>2016-07-24T09:25:37Z</time>
      </trkpt>
      <trkpt lat="42.39928" lon="0.02474">
        <ele>1082.6</ele>
        <time>2016-07-24T09:25:45Z</time>
      </trkpt>
      <trkpt lat="42.39927" lon="0.02478">
        <ele>1082.7</ele>
        <time>2016-07-24T09:25:51Z</time>
      </trkpt>
      <trkpt lat="42.39925" lon="0.02481">
        <ele>1082.8</ele>
        <time>2016-07-24T09:25:55Z</time>
      </trkpt>
      <trkpt lat="42.39922" lon="0.02481">
        <ele>1082.9</ele>
        <time>2016-07-24T09:26:07Z</time>
      </trkpt>
      <trkpt lat="42.39919" lon="0.02483">
        <ele>1083</ele>
        <time>2016-07-24T09:26:10Z</time>
      </trkpt>
      <trkpt lat="42.39916" lon="0.02487">
        <ele>1083.2</ele>
        <time>2016-07-24T09:26:13Z</time>
      </trkpt>
      <trkpt lat="42.39914" lon="0.02489">
        <ele>1083.3</ele>
        <time>2016-07-24T09:26:15Z</time>
      </trkpt>
      <trkpt lat="42.3991" lon="0.02491">
        <ele>1083.6</ele>
        <time>2016-07-24T09:26:17Z</time>
      </trkpt>
      <trkpt lat="42.39908" lon="0.02495">
        <ele>1083.8</ele>
        <time>2016-07-24T09:26:19Z</time>
      </trkpt>
      <trkpt lat="42.39908" lon="0.02501">
        <ele>1084</ele>
        <time>2016-07-24T09:26:21Z</time>
      </trkpt>
      <trkpt lat="42.39907" lon="0.02505">
        <ele>1084.1</ele>
        <time>2016-07-24T09:26:22Z</time>
      </trkpt>
      <trkpt lat="42.39906" lon="0.0251">
        <ele>1084.3</ele>
        <time>2016-07-24T09:26:23Z</time>
      </trkpt>
      <trkpt lat="42.39905" lon="0.02514">
        <ele>1084.5</ele>
        <time>2016-07-24T09:26:24Z</time>
      </trkpt>
      <trkpt lat="42.39903" lon="0.0252">
        <ele>1084.9</ele>
        <time>2016-07-24T09:26:26Z</time>
      </trkpt>
      <trkpt lat="42.39902" lon="0.02523">
        <ele>1085.1</ele>
        <time>2016-07-24T09:26:27Z</time>
      </trkpt>
      <trkpt lat="42.399" lon="0.02528">
        <ele>1085.3</ele>
        <time>2016-07-24T09:26:28Z</time>
      </trkpt>
      <trkpt lat="42.39898" lon="0.02532">
        <ele>1085.7</ele>
        <time>2016-07-24T09:26:29Z</time>
      </trkpt>
      <trkpt lat="42.39894" lon="0.02537">
        <ele>1086.2</ele>
        <time>2016-07-24T09:26:30Z</time>
      </trkpt>
      <trkpt lat="42.3989" lon="0.02541">
        <ele>1086.7</ele>
        <time>2016-07-24T09:26:31Z</time>
      </trkpt>
      <trkpt lat="42.39886" lon="0.02545">
        <ele>1086.3</ele>
        <time>2016-07-24T09:26:32Z</time>
      </trkpt>
      <trkpt lat="42.39881" lon="0.02549">
        <ele>1085.6</ele>
        <time>2016-07-24T09:26:33Z</time>
      </trkpt>
      <trkpt lat="42.39877" lon="0.02553">
        <ele>1085</ele>
        <time>2016-07-24T09:26:34Z</time>
      </trkpt>
      <trkpt lat="42.39873" lon="0.02556">
        <ele>1084.5</ele>
        <time>2016-07-24T09:26:35Z</time>
      </trkpt>
      <trkpt lat="42.39868" lon="0.02559">
        <ele>1084</ele>
        <time>2016-07-24T09:26:36Z</time>
      </trkpt>
      <trkpt lat="42.39863" lon="0.0256">
        <ele>1083.8</ele>
        <time>2016-07-24T09:26:37Z</time>
      </trkpt>
      <trkpt lat="42.39858" lon="0.0256">
        <ele>1083.8</ele>
        <time>2016-07-24T09:26:38Z</time>
      </trkpt>
      <trkpt lat="42.39854" lon="0.0256">
        <ele>1083.9</ele>
        <time>2016-07-24T09:26:39Z</time>
      </trkpt>
      <trkpt lat="42.3985" lon="0.02559">
        <ele>1084.2</ele>
        <time>2016-07-24T09:26:40Z</time>
      </trkpt>
      <trkpt lat="42.39847" lon="0.02558">
        <ele>1084.4</ele>
        <time>2016-07-24T09:26:41Z</time>
      </trkpt>
      <trkpt lat="42.39843" lon="0.02558">
        <ele>1084.5</ele>
        <time>2016-07-24T09:26:43Z</time>
      </trkpt>
      <trkpt lat="42.39838" lon="0.0256">
        <ele>1084.1</ele>
        <time>2016-07-24T09:26:45Z</time>
      </trkpt>
      <trkpt lat="42.39836" lon="0.02561">
        <ele>1083.9</ele>
        <time>2016-07-24T09:26:46Z</time>
      </trkpt>
      <trkpt lat="42.39831" lon="0.02562">
        <ele>1083.7</ele>
        <time>2016-07-24T09:26:48Z</time>
      </trkpt>
      <trkpt lat="42.39827" lon="0.02563">
        <ele>1083.7</ele>
        <time>2016-07-24T09:26:50Z</time>
      </trkpt>
      <trkpt lat="42.39823" lon="0.02565">
        <ele>1083.2</ele>
        <time>2016-07-24T09:26:52Z</time>
      </trkpt>
      <trkpt lat="42.3982" lon="0.02571">
        <ele>1081.9</ele>
        <time>2016-07-24T09:26:54Z</time>
      </trkpt>
      <trkpt lat="42.39818" lon="0.02577">
        <ele>1080.6</ele>
        <time>2016-07-24T09:26:56Z</time>
      </trkpt>
      <trkpt lat="42.39815" lon="0.0258">
        <ele>1079.8</ele>
        <time>2016-07-24T09:26:58Z</time>
      </trkpt>
      <trkpt lat="42.39815" lon="0.02584">
        <ele>1078.9</ele>
        <time>2016-07-24T09:27:03Z</time>
      </trkpt>
      <trkpt lat="42.39813" lon="0.02588">
        <ele>1078</ele>
        <time>2016-07-24T09:27:06Z</time>
      </trkpt>
      <trkpt lat="42.3981" lon="0.02592">
        <ele>1077.2</ele>
        <time>2016-07-24T09:27:12Z</time>
      </trkpt>
      <trkpt lat="42.39805" lon="0.02597">
        <ele>1076.1</ele>
        <time>2016-07-24T09:27:14Z</time>
      </trkpt>
      <trkpt lat="42.39801" lon="0.02599">
        <ele>1075.7</ele>
        <time>2016-07-24T09:27:15Z</time>
      </trkpt>
      <trkpt lat="42.39797" lon="0.02601">
        <ele>1075.4</ele>
        <time>2016-07-24T09:27:16Z</time>
      </trkpt>
      <trkpt lat="42.39794" lon="0.02602">
        <ele>1075.2</ele>
        <time>2016-07-24T09:27:17Z</time>
      </trkpt>
      <trkpt lat="42.3979" lon="0.02603">
        <ele>1075.3</ele>
        <time>2016-07-24T09:27:18Z</time>
      </trkpt>
      <trkpt lat="42.39787" lon="0.02604">
        <ele>1075.7</ele>
        <time>2016-07-24T09:27:19Z</time>
      </trkpt>
      <trkpt lat="42.39783" lon="0.02605">
        <ele>1076.2</ele>
        <time>2016-07-24T09:27:20Z</time>
      </trkpt>
      <trkpt lat="42.3978" lon="0.02606">
        <ele>1076.8</ele>
        <time>2016-07-24T09:27:21Z</time>
      </trkpt>
      <trkpt lat="42.39776" lon="0.02607">
        <ele>1077.2</ele>
        <time>2016-07-24T09:27:22Z</time>
      </trkpt>
      <trkpt lat="42.39773" lon="0.02608">
        <ele>1077.5</ele>
        <time>2016-07-24T09:27:23Z</time>
      </trkpt>
      <trkpt lat="42.39768" lon="0.0261">
        <ele>1078</ele>
        <time>2016-07-24T09:27:25Z</time>
      </trkpt>
      <trkpt lat="42.39765" lon="0.0261">
        <ele>1078.6</ele>
        <time>2016-07-24T09:27:26Z</time>
      </trkpt>
      <trkpt lat="42.39762" lon="0.02609">
        <ele>1079.5</ele>
        <time>2016-07-24T09:27:27Z</time>
      </trkpt>
      <trkpt lat="42.39759" lon="0.02607">
        <ele>1080.5</ele>
        <time>2016-07-24T09:27:28Z</time>
      </trkpt>
      <trkpt lat="42.39756" lon="0.02606">
        <ele>1081.4</ele>
        <time>2016-07-24T09:27:29Z</time>
      </trkpt>
      <trkpt lat="42.39753" lon="0.02605">
        <ele>1082.2</ele>
        <time>2016-07-24T09:27:30Z</time>
      </trkpt>
      <trkpt lat="42.39748" lon="0.02604">
        <ele>1083.4</ele>
        <time>2016-07-24T09:27:32Z</time>
      </trkpt>
      <trkpt lat="42.39745" lon="0.02604">
        <ele>1084</ele>
        <time>2016-07-24T09:27:33Z</time>
      </trkpt>
      <trkpt lat="42.39742" lon="0.02604">
        <ele>1084.5</ele>
        <time>2016-07-24T09:27:34Z</time>
      </trkpt>
      <trkpt lat="42.39738" lon="0.02605">
        <ele>1084.9</ele>
        <time>2016-07-24T09:27:36Z</time>
      </trkpt>
      <trkpt lat="42.39737" lon="0.02608">
        <ele>1084.5</ele>
        <time>2016-07-24T09:27:38Z</time>
      </trkpt>
      <trkpt lat="42.39738" lon="0.02612">
        <ele>1083.4</ele>
        <time>2016-07-24T09:27:40Z</time>
      </trkpt>
      <trkpt lat="42.39741" lon="0.02616">
        <ele>1081.9</ele>
        <time>2016-07-24T09:27:42Z</time>
      </trkpt>
      <trkpt lat="42.39743" lon="0.02619">
        <ele>1080.8</ele>
        <time>2016-07-24T09:27:44Z</time>
      </trkpt>
      <trkpt lat="42.39741" lon="0.02624">
        <ele>1080.1</ele>
        <time>2016-07-24T09:27:46Z</time>
      </trkpt>
      <trkpt lat="42.39739" lon="0.02627">
        <ele>1079.5</ele>
        <time>2016-07-24T09:27:47Z</time>
      </trkpt>
      <trkpt lat="42.39738" lon="0.02632">
        <ele>1078.7</ele>
        <time>2016-07-24T09:27:48Z</time>
      </trkpt>
      <trkpt lat="42.39736" lon="0.02636">
        <ele>1077.8</ele>
        <time>2016-07-24T09:27:49Z</time>
      </trkpt>
      <trkpt lat="42.39734" lon="0.02641">
        <ele>1077.1</ele>
        <time>2016-07-24T09:27:50Z</time>
      </trkpt>
      <trkpt lat="42.39732" lon="0.02645">
        <ele>1076.5</ele>
        <time>2016-07-24T09:27:51Z</time>
      </trkpt>
      <trkpt lat="42.3973" lon="0.02648">
        <ele>1076.1</ele>
        <time>2016-07-24T09:27:52Z</time>
      </trkpt>
      <trkpt lat="42.39729" lon="0.02652">
        <ele>1075.5</ele>
        <time>2016-07-24T09:27:54Z</time>
      </trkpt>
      <trkpt lat="42.39729" lon="0.0266">
        <ele>1073.7</ele>
        <time>2016-07-24T09:27:56Z</time>
      </trkpt>
      <trkpt lat="42.39729" lon="0.02664">
        <ele>1072.6</ele>
        <time>2016-07-24T09:27:57Z</time>
      </trkpt>
      <trkpt lat="42.39729" lon="0.02668">
        <ele>1071.5</ele>
        <time>2016-07-24T09:27:59Z</time>
      </trkpt>
      <trkpt lat="42.39728" lon="0.02673">
        <ele>1070.7</ele>
        <time>2016-07-24T09:28:01Z</time>
      </trkpt>
      <trkpt lat="42.39726" lon="0.02677">
        <ele>1070.2</ele>
        <time>2016-07-24T09:28:02Z</time>
      </trkpt>
      <trkpt lat="42.39724" lon="0.02682">
        <ele>1069.7</ele>
        <time>2016-07-24T09:28:03Z</time>
      </trkpt>
      <trkpt lat="42.39722" lon="0.02686">
        <ele>1069</ele>
        <time>2016-07-24T09:28:04Z</time>
      </trkpt>
      <trkpt lat="42.39721" lon="0.0269">
        <ele>1068.5</ele>
        <time>2016-07-24T09:28:05Z</time>
      </trkpt>
      <trkpt lat="42.39721" lon="0.02696">
        <ele>1067.2</ele>
        <time>2016-07-24T09:28:07Z</time>
      </trkpt>
      <trkpt lat="42.39722" lon="0.02703">
        <ele>1065.2</ele>
        <time>2016-07-24T09:28:09Z</time>
      </trkpt>
      <trkpt lat="42.39725" lon="0.02707">
        <ele>1063.2</ele>
        <time>2016-07-24T09:28:11Z</time>
      </trkpt>
      <trkpt lat="42.39728" lon="0.0271">
        <ele>1061.6</ele>
        <time>2016-07-24T09:28:13Z</time>
      </trkpt>
      <trkpt lat="42.39728" lon="0.02714">
        <ele>1061.1</ele>
        <time>2016-07-24T09:28:41Z</time>
      </trkpt>
      <trkpt lat="42.3973" lon="0.02718">
        <ele>1059.7</ele>
        <time>2016-07-24T09:28:43Z</time>
      </trkpt>
      <trkpt lat="42.39735" lon="0.02718">
        <ele>1058.1</ele>
        <time>2016-07-24T09:28:45Z</time>
      </trkpt>
      <trkpt lat="42.3974" lon="0.02717">
        <ele>1056.8</ele>
        <time>2016-07-24T09:28:47Z</time>
      </trkpt>
      <trkpt lat="42.39744" lon="0.02717">
        <ele>1055.6</ele>
        <time>2016-07-24T09:28:49Z</time>
      </trkpt>
      <trkpt lat="42.39748" lon="0.0272">
        <ele>1054.1</ele>
        <time>2016-07-24T09:28:51Z</time>
      </trkpt>
      <trkpt lat="42.3975" lon="0.02723">
        <ele>1052.8</ele>
        <time>2016-07-24T09:28:53Z</time>
      </trkpt>
      <trkpt lat="42.39748" lon="0.02729">
        <ele>1052.2</ele>
        <time>2016-07-24T09:28:55Z</time>
      </trkpt>
      <trkpt lat="42.39745" lon="0.02732">
        <ele>1052.7</ele>
        <time>2016-07-24T09:28:57Z</time>
      </trkpt>
      <trkpt lat="42.39741" lon="0.02734">
        <ele>1053.4</ele>
        <time>2016-07-24T09:28:59Z</time>
      </trkpt>
      <trkpt lat="42.39737" lon="0.0274">
        <ele>1053.5</ele>
        <time>2016-07-24T09:29:01Z</time>
      </trkpt>
      <trkpt lat="42.39735" lon="0.02746">
        <ele>1052.9</ele>
        <time>2016-07-24T09:29:02Z</time>
      </trkpt>
      <trkpt lat="42.39733" lon="0.02754">
        <ele>1051.8</ele>
        <time>2016-07-24T09:29:03Z</time>
      </trkpt>
      <trkpt lat="42.39732" lon="0.02762">
        <ele>1050.5</ele>
        <time>2016-07-24T09:29:04Z</time>
      </trkpt>
      <trkpt lat="42.39732" lon="0.02769">
        <ele>1049.2</ele>
        <time>2016-07-24T09:29:05Z</time>
      </trkpt>
      <trkpt lat="42.3973" lon="0.02776">
        <ele>1048.2</ele>
        <time>2016-07-24T09:29:06Z</time>
      </trkpt>
      <trkpt lat="42.39729" lon="0.02783">
        <ele>1047.3</ele>
        <time>2016-07-24T09:29:07Z</time>
      </trkpt>
      <trkpt lat="42.39727" lon="0.02788">
        <ele>1046.7</ele>
        <time>2016-07-24T09:29:08Z</time>
      </trkpt>
      <trkpt lat="42.39725" lon="0.02793">
        <ele>1046.3</ele>
        <time>2016-07-24T09:29:09Z</time>
      </trkpt>
      <trkpt lat="42.39722" lon="0.02797">
        <ele>1045.7</ele>
        <time>2016-07-24T09:29:10Z</time>
      </trkpt>
      <trkpt lat="42.39718" lon="0.028">
        <ele>1045.5</ele>
        <time>2016-07-24T09:29:11Z</time>
      </trkpt>
      <trkpt lat="42.39714" lon="0.02803">
        <ele>1045.5</ele>
        <time>2016-07-24T09:29:12Z</time>
      </trkpt>
      <trkpt lat="42.39709" lon="0.02805">
        <ele>1045.5</ele>
        <time>2016-07-24T09:29:13Z</time>
      </trkpt>
      <trkpt lat="42.39706" lon="0.02807">
        <ele>1046.1</ele>
        <time>2016-07-24T09:29:14Z</time>
      </trkpt>
      <trkpt lat="42.39702" lon="0.02808">
        <ele>1046.9</ele>
        <time>2016-07-24T09:29:15Z</time>
      </trkpt>
      <trkpt lat="42.39699" lon="0.02808">
        <ele>1047.8</ele>
        <time>2016-07-24T09:29:16Z</time>
      </trkpt>
      <trkpt lat="42.39694" lon="0.0281">
        <ele>1049.1</ele>
        <time>2016-07-24T09:29:18Z</time>
      </trkpt>
      <trkpt lat="42.3969" lon="0.02812">
        <ele>1049.3</ele>
        <time>2016-07-24T09:29:19Z</time>
      </trkpt>
      <trkpt lat="42.39687" lon="0.02815">
        <ele>1049.5</ele>
        <time>2016-07-24T09:29:20Z</time>
      </trkpt>
      <trkpt lat="42.39683" lon="0.02818">
        <ele>1049.7</ele>
        <time>2016-07-24T09:29:21Z</time>
      </trkpt>
      <trkpt lat="42.39679" lon="0.02821">
        <ele>1049.8</ele>
        <time>2016-07-24T09:29:22Z</time>
      </trkpt>
      <trkpt lat="42.39675" lon="0.02823">
        <ele>1050</ele>
        <time>2016-07-24T09:29:23Z</time>
      </trkpt>
      <trkpt lat="42.39671" lon="0.02826">
        <ele>1050.4</ele>
        <time>2016-07-24T09:29:24Z</time>
      </trkpt>
      <trkpt lat="42.39667" lon="0.02828">
        <ele>1050.8</ele>
        <time>2016-07-24T09:29:25Z</time>
      </trkpt>
      <trkpt lat="42.39663" lon="0.02831">
        <ele>1050.7</ele>
        <time>2016-07-24T09:29:26Z</time>
      </trkpt>
      <trkpt lat="42.3966" lon="0.02835">
        <ele>1050.1</ele>
        <time>2016-07-24T09:29:27Z</time>
      </trkpt>
      <trkpt lat="42.39658" lon="0.02838">
        <ele>1049.2</ele>
        <time>2016-07-24T09:29:28Z</time>
      </trkpt>
      <trkpt lat="42.39656" lon="0.02842">
        <ele>1048.5</ele>
        <time>2016-07-24T09:29:29Z</time>
      </trkpt>
      <trkpt lat="42.39653" lon="0.02844">
        <ele>1048</ele>
        <time>2016-07-24T09:29:30Z</time>
      </trkpt>
      <trkpt lat="42.3965" lon="0.02847">
        <ele>1047.6</ele>
        <time>2016-07-24T09:29:31Z</time>
      </trkpt>
      <trkpt lat="42.39648" lon="0.0285">
        <ele>1047.2</ele>
        <time>2016-07-24T09:29:32Z</time>
      </trkpt>
      <trkpt lat="42.39644" lon="0.02854">
        <ele>1046.5</ele>
        <time>2016-07-24T09:29:34Z</time>
      </trkpt>
      <trkpt lat="42.39642" lon="0.02857">
        <ele>1045.8</ele>
        <time>2016-07-24T09:29:35Z</time>
      </trkpt>
      <trkpt lat="42.39639" lon="0.02861">
        <ele>1044.8</ele>
        <time>2016-07-24T09:29:36Z</time>
      </trkpt>
      <trkpt lat="42.39636" lon="0.02866">
        <ele>1043.4</ele>
        <time>2016-07-24T09:29:37Z</time>
      </trkpt>
      <trkpt lat="42.39632" lon="0.0287">
        <ele>1042.2</ele>
        <time>2016-07-24T09:29:38Z</time>
      </trkpt>
      <trkpt lat="42.3963" lon="0.02875">
        <ele>1040.9</ele>
        <time>2016-07-24T09:29:39Z</time>
      </trkpt>
      <trkpt lat="42.39627" lon="0.02879">
        <ele>1039.5</ele>
        <time>2016-07-24T09:29:40Z</time>
      </trkpt>
      <trkpt lat="42.39625" lon="0.02884">
        <ele>1037.9</ele>
        <time>2016-07-24T09:29:41Z</time>
      </trkpt>
      <trkpt lat="42.39623" lon="0.02889">
        <ele>1036.1</ele>
        <time>2016-07-24T09:29:42Z</time>
      </trkpt>
      <trkpt lat="42.39621" lon="0.02894">
        <ele>1034.4</ele>
        <time>2016-07-24T09:29:43Z</time>
      </trkpt>
      <trkpt lat="42.39618" lon="0.02899">
        <ele>1032.7</ele>
        <time>2016-07-24T09:29:44Z</time>
      </trkpt>
      <trkpt lat="42.39615" lon="0.02903">
        <ele>1031.1</ele>
        <time>2016-07-24T09:29:45Z</time>
      </trkpt>
      <trkpt lat="42.39611" lon="0.02908">
        <ele>1029.8</ele>
        <time>2016-07-24T09:29:46Z</time>
      </trkpt>
      <trkpt lat="42.39608" lon="0.02912">
        <ele>1028.9</ele>
        <time>2016-07-24T09:29:47Z</time>
      </trkpt>
      <trkpt lat="42.39603" lon="0.02914">
        <ele>1028.6</ele>
        <time>2016-07-24T09:29:48Z</time>
      </trkpt>
      <trkpt lat="42.39599" lon="0.02916">
        <ele>1028.5</ele>
        <time>2016-07-24T09:29:49Z</time>
      </trkpt>
      <trkpt lat="42.39595" lon="0.02918">
        <ele>1028.5</ele>
        <time>2016-07-24T09:29:50Z</time>
      </trkpt>
      <trkpt lat="42.39591" lon="0.0292">
        <ele>1028.7</ele>
        <time>2016-07-24T09:29:51Z</time>
      </trkpt>
      <trkpt lat="42.39587" lon="0.02922">
        <ele>1028.7</ele>
        <time>2016-07-24T09:29:52Z</time>
      </trkpt>
      <trkpt lat="42.39584" lon="0.02924">
        <ele>1028.4</ele>
        <time>2016-07-24T09:29:53Z</time>
      </trkpt>
      <trkpt lat="42.39581" lon="0.02927">
        <ele>1028</ele>
        <time>2016-07-24T09:29:54Z</time>
      </trkpt>
      <trkpt lat="42.39578" lon="0.02929">
        <ele>1027.9</ele>
        <time>2016-07-24T09:29:55Z</time>
      </trkpt>
      <trkpt lat="42.39575" lon="0.02932">
        <ele>1027.9</ele>
        <time>2016-07-24T09:29:57Z</time>
      </trkpt>
      <trkpt lat="42.39571" lon="0.02934">
        <ele>1028</ele>
        <time>2016-07-24T09:29:59Z</time>
      </trkpt>
      <trkpt lat="42.39568" lon="0.02936">
        <ele>1028.2</ele>
        <time>2016-07-24T09:30:01Z</time>
      </trkpt>
      <trkpt lat="42.39565" lon="0.02939">
        <ele>1027.8</ele>
        <time>2016-07-24T09:30:03Z</time>
      </trkpt>
      <trkpt lat="42.39565" lon="0.02943">
        <ele>1026.9</ele>
        <time>2016-07-24T09:30:04Z</time>
      </trkpt>
      <trkpt lat="42.39565" lon="0.02948">
        <ele>1025.5</ele>
        <time>2016-07-24T09:30:05Z</time>
      </trkpt>
      <trkpt lat="42.39566" lon="0.02953">
        <ele>1024</ele>
        <time>2016-07-24T09:30:06Z</time>
      </trkpt>
      <trkpt lat="42.39567" lon="0.02957">
        <ele>1022.5</ele>
        <time>2016-07-24T09:30:07Z</time>
      </trkpt>
      <trkpt lat="42.39568" lon="0.02961">
        <ele>1020.8</ele>
        <time>2016-07-24T09:30:08Z</time>
      </trkpt>
      <trkpt lat="42.3957" lon="0.02964">
        <ele>1019.2</ele>
        <time>2016-07-24T09:30:09Z</time>
      </trkpt>
      <trkpt lat="42.39571" lon="0.0297">
        <ele>1016.9</ele>
        <time>2016-07-24T09:30:11Z</time>
      </trkpt>
      <trkpt lat="42.39571" lon="0.02975">
        <ele>1015</ele>
        <time>2016-07-24T09:30:13Z</time>
      </trkpt>
      <trkpt lat="42.3957" lon="0.0298">
        <ele>1013.6</ele>
        <time>2016-07-24T09:30:15Z</time>
      </trkpt>
      <trkpt lat="42.39566" lon="0.02983">
        <ele>1013.6</ele>
        <time>2016-07-24T09:30:17Z</time>
      </trkpt>
      <trkpt lat="42.39563" lon="0.02985">
        <ele>1014</ele>
        <time>2016-07-24T09:30:18Z</time>
      </trkpt>
      <trkpt lat="42.3956" lon="0.02986">
        <ele>1014.3</ele>
        <time>2016-07-24T09:30:19Z</time>
      </trkpt>
      <trkpt lat="42.39555" lon="0.02988">
        <ele>1014.9</ele>
        <time>2016-07-24T09:30:21Z</time>
      </trkpt>
      <trkpt lat="42.39553" lon="0.02988">
        <ele>1015.5</ele>
        <time>2016-07-24T09:30:23Z</time>
      </trkpt>
      <trkpt lat="42.39549" lon="0.0299">
        <ele>1015.8</ele>
        <time>2016-07-24T09:30:26Z</time>
      </trkpt>
      <trkpt lat="42.39546" lon="0.02993">
        <ele>1015.7</ele>
        <time>2016-07-24T09:30:28Z</time>
      </trkpt>
      <trkpt lat="42.39543" lon="0.02996">
        <ele>1015.5</ele>
        <time>2016-07-24T09:30:29Z</time>
      </trkpt>
      <trkpt lat="42.39541" lon="0.02998">
        <ele>1014.9</ele>
        <time>2016-07-24T09:30:30Z</time>
      </trkpt>
      <trkpt lat="42.39538" lon="0.03">
        <ele>1014</ele>
        <time>2016-07-24T09:30:31Z</time>
      </trkpt>
      <trkpt lat="42.39534" lon="0.03003">
        <ele>1012.4</ele>
        <time>2016-07-24T09:30:33Z</time>
      </trkpt>
      <trkpt lat="42.39531" lon="0.03006">
        <ele>1011.2</ele>
        <time>2016-07-24T09:30:34Z</time>
      </trkpt>
      <trkpt lat="42.39528" lon="0.03009">
        <ele>1009.9</ele>
        <time>2016-07-24T09:30:35Z</time>
      </trkpt>
      <trkpt lat="42.39524" lon="0.03013">
        <ele>1008.5</ele>
        <time>2016-07-24T09:30:36Z</time>
      </trkpt>
      <trkpt lat="42.39521" lon="0.03016">
        <ele>1007.2</ele>
        <time>2016-07-24T09:30:37Z</time>
      </trkpt>
      <trkpt lat="42.39517" lon="0.03019">
        <ele>1006.2</ele>
        <time>2016-07-24T09:30:38Z</time>
      </trkpt>
      <trkpt lat="42.39514" lon="0.03021">
        <ele>1005.5</ele>
        <time>2016-07-24T09:30:39Z</time>
      </trkpt>
      <trkpt lat="42.3951" lon="0.03023">
        <ele>1004.8</ele>
        <time>2016-07-24T09:30:40Z</time>
      </trkpt>
      <trkpt lat="42.39507" lon="0.03025">
        <ele>1004.3</ele>
        <time>2016-07-24T09:30:41Z</time>
      </trkpt>
      <trkpt lat="42.39504" lon="0.03027">
        <ele>1003.7</ele>
        <time>2016-07-24T09:30:42Z</time>
      </trkpt>
      <trkpt lat="42.39501" lon="0.0303">
        <ele>1003</ele>
        <time>2016-07-24T09:30:44Z</time>
      </trkpt>
      <trkpt lat="42.39498" lon="0.03033">
        <ele>1002.5</ele>
        <time>2016-07-24T09:30:46Z</time>
      </trkpt>
      <trkpt lat="42.39496" lon="0.03035">
        <ele>1002.2</ele>
        <time>2016-07-24T09:30:48Z</time>
      </trkpt>
      <trkpt lat="42.39492" lon="0.03039">
        <ele>1001.6</ele>
        <time>2016-07-24T09:30:50Z</time>
      </trkpt>
      <trkpt lat="42.3949" lon="0.03042">
        <ele>1001.1</ele>
        <time>2016-07-24T09:30:51Z</time>
      </trkpt>
      <trkpt lat="42.39488" lon="0.03045">
        <ele>1000.5</ele>
        <time>2016-07-24T09:30:52Z</time>
      </trkpt>
      <trkpt lat="42.39486" lon="0.03049">
        <ele>999.9</ele>
        <time>2016-07-24T09:30:53Z</time>
      </trkpt>
      <trkpt lat="42.39483" lon="0.03052">
        <ele>999.4</ele>
        <time>2016-07-24T09:30:54Z</time>
      </trkpt>
      <trkpt lat="42.39479" lon="0.03055">
        <ele>999</ele>
        <time>2016-07-24T09:30:55Z</time>
      </trkpt>
      <trkpt lat="42.39476" lon="0.03058">
        <ele>998.8</ele>
        <time>2016-07-24T09:30:56Z</time>
      </trkpt>
      <trkpt lat="42.39473" lon="0.03061">
        <ele>998.5</ele>
        <time>2016-07-24T09:30:57Z</time>
      </trkpt>
      <trkpt lat="42.3947" lon="0.03063">
        <ele>998.4</ele>
        <time>2016-07-24T09:30:58Z</time>
      </trkpt>
      <trkpt lat="42.39467" lon="0.03066">
        <ele>998.2</ele>
        <time>2016-07-24T09:31:00Z</time>
      </trkpt>
      <trkpt lat="42.39465" lon="0.03069">
        <ele>998</ele>
        <time>2016-07-24T09:31:02Z</time>
      </trkpt>
      <trkpt lat="42.39464" lon="0.03073">
        <ele>997.6</ele>
        <time>2016-07-24T09:31:04Z</time>
      </trkpt>
      <trkpt lat="42.39463" lon="0.03078">
        <ele>997.1</ele>
        <time>2016-07-24T09:31:06Z</time>
      </trkpt>
      <trkpt lat="42.39462" lon="0.03082">
        <ele>996.6</ele>
        <time>2016-07-24T09:31:09Z</time>
      </trkpt>
      <trkpt lat="42.39458" lon="0.03087">
        <ele>996.5</ele>
        <time>2016-07-24T09:31:11Z</time>
      </trkpt>
      <trkpt lat="42.39456" lon="0.0309">
        <ele>995.6</ele>
        <time>2016-07-24T09:31:12Z</time>
      </trkpt>
      <trkpt lat="42.39453" lon="0.03093">
        <ele>994.5</ele>
        <time>2016-07-24T09:31:13Z</time>
      </trkpt>
      <trkpt lat="42.3945" lon="0.03096">
        <ele>993.5</ele>
        <time>2016-07-24T09:31:14Z</time>
      </trkpt>
      <trkpt lat="42.39447" lon="0.03099">
        <ele>992.5</ele>
        <time>2016-07-24T09:31:15Z</time>
      </trkpt>
      <trkpt lat="42.39445" lon="0.03102">
        <ele>991.6</ele>
        <time>2016-07-24T09:31:16Z</time>
      </trkpt>
      <trkpt lat="42.39442" lon="0.03105">
        <ele>990.9</ele>
        <time>2016-07-24T09:31:17Z</time>
      </trkpt>
      <trkpt lat="42.3944" lon="0.03109">
        <ele>990.1</ele>
        <time>2016-07-24T09:31:18Z</time>
      </trkpt>
      <trkpt lat="42.39437" lon="0.03113">
        <ele>989.3</ele>
        <time>2016-07-24T09:31:19Z</time>
      </trkpt>
      <trkpt lat="42.39434" lon="0.03117">
        <ele>988.6</ele>
        <time>2016-07-24T09:31:20Z</time>
      </trkpt>
      <trkpt lat="42.39431" lon="0.0312">
        <ele>988</ele>
        <time>2016-07-24T09:31:21Z</time>
      </trkpt>
      <trkpt lat="42.39429" lon="0.03123">
        <ele>987.4</ele>
        <time>2016-07-24T09:31:22Z</time>
      </trkpt>
      <trkpt lat="42.39426" lon="0.03126">
        <ele>986.8</ele>
        <time>2016-07-24T09:31:23Z</time>
      </trkpt>
      <trkpt lat="42.39424" lon="0.03128">
        <ele>986</ele>
        <time>2016-07-24T09:31:24Z</time>
      </trkpt>
      <trkpt lat="42.39422" lon="0.03131">
        <ele>985.2</ele>
        <time>2016-07-24T09:31:25Z</time>
      </trkpt>
      <trkpt lat="42.3942" lon="0.03134">
        <ele>984.3</ele>
        <time>2016-07-24T09:31:26Z</time>
      </trkpt>
      <trkpt lat="42.39418" lon="0.03137">
        <ele>983.4</ele>
        <time>2016-07-24T09:31:27Z</time>
      </trkpt>
      <trkpt lat="42.39416" lon="0.03141">
        <ele>982.3</ele>
        <time>2016-07-24T09:31:28Z</time>
      </trkpt>
      <trkpt lat="42.39414" lon="0.03145">
        <ele>981.2</ele>
        <time>2016-07-24T09:31:29Z</time>
      </trkpt>
      <trkpt lat="42.39413" lon="0.0315">
        <ele>980.1</ele>
        <time>2016-07-24T09:31:30Z</time>
      </trkpt>
      <trkpt lat="42.39411" lon="0.03154">
        <ele>979</ele>
        <time>2016-07-24T09:31:31Z</time>
      </trkpt>
      <trkpt lat="42.3941" lon="0.03158">
        <ele>978.2</ele>
        <time>2016-07-24T09:31:32Z</time>
      </trkpt>
      <trkpt lat="42.39408" lon="0.03162">
        <ele>977.2</ele>
        <time>2016-07-24T09:31:33Z</time>
      </trkpt>
      <trkpt lat="42.39406" lon="0.03166">
        <ele>976.1</ele>
        <time>2016-07-24T09:31:34Z</time>
      </trkpt>
      <trkpt lat="42.39404" lon="0.03171">
        <ele>975.1</ele>
        <time>2016-07-24T09:31:35Z</time>
      </trkpt>
      <trkpt lat="42.39402" lon="0.03175">
        <ele>974.1</ele>
        <time>2016-07-24T09:31:36Z</time>
      </trkpt>
      <trkpt lat="42.39399" lon="0.03178">
        <ele>973.3</ele>
        <time>2016-07-24T09:31:37Z</time>
      </trkpt>
      <trkpt lat="42.39397" lon="0.03181">
        <ele>972.5</ele>
        <time>2016-07-24T09:31:38Z</time>
      </trkpt>
      <trkpt lat="42.39395" lon="0.03184">
        <ele>971.7</ele>
        <time>2016-07-24T09:31:39Z</time>
      </trkpt>
      <trkpt lat="42.39394" lon="0.03188">
        <ele>971</ele>
        <time>2016-07-24T09:31:40Z</time>
      </trkpt>
      <trkpt lat="42.39392" lon="0.03193">
        <ele>969.9</ele>
        <time>2016-07-24T09:31:42Z</time>
      </trkpt>
      <trkpt lat="42.3939" lon="0.03197">
        <ele>968.9</ele>
        <time>2016-07-24T09:31:44Z</time>
      </trkpt>
      <trkpt lat="42.39392" lon="0.03202">
        <ele>968.4</ele>
        <time>2016-07-24T09:31:47Z</time>
      </trkpt>
      <trkpt lat="42.39396" lon="0.03201">
        <ele>968.7</ele>
        <time>2016-07-24T09:31:49Z</time>
      </trkpt>
      <trkpt lat="42.39401" lon="0.03203">
        <ele>968.8</ele>
        <time>2016-07-24T09:31:51Z</time>
      </trkpt>
      <trkpt lat="42.39404" lon="0.03205">
        <ele>968.6</ele>
        <time>2016-07-24T09:31:52Z</time>
      </trkpt>
      <trkpt lat="42.39406" lon="0.03209">
        <ele>968.1</ele>
        <time>2016-07-24T09:31:54Z</time>
      </trkpt>
      <trkpt lat="42.39407" lon="0.03213">
        <ele>967.1</ele>
        <time>2016-07-24T09:31:57Z</time>
      </trkpt>
      <trkpt lat="42.39407" lon="0.03218">
        <ele>966.1</ele>
        <time>2016-07-24T09:31:59Z</time>
      </trkpt>
      <trkpt lat="42.39406" lon="0.03222">
        <ele>965</ele>
        <time>2016-07-24T09:32:01Z</time>
      </trkpt>
      <trkpt lat="42.39404" lon="0.03228">
        <ele>963.3</ele>
        <time>2016-07-24T09:32:03Z</time>
      </trkpt>
      <trkpt lat="42.39403" lon="0.03234">
        <ele>961.9</ele>
        <time>2016-07-24T09:32:05Z</time>
      </trkpt>
      <trkpt lat="42.39404" lon="0.03238">
        <ele>961</ele>
        <time>2016-07-24T09:32:07Z</time>
      </trkpt>
      <trkpt lat="42.39405" lon="0.03242">
        <ele>960.1</ele>
        <time>2016-07-24T09:32:10Z</time>
      </trkpt>
      <trkpt lat="42.39401" lon="0.03245">
        <ele>959.2</ele>
        <time>2016-07-24T09:32:13Z</time>
      </trkpt>
      <trkpt lat="42.39397" lon="0.03246">
        <ele>958.5</ele>
        <time>2016-07-24T09:32:15Z</time>
      </trkpt>
      <trkpt lat="42.39396" lon="0.03251">
        <ele>957.3</ele>
        <time>2016-07-24T09:32:17Z</time>
      </trkpt>
      <trkpt lat="42.39395" lon="0.03257">
        <ele>955.8</ele>
        <time>2016-07-24T09:32:19Z</time>
      </trkpt>
      <trkpt lat="42.39394" lon="0.03261">
        <ele>954.7</ele>
        <time>2016-07-24T09:32:21Z</time>
      </trkpt>
      <trkpt lat="42.39392" lon="0.03265">
        <ele>953.6</ele>
        <time>2016-07-24T09:32:23Z</time>
      </trkpt>
      <trkpt lat="42.3939" lon="0.03268">
        <ele>952.7</ele>
        <time>2016-07-24T09:32:25Z</time>
      </trkpt>
      <trkpt lat="42.3939" lon="0.03273">
        <ele>951.6</ele>
        <time>2016-07-24T09:32:34Z</time>
      </trkpt>
      <trkpt lat="42.39391" lon="0.03276">
        <ele>950.9</ele>
        <time>2016-07-24T09:32:38Z</time>
      </trkpt>
      <trkpt lat="42.39394" lon="0.03276">
        <ele>951.1</ele>
        <time>2016-07-24T09:32:43Z</time>
      </trkpt>
      <trkpt lat="42.39398" lon="0.03274">
        <ele>951.9</ele>
        <time>2016-07-24T09:32:47Z</time>
      </trkpt>
      <trkpt lat="42.39401" lon="0.03273">
        <ele>952.5</ele>
        <time>2016-07-24T09:32:49Z</time>
      </trkpt>
      <trkpt lat="42.39405" lon="0.03271">
        <ele>953.1</ele>
        <time>2016-07-24T09:32:51Z</time>
      </trkpt>
      <trkpt lat="42.39411" lon="0.03272">
        <ele>953.2</ele>
        <time>2016-07-24T09:32:53Z</time>
      </trkpt>
      <trkpt lat="42.39414" lon="0.03274">
        <ele>953</ele>
        <time>2016-07-24T09:32:54Z</time>
      </trkpt>
      <trkpt lat="42.39418" lon="0.03276">
        <ele>952.9</ele>
        <time>2016-07-24T09:32:55Z</time>
      </trkpt>
      <trkpt lat="42.39421" lon="0.03278">
        <ele>952.6</ele>
        <time>2016-07-24T09:32:56Z</time>
      </trkpt>
      <trkpt lat="42.39424" lon="0.03281">
        <ele>952.2</ele>
        <time>2016-07-24T09:32:57Z</time>
      </trkpt>
      <trkpt lat="42.39427" lon="0.03284">
        <ele>951.5</ele>
        <time>2016-07-24T09:32:59Z</time>
      </trkpt>
      <trkpt lat="42.3943" lon="0.03287">
        <ele>951.1</ele>
        <time>2016-07-24T09:33:02Z</time>
      </trkpt>
      <trkpt lat="42.39429" lon="0.03291">
        <ele>950.2</ele>
        <time>2016-07-24T09:33:15Z</time>
      </trkpt>
      <trkpt lat="42.39426" lon="0.03295">
        <ele>948.7</ele>
        <time>2016-07-24T09:33:19Z</time>
      </trkpt>
      <trkpt lat="42.39421" lon="0.03298">
        <ele>947.4</ele>
        <time>2016-07-24T09:33:21Z</time>
      </trkpt>
      <trkpt lat="42.39416" lon="0.033">
        <ele>946.4</ele>
        <time>2016-07-24T09:33:23Z</time>
      </trkpt>
      <trkpt lat="42.39413" lon="0.03302">
        <ele>945.7</ele>
        <time>2016-07-24T09:33:24Z</time>
      </trkpt>
      <trkpt lat="42.39411" lon="0.03304">
        <ele>944.9</ele>
        <time>2016-07-24T09:33:25Z</time>
      </trkpt>
      <trkpt lat="42.39408" lon="0.03306">
        <ele>944.2</ele>
        <time>2016-07-24T09:33:26Z</time>
      </trkpt>
      <trkpt lat="42.39406" lon="0.03308">
        <ele>943.3</ele>
        <time>2016-07-24T09:33:27Z</time>
      </trkpt>
      <trkpt lat="42.39404" lon="0.03311">
        <ele>942.4</ele>
        <time>2016-07-24T09:33:28Z</time>
      </trkpt>
      <trkpt lat="42.394" lon="0.03315">
        <ele>940.9</ele>
        <time>2016-07-24T09:33:30Z</time>
      </trkpt>
      <trkpt lat="42.39398" lon="0.03319">
        <ele>939.6</ele>
        <time>2016-07-24T09:33:32Z</time>
      </trkpt>
      <trkpt lat="42.39395" lon="0.03324">
        <ele>938</ele>
        <time>2016-07-24T09:33:34Z</time>
      </trkpt>
      <trkpt lat="42.39393" lon="0.03328">
        <ele>936.9</ele>
        <time>2016-07-24T09:33:35Z</time>
      </trkpt>
      <trkpt lat="42.39391" lon="0.03332">
        <ele>935.5</ele>
        <time>2016-07-24T09:33:36Z</time>
      </trkpt>
      <trkpt lat="42.39389" lon="0.03337">
        <ele>934.1</ele>
        <time>2016-07-24T09:33:37Z</time>
      </trkpt>
      <trkpt lat="42.39388" lon="0.03341">
        <ele>932.9</ele>
        <time>2016-07-24T09:33:38Z</time>
      </trkpt>
      <trkpt lat="42.39385" lon="0.03347">
        <ele>931.1</ele>
        <time>2016-07-24T09:33:40Z</time>
      </trkpt>
      <trkpt lat="42.39386" lon="0.03352">
        <ele>929.7</ele>
        <time>2016-07-24T09:33:43Z</time>
      </trkpt>
      <trkpt lat="42.3939" lon="0.03353">
        <ele>929.5</ele>
        <time>2016-07-24T09:33:45Z</time>
      </trkpt>
      <trkpt lat="42.39395" lon="0.03351">
        <ele>930.2</ele>
        <time>2016-07-24T09:33:47Z</time>
      </trkpt>
      <trkpt lat="42.39398" lon="0.0335">
        <ele>930.5</ele>
        <time>2016-07-24T09:33:48Z</time>
      </trkpt>
      <trkpt lat="42.39403" lon="0.03351">
        <ele>930.6</ele>
        <time>2016-07-24T09:33:50Z</time>
      </trkpt>
      <trkpt lat="42.39407" lon="0.03352">
        <ele>930.2</ele>
        <time>2016-07-24T09:33:52Z</time>
      </trkpt>
      <trkpt lat="42.3941" lon="0.03354">
        <ele>929.7</ele>
        <time>2016-07-24T09:33:54Z</time>
      </trkpt>
      <trkpt lat="42.39409" lon="0.0336">
        <ele>928</ele>
        <time>2016-07-24T09:33:57Z</time>
      </trkpt>
      <trkpt lat="42.39405" lon="0.03363">
        <ele>926.9</ele>
        <time>2016-07-24T09:33:59Z</time>
      </trkpt>
      <trkpt lat="42.39406" lon="0.03367">
        <ele>925.8</ele>
        <time>2016-07-24T09:34:01Z</time>
      </trkpt>
      <trkpt lat="42.3941" lon="0.03369">
        <ele>925.3</ele>
        <time>2016-07-24T09:34:03Z</time>
      </trkpt>
      <trkpt lat="42.39413" lon="0.03369">
        <ele>925.3</ele>
        <time>2016-07-24T09:34:04Z</time>
      </trkpt>
      <trkpt lat="42.39416" lon="0.03369">
        <ele>925.2</ele>
        <time>2016-07-24T09:34:05Z</time>
      </trkpt>
      <trkpt lat="42.39419" lon="0.0337">
        <ele>925.1</ele>
        <time>2016-07-24T09:34:06Z</time>
      </trkpt>
      <trkpt lat="42.39422" lon="0.03373">
        <ele>924.3</ele>
        <time>2016-07-24T09:34:08Z</time>
      </trkpt>
      <trkpt lat="42.39426" lon="0.03375">
        <ele>923.6</ele>
        <time>2016-07-24T09:34:10Z</time>
      </trkpt>
      <trkpt lat="42.39431" lon="0.03376">
        <ele>923.4</ele>
        <time>2016-07-24T09:34:12Z</time>
      </trkpt>
      <trkpt lat="42.39435" lon="0.03378">
        <ele>922.7</ele>
        <time>2016-07-24T09:34:14Z</time>
      </trkpt>
      <trkpt lat="42.3944" lon="0.03382">
        <ele>921.5</ele>
        <time>2016-07-24T09:34:16Z</time>
      </trkpt>
      <trkpt lat="42.39445" lon="0.03383">
        <ele>920.9</ele>
        <time>2016-07-24T09:34:18Z</time>
      </trkpt>
      <trkpt lat="42.39448" lon="0.03384">
        <ele>920.8</ele>
        <time>2016-07-24T09:34:19Z</time>
      </trkpt>
      <trkpt lat="42.39451" lon="0.03384">
        <ele>920.6</ele>
        <time>2016-07-24T09:34:20Z</time>
      </trkpt>
      <trkpt lat="42.39455" lon="0.03385">
        <ele>920.4</ele>
        <time>2016-07-24T09:34:22Z</time>
      </trkpt>
      <trkpt lat="42.39458" lon="0.03385">
        <ele>920.3</ele>
        <time>2016-07-24T09:34:24Z</time>
      </trkpt>
      <trkpt lat="42.39462" lon="0.03387">
        <ele>919.2</ele>
        <time>2016-07-24T09:34:26Z</time>
      </trkpt>
      <trkpt lat="42.39465" lon="0.03387">
        <ele>918.3</ele>
        <time>2016-07-24T09:34:29Z</time>
      </trkpt>
      <trkpt lat="42.39463" lon="0.03386">
        <ele>919.1</ele>
        <time>2016-07-24T09:34:48Z</time>
      </trkpt>
      <trkpt lat="42.39463" lon="0.03391">
        <ele>917.4</ele>
        <time>2016-07-24T09:35:02Z</time>
      </trkpt>
      <trkpt lat="42.39468" lon="0.03397">
        <ele>914.4</ele>
        <time>2016-07-24T09:35:29Z</time>
      </trkpt>
      <trkpt lat="42.39473" lon="0.034">
        <ele>912.9</ele>
        <time>2016-07-24T09:35:31Z</time>
      </trkpt>
      <trkpt lat="42.39477" lon="0.03403">
        <ele>911.1</ele>
        <time>2016-07-24T09:35:33Z</time>
      </trkpt>
      <trkpt lat="42.39481" lon="0.03405">
        <ele>909.8</ele>
        <time>2016-07-24T09:35:35Z</time>
      </trkpt>
      <trkpt lat="42.39484" lon="0.03406">
        <ele>908.7</ele>
        <time>2016-07-24T09:35:37Z</time>
      </trkpt>
      <trkpt lat="42.39484" lon="0.03412">
        <ele>907</ele>
        <time>2016-07-24T09:35:39Z</time>
      </trkpt>
      <trkpt lat="42.39482" lon="0.03415">
        <ele>906.3</ele>
        <time>2016-07-24T09:35:40Z</time>
      </trkpt>
      <trkpt lat="42.39479" lon="0.03418">
        <ele>905.6</ele>
        <time>2016-07-24T09:35:41Z</time>
      </trkpt>
      <trkpt lat="42.39476" lon="0.03423">
        <ele>904.2</ele>
        <time>2016-07-24T09:35:43Z</time>
      </trkpt>
      <trkpt lat="42.39474" lon="0.03429">
        <ele>902.7</ele>
        <time>2016-07-24T09:35:45Z</time>
      </trkpt>
      <trkpt lat="42.39471" lon="0.03434">
        <ele>901.3</ele>
        <time>2016-07-24T09:35:47Z</time>
      </trkpt>
      <trkpt lat="42.39472" lon="0.03438">
        <ele>899.8</ele>
        <time>2016-07-24T09:35:49Z</time>
      </trkpt>
      <trkpt lat="42.39477" lon="0.03439">
        <ele>898.7</ele>
        <time>2016-07-24T09:35:51Z</time>
      </trkpt>
      <trkpt lat="42.3948" lon="0.0344">
        <ele>898.2</ele>
        <time>2016-07-24T09:35:52Z</time>
      </trkpt>
      <trkpt lat="42.39484" lon="0.03442">
        <ele>897.1</ele>
        <time>2016-07-24T09:35:54Z</time>
      </trkpt>
      <trkpt lat="42.39487" lon="0.03446">
        <ele>895.2</ele>
        <time>2016-07-24T09:35:56Z</time>
      </trkpt>
      <trkpt lat="42.39487" lon="0.03452">
        <ele>893.3</ele>
        <time>2016-07-24T09:35:58Z</time>
      </trkpt>
      <trkpt lat="42.39484" lon="0.03453">
        <ele>893.2</ele>
        <time>2016-07-24T09:36:09Z</time>
      </trkpt>
      <trkpt lat="42.39482" lon="0.03455">
        <ele>892.8</ele>
        <time>2016-07-24T09:36:19Z</time>
      </trkpt>
      <trkpt lat="42.39482" lon="0.03459">
        <ele>891.4</ele>
        <time>2016-07-24T09:36:24Z</time>
      </trkpt>
      <trkpt lat="42.39481" lon="0.03463">
        <ele>890.2</ele>
        <time>2016-07-24T09:36:30Z</time>
      </trkpt>
      <trkpt lat="42.39482" lon="0.03467">
        <ele>889</ele>
        <time>2016-07-24T09:36:36Z</time>
      </trkpt>
      <trkpt lat="42.39483" lon="0.03472">
        <ele>887.1</ele>
        <time>2016-07-24T09:36:40Z</time>
      </trkpt>
      <trkpt lat="42.39486" lon="0.03478">
        <ele>884.8</ele>
        <time>2016-07-24T09:36:42Z</time>
      </trkpt>
      <trkpt lat="42.39489" lon="0.03484">
        <ele>882.7</ele>
        <time>2016-07-24T09:36:44Z</time>
      </trkpt>
      <trkpt lat="42.39491" lon="0.03486">
        <ele>881.8</ele>
        <time>2016-07-24T09:36:45Z</time>
      </trkpt>
      <trkpt lat="42.39493" lon="0.03489">
        <ele>880.8</ele>
        <time>2016-07-24T09:36:46Z</time>
      </trkpt>
      <trkpt lat="42.39496" lon="0.03492">
        <ele>879.7</ele>
        <time>2016-07-24T09:36:47Z</time>
      </trkpt>
      <trkpt lat="42.39497" lon="0.03495">
        <ele>878.6</ele>
        <time>2016-07-24T09:36:48Z</time>
      </trkpt>
      <trkpt lat="42.39498" lon="0.03501">
        <ele>876.5</ele>
        <time>2016-07-24T09:36:50Z</time>
      </trkpt>
      <trkpt lat="42.395" lon="0.03505">
        <ele>875</ele>
        <time>2016-07-24T09:36:52Z</time>
      </trkpt>
      <trkpt lat="42.39499" lon="0.03509">
        <ele>873.9</ele>
        <time>2016-07-24T09:37:01Z</time>
      </trkpt>
      <trkpt lat="42.39498" lon="0.03513">
        <ele>872.9</ele>
        <time>2016-07-24T09:37:07Z</time>
      </trkpt>
      <trkpt lat="42.39495" lon="0.03514">
        <ele>872.5</ele>
        <time>2016-07-24T09:37:10Z</time>
      </trkpt>
      <trkpt lat="42.39491" lon="0.03513">
        <ele>873</ele>
        <time>2016-07-24T09:37:13Z</time>
      </trkpt>
      <trkpt lat="42.39489" lon="0.03514">
        <ele>872.9</ele>
        <time>2016-07-24T09:37:17Z</time>
      </trkpt>
      <trkpt lat="42.39489" lon="0.03519">
        <ele>871.5</ele>
        <time>2016-07-24T09:37:23Z</time>
      </trkpt>
      <trkpt lat="42.3949" lon="0.03524">
        <ele>869.5</ele>
        <time>2016-07-24T09:37:26Z</time>
      </trkpt>
      <trkpt lat="42.39491" lon="0.03532">
        <ele>867.1</ele>
        <time>2016-07-24T09:37:28Z</time>
      </trkpt>
      <trkpt lat="42.39491" lon="0.03537">
        <ele>865.5</ele>
        <time>2016-07-24T09:37:29Z</time>
      </trkpt>
      <trkpt lat="42.39491" lon="0.03541">
        <ele>864</ele>
        <time>2016-07-24T09:37:30Z</time>
      </trkpt>
      <trkpt lat="42.39491" lon="0.03546">
        <ele>862.9</ele>
        <time>2016-07-24T09:37:31Z</time>
      </trkpt>
      <trkpt lat="42.39491" lon="0.03549">
        <ele>861.9</ele>
        <time>2016-07-24T09:37:32Z</time>
      </trkpt>
      <trkpt lat="42.39491" lon="0.03556">
        <ele>860.3</ele>
        <time>2016-07-24T09:37:34Z</time>
      </trkpt>
      <trkpt lat="42.3949" lon="0.03562">
        <ele>858.8</ele>
        <time>2016-07-24T09:37:36Z</time>
      </trkpt>
      <trkpt lat="42.3949" lon="0.03566">
        <ele>857.9</ele>
        <time>2016-07-24T09:37:37Z</time>
      </trkpt>
      <trkpt lat="42.39491" lon="0.03571">
        <ele>856.8</ele>
        <time>2016-07-24T09:37:38Z</time>
      </trkpt>
      <trkpt lat="42.39491" lon="0.03575">
        <ele>855.8</ele>
        <time>2016-07-24T09:37:39Z</time>
      </trkpt>
      <trkpt lat="42.39491" lon="0.03578">
        <ele>854.9</ele>
        <time>2016-07-24T09:37:40Z</time>
      </trkpt>
      <trkpt lat="42.3949" lon="0.03582">
        <ele>853.9</ele>
        <time>2016-07-24T09:37:41Z</time>
      </trkpt>
      <trkpt lat="42.39488" lon="0.03586">
        <ele>853</ele>
        <time>2016-07-24T09:37:42Z</time>
      </trkpt>
      <trkpt lat="42.39485" lon="0.0359">
        <ele>852.2</ele>
        <time>2016-07-24T09:37:43Z</time>
      </trkpt>
      <trkpt lat="42.39483" lon="0.03595">
        <ele>851.2</ele>
        <time>2016-07-24T09:37:44Z</time>
      </trkpt>
      <trkpt lat="42.3948" lon="0.03601">
        <ele>849.8</ele>
        <time>2016-07-24T09:37:45Z</time>
      </trkpt>
      <trkpt lat="42.39477" lon="0.03609">
        <ele>848.1</ele>
        <time>2016-07-24T09:37:46Z</time>
      </trkpt>
      <trkpt lat="42.39475" lon="0.03617">
        <ele>846.1</ele>
        <time>2016-07-24T09:37:47Z</time>
      </trkpt>
      <trkpt lat="42.39474" lon="0.03626">
        <ele>844.1</ele>
        <time>2016-07-24T09:37:48Z</time>
      </trkpt>
      <trkpt lat="42.39472" lon="0.03635">
        <ele>842.8</ele>
        <time>2016-07-24T09:37:49Z</time>
      </trkpt>
      <trkpt lat="42.39471" lon="0.03644">
        <ele>841.5</ele>
        <time>2016-07-24T09:37:50Z</time>
      </trkpt>
      <trkpt lat="42.39469" lon="0.03651">
        <ele>840.4</ele>
        <time>2016-07-24T09:37:51Z</time>
      </trkpt>
      <trkpt lat="42.39466" lon="0.03657">
        <ele>839.6</ele>
        <time>2016-07-24T09:37:52Z</time>
      </trkpt>
      <trkpt lat="42.39463" lon="0.03662">
        <ele>838.8</ele>
        <time>2016-07-24T09:37:53Z</time>
      </trkpt>
      <trkpt lat="42.39462" lon="0.03668">
        <ele>837.8</ele>
        <time>2016-07-24T09:37:54Z</time>
      </trkpt>
      <trkpt lat="42.3946" lon="0.03671">
        <ele>837.2</ele>
        <time>2016-07-24T09:37:55Z</time>
      </trkpt>
      <trkpt lat="42.39458" lon="0.03675">
        <ele>836.6</ele>
        <time>2016-07-24T09:37:56Z</time>
      </trkpt>
      <trkpt lat="42.39456" lon="0.03678">
        <ele>835.7</ele>
        <time>2016-07-24T09:37:58Z</time>
      </trkpt>
      <trkpt lat="42.39454" lon="0.03682">
        <ele>834.7</ele>
        <time>2016-07-24T09:38:01Z</time>
      </trkpt>
      <trkpt lat="42.3945" lon="0.03687">
        <ele>833.1</ele>
        <time>2016-07-24T09:38:03Z</time>
      </trkpt>
      <trkpt lat="42.39448" lon="0.0369">
        <ele>832.3</ele>
        <time>2016-07-24T09:38:04Z</time>
      </trkpt>
      <trkpt lat="42.39446" lon="0.03693">
        <ele>831.2</ele>
        <time>2016-07-24T09:38:05Z</time>
      </trkpt>
      <trkpt lat="42.39444" lon="0.03697">
        <ele>830.1</ele>
        <time>2016-07-24T09:38:06Z</time>
      </trkpt>
      <trkpt lat="42.39442" lon="0.03702">
        <ele>828.6</ele>
        <time>2016-07-24T09:38:07Z</time>
      </trkpt>
      <trkpt lat="42.39439" lon="0.03706">
        <ele>827.1</ele>
        <time>2016-07-24T09:38:08Z</time>
      </trkpt>
      <trkpt lat="42.39437" lon="0.0371">
        <ele>826.3</ele>
        <time>2016-07-24T09:38:09Z</time>
      </trkpt>
      <trkpt lat="42.39435" lon="0.03713">
        <ele>826.1</ele>
        <time>2016-07-24T09:38:10Z</time>
      </trkpt>
      <trkpt lat="42.39433" lon="0.03716">
        <ele>826.1</ele>
        <time>2016-07-24T09:38:11Z</time>
      </trkpt>
      <trkpt lat="42.39431" lon="0.0372">
        <ele>825.9</ele>
        <time>2016-07-24T09:38:12Z</time>
      </trkpt>
      <trkpt lat="42.39429" lon="0.03724">
        <ele>825.7</ele>
        <time>2016-07-24T09:38:13Z</time>
      </trkpt>
      <trkpt lat="42.39426" lon="0.03728">
        <ele>825.3</ele>
        <time>2016-07-24T09:38:14Z</time>
      </trkpt>
      <trkpt lat="42.39423" lon="0.03733">
        <ele>824.8</ele>
        <time>2016-07-24T09:38:15Z</time>
      </trkpt>
      <trkpt lat="42.3942" lon="0.03736">
        <ele>824.3</ele>
        <time>2016-07-24T09:38:16Z</time>
      </trkpt>
      <trkpt lat="42.39417" lon="0.0374">
        <ele>823.7</ele>
        <time>2016-07-24T09:38:17Z</time>
      </trkpt>
      <trkpt lat="42.39415" lon="0.03744">
        <ele>823.2</ele>
        <time>2016-07-24T09:38:18Z</time>
      </trkpt>
      <trkpt lat="42.39413" lon="0.03748">
        <ele>822.8</ele>
        <time>2016-07-24T09:38:19Z</time>
      </trkpt>
      <trkpt lat="42.39411" lon="0.0375">
        <ele>822.4</ele>
        <time>2016-07-24T09:38:20Z</time>
      </trkpt>
      <trkpt lat="42.39408" lon="0.03753">
        <ele>821.8</ele>
        <time>2016-07-24T09:38:21Z</time>
      </trkpt>
      <trkpt lat="42.39405" lon="0.03756">
        <ele>820.9</ele>
        <time>2016-07-24T09:38:22Z</time>
      </trkpt>
      <trkpt lat="42.39402" lon="0.0376">
        <ele>820</ele>
        <time>2016-07-24T09:38:23Z</time>
      </trkpt>
      <trkpt lat="42.394" lon="0.03763">
        <ele>819.2</ele>
        <time>2016-07-24T09:38:24Z</time>
      </trkpt>
      <trkpt lat="42.39397" lon="0.03767">
        <ele>818.3</ele>
        <time>2016-07-24T09:38:25Z</time>
      </trkpt>
      <trkpt lat="42.39394" lon="0.03771">
        <ele>817.5</ele>
        <time>2016-07-24T09:38:26Z</time>
      </trkpt>
      <trkpt lat="42.39391" lon="0.03776">
        <ele>816.5</ele>
        <time>2016-07-24T09:38:27Z</time>
      </trkpt>
      <trkpt lat="42.39388" lon="0.03781">
        <ele>815.2</ele>
        <time>2016-07-24T09:38:28Z</time>
      </trkpt>
      <trkpt lat="42.39384" lon="0.03786">
        <ele>813.9</ele>
        <time>2016-07-24T09:38:29Z</time>
      </trkpt>
      <trkpt lat="42.39381" lon="0.03792">
        <ele>812.4</ele>
        <time>2016-07-24T09:38:30Z</time>
      </trkpt>
      <trkpt lat="42.39377" lon="0.03798">
        <ele>812.1</ele>
        <time>2016-07-24T09:38:31Z</time>
      </trkpt>
      <trkpt lat="42.39374" lon="0.03804">
        <ele>812</ele>
        <time>2016-07-24T09:38:32Z</time>
      </trkpt>
      <trkpt lat="42.39371" lon="0.03809">
        <ele>812</ele>
        <time>2016-07-24T09:38:33Z</time>
      </trkpt>
      <trkpt lat="42.39368" lon="0.03815">
        <ele>812</ele>
        <time>2016-07-24T09:38:34Z</time>
      </trkpt>
      <trkpt lat="42.39365" lon="0.0382">
        <ele>812.1</ele>
        <time>2016-07-24T09:38:35Z</time>
      </trkpt>
      <trkpt lat="42.39363" lon="0.03825">
        <ele>812.4</ele>
        <time>2016-07-24T09:38:36Z</time>
      </trkpt>
      <trkpt lat="42.39361" lon="0.03831">
        <ele>812.8</ele>
        <time>2016-07-24T09:38:37Z</time>
      </trkpt>
      <trkpt lat="42.39359" lon="0.03836">
        <ele>813.1</ele>
        <time>2016-07-24T09:38:38Z</time>
      </trkpt>
      <trkpt lat="42.39356" lon="0.0384">
        <ele>813.1</ele>
        <time>2016-07-24T09:38:39Z</time>
      </trkpt>
      <trkpt lat="42.39354" lon="0.03845">
        <ele>813</ele>
        <time>2016-07-24T09:38:40Z</time>
      </trkpt>
      <trkpt lat="42.39351" lon="0.03849">
        <ele>812.9</ele>
        <time>2016-07-24T09:38:41Z</time>
      </trkpt>
      <trkpt lat="42.39347" lon="0.03853">
        <ele>812.6</ele>
        <time>2016-07-24T09:38:42Z</time>
      </trkpt>
      <trkpt lat="42.39344" lon="0.03856">
        <ele>812.2</ele>
        <time>2016-07-24T09:38:43Z</time>
      </trkpt>
      <trkpt lat="42.39341" lon="0.03858">
        <ele>811.7</ele>
        <time>2016-07-24T09:38:44Z</time>
      </trkpt>
      <trkpt lat="42.39339" lon="0.03861">
        <ele>811.3</ele>
        <time>2016-07-24T09:38:45Z</time>
      </trkpt>
      <trkpt lat="42.39336" lon="0.03864">
        <ele>810.9</ele>
        <time>2016-07-24T09:38:46Z</time>
      </trkpt>
      <trkpt lat="42.39333" lon="0.03867">
        <ele>810.7</ele>
        <time>2016-07-24T09:38:47Z</time>
      </trkpt>
      <trkpt lat="42.3933" lon="0.03871">
        <ele>810.5</ele>
        <time>2016-07-24T09:38:48Z</time>
      </trkpt>
      <trkpt lat="42.39327" lon="0.03875">
        <ele>810.5</ele>
        <time>2016-07-24T09:38:49Z</time>
      </trkpt>
      <trkpt lat="42.39325" lon="0.03879">
        <ele>810.5</ele>
        <time>2016-07-24T09:38:50Z</time>
      </trkpt>
      <trkpt lat="42.39323" lon="0.03884">
        <ele>810.7</ele>
        <time>2016-07-24T09:38:51Z</time>
      </trkpt>
      <trkpt lat="42.39322" lon="0.03888">
        <ele>811</ele>
        <time>2016-07-24T09:38:52Z</time>
      </trkpt>
      <trkpt lat="42.39321" lon="0.03891">
        <ele>811.3</ele>
        <time>2016-07-24T09:38:53Z</time>
      </trkpt>
      <trkpt lat="42.3932" lon="0.03895">
        <ele>811.7</ele>
        <time>2016-07-24T09:38:54Z</time>
      </trkpt>
      <trkpt lat="42.3932" lon="0.03899">
        <ele>812.2</ele>
        <time>2016-07-24T09:38:55Z</time>
      </trkpt>
      <trkpt lat="42.39319" lon="0.03903">
        <ele>812.7</ele>
        <time>2016-07-24T09:38:56Z</time>
      </trkpt>
      <trkpt lat="42.39319" lon="0.03907">
        <ele>813.2</ele>
        <time>2016-07-24T09:38:57Z</time>
      </trkpt>
      <trkpt lat="42.39318" lon="0.03911">
        <ele>813.6</ele>
        <time>2016-07-24T09:38:58Z</time>
      </trkpt>
      <trkpt lat="42.39317" lon="0.03916">
        <ele>814.1</ele>
        <time>2016-07-24T09:38:59Z</time>
      </trkpt>
      <trkpt lat="42.39316" lon="0.0392">
        <ele>814.5</ele>
        <time>2016-07-24T09:39:00Z</time>
      </trkpt>
      <trkpt lat="42.39316" lon="0.03924">
        <ele>815</ele>
        <time>2016-07-24T09:39:01Z</time>
      </trkpt>
      <trkpt lat="42.39315" lon="0.03928">
        <ele>815.5</ele>
        <time>2016-07-24T09:39:02Z</time>
      </trkpt>
      <trkpt lat="42.39315" lon="0.03932">
        <ele>816</ele>
        <time>2016-07-24T09:39:03Z</time>
      </trkpt>
      <trkpt lat="42.39315" lon="0.03936">
        <ele>816.8</ele>
        <time>2016-07-24T09:39:04Z</time>
      </trkpt>
      <trkpt lat="42.39316" lon="0.0394">
        <ele>817.8</ele>
        <time>2016-07-24T09:39:05Z</time>
      </trkpt>
      <trkpt lat="42.39318" lon="0.03943">
        <ele>818.8</ele>
        <time>2016-07-24T09:39:06Z</time>
      </trkpt>
      <trkpt lat="42.3932" lon="0.03947">
        <ele>820.1</ele>
        <time>2016-07-24T09:39:07Z</time>
      </trkpt>
      <trkpt lat="42.39322" lon="0.03951">
        <ele>821.5</ele>
        <time>2016-07-24T09:39:08Z</time>
      </trkpt>
      <trkpt lat="42.39325" lon="0.03955">
        <ele>823.1</ele>
        <time>2016-07-24T09:39:09Z</time>
      </trkpt>
      <trkpt lat="42.39327" lon="0.03959">
        <ele>824.5</ele>
        <time>2016-07-24T09:39:10Z</time>
      </trkpt>
      <trkpt lat="42.3933" lon="0.03962">
        <ele>825.3</ele>
        <time>2016-07-24T09:39:11Z</time>
      </trkpt>
      <trkpt lat="42.39333" lon="0.03964">
        <ele>826</ele>
        <time>2016-07-24T09:39:12Z</time>
      </trkpt>
      <trkpt lat="42.39336" lon="0.03966">
        <ele>826.8</ele>
        <time>2016-07-24T09:39:13Z</time>
      </trkpt>
      <trkpt lat="42.39338" lon="0.03968">
        <ele>827.3</ele>
        <time>2016-07-24T09:39:14Z</time>
      </trkpt>
      <trkpt lat="42.3934" lon="0.03972">
        <ele>827.7</ele>
        <time>2016-07-24T09:39:15Z</time>
      </trkpt>
      <trkpt lat="42.39342" lon="0.03977">
        <ele>827.9</ele>
        <time>2016-07-24T09:39:16Z</time>
      </trkpt>
      <trkpt lat="42.39343" lon="0.03984">
        <ele>827.7</ele>
        <time>2016-07-24T09:39:17Z</time>
      </trkpt>
      <trkpt lat="42.39344" lon="0.03991">
        <ele>827.4</ele>
        <time>2016-07-24T09:39:18Z</time>
      </trkpt>
      <trkpt lat="42.39344" lon="0.03998">
        <ele>826.9</ele>
        <time>2016-07-24T09:39:19Z</time>
      </trkpt>
      <trkpt lat="42.39344" lon="0.04005">
        <ele>826.4</ele>
        <time>2016-07-24T09:39:20Z</time>
      </trkpt>
      <trkpt lat="42.39344" lon="0.04012">
        <ele>825.9</ele>
        <time>2016-07-24T09:39:21Z</time>
      </trkpt>
      <trkpt lat="42.39344" lon="0.04019">
        <ele>825.4</ele>
        <time>2016-07-24T09:39:22Z</time>
      </trkpt>
      <trkpt lat="42.39345" lon="0.04025">
        <ele>824.9</ele>
        <time>2016-07-24T09:39:23Z</time>
      </trkpt>
      <trkpt lat="42.39344" lon="0.04032">
        <ele>824.4</ele>
        <time>2016-07-24T09:39:24Z</time>
      </trkpt>
      <trkpt lat="42.39344" lon="0.04037">
        <ele>823.9</ele>
        <time>2016-07-24T09:39:25Z</time>
      </trkpt>
      <trkpt lat="42.39344" lon="0.04042">
        <ele>823.4</ele>
        <time>2016-07-24T09:39:26Z</time>
      </trkpt>
      <trkpt lat="42.39342" lon="0.04048">
        <ele>823.2</ele>
        <time>2016-07-24T09:39:27Z</time>
      </trkpt>
      <trkpt lat="42.39341" lon="0.04053">
        <ele>823</ele>
        <time>2016-07-24T09:39:28Z</time>
      </trkpt>
      <trkpt lat="42.3934" lon="0.04057">
        <ele>822.8</ele>
        <time>2016-07-24T09:39:29Z</time>
      </trkpt>
      <trkpt lat="42.39339" lon="0.04061">
        <ele>822.8</ele>
        <time>2016-07-24T09:39:30Z</time>
      </trkpt>
      <trkpt lat="42.39339" lon="0.04066">
        <ele>822.9</ele>
        <time>2016-07-24T09:39:31Z</time>
      </trkpt>
      <trkpt lat="42.39338" lon="0.04071">
        <ele>823.1</ele>
        <time>2016-07-24T09:39:32Z</time>
      </trkpt>
      <trkpt lat="42.39337" lon="0.04076">
        <ele>823.1</ele>
        <time>2016-07-24T09:39:33Z</time>
      </trkpt>
      <trkpt lat="42.39336" lon="0.04081">
        <ele>823</ele>
        <time>2016-07-24T09:39:34Z</time>
      </trkpt>
      <trkpt lat="42.39335" lon="0.04086">
        <ele>823</ele>
        <time>2016-07-24T09:39:35Z</time>
      </trkpt>
      <trkpt lat="42.39334" lon="0.04089">
        <ele>822.7</ele>
        <time>2016-07-24T09:39:36Z</time>
      </trkpt>
      <trkpt lat="42.39332" lon="0.04093">
        <ele>822.4</ele>
        <time>2016-07-24T09:39:37Z</time>
      </trkpt>
      <trkpt lat="42.3933" lon="0.04096">
        <ele>822</ele>
        <time>2016-07-24T09:39:38Z</time>
      </trkpt>
      <trkpt lat="42.39328" lon="0.04099">
        <ele>821.4</ele>
        <time>2016-07-24T09:39:39Z</time>
      </trkpt>
      <trkpt lat="42.39325" lon="0.04102">
        <ele>820.6</ele>
        <time>2016-07-24T09:39:40Z</time>
      </trkpt>
      <trkpt lat="42.39321" lon="0.04104">
        <ele>819.6</ele>
        <time>2016-07-24T09:39:41Z</time>
      </trkpt>
      <trkpt lat="42.39317" lon="0.04107">
        <ele>818.4</ele>
        <time>2016-07-24T09:39:42Z</time>
      </trkpt>
      <trkpt lat="42.39313" lon="0.04109">
        <ele>817.3</ele>
        <time>2016-07-24T09:39:43Z</time>
      </trkpt>
      <trkpt lat="42.39309" lon="0.04111">
        <ele>816.1</ele>
        <time>2016-07-24T09:39:44Z</time>
      </trkpt>
      <trkpt lat="42.39304" lon="0.04113">
        <ele>814.8</ele>
        <time>2016-07-24T09:39:45Z</time>
      </trkpt>
      <trkpt lat="42.39299" lon="0.04116">
        <ele>813.6</ele>
        <time>2016-07-24T09:39:46Z</time>
      </trkpt>
      <trkpt lat="42.39295" lon="0.04119">
        <ele>812.6</ele>
        <time>2016-07-24T09:39:47Z</time>
      </trkpt>
      <trkpt lat="42.39292" lon="0.04123">
        <ele>811.9</ele>
        <time>2016-07-24T09:39:48Z</time>
      </trkpt>
      <trkpt lat="42.39289" lon="0.04127">
        <ele>811.8</ele>
        <time>2016-07-24T09:39:49Z</time>
      </trkpt>
      <trkpt lat="42.39287" lon="0.04132">
        <ele>812.5</ele>
        <time>2016-07-24T09:39:50Z</time>
      </trkpt>
      <trkpt lat="42.39287" lon="0.04136">
        <ele>813.2</ele>
        <time>2016-07-24T09:39:51Z</time>
      </trkpt>
      <trkpt lat="42.39286" lon="0.0414">
        <ele>814.1</ele>
        <time>2016-07-24T09:39:52Z</time>
      </trkpt>
      <trkpt lat="42.39286" lon="0.04144">
        <ele>815.1</ele>
        <time>2016-07-24T09:39:53Z</time>
      </trkpt>
      <trkpt lat="42.39287" lon="0.0415">
        <ele>816.6</ele>
        <time>2016-07-24T09:39:55Z</time>
      </trkpt>
      <trkpt lat="42.39288" lon="0.04154">
        <ele>817.8</ele>
        <time>2016-07-24T09:39:57Z</time>
      </trkpt>
      <trkpt lat="42.39288" lon="0.04159">
        <ele>819.1</ele>
        <time>2016-07-24T09:39:59Z</time>
      </trkpt>
      <trkpt lat="42.39288" lon="0.04164">
        <ele>820.3</ele>
        <time>2016-07-24T09:40:01Z</time>
      </trkpt>
      <trkpt lat="42.39287" lon="0.0417">
        <ele>821.4</ele>
        <time>2016-07-24T09:40:03Z</time>
      </trkpt>
      <trkpt lat="42.39287" lon="0.04175">
        <ele>822.4</ele>
        <time>2016-07-24T09:40:05Z</time>
      </trkpt>
      <trkpt lat="42.39286" lon="0.04179">
        <ele>823.1</ele>
        <time>2016-07-24T09:40:07Z</time>
      </trkpt>
      <trkpt lat="42.39285" lon="0.04184">
        <ele>824.1</ele>
        <time>2016-07-24T09:40:09Z</time>
      </trkpt>
      <trkpt lat="42.39284" lon="0.04189">
        <ele>824.8</ele>
        <time>2016-07-24T09:40:11Z</time>
      </trkpt>
      <trkpt lat="42.39281" lon="0.04194">
        <ele>825.2</ele>
        <time>2016-07-24T09:40:14Z</time>
      </trkpt>
      <trkpt lat="42.39279" lon="0.04197">
        <ele>825.3</ele>
        <time>2016-07-24T09:40:16Z</time>
      </trkpt>
      <trkpt lat="42.39279" lon="0.04202">
        <ele>826.2</ele>
        <time>2016-07-24T09:40:21Z</time>
      </trkpt>
      <trkpt lat="42.39278" lon="0.04205">
        <ele>826.8</ele>
        <time>2016-07-24T09:40:26Z</time>
      </trkpt>
      <trkpt lat="42.39277" lon="0.04209">
        <ele>827.3</ele>
        <time>2016-07-24T09:40:31Z</time>
      </trkpt>
      <trkpt lat="42.39277" lon="0.04213">
        <ele>827.4</ele>
        <time>2016-07-24T09:40:35Z</time>
      </trkpt>
      <trkpt lat="42.39279" lon="0.04216">
        <ele>828.2</ele>
        <time>2016-07-24T09:40:39Z</time>
      </trkpt>
      <trkpt lat="42.39283" lon="0.04219">
        <ele>829.9</ele>
        <time>2016-07-24T09:41:34Z</time>
      </trkpt>
      <trkpt lat="42.39285" lon="0.04222">
        <ele>830.7</ele>
        <time>2016-07-24T09:41:36Z</time>
      </trkpt>
      <trkpt lat="42.39287" lon="0.04226">
        <ele>831.4</ele>
        <time>2016-07-24T09:41:38Z</time>
      </trkpt>
      <trkpt lat="42.39285" lon="0.04231">
        <ele>831.2</ele>
        <time>2016-07-24T09:41:40Z</time>
      </trkpt>
      <trkpt lat="42.39281" lon="0.04234">
        <ele>830.2</ele>
        <time>2016-07-24T09:41:42Z</time>
      </trkpt>
      <trkpt lat="42.39279" lon="0.04235">
        <ele>829.5</ele>
        <time>2016-07-24T09:41:43Z</time>
      </trkpt>
      <trkpt lat="42.39276" lon="0.04236">
        <ele>828.6</ele>
        <time>2016-07-24T09:41:44Z</time>
      </trkpt>
      <trkpt lat="42.39273" lon="0.04236">
        <ele>827.7</ele>
        <time>2016-07-24T09:41:45Z</time>
      </trkpt>
      <trkpt lat="42.3927" lon="0.04239">
        <ele>826.7</ele>
        <time>2016-07-24T09:41:47Z</time>
      </trkpt>
      <trkpt lat="42.39268" lon="0.04243">
        <ele>826.4</ele>
        <time>2016-07-24T09:41:49Z</time>
      </trkpt>
      <trkpt lat="42.39264" lon="0.04247">
        <ele>825.5</ele>
        <time>2016-07-24T09:41:51Z</time>
      </trkpt>
      <trkpt lat="42.39261" lon="0.0425">
        <ele>824.6</ele>
        <time>2016-07-24T09:41:53Z</time>
      </trkpt>
      <trkpt lat="42.39256" lon="0.04255">
        <ele>823.6</ele>
        <time>2016-07-24T09:41:55Z</time>
      </trkpt>
      <trkpt lat="42.39254" lon="0.04258">
        <ele>823</ele>
        <time>2016-07-24T09:41:56Z</time>
      </trkpt>
      <trkpt lat="42.39251" lon="0.04261">
        <ele>822.4</ele>
        <time>2016-07-24T09:41:57Z</time>
      </trkpt>
      <trkpt lat="42.39249" lon="0.04264">
        <ele>821.8</ele>
        <time>2016-07-24T09:41:58Z</time>
      </trkpt>
      <trkpt lat="42.39247" lon="0.04267">
        <ele>821.3</ele>
        <time>2016-07-24T09:41:59Z</time>
      </trkpt>
      <trkpt lat="42.39245" lon="0.04273">
        <ele>821.2</ele>
        <time>2016-07-24T09:42:01Z</time>
      </trkpt>
      <trkpt lat="42.39245" lon="0.04277">
        <ele>821.6</ele>
        <time>2016-07-24T09:42:02Z</time>
      </trkpt>
      <trkpt lat="42.39246" lon="0.04281">
        <ele>822.1</ele>
        <time>2016-07-24T09:42:03Z</time>
      </trkpt>
      <trkpt lat="42.39248" lon="0.04284">
        <ele>822.7</ele>
        <time>2016-07-24T09:42:04Z</time>
      </trkpt>
      <trkpt lat="42.39249" lon="0.04288">
        <ele>823.4</ele>
        <time>2016-07-24T09:42:05Z</time>
      </trkpt>
      <trkpt lat="42.39249" lon="0.04294">
        <ele>823.4</ele>
        <time>2016-07-24T09:42:07Z</time>
      </trkpt>
      <trkpt lat="42.39247" lon="0.04298">
        <ele>822.5</ele>
        <time>2016-07-24T09:42:08Z</time>
      </trkpt>
      <trkpt lat="42.39244" lon="0.043">
        <ele>821.3</ele>
        <time>2016-07-24T09:42:09Z</time>
      </trkpt>
      <trkpt lat="42.3924" lon="0.04303">
        <ele>820.2</ele>
        <time>2016-07-24T09:42:10Z</time>
      </trkpt>
      <trkpt lat="42.39238" lon="0.04305">
        <ele>819.2</ele>
        <time>2016-07-24T09:42:11Z</time>
      </trkpt>
      <trkpt lat="42.39235" lon="0.04308">
        <ele>818.4</ele>
        <time>2016-07-24T09:42:12Z</time>
      </trkpt>
      <trkpt lat="42.39233" lon="0.04312">
        <ele>817.6</ele>
        <time>2016-07-24T09:42:13Z</time>
      </trkpt>
      <trkpt lat="42.39232" lon="0.04316">
        <ele>816.9</ele>
        <time>2016-07-24T09:42:14Z</time>
      </trkpt>
      <trkpt lat="42.3923" lon="0.04319">
        <ele>816.3</ele>
        <time>2016-07-24T09:42:15Z</time>
      </trkpt>
      <trkpt lat="42.39228" lon="0.04322">
        <ele>815.5</ele>
        <time>2016-07-24T09:42:17Z</time>
      </trkpt>
      <trkpt lat="42.39225" lon="0.04327">
        <ele>814.4</ele>
        <time>2016-07-24T09:42:19Z</time>
      </trkpt>
      <trkpt lat="42.39221" lon="0.0433">
        <ele>813.4</ele>
        <time>2016-07-24T09:42:21Z</time>
      </trkpt>
      <trkpt lat="42.39218" lon="0.04331">
        <ele>812.4</ele>
        <time>2016-07-24T09:42:24Z</time>
      </trkpt>
      <trkpt lat="42.39214" lon="0.04333">
        <ele>811.5</ele>
        <time>2016-07-24T09:42:26Z</time>
      </trkpt>
      <trkpt lat="42.39212" lon="0.04335">
        <ele>810.8</ele>
        <time>2016-07-24T09:42:28Z</time>
      </trkpt>
      <trkpt lat="42.39209" lon="0.04337">
        <ele>810.1</ele>
        <time>2016-07-24T09:42:30Z</time>
      </trkpt>
      <trkpt lat="42.39205" lon="0.04339">
        <ele>808.7</ele>
        <time>2016-07-24T09:42:32Z</time>
      </trkpt>
      <trkpt lat="42.39201" lon="0.04341">
        <ele>807.1</ele>
        <time>2016-07-24T09:42:34Z</time>
      </trkpt>
      <trkpt lat="42.39197" lon="0.04342">
        <ele>805.3</ele>
        <time>2016-07-24T09:42:36Z</time>
      </trkpt>
      <trkpt lat="42.39192" lon="0.04341">
        <ele>803.4</ele>
        <time>2016-07-24T09:42:38Z</time>
      </trkpt>
      <trkpt lat="42.39189" lon="0.04341">
        <ele>802.4</ele>
        <time>2016-07-24T09:42:39Z</time>
      </trkpt>
      <trkpt lat="42.39185" lon="0.0434">
        <ele>800.8</ele>
        <time>2016-07-24T09:42:41Z</time>
      </trkpt>
      <trkpt lat="42.3918" lon="0.0434">
        <ele>799.1</ele>
        <time>2016-07-24T09:42:43Z</time>
      </trkpt>
      <trkpt lat="42.39178" lon="0.04342">
        <ele>797.9</ele>
        <time>2016-07-24T09:42:44Z</time>
      </trkpt>
      <trkpt lat="42.39175" lon="0.04344">
        <ele>796.8</ele>
        <time>2016-07-24T09:42:45Z</time>
      </trkpt>
      <trkpt lat="42.39172" lon="0.04346">
        <ele>795.6</ele>
        <time>2016-07-24T09:42:46Z</time>
      </trkpt>
      <trkpt lat="42.39169" lon="0.04349">
        <ele>794.3</ele>
        <time>2016-07-24T09:42:47Z</time>
      </trkpt>
      <trkpt lat="42.39166" lon="0.04351">
        <ele>793.1</ele>
        <time>2016-07-24T09:42:48Z</time>
      </trkpt>
      <trkpt lat="42.39163" lon="0.04353">
        <ele>791.8</ele>
        <time>2016-07-24T09:42:49Z</time>
      </trkpt>
      <trkpt lat="42.39159" lon="0.04356">
        <ele>790.2</ele>
        <time>2016-07-24T09:42:50Z</time>
      </trkpt>
      <trkpt lat="42.39156" lon="0.04358">
        <ele>788.9</ele>
        <time>2016-07-24T09:42:51Z</time>
      </trkpt>
      <trkpt lat="42.39153" lon="0.04361">
        <ele>787.5</ele>
        <time>2016-07-24T09:42:52Z</time>
      </trkpt>
      <trkpt lat="42.39149" lon="0.04364">
        <ele>786.1</ele>
        <time>2016-07-24T09:42:53Z</time>
      </trkpt>
      <trkpt lat="42.39146" lon="0.04368">
        <ele>784.5</ele>
        <time>2016-07-24T09:42:54Z</time>
      </trkpt>
      <trkpt lat="42.39143" lon="0.04372">
        <ele>783.2</ele>
        <time>2016-07-24T09:42:55Z</time>
      </trkpt>
      <trkpt lat="42.3914" lon="0.04378">
        <ele>782</ele>
        <time>2016-07-24T09:42:56Z</time>
      </trkpt>
      <trkpt lat="42.39137" lon="0.04384">
        <ele>780.9</ele>
        <time>2016-07-24T09:42:57Z</time>
      </trkpt>
      <trkpt lat="42.39134" lon="0.0439">
        <ele>779.6</ele>
        <time>2016-07-24T09:42:58Z</time>
      </trkpt>
      <trkpt lat="42.3913" lon="0.04395">
        <ele>778.2</ele>
        <time>2016-07-24T09:42:59Z</time>
      </trkpt>
      <trkpt lat="42.39126" lon="0.04399">
        <ele>777</ele>
        <time>2016-07-24T09:43:00Z</time>
      </trkpt>
      <trkpt lat="42.39123" lon="0.04403">
        <ele>775.9</ele>
        <time>2016-07-24T09:43:01Z</time>
      </trkpt>
      <trkpt lat="42.39122" lon="0.04408">
        <ele>775.3</ele>
        <time>2016-07-24T09:43:03Z</time>
      </trkpt>
      <trkpt lat="42.39123" lon="0.04413">
        <ele>776.2</ele>
        <time>2016-07-24T09:43:05Z</time>
      </trkpt>
      <trkpt lat="42.39126" lon="0.04419">
        <ele>777.4</ele>
        <time>2016-07-24T09:43:07Z</time>
      </trkpt>
      <trkpt lat="42.39127" lon="0.04423">
        <ele>777.7</ele>
        <time>2016-07-24T09:43:09Z</time>
      </trkpt>
      <trkpt lat="42.39123" lon="0.04424">
        <ele>776.3</ele>
        <time>2016-07-24T09:43:11Z</time>
      </trkpt>
      <trkpt lat="42.39118" lon="0.04423">
        <ele>774.2</ele>
        <time>2016-07-24T09:43:13Z</time>
      </trkpt>
      <trkpt lat="42.39115" lon="0.04422">
        <ele>772.9</ele>
        <time>2016-07-24T09:43:14Z</time>
      </trkpt>
      <trkpt lat="42.39112" lon="0.04422">
        <ele>771.7</ele>
        <time>2016-07-24T09:43:15Z</time>
      </trkpt>
      <trkpt lat="42.39107" lon="0.04422">
        <ele>769.5</ele>
        <time>2016-07-24T09:43:17Z</time>
      </trkpt>
      <trkpt lat="42.39105" lon="0.04425">
        <ele>768.5</ele>
        <time>2016-07-24T09:43:20Z</time>
      </trkpt>
      <trkpt lat="42.39105" lon="0.04431">
        <ele>768.9</ele>
        <time>2016-07-24T09:43:22Z</time>
      </trkpt>
      <trkpt lat="42.39106" lon="0.04438">
        <ele>769.5</ele>
        <time>2016-07-24T09:43:24Z</time>
      </trkpt>
      <trkpt lat="42.39108" lon="0.04441">
        <ele>770.2</ele>
        <time>2016-07-24T09:43:26Z</time>
      </trkpt>
      <trkpt lat="42.39105" lon="0.04446">
        <ele>769.4</ele>
        <time>2016-07-24T09:43:28Z</time>
      </trkpt>
      <trkpt lat="42.39102" lon="0.04448">
        <ele>768.1</ele>
        <time>2016-07-24T09:43:29Z</time>
      </trkpt>
      <trkpt lat="42.39099" lon="0.04448">
        <ele>766.5</ele>
        <time>2016-07-24T09:43:30Z</time>
      </trkpt>
      <trkpt lat="42.39096" lon="0.04447">
        <ele>765.3</ele>
        <time>2016-07-24T09:43:31Z</time>
      </trkpt>
      <trkpt lat="42.39093" lon="0.04444">
        <ele>764.1</ele>
        <time>2016-07-24T09:43:33Z</time>
      </trkpt>
      <trkpt lat="42.39093" lon="0.0444">
        <ele>764</ele>
        <time>2016-07-24T09:43:37Z</time>
      </trkpt>
      <trkpt lat="42.39092" lon="0.04436">
        <ele>763.4</ele>
        <time>2016-07-24T09:43:42Z</time>
      </trkpt>
      <trkpt lat="42.39089" lon="0.04433">
        <ele>762.1</ele>
        <time>2016-07-24T09:43:44Z</time>
      </trkpt>
      <trkpt lat="42.39085" lon="0.0443">
        <ele>760.1</ele>
        <time>2016-07-24T09:43:46Z</time>
      </trkpt>
      <trkpt lat="42.39081" lon="0.04429">
        <ele>758.6</ele>
        <time>2016-07-24T09:43:48Z</time>
      </trkpt>
      <trkpt lat="42.39078" lon="0.04431">
        <ele>757.1</ele>
        <time>2016-07-24T09:43:50Z</time>
      </trkpt>
      <trkpt lat="42.39077" lon="0.04435">
        <ele>756.9</ele>
        <time>2016-07-24T09:43:51Z</time>
      </trkpt>
      <trkpt lat="42.39076" lon="0.04439">
        <ele>756.8</ele>
        <time>2016-07-24T09:43:52Z</time>
      </trkpt>
      <trkpt lat="42.39076" lon="0.04444">
        <ele>757</ele>
        <time>2016-07-24T09:43:53Z</time>
      </trkpt>
      <trkpt lat="42.39076" lon="0.04448">
        <ele>757.1</ele>
        <time>2016-07-24T09:43:54Z</time>
      </trkpt>
      <trkpt lat="42.39076" lon="0.04452">
        <ele>757.3</ele>
        <time>2016-07-24T09:43:55Z</time>
      </trkpt>
      <trkpt lat="42.39077" lon="0.04457">
        <ele>757.8</ele>
        <time>2016-07-24T09:43:57Z</time>
      </trkpt>
      <trkpt lat="42.39077" lon="0.04462">
        <ele>757.6</ele>
        <time>2016-07-24T09:43:59Z</time>
      </trkpt>
      <trkpt lat="42.39078" lon="0.04466">
        <ele>757.6</ele>
        <time>2016-07-24T09:44:01Z</time>
      </trkpt>
      <trkpt lat="42.39079" lon="0.0447">
        <ele>757.6</ele>
        <time>2016-07-24T09:44:06Z</time>
      </trkpt>
      <trkpt lat="42.39077" lon="0.04473">
        <ele>756.5</ele>
        <time>2016-07-24T09:44:08Z</time>
      </trkpt>
      <trkpt lat="42.39077" lon="0.04479">
        <ele>755.9</ele>
        <time>2016-07-24T09:44:10Z</time>
      </trkpt>
      <trkpt lat="42.39079" lon="0.04482">
        <ele>756.3</ele>
        <time>2016-07-24T09:44:11Z</time>
      </trkpt>
      <trkpt lat="42.39082" lon="0.04485">
        <ele>757.1</ele>
        <time>2016-07-24T09:44:12Z</time>
      </trkpt>
      <trkpt lat="42.39086" lon="0.04487">
        <ele>758.4</ele>
        <time>2016-07-24T09:44:13Z</time>
      </trkpt>
      <trkpt lat="42.3909" lon="0.0449">
        <ele>759.6</ele>
        <time>2016-07-24T09:44:14Z</time>
      </trkpt>
      <trkpt lat="42.39093" lon="0.04493">
        <ele>760.5</ele>
        <time>2016-07-24T09:44:15Z</time>
      </trkpt>
      <trkpt lat="42.39097" lon="0.04495">
        <ele>761.3</ele>
        <time>2016-07-24T09:44:16Z</time>
      </trkpt>
      <trkpt lat="42.391" lon="0.04498">
        <ele>762.1</ele>
        <time>2016-07-24T09:44:17Z</time>
      </trkpt>
      <trkpt lat="42.39104" lon="0.045">
        <ele>763.4</ele>
        <time>2016-07-24T09:44:18Z</time>
      </trkpt>
      <trkpt lat="42.39109" lon="0.045">
        <ele>765</ele>
        <time>2016-07-24T09:44:19Z</time>
      </trkpt>
      <trkpt lat="42.39113" lon="0.045">
        <ele>766.5</ele>
        <time>2016-07-24T09:44:20Z</time>
      </trkpt>
      <trkpt lat="42.39117" lon="0.045">
        <ele>767.6</ele>
        <time>2016-07-24T09:44:21Z</time>
      </trkpt>
      <trkpt lat="42.3912" lon="0.04501">
        <ele>768.5</ele>
        <time>2016-07-24T09:44:23Z</time>
      </trkpt>
      <trkpt lat="42.39117" lon="0.04503">
        <ele>767.3</ele>
        <time>2016-07-24T09:44:25Z</time>
      </trkpt>
      <trkpt lat="42.39114" lon="0.04504">
        <ele>766.1</ele>
        <time>2016-07-24T09:44:26Z</time>
      </trkpt>
      <trkpt lat="42.39111" lon="0.04504">
        <ele>765.1</ele>
        <time>2016-07-24T09:44:27Z</time>
      </trkpt>
      <trkpt lat="42.39108" lon="0.04505">
        <ele>764.1</ele>
        <time>2016-07-24T09:44:28Z</time>
      </trkpt>
      <trkpt lat="42.39105" lon="0.04506">
        <ele>762.8</ele>
        <time>2016-07-24T09:44:29Z</time>
      </trkpt>
      <trkpt lat="42.39101" lon="0.04506">
        <ele>761.5</ele>
        <time>2016-07-24T09:44:30Z</time>
      </trkpt>
      <trkpt lat="42.39097" lon="0.04507">
        <ele>760.2</ele>
        <time>2016-07-24T09:44:31Z</time>
      </trkpt>
      <trkpt lat="42.39094" lon="0.04507">
        <ele>759.1</ele>
        <time>2016-07-24T09:44:32Z</time>
      </trkpt>
      <trkpt lat="42.39091" lon="0.04508">
        <ele>758.1</ele>
        <time>2016-07-24T09:44:33Z</time>
      </trkpt>
      <trkpt lat="42.39089" lon="0.04509">
        <ele>757</ele>
        <time>2016-07-24T09:44:34Z</time>
      </trkpt>
      <trkpt lat="42.39084" lon="0.04512">
        <ele>755.1</ele>
        <time>2016-07-24T09:44:36Z</time>
      </trkpt>
      <trkpt lat="42.39079" lon="0.04514">
        <ele>753.4</ele>
        <time>2016-07-24T09:44:38Z</time>
      </trkpt>
      <trkpt lat="42.39076" lon="0.04515">
        <ele>752.4</ele>
        <time>2016-07-24T09:44:39Z</time>
      </trkpt>
      <trkpt lat="42.39072" lon="0.04516">
        <ele>751.1</ele>
        <time>2016-07-24T09:44:40Z</time>
      </trkpt>
      <trkpt lat="42.39069" lon="0.04516">
        <ele>750</ele>
        <time>2016-07-24T09:44:41Z</time>
      </trkpt>
      <trkpt lat="42.39064" lon="0.04516">
        <ele>748.7</ele>
        <time>2016-07-24T09:44:42Z</time>
      </trkpt>
      <trkpt lat="42.39061" lon="0.04516">
        <ele>747.7</ele>
        <time>2016-07-24T09:44:43Z</time>
      </trkpt>
      <trkpt lat="42.39059" lon="0.04516">
        <ele>746.9</ele>
        <time>2016-07-24T09:44:44Z</time>
      </trkpt>
      <trkpt lat="42.39053" lon="0.04516">
        <ele>745.2</ele>
        <time>2016-07-24T09:44:46Z</time>
      </trkpt>
      <trkpt lat="42.39049" lon="0.04514">
        <ele>743.9</ele>
        <time>2016-07-24T09:44:48Z</time>
      </trkpt>
      <trkpt lat="42.39044" lon="0.04512">
        <ele>742.3</ele>
        <time>2016-07-24T09:44:50Z</time>
      </trkpt>
      <trkpt lat="42.39041" lon="0.04509">
        <ele>741.7</ele>
        <time>2016-07-24T09:44:51Z</time>
      </trkpt>
      <trkpt lat="42.3904" lon="0.04505">
        <ele>741.1</ele>
        <time>2016-07-24T09:44:52Z</time>
      </trkpt>
      <trkpt lat="42.39038" lon="0.04501">
        <ele>740.3</ele>
        <time>2016-07-24T09:44:53Z</time>
      </trkpt>
      <trkpt lat="42.39035" lon="0.04498">
        <ele>739.3</ele>
        <time>2016-07-24T09:44:54Z</time>
      </trkpt>
      <trkpt lat="42.39033" lon="0.04495">
        <ele>738.4</ele>
        <time>2016-07-24T09:44:55Z</time>
      </trkpt>
      <trkpt lat="42.39029" lon="0.04493">
        <ele>737.2</ele>
        <time>2016-07-24T09:44:57Z</time>
      </trkpt>
      <trkpt lat="42.39026" lon="0.04489">
        <ele>736.1</ele>
        <time>2016-07-24T09:44:59Z</time>
      </trkpt>
      <trkpt lat="42.39023" lon="0.04486">
        <ele>734.7</ele>
        <time>2016-07-24T09:45:01Z</time>
      </trkpt>
      <trkpt lat="42.3902" lon="0.04488">
        <ele>733.6</ele>
        <time>2016-07-24T09:45:03Z</time>
      </trkpt>
      <trkpt lat="42.3902" lon="0.04495">
        <ele>733.5</ele>
        <time>2016-07-24T09:45:05Z</time>
      </trkpt>
      <trkpt lat="42.39021" lon="0.045">
        <ele>733.8</ele>
        <time>2016-07-24T09:45:06Z</time>
      </trkpt>
      <trkpt lat="42.39022" lon="0.04505">
        <ele>734</ele>
        <time>2016-07-24T09:45:07Z</time>
      </trkpt>
      <trkpt lat="42.39022" lon="0.04511">
        <ele>734</ele>
        <time>2016-07-24T09:45:08Z</time>
      </trkpt>
      <trkpt lat="42.39022" lon="0.04516">
        <ele>733.6</ele>
        <time>2016-07-24T09:45:09Z</time>
      </trkpt>
      <trkpt lat="42.39021" lon="0.04519">
        <ele>733.1</ele>
        <time>2016-07-24T09:45:10Z</time>
      </trkpt>
      <trkpt lat="42.39018" lon="0.04525">
        <ele>731.9</ele>
        <time>2016-07-24T09:45:12Z</time>
      </trkpt>
      <trkpt lat="42.39018" lon="0.04531">
        <ele>731.7</ele>
        <time>2016-07-24T09:45:14Z</time>
      </trkpt>
      <trkpt lat="42.3902" lon="0.04533">
        <ele>732.3</ele>
        <time>2016-07-24T09:45:15Z</time>
      </trkpt>
      <trkpt lat="42.39022" lon="0.04537">
        <ele>733.1</ele>
        <time>2016-07-24T09:45:16Z</time>
      </trkpt>
      <trkpt lat="42.39024" lon="0.04541">
        <ele>733.6</ele>
        <time>2016-07-24T09:45:17Z</time>
      </trkpt>
      <trkpt lat="42.39024" lon="0.04547">
        <ele>733.3</ele>
        <time>2016-07-24T09:45:18Z</time>
      </trkpt>
      <trkpt lat="42.39024" lon="0.04552">
        <ele>732.5</ele>
        <time>2016-07-24T09:45:19Z</time>
      </trkpt>
      <trkpt lat="42.39023" lon="0.04556">
        <ele>731.9</ele>
        <time>2016-07-24T09:45:20Z</time>
      </trkpt>
      <trkpt lat="42.39024" lon="0.04563">
        <ele>731.6</ele>
        <time>2016-07-24T09:45:22Z</time>
      </trkpt>
      <trkpt lat="42.39027" lon="0.04569">
        <ele>731.9</ele>
        <time>2016-07-24T09:45:24Z</time>
      </trkpt>
      <trkpt lat="42.39028" lon="0.04575">
        <ele>731.5</ele>
        <time>2016-07-24T09:45:26Z</time>
      </trkpt>
      <trkpt lat="42.39028" lon="0.04579">
        <ele>731.1</ele>
        <time>2016-07-24T09:45:27Z</time>
      </trkpt>
      <trkpt lat="42.39028" lon="0.04583">
        <ele>730.8</ele>
        <time>2016-07-24T09:45:28Z</time>
      </trkpt>
      <trkpt lat="42.39029" lon="0.04587">
        <ele>730.6</ele>
        <time>2016-07-24T09:45:29Z</time>
      </trkpt>
      <trkpt lat="42.3903" lon="0.0459">
        <ele>730.7</ele>
        <time>2016-07-24T09:45:30Z</time>
      </trkpt>
      <trkpt lat="42.39032" lon="0.04594">
        <ele>730.9</ele>
        <time>2016-07-24T09:45:31Z</time>
      </trkpt>
      <trkpt lat="42.39034" lon="0.04598">
        <ele>731.2</ele>
        <time>2016-07-24T09:45:32Z</time>
      </trkpt>
      <trkpt lat="42.39037" lon="0.04601">
        <ele>731.6</ele>
        <time>2016-07-24T09:45:33Z</time>
      </trkpt>
      <trkpt lat="42.39036" lon="0.04605">
        <ele>730.8</ele>
        <time>2016-07-24T09:45:36Z</time>
      </trkpt>
      <trkpt lat="42.39032" lon="0.04606">
        <ele>729.5</ele>
        <time>2016-07-24T09:45:38Z</time>
      </trkpt>
      <trkpt lat="42.39029" lon="0.04611">
        <ele>728</ele>
        <time>2016-07-24T09:45:40Z</time>
      </trkpt>
      <trkpt lat="42.39027" lon="0.04614">
        <ele>727</ele>
        <time>2016-07-24T09:45:41Z</time>
      </trkpt>
      <trkpt lat="42.39024" lon="0.04615">
        <ele>725.9</ele>
        <time>2016-07-24T09:45:42Z</time>
      </trkpt>
      <trkpt lat="42.39021" lon="0.04615">
        <ele>725</ele>
        <time>2016-07-24T09:45:43Z</time>
      </trkpt>
      <trkpt lat="42.39017" lon="0.04613">
        <ele>724.2</ele>
        <time>2016-07-24T09:45:44Z</time>
      </trkpt>
      <trkpt lat="42.39014" lon="0.0461">
        <ele>723.2</ele>
        <time>2016-07-24T09:45:45Z</time>
      </trkpt>
      <trkpt lat="42.3901" lon="0.04607">
        <ele>722.4</ele>
        <time>2016-07-24T09:45:46Z</time>
      </trkpt>
      <trkpt lat="42.39006" lon="0.04604">
        <ele>721.6</ele>
        <time>2016-07-24T09:45:47Z</time>
      </trkpt>
      <trkpt lat="42.38999" lon="0.04602">
        <ele>719.4</ele>
        <time>2016-07-24T09:45:49Z</time>
      </trkpt>
      <trkpt lat="42.38996" lon="0.04601">
        <ele>718.5</ele>
        <time>2016-07-24T09:45:50Z</time>
      </trkpt>
      <trkpt lat="42.38993" lon="0.046">
        <ele>717.4</ele>
        <time>2016-07-24T09:45:51Z</time>
      </trkpt>
      <trkpt lat="42.38989" lon="0.04599">
        <ele>716.3</ele>
        <time>2016-07-24T09:45:52Z</time>
      </trkpt>
      <trkpt lat="42.38985" lon="0.04597">
        <ele>715.2</ele>
        <time>2016-07-24T09:45:53Z</time>
      </trkpt>
      <trkpt lat="42.38982" lon="0.04595">
        <ele>714.1</ele>
        <time>2016-07-24T09:45:54Z</time>
      </trkpt>
      <trkpt lat="42.38978" lon="0.04593">
        <ele>713</ele>
        <time>2016-07-24T09:45:55Z</time>
      </trkpt>
      <trkpt lat="42.38975" lon="0.04593">
        <ele>711.9</ele>
        <time>2016-07-24T09:45:56Z</time>
      </trkpt>
      <trkpt lat="42.38972" lon="0.04595">
        <ele>710.9</ele>
        <time>2016-07-24T09:45:57Z</time>
      </trkpt>
      <trkpt lat="42.3897" lon="0.04598">
        <ele>710</ele>
        <time>2016-07-24T09:45:58Z</time>
      </trkpt>
      <trkpt lat="42.38968" lon="0.04603">
        <ele>709.3</ele>
        <time>2016-07-24T09:45:59Z</time>
      </trkpt>
      <trkpt lat="42.38966" lon="0.04607">
        <ele>708.7</ele>
        <time>2016-07-24T09:46:00Z</time>
      </trkpt>
      <trkpt lat="42.38963" lon="0.04612">
        <ele>707.4</ele>
        <time>2016-07-24T09:46:02Z</time>
      </trkpt>
      <trkpt lat="42.38959" lon="0.04616">
        <ele>706.3</ele>
        <time>2016-07-24T09:46:04Z</time>
      </trkpt>
      <trkpt lat="42.38958" lon="0.04619">
        <ele>706.1</ele>
        <time>2016-07-24T09:46:05Z</time>
      </trkpt>
      <trkpt lat="42.38957" lon="0.04624">
        <ele>706</ele>
        <time>2016-07-24T09:46:06Z</time>
      </trkpt>
      <trkpt lat="42.38957" lon="0.04628">
        <ele>705.9</ele>
        <time>2016-07-24T09:46:07Z</time>
      </trkpt>
      <trkpt lat="42.38957" lon="0.04634">
        <ele>705.7</ele>
        <time>2016-07-24T09:46:08Z</time>
      </trkpt>
      <trkpt lat="42.38958" lon="0.0464">
        <ele>705.4</ele>
        <time>2016-07-24T09:46:09Z</time>
      </trkpt>
      <trkpt lat="42.38957" lon="0.04647">
        <ele>705.2</ele>
        <time>2016-07-24T09:46:10Z</time>
      </trkpt>
      <trkpt lat="42.38955" lon="0.04653">
        <ele>704.9</ele>
        <time>2016-07-24T09:46:11Z</time>
      </trkpt>
      <trkpt lat="42.38954" lon="0.04657">
        <ele>704.6</ele>
        <time>2016-07-24T09:46:12Z</time>
      </trkpt>
      <trkpt lat="42.38952" lon="0.04662">
        <ele>704.3</ele>
        <time>2016-07-24T09:46:13Z</time>
      </trkpt>
      <trkpt lat="42.38952" lon="0.04666">
        <ele>704.1</ele>
        <time>2016-07-24T09:46:14Z</time>
      </trkpt>
      <trkpt lat="42.38953" lon="0.04671">
        <ele>703.9</ele>
        <time>2016-07-24T09:46:15Z</time>
      </trkpt>
      <trkpt lat="42.38953" lon="0.04676">
        <ele>703.7</ele>
        <time>2016-07-24T09:46:16Z</time>
      </trkpt>
      <trkpt lat="42.38954" lon="0.04681">
        <ele>703.6</ele>
        <time>2016-07-24T09:46:17Z</time>
      </trkpt>
      <trkpt lat="42.38953" lon="0.04686">
        <ele>703.2</ele>
        <time>2016-07-24T09:46:18Z</time>
      </trkpt>
      <trkpt lat="42.38951" lon="0.04691">
        <ele>702.8</ele>
        <time>2016-07-24T09:46:19Z</time>
      </trkpt>
      <trkpt lat="42.38949" lon="0.04695">
        <ele>702.4</ele>
        <time>2016-07-24T09:46:20Z</time>
      </trkpt>
      <trkpt lat="42.38946" lon="0.04699">
        <ele>701.8</ele>
        <time>2016-07-24T09:46:21Z</time>
      </trkpt>
      <trkpt lat="42.38943" lon="0.04702">
        <ele>701.1</ele>
        <time>2016-07-24T09:46:22Z</time>
      </trkpt>
      <trkpt lat="42.3894" lon="0.04706">
        <ele>700.6</ele>
        <time>2016-07-24T09:46:23Z</time>
      </trkpt>
      <trkpt lat="42.38938" lon="0.04709">
        <ele>700.1</ele>
        <time>2016-07-24T09:46:24Z</time>
      </trkpt>
      <trkpt lat="42.38937" lon="0.04713">
        <ele>699.8</ele>
        <time>2016-07-24T09:46:25Z</time>
      </trkpt>
      <trkpt lat="42.38936" lon="0.04718">
        <ele>699.6</ele>
        <time>2016-07-24T09:46:26Z</time>
      </trkpt>
      <trkpt lat="42.38936" lon="0.04722">
        <ele>699.4</ele>
        <time>2016-07-24T09:46:27Z</time>
      </trkpt>
      <trkpt lat="42.38936" lon="0.04727">
        <ele>699.2</ele>
        <time>2016-07-24T09:46:28Z</time>
      </trkpt>
      <trkpt lat="42.38935" lon="0.04733">
        <ele>698.9</ele>
        <time>2016-07-24T09:46:29Z</time>
      </trkpt>
      <trkpt lat="42.38934" lon="0.04737">
        <ele>698.7</ele>
        <time>2016-07-24T09:46:30Z</time>
      </trkpt>
      <trkpt lat="42.38933" lon="0.04742">
        <ele>698.4</ele>
        <time>2016-07-24T09:46:31Z</time>
      </trkpt>
      <trkpt lat="42.38932" lon="0.04746">
        <ele>698.1</ele>
        <time>2016-07-24T09:46:32Z</time>
      </trkpt>
      <trkpt lat="42.3893" lon="0.0475">
        <ele>697.8</ele>
        <time>2016-07-24T09:46:33Z</time>
      </trkpt>
      <trkpt lat="42.38929" lon="0.04753">
        <ele>697.6</ele>
        <time>2016-07-24T09:46:34Z</time>
      </trkpt>
      <trkpt lat="42.38928" lon="0.04757">
        <ele>697.3</ele>
        <time>2016-07-24T09:46:35Z</time>
      </trkpt>
      <trkpt lat="42.38927" lon="0.04761">
        <ele>697</ele>
        <time>2016-07-24T09:46:36Z</time>
      </trkpt>
      <trkpt lat="42.38926" lon="0.04766">
        <ele>696.7</ele>
        <time>2016-07-24T09:46:37Z</time>
      </trkpt>
      <trkpt lat="42.38925" lon="0.04771">
        <ele>696.6</ele>
        <time>2016-07-24T09:46:38Z</time>
      </trkpt>
      <trkpt lat="42.38926" lon="0.04776">
        <ele>696.5</ele>
        <time>2016-07-24T09:46:39Z</time>
      </trkpt>
      <trkpt lat="42.38927" lon="0.04781">
        <ele>696.5</ele>
        <time>2016-07-24T09:46:40Z</time>
      </trkpt>
      <trkpt lat="42.38928" lon="0.04784">
        <ele>696.6</ele>
        <time>2016-07-24T09:46:41Z</time>
      </trkpt>
      <trkpt lat="42.3893" lon="0.04787">
        <ele>696.7</ele>
        <time>2016-07-24T09:46:42Z</time>
      </trkpt>
      <trkpt lat="42.38931" lon="0.04791">
        <ele>696.7</ele>
        <time>2016-07-24T09:46:43Z</time>
      </trkpt>
      <trkpt lat="42.38932" lon="0.04796">
        <ele>696.6</ele>
        <time>2016-07-24T09:46:44Z</time>
      </trkpt>
      <trkpt lat="42.38933" lon="0.048">
        <ele>696.3</ele>
        <time>2016-07-24T09:46:45Z</time>
      </trkpt>
      <trkpt lat="42.38933" lon="0.04804">
        <ele>696</ele>
        <time>2016-07-24T09:46:46Z</time>
      </trkpt>
      <trkpt lat="42.38932" lon="0.04808">
        <ele>695.7</ele>
        <time>2016-07-24T09:46:47Z</time>
      </trkpt>
      <trkpt lat="42.38931" lon="0.04815">
        <ele>695.1</ele>
        <time>2016-07-24T09:46:49Z</time>
      </trkpt>
      <trkpt lat="42.38931" lon="0.04819">
        <ele>694.8</ele>
        <time>2016-07-24T09:46:50Z</time>
      </trkpt>
      <trkpt lat="42.38931" lon="0.04824">
        <ele>694.5</ele>
        <time>2016-07-24T09:46:51Z</time>
      </trkpt>
      <trkpt lat="42.38931" lon="0.04829">
        <ele>694.2</ele>
        <time>2016-07-24T09:46:52Z</time>
      </trkpt>
      <trkpt lat="42.38931" lon="0.04833">
        <ele>693.9</ele>
        <time>2016-07-24T09:46:53Z</time>
      </trkpt>
      <trkpt lat="42.38931" lon="0.04837">
        <ele>693.6</ele>
        <time>2016-07-24T09:46:54Z</time>
      </trkpt>
      <trkpt lat="42.3893" lon="0.04841">
        <ele>693.2</ele>
        <time>2016-07-24T09:46:55Z</time>
      </trkpt>
      <trkpt lat="42.38928" lon="0.04845">
        <ele>692.8</ele>
        <time>2016-07-24T09:46:56Z</time>
      </trkpt>
      <trkpt lat="42.38927" lon="0.0485">
        <ele>692.3</ele>
        <time>2016-07-24T09:46:57Z</time>
      </trkpt>
      <trkpt lat="42.38926" lon="0.04855">
        <ele>691.9</ele>
        <time>2016-07-24T09:46:58Z</time>
      </trkpt>
      <trkpt lat="42.38925" lon="0.04859">
        <ele>691.5</ele>
        <time>2016-07-24T09:46:59Z</time>
      </trkpt>
      <trkpt lat="42.38923" lon="0.04863">
        <ele>691</ele>
        <time>2016-07-24T09:47:00Z</time>
      </trkpt>
      <trkpt lat="42.3892" lon="0.04868">
        <ele>690.3</ele>
        <time>2016-07-24T09:47:02Z</time>
      </trkpt>
      <trkpt lat="42.38919" lon="0.04872">
        <ele>690</ele>
        <time>2016-07-24T09:47:03Z</time>
      </trkpt>
      <trkpt lat="42.38919" lon="0.04876">
        <ele>689.7</ele>
        <time>2016-07-24T09:47:04Z</time>
      </trkpt>
      <trkpt lat="42.38918" lon="0.0488">
        <ele>689.2</ele>
        <time>2016-07-24T09:47:05Z</time>
      </trkpt>
      <trkpt lat="42.38917" lon="0.04884">
        <ele>688.6</ele>
        <time>2016-07-24T09:47:06Z</time>
      </trkpt>
      <trkpt lat="42.38915" lon="0.04888">
        <ele>688</ele>
        <time>2016-07-24T09:47:07Z</time>
      </trkpt>
      <trkpt lat="42.38914" lon="0.04892">
        <ele>687.5</ele>
        <time>2016-07-24T09:47:08Z</time>
      </trkpt>
      <trkpt lat="42.38912" lon="0.04898">
        <ele>686.7</ele>
        <time>2016-07-24T09:47:10Z</time>
      </trkpt>
      <trkpt lat="42.38912" lon="0.04903">
        <ele>686.2</ele>
        <time>2016-07-24T09:47:12Z</time>
      </trkpt>
      <trkpt lat="42.3891" lon="0.049">
        <ele>686.3</ele>
        <time>2016-07-24T09:47:15Z</time>
      </trkpt>
      <trkpt lat="42.38909" lon="0.04896">
        <ele>686.6</ele>
        <time>2016-07-24T09:47:18Z</time>
      </trkpt>
      <trkpt lat="42.38907" lon="0.04899">
        <ele>686</ele>
        <time>2016-07-24T09:47:23Z</time>
      </trkpt>
      <trkpt lat="42.38908" lon="0.04903">
        <ele>685.7</ele>
        <time>2016-07-24T09:47:24Z</time>
      </trkpt>
      <trkpt lat="42.38908" lon="0.04907">
        <ele>685.4</ele>
        <time>2016-07-24T09:47:25Z</time>
      </trkpt>
      <trkpt lat="42.3891" lon="0.04914">
        <ele>684.8</ele>
        <time>2016-07-24T09:47:27Z</time>
      </trkpt>
      <trkpt lat="42.38912" lon="0.04919">
        <ele>684.5</ele>
        <time>2016-07-24T09:47:29Z</time>
      </trkpt>
      <trkpt lat="42.38915" lon="0.04923">
        <ele>684.5</ele>
        <time>2016-07-24T09:47:31Z</time>
      </trkpt>
      <trkpt lat="42.38919" lon="0.04925">
        <ele>684.6</ele>
        <time>2016-07-24T09:47:33Z</time>
      </trkpt>
      <trkpt lat="42.38917" lon="0.0493">
        <ele>683.9</ele>
        <time>2016-07-24T09:47:37Z</time>
      </trkpt>
      <trkpt lat="42.38915" lon="0.04937">
        <ele>683</ele>
        <time>2016-07-24T09:47:39Z</time>
      </trkpt>
      <trkpt lat="42.38915" lon="0.04942">
        <ele>682.6</ele>
        <time>2016-07-24T09:47:40Z</time>
      </trkpt>
      <trkpt lat="42.38916" lon="0.04946">
        <ele>682.2</ele>
        <time>2016-07-24T09:47:41Z</time>
      </trkpt>
      <trkpt lat="42.38916" lon="0.0495">
        <ele>681.7</ele>
        <time>2016-07-24T09:47:43Z</time>
      </trkpt>
      <trkpt lat="42.38914" lon="0.04956">
        <ele>680.9</ele>
        <time>2016-07-24T09:47:46Z</time>
      </trkpt>
      <trkpt lat="42.38913" lon="0.0496">
        <ele>680.5</ele>
        <time>2016-07-24T09:47:47Z</time>
      </trkpt>
      <trkpt lat="42.38911" lon="0.04963">
        <ele>680.2</ele>
        <time>2016-07-24T09:47:48Z</time>
      </trkpt>
      <trkpt lat="42.38909" lon="0.04966">
        <ele>679.9</ele>
        <time>2016-07-24T09:47:49Z</time>
      </trkpt>
      <trkpt lat="42.38906" lon="0.04968">
        <ele>679.5</ele>
        <time>2016-07-24T09:47:50Z</time>
      </trkpt>
      <trkpt lat="42.38903" lon="0.04972">
        <ele>679.1</ele>
        <time>2016-07-24T09:47:51Z</time>
      </trkpt>
      <trkpt lat="42.38901" lon="0.04975">
        <ele>678.7</ele>
        <time>2016-07-24T09:47:52Z</time>
      </trkpt>
      <trkpt lat="42.389" lon="0.04978">
        <ele>678.4</ele>
        <time>2016-07-24T09:47:53Z</time>
      </trkpt>
      <trkpt lat="42.38898" lon="0.04981">
        <ele>678.1</ele>
        <time>2016-07-24T09:47:54Z</time>
      </trkpt>
      <trkpt lat="42.38897" lon="0.04987">
        <ele>677.6</ele>
        <time>2016-07-24T09:47:57Z</time>
      </trkpt>
      <trkpt lat="42.38894" lon="0.04992">
        <ele>677.1</ele>
        <time>2016-07-24T09:47:59Z</time>
      </trkpt>
      <trkpt lat="42.38891" lon="0.04993">
        <ele>676.7</ele>
        <time>2016-07-24T09:48:00Z</time>
      </trkpt>
      <trkpt lat="42.38888" lon="0.04994">
        <ele>676.2</ele>
        <time>2016-07-24T09:48:01Z</time>
      </trkpt>
      <trkpt lat="42.38884" lon="0.04996">
        <ele>675.7</ele>
        <time>2016-07-24T09:48:02Z</time>
      </trkpt>
      <trkpt lat="42.38881" lon="0.04998">
        <ele>675.3</ele>
        <time>2016-07-24T09:48:03Z</time>
      </trkpt>
      <trkpt lat="42.38879" lon="0.05001">
        <ele>674.9</ele>
        <time>2016-07-24T09:48:04Z</time>
      </trkpt>
      <trkpt lat="42.3888" lon="0.05008">
        <ele>674.5</ele>
        <time>2016-07-24T09:48:06Z</time>
      </trkpt>
      <trkpt lat="42.38881" lon="0.05013">
        <ele>674.4</ele>
        <time>2016-07-24T09:48:07Z</time>
      </trkpt>
      <trkpt lat="42.38882" lon="0.05018">
        <ele>674.3</ele>
        <time>2016-07-24T09:48:08Z</time>
      </trkpt>
      <trkpt lat="42.38883" lon="0.05023">
        <ele>674.2</ele>
        <time>2016-07-24T09:48:09Z</time>
      </trkpt>
      <trkpt lat="42.38885" lon="0.05028">
        <ele>674</ele>
        <time>2016-07-24T09:48:10Z</time>
      </trkpt>
      <trkpt lat="42.38886" lon="0.05034">
        <ele>673.9</ele>
        <time>2016-07-24T09:48:11Z</time>
      </trkpt>
      <trkpt lat="42.38888" lon="0.05041">
        <ele>673.7</ele>
        <time>2016-07-24T09:48:12Z</time>
      </trkpt>
      <trkpt lat="42.38889" lon="0.05047">
        <ele>673.6</ele>
        <time>2016-07-24T09:48:13Z</time>
      </trkpt>
      <trkpt lat="42.3889" lon="0.05054">
        <ele>673.5</ele>
        <time>2016-07-24T09:48:14Z</time>
      </trkpt>
      <trkpt lat="42.38892" lon="0.0506">
        <ele>673.4</ele>
        <time>2016-07-24T09:48:15Z</time>
      </trkpt>
      <trkpt lat="42.38894" lon="0.05066">
        <ele>673.4</ele>
        <time>2016-07-24T09:48:16Z</time>
      </trkpt>
      <trkpt lat="42.38896" lon="0.0507">
        <ele>673.5</ele>
        <time>2016-07-24T09:48:17Z</time>
      </trkpt>
      <trkpt lat="42.38899" lon="0.05075">
        <ele>673.5</ele>
        <time>2016-07-24T09:48:18Z</time>
      </trkpt>
      <trkpt lat="42.38902" lon="0.05081">
        <ele>673.5</ele>
        <time>2016-07-24T09:48:19Z</time>
      </trkpt>
      <trkpt lat="42.38904" lon="0.05086">
        <ele>673.5</ele>
        <time>2016-07-24T09:48:20Z</time>
      </trkpt>
      <trkpt lat="42.38907" lon="0.05091">
        <ele>673.4</ele>
        <time>2016-07-24T09:48:21Z</time>
      </trkpt>
      <trkpt lat="42.38909" lon="0.05096">
        <ele>673.3</ele>
        <time>2016-07-24T09:48:22Z</time>
      </trkpt>
      <trkpt lat="42.38911" lon="0.05099">
        <ele>673.2</ele>
        <time>2016-07-24T09:48:23Z</time>
      </trkpt>
      <trkpt lat="42.38912" lon="0.05103">
        <ele>673.1</ele>
        <time>2016-07-24T09:48:24Z</time>
      </trkpt>
      <trkpt lat="42.38914" lon="0.05107">
        <ele>673.1</ele>
        <time>2016-07-24T09:48:25Z</time>
      </trkpt>
      <trkpt lat="42.38916" lon="0.05111">
        <ele>672.9</ele>
        <time>2016-07-24T09:48:26Z</time>
      </trkpt>
      <trkpt lat="42.38918" lon="0.05115">
        <ele>672.8</ele>
        <time>2016-07-24T09:48:27Z</time>
      </trkpt>
      <trkpt lat="42.38919" lon="0.05118">
        <ele>672.6</ele>
        <time>2016-07-24T09:48:28Z</time>
      </trkpt>
      <trkpt lat="42.3892" lon="0.05122">
        <ele>672.4</ele>
        <time>2016-07-24T09:48:29Z</time>
      </trkpt>
      <trkpt lat="42.38922" lon="0.05126">
        <ele>672.2</ele>
        <time>2016-07-24T09:48:30Z</time>
      </trkpt>
      <trkpt lat="42.38924" lon="0.0513">
        <ele>672.2</ele>
        <time>2016-07-24T09:48:31Z</time>
      </trkpt>
      <trkpt lat="42.38926" lon="0.05134">
        <ele>672.1</ele>
        <time>2016-07-24T09:48:32Z</time>
      </trkpt>
      <trkpt lat="42.38929" lon="0.05139">
        <ele>671.9</ele>
        <time>2016-07-24T09:48:33Z</time>
      </trkpt>
      <trkpt lat="42.38932" lon="0.05144">
        <ele>671.7</ele>
        <time>2016-07-24T09:48:34Z</time>
      </trkpt>
      <trkpt lat="42.38935" lon="0.0515">
        <ele>671.4</ele>
        <time>2016-07-24T09:48:35Z</time>
      </trkpt>
      <trkpt lat="42.38938" lon="0.05155">
        <ele>671</ele>
        <time>2016-07-24T09:48:36Z</time>
      </trkpt>
      <trkpt lat="42.3894" lon="0.05161">
        <ele>670.6</ele>
        <time>2016-07-24T09:48:37Z</time>
      </trkpt>
      <trkpt lat="42.38943" lon="0.05165">
        <ele>670.2</ele>
        <time>2016-07-24T09:48:38Z</time>
      </trkpt>
      <trkpt lat="42.38944" lon="0.0517">
        <ele>669.7</ele>
        <time>2016-07-24T09:48:39Z</time>
      </trkpt>
      <trkpt lat="42.38946" lon="0.05174">
        <ele>669.3</ele>
        <time>2016-07-24T09:48:40Z</time>
      </trkpt>
      <trkpt lat="42.38947" lon="0.05178">
        <ele>669</ele>
        <time>2016-07-24T09:48:41Z</time>
      </trkpt>
      <trkpt lat="42.38949" lon="0.05184">
        <ele>668.4</ele>
        <time>2016-07-24T09:48:43Z</time>
      </trkpt>
      <trkpt lat="42.3895" lon="0.05188">
        <ele>667.8</ele>
        <time>2016-07-24T09:48:45Z</time>
      </trkpt>
      <trkpt lat="42.38952" lon="0.05193">
        <ele>667.2</ele>
        <time>2016-07-24T09:48:47Z</time>
      </trkpt>
      <trkpt lat="42.38954" lon="0.05198">
        <ele>666.6</ele>
        <time>2016-07-24T09:48:48Z</time>
      </trkpt>
      <trkpt lat="42.38956" lon="0.05203">
        <ele>665.9</ele>
        <time>2016-07-24T09:48:49Z</time>
      </trkpt>
      <trkpt lat="42.38957" lon="0.0521">
        <ele>665</ele>
        <time>2016-07-24T09:48:50Z</time>
      </trkpt>
      <trkpt lat="42.38958" lon="0.05217">
        <ele>664.2</ele>
        <time>2016-07-24T09:48:51Z</time>
      </trkpt>
      <trkpt lat="42.38958" lon="0.05224">
        <ele>663.5</ele>
        <time>2016-07-24T09:48:52Z</time>
      </trkpt>
      <trkpt lat="42.38958" lon="0.05231">
        <ele>662.9</ele>
        <time>2016-07-24T09:48:53Z</time>
      </trkpt>
      <trkpt lat="42.38957" lon="0.05237">
        <ele>662.5</ele>
        <time>2016-07-24T09:48:54Z</time>
      </trkpt>
      <trkpt lat="42.38955" lon="0.05244">
        <ele>662.2</ele>
        <time>2016-07-24T09:48:55Z</time>
      </trkpt>
      <trkpt lat="42.38953" lon="0.05251">
        <ele>662</ele>
        <time>2016-07-24T09:48:56Z</time>
      </trkpt>
      <trkpt lat="42.38952" lon="0.05258">
        <ele>661.7</ele>
        <time>2016-07-24T09:48:57Z</time>
      </trkpt>
      <trkpt lat="42.38951" lon="0.05265">
        <ele>661.2</ele>
        <time>2016-07-24T09:48:58Z</time>
      </trkpt>
      <trkpt lat="42.38952" lon="0.05272">
        <ele>660.5</ele>
        <time>2016-07-24T09:48:59Z</time>
      </trkpt>
      <trkpt lat="42.38953" lon="0.05279">
        <ele>659.5</ele>
        <time>2016-07-24T09:49:00Z</time>
      </trkpt>
      <trkpt lat="42.38955" lon="0.05286">
        <ele>658.3</ele>
        <time>2016-07-24T09:49:01Z</time>
      </trkpt>
      <trkpt lat="42.38959" lon="0.05293">
        <ele>657.1</ele>
        <time>2016-07-24T09:49:02Z</time>
      </trkpt>
      <trkpt lat="42.38962" lon="0.053">
        <ele>657.3</ele>
        <time>2016-07-24T09:49:03Z</time>
      </trkpt>
      <trkpt lat="42.38964" lon="0.05307">
        <ele>657.6</ele>
        <time>2016-07-24T09:49:04Z</time>
      </trkpt>
      <trkpt lat="42.38967" lon="0.05313">
        <ele>657.8</ele>
        <time>2016-07-24T09:49:05Z</time>
      </trkpt>
      <trkpt lat="42.38969" lon="0.05319">
        <ele>657.9</ele>
        <time>2016-07-24T09:49:06Z</time>
      </trkpt>
      <trkpt lat="42.3897" lon="0.05325">
        <ele>658</ele>
        <time>2016-07-24T09:49:07Z</time>
      </trkpt>
      <trkpt lat="42.38972" lon="0.05332">
        <ele>658.1</ele>
        <time>2016-07-24T09:49:08Z</time>
      </trkpt>
      <trkpt lat="42.38975" lon="0.05338">
        <ele>658.2</ele>
        <time>2016-07-24T09:49:09Z</time>
      </trkpt>
      <trkpt lat="42.38978" lon="0.05343">
        <ele>658.2</ele>
        <time>2016-07-24T09:49:10Z</time>
      </trkpt>
      <trkpt lat="42.38981" lon="0.05349">
        <ele>658.1</ele>
        <time>2016-07-24T09:49:11Z</time>
      </trkpt>
      <trkpt lat="42.38984" lon="0.05355">
        <ele>658</ele>
        <time>2016-07-24T09:49:12Z</time>
      </trkpt>
      <trkpt lat="42.38987" lon="0.05361">
        <ele>657.9</ele>
        <time>2016-07-24T09:49:13Z</time>
      </trkpt>
      <trkpt lat="42.3899" lon="0.05367">
        <ele>657.7</ele>
        <time>2016-07-24T09:49:14Z</time>
      </trkpt>
      <trkpt lat="42.38994" lon="0.05374">
        <ele>657.4</ele>
        <time>2016-07-24T09:49:15Z</time>
      </trkpt>
      <trkpt lat="42.38998" lon="0.0538">
        <ele>657.4</ele>
        <time>2016-07-24T09:49:16Z</time>
      </trkpt>
      <trkpt lat="42.39003" lon="0.05385">
        <ele>657.3</ele>
        <time>2016-07-24T09:49:17Z</time>
      </trkpt>
      <trkpt lat="42.39008" lon="0.0539">
        <ele>657.1</ele>
        <time>2016-07-24T09:49:18Z</time>
      </trkpt>
      <trkpt lat="42.39015" lon="0.05392">
        <ele>656.4</ele>
        <time>2016-07-24T09:49:19Z</time>
      </trkpt>
      <trkpt lat="42.3902" lon="0.05396">
        <ele>655.9</ele>
        <time>2016-07-24T09:49:20Z</time>
      </trkpt>
      <trkpt lat="42.39024" lon="0.05401">
        <ele>655.4</ele>
        <time>2016-07-24T09:49:21Z</time>
      </trkpt>
      <trkpt lat="42.39028" lon="0.05406">
        <ele>654.9</ele>
        <time>2016-07-24T09:49:22Z</time>
      </trkpt>
      <trkpt lat="42.39032" lon="0.0541">
        <ele>654.2</ele>
        <time>2016-07-24T09:49:23Z</time>
      </trkpt>
      <trkpt lat="42.39037" lon="0.05413">
        <ele>653.3</ele>
        <time>2016-07-24T09:49:24Z</time>
      </trkpt>
      <trkpt lat="42.39042" lon="0.05418">
        <ele>652.5</ele>
        <time>2016-07-24T09:49:25Z</time>
      </trkpt>
      <trkpt lat="42.39045" lon="0.05422">
        <ele>652.5</ele>
        <time>2016-07-24T09:49:26Z</time>
      </trkpt>
      <trkpt lat="42.39047" lon="0.05426">
        <ele>652.5</ele>
        <time>2016-07-24T09:49:27Z</time>
      </trkpt>
      <trkpt lat="42.39049" lon="0.0543">
        <ele>652.4</ele>
        <time>2016-07-24T09:49:28Z</time>
      </trkpt>
      <trkpt lat="42.39052" lon="0.05435">
        <ele>652.3</ele>
        <time>2016-07-24T09:49:30Z</time>
      </trkpt>
      <trkpt lat="42.39054" lon="0.05437">
        <ele>652.3</ele>
        <time>2016-07-24T09:49:32Z</time>
      </trkpt>
      <trkpt lat="42.39057" lon="0.0544">
        <ele>652.2</ele>
        <time>2016-07-24T09:49:34Z</time>
      </trkpt>
      <trkpt lat="42.39058" lon="0.05444">
        <ele>652.1</ele>
        <time>2016-07-24T09:49:49Z</time>
      </trkpt>
      <trkpt lat="42.39058" lon="0.05447">
        <ele>651.9</ele>
        <time>2016-07-24T09:49:57Z</time>
      </trkpt>
      <trkpt lat="42.39061" lon="0.05448">
        <ele>651.9</ele>
        <time>2016-07-24T09:50:19Z</time>
      </trkpt>
      <trkpt lat="42.39058" lon="0.05449">
        <ele>651.8</ele>
        <time>2016-07-24T09:51:11Z</time>
      </trkpt>
      <trkpt lat="42.39058" lon="0.05453">
        <ele>651.5</ele>
        <time>2016-07-24T09:52:24Z</time>
      </trkpt>
      <trkpt lat="42.39058" lon="0.05457">
        <ele>651.3</ele>
        <time>2016-07-24T09:52:26Z</time>
      </trkpt>
      <trkpt lat="42.39056" lon="0.05464">
        <ele>651.5</ele>
        <time>2016-07-24T09:52:28Z</time>
      </trkpt>
      <trkpt lat="42.39055" lon="0.05468">
        <ele>651.7</ele>
        <time>2016-07-24T09:52:29Z</time>
      </trkpt>
      <trkpt lat="42.39054" lon="0.05471">
        <ele>651.9</ele>
        <time>2016-07-24T09:52:30Z</time>
      </trkpt>
      <trkpt lat="42.39053" lon="0.05478">
        <ele>652.2</ele>
        <time>2016-07-24T09:52:32Z</time>
      </trkpt>
      <trkpt lat="42.39051" lon="0.05483">
        <ele>652.5</ele>
        <time>2016-07-24T09:52:34Z</time>
      </trkpt>
      <trkpt lat="42.39049" lon="0.05487">
        <ele>652.6</ele>
        <time>2016-07-24T09:52:35Z</time>
      </trkpt>
      <trkpt lat="42.39047" lon="0.0549">
        <ele>652.7</ele>
        <time>2016-07-24T09:52:36Z</time>
      </trkpt>
      <trkpt lat="42.39046" lon="0.05493">
        <ele>652.8</ele>
        <time>2016-07-24T09:52:37Z</time>
      </trkpt>
      <trkpt lat="42.39045" lon="0.05497">
        <ele>653</ele>
        <time>2016-07-24T09:52:38Z</time>
      </trkpt>
      <trkpt lat="42.39043" lon="0.05501">
        <ele>653.1</ele>
        <time>2016-07-24T09:52:39Z</time>
      </trkpt>
      <trkpt lat="42.39042" lon="0.05505">
        <ele>653.3</ele>
        <time>2016-07-24T09:52:40Z</time>
      </trkpt>
      <trkpt lat="42.39042" lon="0.05509">
        <ele>653.5</ele>
        <time>2016-07-24T09:52:41Z</time>
      </trkpt>
      <trkpt lat="42.3904" lon="0.05514">
        <ele>654.1</ele>
        <time>2016-07-24T09:52:42Z</time>
      </trkpt>
      <trkpt lat="42.39038" lon="0.05518">
        <ele>654.9</ele>
        <time>2016-07-24T09:52:43Z</time>
      </trkpt>
      <trkpt lat="42.39036" lon="0.05522">
        <ele>655.8</ele>
        <time>2016-07-24T09:52:44Z</time>
      </trkpt>
      <trkpt lat="42.39035" lon="0.05527">
        <ele>656.6</ele>
        <time>2016-07-24T09:52:45Z</time>
      </trkpt>
      <trkpt lat="42.39034" lon="0.05533">
        <ele>657.2</ele>
        <time>2016-07-24T09:52:46Z</time>
      </trkpt>
      <trkpt lat="42.39034" lon="0.05538">
        <ele>657.3</ele>
        <time>2016-07-24T09:52:47Z</time>
      </trkpt>
      <trkpt lat="42.39036" lon="0.05544">
        <ele>656.9</ele>
        <time>2016-07-24T09:52:48Z</time>
      </trkpt>
      <trkpt lat="42.39039" lon="0.05549">
        <ele>656</ele>
        <time>2016-07-24T09:52:49Z</time>
      </trkpt>
      <trkpt lat="42.39042" lon="0.05554">
        <ele>655.3</ele>
        <time>2016-07-24T09:52:50Z</time>
      </trkpt>
      <trkpt lat="42.39044" lon="0.0556">
        <ele>655.7</ele>
        <time>2016-07-24T09:52:51Z</time>
      </trkpt>
      <trkpt lat="42.39045" lon="0.05566">
        <ele>655.9</ele>
        <time>2016-07-24T09:52:52Z</time>
      </trkpt>
      <trkpt lat="42.39046" lon="0.05571">
        <ele>656.1</ele>
        <time>2016-07-24T09:52:53Z</time>
      </trkpt>
      <trkpt lat="42.39046" lon="0.05577">
        <ele>656.3</ele>
        <time>2016-07-24T09:52:54Z</time>
      </trkpt>
      <trkpt lat="42.39046" lon="0.05582">
        <ele>656.4</ele>
        <time>2016-07-24T09:52:55Z</time>
      </trkpt>
      <trkpt lat="42.39045" lon="0.05587">
        <ele>656.4</ele>
        <time>2016-07-24T09:52:56Z</time>
      </trkpt>
      <trkpt lat="42.39043" lon="0.05592">
        <ele>656.4</ele>
        <time>2016-07-24T09:52:57Z</time>
      </trkpt>
      <trkpt lat="42.39042" lon="0.05596">
        <ele>656.3</ele>
        <time>2016-07-24T09:52:58Z</time>
      </trkpt>
      <trkpt lat="42.39041" lon="0.05601">
        <ele>656.8</ele>
        <time>2016-07-24T09:52:59Z</time>
      </trkpt>
      <trkpt lat="42.39039" lon="0.05607">
        <ele>657.3</ele>
        <time>2016-07-24T09:53:00Z</time>
      </trkpt>
      <trkpt lat="42.39038" lon="0.05613">
        <ele>657.9</ele>
        <time>2016-07-24T09:53:01Z</time>
      </trkpt>
      <trkpt lat="42.39036" lon="0.05618">
        <ele>658.5</ele>
        <time>2016-07-24T09:53:02Z</time>
      </trkpt>
      <trkpt lat="42.39034" lon="0.05623">
        <ele>659.4</ele>
        <time>2016-07-24T09:53:03Z</time>
      </trkpt>
      <trkpt lat="42.39031" lon="0.05627">
        <ele>660.1</ele>
        <time>2016-07-24T09:53:04Z</time>
      </trkpt>
      <trkpt lat="42.39029" lon="0.05631">
        <ele>660.6</ele>
        <time>2016-07-24T09:53:05Z</time>
      </trkpt>
      <trkpt lat="42.39026" lon="0.05634">
        <ele>661.1</ele>
        <time>2016-07-24T09:53:07Z</time>
      </trkpt>
      <trkpt lat="42.39024" lon="0.05637">
        <ele>661.6</ele>
        <time>2016-07-24T09:53:09Z</time>
      </trkpt>
      <trkpt lat="42.3902" lon="0.05642">
        <ele>662</ele>
        <time>2016-07-24T09:53:11Z</time>
      </trkpt>
      <trkpt lat="42.39018" lon="0.05647">
        <ele>661.9</ele>
        <time>2016-07-24T09:53:13Z</time>
      </trkpt>
      <trkpt lat="42.39017" lon="0.05652">
        <ele>661.5</ele>
        <time>2016-07-24T09:53:15Z</time>
      </trkpt>
      <trkpt lat="42.39015" lon="0.05656">
        <ele>661.4</ele>
        <time>2016-07-24T09:53:18Z</time>
      </trkpt>
      <trkpt lat="42.39013" lon="0.05658">
        <ele>661.7</ele>
        <time>2016-07-24T09:53:20Z</time>
      </trkpt>
      <trkpt lat="42.39009" lon="0.0566">
        <ele>662</ele>
        <time>2016-07-24T09:53:22Z</time>
      </trkpt>
      <trkpt lat="42.39006" lon="0.05663">
        <ele>662.1</ele>
        <time>2016-07-24T09:53:25Z</time>
      </trkpt>
      <trkpt lat="42.39004" lon="0.05667">
        <ele>661.9</ele>
        <time>2016-07-24T09:53:27Z</time>
      </trkpt>
      <trkpt lat="42.39" lon="0.0567">
        <ele>661.8</ele>
        <time>2016-07-24T09:53:29Z</time>
      </trkpt>
      <trkpt lat="42.38997" lon="0.05675">
        <ele>661.5</ele>
        <time>2016-07-24T09:53:31Z</time>
      </trkpt>
      <trkpt lat="42.38995" lon="0.05677">
        <ele>661.3</ele>
        <time>2016-07-24T09:53:32Z</time>
      </trkpt>
      <trkpt lat="42.38991" lon="0.0568">
        <ele>661.2</ele>
        <time>2016-07-24T09:53:34Z</time>
      </trkpt>
      <trkpt lat="42.38988" lon="0.0568">
        <ele>661.3</ele>
        <time>2016-07-24T09:53:36Z</time>
      </trkpt>
      <trkpt lat="42.38985" lon="0.05681">
        <ele>661.4</ele>
        <time>2016-07-24T09:53:38Z</time>
      </trkpt>
      <trkpt lat="42.38982" lon="0.05683">
        <ele>661.3</ele>
        <time>2016-07-24T09:53:40Z</time>
      </trkpt>
      <trkpt lat="42.38979" lon="0.05687">
        <ele>660.6</ele>
        <time>2016-07-24T09:53:42Z</time>
      </trkpt>
      <trkpt lat="42.38976" lon="0.05691">
        <ele>659.7</ele>
        <time>2016-07-24T09:53:44Z</time>
      </trkpt>
      <trkpt lat="42.38973" lon="0.05694">
        <ele>659.2</ele>
        <time>2016-07-24T09:53:46Z</time>
      </trkpt>
      <trkpt lat="42.38972" lon="0.05698">
        <ele>658.1</ele>
        <time>2016-07-24T09:53:49Z</time>
      </trkpt>
      <trkpt lat="42.38974" lon="0.05701">
        <ele>657</ele>
        <time>2016-07-24T09:53:51Z</time>
      </trkpt>
      <trkpt lat="42.38976" lon="0.05704">
        <ele>656.2</ele>
        <time>2016-07-24T09:53:53Z</time>
      </trkpt>
      <trkpt lat="42.38979" lon="0.05707">
        <ele>655.4</ele>
        <time>2016-07-24T09:53:55Z</time>
      </trkpt>
      <trkpt lat="42.38983" lon="0.0571">
        <ele>654.8</ele>
        <time>2016-07-24T09:53:58Z</time>
      </trkpt>
      <trkpt lat="42.38986" lon="0.05712">
        <ele>654.5</ele>
        <time>2016-07-24T09:54:00Z</time>
      </trkpt>
      <trkpt lat="42.38988" lon="0.05714">
        <ele>654.3</ele>
        <time>2016-07-24T09:54:02Z</time>
      </trkpt>
      <trkpt lat="42.38991" lon="0.05714">
        <ele>654.3</ele>
        <time>2016-07-24T09:54:04Z</time>
      </trkpt>
      <trkpt lat="42.38995" lon="0.05715">
        <ele>654.2</ele>
        <time>2016-07-24T09:54:07Z</time>
      </trkpt>
      <trkpt lat="42.38998" lon="0.05713">
        <ele>654.5</ele>
        <time>2016-07-24T09:54:10Z</time>
      </trkpt>
      <trkpt lat="42.39" lon="0.05709">
        <ele>655</ele>
        <time>2016-07-24T09:54:13Z</time>
      </trkpt>
      <trkpt lat="42.39001" lon="0.05704">
        <ele>655.7</ele>
        <time>2016-07-24T09:54:16Z</time>
      </trkpt>
      <trkpt lat="42.39001" lon="0.05699">
        <ele>656.6</ele>
        <time>2016-07-24T09:54:19Z</time>
      </trkpt>
      <trkpt lat="42.39001" lon="0.05696">
        <ele>657.2</ele>
        <time>2016-07-24T09:54:21Z</time>
      </trkpt>
      <trkpt lat="42.39003" lon="0.05692">
        <ele>657.7</ele>
        <time>2016-07-24T09:54:29Z</time>
      </trkpt>
      <trkpt lat="42.39006" lon="0.05694">
        <ele>657.3</ele>
        <time>2016-07-24T09:54:43Z</time>
      </trkpt>
      <trkpt lat="42.39008" lon="0.05697">
        <ele>656.7</ele>
        <time>2016-07-24T09:54:49Z</time>
      </trkpt>
      <trkpt lat="42.39009" lon="0.057">
        <ele>656.2</ele>
        <time>2016-07-24T09:54:54Z</time>
      </trkpt>
      <trkpt lat="42.39012" lon="0.05701">
        <ele>656</ele>
        <time>2016-07-24T09:55:00Z</time>
      </trkpt>
      <trkpt lat="42.39013" lon="0.05698">
        <ele>656.4</ele>
        <time>2016-07-24T09:55:04Z</time>
      </trkpt>
      <trkpt lat="42.39015" lon="0.05694">
        <ele>656.8</ele>
        <time>2016-07-24T09:55:08Z</time>
      </trkpt>
      <trkpt lat="42.39017" lon="0.05692">
        <ele>656.9</ele>
        <time>2016-07-24T09:55:17Z</time>
      </trkpt>
      <trkpt lat="42.3902" lon="0.05693">
        <ele>656.6</ele>
        <time>2016-07-24T09:55:22Z</time>
      </trkpt>
      <trkpt lat="42.39021" lon="0.05697">
        <ele>656.2</ele>
        <time>2016-07-24T09:55:26Z</time>
      </trkpt>
      <trkpt lat="42.39021" lon="0.05701">
        <ele>655.7</ele>
        <time>2016-07-24T09:55:30Z</time>
      </trkpt>
      <trkpt lat="42.39021" lon="0.05705">
        <ele>655.3</ele>
        <time>2016-07-24T09:55:34Z</time>
      </trkpt>
      <trkpt lat="42.39022" lon="0.05709">
        <ele>655</ele>
        <time>2016-07-24T09:55:38Z</time>
      </trkpt>
      <trkpt lat="42.39024" lon="0.05712">
        <ele>654.8</ele>
        <time>2016-07-24T09:55:43Z</time>
      </trkpt>
      <trkpt lat="42.39027" lon="0.05714">
        <ele>654.7</ele>
        <time>2016-07-24T09:55:48Z</time>
      </trkpt>
      <trkpt lat="42.3903" lon="0.05715">
        <ele>654.7</ele>
        <time>2016-07-24T09:55:53Z</time>
      </trkpt>
      <trkpt lat="42.39032" lon="0.05712">
        <ele>654.9</ele>
        <time>2016-07-24T09:55:57Z</time>
      </trkpt>
      <trkpt lat="42.39032" lon="0.05708">
        <ele>655</ele>
        <time>2016-07-24T09:56:01Z</time>
      </trkpt>
      <trkpt lat="42.39032" lon="0.05704">
        <ele>655.3</ele>
        <time>2016-07-24T09:56:12Z</time>
      </trkpt>
      <trkpt lat="42.39035" lon="0.05703">
        <ele>655.3</ele>
        <time>2016-07-24T09:56:19Z</time>
      </trkpt>
      <trkpt lat="42.39038" lon="0.05702">
        <ele>655.2</ele>
        <time>2016-07-24T09:56:24Z</time>
      </trkpt>
      <trkpt lat="42.39039" lon="0.05705">
        <ele>655.1</ele>
        <time>2016-07-24T09:56:30Z</time>
      </trkpt>
      <trkpt lat="42.39042" lon="0.05706">
        <ele>655.2</ele>
        <time>2016-07-24T09:56:38Z</time>
      </trkpt>
      <trkpt lat="42.39046" lon="0.05706">
        <ele>656</ele>
        <time>2016-07-24T09:56:45Z</time>
      </trkpt>
      <trkpt lat="42.39048" lon="0.05705">
        <ele>656.7</ele>
        <time>2016-07-24T09:56:52Z</time>
      </trkpt>
      <trkpt lat="42.39051" lon="0.05704">
        <ele>657.4</ele>
        <time>2016-07-24T09:56:59Z</time>
      </trkpt>
      <trkpt lat="42.39054" lon="0.05703">
        <ele>658.3</ele>
        <time>2016-07-24T09:57:03Z</time>
      </trkpt>
      <trkpt lat="42.39058" lon="0.05702">
        <ele>659</ele>
        <time>2016-07-24T09:57:07Z</time>
      </trkpt>
      <trkpt lat="42.3906" lon="0.057">
        <ele>659.6</ele>
        <time>2016-07-24T09:57:11Z</time>
      </trkpt>
      <trkpt lat="42.39062" lon="0.05697">
        <ele>660.1</ele>
        <time>2016-07-24T09:57:16Z</time>
      </trkpt>
      <trkpt lat="42.39063" lon="0.05693">
        <ele>660.3</ele>
        <time>2016-07-24T09:57:21Z</time>
      </trkpt>
      <trkpt lat="42.39064" lon="0.0569">
        <ele>660.6</ele>
        <time>2016-07-24T09:57:26Z</time>
      </trkpt>
      <trkpt lat="42.39065" lon="0.05686">
        <ele>660.9</ele>
        <time>2016-07-24T09:57:33Z</time>
      </trkpt>
      <trkpt lat="42.39067" lon="0.05683">
        <ele>661.3</ele>
        <time>2016-07-24T09:57:38Z</time>
      </trkpt>
      <trkpt lat="42.3907" lon="0.0568">
        <ele>661.8</ele>
        <time>2016-07-24T09:57:44Z</time>
      </trkpt>
      <trkpt lat="42.39072" lon="0.05678">
        <ele>662.3</ele>
        <time>2016-07-24T09:57:54Z</time>
      </trkpt>
      <trkpt lat="42.39075" lon="0.05677">
        <ele>662.9</ele>
        <time>2016-07-24T09:57:59Z</time>
      </trkpt>
      <trkpt lat="42.39078" lon="0.05677">
        <ele>663.5</ele>
        <time>2016-07-24T09:58:15Z</time>
      </trkpt>
      <trkpt lat="42.39081" lon="0.05677">
        <ele>664.2</ele>
        <time>2016-07-24T09:58:23Z</time>
      </trkpt>
      <trkpt lat="42.39083" lon="0.05674">
        <ele>664.7</ele>
        <time>2016-07-24T09:58:29Z</time>
      </trkpt>
      <trkpt lat="42.39086" lon="0.05671">
        <ele>665.1</ele>
        <time>2016-07-24T09:58:34Z</time>
      </trkpt>
      <trkpt lat="42.39088" lon="0.0567">
        <ele>665.6</ele>
        <time>2016-07-24T09:58:38Z</time>
      </trkpt>
      <trkpt lat="42.39091" lon="0.05668">
        <ele>666.1</ele>
        <time>2016-07-24T09:58:43Z</time>
      </trkpt>
      <trkpt lat="42.39094" lon="0.05667">
        <ele>666.7</ele>
        <time>2016-07-24T09:58:48Z</time>
      </trkpt>
      <trkpt lat="42.39097" lon="0.05664">
        <ele>667.2</ele>
        <time>2016-07-24T09:58:52Z</time>
      </trkpt>
      <trkpt lat="42.39099" lon="0.05662">
        <ele>667.5</ele>
        <time>2016-07-24T09:58:57Z</time>
      </trkpt>
      <trkpt lat="42.39101" lon="0.05659">
        <ele>667.7</ele>
        <time>2016-07-24T09:59:02Z</time>
      </trkpt>
      <trkpt lat="42.39103" lon="0.05657">
        <ele>668.1</ele>
        <time>2016-07-24T09:59:07Z</time>
      </trkpt>
      <trkpt lat="42.39106" lon="0.05654">
        <ele>668.5</ele>
        <time>2016-07-24T09:59:14Z</time>
      </trkpt>
      <trkpt lat="42.39108" lon="0.05651">
        <ele>668.7</ele>
        <time>2016-07-24T09:59:23Z</time>
      </trkpt>
      <trkpt lat="42.3911" lon="0.05648">
        <ele>668.9</ele>
        <time>2016-07-24T09:59:28Z</time>
      </trkpt>
      <trkpt lat="42.39113" lon="0.05648">
        <ele>669.4</ele>
        <time>2016-07-24T09:59:33Z</time>
      </trkpt>
      <trkpt lat="42.39115" lon="0.05649">
        <ele>670</ele>
        <time>2016-07-24T09:59:39Z</time>
      </trkpt>
      <trkpt lat="42.39118" lon="0.05651">
        <ele>670.6</ele>
        <time>2016-07-24T09:59:44Z</time>
      </trkpt>
      <trkpt lat="42.39121" lon="0.05653">
        <ele>671.3</ele>
        <time>2016-07-24T09:59:58Z</time>
      </trkpt>
      <trkpt lat="42.39125" lon="0.05654">
        <ele>672</ele>
        <time>2016-07-24T10:00:00Z</time>
      </trkpt>
      <trkpt lat="42.39128" lon="0.05654">
        <ele>673.1</ele>
        <time>2016-07-24T10:00:02Z</time>
      </trkpt>
      <trkpt lat="42.39131" lon="0.05654">
        <ele>674.4</ele>
        <time>2016-07-24T10:00:04Z</time>
      </trkpt>
      <trkpt lat="42.39135" lon="0.05655">
        <ele>675.7</ele>
        <time>2016-07-24T10:00:06Z</time>
      </trkpt>
      <trkpt lat="42.39139" lon="0.05656">
        <ele>677.1</ele>
        <time>2016-07-24T10:00:08Z</time>
      </trkpt>
      <trkpt lat="42.39142" lon="0.05656">
        <ele>678.4</ele>
        <time>2016-07-24T10:00:10Z</time>
      </trkpt>
      <trkpt lat="42.39146" lon="0.05656">
        <ele>679.6</ele>
        <time>2016-07-24T10:00:12Z</time>
      </trkpt>
      <trkpt lat="42.39149" lon="0.05656">
        <ele>680.7</ele>
        <time>2016-07-24T10:00:14Z</time>
      </trkpt>
      <trkpt lat="42.39152" lon="0.05656">
        <ele>681.9</ele>
        <time>2016-07-24T10:00:16Z</time>
      </trkpt>
      <trkpt lat="42.39156" lon="0.05655">
        <ele>683.1</ele>
        <time>2016-07-24T10:00:18Z</time>
      </trkpt>
      <trkpt lat="42.39159" lon="0.05655">
        <ele>684.2</ele>
        <time>2016-07-24T10:00:20Z</time>
      </trkpt>
      <trkpt lat="42.39162" lon="0.05654">
        <ele>685.4</ele>
        <time>2016-07-24T10:00:22Z</time>
      </trkpt>
      <trkpt lat="42.39165" lon="0.05655">
        <ele>686.5</ele>
        <time>2016-07-24T10:00:24Z</time>
      </trkpt>
      <trkpt lat="42.39169" lon="0.05655">
        <ele>687.7</ele>
        <time>2016-07-24T10:00:26Z</time>
      </trkpt>
      <trkpt lat="42.39172" lon="0.05655">
        <ele>688.9</ele>
        <time>2016-07-24T10:00:28Z</time>
      </trkpt>
      <trkpt lat="42.39175" lon="0.05656">
        <ele>690</ele>
        <time>2016-07-24T10:00:30Z</time>
      </trkpt>
      <trkpt lat="42.39178" lon="0.05657">
        <ele>691</ele>
        <time>2016-07-24T10:00:32Z</time>
      </trkpt>
      <trkpt lat="42.39181" lon="0.05658">
        <ele>691.9</ele>
        <time>2016-07-24T10:00:34Z</time>
      </trkpt>
      <trkpt lat="42.39184" lon="0.05659">
        <ele>693.2</ele>
        <time>2016-07-24T10:00:37Z</time>
      </trkpt>
      <trkpt lat="42.39188" lon="0.05659">
        <ele>694.4</ele>
        <time>2016-07-24T10:00:40Z</time>
      </trkpt>
      <trkpt lat="42.39191" lon="0.05658">
        <ele>695.6</ele>
        <time>2016-07-24T10:00:43Z</time>
      </trkpt>
      <trkpt lat="42.39195" lon="0.05657">
        <ele>696.9</ele>
        <time>2016-07-24T10:00:46Z</time>
      </trkpt>
      <trkpt lat="42.39199" lon="0.05657">
        <ele>698.4</ele>
        <time>2016-07-24T10:00:49Z</time>
      </trkpt>
      <trkpt lat="42.39203" lon="0.05657">
        <ele>699.8</ele>
        <time>2016-07-24T10:00:52Z</time>
      </trkpt>
      <trkpt lat="42.39207" lon="0.05656">
        <ele>701.2</ele>
        <time>2016-07-24T10:00:55Z</time>
      </trkpt>
      <trkpt lat="42.39209" lon="0.05654">
        <ele>702</ele>
        <time>2016-07-24T10:00:57Z</time>
      </trkpt>
      <trkpt lat="42.39212" lon="0.05652">
        <ele>702.6</ele>
        <time>2016-07-24T10:00:59Z</time>
      </trkpt>
      <trkpt lat="42.39214" lon="0.0565">
        <ele>703.1</ele>
        <time>2016-07-24T10:01:01Z</time>
      </trkpt>
      <trkpt lat="42.39217" lon="0.05647">
        <ele>704</ele>
        <time>2016-07-24T10:01:04Z</time>
      </trkpt>
      <trkpt lat="42.39221" lon="0.05645">
        <ele>704.8</ele>
        <time>2016-07-24T10:01:07Z</time>
      </trkpt>
      <trkpt lat="42.39224" lon="0.05644">
        <ele>705.6</ele>
        <time>2016-07-24T10:01:10Z</time>
      </trkpt>
      <trkpt lat="42.39228" lon="0.05643">
        <ele>706.4</ele>
        <time>2016-07-24T10:01:13Z</time>
      </trkpt>
      <trkpt lat="42.39232" lon="0.05641">
        <ele>707.3</ele>
        <time>2016-07-24T10:01:16Z</time>
      </trkpt>
      <trkpt lat="42.39236" lon="0.0564">
        <ele>708.2</ele>
        <time>2016-07-24T10:01:19Z</time>
      </trkpt>
      <trkpt lat="42.39239" lon="0.05637">
        <ele>709.2</ele>
        <time>2016-07-24T10:01:22Z</time>
      </trkpt>
      <trkpt lat="42.39242" lon="0.05635">
        <ele>710.2</ele>
        <time>2016-07-24T10:01:25Z</time>
      </trkpt>
      <trkpt lat="42.39244" lon="0.05631">
        <ele>711.2</ele>
        <time>2016-07-24T10:01:28Z</time>
      </trkpt>
      <trkpt lat="42.39247" lon="0.05629">
        <ele>712.2</ele>
        <time>2016-07-24T10:01:31Z</time>
      </trkpt>
      <trkpt lat="42.3925" lon="0.05627">
        <ele>713.2</ele>
        <time>2016-07-24T10:01:34Z</time>
      </trkpt>
      <trkpt lat="42.39253" lon="0.05625">
        <ele>714</ele>
        <time>2016-07-24T10:01:37Z</time>
      </trkpt>
      <trkpt lat="42.39256" lon="0.05623">
        <ele>714.4</ele>
        <time>2016-07-24T10:01:40Z</time>
      </trkpt>
      <trkpt lat="42.39259" lon="0.05622">
        <ele>715</ele>
        <time>2016-07-24T10:01:43Z</time>
      </trkpt>
      <trkpt lat="42.39262" lon="0.0562">
        <ele>715.3</ele>
        <time>2016-07-24T10:01:46Z</time>
      </trkpt>
      <trkpt lat="42.39265" lon="0.05618">
        <ele>715.4</ele>
        <time>2016-07-24T10:01:49Z</time>
      </trkpt>
      <trkpt lat="42.39268" lon="0.05616">
        <ele>715.8</ele>
        <time>2016-07-24T10:01:52Z</time>
      </trkpt>
      <trkpt lat="42.39271" lon="0.05613">
        <ele>716.1</ele>
        <time>2016-07-24T10:01:55Z</time>
      </trkpt>
      <trkpt lat="42.39274" lon="0.05611">
        <ele>716.3</ele>
        <time>2016-07-24T10:01:58Z</time>
      </trkpt>
      <trkpt lat="42.39277" lon="0.05608">
        <ele>716.5</ele>
        <time>2016-07-24T10:02:01Z</time>
      </trkpt>
      <trkpt lat="42.3928" lon="0.05605">
        <ele>716.6</ele>
        <time>2016-07-24T10:02:04Z</time>
      </trkpt>
      <trkpt lat="42.39282" lon="0.05603">
        <ele>716.8</ele>
        <time>2016-07-24T10:02:07Z</time>
      </trkpt>
      <trkpt lat="42.39285" lon="0.056">
        <ele>716.9</ele>
        <time>2016-07-24T10:02:10Z</time>
      </trkpt>
      <trkpt lat="42.39288" lon="0.05598">
        <ele>717.2</ele>
        <time>2016-07-24T10:02:13Z</time>
      </trkpt>
      <trkpt lat="42.39291" lon="0.05595">
        <ele>717.4</ele>
        <time>2016-07-24T10:02:16Z</time>
      </trkpt>
      <trkpt lat="42.39294" lon="0.05594">
        <ele>717.6</ele>
        <time>2016-07-24T10:02:19Z</time>
      </trkpt>
      <trkpt lat="42.39297" lon="0.05592">
        <ele>717.6</ele>
        <time>2016-07-24T10:02:22Z</time>
      </trkpt>
      <trkpt lat="42.39301" lon="0.05591">
        <ele>717.7</ele>
        <time>2016-07-24T10:02:25Z</time>
      </trkpt>
      <trkpt lat="42.39304" lon="0.05589">
        <ele>717.8</ele>
        <time>2016-07-24T10:02:28Z</time>
      </trkpt>
      <trkpt lat="42.39307" lon="0.05587">
        <ele>717.9</ele>
        <time>2016-07-24T10:02:31Z</time>
      </trkpt>
      <trkpt lat="42.3931" lon="0.05586">
        <ele>718.1</ele>
        <time>2016-07-24T10:02:34Z</time>
      </trkpt>
      <trkpt lat="42.39314" lon="0.05585">
        <ele>718.4</ele>
        <time>2016-07-24T10:02:37Z</time>
      </trkpt>
      <trkpt lat="42.39317" lon="0.05584">
        <ele>718.6</ele>
        <time>2016-07-24T10:02:40Z</time>
      </trkpt>
      <trkpt lat="42.39321" lon="0.05582">
        <ele>718.9</ele>
        <time>2016-07-24T10:02:43Z</time>
      </trkpt>
      <trkpt lat="42.39325" lon="0.05582">
        <ele>719.4</ele>
        <time>2016-07-24T10:02:46Z</time>
      </trkpt>
      <trkpt lat="42.39329" lon="0.05582">
        <ele>719.9</ele>
        <time>2016-07-24T10:02:49Z</time>
      </trkpt>
      <trkpt lat="42.39333" lon="0.05582">
        <ele>720.3</ele>
        <time>2016-07-24T10:02:52Z</time>
      </trkpt>
      <trkpt lat="42.39335" lon="0.05582">
        <ele>720.6</ele>
        <time>2016-07-24T10:02:54Z</time>
      </trkpt>
      <trkpt lat="42.39339" lon="0.05581">
        <ele>721</ele>
        <time>2016-07-24T10:02:57Z</time>
      </trkpt>
      <trkpt lat="42.39343" lon="0.0558">
        <ele>721.5</ele>
        <time>2016-07-24T10:03:00Z</time>
      </trkpt>
      <trkpt lat="42.39347" lon="0.0558">
        <ele>722</ele>
        <time>2016-07-24T10:03:03Z</time>
      </trkpt>
      <trkpt lat="42.3935" lon="0.0558">
        <ele>722.3</ele>
        <time>2016-07-24T10:03:05Z</time>
      </trkpt>
      <trkpt lat="42.39353" lon="0.05579">
        <ele>722.8</ele>
        <time>2016-07-24T10:03:08Z</time>
      </trkpt>
      <trkpt lat="42.39356" lon="0.05579">
        <ele>723.1</ele>
        <time>2016-07-24T10:03:10Z</time>
      </trkpt>
      <trkpt lat="42.39359" lon="0.05579">
        <ele>723.4</ele>
        <time>2016-07-24T10:03:12Z</time>
      </trkpt>
      <trkpt lat="42.39363" lon="0.05579">
        <ele>723.9</ele>
        <time>2016-07-24T10:03:15Z</time>
      </trkpt>
      <trkpt lat="42.39365" lon="0.05579">
        <ele>724.3</ele>
        <time>2016-07-24T10:03:17Z</time>
      </trkpt>
      <trkpt lat="42.39368" lon="0.05579">
        <ele>724.7</ele>
        <time>2016-07-24T10:03:19Z</time>
      </trkpt>
      <trkpt lat="42.39371" lon="0.05578">
        <ele>725.1</ele>
        <time>2016-07-24T10:03:21Z</time>
      </trkpt>
      <trkpt lat="42.39374" lon="0.05577">
        <ele>725.4</ele>
        <time>2016-07-24T10:03:23Z</time>
      </trkpt>
      <trkpt lat="42.39377" lon="0.05575">
        <ele>725.9</ele>
        <time>2016-07-24T10:03:25Z</time>
      </trkpt>
      <trkpt lat="42.3938" lon="0.05574">
        <ele>726.3</ele>
        <time>2016-07-24T10:03:27Z</time>
      </trkpt>
      <trkpt lat="42.39383" lon="0.05573">
        <ele>726.8</ele>
        <time>2016-07-24T10:03:29Z</time>
      </trkpt>
      <trkpt lat="42.39386" lon="0.05573">
        <ele>727.3</ele>
        <time>2016-07-24T10:03:31Z</time>
      </trkpt>
      <trkpt lat="42.39389" lon="0.05574">
        <ele>727.8</ele>
        <time>2016-07-24T10:03:33Z</time>
      </trkpt>
      <trkpt lat="42.39392" lon="0.05575">
        <ele>728.3</ele>
        <time>2016-07-24T10:03:35Z</time>
      </trkpt>
      <trkpt lat="42.39395" lon="0.05575">
        <ele>728.8</ele>
        <time>2016-07-24T10:03:37Z</time>
      </trkpt>
      <trkpt lat="42.39399" lon="0.05575">
        <ele>729.3</ele>
        <time>2016-07-24T10:03:39Z</time>
      </trkpt>
      <trkpt lat="42.39402" lon="0.05575">
        <ele>729.9</ele>
        <time>2016-07-24T10:03:41Z</time>
      </trkpt>
      <trkpt lat="42.39406" lon="0.05576">
        <ele>730.5</ele>
        <time>2016-07-24T10:03:43Z</time>
      </trkpt>
      <trkpt lat="42.39411" lon="0.05576">
        <ele>731.2</ele>
        <time>2016-07-24T10:03:45Z</time>
      </trkpt>
      <trkpt lat="42.39415" lon="0.05576">
        <ele>731.9</ele>
        <time>2016-07-24T10:03:47Z</time>
      </trkpt>
      <trkpt lat="42.39419" lon="0.05576">
        <ele>732.5</ele>
        <time>2016-07-24T10:03:49Z</time>
      </trkpt>
      <trkpt lat="42.39423" lon="0.05576">
        <ele>733.1</ele>
        <time>2016-07-24T10:03:51Z</time>
      </trkpt>
      <trkpt lat="42.39427" lon="0.05576">
        <ele>733.8</ele>
        <time>2016-07-24T10:03:53Z</time>
      </trkpt>
      <trkpt lat="42.3943" lon="0.05575">
        <ele>734.3</ele>
        <time>2016-07-24T10:03:55Z</time>
      </trkpt>
      <trkpt lat="42.39434" lon="0.05574">
        <ele>735</ele>
        <time>2016-07-24T10:03:57Z</time>
      </trkpt>
      <trkpt lat="42.39438" lon="0.05573">
        <ele>735.7</ele>
        <time>2016-07-24T10:03:59Z</time>
      </trkpt>
      <trkpt lat="42.39442" lon="0.05573">
        <ele>736.3</ele>
        <time>2016-07-24T10:04:01Z</time>
      </trkpt>
      <trkpt lat="42.39446" lon="0.05573">
        <ele>737</ele>
        <time>2016-07-24T10:04:03Z</time>
      </trkpt>
      <trkpt lat="42.3945" lon="0.05573">
        <ele>737.6</ele>
        <time>2016-07-24T10:04:05Z</time>
      </trkpt>
      <trkpt lat="42.39453" lon="0.05573">
        <ele>738.2</ele>
        <time>2016-07-24T10:04:07Z</time>
      </trkpt>
      <trkpt lat="42.39457" lon="0.05572">
        <ele>738.9</ele>
        <time>2016-07-24T10:04:09Z</time>
      </trkpt>
      <trkpt lat="42.3946" lon="0.0557">
        <ele>739.4</ele>
        <time>2016-07-24T10:04:11Z</time>
      </trkpt>
      <trkpt lat="42.39464" lon="0.0557">
        <ele>739.7</ele>
        <time>2016-07-24T10:04:13Z</time>
      </trkpt>
      <trkpt lat="42.39468" lon="0.05569">
        <ele>740</ele>
        <time>2016-07-24T10:04:15Z</time>
      </trkpt>
      <trkpt lat="42.39472" lon="0.0557">
        <ele>740.3</ele>
        <time>2016-07-24T10:04:17Z</time>
      </trkpt>
      <trkpt lat="42.39476" lon="0.05571">
        <ele>740.5</ele>
        <time>2016-07-24T10:04:19Z</time>
      </trkpt>
      <trkpt lat="42.3948" lon="0.05571">
        <ele>740.7</ele>
        <time>2016-07-24T10:04:21Z</time>
      </trkpt>
      <trkpt lat="42.39484" lon="0.05571">
        <ele>741</ele>
        <time>2016-07-24T10:04:23Z</time>
      </trkpt>
      <trkpt lat="42.39488" lon="0.05571">
        <ele>741.3</ele>
        <time>2016-07-24T10:04:25Z</time>
      </trkpt>
      <trkpt lat="42.39491" lon="0.05571">
        <ele>741.6</ele>
        <time>2016-07-24T10:04:27Z</time>
      </trkpt>
      <trkpt lat="42.39495" lon="0.0557">
        <ele>741.9</ele>
        <time>2016-07-24T10:04:29Z</time>
      </trkpt>
      <trkpt lat="42.39498" lon="0.05571">
        <ele>742.1</ele>
        <time>2016-07-24T10:04:31Z</time>
      </trkpt>
      <trkpt lat="42.39502" lon="0.0557">
        <ele>742.4</ele>
        <time>2016-07-24T10:04:33Z</time>
      </trkpt>
      <trkpt lat="42.39505" lon="0.0557">
        <ele>742.7</ele>
        <time>2016-07-24T10:04:35Z</time>
      </trkpt>
      <trkpt lat="42.39509" lon="0.0557">
        <ele>743</ele>
        <time>2016-07-24T10:04:37Z</time>
      </trkpt>
      <trkpt lat="42.39513" lon="0.0557">
        <ele>743.3</ele>
        <time>2016-07-24T10:04:39Z</time>
      </trkpt>
      <trkpt lat="42.39517" lon="0.05569">
        <ele>743.6</ele>
        <time>2016-07-24T10:04:41Z</time>
      </trkpt>
      <trkpt lat="42.39521" lon="0.05569">
        <ele>743.9</ele>
        <time>2016-07-24T10:04:43Z</time>
      </trkpt>
      <trkpt lat="42.39525" lon="0.0557">
        <ele>744.1</ele>
        <time>2016-07-24T10:04:45Z</time>
      </trkpt>
      <trkpt lat="42.3953" lon="0.0557">
        <ele>744.4</ele>
        <time>2016-07-24T10:04:47Z</time>
      </trkpt>
      <trkpt lat="42.39533" lon="0.0557">
        <ele>744.7</ele>
        <time>2016-07-24T10:04:49Z</time>
      </trkpt>
      <trkpt lat="42.39537" lon="0.05569">
        <ele>745</ele>
        <time>2016-07-24T10:04:51Z</time>
      </trkpt>
      <trkpt lat="42.39541" lon="0.05569">
        <ele>745.3</ele>
        <time>2016-07-24T10:04:53Z</time>
      </trkpt>
      <trkpt lat="42.39544" lon="0.05568">
        <ele>745.5</ele>
        <time>2016-07-24T10:04:55Z</time>
      </trkpt>
      <trkpt lat="42.39548" lon="0.05568">
        <ele>745.5</ele>
        <time>2016-07-24T10:04:57Z</time>
      </trkpt>
      <trkpt lat="42.39551" lon="0.05568">
        <ele>745.6</ele>
        <time>2016-07-24T10:04:59Z</time>
      </trkpt>
      <trkpt lat="42.39554" lon="0.05568">
        <ele>745.6</ele>
        <time>2016-07-24T10:05:01Z</time>
      </trkpt>
      <trkpt lat="42.39558" lon="0.05568">
        <ele>745.6</ele>
        <time>2016-07-24T10:05:03Z</time>
      </trkpt>
      <trkpt lat="42.39562" lon="0.05568">
        <ele>745.7</ele>
        <time>2016-07-24T10:05:05Z</time>
      </trkpt>
      <trkpt lat="42.39565" lon="0.05567">
        <ele>745.8</ele>
        <time>2016-07-24T10:05:07Z</time>
      </trkpt>
      <trkpt lat="42.3957" lon="0.05567">
        <ele>745.9</ele>
        <time>2016-07-24T10:05:09Z</time>
      </trkpt>
      <trkpt lat="42.39574" lon="0.05567">
        <ele>745.9</ele>
        <time>2016-07-24T10:05:11Z</time>
      </trkpt>
      <trkpt lat="42.39578" lon="0.05566">
        <ele>746</ele>
        <time>2016-07-24T10:05:13Z</time>
      </trkpt>
      <trkpt lat="42.39582" lon="0.05566">
        <ele>746</ele>
        <time>2016-07-24T10:05:15Z</time>
      </trkpt>
      <trkpt lat="42.39586" lon="0.05565">
        <ele>746.1</ele>
        <time>2016-07-24T10:05:17Z</time>
      </trkpt>
      <trkpt lat="42.39589" lon="0.05565">
        <ele>746.2</ele>
        <time>2016-07-24T10:05:19Z</time>
      </trkpt>
      <trkpt lat="42.39592" lon="0.05564">
        <ele>746.2</ele>
        <time>2016-07-24T10:05:21Z</time>
      </trkpt>
      <trkpt lat="42.39596" lon="0.05564">
        <ele>746.3</ele>
        <time>2016-07-24T10:05:23Z</time>
      </trkpt>
      <trkpt lat="42.396" lon="0.05564">
        <ele>746.3</ele>
        <time>2016-07-24T10:05:25Z</time>
      </trkpt>
      <trkpt lat="42.39603" lon="0.05564">
        <ele>746.3</ele>
        <time>2016-07-24T10:05:27Z</time>
      </trkpt>
      <trkpt lat="42.39608" lon="0.05564">
        <ele>746.3</ele>
        <time>2016-07-24T10:05:29Z</time>
      </trkpt>
      <trkpt lat="42.39612" lon="0.05564">
        <ele>746.4</ele>
        <time>2016-07-24T10:05:31Z</time>
      </trkpt>
      <trkpt lat="42.39616" lon="0.05563">
        <ele>746.4</ele>
        <time>2016-07-24T10:05:33Z</time>
      </trkpt>
      <trkpt lat="42.3962" lon="0.05563">
        <ele>746.5</ele>
        <time>2016-07-24T10:05:35Z</time>
      </trkpt>
      <trkpt lat="42.39624" lon="0.05563">
        <ele>746.5</ele>
        <time>2016-07-24T10:05:37Z</time>
      </trkpt>
      <trkpt lat="42.39628" lon="0.05562">
        <ele>746.4</ele>
        <time>2016-07-24T10:05:39Z</time>
      </trkpt>
      <trkpt lat="42.39632" lon="0.05561">
        <ele>746.3</ele>
        <time>2016-07-24T10:05:41Z</time>
      </trkpt>
      <trkpt lat="42.39636" lon="0.0556">
        <ele>746.3</ele>
        <time>2016-07-24T10:05:43Z</time>
      </trkpt>
      <trkpt lat="42.3964" lon="0.05558">
        <ele>746.2</ele>
        <time>2016-07-24T10:05:45Z</time>
      </trkpt>
      <trkpt lat="42.39644" lon="0.05556">
        <ele>746.1</ele>
        <time>2016-07-24T10:05:47Z</time>
      </trkpt>
      <trkpt lat="42.39648" lon="0.05554">
        <ele>746</ele>
        <time>2016-07-24T10:05:49Z</time>
      </trkpt>
      <trkpt lat="42.39652" lon="0.05552">
        <ele>745.9</ele>
        <time>2016-07-24T10:05:51Z</time>
      </trkpt>
      <trkpt lat="42.39655" lon="0.0555">
        <ele>745.8</ele>
        <time>2016-07-24T10:05:53Z</time>
      </trkpt>
      <trkpt lat="42.39659" lon="0.05548">
        <ele>745.7</ele>
        <time>2016-07-24T10:05:55Z</time>
      </trkpt>
      <trkpt lat="42.39663" lon="0.05547">
        <ele>745.6</ele>
        <time>2016-07-24T10:05:57Z</time>
      </trkpt>
      <trkpt lat="42.39667" lon="0.05546">
        <ele>745.5</ele>
        <time>2016-07-24T10:05:59Z</time>
      </trkpt>
      <trkpt lat="42.39671" lon="0.05545">
        <ele>745.3</ele>
        <time>2016-07-24T10:06:01Z</time>
      </trkpt>
      <trkpt lat="42.39675" lon="0.05544">
        <ele>745.2</ele>
        <time>2016-07-24T10:06:03Z</time>
      </trkpt>
      <trkpt lat="42.39678" lon="0.05543">
        <ele>745.1</ele>
        <time>2016-07-24T10:06:05Z</time>
      </trkpt>
      <trkpt lat="42.39683" lon="0.05543">
        <ele>744.9</ele>
        <time>2016-07-24T10:06:07Z</time>
      </trkpt>
      <trkpt lat="42.39687" lon="0.05542">
        <ele>744.8</ele>
        <time>2016-07-24T10:06:09Z</time>
      </trkpt>
      <trkpt lat="42.39691" lon="0.05542">
        <ele>744.6</ele>
        <time>2016-07-24T10:06:11Z</time>
      </trkpt>
      <trkpt lat="42.39695" lon="0.05541">
        <ele>744.2</ele>
        <time>2016-07-24T10:06:13Z</time>
      </trkpt>
      <trkpt lat="42.39699" lon="0.0554">
        <ele>743.8</ele>
        <time>2016-07-24T10:06:15Z</time>
      </trkpt>
      <trkpt lat="42.39704" lon="0.0554">
        <ele>743.6</ele>
        <time>2016-07-24T10:06:17Z</time>
      </trkpt>
      <trkpt lat="42.39709" lon="0.05539">
        <ele>743.2</ele>
        <time>2016-07-24T10:06:19Z</time>
      </trkpt>
      <trkpt lat="42.39713" lon="0.05539">
        <ele>743.4</ele>
        <time>2016-07-24T10:06:21Z</time>
      </trkpt>
      <trkpt lat="42.39718" lon="0.05539">
        <ele>743.9</ele>
        <time>2016-07-24T10:06:23Z</time>
      </trkpt>
      <trkpt lat="42.39723" lon="0.0554">
        <ele>744.4</ele>
        <time>2016-07-24T10:06:25Z</time>
      </trkpt>
      <trkpt lat="42.39726" lon="0.0554">
        <ele>744.7</ele>
        <time>2016-07-24T10:06:26Z</time>
      </trkpt>
      <trkpt lat="42.39729" lon="0.05541">
        <ele>744.9</ele>
        <time>2016-07-24T10:06:27Z</time>
      </trkpt>
      <trkpt lat="42.39732" lon="0.05541">
        <ele>745.2</ele>
        <time>2016-07-24T10:06:28Z</time>
      </trkpt>
      <trkpt lat="42.39735" lon="0.05542">
        <ele>745.6</ele>
        <time>2016-07-24T10:06:29Z</time>
      </trkpt>
      <trkpt lat="42.39738" lon="0.05543">
        <ele>745.7</ele>
        <time>2016-07-24T10:06:30Z</time>
      </trkpt>
      <trkpt lat="42.3974" lon="0.05543">
        <ele>745.9</ele>
        <time>2016-07-24T10:06:31Z</time>
      </trkpt>
      <trkpt lat="42.39743" lon="0.05543">
        <ele>746</ele>
        <time>2016-07-24T10:06:32Z</time>
      </trkpt>
      <trkpt lat="42.39746" lon="0.05543">
        <ele>746.2</ele>
        <time>2016-07-24T10:06:33Z</time>
      </trkpt>
      <trkpt lat="42.39749" lon="0.05544">
        <ele>746.4</ele>
        <time>2016-07-24T10:06:34Z</time>
      </trkpt>
      <trkpt lat="42.39753" lon="0.05543">
        <ele>746.6</ele>
        <time>2016-07-24T10:06:35Z</time>
      </trkpt>
      <trkpt lat="42.39756" lon="0.05543">
        <ele>746.8</ele>
        <time>2016-07-24T10:06:36Z</time>
      </trkpt>
      <trkpt lat="42.3976" lon="0.05543">
        <ele>747.1</ele>
        <time>2016-07-24T10:06:37Z</time>
      </trkpt>
      <trkpt lat="42.39764" lon="0.05542">
        <ele>747.3</ele>
        <time>2016-07-24T10:06:38Z</time>
      </trkpt>
      <trkpt lat="42.39768" lon="0.05542">
        <ele>747.5</ele>
        <time>2016-07-24T10:06:39Z</time>
      </trkpt>
      <trkpt lat="42.39772" lon="0.05542">
        <ele>747.8</ele>
        <time>2016-07-24T10:06:40Z</time>
      </trkpt>
      <trkpt lat="42.39775" lon="0.05542">
        <ele>748</ele>
        <time>2016-07-24T10:06:41Z</time>
      </trkpt>
      <trkpt lat="42.39779" lon="0.05543">
        <ele>748.2</ele>
        <time>2016-07-24T10:06:42Z</time>
      </trkpt>
      <trkpt lat="42.39783" lon="0.05543">
        <ele>748.4</ele>
        <time>2016-07-24T10:06:43Z</time>
      </trkpt>
      <trkpt lat="42.39786" lon="0.05543">
        <ele>748.6</ele>
        <time>2016-07-24T10:06:44Z</time>
      </trkpt>
      <trkpt lat="42.3979" lon="0.05543">
        <ele>748.8</ele>
        <time>2016-07-24T10:06:45Z</time>
      </trkpt>
      <trkpt lat="42.39794" lon="0.05544">
        <ele>749</ele>
        <time>2016-07-24T10:06:46Z</time>
      </trkpt>
      <trkpt lat="42.39798" lon="0.05544">
        <ele>749.2</ele>
        <time>2016-07-24T10:06:47Z</time>
      </trkpt>
      <trkpt lat="42.39802" lon="0.05544">
        <ele>749.4</ele>
        <time>2016-07-24T10:06:48Z</time>
      </trkpt>
      <trkpt lat="42.39805" lon="0.05545">
        <ele>749.6</ele>
        <time>2016-07-24T10:06:49Z</time>
      </trkpt>
      <trkpt lat="42.39808" lon="0.05545">
        <ele>749.8</ele>
        <time>2016-07-24T10:06:50Z</time>
      </trkpt>
      <trkpt lat="42.39813" lon="0.05545">
        <ele>750.1</ele>
        <time>2016-07-24T10:06:52Z</time>
      </trkpt>
      <trkpt lat="42.39817" lon="0.05544">
        <ele>750.3</ele>
        <time>2016-07-24T10:06:54Z</time>
      </trkpt>
      <trkpt lat="42.3982" lon="0.05543">
        <ele>750.6</ele>
        <time>2016-07-24T10:06:56Z</time>
      </trkpt>
      <trkpt lat="42.39824" lon="0.05543">
        <ele>750.8</ele>
        <time>2016-07-24T10:06:58Z</time>
      </trkpt>
      <trkpt lat="42.39827" lon="0.05544">
        <ele>751</ele>
        <time>2016-07-24T10:07:00Z</time>
      </trkpt>
      <trkpt lat="42.3983" lon="0.05544">
        <ele>751.1</ele>
        <time>2016-07-24T10:07:02Z</time>
      </trkpt>
      <trkpt lat="42.39833" lon="0.05543">
        <ele>751.4</ele>
        <time>2016-07-24T10:07:04Z</time>
      </trkpt>
      <trkpt lat="42.39836" lon="0.05543">
        <ele>751.6</ele>
        <time>2016-07-24T10:07:06Z</time>
      </trkpt>
      <trkpt lat="42.39839" lon="0.05543">
        <ele>751.8</ele>
        <time>2016-07-24T10:07:08Z</time>
      </trkpt>
      <trkpt lat="42.39842" lon="0.05543">
        <ele>752</ele>
        <time>2016-07-24T10:07:10Z</time>
      </trkpt>
      <trkpt lat="42.39846" lon="0.05543">
        <ele>752.1</ele>
        <time>2016-07-24T10:07:12Z</time>
      </trkpt>
      <trkpt lat="42.39849" lon="0.05544">
        <ele>752.3</ele>
        <time>2016-07-24T10:07:14Z</time>
      </trkpt>
      <trkpt lat="42.39852" lon="0.05544">
        <ele>752.5</ele>
        <time>2016-07-24T10:07:16Z</time>
      </trkpt>
      <trkpt lat="42.39855" lon="0.05544">
        <ele>752.7</ele>
        <time>2016-07-24T10:07:18Z</time>
      </trkpt>
      <trkpt lat="42.39859" lon="0.05543">
        <ele>753</ele>
        <time>2016-07-24T10:07:20Z</time>
      </trkpt>
      <trkpt lat="42.39862" lon="0.05542">
        <ele>753.2</ele>
        <time>2016-07-24T10:07:22Z</time>
      </trkpt>
      <trkpt lat="42.39865" lon="0.05542">
        <ele>753.4</ele>
        <time>2016-07-24T10:07:24Z</time>
      </trkpt>
      <trkpt lat="42.39868" lon="0.05543">
        <ele>753.5</ele>
        <time>2016-07-24T10:07:26Z</time>
      </trkpt>
      <trkpt lat="42.39871" lon="0.05544">
        <ele>753.6</ele>
        <time>2016-07-24T10:07:28Z</time>
      </trkpt>
      <trkpt lat="42.39874" lon="0.05544">
        <ele>753.8</ele>
        <time>2016-07-24T10:07:30Z</time>
      </trkpt>
      <trkpt lat="42.39877" lon="0.05543">
        <ele>754.1</ele>
        <time>2016-07-24T10:07:32Z</time>
      </trkpt>
      <trkpt lat="42.39881" lon="0.05542">
        <ele>754.6</ele>
        <time>2016-07-24T10:07:34Z</time>
      </trkpt>
      <trkpt lat="42.39886" lon="0.05541">
        <ele>755</ele>
        <time>2016-07-24T10:07:36Z</time>
      </trkpt>
      <trkpt lat="42.3989" lon="0.0554">
        <ele>755.2</ele>
        <time>2016-07-24T10:07:38Z</time>
      </trkpt>
      <trkpt lat="42.39894" lon="0.05539">
        <ele>755.4</ele>
        <time>2016-07-24T10:07:40Z</time>
      </trkpt>
      <trkpt lat="42.39897" lon="0.05538">
        <ele>755.4</ele>
        <time>2016-07-24T10:07:42Z</time>
      </trkpt>
      <trkpt lat="42.399" lon="0.05535">
        <ele>755</ele>
        <time>2016-07-24T10:07:45Z</time>
      </trkpt>
      <trkpt lat="42.39903" lon="0.05531">
        <ele>754.5</ele>
        <time>2016-07-24T10:07:48Z</time>
      </trkpt>
      <trkpt lat="42.39905" lon="0.05528">
        <ele>754.1</ele>
        <time>2016-07-24T10:07:53Z</time>
      </trkpt>
      <trkpt lat="42.39907" lon="0.05527">
        <ele>754</ele>
        <time>2016-07-24T10:07:56Z</time>
      </trkpt>
      <trkpt lat="42.3991" lon="0.05526">
        <ele>754</ele>
        <time>2016-07-24T10:07:59Z</time>
      </trkpt>
      <trkpt lat="42.39914" lon="0.05524">
        <ele>754.1</ele>
        <time>2016-07-24T10:08:02Z</time>
      </trkpt>
      <trkpt lat="42.39917" lon="0.05524">
        <ele>754.4</ele>
        <time>2016-07-24T10:08:04Z</time>
      </trkpt>
      <trkpt lat="42.39921" lon="0.05524">
        <ele>754.8</ele>
        <time>2016-07-24T10:08:06Z</time>
      </trkpt>
      <trkpt lat="42.39924" lon="0.05524">
        <ele>755.1</ele>
        <time>2016-07-24T10:08:08Z</time>
      </trkpt>
      <trkpt lat="42.39927" lon="0.05524">
        <ele>755.4</ele>
        <time>2016-07-24T10:08:10Z</time>
      </trkpt>
      <trkpt lat="42.3993" lon="0.05525">
        <ele>755.9</ele>
        <time>2016-07-24T10:08:12Z</time>
      </trkpt>
      <trkpt lat="42.39933" lon="0.05526">
        <ele>756.5</ele>
        <time>2016-07-24T10:08:14Z</time>
      </trkpt>
      <trkpt lat="42.39936" lon="0.05526">
        <ele>757</ele>
        <time>2016-07-24T10:08:16Z</time>
      </trkpt>
      <trkpt lat="42.39939" lon="0.05527">
        <ele>757.4</ele>
        <time>2016-07-24T10:08:18Z</time>
      </trkpt>
      <trkpt lat="42.39943" lon="0.05528">
        <ele>758.2</ele>
        <time>2016-07-24T10:08:21Z</time>
      </trkpt>
      <trkpt lat="42.39946" lon="0.0553">
        <ele>758.8</ele>
        <time>2016-07-24T10:08:23Z</time>
      </trkpt>
      <trkpt lat="42.39949" lon="0.0553">
        <ele>759.3</ele>
        <time>2016-07-24T10:08:25Z</time>
      </trkpt>
      <trkpt lat="42.39952" lon="0.05531">
        <ele>759.7</ele>
        <time>2016-07-24T10:08:27Z</time>
      </trkpt>
      <trkpt lat="42.39955" lon="0.05531">
        <ele>760.1</ele>
        <time>2016-07-24T10:08:29Z</time>
      </trkpt>
      <trkpt lat="42.39958" lon="0.05532">
        <ele>760.7</ele>
        <time>2016-07-24T10:08:39Z</time>
      </trkpt>
      <trkpt lat="42.39962" lon="0.05531">
        <ele>761</ele>
        <time>2016-07-24T10:08:42Z</time>
      </trkpt>
      <trkpt lat="42.39966" lon="0.05532">
        <ele>761.4</ele>
        <time>2016-07-24T10:08:44Z</time>
      </trkpt>
      <trkpt lat="42.39968" lon="0.05532">
        <ele>761.9</ele>
        <time>2016-07-24T10:08:47Z</time>
      </trkpt>
      <trkpt lat="42.39972" lon="0.05532">
        <ele>762.2</ele>
        <time>2016-07-24T10:08:51Z</time>
      </trkpt>
      <trkpt lat="42.39976" lon="0.05531">
        <ele>762.4</ele>
        <time>2016-07-24T10:08:53Z</time>
      </trkpt>
      <trkpt lat="42.39981" lon="0.0553">
        <ele>762.7</ele>
        <time>2016-07-24T10:08:55Z</time>
      </trkpt>
      <trkpt lat="42.39984" lon="0.05529">
        <ele>763</ele>
        <time>2016-07-24T10:08:57Z</time>
      </trkpt>
      <trkpt lat="42.39988" lon="0.0553">
        <ele>763.5</ele>
        <time>2016-07-24T10:08:59Z</time>
      </trkpt>
      <trkpt lat="42.39993" lon="0.0553">
        <ele>764.1</ele>
        <time>2016-07-24T10:09:01Z</time>
      </trkpt>
      <trkpt lat="42.39997" lon="0.05531">
        <ele>764.7</ele>
        <time>2016-07-24T10:09:03Z</time>
      </trkpt>
      <trkpt lat="42.40001" lon="0.05531">
        <ele>765.3</ele>
        <time>2016-07-24T10:09:05Z</time>
      </trkpt>
      <trkpt lat="42.40005" lon="0.05531">
        <ele>765.8</ele>
        <time>2016-07-24T10:09:07Z</time>
      </trkpt>
      <trkpt lat="42.4001" lon="0.05531">
        <ele>766.3</ele>
        <time>2016-07-24T10:09:09Z</time>
      </trkpt>
      <trkpt lat="42.40014" lon="0.05531">
        <ele>766.7</ele>
        <time>2016-07-24T10:09:11Z</time>
      </trkpt>
      <trkpt lat="42.40018" lon="0.05531">
        <ele>767.1</ele>
        <time>2016-07-24T10:09:13Z</time>
      </trkpt>
      <trkpt lat="42.40022" lon="0.05531">
        <ele>767.5</ele>
        <time>2016-07-24T10:09:15Z</time>
      </trkpt>
      <trkpt lat="42.40026" lon="0.0553">
        <ele>767.8</ele>
        <time>2016-07-24T10:09:17Z</time>
      </trkpt>
      <trkpt lat="42.4003" lon="0.0553">
        <ele>768.2</ele>
        <time>2016-07-24T10:09:19Z</time>
      </trkpt>
      <trkpt lat="42.40034" lon="0.05529">
        <ele>768.5</ele>
        <time>2016-07-24T10:09:21Z</time>
      </trkpt>
      <trkpt lat="42.40039" lon="0.05529">
        <ele>769.1</ele>
        <time>2016-07-24T10:09:23Z</time>
      </trkpt>
      <trkpt lat="42.40042" lon="0.05529">
        <ele>769.5</ele>
        <time>2016-07-24T10:09:24Z</time>
      </trkpt>
      <trkpt lat="42.40045" lon="0.05529">
        <ele>769.7</ele>
        <time>2016-07-24T10:09:25Z</time>
      </trkpt>
      <trkpt lat="42.40048" lon="0.05529">
        <ele>769.9</ele>
        <time>2016-07-24T10:09:26Z</time>
      </trkpt>
      <trkpt lat="42.4005" lon="0.05528">
        <ele>769.9</ele>
        <time>2016-07-24T10:09:27Z</time>
      </trkpt>
      <trkpt lat="42.40053" lon="0.05527">
        <ele>770</ele>
        <time>2016-07-24T10:09:28Z</time>
      </trkpt>
      <trkpt lat="42.40056" lon="0.05526">
        <ele>770</ele>
        <time>2016-07-24T10:09:29Z</time>
      </trkpt>
      <trkpt lat="42.40058" lon="0.05525">
        <ele>770.1</ele>
        <time>2016-07-24T10:09:30Z</time>
      </trkpt>
      <trkpt lat="42.40064" lon="0.05523">
        <ele>770</ele>
        <time>2016-07-24T10:09:32Z</time>
      </trkpt>
      <trkpt lat="42.40067" lon="0.05521">
        <ele>769.8</ele>
        <time>2016-07-24T10:09:33Z</time>
      </trkpt>
      <trkpt lat="42.40069" lon="0.05519">
        <ele>769.4</ele>
        <time>2016-07-24T10:09:34Z</time>
      </trkpt>
      <trkpt lat="42.40072" lon="0.05516">
        <ele>769.1</ele>
        <time>2016-07-24T10:09:35Z</time>
      </trkpt>
      <trkpt lat="42.40075" lon="0.05514">
        <ele>768.9</ele>
        <time>2016-07-24T10:09:36Z</time>
      </trkpt>
      <trkpt lat="42.40079" lon="0.05512">
        <ele>768.8</ele>
        <time>2016-07-24T10:09:37Z</time>
      </trkpt>
      <trkpt lat="42.40082" lon="0.05511">
        <ele>768.8</ele>
        <time>2016-07-24T10:09:38Z</time>
      </trkpt>
      <trkpt lat="42.40085" lon="0.05509">
        <ele>768.8</ele>
        <time>2016-07-24T10:09:39Z</time>
      </trkpt>
      <trkpt lat="42.40088" lon="0.05508">
        <ele>768.8</ele>
        <time>2016-07-24T10:09:40Z</time>
      </trkpt>
      <trkpt lat="42.40091" lon="0.05507">
        <ele>769</ele>
        <time>2016-07-24T10:09:41Z</time>
      </trkpt>
      <trkpt lat="42.40094" lon="0.05507">
        <ele>769.2</ele>
        <time>2016-07-24T10:09:42Z</time>
      </trkpt>
      <trkpt lat="42.40098" lon="0.05506">
        <ele>769.5</ele>
        <time>2016-07-24T10:09:43Z</time>
      </trkpt>
      <trkpt lat="42.40101" lon="0.05505">
        <ele>769.7</ele>
        <time>2016-07-24T10:09:44Z</time>
      </trkpt>
      <trkpt lat="42.40105" lon="0.05503">
        <ele>769.7</ele>
        <time>2016-07-24T10:09:45Z</time>
      </trkpt>
      <trkpt lat="42.4011" lon="0.05501">
        <ele>769.9</ele>
        <time>2016-07-24T10:09:46Z</time>
      </trkpt>
      <trkpt lat="42.40114" lon="0.055">
        <ele>770</ele>
        <time>2016-07-24T10:09:47Z</time>
      </trkpt>
      <trkpt lat="42.40118" lon="0.05498">
        <ele>770.1</ele>
        <time>2016-07-24T10:09:48Z</time>
      </trkpt>
      <trkpt lat="42.40122" lon="0.05496">
        <ele>770.2</ele>
        <time>2016-07-24T10:09:49Z</time>
      </trkpt>
      <trkpt lat="42.40125" lon="0.05494">
        <ele>770.3</ele>
        <time>2016-07-24T10:09:50Z</time>
      </trkpt>
      <trkpt lat="42.40129" lon="0.05493">
        <ele>770.4</ele>
        <time>2016-07-24T10:09:51Z</time>
      </trkpt>
      <trkpt lat="42.40132" lon="0.05492">
        <ele>770.6</ele>
        <time>2016-07-24T10:09:52Z</time>
      </trkpt>
      <trkpt lat="42.40135" lon="0.05491">
        <ele>770.9</ele>
        <time>2016-07-24T10:09:53Z</time>
      </trkpt>
      <trkpt lat="42.40139" lon="0.0549">
        <ele>771.4</ele>
        <time>2016-07-24T10:09:55Z</time>
      </trkpt>
      <trkpt lat="42.40144" lon="0.05488">
        <ele>771.7</ele>
        <time>2016-07-24T10:09:57Z</time>
      </trkpt>
      <trkpt lat="42.40148" lon="0.05486">
        <ele>771.8</ele>
        <time>2016-07-24T10:09:59Z</time>
      </trkpt>
      <trkpt lat="42.40152" lon="0.05484">
        <ele>771.9</ele>
        <time>2016-07-24T10:10:01Z</time>
      </trkpt>
      <trkpt lat="42.40156" lon="0.05482">
        <ele>772</ele>
        <time>2016-07-24T10:10:03Z</time>
      </trkpt>
      <trkpt lat="42.40161" lon="0.05479">
        <ele>772.1</ele>
        <time>2016-07-24T10:10:05Z</time>
      </trkpt>
      <trkpt lat="42.40166" lon="0.05476">
        <ele>772</ele>
        <time>2016-07-24T10:10:07Z</time>
      </trkpt>
      <trkpt lat="42.40169" lon="0.05474">
        <ele>772.1</ele>
        <time>2016-07-24T10:10:08Z</time>
      </trkpt>
      <trkpt lat="42.40172" lon="0.05473">
        <ele>772.4</ele>
        <time>2016-07-24T10:10:09Z</time>
      </trkpt>
      <trkpt lat="42.40175" lon="0.05473">
        <ele>772.8</ele>
        <time>2016-07-24T10:10:10Z</time>
      </trkpt>
      <trkpt lat="42.40178" lon="0.05473">
        <ele>773.2</ele>
        <time>2016-07-24T10:10:11Z</time>
      </trkpt>
      <trkpt lat="42.40181" lon="0.05473">
        <ele>773.6</ele>
        <time>2016-07-24T10:10:12Z</time>
      </trkpt>
      <trkpt lat="42.40184" lon="0.05474">
        <ele>774.3</ele>
        <time>2016-07-24T10:10:13Z</time>
      </trkpt>
      <trkpt lat="42.40187" lon="0.05474">
        <ele>774.9</ele>
        <time>2016-07-24T10:10:14Z</time>
      </trkpt>
      <trkpt lat="42.40191" lon="0.05474">
        <ele>775.4</ele>
        <time>2016-07-24T10:10:15Z</time>
      </trkpt>
      <trkpt lat="42.40194" lon="0.05474">
        <ele>775.8</ele>
        <time>2016-07-24T10:10:16Z</time>
      </trkpt>
      <trkpt lat="42.40198" lon="0.05473">
        <ele>776.1</ele>
        <time>2016-07-24T10:10:17Z</time>
      </trkpt>
      <trkpt lat="42.40201" lon="0.05472">
        <ele>776.4</ele>
        <time>2016-07-24T10:10:18Z</time>
      </trkpt>
      <trkpt lat="42.40204" lon="0.05472">
        <ele>776.7</ele>
        <time>2016-07-24T10:10:19Z</time>
      </trkpt>
      <trkpt lat="42.40207" lon="0.05471">
        <ele>777</ele>
        <time>2016-07-24T10:10:20Z</time>
      </trkpt>
      <trkpt lat="42.4021" lon="0.0547">
        <ele>777</ele>
        <time>2016-07-24T10:10:21Z</time>
      </trkpt>
      <trkpt lat="42.40213" lon="0.05469">
        <ele>776.9</ele>
        <time>2016-07-24T10:10:22Z</time>
      </trkpt>
      <trkpt lat="42.40216" lon="0.05468">
        <ele>776.9</ele>
        <time>2016-07-24T10:10:23Z</time>
      </trkpt>
      <trkpt lat="42.40219" lon="0.05468">
        <ele>777</ele>
        <time>2016-07-24T10:10:24Z</time>
      </trkpt>
      <trkpt lat="42.40222" lon="0.05468">
        <ele>777.2</ele>
        <time>2016-07-24T10:10:25Z</time>
      </trkpt>
      <trkpt lat="42.40225" lon="0.05469">
        <ele>777.5</ele>
        <time>2016-07-24T10:10:26Z</time>
      </trkpt>
      <trkpt lat="42.40229" lon="0.0547">
        <ele>777.9</ele>
        <time>2016-07-24T10:10:27Z</time>
      </trkpt>
      <trkpt lat="42.40233" lon="0.0547">
        <ele>778.1</ele>
        <time>2016-07-24T10:10:28Z</time>
      </trkpt>
      <trkpt lat="42.40238" lon="0.05469">
        <ele>778.1</ele>
        <time>2016-07-24T10:10:29Z</time>
      </trkpt>
      <trkpt lat="42.40242" lon="0.05468">
        <ele>778.2</ele>
        <time>2016-07-24T10:10:30Z</time>
      </trkpt>
      <trkpt lat="42.40247" lon="0.05467">
        <ele>778.1</ele>
        <time>2016-07-24T10:10:31Z</time>
      </trkpt>
      <trkpt lat="42.40251" lon="0.05465">
        <ele>777.8</ele>
        <time>2016-07-24T10:10:32Z</time>
      </trkpt>
      <trkpt lat="42.40255" lon="0.05463">
        <ele>777.5</ele>
        <time>2016-07-24T10:10:33Z</time>
      </trkpt>
      <trkpt lat="42.40259" lon="0.05461">
        <ele>777.2</ele>
        <time>2016-07-24T10:10:34Z</time>
      </trkpt>
      <trkpt lat="42.40263" lon="0.05459">
        <ele>776.9</ele>
        <time>2016-07-24T10:10:35Z</time>
      </trkpt>
      <trkpt lat="42.40267" lon="0.05458">
        <ele>776.7</ele>
        <time>2016-07-24T10:10:36Z</time>
      </trkpt>
      <trkpt lat="42.40272" lon="0.05456">
        <ele>776.5</ele>
        <time>2016-07-24T10:10:37Z</time>
      </trkpt>
      <trkpt lat="42.40276" lon="0.05456">
        <ele>776.5</ele>
        <time>2016-07-24T10:10:38Z</time>
      </trkpt>
      <trkpt lat="42.40279" lon="0.05456">
        <ele>776.7</ele>
        <time>2016-07-24T10:10:39Z</time>
      </trkpt>
      <trkpt lat="42.40283" lon="0.05456">
        <ele>777</ele>
        <time>2016-07-24T10:10:40Z</time>
      </trkpt>
      <trkpt lat="42.40287" lon="0.05457">
        <ele>777.4</ele>
        <time>2016-07-24T10:10:41Z</time>
      </trkpt>
      <trkpt lat="42.40291" lon="0.05458">
        <ele>777.9</ele>
        <time>2016-07-24T10:10:42Z</time>
      </trkpt>
      <trkpt lat="42.40295" lon="0.0546">
        <ele>778.2</ele>
        <time>2016-07-24T10:10:43Z</time>
      </trkpt>
      <trkpt lat="42.40299" lon="0.05462">
        <ele>778.7</ele>
        <time>2016-07-24T10:10:44Z</time>
      </trkpt>
      <trkpt lat="42.40303" lon="0.05464">
        <ele>779.2</ele>
        <time>2016-07-24T10:10:45Z</time>
      </trkpt>
      <trkpt lat="42.40307" lon="0.05466">
        <ele>779.7</ele>
        <time>2016-07-24T10:10:46Z</time>
      </trkpt>
      <trkpt lat="42.4031" lon="0.05469">
        <ele>780.2</ele>
        <time>2016-07-24T10:10:47Z</time>
      </trkpt>
      <trkpt lat="42.40314" lon="0.0547">
        <ele>780.5</ele>
        <time>2016-07-24T10:10:48Z</time>
      </trkpt>
      <trkpt lat="42.40318" lon="0.05471">
        <ele>780.7</ele>
        <time>2016-07-24T10:10:49Z</time>
      </trkpt>
      <trkpt lat="42.40322" lon="0.05472">
        <ele>780.7</ele>
        <time>2016-07-24T10:10:50Z</time>
      </trkpt>
      <trkpt lat="42.40326" lon="0.05472">
        <ele>780.7</ele>
        <time>2016-07-24T10:10:51Z</time>
      </trkpt>
      <trkpt lat="42.4033" lon="0.05472">
        <ele>780.7</ele>
        <time>2016-07-24T10:10:52Z</time>
      </trkpt>
      <trkpt lat="42.40334" lon="0.05472">
        <ele>780.6</ele>
        <time>2016-07-24T10:10:53Z</time>
      </trkpt>
      <trkpt lat="42.40338" lon="0.05472">
        <ele>780.5</ele>
        <time>2016-07-24T10:10:54Z</time>
      </trkpt>
      <trkpt lat="42.40342" lon="0.05472">
        <ele>780.4</ele>
        <time>2016-07-24T10:10:55Z</time>
      </trkpt>
      <trkpt lat="42.40345" lon="0.05473">
        <ele>780.4</ele>
        <time>2016-07-24T10:10:56Z</time>
      </trkpt>
      <trkpt lat="42.40348" lon="0.05474">
        <ele>780.6</ele>
        <time>2016-07-24T10:10:57Z</time>
      </trkpt>
      <trkpt lat="42.40351" lon="0.05476">
        <ele>781.1</ele>
        <time>2016-07-24T10:10:58Z</time>
      </trkpt>
      <trkpt lat="42.40354" lon="0.05479">
        <ele>781.7</ele>
        <time>2016-07-24T10:10:59Z</time>
      </trkpt>
      <trkpt lat="42.40358" lon="0.05481">
        <ele>782.1</ele>
        <time>2016-07-24T10:11:00Z</time>
      </trkpt>
      <trkpt lat="42.40362" lon="0.05481">
        <ele>782</ele>
        <time>2016-07-24T10:11:01Z</time>
      </trkpt>
      <trkpt lat="42.40366" lon="0.05479">
        <ele>781.3</ele>
        <time>2016-07-24T10:11:02Z</time>
      </trkpt>
      <trkpt lat="42.4037" lon="0.05475">
        <ele>780.3</ele>
        <time>2016-07-24T10:11:03Z</time>
      </trkpt>
      <trkpt lat="42.40373" lon="0.05471">
        <ele>779.2</ele>
        <time>2016-07-24T10:11:04Z</time>
      </trkpt>
      <trkpt lat="42.40375" lon="0.05466">
        <ele>778</ele>
        <time>2016-07-24T10:11:05Z</time>
      </trkpt>
      <trkpt lat="42.40378" lon="0.05462">
        <ele>776.6</ele>
        <time>2016-07-24T10:11:06Z</time>
      </trkpt>
      <trkpt lat="42.40381" lon="0.05457">
        <ele>775.1</ele>
        <time>2016-07-24T10:11:07Z</time>
      </trkpt>
      <trkpt lat="42.40384" lon="0.05454">
        <ele>773.9</ele>
        <time>2016-07-24T10:11:08Z</time>
      </trkpt>
      <trkpt lat="42.40388" lon="0.05451">
        <ele>773</ele>
        <time>2016-07-24T10:11:09Z</time>
      </trkpt>
      <trkpt lat="42.40393" lon="0.0545">
        <ele>772.4</ele>
        <time>2016-07-24T10:11:10Z</time>
      </trkpt>
      <trkpt lat="42.40398" lon="0.0545">
        <ele>772</ele>
        <time>2016-07-24T10:11:11Z</time>
      </trkpt>
      <trkpt lat="42.40402" lon="0.05452">
        <ele>772</ele>
        <time>2016-07-24T10:11:12Z</time>
      </trkpt>
      <trkpt lat="42.40407" lon="0.05455">
        <ele>772.2</ele>
        <time>2016-07-24T10:11:13Z</time>
      </trkpt>
      <trkpt lat="42.40411" lon="0.05458">
        <ele>772.6</ele>
        <time>2016-07-24T10:11:14Z</time>
      </trkpt>
      <trkpt lat="42.40415" lon="0.05461">
        <ele>772.8</ele>
        <time>2016-07-24T10:11:15Z</time>
      </trkpt>
      <trkpt lat="42.40419" lon="0.05464">
        <ele>772.9</ele>
        <time>2016-07-24T10:11:16Z</time>
      </trkpt>
      <trkpt lat="42.40423" lon="0.05467">
        <ele>773.1</ele>
        <time>2016-07-24T10:11:17Z</time>
      </trkpt>
      <trkpt lat="42.40427" lon="0.0547">
        <ele>773.3</ele>
        <time>2016-07-24T10:11:18Z</time>
      </trkpt>
      <trkpt lat="42.4043" lon="0.05473">
        <ele>773.5</ele>
        <time>2016-07-24T10:11:19Z</time>
      </trkpt>
      <trkpt lat="42.40434" lon="0.05476">
        <ele>773.6</ele>
        <time>2016-07-24T10:11:20Z</time>
      </trkpt>
      <trkpt lat="42.40437" lon="0.05477">
        <ele>773.5</ele>
        <time>2016-07-24T10:11:21Z</time>
      </trkpt>
      <trkpt lat="42.40442" lon="0.05475">
        <ele>772.4</ele>
        <time>2016-07-24T10:11:23Z</time>
      </trkpt>
      <trkpt lat="42.40445" lon="0.05471">
        <ele>771.4</ele>
        <time>2016-07-24T10:11:24Z</time>
      </trkpt>
      <trkpt lat="42.40447" lon="0.05466">
        <ele>770.3</ele>
        <time>2016-07-24T10:11:25Z</time>
      </trkpt>
      <trkpt lat="42.40448" lon="0.05461">
        <ele>769.5</ele>
        <time>2016-07-24T10:11:26Z</time>
      </trkpt>
      <trkpt lat="42.40447" lon="0.05456">
        <ele>768.8</ele>
        <time>2016-07-24T10:11:27Z</time>
      </trkpt>
      <trkpt lat="42.40446" lon="0.05451">
        <ele>768.2</ele>
        <time>2016-07-24T10:11:28Z</time>
      </trkpt>
      <trkpt lat="42.40444" lon="0.05445">
        <ele>767.6</ele>
        <time>2016-07-24T10:11:29Z</time>
      </trkpt>
      <trkpt lat="42.40442" lon="0.0544">
        <ele>766.9</ele>
        <time>2016-07-24T10:11:30Z</time>
      </trkpt>
      <trkpt lat="42.4044" lon="0.05435">
        <ele>766.3</ele>
        <time>2016-07-24T10:11:31Z</time>
      </trkpt>
      <trkpt lat="42.40438" lon="0.05431">
        <ele>765.8</ele>
        <time>2016-07-24T10:11:32Z</time>
      </trkpt>
      <trkpt lat="42.40437" lon="0.05427">
        <ele>765.3</ele>
        <time>2016-07-24T10:11:33Z</time>
      </trkpt>
      <trkpt lat="42.40435" lon="0.05421">
        <ele>764.5</ele>
        <time>2016-07-24T10:11:35Z</time>
      </trkpt>
      <trkpt lat="42.40438" lon="0.05419">
        <ele>764.1</ele>
        <time>2016-07-24T10:11:38Z</time>
      </trkpt>
      <trkpt lat="42.40441" lon="0.05422">
        <ele>764.4</ele>
        <time>2016-07-24T10:11:40Z</time>
      </trkpt>
      <trkpt lat="42.40445" lon="0.05426">
        <ele>764.9</ele>
        <time>2016-07-24T10:11:42Z</time>
      </trkpt>
      <trkpt lat="42.40448" lon="0.05432">
        <ele>765.6</ele>
        <time>2016-07-24T10:11:44Z</time>
      </trkpt>
      <trkpt lat="42.40449" lon="0.05436">
        <ele>766</ele>
        <time>2016-07-24T10:11:45Z</time>
      </trkpt>
      <trkpt lat="42.40451" lon="0.05439">
        <ele>766.3</ele>
        <time>2016-07-24T10:11:46Z</time>
      </trkpt>
      <trkpt lat="42.40453" lon="0.05442">
        <ele>766.6</ele>
        <time>2016-07-24T10:11:47Z</time>
      </trkpt>
      <trkpt lat="42.40454" lon="0.05446">
        <ele>767</ele>
        <time>2016-07-24T10:11:48Z</time>
      </trkpt>
      <trkpt lat="42.40455" lon="0.0545">
        <ele>767.4</ele>
        <time>2016-07-24T10:11:49Z</time>
      </trkpt>
      <trkpt lat="42.40456" lon="0.05455">
        <ele>767.9</ele>
        <time>2016-07-24T10:11:50Z</time>
      </trkpt>
      <trkpt lat="42.40456" lon="0.05461">
        <ele>768.6</ele>
        <time>2016-07-24T10:11:51Z</time>
      </trkpt>
      <trkpt lat="42.40455" lon="0.05465">
        <ele>769.4</ele>
        <time>2016-07-24T10:11:52Z</time>
      </trkpt>
      <trkpt lat="42.40455" lon="0.05469">
        <ele>770</ele>
        <time>2016-07-24T10:11:53Z</time>
      </trkpt>
      <trkpt lat="42.40454" lon="0.05472">
        <ele>770.7</ele>
        <time>2016-07-24T10:11:54Z</time>
      </trkpt>
      <trkpt lat="42.40453" lon="0.05476">
        <ele>771.4</ele>
        <time>2016-07-24T10:11:55Z</time>
      </trkpt>
      <trkpt lat="42.40454" lon="0.05481">
        <ele>772.1</ele>
        <time>2016-07-24T10:11:56Z</time>
      </trkpt>
      <trkpt lat="42.40454" lon="0.05485">
        <ele>772.6</ele>
        <time>2016-07-24T10:11:57Z</time>
      </trkpt>
      <trkpt lat="42.40456" lon="0.05488">
        <ele>773</ele>
        <time>2016-07-24T10:11:58Z</time>
      </trkpt>
      <trkpt lat="42.40457" lon="0.05492">
        <ele>773.4</ele>
        <time>2016-07-24T10:11:59Z</time>
      </trkpt>
      <trkpt lat="42.40458" lon="0.05495">
        <ele>773.8</ele>
        <time>2016-07-24T10:12:00Z</time>
      </trkpt>
      <trkpt lat="42.40459" lon="0.05498">
        <ele>774</ele>
        <time>2016-07-24T10:12:01Z</time>
      </trkpt>
      <trkpt lat="42.4046" lon="0.05502">
        <ele>774.3</ele>
        <time>2016-07-24T10:12:02Z</time>
      </trkpt>
      <trkpt lat="42.40461" lon="0.05506">
        <ele>774.6</ele>
        <time>2016-07-24T10:12:03Z</time>
      </trkpt>
      <trkpt lat="42.40462" lon="0.05509">
        <ele>775</ele>
        <time>2016-07-24T10:12:04Z</time>
      </trkpt>
      <trkpt lat="42.40463" lon="0.05513">
        <ele>775.4</ele>
        <time>2016-07-24T10:12:05Z</time>
      </trkpt>
      <trkpt lat="42.40464" lon="0.05517">
        <ele>775.8</ele>
        <time>2016-07-24T10:12:06Z</time>
      </trkpt>
      <trkpt lat="42.40464" lon="0.05521">
        <ele>776.3</ele>
        <time>2016-07-24T10:12:07Z</time>
      </trkpt>
      <trkpt lat="42.40465" lon="0.05527">
        <ele>777</ele>
        <time>2016-07-24T10:12:09Z</time>
      </trkpt>
      <trkpt lat="42.40466" lon="0.05533">
        <ele>777.6</ele>
        <time>2016-07-24T10:12:11Z</time>
      </trkpt>
      <trkpt lat="42.40466" lon="0.05537">
        <ele>778.1</ele>
        <time>2016-07-24T10:12:13Z</time>
      </trkpt>
      <trkpt lat="42.40467" lon="0.05541">
        <ele>778.6</ele>
        <time>2016-07-24T10:12:15Z</time>
      </trkpt>
      <trkpt lat="42.40468" lon="0.05545">
        <ele>778.9</ele>
        <time>2016-07-24T10:12:17Z</time>
      </trkpt>
      <trkpt lat="42.40469" lon="0.0555">
        <ele>779.3</ele>
        <time>2016-07-24T10:12:20Z</time>
      </trkpt>
      <trkpt lat="42.4047" lon="0.05554">
        <ele>780</ele>
        <time>2016-07-24T10:12:23Z</time>
      </trkpt>
      <trkpt lat="42.40468" lon="0.05558">
        <ele>780.9</ele>
        <time>2016-07-24T10:12:25Z</time>
      </trkpt>
      <trkpt lat="42.40467" lon="0.05562">
        <ele>781.8</ele>
        <time>2016-07-24T10:12:28Z</time>
      </trkpt>
      <trkpt lat="42.40468" lon="0.05566">
        <ele>782.3</ele>
        <time>2016-07-24T10:12:31Z</time>
      </trkpt>
      <trkpt lat="42.40467" lon="0.05569">
        <ele>783.2</ele>
        <time>2016-07-24T10:12:34Z</time>
      </trkpt>
      <trkpt lat="42.40465" lon="0.05573">
        <ele>784.1</ele>
        <time>2016-07-24T10:12:36Z</time>
      </trkpt>
      <trkpt lat="42.40463" lon="0.05576">
        <ele>785.1</ele>
        <time>2016-07-24T10:12:38Z</time>
      </trkpt>
      <trkpt lat="42.40461" lon="0.05578">
        <ele>786.1</ele>
        <time>2016-07-24T10:12:40Z</time>
      </trkpt>
      <trkpt lat="42.40458" lon="0.0558">
        <ele>787</ele>
        <time>2016-07-24T10:12:42Z</time>
      </trkpt>
      <trkpt lat="42.40455" lon="0.05582">
        <ele>788.1</ele>
        <time>2016-07-24T10:12:45Z</time>
      </trkpt>
      <trkpt lat="42.40453" lon="0.05583">
        <ele>788.8</ele>
        <time>2016-07-24T10:12:53Z</time>
      </trkpt>
      <trkpt lat="42.40454" lon="0.05586">
        <ele>788.9</ele>
        <time>2016-07-24T10:13:02Z</time>
      </trkpt>
      <trkpt lat="42.40452" lon="0.05589">
        <ele>789.8</ele>
        <time>2016-07-24T10:13:07Z</time>
      </trkpt>
      <trkpt lat="42.40451" lon="0.05593">
        <ele>790.8</ele>
        <time>2016-07-24T10:13:13Z</time>
      </trkpt>
      <trkpt lat="42.40449" lon="0.05596">
        <ele>791.8</ele>
        <time>2016-07-24T10:13:18Z</time>
      </trkpt>
      <trkpt lat="42.40446" lon="0.05599">
        <ele>793</ele>
        <time>2016-07-24T10:13:22Z</time>
      </trkpt>
      <trkpt lat="42.40445" lon="0.05603">
        <ele>794</ele>
        <time>2016-07-24T10:13:26Z</time>
      </trkpt>
      <trkpt lat="42.40443" lon="0.05607">
        <ele>795.1</ele>
        <time>2016-07-24T10:13:31Z</time>
      </trkpt>
      <trkpt lat="42.40443" lon="0.05611">
        <ele>795.8</ele>
        <time>2016-07-24T10:13:35Z</time>
      </trkpt>
      <trkpt lat="42.40443" lon="0.05615">
        <ele>796.7</ele>
        <time>2016-07-24T10:13:40Z</time>
      </trkpt>
      <trkpt lat="42.4044" lon="0.05619">
        <ele>797.8</ele>
        <time>2016-07-24T10:13:46Z</time>
      </trkpt>
      <trkpt lat="42.40439" lon="0.05622">
        <ele>798.7</ele>
        <time>2016-07-24T10:13:51Z</time>
      </trkpt>
      <trkpt lat="42.4044" lon="0.05625">
        <ele>799.1</ele>
        <time>2016-07-24T10:13:58Z</time>
      </trkpt>
      <trkpt lat="42.40442" lon="0.05627">
        <ele>798.5</ele>
        <time>2016-07-24T10:14:01Z</time>
      </trkpt>
      <trkpt lat="42.40445" lon="0.05629">
        <ele>798</ele>
        <time>2016-07-24T10:14:05Z</time>
      </trkpt>
      <trkpt lat="42.40446" lon="0.05633">
        <ele>797.6</ele>
        <time>2016-07-24T10:14:10Z</time>
      </trkpt>
      <trkpt lat="42.40448" lon="0.05635">
        <ele>797.2</ele>
        <time>2016-07-24T10:14:17Z</time>
      </trkpt>
      <trkpt lat="42.40451" lon="0.05637">
        <ele>796.6</ele>
        <time>2016-07-24T10:14:23Z</time>
      </trkpt>
      <trkpt lat="42.40453" lon="0.05639">
        <ele>796.1</ele>
        <time>2016-07-24T10:14:33Z</time>
      </trkpt>
      <trkpt lat="42.40456" lon="0.0564">
        <ele>795.4</ele>
        <time>2016-07-24T10:14:38Z</time>
      </trkpt>
      <trkpt lat="42.40459" lon="0.0564">
        <ele>794.7</ele>
        <time>2016-07-24T10:14:42Z</time>
      </trkpt>
      <trkpt lat="42.40462" lon="0.05642">
        <ele>794.4</ele>
        <time>2016-07-24T10:14:49Z</time>
      </trkpt>
      <trkpt lat="42.40465" lon="0.05643">
        <ele>794</ele>
        <time>2016-07-24T10:14:53Z</time>
      </trkpt>
      <trkpt lat="42.40467" lon="0.05644">
        <ele>793.6</ele>
        <time>2016-07-24T10:15:00Z</time>
      </trkpt>
      <trkpt lat="42.4047" lon="0.05645">
        <ele>793.1</ele>
        <time>2016-07-24T10:15:05Z</time>
      </trkpt>
      <trkpt lat="42.40473" lon="0.05646">
        <ele>792.8</ele>
        <time>2016-07-24T10:15:10Z</time>
      </trkpt>
      <trkpt lat="42.40476" lon="0.05648">
        <ele>792.5</ele>
        <time>2016-07-24T10:15:14Z</time>
      </trkpt>
      <trkpt lat="42.40478" lon="0.0565">
        <ele>792.3</ele>
        <time>2016-07-24T10:15:18Z</time>
      </trkpt>
      <trkpt lat="42.40481" lon="0.05653">
        <ele>792.2</ele>
        <time>2016-07-24T10:15:25Z</time>
      </trkpt>
      <trkpt lat="42.40483" lon="0.05657">
        <ele>792.3</ele>
        <time>2016-07-24T10:15:27Z</time>
      </trkpt>
      <trkpt lat="42.40485" lon="0.05661">
        <ele>792.4</ele>
        <time>2016-07-24T10:15:29Z</time>
      </trkpt>
      <trkpt lat="42.40487" lon="0.05665">
        <ele>792.5</ele>
        <time>2016-07-24T10:15:31Z</time>
      </trkpt>
      <trkpt lat="42.40489" lon="0.05669">
        <ele>792.7</ele>
        <time>2016-07-24T10:15:33Z</time>
      </trkpt>
      <trkpt lat="42.40491" lon="0.05673">
        <ele>793</ele>
        <time>2016-07-24T10:15:35Z</time>
      </trkpt>
      <trkpt lat="42.40493" lon="0.05678">
        <ele>793.4</ele>
        <time>2016-07-24T10:15:37Z</time>
      </trkpt>
      <trkpt lat="42.40496" lon="0.05684">
        <ele>793.7</ele>
        <time>2016-07-24T10:15:39Z</time>
      </trkpt>
      <trkpt lat="42.40498" lon="0.05688">
        <ele>794</ele>
        <time>2016-07-24T10:15:40Z</time>
      </trkpt>
      <trkpt lat="42.40501" lon="0.05694">
        <ele>794.5</ele>
        <time>2016-07-24T10:15:41Z</time>
      </trkpt>
      <trkpt lat="42.40503" lon="0.05699">
        <ele>795</ele>
        <time>2016-07-24T10:15:42Z</time>
      </trkpt>
      <trkpt lat="42.40506" lon="0.05704">
        <ele>795.6</ele>
        <time>2016-07-24T10:15:43Z</time>
      </trkpt>
      <trkpt lat="42.40508" lon="0.05709">
        <ele>796.1</ele>
        <time>2016-07-24T10:15:44Z</time>
      </trkpt>
      <trkpt lat="42.40509" lon="0.05714">
        <ele>796.5</ele>
        <time>2016-07-24T10:15:45Z</time>
      </trkpt>
      <trkpt lat="42.40511" lon="0.05719">
        <ele>796.8</ele>
        <time>2016-07-24T10:15:46Z</time>
      </trkpt>
      <trkpt lat="42.40513" lon="0.05723">
        <ele>797.1</ele>
        <time>2016-07-24T10:15:47Z</time>
      </trkpt>
      <trkpt lat="42.40515" lon="0.05726">
        <ele>797.3</ele>
        <time>2016-07-24T10:15:48Z</time>
      </trkpt>
      <trkpt lat="42.40519" lon="0.05727">
        <ele>797.2</ele>
        <time>2016-07-24T10:15:50Z</time>
      </trkpt>
      <trkpt lat="42.40522" lon="0.05729">
        <ele>797.2</ele>
        <time>2016-07-24T10:16:09Z</time>
      </trkpt>
      <trkpt lat="42.40524" lon="0.05729">
        <ele>797.1</ele>
        <time>2016-07-24T10:16:13Z</time>
      </trkpt>
      <trkpt lat="42.40527" lon="0.05731">
        <ele>797.2</ele>
        <time>2016-07-24T10:16:17Z</time>
      </trkpt>
      <trkpt lat="42.40528" lon="0.05735">
        <ele>797.5</ele>
        <time>2016-07-24T10:16:21Z</time>
      </trkpt>
      <trkpt lat="42.40529" lon="0.05739">
        <ele>797.9</ele>
        <time>2016-07-24T10:16:25Z</time>
      </trkpt>
      <trkpt lat="42.40531" lon="0.05741">
        <ele>798</ele>
        <time>2016-07-24T10:16:29Z</time>
      </trkpt>
      <trkpt lat="42.40534" lon="0.05742">
        <ele>798</ele>
        <time>2016-07-24T10:16:33Z</time>
      </trkpt>
      <trkpt lat="42.40537" lon="0.05745">
        <ele>798.2</ele>
        <time>2016-07-24T10:16:37Z</time>
      </trkpt>
      <trkpt lat="42.4054" lon="0.05748">
        <ele>798.3</ele>
        <time>2016-07-24T10:16:41Z</time>
      </trkpt>
      <trkpt lat="42.40543" lon="0.05748">
        <ele>798.5</ele>
        <time>2016-07-24T10:16:49Z</time>
      </trkpt>
      <trkpt lat="42.40546" lon="0.05748">
        <ele>799</ele>
        <time>2016-07-24T10:16:51Z</time>
      </trkpt>
      <trkpt lat="42.40549" lon="0.0575">
        <ele>799.6</ele>
        <time>2016-07-24T10:16:54Z</time>
      </trkpt>
      <trkpt lat="42.40552" lon="0.05751">
        <ele>800.1</ele>
        <time>2016-07-24T10:16:56Z</time>
      </trkpt>
      <trkpt lat="42.40555" lon="0.05753">
        <ele>800.8</ele>
        <time>2016-07-24T10:16:58Z</time>
      </trkpt>
      <trkpt lat="42.40558" lon="0.05756">
        <ele>801.6</ele>
        <time>2016-07-24T10:17:00Z</time>
      </trkpt>
      <trkpt lat="42.40562" lon="0.05759">
        <ele>802.3</ele>
        <time>2016-07-24T10:17:02Z</time>
      </trkpt>
      <trkpt lat="42.40566" lon="0.05762">
        <ele>803.1</ele>
        <time>2016-07-24T10:17:04Z</time>
      </trkpt>
      <trkpt lat="42.4057" lon="0.05766">
        <ele>803.9</ele>
        <time>2016-07-24T10:17:06Z</time>
      </trkpt>
      <trkpt lat="42.40574" lon="0.0577">
        <ele>804.7</ele>
        <time>2016-07-24T10:17:08Z</time>
      </trkpt>
      <trkpt lat="42.40578" lon="0.05774">
        <ele>805.5</ele>
        <time>2016-07-24T10:17:10Z</time>
      </trkpt>
      <trkpt lat="42.40582" lon="0.05778">
        <ele>806.2</ele>
        <time>2016-07-24T10:17:12Z</time>
      </trkpt>
      <trkpt lat="42.40584" lon="0.0578">
        <ele>806.6</ele>
        <time>2016-07-24T10:17:13Z</time>
      </trkpt>
      <trkpt lat="42.40586" lon="0.05784">
        <ele>806.9</ele>
        <time>2016-07-24T10:17:14Z</time>
      </trkpt>
      <trkpt lat="42.40588" lon="0.05787">
        <ele>807.2</ele>
        <time>2016-07-24T10:17:15Z</time>
      </trkpt>
      <trkpt lat="42.40589" lon="0.0579">
        <ele>807.5</ele>
        <time>2016-07-24T10:17:16Z</time>
      </trkpt>
      <trkpt lat="42.40591" lon="0.05795">
        <ele>807.8</ele>
        <time>2016-07-24T10:17:18Z</time>
      </trkpt>
      <trkpt lat="42.40593" lon="0.05799">
        <ele>808</ele>
        <time>2016-07-24T10:17:20Z</time>
      </trkpt>
      <trkpt lat="42.40595" lon="0.05806">
        <ele>808.2</ele>
        <time>2016-07-24T10:17:22Z</time>
      </trkpt>
      <trkpt lat="42.40596" lon="0.0581">
        <ele>808.2</ele>
        <time>2016-07-24T10:17:23Z</time>
      </trkpt>
      <trkpt lat="42.40598" lon="0.05815">
        <ele>808.4</ele>
        <time>2016-07-24T10:17:24Z</time>
      </trkpt>
      <trkpt lat="42.406" lon="0.05819">
        <ele>808.5</ele>
        <time>2016-07-24T10:17:25Z</time>
      </trkpt>
      <trkpt lat="42.40602" lon="0.05824">
        <ele>808.5</ele>
        <time>2016-07-24T10:17:26Z</time>
      </trkpt>
      <trkpt lat="42.40604" lon="0.05829">
        <ele>808.6</ele>
        <time>2016-07-24T10:17:27Z</time>
      </trkpt>
      <trkpt lat="42.40606" lon="0.05833">
        <ele>808.6</ele>
        <time>2016-07-24T10:17:28Z</time>
      </trkpt>
      <trkpt lat="42.40608" lon="0.05836">
        <ele>808.5</ele>
        <time>2016-07-24T10:17:29Z</time>
      </trkpt>
      <trkpt lat="42.40609" lon="0.0584">
        <ele>808.5</ele>
        <time>2016-07-24T10:17:30Z</time>
      </trkpt>
      <trkpt lat="42.40611" lon="0.05843">
        <ele>808.4</ele>
        <time>2016-07-24T10:17:31Z</time>
      </trkpt>
      <trkpt lat="42.40613" lon="0.05847">
        <ele>808.4</ele>
        <time>2016-07-24T10:17:32Z</time>
      </trkpt>
      <trkpt lat="42.40615" lon="0.0585">
        <ele>808.2</ele>
        <time>2016-07-24T10:17:33Z</time>
      </trkpt>
      <trkpt lat="42.40618" lon="0.05854">
        <ele>808.1</ele>
        <time>2016-07-24T10:17:34Z</time>
      </trkpt>
      <trkpt lat="42.40621" lon="0.05858">
        <ele>807.9</ele>
        <time>2016-07-24T10:17:35Z</time>
      </trkpt>
      <trkpt lat="42.40624" lon="0.05862">
        <ele>807.6</ele>
        <time>2016-07-24T10:17:36Z</time>
      </trkpt>
      <trkpt lat="42.40627" lon="0.05865">
        <ele>807.3</ele>
        <time>2016-07-24T10:17:37Z</time>
      </trkpt>
      <trkpt lat="42.40629" lon="0.05867">
        <ele>807</ele>
        <time>2016-07-24T10:17:38Z</time>
      </trkpt>
      <trkpt lat="42.40633" lon="0.05872">
        <ele>806.4</ele>
        <time>2016-07-24T10:17:40Z</time>
      </trkpt>
      <trkpt lat="42.40636" lon="0.05878">
        <ele>806.4</ele>
        <time>2016-07-24T10:17:42Z</time>
      </trkpt>
      <trkpt lat="42.40638" lon="0.05882">
        <ele>806.8</ele>
        <time>2016-07-24T10:17:43Z</time>
      </trkpt>
      <trkpt lat="42.40641" lon="0.05887">
        <ele>807.1</ele>
        <time>2016-07-24T10:17:45Z</time>
      </trkpt>
      <trkpt lat="42.40645" lon="0.05888">
        <ele>806.9</ele>
        <time>2016-07-24T10:17:47Z</time>
      </trkpt>
      <trkpt lat="42.40649" lon="0.05891">
        <ele>806.9</ele>
        <time>2016-07-24T10:17:49Z</time>
      </trkpt>
      <trkpt lat="42.40651" lon="0.05893">
        <ele>807</ele>
        <time>2016-07-24T10:18:00Z</time>
      </trkpt>
      <trkpt lat="42.4065" lon="0.05897">
        <ele>807.6</ele>
        <time>2016-07-24T10:18:06Z</time>
      </trkpt>
      <trkpt lat="42.40652" lon="0.059">
        <ele>807.9</ele>
        <time>2016-07-24T10:18:11Z</time>
      </trkpt>
      <trkpt lat="42.40652" lon="0.05904">
        <ele>808.4</ele>
        <time>2016-07-24T10:18:20Z</time>
      </trkpt>
      <trkpt lat="42.40654" lon="0.05908">
        <ele>808.7</ele>
        <time>2016-07-24T10:18:23Z</time>
      </trkpt>
      <trkpt lat="42.40655" lon="0.05912">
        <ele>809.1</ele>
        <time>2016-07-24T10:18:25Z</time>
      </trkpt>
      <trkpt lat="42.40656" lon="0.05916">
        <ele>809.5</ele>
        <time>2016-07-24T10:18:27Z</time>
      </trkpt>
      <trkpt lat="42.40657" lon="0.0592">
        <ele>809.9</ele>
        <time>2016-07-24T10:18:29Z</time>
      </trkpt>
      <trkpt lat="42.40659" lon="0.05924">
        <ele>810.2</ele>
        <time>2016-07-24T10:18:31Z</time>
      </trkpt>
      <trkpt lat="42.40661" lon="0.05927">
        <ele>810.3</ele>
        <time>2016-07-24T10:18:34Z</time>
      </trkpt>
      <trkpt lat="42.40664" lon="0.05928">
        <ele>810.1</ele>
        <time>2016-07-24T10:18:36Z</time>
      </trkpt>
      <trkpt lat="42.40667" lon="0.05929">
        <ele>809.7</ele>
        <time>2016-07-24T10:18:38Z</time>
      </trkpt>
      <trkpt lat="42.40671" lon="0.05932">
        <ele>809.6</ele>
        <time>2016-07-24T10:18:40Z</time>
      </trkpt>
      <trkpt lat="42.40673" lon="0.05935">
        <ele>809.6</ele>
        <time>2016-07-24T10:18:42Z</time>
      </trkpt>
      <trkpt lat="42.40676" lon="0.05939">
        <ele>809.7</ele>
        <time>2016-07-24T10:18:44Z</time>
      </trkpt>
      <trkpt lat="42.40679" lon="0.05943">
        <ele>809.8</ele>
        <time>2016-07-24T10:18:46Z</time>
      </trkpt>
      <trkpt lat="42.40681" lon="0.05946">
        <ele>809.9</ele>
        <time>2016-07-24T10:18:48Z</time>
      </trkpt>
      <trkpt lat="42.40684" lon="0.05948">
        <ele>809.6</ele>
        <time>2016-07-24T10:18:51Z</time>
      </trkpt>
      <trkpt lat="42.40687" lon="0.05951">
        <ele>809.6</ele>
        <time>2016-07-24T10:18:53Z</time>
      </trkpt>
      <trkpt lat="42.40688" lon="0.05955">
        <ele>809.8</ele>
        <time>2016-07-24T10:18:55Z</time>
      </trkpt>
      <trkpt lat="42.40689" lon="0.0596">
        <ele>810.4</ele>
        <time>2016-07-24T10:18:57Z</time>
      </trkpt>
      <trkpt lat="42.4069" lon="0.05966">
        <ele>811.7</ele>
        <time>2016-07-24T10:18:59Z</time>
      </trkpt>
      <trkpt lat="42.40693" lon="0.05971">
        <ele>812.4</ele>
        <time>2016-07-24T10:19:01Z</time>
      </trkpt>
      <trkpt lat="42.40696" lon="0.05974">
        <ele>812.6</ele>
        <time>2016-07-24T10:19:03Z</time>
      </trkpt>
      <trkpt lat="42.407" lon="0.05976">
        <ele>812.3</ele>
        <time>2016-07-24T10:19:05Z</time>
      </trkpt>
      <trkpt lat="42.40703" lon="0.05977">
        <ele>812.1</ele>
        <time>2016-07-24T10:19:07Z</time>
      </trkpt>
      <trkpt lat="42.40706" lon="0.05981">
        <ele>812.6</ele>
        <time>2016-07-24T10:19:09Z</time>
      </trkpt>
      <trkpt lat="42.40707" lon="0.05985">
        <ele>813.3</ele>
        <time>2016-07-24T10:19:11Z</time>
      </trkpt>
      <trkpt lat="42.40709" lon="0.0599">
        <ele>814.1</ele>
        <time>2016-07-24T10:19:13Z</time>
      </trkpt>
      <trkpt lat="42.4071" lon="0.05994">
        <ele>814.6</ele>
        <time>2016-07-24T10:19:15Z</time>
      </trkpt>
      <trkpt lat="42.40712" lon="0.05998">
        <ele>815.1</ele>
        <time>2016-07-24T10:19:17Z</time>
      </trkpt>
      <trkpt lat="42.40713" lon="0.06002">
        <ele>815.9</ele>
        <time>2016-07-24T10:19:19Z</time>
      </trkpt>
      <trkpt lat="42.40713" lon="0.06007">
        <ele>816.7</ele>
        <time>2016-07-24T10:19:21Z</time>
      </trkpt>
      <trkpt lat="42.40714" lon="0.0601">
        <ele>817.3</ele>
        <time>2016-07-24T10:19:23Z</time>
      </trkpt>
      <trkpt lat="42.40715" lon="0.06015">
        <ele>818.1</ele>
        <time>2016-07-24T10:19:26Z</time>
      </trkpt>
      <trkpt lat="42.40714" lon="0.0602">
        <ele>819.4</ele>
        <time>2016-07-24T10:19:28Z</time>
      </trkpt>
      <trkpt lat="42.40715" lon="0.06025">
        <ele>820.4</ele>
        <time>2016-07-24T10:19:30Z</time>
      </trkpt>
      <trkpt lat="42.40716" lon="0.06029">
        <ele>821</ele>
        <time>2016-07-24T10:19:32Z</time>
      </trkpt>
      <trkpt lat="42.40718" lon="0.06033">
        <ele>821.2</ele>
        <time>2016-07-24T10:19:34Z</time>
      </trkpt>
      <trkpt lat="42.40719" lon="0.06036">
        <ele>821.3</ele>
        <time>2016-07-24T10:19:36Z</time>
      </trkpt>
      <trkpt lat="42.4072" lon="0.0604">
        <ele>821.8</ele>
        <time>2016-07-24T10:19:38Z</time>
      </trkpt>
      <trkpt lat="42.40722" lon="0.06045">
        <ele>822.2</ele>
        <time>2016-07-24T10:19:40Z</time>
      </trkpt>
      <trkpt lat="42.40723" lon="0.0605">
        <ele>822.5</ele>
        <time>2016-07-24T10:19:42Z</time>
      </trkpt>
      <trkpt lat="42.40723" lon="0.06055">
        <ele>823</ele>
        <time>2016-07-24T10:19:44Z</time>
      </trkpt>
      <trkpt lat="42.40723" lon="0.06059">
        <ele>823.6</ele>
        <time>2016-07-24T10:19:46Z</time>
      </trkpt>
      <trkpt lat="42.40722" lon="0.06063">
        <ele>824.1</ele>
        <time>2016-07-24T10:19:48Z</time>
      </trkpt>
      <trkpt lat="42.40721" lon="0.06068">
        <ele>825.2</ele>
        <time>2016-07-24T10:19:51Z</time>
      </trkpt>
      <trkpt lat="42.40718" lon="0.06071">
        <ele>826.2</ele>
        <time>2016-07-24T10:19:53Z</time>
      </trkpt>
      <trkpt lat="42.40717" lon="0.06074">
        <ele>827</ele>
        <time>2016-07-24T10:19:55Z</time>
      </trkpt>
      <trkpt lat="42.40715" lon="0.06078">
        <ele>828.1</ele>
        <time>2016-07-24T10:19:58Z</time>
      </trkpt>
      <trkpt lat="42.40713" lon="0.06082">
        <ele>829</ele>
        <time>2016-07-24T10:20:00Z</time>
      </trkpt>
      <trkpt lat="42.40711" lon="0.06086">
        <ele>829.9</ele>
        <time>2016-07-24T10:20:02Z</time>
      </trkpt>
      <trkpt lat="42.40709" lon="0.0609">
        <ele>831</ele>
        <time>2016-07-24T10:20:05Z</time>
      </trkpt>
      <trkpt lat="42.40708" lon="0.06094">
        <ele>831.9</ele>
        <time>2016-07-24T10:20:07Z</time>
      </trkpt>
      <trkpt lat="42.40706" lon="0.06097">
        <ele>832.6</ele>
        <time>2016-07-24T10:20:09Z</time>
      </trkpt>
      <trkpt lat="42.40703" lon="0.06099">
        <ele>833.5</ele>
        <time>2016-07-24T10:20:11Z</time>
      </trkpt>
      <trkpt lat="42.407" lon="0.06102">
        <ele>834.5</ele>
        <time>2016-07-24T10:20:13Z</time>
      </trkpt>
      <trkpt lat="42.40698" lon="0.06106">
        <ele>835.6</ele>
        <time>2016-07-24T10:20:15Z</time>
      </trkpt>
      <trkpt lat="42.40694" lon="0.06111">
        <ele>837.1</ele>
        <time>2016-07-24T10:20:17Z</time>
      </trkpt>
      <trkpt lat="42.4069" lon="0.06116">
        <ele>838.5</ele>
        <time>2016-07-24T10:20:19Z</time>
      </trkpt>
      <trkpt lat="42.40687" lon="0.06119">
        <ele>839.8</ele>
        <time>2016-07-24T10:20:21Z</time>
      </trkpt>
      <trkpt lat="42.40683" lon="0.06121">
        <ele>840.8</ele>
        <time>2016-07-24T10:20:23Z</time>
      </trkpt>
      <trkpt lat="42.4068" lon="0.06123">
        <ele>841.8</ele>
        <time>2016-07-24T10:20:25Z</time>
      </trkpt>
      <trkpt lat="42.40679" lon="0.06126">
        <ele>842.5</ele>
        <time>2016-07-24T10:20:28Z</time>
      </trkpt>
      <trkpt lat="42.40681" lon="0.0613">
        <ele>842.2</ele>
        <time>2016-07-24T10:20:32Z</time>
      </trkpt>
      <trkpt lat="42.40683" lon="0.06133">
        <ele>841.7</ele>
        <time>2016-07-24T10:20:35Z</time>
      </trkpt>
      <trkpt lat="42.40686" lon="0.06135">
        <ele>841.1</ele>
        <time>2016-07-24T10:20:40Z</time>
      </trkpt>
      <trkpt lat="42.40687" lon="0.06139">
        <ele>840.8</ele>
        <time>2016-07-24T10:20:43Z</time>
      </trkpt>
      <trkpt lat="42.40688" lon="0.06144">
        <ele>840.7</ele>
        <time>2016-07-24T10:20:46Z</time>
      </trkpt>
      <trkpt lat="42.40688" lon="0.06148">
        <ele>840.9</ele>
        <time>2016-07-24T10:20:48Z</time>
      </trkpt>
      <trkpt lat="42.40687" lon="0.06151">
        <ele>841.4</ele>
        <time>2016-07-24T10:20:50Z</time>
      </trkpt>
      <trkpt lat="42.40685" lon="0.06155">
        <ele>842</ele>
        <time>2016-07-24T10:20:52Z</time>
      </trkpt>
      <trkpt lat="42.40685" lon="0.06159">
        <ele>842.3</ele>
        <time>2016-07-24T10:20:54Z</time>
      </trkpt>
      <trkpt lat="42.40685" lon="0.06162">
        <ele>842.2</ele>
        <time>2016-07-24T10:20:56Z</time>
      </trkpt>
      <trkpt lat="42.40688" lon="0.06167">
        <ele>841.6</ele>
        <time>2016-07-24T10:20:59Z</time>
      </trkpt>
      <trkpt lat="42.40689" lon="0.06171">
        <ele>841.4</ele>
        <time>2016-07-24T10:21:01Z</time>
      </trkpt>
      <trkpt lat="42.40689" lon="0.06174">
        <ele>841.4</ele>
        <time>2016-07-24T10:21:03Z</time>
      </trkpt>
      <trkpt lat="42.40689" lon="0.06178">
        <ele>841.8</ele>
        <time>2016-07-24T10:21:05Z</time>
      </trkpt>
      <trkpt lat="42.40689" lon="0.06183">
        <ele>841.7</ele>
        <time>2016-07-24T10:21:08Z</time>
      </trkpt>
      <trkpt lat="42.40692" lon="0.06185">
        <ele>841.1</ele>
        <time>2016-07-24T10:21:10Z</time>
      </trkpt>
      <trkpt lat="42.40694" lon="0.0619">
        <ele>840.3</ele>
        <time>2016-07-24T10:21:13Z</time>
      </trkpt>
      <trkpt lat="42.40697" lon="0.06193">
        <ele>839.6</ele>
        <time>2016-07-24T10:21:15Z</time>
      </trkpt>
      <trkpt lat="42.407" lon="0.06194">
        <ele>838.6</ele>
        <time>2016-07-24T10:21:17Z</time>
      </trkpt>
      <trkpt lat="42.40703" lon="0.06194">
        <ele>837.5</ele>
        <time>2016-07-24T10:21:19Z</time>
      </trkpt>
      <trkpt lat="42.40707" lon="0.06193">
        <ele>836.4</ele>
        <time>2016-07-24T10:21:21Z</time>
      </trkpt>
      <trkpt lat="42.40711" lon="0.06193">
        <ele>835.6</ele>
        <time>2016-07-24T10:21:23Z</time>
      </trkpt>
      <trkpt lat="42.40715" lon="0.06193">
        <ele>835.2</ele>
        <time>2016-07-24T10:21:25Z</time>
      </trkpt>
      <trkpt lat="42.40719" lon="0.06194">
        <ele>835</ele>
        <time>2016-07-24T10:21:27Z</time>
      </trkpt>
      <trkpt lat="42.40721" lon="0.06196">
        <ele>834.9</ele>
        <time>2016-07-24T10:21:29Z</time>
      </trkpt>
      <trkpt lat="42.40723" lon="0.062">
        <ele>834.8</ele>
        <time>2016-07-24T10:21:32Z</time>
      </trkpt>
      <trkpt lat="42.40726" lon="0.06202">
        <ele>834.8</ele>
        <time>2016-07-24T10:21:41Z</time>
      </trkpt>
      <trkpt lat="42.40728" lon="0.06205">
        <ele>834.9</ele>
        <time>2016-07-24T10:21:50Z</time>
      </trkpt>
      <trkpt lat="42.40731" lon="0.06207">
        <ele>834.8</ele>
        <time>2016-07-24T10:21:55Z</time>
      </trkpt>
      <trkpt lat="42.40734" lon="0.06208">
        <ele>834.7</ele>
        <time>2016-07-24T10:21:59Z</time>
      </trkpt>
      <trkpt lat="42.40735" lon="0.06211">
        <ele>835.1</ele>
        <time>2016-07-24T10:22:03Z</time>
      </trkpt>
      <trkpt lat="42.40736" lon="0.06215">
        <ele>835.8</ele>
        <time>2016-07-24T10:22:07Z</time>
      </trkpt>
      <trkpt lat="42.40737" lon="0.06219">
        <ele>836.5</ele>
        <time>2016-07-24T10:22:12Z</time>
      </trkpt>
      <trkpt lat="42.40738" lon="0.06223">
        <ele>837.1</ele>
        <time>2016-07-24T10:22:16Z</time>
      </trkpt>
      <trkpt lat="42.40739" lon="0.06226">
        <ele>837.6</ele>
        <time>2016-07-24T10:22:19Z</time>
      </trkpt>
      <trkpt lat="42.4074" lon="0.06231">
        <ele>838.3</ele>
        <time>2016-07-24T10:22:23Z</time>
      </trkpt>
      <trkpt lat="42.40742" lon="0.06235">
        <ele>839</ele>
        <time>2016-07-24T10:22:27Z</time>
      </trkpt>
      <trkpt lat="42.40743" lon="0.06239">
        <ele>839.7</ele>
        <time>2016-07-24T10:22:31Z</time>
      </trkpt>
      <trkpt lat="42.40744" lon="0.06243">
        <ele>840.2</ele>
        <time>2016-07-24T10:22:36Z</time>
      </trkpt>
      <trkpt lat="42.40746" lon="0.06246">
        <ele>840.6</ele>
        <time>2016-07-24T10:22:41Z</time>
      </trkpt>
      <trkpt lat="42.40748" lon="0.0625">
        <ele>841.1</ele>
        <time>2016-07-24T10:22:45Z</time>
      </trkpt>
      <trkpt lat="42.40749" lon="0.06254">
        <ele>841.7</ele>
        <time>2016-07-24T10:22:49Z</time>
      </trkpt>
      <trkpt lat="42.4075" lon="0.06258">
        <ele>842.3</ele>
        <time>2016-07-24T10:22:58Z</time>
      </trkpt>
      <trkpt lat="42.40752" lon="0.06262">
        <ele>842.9</ele>
        <time>2016-07-24T10:23:01Z</time>
      </trkpt>
      <trkpt lat="42.40753" lon="0.06267">
        <ele>843.6</ele>
        <time>2016-07-24T10:23:03Z</time>
      </trkpt>
      <trkpt lat="42.40754" lon="0.06271">
        <ele>844.1</ele>
        <time>2016-07-24T10:23:05Z</time>
      </trkpt>
      <trkpt lat="42.40756" lon="0.06274">
        <ele>844.5</ele>
        <time>2016-07-24T10:23:07Z</time>
      </trkpt>
      <trkpt lat="42.40758" lon="0.06278">
        <ele>845</ele>
        <time>2016-07-24T10:23:09Z</time>
      </trkpt>
      <trkpt lat="42.4076" lon="0.06281">
        <ele>845.3</ele>
        <time>2016-07-24T10:23:11Z</time>
      </trkpt>
      <trkpt lat="42.40763" lon="0.06286">
        <ele>845.8</ele>
        <time>2016-07-24T10:23:13Z</time>
      </trkpt>
      <trkpt lat="42.40765" lon="0.0629">
        <ele>846.3</ele>
        <time>2016-07-24T10:23:15Z</time>
      </trkpt>
      <trkpt lat="42.40767" lon="0.06294">
        <ele>846.8</ele>
        <time>2016-07-24T10:23:17Z</time>
      </trkpt>
      <trkpt lat="42.40769" lon="0.06298">
        <ele>847.4</ele>
        <time>2016-07-24T10:23:19Z</time>
      </trkpt>
      <trkpt lat="42.40771" lon="0.06302">
        <ele>847.9</ele>
        <time>2016-07-24T10:23:21Z</time>
      </trkpt>
      <trkpt lat="42.40773" lon="0.06306">
        <ele>848.4</ele>
        <time>2016-07-24T10:23:23Z</time>
      </trkpt>
      <trkpt lat="42.40774" lon="0.06311">
        <ele>849.1</ele>
        <time>2016-07-24T10:23:25Z</time>
      </trkpt>
      <trkpt lat="42.40776" lon="0.06316">
        <ele>849.7</ele>
        <time>2016-07-24T10:23:27Z</time>
      </trkpt>
      <trkpt lat="42.40778" lon="0.06321">
        <ele>850.3</ele>
        <time>2016-07-24T10:23:29Z</time>
      </trkpt>
      <trkpt lat="42.40778" lon="0.06325">
        <ele>850.9</ele>
        <time>2016-07-24T10:23:32Z</time>
      </trkpt>
      <trkpt lat="42.40778" lon="0.06332">
        <ele>852.1</ele>
        <time>2016-07-24T10:23:51Z</time>
      </trkpt>
      <trkpt lat="42.40778" lon="0.06336">
        <ele>852.8</ele>
        <time>2016-07-24T10:23:52Z</time>
      </trkpt>
      <trkpt lat="42.40778" lon="0.0634">
        <ele>853.3</ele>
        <time>2016-07-24T10:23:53Z</time>
      </trkpt>
      <trkpt lat="42.40779" lon="0.06344">
        <ele>853.9</ele>
        <time>2016-07-24T10:23:54Z</time>
      </trkpt>
      <trkpt lat="42.4078" lon="0.06349">
        <ele>854.4</ele>
        <time>2016-07-24T10:23:55Z</time>
      </trkpt>
      <trkpt lat="42.40782" lon="0.06354">
        <ele>854.9</ele>
        <time>2016-07-24T10:23:56Z</time>
      </trkpt>
      <trkpt lat="42.40782" lon="0.06359">
        <ele>855.4</ele>
        <time>2016-07-24T10:23:57Z</time>
      </trkpt>
      <trkpt lat="42.40783" lon="0.06364">
        <ele>856.1</ele>
        <time>2016-07-24T10:23:58Z</time>
      </trkpt>
      <trkpt lat="42.40784" lon="0.0637">
        <ele>856.7</ele>
        <time>2016-07-24T10:23:59Z</time>
      </trkpt>
      <trkpt lat="42.40784" lon="0.06376">
        <ele>857.5</ele>
        <time>2016-07-24T10:24:00Z</time>
      </trkpt>
      <trkpt lat="42.40784" lon="0.06382">
        <ele>858</ele>
        <time>2016-07-24T10:24:01Z</time>
      </trkpt>
      <trkpt lat="42.40784" lon="0.06388">
        <ele>858.8</ele>
        <time>2016-07-24T10:24:02Z</time>
      </trkpt>
      <trkpt lat="42.40783" lon="0.06394">
        <ele>859.7</ele>
        <time>2016-07-24T10:24:03Z</time>
      </trkpt>
      <trkpt lat="42.40782" lon="0.06399">
        <ele>860.7</ele>
        <time>2016-07-24T10:24:04Z</time>
      </trkpt>
      <trkpt lat="42.40781" lon="0.06404">
        <ele>861.6</ele>
        <time>2016-07-24T10:24:05Z</time>
      </trkpt>
      <trkpt lat="42.4078" lon="0.06408">
        <ele>862.4</ele>
        <time>2016-07-24T10:24:06Z</time>
      </trkpt>
      <trkpt lat="42.40779" lon="0.06412">
        <ele>863.1</ele>
        <time>2016-07-24T10:24:07Z</time>
      </trkpt>
      <trkpt lat="42.40779" lon="0.06416">
        <ele>863.6</ele>
        <time>2016-07-24T10:24:08Z</time>
      </trkpt>
      <trkpt lat="42.40779" lon="0.06423">
        <ele>864.4</ele>
        <time>2016-07-24T10:24:10Z</time>
      </trkpt>
      <trkpt lat="42.4078" lon="0.06427">
        <ele>864.5</ele>
        <time>2016-07-24T10:24:12Z</time>
      </trkpt>
      <trkpt lat="42.40782" lon="0.06431">
        <ele>864.2</ele>
        <time>2016-07-24T10:24:14Z</time>
      </trkpt>
      <trkpt lat="42.40785" lon="0.06437">
        <ele>863.8</ele>
        <time>2016-07-24T10:24:16Z</time>
      </trkpt>
      <trkpt lat="42.40787" lon="0.0644">
        <ele>863.7</ele>
        <time>2016-07-24T10:24:17Z</time>
      </trkpt>
      <trkpt lat="42.40788" lon="0.06443">
        <ele>863.5</ele>
        <time>2016-07-24T10:24:18Z</time>
      </trkpt>
      <trkpt lat="42.4079" lon="0.06447">
        <ele>863.4</ele>
        <time>2016-07-24T10:24:19Z</time>
      </trkpt>
      <trkpt lat="42.40791" lon="0.0645">
        <ele>863.3</ele>
        <time>2016-07-24T10:24:20Z</time>
      </trkpt>
      <trkpt lat="42.40793" lon="0.06454">
        <ele>862.8</ele>
        <time>2016-07-24T10:24:21Z</time>
      </trkpt>
      <trkpt lat="42.40796" lon="0.06458">
        <ele>862.2</ele>
        <time>2016-07-24T10:24:22Z</time>
      </trkpt>
      <trkpt lat="42.40798" lon="0.06462">
        <ele>861.4</ele>
        <time>2016-07-24T10:24:23Z</time>
      </trkpt>
      <trkpt lat="42.40799" lon="0.06467">
        <ele>860.9</ele>
        <time>2016-07-24T10:24:24Z</time>
      </trkpt>
      <trkpt lat="42.408" lon="0.06471">
        <ele>860.6</ele>
        <time>2016-07-24T10:24:25Z</time>
      </trkpt>
      <trkpt lat="42.40801" lon="0.06475">
        <ele>860.5</ele>
        <time>2016-07-24T10:24:26Z</time>
      </trkpt>
      <trkpt lat="42.40802" lon="0.06479">
        <ele>860.3</ele>
        <time>2016-07-24T10:24:27Z</time>
      </trkpt>
      <trkpt lat="42.40803" lon="0.06484">
        <ele>860.1</ele>
        <time>2016-07-24T10:24:28Z</time>
      </trkpt>
      <trkpt lat="42.40804" lon="0.06489">
        <ele>860</ele>
        <time>2016-07-24T10:24:29Z</time>
      </trkpt>
      <trkpt lat="42.40805" lon="0.06496">
        <ele>859.8</ele>
        <time>2016-07-24T10:24:30Z</time>
      </trkpt>
      <trkpt lat="42.40806" lon="0.06502">
        <ele>859.6</ele>
        <time>2016-07-24T10:24:31Z</time>
      </trkpt>
      <trkpt lat="42.40806" lon="0.06508">
        <ele>859.6</ele>
        <time>2016-07-24T10:24:32Z</time>
      </trkpt>
      <trkpt lat="42.40807" lon="0.06514">
        <ele>859.5</ele>
        <time>2016-07-24T10:24:33Z</time>
      </trkpt>
      <trkpt lat="42.40807" lon="0.0652">
        <ele>859.6</ele>
        <time>2016-07-24T10:24:34Z</time>
      </trkpt>
      <trkpt lat="42.40807" lon="0.06525">
        <ele>860.3</ele>
        <time>2016-07-24T10:24:35Z</time>
      </trkpt>
      <trkpt lat="42.40805" lon="0.0653">
        <ele>861.3</ele>
        <time>2016-07-24T10:24:36Z</time>
      </trkpt>
      <trkpt lat="42.40803" lon="0.06535">
        <ele>862.4</ele>
        <time>2016-07-24T10:24:37Z</time>
      </trkpt>
      <trkpt lat="42.40802" lon="0.0654">
        <ele>863.3</ele>
        <time>2016-07-24T10:24:38Z</time>
      </trkpt>
      <trkpt lat="42.40801" lon="0.06545">
        <ele>863.3</ele>
        <time>2016-07-24T10:24:39Z</time>
      </trkpt>
      <trkpt lat="42.408" lon="0.06549">
        <ele>863</ele>
        <time>2016-07-24T10:24:40Z</time>
      </trkpt>
      <trkpt lat="42.408" lon="0.06552">
        <ele>862.9</ele>
        <time>2016-07-24T10:24:41Z</time>
      </trkpt>
      <trkpt lat="42.40798" lon="0.06556">
        <ele>863.1</ele>
        <time>2016-07-24T10:24:42Z</time>
      </trkpt>
      <trkpt lat="42.40796" lon="0.06559">
        <ele>863.5</ele>
        <time>2016-07-24T10:24:43Z</time>
      </trkpt>
      <trkpt lat="42.40794" lon="0.06563">
        <ele>863.9</ele>
        <time>2016-07-24T10:24:44Z</time>
      </trkpt>
      <trkpt lat="42.40792" lon="0.06567">
        <ele>864.4</ele>
        <time>2016-07-24T10:24:45Z</time>
      </trkpt>
      <trkpt lat="42.40789" lon="0.0657">
        <ele>864.9</ele>
        <time>2016-07-24T10:24:46Z</time>
      </trkpt>
      <trkpt lat="42.40786" lon="0.06573">
        <ele>865.5</ele>
        <time>2016-07-24T10:24:47Z</time>
      </trkpt>
      <trkpt lat="42.40782" lon="0.06576">
        <ele>866.2</ele>
        <time>2016-07-24T10:24:48Z</time>
      </trkpt>
      <trkpt lat="42.40778" lon="0.0658">
        <ele>866.8</ele>
        <time>2016-07-24T10:24:49Z</time>
      </trkpt>
      <trkpt lat="42.40775" lon="0.06585">
        <ele>867.2</ele>
        <time>2016-07-24T10:24:50Z</time>
      </trkpt>
      <trkpt lat="42.40772" lon="0.06589">
        <ele>867.6</ele>
        <time>2016-07-24T10:24:51Z</time>
      </trkpt>
      <trkpt lat="42.4077" lon="0.06594">
        <ele>867.8</ele>
        <time>2016-07-24T10:24:52Z</time>
      </trkpt>
      <trkpt lat="42.40768" lon="0.06599">
        <ele>867.8</ele>
        <time>2016-07-24T10:24:53Z</time>
      </trkpt>
      <trkpt lat="42.40767" lon="0.06602">
        <ele>867.9</ele>
        <time>2016-07-24T10:24:54Z</time>
      </trkpt>
      <trkpt lat="42.40765" lon="0.06608">
        <ele>867.9</ele>
        <time>2016-07-24T10:24:56Z</time>
      </trkpt>
      <trkpt lat="42.40764" lon="0.06614">
        <ele>867.3</ele>
        <time>2016-07-24T10:24:58Z</time>
      </trkpt>
      <trkpt lat="42.40767" lon="0.0662">
        <ele>865.5</ele>
        <time>2016-07-24T10:25:00Z</time>
      </trkpt>
      <trkpt lat="42.4077" lon="0.06623">
        <ele>864.1</ele>
        <time>2016-07-24T10:25:01Z</time>
      </trkpt>
      <trkpt lat="42.40773" lon="0.06626">
        <ele>862.7</ele>
        <time>2016-07-24T10:25:02Z</time>
      </trkpt>
      <trkpt lat="42.40776" lon="0.0663">
        <ele>861.4</ele>
        <time>2016-07-24T10:25:03Z</time>
      </trkpt>
      <trkpt lat="42.40777" lon="0.06633">
        <ele>860.5</ele>
        <time>2016-07-24T10:25:04Z</time>
      </trkpt>
      <trkpt lat="42.40779" lon="0.06637">
        <ele>859.6</ele>
        <time>2016-07-24T10:25:05Z</time>
      </trkpt>
      <trkpt lat="42.40781" lon="0.0664">
        <ele>858.7</ele>
        <time>2016-07-24T10:25:06Z</time>
      </trkpt>
      <trkpt lat="42.40782" lon="0.06643">
        <ele>857.7</ele>
        <time>2016-07-24T10:25:07Z</time>
      </trkpt>
      <trkpt lat="42.40784" lon="0.06647">
        <ele>856.7</ele>
        <time>2016-07-24T10:25:08Z</time>
      </trkpt>
      <trkpt lat="42.40786" lon="0.06652">
        <ele>855.7</ele>
        <time>2016-07-24T10:25:09Z</time>
      </trkpt>
      <trkpt lat="42.40786" lon="0.06657">
        <ele>855.1</ele>
        <time>2016-07-24T10:25:10Z</time>
      </trkpt>
      <trkpt lat="42.40786" lon="0.06662">
        <ele>854.8</ele>
        <time>2016-07-24T10:25:11Z</time>
      </trkpt>
      <trkpt lat="42.40785" lon="0.06667">
        <ele>854.6</ele>
        <time>2016-07-24T10:25:12Z</time>
      </trkpt>
      <trkpt lat="42.40784" lon="0.06672">
        <ele>854.3</ele>
        <time>2016-07-24T10:25:13Z</time>
      </trkpt>
      <trkpt lat="42.40784" lon="0.06678">
        <ele>853.8</ele>
        <time>2016-07-24T10:25:14Z</time>
      </trkpt>
      <trkpt lat="42.40784" lon="0.06684">
        <ele>853.2</ele>
        <time>2016-07-24T10:25:15Z</time>
      </trkpt>
      <trkpt lat="42.40784" lon="0.0669">
        <ele>852.6</ele>
        <time>2016-07-24T10:25:16Z</time>
      </trkpt>
      <trkpt lat="42.40784" lon="0.06696">
        <ele>852.2</ele>
        <time>2016-07-24T10:25:17Z</time>
      </trkpt>
      <trkpt lat="42.40783" lon="0.06701">
        <ele>852.2</ele>
        <time>2016-07-24T10:25:18Z</time>
      </trkpt>
      <trkpt lat="42.40781" lon="0.06706">
        <ele>852.4</ele>
        <time>2016-07-24T10:25:19Z</time>
      </trkpt>
      <trkpt lat="42.40779" lon="0.06711">
        <ele>853.1</ele>
        <time>2016-07-24T10:25:20Z</time>
      </trkpt>
      <trkpt lat="42.40777" lon="0.06717">
        <ele>853.9</ele>
        <time>2016-07-24T10:25:21Z</time>
      </trkpt>
      <trkpt lat="42.40775" lon="0.06724">
        <ele>854.5</ele>
        <time>2016-07-24T10:25:22Z</time>
      </trkpt>
      <trkpt lat="42.40773" lon="0.0673">
        <ele>855.2</ele>
        <time>2016-07-24T10:25:23Z</time>
      </trkpt>
      <trkpt lat="42.40772" lon="0.06735">
        <ele>855.7</ele>
        <time>2016-07-24T10:25:24Z</time>
      </trkpt>
      <trkpt lat="42.40771" lon="0.06739">
        <ele>856.1</ele>
        <time>2016-07-24T10:25:25Z</time>
      </trkpt>
      <trkpt lat="42.40772" lon="0.06746">
        <ele>855.7</ele>
        <time>2016-07-24T10:25:27Z</time>
      </trkpt>
      <trkpt lat="42.40773" lon="0.0675">
        <ele>855</ele>
        <time>2016-07-24T10:25:28Z</time>
      </trkpt>
      <trkpt lat="42.40775" lon="0.06754">
        <ele>854.2</ele>
        <time>2016-07-24T10:25:29Z</time>
      </trkpt>
      <trkpt lat="42.40778" lon="0.06758">
        <ele>852.9</ele>
        <time>2016-07-24T10:25:31Z</time>
      </trkpt>
      <trkpt lat="42.40781" lon="0.06764">
        <ele>851.5</ele>
        <time>2016-07-24T10:25:33Z</time>
      </trkpt>
      <trkpt lat="42.40784" lon="0.06768">
        <ele>850.4</ele>
        <time>2016-07-24T10:25:35Z</time>
      </trkpt>
      <trkpt lat="42.40785" lon="0.06774">
        <ele>850</ele>
        <time>2016-07-24T10:25:37Z</time>
      </trkpt>
      <trkpt lat="42.40785" lon="0.0678">
        <ele>849.7</ele>
        <time>2016-07-24T10:25:39Z</time>
      </trkpt>
      <trkpt lat="42.40786" lon="0.06784">
        <ele>849.2</ele>
        <time>2016-07-24T10:25:40Z</time>
      </trkpt>
      <trkpt lat="42.40788" lon="0.06787">
        <ele>848.4</ele>
        <time>2016-07-24T10:25:41Z</time>
      </trkpt>
      <trkpt lat="42.40792" lon="0.06792">
        <ele>847.1</ele>
        <time>2016-07-24T10:25:43Z</time>
      </trkpt>
      <trkpt lat="42.40795" lon="0.06797">
        <ele>846.3</ele>
        <time>2016-07-24T10:25:45Z</time>
      </trkpt>
      <trkpt lat="42.40798" lon="0.06801">
        <ele>845.8</ele>
        <time>2016-07-24T10:25:47Z</time>
      </trkpt>
      <trkpt lat="42.40801" lon="0.06806">
        <ele>845.3</ele>
        <time>2016-07-24T10:25:49Z</time>
      </trkpt>
      <trkpt lat="42.40804" lon="0.06812">
        <ele>845.2</ele>
        <time>2016-07-24T10:25:51Z</time>
      </trkpt>
      <trkpt lat="42.40805" lon="0.06815">
        <ele>845.4</ele>
        <time>2016-07-24T10:25:52Z</time>
      </trkpt>
      <trkpt lat="42.40806" lon="0.06818">
        <ele>845.2</ele>
        <time>2016-07-24T10:25:53Z</time>
      </trkpt>
      <trkpt lat="42.40809" lon="0.0682">
        <ele>844.6</ele>
        <time>2016-07-24T10:25:54Z</time>
      </trkpt>
      <trkpt lat="42.40811" lon="0.06821">
        <ele>843.8</ele>
        <time>2016-07-24T10:25:55Z</time>
      </trkpt>
      <trkpt lat="42.40814" lon="0.06821">
        <ele>842.8</ele>
        <time>2016-07-24T10:25:56Z</time>
      </trkpt>
      <trkpt lat="42.40817" lon="0.06821">
        <ele>841.8</ele>
        <time>2016-07-24T10:25:57Z</time>
      </trkpt>
      <trkpt lat="42.4082" lon="0.06821">
        <ele>840.9</ele>
        <time>2016-07-24T10:25:58Z</time>
      </trkpt>
      <trkpt lat="42.40825" lon="0.06821">
        <ele>839.1</ele>
        <time>2016-07-24T10:26:00Z</time>
      </trkpt>
      <trkpt lat="42.4083" lon="0.06822">
        <ele>837.4</ele>
        <time>2016-07-24T10:26:02Z</time>
      </trkpt>
      <trkpt lat="42.40835" lon="0.06824">
        <ele>836.1</ele>
        <time>2016-07-24T10:26:04Z</time>
      </trkpt>
      <trkpt lat="42.40838" lon="0.06825">
        <ele>835.3</ele>
        <time>2016-07-24T10:26:05Z</time>
      </trkpt>
      <trkpt lat="42.40842" lon="0.06827">
        <ele>834.3</ele>
        <time>2016-07-24T10:26:06Z</time>
      </trkpt>
      <trkpt lat="42.40846" lon="0.06828">
        <ele>833.2</ele>
        <time>2016-07-24T10:26:07Z</time>
      </trkpt>
      <trkpt lat="42.4085" lon="0.0683">
        <ele>832.3</ele>
        <time>2016-07-24T10:26:08Z</time>
      </trkpt>
      <trkpt lat="42.40853" lon="0.06832">
        <ele>831.6</ele>
        <time>2016-07-24T10:26:09Z</time>
      </trkpt>
      <trkpt lat="42.40857" lon="0.06836">
        <ele>831</ele>
        <time>2016-07-24T10:26:10Z</time>
      </trkpt>
      <trkpt lat="42.4086" lon="0.06839">
        <ele>830.5</ele>
        <time>2016-07-24T10:26:11Z</time>
      </trkpt>
      <trkpt lat="42.40864" lon="0.06843">
        <ele>830.1</ele>
        <time>2016-07-24T10:26:12Z</time>
      </trkpt>
      <trkpt lat="42.40867" lon="0.06847">
        <ele>830</ele>
        <time>2016-07-24T10:26:13Z</time>
      </trkpt>
      <trkpt lat="42.40869" lon="0.06851">
        <ele>830.2</ele>
        <time>2016-07-24T10:26:14Z</time>
      </trkpt>
      <trkpt lat="42.4087" lon="0.06856">
        <ele>830.7</ele>
        <time>2016-07-24T10:26:15Z</time>
      </trkpt>
      <trkpt lat="42.40871" lon="0.06861">
        <ele>831.4</ele>
        <time>2016-07-24T10:26:16Z</time>
      </trkpt>
      <trkpt lat="42.40872" lon="0.06866">
        <ele>831.9</ele>
        <time>2016-07-24T10:26:17Z</time>
      </trkpt>
      <trkpt lat="42.40874" lon="0.0687">
        <ele>832.3</ele>
        <time>2016-07-24T10:26:18Z</time>
      </trkpt>
      <trkpt lat="42.40877" lon="0.06875">
        <ele>832.5</ele>
        <time>2016-07-24T10:26:20Z</time>
      </trkpt>
      <trkpt lat="42.4088" lon="0.06878">
        <ele>832.4</ele>
        <time>2016-07-24T10:26:21Z</time>
      </trkpt>
      <trkpt lat="42.40882" lon="0.06879">
        <ele>832.1</ele>
        <time>2016-07-24T10:26:22Z</time>
      </trkpt>
      <trkpt lat="42.40885" lon="0.0688">
        <ele>831.5</ele>
        <time>2016-07-24T10:26:23Z</time>
      </trkpt>
      <trkpt lat="42.40888" lon="0.06881">
        <ele>830.9</ele>
        <time>2016-07-24T10:26:24Z</time>
      </trkpt>
      <trkpt lat="42.40892" lon="0.06881">
        <ele>830.1</ele>
        <time>2016-07-24T10:26:25Z</time>
      </trkpt>
      <trkpt lat="42.40895" lon="0.06882">
        <ele>829.6</ele>
        <time>2016-07-24T10:26:26Z</time>
      </trkpt>
      <trkpt lat="42.40898" lon="0.06884">
        <ele>829.2</ele>
        <time>2016-07-24T10:26:27Z</time>
      </trkpt>
      <trkpt lat="42.40901" lon="0.06887">
        <ele>829.1</ele>
        <time>2016-07-24T10:26:28Z</time>
      </trkpt>
      <trkpt lat="42.40904" lon="0.06891">
        <ele>829.1</ele>
        <time>2016-07-24T10:26:29Z</time>
      </trkpt>
      <trkpt lat="42.40907" lon="0.06894">
        <ele>829.2</ele>
        <time>2016-07-24T10:26:30Z</time>
      </trkpt>
      <trkpt lat="42.4091" lon="0.06898">
        <ele>829.6</ele>
        <time>2016-07-24T10:26:31Z</time>
      </trkpt>
      <trkpt lat="42.40912" lon="0.06902">
        <ele>829.9</ele>
        <time>2016-07-24T10:26:32Z</time>
      </trkpt>
      <trkpt lat="42.40916" lon="0.06906">
        <ele>830</ele>
        <time>2016-07-24T10:26:33Z</time>
      </trkpt>
      <trkpt lat="42.40919" lon="0.06909">
        <ele>829.9</ele>
        <time>2016-07-24T10:26:34Z</time>
      </trkpt>
      <trkpt lat="42.40921" lon="0.06911">
        <ele>829.8</ele>
        <time>2016-07-24T10:26:35Z</time>
      </trkpt>
      <trkpt lat="42.40924" lon="0.06914">
        <ele>829.8</ele>
        <time>2016-07-24T10:26:37Z</time>
      </trkpt>
      <trkpt lat="42.40928" lon="0.06915">
        <ele>829.3</ele>
        <time>2016-07-24T10:26:39Z</time>
      </trkpt>
      <trkpt lat="42.40933" lon="0.06916">
        <ele>828.1</ele>
        <time>2016-07-24T10:26:41Z</time>
      </trkpt>
      <trkpt lat="42.40937" lon="0.06916">
        <ele>827.1</ele>
        <time>2016-07-24T10:26:43Z</time>
      </trkpt>
      <trkpt lat="42.40942" lon="0.06918">
        <ele>826.4</ele>
        <time>2016-07-24T10:26:45Z</time>
      </trkpt>
      <trkpt lat="42.40946" lon="0.06921">
        <ele>826.1</ele>
        <time>2016-07-24T10:26:47Z</time>
      </trkpt>
      <trkpt lat="42.4095" lon="0.06924">
        <ele>826</ele>
        <time>2016-07-24T10:26:49Z</time>
      </trkpt>
      <trkpt lat="42.40954" lon="0.06928">
        <ele>826</ele>
        <time>2016-07-24T10:26:51Z</time>
      </trkpt>
      <trkpt lat="42.40958" lon="0.06932">
        <ele>826</ele>
        <time>2016-07-24T10:26:53Z</time>
      </trkpt>
      <trkpt lat="42.40962" lon="0.06935">
        <ele>825.7</ele>
        <time>2016-07-24T10:26:55Z</time>
      </trkpt>
      <trkpt lat="42.40965" lon="0.06939">
        <ele>825.9</ele>
        <time>2016-07-24T10:26:57Z</time>
      </trkpt>
      <trkpt lat="42.40966" lon="0.06945">
        <ele>827</ele>
        <time>2016-07-24T10:26:59Z</time>
      </trkpt>
      <trkpt lat="42.40967" lon="0.0695">
        <ele>828</ele>
        <time>2016-07-24T10:27:01Z</time>
      </trkpt>
      <trkpt lat="42.40968" lon="0.06954">
        <ele>828.8</ele>
        <time>2016-07-24T10:27:03Z</time>
      </trkpt>
      <trkpt lat="42.40971" lon="0.06959">
        <ele>829.1</ele>
        <time>2016-07-24T10:27:22Z</time>
      </trkpt>
      <trkpt lat="42.40973" lon="0.06961">
        <ele>829.1</ele>
        <time>2016-07-24T10:27:24Z</time>
      </trkpt>
      <trkpt lat="42.40974" lon="0.06965">
        <ele>829.6</ele>
        <time>2016-07-24T10:27:29Z</time>
      </trkpt>
      <trkpt lat="42.40976" lon="0.06972">
        <ele>830.6</ele>
        <time>2016-07-24T10:27:31Z</time>
      </trkpt>
      <trkpt lat="42.40977" lon="0.06977">
        <ele>831.2</ele>
        <time>2016-07-24T10:27:32Z</time>
      </trkpt>
      <trkpt lat="42.40979" lon="0.0698">
        <ele>831.6</ele>
        <time>2016-07-24T10:27:33Z</time>
      </trkpt>
      <trkpt lat="42.40981" lon="0.06984">
        <ele>831.8</ele>
        <time>2016-07-24T10:27:34Z</time>
      </trkpt>
      <trkpt lat="42.40983" lon="0.06989">
        <ele>832.3</ele>
        <time>2016-07-24T10:27:35Z</time>
      </trkpt>
      <trkpt lat="42.40984" lon="0.06994">
        <ele>833.1</ele>
        <time>2016-07-24T10:27:36Z</time>
      </trkpt>
      <trkpt lat="42.40985" lon="0.06999">
        <ele>834</ele>
        <time>2016-07-24T10:27:37Z</time>
      </trkpt>
      <trkpt lat="42.40986" lon="0.07003">
        <ele>834.5</ele>
        <time>2016-07-24T10:27:38Z</time>
      </trkpt>
      <trkpt lat="42.40989" lon="0.07008">
        <ele>834.3</ele>
        <time>2016-07-24T10:27:40Z</time>
      </trkpt>
      <trkpt lat="42.40995" lon="0.07011">
        <ele>832.9</ele>
        <time>2016-07-24T10:27:42Z</time>
      </trkpt>
      <trkpt lat="42.40998" lon="0.07013">
        <ele>831.9</ele>
        <time>2016-07-24T10:27:43Z</time>
      </trkpt>
      <trkpt lat="42.41002" lon="0.07015">
        <ele>830.9</ele>
        <time>2016-07-24T10:27:44Z</time>
      </trkpt>
      <trkpt lat="42.41005" lon="0.07016">
        <ele>830.2</ele>
        <time>2016-07-24T10:27:45Z</time>
      </trkpt>
      <trkpt lat="42.41008" lon="0.0702">
        <ele>829.5</ele>
        <time>2016-07-24T10:27:47Z</time>
      </trkpt>
      <trkpt lat="42.41012" lon="0.07022">
        <ele>828.6</ele>
        <time>2016-07-24T10:27:49Z</time>
      </trkpt>
      <trkpt lat="42.41015" lon="0.07026">
        <ele>827.9</ele>
        <time>2016-07-24T10:27:51Z</time>
      </trkpt>
      <trkpt lat="42.41019" lon="0.0703">
        <ele>827.2</ele>
        <time>2016-07-24T10:27:53Z</time>
      </trkpt>
      <trkpt lat="42.41022" lon="0.07032">
        <ele>826.6</ele>
        <time>2016-07-24T10:27:54Z</time>
      </trkpt>
      <trkpt lat="42.41025" lon="0.07034">
        <ele>825.8</ele>
        <time>2016-07-24T10:27:55Z</time>
      </trkpt>
      <trkpt lat="42.41027" lon="0.07037">
        <ele>825.1</ele>
        <time>2016-07-24T10:27:56Z</time>
      </trkpt>
      <trkpt lat="42.4103" lon="0.07038">
        <ele>824.4</ele>
        <time>2016-07-24T10:27:57Z</time>
      </trkpt>
      <trkpt lat="42.41035" lon="0.07041">
        <ele>822.7</ele>
        <time>2016-07-24T10:27:59Z</time>
      </trkpt>
      <trkpt lat="42.41038" lon="0.07043">
        <ele>821.6</ele>
        <time>2016-07-24T10:28:00Z</time>
      </trkpt>
      <trkpt lat="42.41042" lon="0.07045">
        <ele>820.4</ele>
        <time>2016-07-24T10:28:01Z</time>
      </trkpt>
      <trkpt lat="42.41045" lon="0.07047">
        <ele>820.1</ele>
        <time>2016-07-24T10:28:02Z</time>
      </trkpt>
      <trkpt lat="42.41048" lon="0.07049">
        <ele>819.9</ele>
        <time>2016-07-24T10:28:03Z</time>
      </trkpt>
      <trkpt lat="42.4105" lon="0.07051">
        <ele>819.8</ele>
        <time>2016-07-24T10:28:04Z</time>
      </trkpt>
      <trkpt lat="42.41053" lon="0.07054">
        <ele>819.7</ele>
        <time>2016-07-24T10:28:05Z</time>
      </trkpt>
      <trkpt lat="42.41055" lon="0.07057">
        <ele>819.7</ele>
        <time>2016-07-24T10:28:06Z</time>
      </trkpt>
      <trkpt lat="42.41058" lon="0.07061">
        <ele>819.8</ele>
        <time>2016-07-24T10:28:07Z</time>
      </trkpt>
      <trkpt lat="42.4106" lon="0.07064">
        <ele>819.8</ele>
        <time>2016-07-24T10:28:08Z</time>
      </trkpt>
      <trkpt lat="42.41063" lon="0.07067">
        <ele>819.8</ele>
        <time>2016-07-24T10:28:09Z</time>
      </trkpt>
      <trkpt lat="42.41066" lon="0.07071">
        <ele>819.8</ele>
        <time>2016-07-24T10:28:10Z</time>
      </trkpt>
      <trkpt lat="42.41069" lon="0.07074">
        <ele>819.8</ele>
        <time>2016-07-24T10:28:11Z</time>
      </trkpt>
      <trkpt lat="42.41071" lon="0.07077">
        <ele>819.9</ele>
        <time>2016-07-24T10:28:12Z</time>
      </trkpt>
      <trkpt lat="42.41074" lon="0.07081">
        <ele>820</ele>
        <time>2016-07-24T10:28:13Z</time>
      </trkpt>
      <trkpt lat="42.41078" lon="0.07085">
        <ele>820</ele>
        <time>2016-07-24T10:28:14Z</time>
      </trkpt>
      <trkpt lat="42.41081" lon="0.07088">
        <ele>820</ele>
        <time>2016-07-24T10:28:15Z</time>
      </trkpt>
      <trkpt lat="42.41085" lon="0.07092">
        <ele>820</ele>
        <time>2016-07-24T10:28:16Z</time>
      </trkpt>
      <trkpt lat="42.41087" lon="0.07095">
        <ele>820.2</ele>
        <time>2016-07-24T10:28:17Z</time>
      </trkpt>
      <trkpt lat="42.41089" lon="0.07098">
        <ele>820.4</ele>
        <time>2016-07-24T10:28:18Z</time>
      </trkpt>
      <trkpt lat="42.4109" lon="0.07102">
        <ele>820.7</ele>
        <time>2016-07-24T10:28:19Z</time>
      </trkpt>
      <trkpt lat="42.41092" lon="0.07105">
        <ele>821</ele>
        <time>2016-07-24T10:28:20Z</time>
      </trkpt>
      <trkpt lat="42.41094" lon="0.07108">
        <ele>821.2</ele>
        <time>2016-07-24T10:28:21Z</time>
      </trkpt>
      <trkpt lat="42.41095" lon="0.07112">
        <ele>821.6</ele>
        <time>2016-07-24T10:28:23Z</time>
      </trkpt>
      <trkpt lat="42.41094" lon="0.07116">
        <ele>822.4</ele>
        <time>2016-07-24T10:28:25Z</time>
      </trkpt>
      <trkpt lat="42.41092" lon="0.07119">
        <ele>823.1</ele>
        <time>2016-07-24T10:28:26Z</time>
      </trkpt>
      <trkpt lat="42.4109" lon="0.07123">
        <ele>823.9</ele>
        <time>2016-07-24T10:28:27Z</time>
      </trkpt>
      <trkpt lat="42.41088" lon="0.07129">
        <ele>824.4</ele>
        <time>2016-07-24T10:28:29Z</time>
      </trkpt>
      <trkpt lat="42.41084" lon="0.07132">
        <ele>824.7</ele>
        <time>2016-07-24T10:28:31Z</time>
      </trkpt>
      <trkpt lat="42.4108" lon="0.07134">
        <ele>825.1</ele>
        <time>2016-07-24T10:28:33Z</time>
      </trkpt>
      <trkpt lat="42.41079" lon="0.07139">
        <ele>825.1</ele>
        <time>2016-07-24T10:28:35Z</time>
      </trkpt>
      <trkpt lat="42.41079" lon="0.07144">
        <ele>824.9</ele>
        <time>2016-07-24T10:28:37Z</time>
      </trkpt>
      <trkpt lat="42.4108" lon="0.07148">
        <ele>824.6</ele>
        <time>2016-07-24T10:28:39Z</time>
      </trkpt>
      <trkpt lat="42.41082" lon="0.07151">
        <ele>824.3</ele>
        <time>2016-07-24T10:28:40Z</time>
      </trkpt>
      <trkpt lat="42.41084" lon="0.07153">
        <ele>823.8</ele>
        <time>2016-07-24T10:28:41Z</time>
      </trkpt>
      <trkpt lat="42.41088" lon="0.07157">
        <ele>823.1</ele>
        <time>2016-07-24T10:28:43Z</time>
      </trkpt>
      <trkpt lat="42.41092" lon="0.07163">
        <ele>822.3</ele>
        <time>2016-07-24T10:28:45Z</time>
      </trkpt>
      <trkpt lat="42.41093" lon="0.07166">
        <ele>822</ele>
        <time>2016-07-24T10:28:46Z</time>
      </trkpt>
      <trkpt lat="42.41097" lon="0.07172">
        <ele>821.2</ele>
        <time>2016-07-24T10:28:48Z</time>
      </trkpt>
      <trkpt lat="42.41098" lon="0.07175">
        <ele>820.8</ele>
        <time>2016-07-24T10:28:49Z</time>
      </trkpt>
      <trkpt lat="42.411" lon="0.07179">
        <ele>820.2</ele>
        <time>2016-07-24T10:28:51Z</time>
      </trkpt>
      <trkpt lat="42.41103" lon="0.07185">
        <ele>819.4</ele>
        <time>2016-07-24T10:28:53Z</time>
      </trkpt>
      <trkpt lat="42.41106" lon="0.07189">
        <ele>818.8</ele>
        <time>2016-07-24T10:28:55Z</time>
      </trkpt>
      <trkpt lat="42.41108" lon="0.07194">
        <ele>818.1</ele>
        <time>2016-07-24T10:28:57Z</time>
      </trkpt>
      <trkpt lat="42.41109" lon="0.07199">
        <ele>817.5</ele>
        <time>2016-07-24T10:28:59Z</time>
      </trkpt>
      <trkpt lat="42.41112" lon="0.07204">
        <ele>816.8</ele>
        <time>2016-07-24T10:29:01Z</time>
      </trkpt>
      <trkpt lat="42.41115" lon="0.07207">
        <ele>815.9</ele>
        <time>2016-07-24T10:29:03Z</time>
      </trkpt>
      <trkpt lat="42.41118" lon="0.07212">
        <ele>815.1</ele>
        <time>2016-07-24T10:29:05Z</time>
      </trkpt>
      <trkpt lat="42.41122" lon="0.07218">
        <ele>814</ele>
        <time>2016-07-24T10:29:07Z</time>
      </trkpt>
      <trkpt lat="42.41125" lon="0.07222">
        <ele>813.1</ele>
        <time>2016-07-24T10:29:08Z</time>
      </trkpt>
      <trkpt lat="42.41127" lon="0.07226">
        <ele>812.7</ele>
        <time>2016-07-24T10:29:09Z</time>
      </trkpt>
      <trkpt lat="42.4113" lon="0.0723">
        <ele>812.4</ele>
        <time>2016-07-24T10:29:10Z</time>
      </trkpt>
      <trkpt lat="42.41132" lon="0.07233">
        <ele>812</ele>
        <time>2016-07-24T10:29:11Z</time>
      </trkpt>
      <trkpt lat="42.41135" lon="0.07236">
        <ele>811.7</ele>
        <time>2016-07-24T10:29:12Z</time>
      </trkpt>
      <trkpt lat="42.41139" lon="0.0724">
        <ele>811.1</ele>
        <time>2016-07-24T10:29:14Z</time>
      </trkpt>
      <trkpt lat="42.41141" lon="0.07243">
        <ele>810.8</ele>
        <time>2016-07-24T10:29:15Z</time>
      </trkpt>
      <trkpt lat="42.41143" lon="0.07247">
        <ele>810.2</ele>
        <time>2016-07-24T10:29:16Z</time>
      </trkpt>
      <trkpt lat="42.41146" lon="0.07252">
        <ele>809.6</ele>
        <time>2016-07-24T10:29:17Z</time>
      </trkpt>
      <trkpt lat="42.41148" lon="0.07255">
        <ele>809</ele>
        <time>2016-07-24T10:29:18Z</time>
      </trkpt>
      <trkpt lat="42.41149" lon="0.07258">
        <ele>808.6</ele>
        <time>2016-07-24T10:29:19Z</time>
      </trkpt>
      <trkpt lat="42.41151" lon="0.07261">
        <ele>808</ele>
        <time>2016-07-24T10:29:20Z</time>
      </trkpt>
      <trkpt lat="42.41153" lon="0.07265">
        <ele>807.3</ele>
        <time>2016-07-24T10:29:21Z</time>
      </trkpt>
      <trkpt lat="42.41154" lon="0.07269">
        <ele>806.8</ele>
        <time>2016-07-24T10:29:22Z</time>
      </trkpt>
      <trkpt lat="42.41154" lon="0.07275">
        <ele>806</ele>
        <time>2016-07-24T10:29:24Z</time>
      </trkpt>
      <trkpt lat="42.41155" lon="0.0728">
        <ele>805.2</ele>
        <time>2016-07-24T10:29:26Z</time>
      </trkpt>
      <trkpt lat="42.41156" lon="0.07284">
        <ele>804.6</ele>
        <time>2016-07-24T10:29:27Z</time>
      </trkpt>
      <trkpt lat="42.41158" lon="0.07289">
        <ele>803.7</ele>
        <time>2016-07-24T10:29:29Z</time>
      </trkpt>
      <trkpt lat="42.41162" lon="0.07294">
        <ele>802.5</ele>
        <time>2016-07-24T10:29:31Z</time>
      </trkpt>
      <trkpt lat="42.41164" lon="0.07297">
        <ele>801.6</ele>
        <time>2016-07-24T10:29:32Z</time>
      </trkpt>
      <trkpt lat="42.41166" lon="0.07302">
        <ele>800.8</ele>
        <time>2016-07-24T10:29:33Z</time>
      </trkpt>
      <trkpt lat="42.41167" lon="0.07306">
        <ele>800</ele>
        <time>2016-07-24T10:29:34Z</time>
      </trkpt>
      <trkpt lat="42.41168" lon="0.07312">
        <ele>799</ele>
        <time>2016-07-24T10:29:36Z</time>
      </trkpt>
      <trkpt lat="42.4117" lon="0.07315">
        <ele>798.3</ele>
        <time>2016-07-24T10:29:37Z</time>
      </trkpt>
      <trkpt lat="42.41172" lon="0.07318">
        <ele>797.5</ele>
        <time>2016-07-24T10:29:38Z</time>
      </trkpt>
      <trkpt lat="42.41174" lon="0.07321">
        <ele>796.8</ele>
        <time>2016-07-24T10:29:39Z</time>
      </trkpt>
      <trkpt lat="42.41177" lon="0.07326">
        <ele>795.4</ele>
        <time>2016-07-24T10:29:41Z</time>
      </trkpt>
      <trkpt lat="42.41179" lon="0.07329">
        <ele>794.6</ele>
        <time>2016-07-24T10:29:42Z</time>
      </trkpt>
      <trkpt lat="42.4118" lon="0.07333">
        <ele>793.8</ele>
        <time>2016-07-24T10:29:43Z</time>
      </trkpt>
      <trkpt lat="42.41182" lon="0.07339">
        <ele>792.4</ele>
        <time>2016-07-24T10:29:45Z</time>
      </trkpt>
      <trkpt lat="42.41184" lon="0.07342">
        <ele>791.6</ele>
        <time>2016-07-24T10:29:49Z</time>
      </trkpt>
      <trkpt lat="42.41187" lon="0.07346">
        <ele>790.3</ele>
        <time>2016-07-24T10:29:59Z</time>
      </trkpt>
      <trkpt lat="42.41191" lon="0.07348">
        <ele>789</ele>
        <time>2016-07-24T10:30:01Z</time>
      </trkpt>
      <trkpt lat="42.41194" lon="0.07348">
        <ele>788.5</ele>
        <time>2016-07-24T10:30:07Z</time>
      </trkpt>
      <trkpt lat="42.41196" lon="0.07346">
        <ele>788.2</ele>
        <time>2016-07-24T10:30:11Z</time>
      </trkpt>
      <trkpt lat="42.41199" lon="0.07344">
        <ele>788</ele>
        <time>2016-07-24T10:30:15Z</time>
      </trkpt>
      <trkpt lat="42.41201" lon="0.07341">
        <ele>788.1</ele>
        <time>2016-07-24T10:30:18Z</time>
      </trkpt>
      <trkpt lat="42.41204" lon="0.07339">
        <ele>787.9</ele>
        <time>2016-07-24T10:30:22Z</time>
      </trkpt>
      <trkpt lat="42.41206" lon="0.07337">
        <ele>787.8</ele>
        <time>2016-07-24T10:30:27Z</time>
      </trkpt>
      <trkpt lat="42.4121" lon="0.07337">
        <ele>787.3</ele>
        <time>2016-07-24T10:30:30Z</time>
      </trkpt>
      <trkpt lat="42.41212" lon="0.07338">
        <ele>787.2</ele>
        <time>2016-07-24T10:30:31Z</time>
      </trkpt>
      <trkpt lat="42.41215" lon="0.07341">
        <ele>786.9</ele>
        <time>2016-07-24T10:30:32Z</time>
      </trkpt>
      <trkpt lat="42.41218" lon="0.07344">
        <ele>786.4</ele>
        <time>2016-07-24T10:30:33Z</time>
      </trkpt>
      <trkpt lat="42.4122" lon="0.07346">
        <ele>786</ele>
        <time>2016-07-24T10:30:34Z</time>
      </trkpt>
      <trkpt lat="42.41223" lon="0.07349">
        <ele>785.7</ele>
        <time>2016-07-24T10:30:35Z</time>
      </trkpt>
      <trkpt lat="42.41226" lon="0.0735">
        <ele>785.4</ele>
        <time>2016-07-24T10:30:36Z</time>
      </trkpt>
      <trkpt lat="42.41229" lon="0.07352">
        <ele>785.2</ele>
        <time>2016-07-24T10:30:37Z</time>
      </trkpt>
      <trkpt lat="42.41233" lon="0.07353">
        <ele>785.1</ele>
        <time>2016-07-24T10:30:38Z</time>
      </trkpt>
      <trkpt lat="42.41237" lon="0.07354">
        <ele>785</ele>
        <time>2016-07-24T10:30:39Z</time>
      </trkpt>
      <trkpt lat="42.4124" lon="0.07355">
        <ele>784.9</ele>
        <time>2016-07-24T10:30:40Z</time>
      </trkpt>
      <trkpt lat="42.41244" lon="0.07358">
        <ele>784.5</ele>
        <time>2016-07-24T10:30:42Z</time>
      </trkpt>
      <trkpt lat="42.41248" lon="0.07362">
        <ele>783.6</ele>
        <time>2016-07-24T10:30:44Z</time>
      </trkpt>
      <trkpt lat="42.4125" lon="0.07367">
        <ele>782.7</ele>
        <time>2016-07-24T10:30:46Z</time>
      </trkpt>
      <trkpt lat="42.41251" lon="0.07372">
        <ele>781.7</ele>
        <time>2016-07-24T10:30:48Z</time>
      </trkpt>
      <trkpt lat="42.41253" lon="0.0738">
        <ele>780.4</ele>
        <time>2016-07-24T10:30:50Z</time>
      </trkpt>
      <trkpt lat="42.41253" lon="0.07384">
        <ele>779.7</ele>
        <time>2016-07-24T10:30:51Z</time>
      </trkpt>
      <trkpt lat="42.41252" lon="0.0739">
        <ele>778.9</ele>
        <time>2016-07-24T10:30:52Z</time>
      </trkpt>
      <trkpt lat="42.41252" lon="0.07397">
        <ele>778</ele>
        <time>2016-07-24T10:30:53Z</time>
      </trkpt>
      <trkpt lat="42.41251" lon="0.07403">
        <ele>777.1</ele>
        <time>2016-07-24T10:30:54Z</time>
      </trkpt>
      <trkpt lat="42.41251" lon="0.0741">
        <ele>776.2</ele>
        <time>2016-07-24T10:30:55Z</time>
      </trkpt>
      <trkpt lat="42.41251" lon="0.07416">
        <ele>775.3</ele>
        <time>2016-07-24T10:30:56Z</time>
      </trkpt>
      <trkpt lat="42.41251" lon="0.07422">
        <ele>774.5</ele>
        <time>2016-07-24T10:30:57Z</time>
      </trkpt>
      <trkpt lat="42.41252" lon="0.07428">
        <ele>773.6</ele>
        <time>2016-07-24T10:30:58Z</time>
      </trkpt>
      <trkpt lat="42.41252" lon="0.07434">
        <ele>772.7</ele>
        <time>2016-07-24T10:30:59Z</time>
      </trkpt>
      <trkpt lat="42.41253" lon="0.07439">
        <ele>772</ele>
        <time>2016-07-24T10:31:00Z</time>
      </trkpt>
      <trkpt lat="42.41254" lon="0.07444">
        <ele>771.4</ele>
        <time>2016-07-24T10:31:01Z</time>
      </trkpt>
      <trkpt lat="42.41255" lon="0.07448">
        <ele>770.7</ele>
        <time>2016-07-24T10:31:02Z</time>
      </trkpt>
      <trkpt lat="42.41257" lon="0.07453">
        <ele>769.9</ele>
        <time>2016-07-24T10:31:03Z</time>
      </trkpt>
      <trkpt lat="42.41259" lon="0.07457">
        <ele>769.2</ele>
        <time>2016-07-24T10:31:04Z</time>
      </trkpt>
      <trkpt lat="42.41261" lon="0.07462">
        <ele>768.6</ele>
        <time>2016-07-24T10:31:05Z</time>
      </trkpt>
      <trkpt lat="42.41262" lon="0.07468">
        <ele>768</ele>
        <time>2016-07-24T10:31:06Z</time>
      </trkpt>
      <trkpt lat="42.41264" lon="0.07473">
        <ele>767.3</ele>
        <time>2016-07-24T10:31:07Z</time>
      </trkpt>
      <trkpt lat="42.41266" lon="0.07479">
        <ele>766.7</ele>
        <time>2016-07-24T10:31:08Z</time>
      </trkpt>
      <trkpt lat="42.41269" lon="0.07484">
        <ele>765.9</ele>
        <time>2016-07-24T10:31:09Z</time>
      </trkpt>
      <trkpt lat="42.41272" lon="0.0749">
        <ele>765.1</ele>
        <time>2016-07-24T10:31:10Z</time>
      </trkpt>
      <trkpt lat="42.41276" lon="0.07495">
        <ele>764.2</ele>
        <time>2016-07-24T10:31:11Z</time>
      </trkpt>
      <trkpt lat="42.4128" lon="0.07501">
        <ele>763.2</ele>
        <time>2016-07-24T10:31:12Z</time>
      </trkpt>
      <trkpt lat="42.41285" lon="0.07507">
        <ele>762</ele>
        <time>2016-07-24T10:31:13Z</time>
      </trkpt>
      <trkpt lat="42.41289" lon="0.07513">
        <ele>760.8</ele>
        <time>2016-07-24T10:31:14Z</time>
      </trkpt>
      <trkpt lat="42.41294" lon="0.07518">
        <ele>760</ele>
        <time>2016-07-24T10:31:15Z</time>
      </trkpt>
      <trkpt lat="42.41297" lon="0.07523">
        <ele>759.8</ele>
        <time>2016-07-24T10:31:16Z</time>
      </trkpt>
      <trkpt lat="42.413" lon="0.07528">
        <ele>759.6</ele>
        <time>2016-07-24T10:31:17Z</time>
      </trkpt>
      <trkpt lat="42.41303" lon="0.0753">
        <ele>759.5</ele>
        <time>2016-07-24T10:31:18Z</time>
      </trkpt>
      <trkpt lat="42.41307" lon="0.07533">
        <ele>759.5</ele>
        <time>2016-07-24T10:31:20Z</time>
      </trkpt>
      <trkpt lat="42.4131" lon="0.07537">
        <ele>759.3</ele>
        <time>2016-07-24T10:31:22Z</time>
      </trkpt>
      <trkpt lat="42.41313" lon="0.07542">
        <ele>759</ele>
        <time>2016-07-24T10:31:24Z</time>
      </trkpt>
      <trkpt lat="42.41316" lon="0.07547">
        <ele>758.8</ele>
        <time>2016-07-24T10:31:26Z</time>
      </trkpt>
      <trkpt lat="42.41318" lon="0.07549">
        <ele>758.7</ele>
        <time>2016-07-24T10:31:27Z</time>
      </trkpt>
      <trkpt lat="42.4132" lon="0.07552">
        <ele>758.7</ele>
        <time>2016-07-24T10:31:28Z</time>
      </trkpt>
      <trkpt lat="42.41324" lon="0.07555">
        <ele>758.6</ele>
        <time>2016-07-24T10:31:30Z</time>
      </trkpt>
      <trkpt lat="42.41328" lon="0.07558">
        <ele>758.6</ele>
        <time>2016-07-24T10:31:32Z</time>
      </trkpt>
      <trkpt lat="42.4133" lon="0.0756">
        <ele>758.5</ele>
        <time>2016-07-24T10:31:33Z</time>
      </trkpt>
      <trkpt lat="42.41333" lon="0.07563">
        <ele>758.4</ele>
        <time>2016-07-24T10:31:34Z</time>
      </trkpt>
      <trkpt lat="42.41335" lon="0.07567">
        <ele>758.2</ele>
        <time>2016-07-24T10:31:35Z</time>
      </trkpt>
      <trkpt lat="42.41338" lon="0.0757">
        <ele>757.9</ele>
        <time>2016-07-24T10:31:36Z</time>
      </trkpt>
      <trkpt lat="42.41341" lon="0.07573">
        <ele>757.7</ele>
        <time>2016-07-24T10:31:37Z</time>
      </trkpt>
      <trkpt lat="42.41344" lon="0.07577">
        <ele>757.4</ele>
        <time>2016-07-24T10:31:38Z</time>
      </trkpt>
      <trkpt lat="42.41347" lon="0.07581">
        <ele>757.1</ele>
        <time>2016-07-24T10:31:39Z</time>
      </trkpt>
      <trkpt lat="42.4135" lon="0.07585">
        <ele>756.8</ele>
        <time>2016-07-24T10:31:40Z</time>
      </trkpt>
      <trkpt lat="42.41354" lon="0.07589">
        <ele>756.4</ele>
        <time>2016-07-24T10:31:41Z</time>
      </trkpt>
      <trkpt lat="42.41357" lon="0.07593">
        <ele>756.1</ele>
        <time>2016-07-24T10:31:42Z</time>
      </trkpt>
      <trkpt lat="42.4136" lon="0.07596">
        <ele>755.7</ele>
        <time>2016-07-24T10:31:43Z</time>
      </trkpt>
      <trkpt lat="42.41362" lon="0.076">
        <ele>755.3</ele>
        <time>2016-07-24T10:31:44Z</time>
      </trkpt>
      <trkpt lat="42.41363" lon="0.07605">
        <ele>754.6</ele>
        <time>2016-07-24T10:31:45Z</time>
      </trkpt>
      <trkpt lat="42.41364" lon="0.07611">
        <ele>753.8</ele>
        <time>2016-07-24T10:31:46Z</time>
      </trkpt>
      <trkpt lat="42.41364" lon="0.07617">
        <ele>753</ele>
        <time>2016-07-24T10:31:47Z</time>
      </trkpt>
      <trkpt lat="42.41364" lon="0.07622">
        <ele>752.2</ele>
        <time>2016-07-24T10:31:48Z</time>
      </trkpt>
      <trkpt lat="42.41364" lon="0.07627">
        <ele>751.4</ele>
        <time>2016-07-24T10:31:49Z</time>
      </trkpt>
      <trkpt lat="42.41363" lon="0.07631">
        <ele>750.9</ele>
        <time>2016-07-24T10:31:50Z</time>
      </trkpt>
      <trkpt lat="42.41362" lon="0.07635">
        <ele>750.3</ele>
        <time>2016-07-24T10:31:53Z</time>
      </trkpt>
      <trkpt lat="42.41364" lon="0.07637">
        <ele>750</ele>
        <time>2016-07-24T10:31:58Z</time>
      </trkpt>
      <trkpt lat="42.41367" lon="0.07638">
        <ele>749.9</ele>
        <time>2016-07-24T10:32:04Z</time>
      </trkpt>
      <trkpt lat="42.4137" lon="0.07638">
        <ele>749.8</ele>
        <time>2016-07-24T10:32:12Z</time>
      </trkpt>
      <trkpt lat="42.41372" lon="0.07641">
        <ele>749.3</ele>
        <time>2016-07-24T10:32:14Z</time>
      </trkpt>
      <trkpt lat="42.41377" lon="0.07646">
        <ele>748.7</ele>
        <time>2016-07-24T10:32:16Z</time>
      </trkpt>
      <trkpt lat="42.4138" lon="0.07649">
        <ele>748.7</ele>
        <time>2016-07-24T10:32:17Z</time>
      </trkpt>
      <trkpt lat="42.41383" lon="0.07651">
        <ele>748.7</ele>
        <time>2016-07-24T10:32:18Z</time>
      </trkpt>
      <trkpt lat="42.41386" lon="0.07654">
        <ele>748.6</ele>
        <time>2016-07-24T10:32:19Z</time>
      </trkpt>
      <trkpt lat="42.41388" lon="0.07658">
        <ele>748.2</ele>
        <time>2016-07-24T10:32:20Z</time>
      </trkpt>
      <trkpt lat="42.4139" lon="0.07663">
        <ele>747.8</ele>
        <time>2016-07-24T10:32:21Z</time>
      </trkpt>
      <trkpt lat="42.41392" lon="0.07668">
        <ele>747.1</ele>
        <time>2016-07-24T10:32:22Z</time>
      </trkpt>
      <trkpt lat="42.41393" lon="0.07672">
        <ele>746.6</ele>
        <time>2016-07-24T10:32:23Z</time>
      </trkpt>
      <trkpt lat="42.41395" lon="0.07677">
        <ele>746.1</ele>
        <time>2016-07-24T10:32:24Z</time>
      </trkpt>
      <trkpt lat="42.41397" lon="0.0768">
        <ele>745.7</ele>
        <time>2016-07-24T10:32:25Z</time>
      </trkpt>
      <trkpt lat="42.41399" lon="0.07684">
        <ele>745.4</ele>
        <time>2016-07-24T10:32:26Z</time>
      </trkpt>
      <trkpt lat="42.41401" lon="0.07687">
        <ele>745.1</ele>
        <time>2016-07-24T10:32:27Z</time>
      </trkpt>
      <trkpt lat="42.41402" lon="0.07691">
        <ele>744.6</ele>
        <time>2016-07-24T10:32:28Z</time>
      </trkpt>
      <trkpt lat="42.41404" lon="0.07695">
        <ele>744.2</ele>
        <time>2016-07-24T10:32:29Z</time>
      </trkpt>
      <trkpt lat="42.41406" lon="0.07699">
        <ele>743.7</ele>
        <time>2016-07-24T10:32:30Z</time>
      </trkpt>
      <trkpt lat="42.41408" lon="0.07703">
        <ele>743.3</ele>
        <time>2016-07-24T10:32:31Z</time>
      </trkpt>
      <trkpt lat="42.4141" lon="0.07707">
        <ele>742.8</ele>
        <time>2016-07-24T10:32:32Z</time>
      </trkpt>
      <trkpt lat="42.41412" lon="0.07711">
        <ele>742.6</ele>
        <time>2016-07-24T10:32:33Z</time>
      </trkpt>
      <trkpt lat="42.41415" lon="0.07714">
        <ele>742.5</ele>
        <time>2016-07-24T10:32:34Z</time>
      </trkpt>
      <trkpt lat="42.41417" lon="0.07718">
        <ele>742.3</ele>
        <time>2016-07-24T10:32:35Z</time>
      </trkpt>
      <trkpt lat="42.4142" lon="0.07722">
        <ele>742</ele>
        <time>2016-07-24T10:32:36Z</time>
      </trkpt>
      <trkpt lat="42.41421" lon="0.07727">
        <ele>741.5</ele>
        <time>2016-07-24T10:32:37Z</time>
      </trkpt>
      <trkpt lat="42.41423" lon="0.07732">
        <ele>741</ele>
        <time>2016-07-24T10:32:38Z</time>
      </trkpt>
      <trkpt lat="42.41424" lon="0.07737">
        <ele>740.4</ele>
        <time>2016-07-24T10:32:39Z</time>
      </trkpt>
      <trkpt lat="42.41426" lon="0.07742">
        <ele>739.8</ele>
        <time>2016-07-24T10:32:40Z</time>
      </trkpt>
      <trkpt lat="42.41427" lon="0.07747">
        <ele>739.3</ele>
        <time>2016-07-24T10:32:41Z</time>
      </trkpt>
      <trkpt lat="42.41428" lon="0.07751">
        <ele>738.8</ele>
        <time>2016-07-24T10:32:42Z</time>
      </trkpt>
      <trkpt lat="42.41429" lon="0.07755">
        <ele>738.2</ele>
        <time>2016-07-24T10:32:43Z</time>
      </trkpt>
      <trkpt lat="42.4143" lon="0.07759">
        <ele>737.8</ele>
        <time>2016-07-24T10:32:44Z</time>
      </trkpt>
      <trkpt lat="42.41431" lon="0.07764">
        <ele>737.1</ele>
        <time>2016-07-24T10:32:46Z</time>
      </trkpt>
      <trkpt lat="42.41432" lon="0.07767">
        <ele>736.8</ele>
        <time>2016-07-24T10:32:50Z</time>
      </trkpt>
      <trkpt lat="42.41435" lon="0.0777">
        <ele>736.6</ele>
        <time>2016-07-24T10:32:53Z</time>
      </trkpt>
      <trkpt lat="42.41439" lon="0.07776">
        <ele>736</ele>
        <time>2016-07-24T10:32:55Z</time>
      </trkpt>
      <trkpt lat="42.41441" lon="0.07779">
        <ele>735.7</ele>
        <time>2016-07-24T10:32:56Z</time>
      </trkpt>
      <trkpt lat="42.41443" lon="0.07783">
        <ele>735.3</ele>
        <time>2016-07-24T10:32:57Z</time>
      </trkpt>
      <trkpt lat="42.41446" lon="0.07787">
        <ele>734.8</ele>
        <time>2016-07-24T10:32:58Z</time>
      </trkpt>
      <trkpt lat="42.41448" lon="0.07791">
        <ele>734.4</ele>
        <time>2016-07-24T10:32:59Z</time>
      </trkpt>
      <trkpt lat="42.4145" lon="0.07794">
        <ele>734.3</ele>
        <time>2016-07-24T10:33:00Z</time>
      </trkpt>
      <trkpt lat="42.41452" lon="0.07799">
        <ele>734.3</ele>
        <time>2016-07-24T10:33:02Z</time>
      </trkpt>
      <trkpt lat="42.41455" lon="0.07802">
        <ele>734.4</ele>
        <time>2016-07-24T10:33:04Z</time>
      </trkpt>
      <trkpt lat="42.4146" lon="0.07805">
        <ele>734.6</ele>
        <time>2016-07-24T10:33:06Z</time>
      </trkpt>
      <trkpt lat="42.41462" lon="0.07807">
        <ele>734.6</ele>
        <time>2016-07-24T10:33:07Z</time>
      </trkpt>
      <trkpt lat="42.41465" lon="0.07808">
        <ele>734.7</ele>
        <time>2016-07-24T10:33:08Z</time>
      </trkpt>
      <trkpt lat="42.41469" lon="0.07811">
        <ele>734.7</ele>
        <time>2016-07-24T10:33:10Z</time>
      </trkpt>
      <trkpt lat="42.41472" lon="0.07814">
        <ele>734.5</ele>
        <time>2016-07-24T10:33:12Z</time>
      </trkpt>
      <trkpt lat="42.4147" lon="0.07819">
        <ele>734.1</ele>
        <time>2016-07-24T10:33:14Z</time>
      </trkpt>
      <trkpt lat="42.41467" lon="0.0782">
        <ele>734</ele>
        <time>2016-07-24T10:33:15Z</time>
      </trkpt>
      <trkpt lat="42.41464" lon="0.0782">
        <ele>734</ele>
        <time>2016-07-24T10:33:16Z</time>
      </trkpt>
      <trkpt lat="42.41461" lon="0.0782">
        <ele>734</ele>
        <time>2016-07-24T10:33:17Z</time>
      </trkpt>
      <trkpt lat="42.41457" lon="0.07819">
        <ele>733.9</ele>
        <time>2016-07-24T10:33:18Z</time>
      </trkpt>
      <trkpt lat="42.41453" lon="0.07819">
        <ele>733.6</ele>
        <time>2016-07-24T10:33:19Z</time>
      </trkpt>
      <trkpt lat="42.4145" lon="0.07818">
        <ele>733.3</ele>
        <time>2016-07-24T10:33:20Z</time>
      </trkpt>
      <trkpt lat="42.41447" lon="0.07819">
        <ele>733.1</ele>
        <time>2016-07-24T10:33:21Z</time>
      </trkpt>
      <trkpt lat="42.41444" lon="0.07822">
        <ele>732.7</ele>
        <time>2016-07-24T10:33:23Z</time>
      </trkpt>
      <trkpt lat="42.41445" lon="0.07827">
        <ele>732.5</ele>
        <time>2016-07-24T10:33:25Z</time>
      </trkpt>
      <trkpt lat="42.41448" lon="0.07833">
        <ele>732.6</ele>
        <time>2016-07-24T10:33:27Z</time>
      </trkpt>
      <trkpt lat="42.4145" lon="0.07837">
        <ele>732.6</ele>
        <time>2016-07-24T10:33:30Z</time>
      </trkpt>
      <trkpt lat="42.41453" lon="0.07842">
        <ele>732.7</ele>
        <time>2016-07-24T10:33:32Z</time>
      </trkpt>
      <trkpt lat="42.41454" lon="0.07847">
        <ele>732.6</ele>
        <time>2016-07-24T10:33:34Z</time>
      </trkpt>
      <trkpt lat="42.41455" lon="0.0785">
        <ele>732.6</ele>
        <time>2016-07-24T10:33:35Z</time>
      </trkpt>
      <trkpt lat="42.41455" lon="0.07854">
        <ele>732.5</ele>
        <time>2016-07-24T10:33:36Z</time>
      </trkpt>
      <trkpt lat="42.41456" lon="0.07859">
        <ele>732.3</ele>
        <time>2016-07-24T10:33:37Z</time>
      </trkpt>
      <trkpt lat="42.41456" lon="0.07863">
        <ele>732.2</ele>
        <time>2016-07-24T10:33:38Z</time>
      </trkpt>
      <trkpt lat="42.41456" lon="0.07867">
        <ele>732</ele>
        <time>2016-07-24T10:33:39Z</time>
      </trkpt>
      <trkpt lat="42.41457" lon="0.07871">
        <ele>731.9</ele>
        <time>2016-07-24T10:33:40Z</time>
      </trkpt>
      <trkpt lat="42.41457" lon="0.07875">
        <ele>731.9</ele>
        <time>2016-07-24T10:33:41Z</time>
      </trkpt>
      <trkpt lat="42.41459" lon="0.07879">
        <ele>732.1</ele>
        <time>2016-07-24T10:33:42Z</time>
      </trkpt>
      <trkpt lat="42.4146" lon="0.07884">
        <ele>732</ele>
        <time>2016-07-24T10:33:43Z</time>
      </trkpt>
      <trkpt lat="42.41462" lon="0.07889">
        <ele>731.9</ele>
        <time>2016-07-24T10:33:44Z</time>
      </trkpt>
      <trkpt lat="42.41463" lon="0.07893">
        <ele>731.8</ele>
        <time>2016-07-24T10:33:45Z</time>
      </trkpt>
      <trkpt lat="42.41464" lon="0.07897">
        <ele>731.7</ele>
        <time>2016-07-24T10:33:46Z</time>
      </trkpt>
      <trkpt lat="42.41466" lon="0.07901">
        <ele>731.4</ele>
        <time>2016-07-24T10:33:48Z</time>
      </trkpt>
      <trkpt lat="42.41469" lon="0.07906">
        <ele>730.9</ele>
        <time>2016-07-24T10:34:59Z</time>
      </trkpt>
      <trkpt lat="42.41469" lon="0.07913">
        <ele>730.9</ele>
        <time>2016-07-24T10:35:01Z</time>
      </trkpt>
      <trkpt lat="42.4147" lon="0.0792">
        <ele>730.7</ele>
        <time>2016-07-24T10:35:03Z</time>
      </trkpt>
      <trkpt lat="42.41472" lon="0.07924">
        <ele>730.3</ele>
        <time>2016-07-24T10:35:04Z</time>
      </trkpt>
      <trkpt lat="42.41473" lon="0.07929">
        <ele>729.9</ele>
        <time>2016-07-24T10:35:05Z</time>
      </trkpt>
      <trkpt lat="42.41474" lon="0.07934">
        <ele>729.6</ele>
        <time>2016-07-24T10:35:06Z</time>
      </trkpt>
      <trkpt lat="42.41475" lon="0.0794">
        <ele>729.4</ele>
        <time>2016-07-24T10:35:07Z</time>
      </trkpt>
      <trkpt lat="42.41476" lon="0.07944">
        <ele>729.1</ele>
        <time>2016-07-24T10:35:08Z</time>
      </trkpt>
      <trkpt lat="42.41477" lon="0.07948">
        <ele>728.8</ele>
        <time>2016-07-24T10:35:09Z</time>
      </trkpt>
      <trkpt lat="42.41479" lon="0.07953">
        <ele>728.2</ele>
        <time>2016-07-24T10:35:10Z</time>
      </trkpt>
      <trkpt lat="42.41481" lon="0.07958">
        <ele>727.4</ele>
        <time>2016-07-24T10:35:11Z</time>
      </trkpt>
      <trkpt lat="42.41483" lon="0.07963">
        <ele>726.4</ele>
        <time>2016-07-24T10:35:12Z</time>
      </trkpt>
      <trkpt lat="42.41484" lon="0.07968">
        <ele>725.6</ele>
        <time>2016-07-24T10:35:13Z</time>
      </trkpt>
      <trkpt lat="42.41484" lon="0.07973">
        <ele>725.1</ele>
        <time>2016-07-24T10:35:14Z</time>
      </trkpt>
      <trkpt lat="42.41484" lon="0.07979">
        <ele>724.8</ele>
        <time>2016-07-24T10:35:15Z</time>
      </trkpt>
      <trkpt lat="42.41483" lon="0.07986">
        <ele>724.5</ele>
        <time>2016-07-24T10:35:16Z</time>
      </trkpt>
      <trkpt lat="42.41484" lon="0.07991">
        <ele>723.9</ele>
        <time>2016-07-24T10:35:17Z</time>
      </trkpt>
      <trkpt lat="42.41485" lon="0.07996">
        <ele>723.1</ele>
        <time>2016-07-24T10:35:18Z</time>
      </trkpt>
      <trkpt lat="42.41487" lon="0.08">
        <ele>722.2</ele>
        <time>2016-07-24T10:35:19Z</time>
      </trkpt>
      <trkpt lat="42.41489" lon="0.08006">
        <ele>721.4</ele>
        <time>2016-07-24T10:35:21Z</time>
      </trkpt>
      <trkpt lat="42.41488" lon="0.08014">
        <ele>720.9</ele>
        <time>2016-07-24T10:35:23Z</time>
      </trkpt>
      <trkpt lat="42.41488" lon="0.08018">
        <ele>720.6</ele>
        <time>2016-07-24T10:35:24Z</time>
      </trkpt>
      <trkpt lat="42.41487" lon="0.08023">
        <ele>720.4</ele>
        <time>2016-07-24T10:35:25Z</time>
      </trkpt>
      <trkpt lat="42.41486" lon="0.08028">
        <ele>720.3</ele>
        <time>2016-07-24T10:35:26Z</time>
      </trkpt>
      <trkpt lat="42.41485" lon="0.08033">
        <ele>720.2</ele>
        <time>2016-07-24T10:35:27Z</time>
      </trkpt>
      <trkpt lat="42.41485" lon="0.08039">
        <ele>719.8</ele>
        <time>2016-07-24T10:35:28Z</time>
      </trkpt>
      <trkpt lat="42.41486" lon="0.08045">
        <ele>719.2</ele>
        <time>2016-07-24T10:35:29Z</time>
      </trkpt>
      <trkpt lat="42.41487" lon="0.08049">
        <ele>718.6</ele>
        <time>2016-07-24T10:35:30Z</time>
      </trkpt>
      <trkpt lat="42.41489" lon="0.08053">
        <ele>717.8</ele>
        <time>2016-07-24T10:35:32Z</time>
      </trkpt>
      <trkpt lat="42.4149" lon="0.08059">
        <ele>717.3</ele>
        <time>2016-07-24T10:35:34Z</time>
      </trkpt>
      <trkpt lat="42.41488" lon="0.08065">
        <ele>717.3</ele>
        <time>2016-07-24T10:35:36Z</time>
      </trkpt>
      <trkpt lat="42.41486" lon="0.08068">
        <ele>717.3</ele>
        <time>2016-07-24T10:35:37Z</time>
      </trkpt>
      <trkpt lat="42.41485" lon="0.08072">
        <ele>717.3</ele>
        <time>2016-07-24T10:35:38Z</time>
      </trkpt>
      <trkpt lat="42.41483" lon="0.08079">
        <ele>716.9</ele>
        <time>2016-07-24T10:35:40Z</time>
      </trkpt>
      <trkpt lat="42.41483" lon="0.08083">
        <ele>716.7</ele>
        <time>2016-07-24T10:35:41Z</time>
      </trkpt>
      <trkpt lat="42.41482" lon="0.08087">
        <ele>716.4</ele>
        <time>2016-07-24T10:35:42Z</time>
      </trkpt>
      <trkpt lat="42.41481" lon="0.08091">
        <ele>716.2</ele>
        <time>2016-07-24T10:35:43Z</time>
      </trkpt>
      <trkpt lat="42.41479" lon="0.08096">
        <ele>716</ele>
        <time>2016-07-24T10:35:44Z</time>
      </trkpt>
      <trkpt lat="42.41476" lon="0.081">
        <ele>715.9</ele>
        <time>2016-07-24T10:35:45Z</time>
      </trkpt>
      <trkpt lat="42.41473" lon="0.08104">
        <ele>715.7</ele>
        <time>2016-07-24T10:35:46Z</time>
      </trkpt>
      <trkpt lat="42.41471" lon="0.08108">
        <ele>715.5</ele>
        <time>2016-07-24T10:35:47Z</time>
      </trkpt>
      <trkpt lat="42.41468" lon="0.08112">
        <ele>715.3</ele>
        <time>2016-07-24T10:35:48Z</time>
      </trkpt>
      <trkpt lat="42.41465" lon="0.08116">
        <ele>714.9</ele>
        <time>2016-07-24T10:35:49Z</time>
      </trkpt>
      <trkpt lat="42.41462" lon="0.08121">
        <ele>714.4</ele>
        <time>2016-07-24T10:35:50Z</time>
      </trkpt>
      <trkpt lat="42.4146" lon="0.08125">
        <ele>713.9</ele>
        <time>2016-07-24T10:35:51Z</time>
      </trkpt>
      <trkpt lat="42.41458" lon="0.0813">
        <ele>713.2</ele>
        <time>2016-07-24T10:35:52Z</time>
      </trkpt>
      <trkpt lat="42.41457" lon="0.08134">
        <ele>712.5</ele>
        <time>2016-07-24T10:35:53Z</time>
      </trkpt>
      <trkpt lat="42.41455" lon="0.08138">
        <ele>711.7</ele>
        <time>2016-07-24T10:35:55Z</time>
      </trkpt>
      <trkpt lat="42.41454" lon="0.08144">
        <ele>710.7</ele>
        <time>2016-07-24T10:35:57Z</time>
      </trkpt>
      <trkpt lat="42.41455" lon="0.0815">
        <ele>709.8</ele>
        <time>2016-07-24T10:35:59Z</time>
      </trkpt>
      <trkpt lat="42.41457" lon="0.08156">
        <ele>709.2</ele>
        <time>2016-07-24T10:36:01Z</time>
      </trkpt>
      <trkpt lat="42.41459" lon="0.08162">
        <ele>708.3</ele>
        <time>2016-07-24T10:36:03Z</time>
      </trkpt>
      <trkpt lat="42.4146" lon="0.08166">
        <ele>707.7</ele>
        <time>2016-07-24T10:36:04Z</time>
      </trkpt>
      <trkpt lat="42.41461" lon="0.0817">
        <ele>707.1</ele>
        <time>2016-07-24T10:36:05Z</time>
      </trkpt>
      <trkpt lat="42.41462" lon="0.08174">
        <ele>706.7</ele>
        <time>2016-07-24T10:36:06Z</time>
      </trkpt>
      <trkpt lat="42.41463" lon="0.08177">
        <ele>706.2</ele>
        <time>2016-07-24T10:36:07Z</time>
      </trkpt>
      <trkpt lat="42.41465" lon="0.08181">
        <ele>705.8</ele>
        <time>2016-07-24T10:36:08Z</time>
      </trkpt>
      <trkpt lat="42.41467" lon="0.08185">
        <ele>705.5</ele>
        <time>2016-07-24T10:36:09Z</time>
      </trkpt>
      <trkpt lat="42.41469" lon="0.08189">
        <ele>705.1</ele>
        <time>2016-07-24T10:36:10Z</time>
      </trkpt>
      <trkpt lat="42.41471" lon="0.08194">
        <ele>704.7</ele>
        <time>2016-07-24T10:36:11Z</time>
      </trkpt>
      <trkpt lat="42.41472" lon="0.08199">
        <ele>704.2</ele>
        <time>2016-07-24T10:36:12Z</time>
      </trkpt>
      <trkpt lat="42.41474" lon="0.08204">
        <ele>703.7</ele>
        <time>2016-07-24T10:36:13Z</time>
      </trkpt>
      <trkpt lat="42.41475" lon="0.08209">
        <ele>703.3</ele>
        <time>2016-07-24T10:36:15Z</time>
      </trkpt>
      <trkpt lat="42.41476" lon="0.08212">
        <ele>703.3</ele>
        <time>2016-07-24T10:36:18Z</time>
      </trkpt>
      <trkpt lat="42.41478" lon="0.08215">
        <ele>703.3</ele>
        <time>2016-07-24T10:36:20Z</time>
      </trkpt>
      <trkpt lat="42.41482" lon="0.08219">
        <ele>703.5</ele>
        <time>2016-07-24T10:36:22Z</time>
      </trkpt>
      <trkpt lat="42.41484" lon="0.08221">
        <ele>703.6</ele>
        <time>2016-07-24T10:36:24Z</time>
      </trkpt>
      <trkpt lat="42.41485" lon="0.08226">
        <ele>703.3</ele>
        <time>2016-07-24T10:36:27Z</time>
      </trkpt>
      <trkpt lat="42.41486" lon="0.0823">
        <ele>703</ele>
        <time>2016-07-24T10:36:32Z</time>
      </trkpt>
      <trkpt lat="42.41488" lon="0.08233">
        <ele>703.1</ele>
        <time>2016-07-24T10:36:34Z</time>
      </trkpt>
      <trkpt lat="42.41491" lon="0.08237">
        <ele>703.1</ele>
        <time>2016-07-24T10:36:36Z</time>
      </trkpt>
      <trkpt lat="42.41495" lon="0.08242">
        <ele>703</ele>
        <time>2016-07-24T10:36:38Z</time>
      </trkpt>
      <trkpt lat="42.41496" lon="0.08246">
        <ele>703</ele>
        <time>2016-07-24T10:36:39Z</time>
      </trkpt>
      <trkpt lat="42.41499" lon="0.0825">
        <ele>702.9</ele>
        <time>2016-07-24T10:36:41Z</time>
      </trkpt>
      <trkpt lat="42.41502" lon="0.08252">
        <ele>703</ele>
        <time>2016-07-24T10:36:43Z</time>
      </trkpt>
      <trkpt lat="42.41504" lon="0.08253">
        <ele>703.2</ele>
        <time>2016-07-24T10:36:45Z</time>
      </trkpt>
      <trkpt lat="42.41507" lon="0.08255">
        <ele>703.4</ele>
        <time>2016-07-24T10:36:47Z</time>
      </trkpt>
      <trkpt lat="42.41511" lon="0.08257">
        <ele>703.6</ele>
        <time>2016-07-24T10:36:49Z</time>
      </trkpt>
      <trkpt lat="42.41515" lon="0.0826">
        <ele>703.7</ele>
        <time>2016-07-24T10:36:51Z</time>
      </trkpt>
      <trkpt lat="42.41517" lon="0.08263">
        <ele>703.6</ele>
        <time>2016-07-24T10:36:52Z</time>
      </trkpt>
      <trkpt lat="42.41518" lon="0.08266">
        <ele>703.5</ele>
        <time>2016-07-24T10:36:53Z</time>
      </trkpt>
      <trkpt lat="42.4152" lon="0.08269">
        <ele>703.3</ele>
        <time>2016-07-24T10:36:54Z</time>
      </trkpt>
      <trkpt lat="42.41522" lon="0.08273">
        <ele>703.1</ele>
        <time>2016-07-24T10:36:55Z</time>
      </trkpt>
      <trkpt lat="42.41523" lon="0.08276">
        <ele>702.9</ele>
        <time>2016-07-24T10:36:56Z</time>
      </trkpt>
      <trkpt lat="42.41525" lon="0.08279">
        <ele>702.7</ele>
        <time>2016-07-24T10:36:57Z</time>
      </trkpt>
      <trkpt lat="42.41527" lon="0.08283">
        <ele>702.6</ele>
        <time>2016-07-24T10:36:58Z</time>
      </trkpt>
      <trkpt lat="42.41529" lon="0.08286">
        <ele>702.4</ele>
        <time>2016-07-24T10:36:59Z</time>
      </trkpt>
      <trkpt lat="42.41531" lon="0.08289">
        <ele>702.3</ele>
        <time>2016-07-24T10:37:00Z</time>
      </trkpt>
      <trkpt lat="42.41533" lon="0.08292">
        <ele>702.1</ele>
        <time>2016-07-24T10:37:01Z</time>
      </trkpt>
      <trkpt lat="42.41538" lon="0.08295">
        <ele>702.2</ele>
        <time>2016-07-24T10:37:03Z</time>
      </trkpt>
      <trkpt lat="42.41542" lon="0.08298">
        <ele>702.2</ele>
        <time>2016-07-24T10:37:05Z</time>
      </trkpt>
      <trkpt lat="42.41543" lon="0.08302">
        <ele>702</ele>
        <time>2016-07-24T10:37:06Z</time>
      </trkpt>
      <trkpt lat="42.41544" lon="0.08306">
        <ele>701.5</ele>
        <time>2016-07-24T10:37:07Z</time>
      </trkpt>
      <trkpt lat="42.41543" lon="0.08311">
        <ele>700.8</ele>
        <time>2016-07-24T10:37:08Z</time>
      </trkpt>
      <trkpt lat="42.41543" lon="0.08316">
        <ele>700.1</ele>
        <time>2016-07-24T10:37:09Z</time>
      </trkpt>
      <trkpt lat="42.41543" lon="0.08322">
        <ele>699.3</ele>
        <time>2016-07-24T10:37:11Z</time>
      </trkpt>
      <trkpt lat="42.41544" lon="0.08328">
        <ele>698.7</ele>
        <time>2016-07-24T10:37:13Z</time>
      </trkpt>
      <trkpt lat="42.41546" lon="0.08333">
        <ele>698.4</ele>
        <time>2016-07-24T10:37:15Z</time>
      </trkpt>
      <trkpt lat="42.41549" lon="0.08339">
        <ele>698.2</ele>
        <time>2016-07-24T10:37:17Z</time>
      </trkpt>
      <trkpt lat="42.41551" lon="0.08344">
        <ele>698</ele>
        <time>2016-07-24T10:37:19Z</time>
      </trkpt>
      <trkpt lat="42.41554" lon="0.0835">
        <ele>697.8</ele>
        <time>2016-07-24T10:37:21Z</time>
      </trkpt>
      <trkpt lat="42.41558" lon="0.08353">
        <ele>698.1</ele>
        <time>2016-07-24T10:37:23Z</time>
      </trkpt>
      <trkpt lat="42.41562" lon="0.08356">
        <ele>698.6</ele>
        <time>2016-07-24T10:37:25Z</time>
      </trkpt>
      <trkpt lat="42.41566" lon="0.0836">
        <ele>698.8</ele>
        <time>2016-07-24T10:37:27Z</time>
      </trkpt>
      <trkpt lat="42.41568" lon="0.08362">
        <ele>698.9</ele>
        <time>2016-07-24T10:37:28Z</time>
      </trkpt>
      <trkpt lat="42.4157" lon="0.08365">
        <ele>699</ele>
        <time>2016-07-24T10:37:29Z</time>
      </trkpt>
      <trkpt lat="42.41573" lon="0.08368">
        <ele>699</ele>
        <time>2016-07-24T10:37:30Z</time>
      </trkpt>
      <trkpt lat="42.41576" lon="0.08372">
        <ele>699.1</ele>
        <time>2016-07-24T10:37:31Z</time>
      </trkpt>
      <trkpt lat="42.41579" lon="0.08376">
        <ele>699.1</ele>
        <time>2016-07-24T10:37:32Z</time>
      </trkpt>
      <trkpt lat="42.41582" lon="0.0838">
        <ele>699.2</ele>
        <time>2016-07-24T10:37:33Z</time>
      </trkpt>
      <trkpt lat="42.41584" lon="0.08384">
        <ele>699.3</ele>
        <time>2016-07-24T10:37:34Z</time>
      </trkpt>
      <trkpt lat="42.41587" lon="0.08388">
        <ele>699.4</ele>
        <time>2016-07-24T10:37:35Z</time>
      </trkpt>
      <trkpt lat="42.4159" lon="0.08391">
        <ele>699.5</ele>
        <time>2016-07-24T10:37:36Z</time>
      </trkpt>
      <trkpt lat="42.41594" lon="0.08394">
        <ele>699.9</ele>
        <time>2016-07-24T10:37:37Z</time>
      </trkpt>
      <trkpt lat="42.41597" lon="0.08396">
        <ele>700.3</ele>
        <time>2016-07-24T10:37:38Z</time>
      </trkpt>
      <trkpt lat="42.41601" lon="0.08398">
        <ele>700.8</ele>
        <time>2016-07-24T10:37:39Z</time>
      </trkpt>
      <trkpt lat="42.41605" lon="0.08401">
        <ele>701.1</ele>
        <time>2016-07-24T10:37:40Z</time>
      </trkpt>
      <trkpt lat="42.41608" lon="0.08404">
        <ele>701.2</ele>
        <time>2016-07-24T10:37:41Z</time>
      </trkpt>
      <trkpt lat="42.4161" lon="0.08407">
        <ele>701.2</ele>
        <time>2016-07-24T10:37:42Z</time>
      </trkpt>
      <trkpt lat="42.41613" lon="0.08411">
        <ele>701.2</ele>
        <time>2016-07-24T10:37:43Z</time>
      </trkpt>
      <trkpt lat="42.41615" lon="0.08415">
        <ele>701.1</ele>
        <time>2016-07-24T10:37:44Z</time>
      </trkpt>
      <trkpt lat="42.41617" lon="0.08418">
        <ele>701</ele>
        <time>2016-07-24T10:37:45Z</time>
      </trkpt>
      <trkpt lat="42.41619" lon="0.08422">
        <ele>700.9</ele>
        <time>2016-07-24T10:37:46Z</time>
      </trkpt>
      <trkpt lat="42.41621" lon="0.08426">
        <ele>700.7</ele>
        <time>2016-07-24T10:37:47Z</time>
      </trkpt>
      <trkpt lat="42.41623" lon="0.08429">
        <ele>700.6</ele>
        <time>2016-07-24T10:37:48Z</time>
      </trkpt>
      <trkpt lat="42.41625" lon="0.08432">
        <ele>700.5</ele>
        <time>2016-07-24T10:37:49Z</time>
      </trkpt>
      <trkpt lat="42.41628" lon="0.08436">
        <ele>700.2</ele>
        <time>2016-07-24T10:37:51Z</time>
      </trkpt>
      <trkpt lat="42.41631" lon="0.08437">
        <ele>700.4</ele>
        <time>2016-07-24T10:37:54Z</time>
      </trkpt>
      <trkpt lat="42.41635" lon="0.08436">
        <ele>700.9</ele>
        <time>2016-07-24T10:37:56Z</time>
      </trkpt>
      <trkpt lat="42.4164" lon="0.08435">
        <ele>701.6</ele>
        <time>2016-07-24T10:37:58Z</time>
      </trkpt>
      <trkpt lat="42.41645" lon="0.08435">
        <ele>702.1</ele>
        <time>2016-07-24T10:38:00Z</time>
      </trkpt>
      <trkpt lat="42.4165" lon="0.08436">
        <ele>702.5</ele>
        <time>2016-07-24T10:38:02Z</time>
      </trkpt>
      <trkpt lat="42.41655" lon="0.08436">
        <ele>703</ele>
        <time>2016-07-24T10:38:04Z</time>
      </trkpt>
      <trkpt lat="42.4166" lon="0.08436">
        <ele>703.5</ele>
        <time>2016-07-24T10:38:06Z</time>
      </trkpt>
      <trkpt lat="42.41665" lon="0.08436">
        <ele>704</ele>
        <time>2016-07-24T10:38:08Z</time>
      </trkpt>
      <trkpt lat="42.4167" lon="0.08436">
        <ele>704.6</ele>
        <time>2016-07-24T10:38:10Z</time>
      </trkpt>
      <trkpt lat="42.41673" lon="0.08434">
        <ele>705.1</ele>
        <time>2016-07-24T10:38:11Z</time>
      </trkpt>
      <trkpt lat="42.41676" lon="0.08431">
        <ele>706</ele>
        <time>2016-07-24T10:38:12Z</time>
      </trkpt>
      <trkpt lat="42.41679" lon="0.08427">
        <ele>706.8</ele>
        <time>2016-07-24T10:38:13Z</time>
      </trkpt>
      <trkpt lat="42.41683" lon="0.08423">
        <ele>707.7</ele>
        <time>2016-07-24T10:38:14Z</time>
      </trkpt>
      <trkpt lat="42.41686" lon="0.0842">
        <ele>708.7</ele>
        <time>2016-07-24T10:38:15Z</time>
      </trkpt>
      <trkpt lat="42.4169" lon="0.08416">
        <ele>709.6</ele>
        <time>2016-07-24T10:38:16Z</time>
      </trkpt>
      <trkpt lat="42.41694" lon="0.08413">
        <ele>710.5</ele>
        <time>2016-07-24T10:38:17Z</time>
      </trkpt>
      <trkpt lat="42.41697" lon="0.0841">
        <ele>711.4</ele>
        <time>2016-07-24T10:38:18Z</time>
      </trkpt>
      <trkpt lat="42.41701" lon="0.08407">
        <ele>712.2</ele>
        <time>2016-07-24T10:38:19Z</time>
      </trkpt>
      <trkpt lat="42.41704" lon="0.08405">
        <ele>712.9</ele>
        <time>2016-07-24T10:38:20Z</time>
      </trkpt>
      <trkpt lat="42.41708" lon="0.08404">
        <ele>713.5</ele>
        <time>2016-07-24T10:38:21Z</time>
      </trkpt>
      <trkpt lat="42.41712" lon="0.08403">
        <ele>713.2</ele>
        <time>2016-07-24T10:38:22Z</time>
      </trkpt>
      <trkpt lat="42.41715" lon="0.08403">
        <ele>712.8</ele>
        <time>2016-07-24T10:38:23Z</time>
      </trkpt>
      <trkpt lat="42.41719" lon="0.08403">
        <ele>712.2</ele>
        <time>2016-07-24T10:38:24Z</time>
      </trkpt>
      <trkpt lat="42.41723" lon="0.08406">
        <ele>711.4</ele>
        <time>2016-07-24T10:38:25Z</time>
      </trkpt>
      <trkpt lat="42.41726" lon="0.08409">
        <ele>710.5</ele>
        <time>2016-07-24T10:38:26Z</time>
      </trkpt>
      <trkpt lat="42.41729" lon="0.08413">
        <ele>709.7</ele>
        <time>2016-07-24T10:38:27Z</time>
      </trkpt>
      <trkpt lat="42.41732" lon="0.08416">
        <ele>709</ele>
        <time>2016-07-24T10:38:28Z</time>
      </trkpt>
      <trkpt lat="42.41735" lon="0.0842">
        <ele>708.3</ele>
        <time>2016-07-24T10:38:29Z</time>
      </trkpt>
      <trkpt lat="42.41737" lon="0.08425">
        <ele>707.5</ele>
        <time>2016-07-24T10:38:30Z</time>
      </trkpt>
      <trkpt lat="42.41739" lon="0.08431">
        <ele>706.7</ele>
        <time>2016-07-24T10:38:31Z</time>
      </trkpt>
      <trkpt lat="42.41741" lon="0.08437">
        <ele>706</ele>
        <time>2016-07-24T10:38:32Z</time>
      </trkpt>
      <trkpt lat="42.41742" lon="0.08442">
        <ele>705.4</ele>
        <time>2016-07-24T10:38:33Z</time>
      </trkpt>
      <trkpt lat="42.41744" lon="0.08447">
        <ele>704.8</ele>
        <time>2016-07-24T10:38:34Z</time>
      </trkpt>
      <trkpt lat="42.41745" lon="0.08451">
        <ele>704.3</ele>
        <time>2016-07-24T10:38:35Z</time>
      </trkpt>
      <trkpt lat="42.41746" lon="0.08456">
        <ele>703.9</ele>
        <time>2016-07-24T10:38:36Z</time>
      </trkpt>
      <trkpt lat="42.41746" lon="0.0846">
        <ele>703.6</ele>
        <time>2016-07-24T10:38:37Z</time>
      </trkpt>
      <trkpt lat="42.41745" lon="0.08464">
        <ele>703.4</ele>
        <time>2016-07-24T10:38:38Z</time>
      </trkpt>
      <trkpt lat="42.41744" lon="0.08469">
        <ele>703.3</ele>
        <time>2016-07-24T10:38:39Z</time>
      </trkpt>
      <trkpt lat="42.41742" lon="0.08472">
        <ele>703.2</ele>
        <time>2016-07-24T10:38:40Z</time>
      </trkpt>
      <trkpt lat="42.4174" lon="0.08476">
        <ele>703</ele>
        <time>2016-07-24T10:38:41Z</time>
      </trkpt>
      <trkpt lat="42.41738" lon="0.0848">
        <ele>702.8</ele>
        <time>2016-07-24T10:38:42Z</time>
      </trkpt>
      <trkpt lat="42.41735" lon="0.08484">
        <ele>702.5</ele>
        <time>2016-07-24T10:38:43Z</time>
      </trkpt>
      <trkpt lat="42.41733" lon="0.08488">
        <ele>702.3</ele>
        <time>2016-07-24T10:38:44Z</time>
      </trkpt>
      <trkpt lat="42.41731" lon="0.08491">
        <ele>702</ele>
        <time>2016-07-24T10:38:45Z</time>
      </trkpt>
      <trkpt lat="42.4173" lon="0.08494">
        <ele>701.8</ele>
        <time>2016-07-24T10:38:51Z</time>
      </trkpt>
      <trkpt lat="42.41731" lon="0.08502">
        <ele>701.3</ele>
        <time>2016-07-24T10:39:55Z</time>
      </trkpt>
      <trkpt lat="42.41731" lon="0.08506">
        <ele>701</ele>
        <time>2016-07-24T10:39:57Z</time>
      </trkpt>
      <trkpt lat="42.41731" lon="0.08513">
        <ele>700.6</ele>
        <time>2016-07-24T10:39:59Z</time>
      </trkpt>
      <trkpt lat="42.41731" lon="0.08517">
        <ele>700.3</ele>
        <time>2016-07-24T10:40:00Z</time>
      </trkpt>
      <trkpt lat="42.4173" lon="0.08523">
        <ele>699.9</ele>
        <time>2016-07-24T10:40:02Z</time>
      </trkpt>
      <trkpt lat="42.4173" lon="0.08528">
        <ele>699.5</ele>
        <time>2016-07-24T10:40:04Z</time>
      </trkpt>
      <trkpt lat="42.4173" lon="0.08533">
        <ele>699.2</ele>
        <time>2016-07-24T10:40:06Z</time>
      </trkpt>
      <trkpt lat="42.41729" lon="0.08537">
        <ele>698.8</ele>
        <time>2016-07-24T10:40:08Z</time>
      </trkpt>
      <trkpt lat="42.41728" lon="0.08542">
        <ele>698.4</ele>
        <time>2016-07-24T10:40:10Z</time>
      </trkpt>
      <trkpt lat="42.41728" lon="0.08548">
        <ele>698.1</ele>
        <time>2016-07-24T10:40:12Z</time>
      </trkpt>
      <trkpt lat="42.41727" lon="0.08553">
        <ele>697.9</ele>
        <time>2016-07-24T10:40:14Z</time>
      </trkpt>
      <trkpt lat="42.41727" lon="0.08558">
        <ele>697.7</ele>
        <time>2016-07-24T10:40:16Z</time>
      </trkpt>
      <trkpt lat="42.41727" lon="0.08562">
        <ele>697.5</ele>
        <time>2016-07-24T10:40:18Z</time>
      </trkpt>
      <trkpt lat="42.41726" lon="0.08566">
        <ele>697.3</ele>
        <time>2016-07-24T10:40:20Z</time>
      </trkpt>
      <trkpt lat="42.41726" lon="0.08572">
        <ele>697</ele>
        <time>2016-07-24T10:40:22Z</time>
      </trkpt>
      <trkpt lat="42.41726" lon="0.08577">
        <ele>696.8</ele>
        <time>2016-07-24T10:40:24Z</time>
      </trkpt>
      <trkpt lat="42.41726" lon="0.08583">
        <ele>696.6</ele>
        <time>2016-07-24T10:40:26Z</time>
      </trkpt>
      <trkpt lat="42.41725" lon="0.0859">
        <ele>696.2</ele>
        <time>2016-07-24T10:40:28Z</time>
      </trkpt>
      <trkpt lat="42.41724" lon="0.08594">
        <ele>696</ele>
        <time>2016-07-24T10:40:29Z</time>
      </trkpt>
      <trkpt lat="42.41724" lon="0.08598">
        <ele>695.8</ele>
        <time>2016-07-24T10:40:30Z</time>
      </trkpt>
      <trkpt lat="42.41723" lon="0.08603">
        <ele>695.6</ele>
        <time>2016-07-24T10:40:32Z</time>
      </trkpt>
      <trkpt lat="42.41723" lon="0.08607">
        <ele>695.4</ele>
        <time>2016-07-24T10:40:44Z</time>
      </trkpt>
      <trkpt lat="42.41722" lon="0.08611">
        <ele>695.2</ele>
        <time>2016-07-24T10:40:53Z</time>
      </trkpt>
      <trkpt lat="42.41721" lon="0.08614">
        <ele>694.9</ele>
        <time>2016-07-24T10:40:56Z</time>
      </trkpt>
      <trkpt lat="42.4172" lon="0.08618">
        <ele>694.6</ele>
        <time>2016-07-24T10:41:00Z</time>
      </trkpt>
      <trkpt lat="42.4172" lon="0.08623">
        <ele>694.4</ele>
        <time>2016-07-24T10:41:07Z</time>
      </trkpt>
      <trkpt lat="42.41719" lon="0.08626">
        <ele>694.3</ele>
        <time>2016-07-24T10:41:11Z</time>
      </trkpt>
      <trkpt lat="42.41718" lon="0.0863">
        <ele>694.3</ele>
        <time>2016-07-24T10:41:16Z</time>
      </trkpt>
      <trkpt lat="42.41717" lon="0.08634">
        <ele>694.3</ele>
        <time>2016-07-24T10:41:21Z</time>
      </trkpt>
      <trkpt lat="42.41717" lon="0.08639">
        <ele>694.5</ele>
        <time>2016-07-24T10:41:26Z</time>
      </trkpt>
      <trkpt lat="42.41718" lon="0.08642">
        <ele>694.8</ele>
        <time>2016-07-24T10:41:31Z</time>
      </trkpt>
      <trkpt lat="42.41719" lon="0.08646">
        <ele>695</ele>
        <time>2016-07-24T10:41:38Z</time>
      </trkpt>
      <trkpt lat="42.41719" lon="0.08651">
        <ele>695.3</ele>
        <time>2016-07-24T10:41:40Z</time>
      </trkpt>
      <trkpt lat="42.4172" lon="0.08655">
        <ele>695.6</ele>
        <time>2016-07-24T10:41:42Z</time>
      </trkpt>
      <trkpt lat="42.41721" lon="0.08658">
        <ele>695.8</ele>
        <time>2016-07-24T10:41:44Z</time>
      </trkpt>
      <trkpt lat="42.41722" lon="0.08662">
        <ele>696.1</ele>
        <time>2016-07-24T10:41:46Z</time>
      </trkpt>
      <trkpt lat="42.41724" lon="0.08666">
        <ele>696.6</ele>
        <time>2016-07-24T10:41:48Z</time>
      </trkpt>
      <trkpt lat="42.41726" lon="0.0867">
        <ele>697</ele>
        <time>2016-07-24T10:41:50Z</time>
      </trkpt>
      <trkpt lat="42.41727" lon="0.08675">
        <ele>697.3</ele>
        <time>2016-07-24T10:41:52Z</time>
      </trkpt>
      <trkpt lat="42.41728" lon="0.0868">
        <ele>697.6</ele>
        <time>2016-07-24T10:41:54Z</time>
      </trkpt>
      <trkpt lat="42.41728" lon="0.08687">
        <ele>697.9</ele>
        <time>2016-07-24T10:41:56Z</time>
      </trkpt>
      <trkpt lat="42.41728" lon="0.08691">
        <ele>698</ele>
        <time>2016-07-24T10:41:57Z</time>
      </trkpt>
      <trkpt lat="42.41728" lon="0.08695">
        <ele>698.2</ele>
        <time>2016-07-24T10:41:58Z</time>
      </trkpt>
      <trkpt lat="42.41728" lon="0.08699">
        <ele>698.4</ele>
        <time>2016-07-24T10:41:59Z</time>
      </trkpt>
      <trkpt lat="42.41728" lon="0.08702">
        <ele>698.6</ele>
        <time>2016-07-24T10:42:00Z</time>
      </trkpt>
      <trkpt lat="42.4173" lon="0.08705">
        <ele>699</ele>
        <time>2016-07-24T10:42:01Z</time>
      </trkpt>
      <trkpt lat="42.41733" lon="0.08708">
        <ele>699.5</ele>
        <time>2016-07-24T10:42:02Z</time>
      </trkpt>
      <trkpt lat="42.41736" lon="0.0871">
        <ele>699.9</ele>
        <time>2016-07-24T10:42:03Z</time>
      </trkpt>
      <trkpt lat="42.41739" lon="0.08713">
        <ele>700.3</ele>
        <time>2016-07-24T10:42:04Z</time>
      </trkpt>
      <trkpt lat="42.41743" lon="0.08714">
        <ele>700.8</ele>
        <time>2016-07-24T10:42:05Z</time>
      </trkpt>
      <trkpt lat="42.41746" lon="0.08715">
        <ele>701.2</ele>
        <time>2016-07-24T10:42:06Z</time>
      </trkpt>
      <trkpt lat="42.41749" lon="0.08717">
        <ele>701.6</ele>
        <time>2016-07-24T10:42:07Z</time>
      </trkpt>
      <trkpt lat="42.41751" lon="0.08719">
        <ele>701.9</ele>
        <time>2016-07-24T10:42:08Z</time>
      </trkpt>
      <trkpt lat="42.41753" lon="0.08723">
        <ele>702.1</ele>
        <time>2016-07-24T10:42:09Z</time>
      </trkpt>
      <trkpt lat="42.41754" lon="0.08727">
        <ele>702.2</ele>
        <time>2016-07-24T10:42:10Z</time>
      </trkpt>
      <trkpt lat="42.41755" lon="0.08731">
        <ele>702.2</ele>
        <time>2016-07-24T10:42:11Z</time>
      </trkpt>
      <trkpt lat="42.41755" lon="0.08735">
        <ele>702</ele>
        <time>2016-07-24T10:42:12Z</time>
      </trkpt>
      <trkpt lat="42.41754" lon="0.0874">
        <ele>701.8</ele>
        <time>2016-07-24T10:42:14Z</time>
      </trkpt>
      <trkpt lat="42.41755" lon="0.08743">
        <ele>702</ele>
        <time>2016-07-24T10:42:17Z</time>
      </trkpt>
      <trkpt lat="42.41758" lon="0.08741">
        <ele>702.5</ele>
        <time>2016-07-24T10:42:19Z</time>
      </trkpt>
      <trkpt lat="42.4176" lon="0.08737">
        <ele>702.9</ele>
        <time>2016-07-24T10:42:21Z</time>
      </trkpt>
      <trkpt lat="42.41763" lon="0.08736">
        <ele>703.3</ele>
        <time>2016-07-24T10:42:23Z</time>
      </trkpt>
      <trkpt lat="42.41764" lon="0.0874">
        <ele>703.4</ele>
        <time>2016-07-24T10:42:25Z</time>
      </trkpt>
      <trkpt lat="42.41763" lon="0.08744">
        <ele>703.1</ele>
        <time>2016-07-24T10:42:26Z</time>
      </trkpt>
      <trkpt lat="42.41761" lon="0.08747">
        <ele>702.7</ele>
        <time>2016-07-24T10:42:27Z</time>
      </trkpt>
      <trkpt lat="42.41758" lon="0.0875">
        <ele>702.3</ele>
        <time>2016-07-24T10:42:28Z</time>
      </trkpt>
      <trkpt lat="42.41755" lon="0.08753">
        <ele>701.8</ele>
        <time>2016-07-24T10:42:29Z</time>
      </trkpt>
      <trkpt lat="42.41753" lon="0.08757">
        <ele>701.3</ele>
        <time>2016-07-24T10:42:30Z</time>
      </trkpt>
      <trkpt lat="42.41751" lon="0.08761">
        <ele>700.9</ele>
        <time>2016-07-24T10:42:31Z</time>
      </trkpt>
      <trkpt lat="42.41749" lon="0.08766">
        <ele>700.5</ele>
        <time>2016-07-24T10:42:32Z</time>
      </trkpt>
      <trkpt lat="42.41748" lon="0.0877">
        <ele>700.2</ele>
        <time>2016-07-24T10:42:33Z</time>
      </trkpt>
      <trkpt lat="42.41746" lon="0.08774">
        <ele>699.8</ele>
        <time>2016-07-24T10:42:34Z</time>
      </trkpt>
      <trkpt lat="42.41744" lon="0.08778">
        <ele>699.3</ele>
        <time>2016-07-24T10:42:35Z</time>
      </trkpt>
      <trkpt lat="42.41741" lon="0.08782">
        <ele>698.8</ele>
        <time>2016-07-24T10:42:36Z</time>
      </trkpt>
      <trkpt lat="42.4174" lon="0.08786">
        <ele>698.4</ele>
        <time>2016-07-24T10:42:37Z</time>
      </trkpt>
      <trkpt lat="42.41739" lon="0.08791">
        <ele>698.1</ele>
        <time>2016-07-24T10:42:38Z</time>
      </trkpt>
      <trkpt lat="42.41738" lon="0.08795">
        <ele>698.1</ele>
        <time>2016-07-24T10:42:39Z</time>
      </trkpt>
      <trkpt lat="42.41738" lon="0.088">
        <ele>698.2</ele>
        <time>2016-07-24T10:42:40Z</time>
      </trkpt>
      <trkpt lat="42.41737" lon="0.08804">
        <ele>698.1</ele>
        <time>2016-07-24T10:42:41Z</time>
      </trkpt>
      <trkpt lat="42.41735" lon="0.08808">
        <ele>698</ele>
        <time>2016-07-24T10:42:42Z</time>
      </trkpt>
      <trkpt lat="42.41733" lon="0.08812">
        <ele>697.7</ele>
        <time>2016-07-24T10:42:43Z</time>
      </trkpt>
      <trkpt lat="42.41732" lon="0.08815">
        <ele>697.5</ele>
        <time>2016-07-24T10:42:44Z</time>
      </trkpt>
      <trkpt lat="42.4173" lon="0.08819">
        <ele>697.2</ele>
        <time>2016-07-24T10:42:45Z</time>
      </trkpt>
      <trkpt lat="42.41729" lon="0.08823">
        <ele>697</ele>
        <time>2016-07-24T10:42:46Z</time>
      </trkpt>
      <trkpt lat="42.41727" lon="0.08827">
        <ele>696.7</ele>
        <time>2016-07-24T10:42:47Z</time>
      </trkpt>
      <trkpt lat="42.41725" lon="0.08831">
        <ele>696.4</ele>
        <time>2016-07-24T10:42:48Z</time>
      </trkpt>
      <trkpt lat="42.41722" lon="0.08836">
        <ele>695.9</ele>
        <time>2016-07-24T10:42:49Z</time>
      </trkpt>
      <trkpt lat="42.4172" lon="0.0884">
        <ele>695.5</ele>
        <time>2016-07-24T10:42:50Z</time>
      </trkpt>
      <trkpt lat="42.41718" lon="0.08845">
        <ele>695.1</ele>
        <time>2016-07-24T10:42:51Z</time>
      </trkpt>
      <trkpt lat="42.41716" lon="0.08851">
        <ele>694.8</ele>
        <time>2016-07-24T10:42:52Z</time>
      </trkpt>
      <trkpt lat="42.41714" lon="0.08856">
        <ele>694.4</ele>
        <time>2016-07-24T10:42:53Z</time>
      </trkpt>
      <trkpt lat="42.41713" lon="0.08861">
        <ele>694</ele>
        <time>2016-07-24T10:42:54Z</time>
      </trkpt>
      <trkpt lat="42.41711" lon="0.08867">
        <ele>693.6</ele>
        <time>2016-07-24T10:42:55Z</time>
      </trkpt>
      <trkpt lat="42.41709" lon="0.08873">
        <ele>693.1</ele>
        <time>2016-07-24T10:42:56Z</time>
      </trkpt>
      <trkpt lat="42.41707" lon="0.08878">
        <ele>693</ele>
        <time>2016-07-24T10:42:57Z</time>
      </trkpt>
      <trkpt lat="42.41704" lon="0.08883">
        <ele>693</ele>
        <time>2016-07-24T10:42:58Z</time>
      </trkpt>
      <trkpt lat="42.41702" lon="0.08888">
        <ele>693</ele>
        <time>2016-07-24T10:42:59Z</time>
      </trkpt>
      <trkpt lat="42.417" lon="0.08894">
        <ele>693.1</ele>
        <time>2016-07-24T10:43:00Z</time>
      </trkpt>
      <trkpt lat="42.41698" lon="0.08899">
        <ele>693.2</ele>
        <time>2016-07-24T10:43:01Z</time>
      </trkpt>
      <trkpt lat="42.41697" lon="0.08904">
        <ele>693.5</ele>
        <time>2016-07-24T10:43:02Z</time>
      </trkpt>
      <trkpt lat="42.41697" lon="0.08909">
        <ele>693.8</ele>
        <time>2016-07-24T10:43:03Z</time>
      </trkpt>
      <trkpt lat="42.41697" lon="0.08915">
        <ele>694.3</ele>
        <time>2016-07-24T10:43:04Z</time>
      </trkpt>
      <trkpt lat="42.41697" lon="0.0892">
        <ele>694.8</ele>
        <time>2016-07-24T10:43:05Z</time>
      </trkpt>
      <trkpt lat="42.41697" lon="0.08925">
        <ele>695.2</ele>
        <time>2016-07-24T10:43:06Z</time>
      </trkpt>
      <trkpt lat="42.41697" lon="0.0893">
        <ele>695.7</ele>
        <time>2016-07-24T10:43:07Z</time>
      </trkpt>
      <trkpt lat="42.41697" lon="0.08935">
        <ele>696.1</ele>
        <time>2016-07-24T10:43:08Z</time>
      </trkpt>
      <trkpt lat="42.41697" lon="0.0894">
        <ele>696.5</ele>
        <time>2016-07-24T10:43:09Z</time>
      </trkpt>
      <trkpt lat="42.41697" lon="0.08944">
        <ele>696.8</ele>
        <time>2016-07-24T10:43:10Z</time>
      </trkpt>
      <trkpt lat="42.41697" lon="0.08949">
        <ele>697.2</ele>
        <time>2016-07-24T10:43:11Z</time>
      </trkpt>
      <trkpt lat="42.41697" lon="0.08953">
        <ele>697.5</ele>
        <time>2016-07-24T10:43:12Z</time>
      </trkpt>
      <trkpt lat="42.41697" lon="0.08957">
        <ele>697.8</ele>
        <time>2016-07-24T10:43:13Z</time>
      </trkpt>
      <trkpt lat="42.41696" lon="0.08961">
        <ele>698</ele>
        <time>2016-07-24T10:43:14Z</time>
      </trkpt>
      <trkpt lat="42.41694" lon="0.08966">
        <ele>698</ele>
        <time>2016-07-24T10:43:15Z</time>
      </trkpt>
      <trkpt lat="42.41691" lon="0.08971">
        <ele>697.9</ele>
        <time>2016-07-24T10:43:16Z</time>
      </trkpt>
      <trkpt lat="42.41688" lon="0.08975">
        <ele>697.7</ele>
        <time>2016-07-24T10:43:17Z</time>
      </trkpt>
      <trkpt lat="42.41685" lon="0.08981">
        <ele>697.6</ele>
        <time>2016-07-24T10:43:18Z</time>
      </trkpt>
      <trkpt lat="42.41682" lon="0.08986">
        <ele>697.7</ele>
        <time>2016-07-24T10:43:19Z</time>
      </trkpt>
      <trkpt lat="42.41681" lon="0.08992">
        <ele>697.9</ele>
        <time>2016-07-24T10:43:20Z</time>
      </trkpt>
      <trkpt lat="42.41679" lon="0.08998">
        <ele>698.2</ele>
        <time>2016-07-24T10:43:21Z</time>
      </trkpt>
      <trkpt lat="42.41678" lon="0.09003">
        <ele>698.5</ele>
        <time>2016-07-24T10:43:22Z</time>
      </trkpt>
      <trkpt lat="42.41675" lon="0.09008">
        <ele>698.5</ele>
        <time>2016-07-24T10:43:23Z</time>
      </trkpt>
      <trkpt lat="42.41671" lon="0.0901">
        <ele>698.2</ele>
        <time>2016-07-24T10:43:24Z</time>
      </trkpt>
      <trkpt lat="42.41667" lon="0.09011">
        <ele>697.5</ele>
        <time>2016-07-24T10:43:25Z</time>
      </trkpt>
      <trkpt lat="42.41662" lon="0.0901">
        <ele>696.7</ele>
        <time>2016-07-24T10:43:26Z</time>
      </trkpt>
      <trkpt lat="42.41657" lon="0.0901">
        <ele>695.9</ele>
        <time>2016-07-24T10:43:27Z</time>
      </trkpt>
      <trkpt lat="42.41652" lon="0.09011">
        <ele>695.3</ele>
        <time>2016-07-24T10:43:28Z</time>
      </trkpt>
      <trkpt lat="42.41647" lon="0.09014">
        <ele>695</ele>
        <time>2016-07-24T10:43:29Z</time>
      </trkpt>
      <trkpt lat="42.41643" lon="0.09018">
        <ele>694.8</ele>
        <time>2016-07-24T10:43:30Z</time>
      </trkpt>
      <trkpt lat="42.4164" lon="0.09022">
        <ele>694.7</ele>
        <time>2016-07-24T10:43:31Z</time>
      </trkpt>
      <trkpt lat="42.41636" lon="0.09025">
        <ele>694.5</ele>
        <time>2016-07-24T10:43:32Z</time>
      </trkpt>
      <trkpt lat="42.41631" lon="0.09027">
        <ele>694.1</ele>
        <time>2016-07-24T10:43:33Z</time>
      </trkpt>
      <trkpt lat="42.41627" lon="0.09027">
        <ele>693.4</ele>
        <time>2016-07-24T10:43:34Z</time>
      </trkpt>
      <trkpt lat="42.41622" lon="0.09025">
        <ele>692.6</ele>
        <time>2016-07-24T10:43:35Z</time>
      </trkpt>
      <trkpt lat="42.41618" lon="0.09023">
        <ele>691.7</ele>
        <time>2016-07-24T10:43:36Z</time>
      </trkpt>
      <trkpt lat="42.41614" lon="0.0902">
        <ele>690.8</ele>
        <time>2016-07-24T10:43:37Z</time>
      </trkpt>
      <trkpt lat="42.41609" lon="0.09019">
        <ele>689.9</ele>
        <time>2016-07-24T10:43:38Z</time>
      </trkpt>
      <trkpt lat="42.41605" lon="0.09018">
        <ele>689.3</ele>
        <time>2016-07-24T10:43:39Z</time>
      </trkpt>
      <trkpt lat="42.41602" lon="0.09018">
        <ele>688.7</ele>
        <time>2016-07-24T10:43:40Z</time>
      </trkpt>
      <trkpt lat="42.41598" lon="0.0902">
        <ele>688.3</ele>
        <time>2016-07-24T10:43:41Z</time>
      </trkpt>
      <trkpt lat="42.41595" lon="0.09022">
        <ele>688.1</ele>
        <time>2016-07-24T10:43:42Z</time>
      </trkpt>
      <trkpt lat="42.41592" lon="0.09023">
        <ele>687.9</ele>
        <time>2016-07-24T10:43:43Z</time>
      </trkpt>
      <trkpt lat="42.41589" lon="0.09026">
        <ele>687.7</ele>
        <time>2016-07-24T10:43:45Z</time>
      </trkpt>
      <trkpt lat="42.41586" lon="0.09027">
        <ele>687.4</ele>
        <time>2016-07-24T10:43:47Z</time>
      </trkpt>
      <trkpt lat="42.41583" lon="0.0903">
        <ele>687.2</ele>
        <time>2016-07-24T10:43:49Z</time>
      </trkpt>
      <trkpt lat="42.41579" lon="0.09034">
        <ele>687.1</ele>
        <time>2016-07-24T10:43:51Z</time>
      </trkpt>
      <trkpt lat="42.41578" lon="0.09037">
        <ele>687.1</ele>
        <time>2016-07-24T10:43:52Z</time>
      </trkpt>
      <trkpt lat="42.41576" lon="0.0904">
        <ele>687.1</ele>
        <time>2016-07-24T10:43:53Z</time>
      </trkpt>
      <trkpt lat="42.41574" lon="0.09044">
        <ele>687.3</ele>
        <time>2016-07-24T10:43:54Z</time>
      </trkpt>
      <trkpt lat="42.41573" lon="0.09048">
        <ele>687.6</ele>
        <time>2016-07-24T10:43:55Z</time>
      </trkpt>
      <trkpt lat="42.41572" lon="0.09052">
        <ele>687.8</ele>
        <time>2016-07-24T10:43:56Z</time>
      </trkpt>
      <trkpt lat="42.41571" lon="0.09057">
        <ele>688.1</ele>
        <time>2016-07-24T10:43:57Z</time>
      </trkpt>
      <trkpt lat="42.4157" lon="0.09061">
        <ele>688.4</ele>
        <time>2016-07-24T10:43:58Z</time>
      </trkpt>
      <trkpt lat="42.41568" lon="0.09066">
        <ele>688.7</ele>
        <time>2016-07-24T10:43:59Z</time>
      </trkpt>
      <trkpt lat="42.41566" lon="0.0907">
        <ele>688.9</ele>
        <time>2016-07-24T10:44:00Z</time>
      </trkpt>
      <trkpt lat="42.41565" lon="0.09075">
        <ele>689</ele>
        <time>2016-07-24T10:44:01Z</time>
      </trkpt>
      <trkpt lat="42.41563" lon="0.09079">
        <ele>689.2</ele>
        <time>2016-07-24T10:44:02Z</time>
      </trkpt>
      <trkpt lat="42.41561" lon="0.09084">
        <ele>689.4</ele>
        <time>2016-07-24T10:44:03Z</time>
      </trkpt>
      <trkpt lat="42.4156" lon="0.09088">
        <ele>689.7</ele>
        <time>2016-07-24T10:44:04Z</time>
      </trkpt>
      <trkpt lat="42.41559" lon="0.09092">
        <ele>690</ele>
        <time>2016-07-24T10:44:05Z</time>
      </trkpt>
      <trkpt lat="42.41557" lon="0.09097">
        <ele>690.2</ele>
        <time>2016-07-24T10:44:06Z</time>
      </trkpt>
      <trkpt lat="42.41556" lon="0.09101">
        <ele>690.4</ele>
        <time>2016-07-24T10:44:07Z</time>
      </trkpt>
      <trkpt lat="42.41554" lon="0.09105">
        <ele>690.6</ele>
        <time>2016-07-24T10:44:08Z</time>
      </trkpt>
      <trkpt lat="42.41553" lon="0.09109">
        <ele>690.8</ele>
        <time>2016-07-24T10:44:09Z</time>
      </trkpt>
      <trkpt lat="42.41551" lon="0.09113">
        <ele>691.1</ele>
        <time>2016-07-24T10:44:10Z</time>
      </trkpt>
      <trkpt lat="42.4155" lon="0.09117">
        <ele>691.3</ele>
        <time>2016-07-24T10:44:11Z</time>
      </trkpt>
      <trkpt lat="42.41549" lon="0.09121">
        <ele>691.6</ele>
        <time>2016-07-24T10:44:12Z</time>
      </trkpt>
      <trkpt lat="42.41547" lon="0.09125">
        <ele>691.8</ele>
        <time>2016-07-24T10:44:13Z</time>
      </trkpt>
      <trkpt lat="42.41546" lon="0.09129">
        <ele>691.9</ele>
        <time>2016-07-24T10:44:14Z</time>
      </trkpt>
      <trkpt lat="42.41545" lon="0.09133">
        <ele>692</ele>
        <time>2016-07-24T10:44:15Z</time>
      </trkpt>
      <trkpt lat="42.41544" lon="0.09137">
        <ele>692.2</ele>
        <time>2016-07-24T10:44:16Z</time>
      </trkpt>
      <trkpt lat="42.41542" lon="0.09141">
        <ele>692.3</ele>
        <time>2016-07-24T10:44:17Z</time>
      </trkpt>
      <trkpt lat="42.41541" lon="0.09145">
        <ele>692.4</ele>
        <time>2016-07-24T10:44:18Z</time>
      </trkpt>
      <trkpt lat="42.4154" lon="0.09149">
        <ele>692.5</ele>
        <time>2016-07-24T10:44:19Z</time>
      </trkpt>
      <trkpt lat="42.41539" lon="0.09153">
        <ele>692.6</ele>
        <time>2016-07-24T10:44:20Z</time>
      </trkpt>
      <trkpt lat="42.41537" lon="0.09158">
        <ele>692.8</ele>
        <time>2016-07-24T10:44:21Z</time>
      </trkpt>
      <trkpt lat="42.41536" lon="0.09162">
        <ele>692.9</ele>
        <time>2016-07-24T10:44:22Z</time>
      </trkpt>
      <trkpt lat="42.41535" lon="0.09165">
        <ele>693</ele>
        <time>2016-07-24T10:44:23Z</time>
      </trkpt>
      <trkpt lat="42.41534" lon="0.09169">
        <ele>693</ele>
        <time>2016-07-24T10:44:24Z</time>
      </trkpt>
      <trkpt lat="42.41532" lon="0.09173">
        <ele>693.1</ele>
        <time>2016-07-24T10:44:25Z</time>
      </trkpt>
      <trkpt lat="42.41531" lon="0.09177">
        <ele>693.3</ele>
        <time>2016-07-24T10:44:26Z</time>
      </trkpt>
      <trkpt lat="42.41531" lon="0.09181">
        <ele>693.4</ele>
        <time>2016-07-24T10:44:27Z</time>
      </trkpt>
      <trkpt lat="42.4153" lon="0.09185">
        <ele>693.6</ele>
        <time>2016-07-24T10:44:28Z</time>
      </trkpt>
      <trkpt lat="42.4153" lon="0.0919">
        <ele>693.9</ele>
        <time>2016-07-24T10:44:29Z</time>
      </trkpt>
      <trkpt lat="42.4153" lon="0.09194">
        <ele>694.2</ele>
        <time>2016-07-24T10:44:30Z</time>
      </trkpt>
      <trkpt lat="42.41531" lon="0.09199">
        <ele>694.7</ele>
        <time>2016-07-24T10:44:31Z</time>
      </trkpt>
      <trkpt lat="42.41533" lon="0.09203">
        <ele>695.2</ele>
        <time>2016-07-24T10:44:32Z</time>
      </trkpt>
      <trkpt lat="42.41534" lon="0.09207">
        <ele>695.7</ele>
        <time>2016-07-24T10:44:33Z</time>
      </trkpt>
      <trkpt lat="42.41536" lon="0.0921">
        <ele>696.1</ele>
        <time>2016-07-24T10:44:34Z</time>
      </trkpt>
      <trkpt lat="42.41538" lon="0.09214">
        <ele>696.3</ele>
        <time>2016-07-24T10:44:35Z</time>
      </trkpt>
      <trkpt lat="42.4154" lon="0.09217">
        <ele>696.5</ele>
        <time>2016-07-24T10:44:36Z</time>
      </trkpt>
      <trkpt lat="42.41542" lon="0.0922">
        <ele>696.8</ele>
        <time>2016-07-24T10:44:37Z</time>
      </trkpt>
      <trkpt lat="42.41545" lon="0.09223">
        <ele>697</ele>
        <time>2016-07-24T10:44:38Z</time>
      </trkpt>
      <trkpt lat="42.41547" lon="0.09226">
        <ele>697.2</ele>
        <time>2016-07-24T10:44:39Z</time>
      </trkpt>
      <trkpt lat="42.4155" lon="0.09229">
        <ele>697.5</ele>
        <time>2016-07-24T10:44:40Z</time>
      </trkpt>
      <trkpt lat="42.41553" lon="0.09233">
        <ele>697.8</ele>
        <time>2016-07-24T10:44:41Z</time>
      </trkpt>
      <trkpt lat="42.41556" lon="0.09236">
        <ele>698</ele>
        <time>2016-07-24T10:44:42Z</time>
      </trkpt>
      <trkpt lat="42.41559" lon="0.09239">
        <ele>698.3</ele>
        <time>2016-07-24T10:44:43Z</time>
      </trkpt>
      <trkpt lat="42.41561" lon="0.09242">
        <ele>698.5</ele>
        <time>2016-07-24T10:44:44Z</time>
      </trkpt>
      <trkpt lat="42.41564" lon="0.09246">
        <ele>698.7</ele>
        <time>2016-07-24T10:44:45Z</time>
      </trkpt>
      <trkpt lat="42.41566" lon="0.09249">
        <ele>698.9</ele>
        <time>2016-07-24T10:44:46Z</time>
      </trkpt>
      <trkpt lat="42.41568" lon="0.09253">
        <ele>699.1</ele>
        <time>2016-07-24T10:44:47Z</time>
      </trkpt>
      <trkpt lat="42.4157" lon="0.09257">
        <ele>699.3</ele>
        <time>2016-07-24T10:44:48Z</time>
      </trkpt>
      <trkpt lat="42.41572" lon="0.09261">
        <ele>699.4</ele>
        <time>2016-07-24T10:44:49Z</time>
      </trkpt>
      <trkpt lat="42.41575" lon="0.09266">
        <ele>699.6</ele>
        <time>2016-07-24T10:44:50Z</time>
      </trkpt>
      <trkpt lat="42.41578" lon="0.0927">
        <ele>699.8</ele>
        <time>2016-07-24T10:44:51Z</time>
      </trkpt>
      <trkpt lat="42.41581" lon="0.09274">
        <ele>700.1</ele>
        <time>2016-07-24T10:44:52Z</time>
      </trkpt>
      <trkpt lat="42.41584" lon="0.09278">
        <ele>700.3</ele>
        <time>2016-07-24T10:44:53Z</time>
      </trkpt>
      <trkpt lat="42.41587" lon="0.09282">
        <ele>700.6</ele>
        <time>2016-07-24T10:44:54Z</time>
      </trkpt>
      <trkpt lat="42.41589" lon="0.09286">
        <ele>700.9</ele>
        <time>2016-07-24T10:44:55Z</time>
      </trkpt>
      <trkpt lat="42.41592" lon="0.0929">
        <ele>701.1</ele>
        <time>2016-07-24T10:44:56Z</time>
      </trkpt>
      <trkpt lat="42.41595" lon="0.09294">
        <ele>701.4</ele>
        <time>2016-07-24T10:44:57Z</time>
      </trkpt>
      <trkpt lat="42.41597" lon="0.09298">
        <ele>701.6</ele>
        <time>2016-07-24T10:44:58Z</time>
      </trkpt>
      <trkpt lat="42.41599" lon="0.09302">
        <ele>701.9</ele>
        <time>2016-07-24T10:44:59Z</time>
      </trkpt>
      <trkpt lat="42.41601" lon="0.09306">
        <ele>702.1</ele>
        <time>2016-07-24T10:45:00Z</time>
      </trkpt>
      <trkpt lat="42.41602" lon="0.0931">
        <ele>702.3</ele>
        <time>2016-07-24T10:45:01Z</time>
      </trkpt>
      <trkpt lat="42.41604" lon="0.09314">
        <ele>702.5</ele>
        <time>2016-07-24T10:45:02Z</time>
      </trkpt>
      <trkpt lat="42.41605" lon="0.09317">
        <ele>702.6</ele>
        <time>2016-07-24T10:45:03Z</time>
      </trkpt>
      <trkpt lat="42.41607" lon="0.09321">
        <ele>702.7</ele>
        <time>2016-07-24T10:45:04Z</time>
      </trkpt>
      <trkpt lat="42.41608" lon="0.09325">
        <ele>702.9</ele>
        <time>2016-07-24T10:45:05Z</time>
      </trkpt>
      <trkpt lat="42.41609" lon="0.09329">
        <ele>703</ele>
        <time>2016-07-24T10:45:06Z</time>
      </trkpt>
      <trkpt lat="42.41611" lon="0.09333">
        <ele>703.1</ele>
        <time>2016-07-24T10:45:07Z</time>
      </trkpt>
      <trkpt lat="42.41612" lon="0.09337">
        <ele>703.3</ele>
        <time>2016-07-24T10:45:08Z</time>
      </trkpt>
      <trkpt lat="42.41614" lon="0.09341">
        <ele>703.4</ele>
        <time>2016-07-24T10:45:09Z</time>
      </trkpt>
      <trkpt lat="42.41615" lon="0.09346">
        <ele>703.5</ele>
        <time>2016-07-24T10:45:10Z</time>
      </trkpt>
      <trkpt lat="42.41617" lon="0.0935">
        <ele>703.6</ele>
        <time>2016-07-24T10:45:11Z</time>
      </trkpt>
      <trkpt lat="42.41618" lon="0.09355">
        <ele>703.7</ele>
        <time>2016-07-24T10:45:12Z</time>
      </trkpt>
      <trkpt lat="42.41619" lon="0.09359">
        <ele>703.7</ele>
        <time>2016-07-24T10:45:13Z</time>
      </trkpt>
      <trkpt lat="42.4162" lon="0.09364">
        <ele>703.8</ele>
        <time>2016-07-24T10:45:14Z</time>
      </trkpt>
      <trkpt lat="42.41621" lon="0.09369">
        <ele>703.8</ele>
        <time>2016-07-24T10:45:15Z</time>
      </trkpt>
      <trkpt lat="42.41621" lon="0.09374">
        <ele>703.7</ele>
        <time>2016-07-24T10:45:16Z</time>
      </trkpt>
      <trkpt lat="42.41621" lon="0.09379">
        <ele>703.9</ele>
        <time>2016-07-24T10:45:17Z</time>
      </trkpt>
      <trkpt lat="42.41621" lon="0.09383">
        <ele>704.2</ele>
        <time>2016-07-24T10:45:18Z</time>
      </trkpt>
      <trkpt lat="42.41621" lon="0.09388">
        <ele>704.4</ele>
        <time>2016-07-24T10:45:19Z</time>
      </trkpt>
      <trkpt lat="42.4162" lon="0.09393">
        <ele>704.6</ele>
        <time>2016-07-24T10:45:20Z</time>
      </trkpt>
      <trkpt lat="42.4162" lon="0.09397">
        <ele>704.8</ele>
        <time>2016-07-24T10:45:21Z</time>
      </trkpt>
      <trkpt lat="42.41619" lon="0.09402">
        <ele>705</ele>
        <time>2016-07-24T10:45:22Z</time>
      </trkpt>
      <trkpt lat="42.41618" lon="0.09407">
        <ele>705.2</ele>
        <time>2016-07-24T10:45:23Z</time>
      </trkpt>
      <trkpt lat="42.41618" lon="0.09411">
        <ele>705.4</ele>
        <time>2016-07-24T10:45:24Z</time>
      </trkpt>
      <trkpt lat="42.41617" lon="0.09416">
        <ele>705.7</ele>
        <time>2016-07-24T10:45:25Z</time>
      </trkpt>
      <trkpt lat="42.41617" lon="0.09421">
        <ele>705.9</ele>
        <time>2016-07-24T10:45:26Z</time>
      </trkpt>
      <trkpt lat="42.41616" lon="0.09425">
        <ele>706.2</ele>
        <time>2016-07-24T10:45:27Z</time>
      </trkpt>
      <trkpt lat="42.41616" lon="0.0943">
        <ele>706.4</ele>
        <time>2016-07-24T10:45:28Z</time>
      </trkpt>
      <trkpt lat="42.41616" lon="0.09434">
        <ele>706.6</ele>
        <time>2016-07-24T10:45:29Z</time>
      </trkpt>
      <trkpt lat="42.41615" lon="0.09438">
        <ele>706.9</ele>
        <time>2016-07-24T10:45:30Z</time>
      </trkpt>
      <trkpt lat="42.41615" lon="0.09442">
        <ele>707.1</ele>
        <time>2016-07-24T10:45:31Z</time>
      </trkpt>
      <trkpt lat="42.41615" lon="0.09449">
        <ele>707.5</ele>
        <time>2016-07-24T10:45:33Z</time>
      </trkpt>
      <trkpt lat="42.41614" lon="0.09456">
        <ele>707.9</ele>
        <time>2016-07-24T10:45:35Z</time>
      </trkpt>
      <trkpt lat="42.41614" lon="0.09463">
        <ele>708.5</ele>
        <time>2016-07-24T10:45:37Z</time>
      </trkpt>
      <trkpt lat="42.41614" lon="0.09469">
        <ele>709.2</ele>
        <time>2016-07-24T10:45:39Z</time>
      </trkpt>
      <trkpt lat="42.41612" lon="0.09475">
        <ele>709.9</ele>
        <time>2016-07-24T10:45:41Z</time>
      </trkpt>
      <trkpt lat="42.41609" lon="0.0948">
        <ele>710.4</ele>
        <time>2016-07-24T10:45:43Z</time>
      </trkpt>
      <trkpt lat="42.41606" lon="0.09485">
        <ele>711</ele>
        <time>2016-07-24T10:45:45Z</time>
      </trkpt>
      <trkpt lat="42.41603" lon="0.09491">
        <ele>711.7</ele>
        <time>2016-07-24T10:45:47Z</time>
      </trkpt>
      <trkpt lat="42.41601" lon="0.09494">
        <ele>712.1</ele>
        <time>2016-07-24T10:45:48Z</time>
      </trkpt>
      <trkpt lat="42.416" lon="0.09498">
        <ele>712.5</ele>
        <time>2016-07-24T10:45:49Z</time>
      </trkpt>
      <trkpt lat="42.41598" lon="0.09501">
        <ele>713</ele>
        <time>2016-07-24T10:45:50Z</time>
      </trkpt>
      <trkpt lat="42.41597" lon="0.09505">
        <ele>713.4</ele>
        <time>2016-07-24T10:45:51Z</time>
      </trkpt>
      <trkpt lat="42.41596" lon="0.09508">
        <ele>713.8</ele>
        <time>2016-07-24T10:45:52Z</time>
      </trkpt>
      <trkpt lat="42.41595" lon="0.09512">
        <ele>714.3</ele>
        <time>2016-07-24T10:45:53Z</time>
      </trkpt>
      <trkpt lat="42.41593" lon="0.09516">
        <ele>714.7</ele>
        <time>2016-07-24T10:45:54Z</time>
      </trkpt>
      <trkpt lat="42.41591" lon="0.0952">
        <ele>715.2</ele>
        <time>2016-07-24T10:45:55Z</time>
      </trkpt>
      <trkpt lat="42.41589" lon="0.09524">
        <ele>715.7</ele>
        <time>2016-07-24T10:45:56Z</time>
      </trkpt>
      <trkpt lat="42.41587" lon="0.09527">
        <ele>716.2</ele>
        <time>2016-07-24T10:45:57Z</time>
      </trkpt>
      <trkpt lat="42.41585" lon="0.09531">
        <ele>716.7</ele>
        <time>2016-07-24T10:45:58Z</time>
      </trkpt>
      <trkpt lat="42.41583" lon="0.09535">
        <ele>717.2</ele>
        <time>2016-07-24T10:45:59Z</time>
      </trkpt>
      <trkpt lat="42.41581" lon="0.09538">
        <ele>717.6</ele>
        <time>2016-07-24T10:46:00Z</time>
      </trkpt>
      <trkpt lat="42.41579" lon="0.09542">
        <ele>718.1</ele>
        <time>2016-07-24T10:46:01Z</time>
      </trkpt>
      <trkpt lat="42.41577" lon="0.09546">
        <ele>718.4</ele>
        <time>2016-07-24T10:46:02Z</time>
      </trkpt>
      <trkpt lat="42.41575" lon="0.09549">
        <ele>718.6</ele>
        <time>2016-07-24T10:46:03Z</time>
      </trkpt>
      <trkpt lat="42.41573" lon="0.09553">
        <ele>718.9</ele>
        <time>2016-07-24T10:46:04Z</time>
      </trkpt>
      <trkpt lat="42.41571" lon="0.09556">
        <ele>719.1</ele>
        <time>2016-07-24T10:46:05Z</time>
      </trkpt>
      <trkpt lat="42.41569" lon="0.09559">
        <ele>719.3</ele>
        <time>2016-07-24T10:46:06Z</time>
      </trkpt>
      <trkpt lat="42.41567" lon="0.09562">
        <ele>719.5</ele>
        <time>2016-07-24T10:46:07Z</time>
      </trkpt>
      <trkpt lat="42.41565" lon="0.09565">
        <ele>719.7</ele>
        <time>2016-07-24T10:46:08Z</time>
      </trkpt>
      <trkpt lat="42.41563" lon="0.09567">
        <ele>719.8</ele>
        <time>2016-07-24T10:46:09Z</time>
      </trkpt>
      <trkpt lat="42.41561" lon="0.0957">
        <ele>719.9</ele>
        <time>2016-07-24T10:46:10Z</time>
      </trkpt>
      <trkpt lat="42.41557" lon="0.09574">
        <ele>720.2</ele>
        <time>2016-07-24T10:46:12Z</time>
      </trkpt>
      <trkpt lat="42.41554" lon="0.09577">
        <ele>720.3</ele>
        <time>2016-07-24T10:46:13Z</time>
      </trkpt>
      <trkpt lat="42.4155" lon="0.0958">
        <ele>720.4</ele>
        <time>2016-07-24T10:46:15Z</time>
      </trkpt>
      <trkpt lat="42.41545" lon="0.09583">
        <ele>720.5</ele>
        <time>2016-07-24T10:46:17Z</time>
      </trkpt>
      <trkpt lat="42.41543" lon="0.09586">
        <ele>720.6</ele>
        <time>2016-07-24T10:46:18Z</time>
      </trkpt>
      <trkpt lat="42.41539" lon="0.0959">
        <ele>720.5</ele>
        <time>2016-07-24T10:46:20Z</time>
      </trkpt>
      <trkpt lat="42.41535" lon="0.09594">
        <ele>720.3</ele>
        <time>2016-07-24T10:46:22Z</time>
      </trkpt>
      <trkpt lat="42.41533" lon="0.09599">
        <ele>720.2</ele>
        <time>2016-07-24T10:46:24Z</time>
      </trkpt>
      <trkpt lat="42.41532" lon="0.09605">
        <ele>720.3</ele>
        <time>2016-07-24T10:46:26Z</time>
      </trkpt>
      <trkpt lat="42.41531" lon="0.09611">
        <ele>720.4</ele>
        <time>2016-07-24T10:46:28Z</time>
      </trkpt>
      <trkpt lat="42.41532" lon="0.09617">
        <ele>720.7</ele>
        <time>2016-07-24T10:46:30Z</time>
      </trkpt>
      <trkpt lat="42.41533" lon="0.09622">
        <ele>720.9</ele>
        <time>2016-07-24T10:46:32Z</time>
      </trkpt>
      <trkpt lat="42.41533" lon="0.09627">
        <ele>721.1</ele>
        <time>2016-07-24T10:46:34Z</time>
      </trkpt>
      <trkpt lat="42.41533" lon="0.09632">
        <ele>721.2</ele>
        <time>2016-07-24T10:46:36Z</time>
      </trkpt>
      <trkpt lat="42.41532" lon="0.09638">
        <ele>721.3</ele>
        <time>2016-07-24T10:46:38Z</time>
      </trkpt>
      <trkpt lat="42.41531" lon="0.09643">
        <ele>721.4</ele>
        <time>2016-07-24T10:46:40Z</time>
      </trkpt>
      <trkpt lat="42.41531" lon="0.09648">
        <ele>721.6</ele>
        <time>2016-07-24T10:46:42Z</time>
      </trkpt>
      <trkpt lat="42.41531" lon="0.09653">
        <ele>721.7</ele>
        <time>2016-07-24T10:46:44Z</time>
      </trkpt>
      <trkpt lat="42.41532" lon="0.09658">
        <ele>721.9</ele>
        <time>2016-07-24T10:46:46Z</time>
      </trkpt>
      <trkpt lat="42.41532" lon="0.09662">
        <ele>722.1</ele>
        <time>2016-07-24T10:46:48Z</time>
      </trkpt>
      <trkpt lat="42.41534" lon="0.09666">
        <ele>722.5</ele>
        <time>2016-07-24T10:46:50Z</time>
      </trkpt>
      <trkpt lat="42.41537" lon="0.0967">
        <ele>722.9</ele>
        <time>2016-07-24T10:46:52Z</time>
      </trkpt>
      <trkpt lat="42.41539" lon="0.09673">
        <ele>723.4</ele>
        <time>2016-07-24T10:46:54Z</time>
      </trkpt>
      <trkpt lat="42.41542" lon="0.09676">
        <ele>723.9</ele>
        <time>2016-07-24T10:46:56Z</time>
      </trkpt>
      <trkpt lat="42.41544" lon="0.09679">
        <ele>724.1</ele>
        <time>2016-07-24T10:46:58Z</time>
      </trkpt>
      <trkpt lat="42.41547" lon="0.09682">
        <ele>724.4</ele>
        <time>2016-07-24T10:47:00Z</time>
      </trkpt>
      <trkpt lat="42.4155" lon="0.09684">
        <ele>724.8</ele>
        <time>2016-07-24T10:47:02Z</time>
      </trkpt>
      <trkpt lat="42.41552" lon="0.09687">
        <ele>725</ele>
        <time>2016-07-24T10:47:04Z</time>
      </trkpt>
      <trkpt lat="42.41553" lon="0.09691">
        <ele>725.3</ele>
        <time>2016-07-24T10:47:06Z</time>
      </trkpt>
      <trkpt lat="42.41556" lon="0.09694">
        <ele>725.7</ele>
        <time>2016-07-24T10:47:08Z</time>
      </trkpt>
      <trkpt lat="42.41558" lon="0.09697">
        <ele>726</ele>
        <time>2016-07-24T10:47:10Z</time>
      </trkpt>
      <trkpt lat="42.4156" lon="0.097">
        <ele>726.4</ele>
        <time>2016-07-24T10:47:12Z</time>
      </trkpt>
      <trkpt lat="42.41563" lon="0.09702">
        <ele>726.7</ele>
        <time>2016-07-24T10:47:14Z</time>
      </trkpt>
      <trkpt lat="42.41566" lon="0.09705">
        <ele>727.1</ele>
        <time>2016-07-24T10:47:16Z</time>
      </trkpt>
      <trkpt lat="42.41569" lon="0.09706">
        <ele>727.5</ele>
        <time>2016-07-24T10:47:18Z</time>
      </trkpt>
      <trkpt lat="42.41572" lon="0.09707">
        <ele>727.9</ele>
        <time>2016-07-24T10:47:20Z</time>
      </trkpt>
      <trkpt lat="42.41575" lon="0.09709">
        <ele>728.2</ele>
        <time>2016-07-24T10:47:22Z</time>
      </trkpt>
      <trkpt lat="42.41579" lon="0.0971">
        <ele>728.6</ele>
        <time>2016-07-24T10:47:24Z</time>
      </trkpt>
      <trkpt lat="42.41582" lon="0.09712">
        <ele>728.9</ele>
        <time>2016-07-24T10:47:26Z</time>
      </trkpt>
      <trkpt lat="42.41584" lon="0.09715">
        <ele>729.2</ele>
        <time>2016-07-24T10:47:28Z</time>
      </trkpt>
      <trkpt lat="42.41586" lon="0.09718">
        <ele>729.5</ele>
        <time>2016-07-24T10:47:30Z</time>
      </trkpt>
      <trkpt lat="42.41588" lon="0.09721">
        <ele>729.9</ele>
        <time>2016-07-24T10:47:32Z</time>
      </trkpt>
      <trkpt lat="42.41589" lon="0.09724">
        <ele>730.2</ele>
        <time>2016-07-24T10:47:34Z</time>
      </trkpt>
      <trkpt lat="42.41589" lon="0.09728">
        <ele>730.4</ele>
        <time>2016-07-24T10:47:36Z</time>
      </trkpt>
      <trkpt lat="42.41587" lon="0.09733">
        <ele>730.3</ele>
        <time>2016-07-24T10:47:38Z</time>
      </trkpt>
      <trkpt lat="42.41585" lon="0.09737">
        <ele>730.1</ele>
        <time>2016-07-24T10:47:40Z</time>
      </trkpt>
      <trkpt lat="42.41583" lon="0.09742">
        <ele>730</ele>
        <time>2016-07-24T10:47:42Z</time>
      </trkpt>
      <trkpt lat="42.41582" lon="0.09747">
        <ele>729.9</ele>
        <time>2016-07-24T10:47:44Z</time>
      </trkpt>
      <trkpt lat="42.4158" lon="0.09753">
        <ele>729.8</ele>
        <time>2016-07-24T10:47:46Z</time>
      </trkpt>
      <trkpt lat="42.41579" lon="0.09759">
        <ele>729.7</ele>
        <time>2016-07-24T10:47:48Z</time>
      </trkpt>
      <trkpt lat="42.41578" lon="0.09764">
        <ele>729.6</ele>
        <time>2016-07-24T10:47:50Z</time>
      </trkpt>
      <trkpt lat="42.41577" lon="0.09769">
        <ele>729.5</ele>
        <time>2016-07-24T10:47:52Z</time>
      </trkpt>
      <trkpt lat="42.41576" lon="0.09775">
        <ele>729.3</ele>
        <time>2016-07-24T10:47:54Z</time>
      </trkpt>
      <trkpt lat="42.41575" lon="0.0978">
        <ele>729.2</ele>
        <time>2016-07-24T10:47:56Z</time>
      </trkpt>
      <trkpt lat="42.41574" lon="0.09785">
        <ele>729</ele>
        <time>2016-07-24T10:47:58Z</time>
      </trkpt>
      <trkpt lat="42.41573" lon="0.09791">
        <ele>729</ele>
        <time>2016-07-24T10:48:00Z</time>
      </trkpt>
      <trkpt lat="42.41573" lon="0.09796">
        <ele>729.1</ele>
        <time>2016-07-24T10:48:02Z</time>
      </trkpt>
      <trkpt lat="42.41573" lon="0.09802">
        <ele>729.4</ele>
        <time>2016-07-24T10:48:04Z</time>
      </trkpt>
      <trkpt lat="42.41574" lon="0.09807">
        <ele>729.7</ele>
        <time>2016-07-24T10:48:06Z</time>
      </trkpt>
      <trkpt lat="42.41576" lon="0.09811">
        <ele>730.4</ele>
        <time>2016-07-24T10:48:08Z</time>
      </trkpt>
      <trkpt lat="42.4158" lon="0.0981">
        <ele>731.5</ele>
        <time>2016-07-24T10:48:10Z</time>
      </trkpt>
      <trkpt lat="42.41584" lon="0.09806">
        <ele>732.4</ele>
        <time>2016-07-24T10:48:12Z</time>
      </trkpt>
      <trkpt lat="42.41587" lon="0.09801">
        <ele>733</ele>
        <time>2016-07-24T10:48:14Z</time>
      </trkpt>
      <trkpt lat="42.41589" lon="0.09796">
        <ele>733.2</ele>
        <time>2016-07-24T10:48:16Z</time>
      </trkpt>
      <trkpt lat="42.41591" lon="0.0979">
        <ele>733.4</ele>
        <time>2016-07-24T10:48:18Z</time>
      </trkpt>
      <trkpt lat="42.41593" lon="0.09786">
        <ele>733.7</ele>
        <time>2016-07-24T10:48:20Z</time>
      </trkpt>
      <trkpt lat="42.41595" lon="0.09782">
        <ele>734</ele>
        <time>2016-07-24T10:48:22Z</time>
      </trkpt>
      <trkpt lat="42.41597" lon="0.09778">
        <ele>734.3</ele>
        <time>2016-07-24T10:48:24Z</time>
      </trkpt>
      <trkpt lat="42.41599" lon="0.09774">
        <ele>734.5</ele>
        <time>2016-07-24T10:48:26Z</time>
      </trkpt>
      <trkpt lat="42.41602" lon="0.09772">
        <ele>735</ele>
        <time>2016-07-24T10:48:28Z</time>
      </trkpt>
      <trkpt lat="42.41606" lon="0.09771">
        <ele>735.6</ele>
        <time>2016-07-24T10:48:30Z</time>
      </trkpt>
      <trkpt lat="42.41609" lon="0.09772">
        <ele>736.4</ele>
        <time>2016-07-24T10:48:32Z</time>
      </trkpt>
      <trkpt lat="42.41612" lon="0.09776">
        <ele>737.3</ele>
        <time>2016-07-24T10:48:34Z</time>
      </trkpt>
      <trkpt lat="42.41612" lon="0.09781">
        <ele>737.9</ele>
        <time>2016-07-24T10:48:36Z</time>
      </trkpt>
      <trkpt lat="42.4161" lon="0.09786">
        <ele>737.8</ele>
        <time>2016-07-24T10:48:38Z</time>
      </trkpt>
      <trkpt lat="42.41608" lon="0.09791">
        <ele>737.6</ele>
        <time>2016-07-24T10:48:40Z</time>
      </trkpt>
      <trkpt lat="42.41606" lon="0.09797">
        <ele>737.6</ele>
        <time>2016-07-24T10:48:42Z</time>
      </trkpt>
      <trkpt lat="42.41605" lon="0.09803">
        <ele>738</ele>
        <time>2016-07-24T10:48:44Z</time>
      </trkpt>
      <trkpt lat="42.41605" lon="0.09809">
        <ele>738.2</ele>
        <time>2016-07-24T10:48:46Z</time>
      </trkpt>
      <trkpt lat="42.41603" lon="0.09815">
        <ele>738.4</ele>
        <time>2016-07-24T10:48:48Z</time>
      </trkpt>
      <trkpt lat="42.41602" lon="0.09821">
        <ele>738.4</ele>
        <time>2016-07-24T10:48:50Z</time>
      </trkpt>
      <trkpt lat="42.416" lon="0.09827">
        <ele>738.4</ele>
        <time>2016-07-24T10:48:52Z</time>
      </trkpt>
      <trkpt lat="42.41599" lon="0.09833">
        <ele>738.4</ele>
        <time>2016-07-24T10:48:54Z</time>
      </trkpt>
      <trkpt lat="42.41597" lon="0.09839">
        <ele>738.4</ele>
        <time>2016-07-24T10:48:56Z</time>
      </trkpt>
      <trkpt lat="42.41596" lon="0.09845">
        <ele>738.5</ele>
        <time>2016-07-24T10:48:58Z</time>
      </trkpt>
      <trkpt lat="42.41596" lon="0.09851">
        <ele>738.7</ele>
        <time>2016-07-24T10:49:00Z</time>
      </trkpt>
      <trkpt lat="42.41595" lon="0.09857">
        <ele>738.8</ele>
        <time>2016-07-24T10:49:02Z</time>
      </trkpt>
      <trkpt lat="42.41594" lon="0.09863">
        <ele>739</ele>
        <time>2016-07-24T10:49:04Z</time>
      </trkpt>
      <trkpt lat="42.41593" lon="0.09869">
        <ele>739.2</ele>
        <time>2016-07-24T10:49:06Z</time>
      </trkpt>
      <trkpt lat="42.41593" lon="0.09875">
        <ele>739.6</ele>
        <time>2016-07-24T10:49:08Z</time>
      </trkpt>
      <trkpt lat="42.41594" lon="0.0988">
        <ele>740.1</ele>
        <time>2016-07-24T10:49:10Z</time>
      </trkpt>
      <trkpt lat="42.41595" lon="0.09885">
        <ele>740.7</ele>
        <time>2016-07-24T10:49:12Z</time>
      </trkpt>
      <trkpt lat="42.41598" lon="0.09889">
        <ele>741.9</ele>
        <time>2016-07-24T10:49:14Z</time>
      </trkpt>
      <trkpt lat="42.41602" lon="0.09888">
        <ele>743.4</ele>
        <time>2016-07-24T10:49:16Z</time>
      </trkpt>
      <trkpt lat="42.41606" lon="0.09883">
        <ele>744.5</ele>
        <time>2016-07-24T10:49:18Z</time>
      </trkpt>
      <trkpt lat="42.41607" lon="0.09879">
        <ele>744.8</ele>
        <time>2016-07-24T10:49:19Z</time>
      </trkpt>
      <trkpt lat="42.41609" lon="0.09873">
        <ele>745.1</ele>
        <time>2016-07-24T10:49:21Z</time>
      </trkpt>
      <trkpt lat="42.41611" lon="0.09867">
        <ele>745.1</ele>
        <time>2016-07-24T10:49:23Z</time>
      </trkpt>
      <trkpt lat="42.41613" lon="0.09862">
        <ele>745.3</ele>
        <time>2016-07-24T10:49:25Z</time>
      </trkpt>
      <trkpt lat="42.41615" lon="0.09857">
        <ele>745.8</ele>
        <time>2016-07-24T10:49:27Z</time>
      </trkpt>
      <trkpt lat="42.41618" lon="0.09851">
        <ele>746.1</ele>
        <time>2016-07-24T10:49:29Z</time>
      </trkpt>
      <trkpt lat="42.41621" lon="0.09846">
        <ele>746.5</ele>
        <time>2016-07-24T10:49:31Z</time>
      </trkpt>
      <trkpt lat="42.41622" lon="0.09843">
        <ele>746.6</ele>
        <time>2016-07-24T10:49:32Z</time>
      </trkpt>
      <trkpt lat="42.41624" lon="0.09839">
        <ele>746.8</ele>
        <time>2016-07-24T10:49:33Z</time>
      </trkpt>
      <trkpt lat="42.41625" lon="0.09836">
        <ele>746.8</ele>
        <time>2016-07-24T10:49:34Z</time>
      </trkpt>
      <trkpt lat="42.41627" lon="0.09832">
        <ele>746.8</ele>
        <time>2016-07-24T10:49:35Z</time>
      </trkpt>
      <trkpt lat="42.41628" lon="0.09828">
        <ele>746.6</ele>
        <time>2016-07-24T10:49:36Z</time>
      </trkpt>
      <trkpt lat="42.41629" lon="0.09824">
        <ele>746.4</ele>
        <time>2016-07-24T10:49:37Z</time>
      </trkpt>
      <trkpt lat="42.4163" lon="0.09819">
        <ele>746.2</ele>
        <time>2016-07-24T10:49:38Z</time>
      </trkpt>
      <trkpt lat="42.41632" lon="0.09814">
        <ele>746</ele>
        <time>2016-07-24T10:49:39Z</time>
      </trkpt>
      <trkpt lat="42.41633" lon="0.0981">
        <ele>745.7</ele>
        <time>2016-07-24T10:49:40Z</time>
      </trkpt>
      <trkpt lat="42.41633" lon="0.09806">
        <ele>745.4</ele>
        <time>2016-07-24T10:49:41Z</time>
      </trkpt>
      <trkpt lat="42.41635" lon="0.098">
        <ele>745.1</ele>
        <time>2016-07-24T10:49:43Z</time>
      </trkpt>
      <trkpt lat="42.41636" lon="0.09797">
        <ele>745.2</ele>
        <time>2016-07-24T10:49:44Z</time>
      </trkpt>
      <trkpt lat="42.41639" lon="0.09794">
        <ele>745.4</ele>
        <time>2016-07-24T10:49:45Z</time>
      </trkpt>
      <trkpt lat="42.41641" lon="0.09791">
        <ele>745.5</ele>
        <time>2016-07-24T10:49:46Z</time>
      </trkpt>
      <trkpt lat="42.41644" lon="0.09787">
        <ele>745.7</ele>
        <time>2016-07-24T10:49:47Z</time>
      </trkpt>
      <trkpt lat="42.41647" lon="0.09784">
        <ele>746</ele>
        <time>2016-07-24T10:49:48Z</time>
      </trkpt>
      <trkpt lat="42.4165" lon="0.09781">
        <ele>746.4</ele>
        <time>2016-07-24T10:49:49Z</time>
      </trkpt>
      <trkpt lat="42.41654" lon="0.09778">
        <ele>746.9</ele>
        <time>2016-07-24T10:49:50Z</time>
      </trkpt>
      <trkpt lat="42.41657" lon="0.09775">
        <ele>747.3</ele>
        <time>2016-07-24T10:49:51Z</time>
      </trkpt>
      <trkpt lat="42.4166" lon="0.09773">
        <ele>747.6</ele>
        <time>2016-07-24T10:49:52Z</time>
      </trkpt>
      <trkpt lat="42.41663" lon="0.0977">
        <ele>747.9</ele>
        <time>2016-07-24T10:49:53Z</time>
      </trkpt>
      <trkpt lat="42.41666" lon="0.09767">
        <ele>748.1</ele>
        <time>2016-07-24T10:49:54Z</time>
      </trkpt>
      <trkpt lat="42.41669" lon="0.09765">
        <ele>748.4</ele>
        <time>2016-07-24T10:49:55Z</time>
      </trkpt>
      <trkpt lat="42.41672" lon="0.09762">
        <ele>748.7</ele>
        <time>2016-07-24T10:49:56Z</time>
      </trkpt>
      <trkpt lat="42.41675" lon="0.09759">
        <ele>749</ele>
        <time>2016-07-24T10:49:57Z</time>
      </trkpt>
      <trkpt lat="42.41678" lon="0.09756">
        <ele>749.1</ele>
        <time>2016-07-24T10:49:58Z</time>
      </trkpt>
      <trkpt lat="42.41681" lon="0.09753">
        <ele>749.3</ele>
        <time>2016-07-24T10:49:59Z</time>
      </trkpt>
      <trkpt lat="42.41683" lon="0.09751">
        <ele>749.5</ele>
        <time>2016-07-24T10:50:00Z</time>
      </trkpt>
      <trkpt lat="42.41686" lon="0.09748">
        <ele>749.6</ele>
        <time>2016-07-24T10:50:01Z</time>
      </trkpt>
      <trkpt lat="42.41688" lon="0.09746">
        <ele>749.8</ele>
        <time>2016-07-24T10:50:02Z</time>
      </trkpt>
      <trkpt lat="42.41691" lon="0.09743">
        <ele>749.9</ele>
        <time>2016-07-24T10:50:03Z</time>
      </trkpt>
      <trkpt lat="42.41693" lon="0.09741">
        <ele>750</ele>
        <time>2016-07-24T10:50:04Z</time>
      </trkpt>
      <trkpt lat="42.41697" lon="0.09738">
        <ele>750.5</ele>
        <time>2016-07-24T10:50:06Z</time>
      </trkpt>
      <trkpt lat="42.41702" lon="0.09738">
        <ele>751.3</ele>
        <time>2016-07-24T10:50:08Z</time>
      </trkpt>
      <trkpt lat="42.41707" lon="0.09739">
        <ele>752.4</ele>
        <time>2016-07-24T10:50:10Z</time>
      </trkpt>
      <trkpt lat="42.41711" lon="0.09742">
        <ele>753</ele>
        <time>2016-07-24T10:50:12Z</time>
      </trkpt>
      <trkpt lat="42.41714" lon="0.09747">
        <ele>753.5</ele>
        <time>2016-07-24T10:50:14Z</time>
      </trkpt>
      <trkpt lat="42.41716" lon="0.09753">
        <ele>754</ele>
        <time>2016-07-24T10:50:16Z</time>
      </trkpt>
      <trkpt lat="42.41719" lon="0.09758">
        <ele>754.6</ele>
        <time>2016-07-24T10:50:18Z</time>
      </trkpt>
      <trkpt lat="42.41721" lon="0.09764">
        <ele>755.2</ele>
        <time>2016-07-24T10:50:20Z</time>
      </trkpt>
      <trkpt lat="42.41723" lon="0.0977">
        <ele>756</ele>
        <time>2016-07-24T10:50:22Z</time>
      </trkpt>
      <trkpt lat="42.41724" lon="0.09775">
        <ele>756.6</ele>
        <time>2016-07-24T10:50:24Z</time>
      </trkpt>
      <trkpt lat="42.41725" lon="0.0978">
        <ele>757.3</ele>
        <time>2016-07-24T10:50:27Z</time>
      </trkpt>
      <trkpt lat="42.41725" lon="0.09786">
        <ele>758.2</ele>
        <time>2016-07-24T10:50:29Z</time>
      </trkpt>
      <trkpt lat="42.41725" lon="0.09791">
        <ele>759.1</ele>
        <time>2016-07-24T10:50:31Z</time>
      </trkpt>
      <trkpt lat="42.41724" lon="0.09795">
        <ele>759.7</ele>
        <time>2016-07-24T10:50:33Z</time>
      </trkpt>
      <trkpt lat="42.41723" lon="0.098">
        <ele>760.4</ele>
        <time>2016-07-24T10:50:35Z</time>
      </trkpt>
      <trkpt lat="42.41723" lon="0.09805">
        <ele>761.2</ele>
        <time>2016-07-24T10:50:37Z</time>
      </trkpt>
      <trkpt lat="42.41722" lon="0.09809">
        <ele>761.8</ele>
        <time>2016-07-24T10:50:39Z</time>
      </trkpt>
      <trkpt lat="42.41721" lon="0.09815">
        <ele>762.6</ele>
        <time>2016-07-24T10:50:41Z</time>
      </trkpt>
      <trkpt lat="42.41719" lon="0.09819">
        <ele>763.4</ele>
        <time>2016-07-24T10:50:43Z</time>
      </trkpt>
      <trkpt lat="42.41717" lon="0.09822">
        <ele>764.1</ele>
        <time>2016-07-24T10:50:45Z</time>
      </trkpt>
      <trkpt lat="42.41715" lon="0.09825">
        <ele>764.8</ele>
        <time>2016-07-24T10:50:47Z</time>
      </trkpt>
      <trkpt lat="42.41715" lon="0.09829">
        <ele>765.5</ele>
        <time>2016-07-24T10:50:49Z</time>
      </trkpt>
      <trkpt lat="42.41714" lon="0.09834">
        <ele>766.2</ele>
        <time>2016-07-24T10:50:51Z</time>
      </trkpt>
      <trkpt lat="42.41712" lon="0.09837">
        <ele>767</ele>
        <time>2016-07-24T10:50:53Z</time>
      </trkpt>
      <trkpt lat="42.4171" lon="0.0984">
        <ele>767.7</ele>
        <time>2016-07-24T10:50:55Z</time>
      </trkpt>
      <trkpt lat="42.41708" lon="0.09844">
        <ele>768.4</ele>
        <time>2016-07-24T10:50:57Z</time>
      </trkpt>
      <trkpt lat="42.41705" lon="0.09846">
        <ele>767.8</ele>
        <time>2016-07-24T10:50:59Z</time>
      </trkpt>
      <trkpt lat="42.41701" lon="0.09846">
        <ele>766.9</ele>
        <time>2016-07-24T10:51:01Z</time>
      </trkpt>
      <trkpt lat="42.41697" lon="0.09846">
        <ele>766</ele>
        <time>2016-07-24T10:51:03Z</time>
      </trkpt>
      <trkpt lat="42.41695" lon="0.09845">
        <ele>765.2</ele>
        <time>2016-07-24T10:51:05Z</time>
      </trkpt>
      <trkpt lat="42.41692" lon="0.09843">
        <ele>764.3</ele>
        <time>2016-07-24T10:51:07Z</time>
      </trkpt>
      <trkpt lat="42.41688" lon="0.09842">
        <ele>763.3</ele>
        <time>2016-07-24T10:51:09Z</time>
      </trkpt>
      <trkpt lat="42.41684" lon="0.09843">
        <ele>762.3</ele>
        <time>2016-07-24T10:51:11Z</time>
      </trkpt>
      <trkpt lat="42.41681" lon="0.09843">
        <ele>761.6</ele>
        <time>2016-07-24T10:51:13Z</time>
      </trkpt>
      <trkpt lat="42.41678" lon="0.09843">
        <ele>760.9</ele>
        <time>2016-07-24T10:51:16Z</time>
      </trkpt>
      <trkpt lat="42.41676" lon="0.09846">
        <ele>760.6</ele>
        <time>2016-07-24T10:51:20Z</time>
      </trkpt>
      <trkpt lat="42.41673" lon="0.09849">
        <ele>760.2</ele>
        <time>2016-07-24T10:51:22Z</time>
      </trkpt>
      <trkpt lat="42.4167" lon="0.09853">
        <ele>759.9</ele>
        <time>2016-07-24T10:51:24Z</time>
      </trkpt>
      <trkpt lat="42.41667" lon="0.09856">
        <ele>759.6</ele>
        <time>2016-07-24T10:51:26Z</time>
      </trkpt>
      <trkpt lat="42.41664" lon="0.09859">
        <ele>759.3</ele>
        <time>2016-07-24T10:51:28Z</time>
      </trkpt>
      <trkpt lat="42.41661" lon="0.09861">
        <ele>758.9</ele>
        <time>2016-07-24T10:51:30Z</time>
      </trkpt>
      <trkpt lat="42.41658" lon="0.09862">
        <ele>758.2</ele>
        <time>2016-07-24T10:51:32Z</time>
      </trkpt>
      <trkpt lat="42.41656" lon="0.09865">
        <ele>758</ele>
        <time>2016-07-24T10:51:34Z</time>
      </trkpt>
      <trkpt lat="42.41657" lon="0.0987">
        <ele>758.6</ele>
        <time>2016-07-24T10:51:36Z</time>
      </trkpt>
      <trkpt lat="42.41659" lon="0.09871">
        <ele>759.5</ele>
        <time>2016-07-24T10:51:38Z</time>
      </trkpt>
      <trkpt lat="42.41662" lon="0.0987">
        <ele>760.2</ele>
        <time>2016-07-24T10:51:40Z</time>
      </trkpt>
      <trkpt lat="42.41664" lon="0.09867">
        <ele>760.4</ele>
        <time>2016-07-24T10:51:42Z</time>
      </trkpt>
      <trkpt lat="42.41667" lon="0.09864">
        <ele>760.6</ele>
        <time>2016-07-24T10:51:44Z</time>
      </trkpt>
      <trkpt lat="42.41669" lon="0.0986">
        <ele>760.7</ele>
        <time>2016-07-24T10:51:46Z</time>
      </trkpt>
      <trkpt lat="42.41672" lon="0.09855">
        <ele>760.7</ele>
        <time>2016-07-24T10:51:48Z</time>
      </trkpt>
      <trkpt lat="42.41674" lon="0.09852">
        <ele>760.9</ele>
        <time>2016-07-24T10:51:49Z</time>
      </trkpt>
      <trkpt lat="42.41676" lon="0.0985">
        <ele>761.1</ele>
        <time>2016-07-24T10:51:50Z</time>
      </trkpt>
      <trkpt lat="42.4168" lon="0.09846">
        <ele>761.8</ele>
        <time>2016-07-24T10:51:52Z</time>
      </trkpt>
      <trkpt lat="42.41685" lon="0.09845">
        <ele>762.7</ele>
        <time>2016-07-24T10:51:54Z</time>
      </trkpt>
      <trkpt lat="42.41688" lon="0.09844">
        <ele>763.5</ele>
        <time>2016-07-24T10:51:56Z</time>
      </trkpt>
      <trkpt lat="42.41692" lon="0.09843">
        <ele>764.3</ele>
        <time>2016-07-24T10:51:58Z</time>
      </trkpt>
      <trkpt lat="42.41696" lon="0.09843">
        <ele>765.1</ele>
        <time>2016-07-24T10:52:00Z</time>
      </trkpt>
      <trkpt lat="42.41699" lon="0.09845">
        <ele>766.4</ele>
        <time>2016-07-24T10:52:02Z</time>
      </trkpt>
      <trkpt lat="42.41704" lon="0.09849">
        <ele>768</ele>
        <time>2016-07-24T10:52:04Z</time>
      </trkpt>
      <trkpt lat="42.41705" lon="0.09852">
        <ele>769</ele>
        <time>2016-07-24T10:52:05Z</time>
      </trkpt>
      <trkpt lat="42.41707" lon="0.09858">
        <ele>770.1</ele>
        <time>2016-07-24T10:52:07Z</time>
      </trkpt>
      <trkpt lat="42.41707" lon="0.09862">
        <ele>770.7</ele>
        <time>2016-07-24T10:52:09Z</time>
      </trkpt>
      <trkpt lat="42.41705" lon="0.09866">
        <ele>771</ele>
        <time>2016-07-24T10:52:11Z</time>
      </trkpt>
      <trkpt lat="42.41705" lon="0.09873">
        <ele>771.7</ele>
        <time>2016-07-24T10:52:13Z</time>
      </trkpt>
      <trkpt lat="42.41704" lon="0.09877">
        <ele>771.9</ele>
        <time>2016-07-24T10:52:14Z</time>
      </trkpt>
      <trkpt lat="42.41704" lon="0.09882">
        <ele>771.8</ele>
        <time>2016-07-24T10:52:15Z</time>
      </trkpt>
      <trkpt lat="42.41703" lon="0.09887">
        <ele>771.7</ele>
        <time>2016-07-24T10:52:16Z</time>
      </trkpt>
      <trkpt lat="42.41702" lon="0.09891">
        <ele>771.4</ele>
        <time>2016-07-24T10:52:17Z</time>
      </trkpt>
      <trkpt lat="42.417" lon="0.09895">
        <ele>771.1</ele>
        <time>2016-07-24T10:52:18Z</time>
      </trkpt>
      <trkpt lat="42.41698" lon="0.09899">
        <ele>770.7</ele>
        <time>2016-07-24T10:52:19Z</time>
      </trkpt>
      <trkpt lat="42.41697" lon="0.09903">
        <ele>770.4</ele>
        <time>2016-07-24T10:52:20Z</time>
      </trkpt>
      <trkpt lat="42.41695" lon="0.09907">
        <ele>770</ele>
        <time>2016-07-24T10:52:21Z</time>
      </trkpt>
      <trkpt lat="42.41693" lon="0.09911">
        <ele>769.7</ele>
        <time>2016-07-24T10:52:22Z</time>
      </trkpt>
      <trkpt lat="42.41692" lon="0.09915">
        <ele>769.4</ele>
        <time>2016-07-24T10:52:23Z</time>
      </trkpt>
      <trkpt lat="42.41691" lon="0.09919">
        <ele>769.2</ele>
        <time>2016-07-24T10:52:24Z</time>
      </trkpt>
      <trkpt lat="42.41689" lon="0.09924">
        <ele>768.9</ele>
        <time>2016-07-24T10:52:25Z</time>
      </trkpt>
      <trkpt lat="42.41688" lon="0.09928">
        <ele>768.7</ele>
        <time>2016-07-24T10:52:26Z</time>
      </trkpt>
      <trkpt lat="42.41686" lon="0.09932">
        <ele>768.4</ele>
        <time>2016-07-24T10:52:27Z</time>
      </trkpt>
      <trkpt lat="42.41685" lon="0.09935">
        <ele>768.1</ele>
        <time>2016-07-24T10:52:28Z</time>
      </trkpt>
      <trkpt lat="42.41683" lon="0.09939">
        <ele>767.8</ele>
        <time>2016-07-24T10:52:29Z</time>
      </trkpt>
      <trkpt lat="42.41682" lon="0.09943">
        <ele>767.7</ele>
        <time>2016-07-24T10:52:30Z</time>
      </trkpt>
      <trkpt lat="42.41681" lon="0.09946">
        <ele>767.5</ele>
        <time>2016-07-24T10:52:31Z</time>
      </trkpt>
      <trkpt lat="42.4168" lon="0.0995">
        <ele>767.4</ele>
        <time>2016-07-24T10:52:32Z</time>
      </trkpt>
      <trkpt lat="42.41679" lon="0.09954">
        <ele>767.2</ele>
        <time>2016-07-24T10:52:33Z</time>
      </trkpt>
      <trkpt lat="42.41677" lon="0.09957">
        <ele>766.9</ele>
        <time>2016-07-24T10:52:34Z</time>
      </trkpt>
      <trkpt lat="42.41675" lon="0.09961">
        <ele>766.2</ele>
        <time>2016-07-24T10:52:35Z</time>
      </trkpt>
      <trkpt lat="42.41672" lon="0.09964">
        <ele>765.4</ele>
        <time>2016-07-24T10:52:36Z</time>
      </trkpt>
      <trkpt lat="42.4167" lon="0.09966">
        <ele>764.6</ele>
        <time>2016-07-24T10:52:37Z</time>
      </trkpt>
      <trkpt lat="42.41667" lon="0.09968">
        <ele>763.9</ele>
        <time>2016-07-24T10:52:38Z</time>
      </trkpt>
      <trkpt lat="42.41662" lon="0.09972">
        <ele>762.6</ele>
        <time>2016-07-24T10:52:40Z</time>
      </trkpt>
      <trkpt lat="42.41659" lon="0.09973">
        <ele>762</ele>
        <time>2016-07-24T10:52:41Z</time>
      </trkpt>
      <trkpt lat="42.41656" lon="0.09973">
        <ele>761.3</ele>
        <time>2016-07-24T10:52:42Z</time>
      </trkpt>
      <trkpt lat="42.41654" lon="0.09971">
        <ele>760.9</ele>
        <time>2016-07-24T10:52:43Z</time>
      </trkpt>
      <trkpt lat="42.41652" lon="0.09969">
        <ele>760.5</ele>
        <time>2016-07-24T10:52:44Z</time>
      </trkpt>
      <trkpt lat="42.4165" lon="0.09966">
        <ele>760.2</ele>
        <time>2016-07-24T10:52:45Z</time>
      </trkpt>
      <trkpt lat="42.41648" lon="0.09962">
        <ele>760.1</ele>
        <time>2016-07-24T10:52:46Z</time>
      </trkpt>
      <trkpt lat="42.41647" lon="0.09957">
        <ele>760</ele>
        <time>2016-07-24T10:52:47Z</time>
      </trkpt>
      <trkpt lat="42.41647" lon="0.09952">
        <ele>759.8</ele>
        <time>2016-07-24T10:52:48Z</time>
      </trkpt>
      <trkpt lat="42.41648" lon="0.09948">
        <ele>759.7</ele>
        <time>2016-07-24T10:52:49Z</time>
      </trkpt>
      <trkpt lat="42.41648" lon="0.09944">
        <ele>759.7</ele>
        <time>2016-07-24T10:52:50Z</time>
      </trkpt>
      <trkpt lat="42.41649" lon="0.09938">
        <ele>759.6</ele>
        <time>2016-07-24T10:52:52Z</time>
      </trkpt>
      <trkpt lat="42.41649" lon="0.09932">
        <ele>759.5</ele>
        <time>2016-07-24T10:52:55Z</time>
      </trkpt>
      <trkpt lat="42.41649" lon="0.09927">
        <ele>759.3</ele>
        <time>2016-07-24T10:52:57Z</time>
      </trkpt>
      <trkpt lat="42.41649" lon="0.09919">
        <ele>759</ele>
        <time>2016-07-24T10:52:59Z</time>
      </trkpt>
      <trkpt lat="42.41648" lon="0.09914">
        <ele>758.6</ele>
        <time>2016-07-24T10:53:01Z</time>
      </trkpt>
      <trkpt lat="42.41645" lon="0.09914">
        <ele>757.7</ele>
        <time>2016-07-24T10:53:04Z</time>
      </trkpt>
      <trkpt lat="42.41642" lon="0.09917">
        <ele>757.2</ele>
        <time>2016-07-24T10:53:06Z</time>
      </trkpt>
      <trkpt lat="42.41638" lon="0.09917">
        <ele>756.3</ele>
        <time>2016-07-24T10:53:08Z</time>
      </trkpt>
      <trkpt lat="42.41635" lon="0.09918">
        <ele>755.6</ele>
        <time>2016-07-24T10:53:10Z</time>
      </trkpt>
      <trkpt lat="42.41633" lon="0.09921">
        <ele>755.1</ele>
        <time>2016-07-24T10:53:12Z</time>
      </trkpt>
      <trkpt lat="42.41631" lon="0.09925">
        <ele>754.8</ele>
        <time>2016-07-24T10:53:14Z</time>
      </trkpt>
      <trkpt lat="42.41629" lon="0.09929">
        <ele>754.5</ele>
        <time>2016-07-24T10:53:15Z</time>
      </trkpt>
      <trkpt lat="42.41627" lon="0.09933">
        <ele>754.2</ele>
        <time>2016-07-24T10:53:16Z</time>
      </trkpt>
      <trkpt lat="42.41625" lon="0.09936">
        <ele>753.9</ele>
        <time>2016-07-24T10:53:17Z</time>
      </trkpt>
      <trkpt lat="42.41622" lon="0.09941">
        <ele>753.2</ele>
        <time>2016-07-24T10:53:19Z</time>
      </trkpt>
      <trkpt lat="42.4162" lon="0.09947">
        <ele>752.8</ele>
        <time>2016-07-24T10:53:21Z</time>
      </trkpt>
      <trkpt lat="42.41619" lon="0.09953">
        <ele>752.5</ele>
        <time>2016-07-24T10:53:23Z</time>
      </trkpt>
      <trkpt lat="42.41618" lon="0.09957">
        <ele>752.4</ele>
        <time>2016-07-24T10:53:24Z</time>
      </trkpt>
      <trkpt lat="42.41617" lon="0.0996">
        <ele>752.1</ele>
        <time>2016-07-24T10:53:25Z</time>
      </trkpt>
      <trkpt lat="42.41615" lon="0.09966">
        <ele>751.6</ele>
        <time>2016-07-24T10:53:27Z</time>
      </trkpt>
      <trkpt lat="42.41613" lon="0.0997">
        <ele>750.9</ele>
        <time>2016-07-24T10:53:29Z</time>
      </trkpt>
      <trkpt lat="42.41611" lon="0.09975">
        <ele>750</ele>
        <time>2016-07-24T10:53:31Z</time>
      </trkpt>
      <trkpt lat="42.41608" lon="0.09978">
        <ele>749.2</ele>
        <time>2016-07-24T10:53:33Z</time>
      </trkpt>
      <trkpt lat="42.41606" lon="0.0998">
        <ele>748.4</ele>
        <time>2016-07-24T10:53:35Z</time>
      </trkpt>
      <trkpt lat="42.41603" lon="0.09982">
        <ele>747.5</ele>
        <time>2016-07-24T10:53:37Z</time>
      </trkpt>
      <trkpt lat="42.416" lon="0.09985">
        <ele>746.5</ele>
        <time>2016-07-24T10:53:39Z</time>
      </trkpt>
      <trkpt lat="42.41597" lon="0.09987">
        <ele>745.7</ele>
        <time>2016-07-24T10:53:41Z</time>
      </trkpt>
      <trkpt lat="42.41595" lon="0.09991">
        <ele>745</ele>
        <time>2016-07-24T10:53:43Z</time>
      </trkpt>
      <trkpt lat="42.41594" lon="0.09995">
        <ele>744.6</ele>
        <time>2016-07-24T10:53:44Z</time>
      </trkpt>
      <trkpt lat="42.41591" lon="0.09998">
        <ele>743.9</ele>
        <time>2016-07-24T10:53:45Z</time>
      </trkpt>
      <trkpt lat="42.41588" lon="0.10001">
        <ele>743.1</ele>
        <time>2016-07-24T10:53:46Z</time>
      </trkpt>
      <trkpt lat="42.41584" lon="0.10003">
        <ele>741.9</ele>
        <time>2016-07-24T10:53:47Z</time>
      </trkpt>
      <trkpt lat="42.4158" lon="0.10005">
        <ele>740.5</ele>
        <time>2016-07-24T10:53:48Z</time>
      </trkpt>
      <trkpt lat="42.41575" lon="0.10008">
        <ele>739.2</ele>
        <time>2016-07-24T10:53:49Z</time>
      </trkpt>
      <trkpt lat="42.41572" lon="0.10011">
        <ele>738.2</ele>
        <time>2016-07-24T10:53:50Z</time>
      </trkpt>
      <trkpt lat="42.41569" lon="0.10015">
        <ele>737.5</ele>
        <time>2016-07-24T10:53:52Z</time>
      </trkpt>
      <trkpt lat="42.4157" lon="0.1002">
        <ele>738</ele>
        <time>2016-07-24T10:53:54Z</time>
      </trkpt>
      <trkpt lat="42.41572" lon="0.10026">
        <ele>738.9</ele>
        <time>2016-07-24T10:53:56Z</time>
      </trkpt>
      <trkpt lat="42.41571" lon="0.10031">
        <ele>738.8</ele>
        <time>2016-07-24T10:53:58Z</time>
      </trkpt>
      <trkpt lat="42.41567" lon="0.10034">
        <ele>737.7</ele>
        <time>2016-07-24T10:54:00Z</time>
      </trkpt>
      <trkpt lat="42.41563" lon="0.10033">
        <ele>736.4</ele>
        <time>2016-07-24T10:54:02Z</time>
      </trkpt>
      <trkpt lat="42.4156" lon="0.10032">
        <ele>735.6</ele>
        <time>2016-07-24T10:54:03Z</time>
      </trkpt>
      <trkpt lat="42.41557" lon="0.1003">
        <ele>734.7</ele>
        <time>2016-07-24T10:54:04Z</time>
      </trkpt>
      <trkpt lat="42.41555" lon="0.10027">
        <ele>734</ele>
        <time>2016-07-24T10:54:05Z</time>
      </trkpt>
      <trkpt lat="42.41552" lon="0.10024">
        <ele>732.9</ele>
        <time>2016-07-24T10:54:07Z</time>
      </trkpt>
      <trkpt lat="42.41551" lon="0.10028">
        <ele>732.9</ele>
        <time>2016-07-24T10:54:11Z</time>
      </trkpt>
      <trkpt lat="42.41553" lon="0.10032">
        <ele>733.8</ele>
        <time>2016-07-24T10:54:13Z</time>
      </trkpt>
      <trkpt lat="42.41555" lon="0.10039">
        <ele>734.7</ele>
        <time>2016-07-24T10:54:15Z</time>
      </trkpt>
      <trkpt lat="42.41557" lon="0.10042">
        <ele>735.2</ele>
        <time>2016-07-24T10:54:16Z</time>
      </trkpt>
      <trkpt lat="42.41559" lon="0.10045">
        <ele>735.7</ele>
        <time>2016-07-24T10:54:17Z</time>
      </trkpt>
      <trkpt lat="42.41561" lon="0.10048">
        <ele>736.2</ele>
        <time>2016-07-24T10:54:18Z</time>
      </trkpt>
      <trkpt lat="42.41563" lon="0.10051">
        <ele>736.7</ele>
        <time>2016-07-24T10:54:19Z</time>
      </trkpt>
      <trkpt lat="42.41565" lon="0.10054">
        <ele>737.2</ele>
        <time>2016-07-24T10:54:20Z</time>
      </trkpt>
      <trkpt lat="42.41567" lon="0.10058">
        <ele>737.8</ele>
        <time>2016-07-24T10:54:21Z</time>
      </trkpt>
      <trkpt lat="42.4157" lon="0.1006">
        <ele>738.3</ele>
        <time>2016-07-24T10:54:22Z</time>
      </trkpt>
      <trkpt lat="42.41572" lon="0.10063">
        <ele>738.8</ele>
        <time>2016-07-24T10:54:23Z</time>
      </trkpt>
      <trkpt lat="42.41575" lon="0.10068">
        <ele>739.3</ele>
        <time>2016-07-24T10:54:25Z</time>
      </trkpt>
      <trkpt lat="42.41577" lon="0.10074">
        <ele>739.7</ele>
        <time>2016-07-24T10:54:27Z</time>
      </trkpt>
      <trkpt lat="42.41579" lon="0.10077">
        <ele>740.1</ele>
        <time>2016-07-24T10:54:28Z</time>
      </trkpt>
      <trkpt lat="42.41583" lon="0.1008">
        <ele>740.9</ele>
        <time>2016-07-24T10:54:30Z</time>
      </trkpt>
      <trkpt lat="42.41587" lon="0.10082">
        <ele>741.7</ele>
        <time>2016-07-24T10:54:32Z</time>
      </trkpt>
      <trkpt lat="42.41591" lon="0.10084">
        <ele>742.3</ele>
        <time>2016-07-24T10:54:34Z</time>
      </trkpt>
      <trkpt lat="42.41593" lon="0.10086">
        <ele>742.7</ele>
        <time>2016-07-24T10:54:36Z</time>
      </trkpt>
      <trkpt lat="42.41591" lon="0.10083">
        <ele>742.4</ele>
        <time>2016-07-24T10:54:52Z</time>
      </trkpt>
      <trkpt lat="42.41588" lon="0.1008">
        <ele>742</ele>
        <time>2016-07-24T10:54:54Z</time>
      </trkpt>
      <trkpt lat="42.41585" lon="0.10077">
        <ele>741.3</ele>
        <time>2016-07-24T10:54:56Z</time>
      </trkpt>
      <trkpt lat="42.4158" lon="0.10074">
        <ele>740.3</ele>
        <time>2016-07-24T10:54:58Z</time>
      </trkpt>
      <trkpt lat="42.41577" lon="0.10071">
        <ele>739.9</ele>
        <time>2016-07-24T10:54:59Z</time>
      </trkpt>
      <trkpt lat="42.41575" lon="0.10068">
        <ele>739.5</ele>
        <time>2016-07-24T10:55:00Z</time>
      </trkpt>
      <trkpt lat="42.41574" lon="0.10065">
        <ele>739.2</ele>
        <time>2016-07-24T10:55:01Z</time>
      </trkpt>
      <trkpt lat="42.41572" lon="0.10062">
        <ele>739</ele>
        <time>2016-07-24T10:55:02Z</time>
      </trkpt>
      <trkpt lat="42.41571" lon="0.10058">
        <ele>738.7</ele>
        <time>2016-07-24T10:55:03Z</time>
      </trkpt>
      <trkpt lat="42.41569" lon="0.10055">
        <ele>738.3</ele>
        <time>2016-07-24T10:55:04Z</time>
      </trkpt>
      <trkpt lat="42.41567" lon="0.10052">
        <ele>737.7</ele>
        <time>2016-07-24T10:55:05Z</time>
      </trkpt>
      <trkpt lat="42.41564" lon="0.1005">
        <ele>737.2</ele>
        <time>2016-07-24T10:55:06Z</time>
      </trkpt>
      <trkpt lat="42.41563" lon="0.10047">
        <ele>736.7</ele>
        <time>2016-07-24T10:55:07Z</time>
      </trkpt>
      <trkpt lat="42.41561" lon="0.10044">
        <ele>736.2</ele>
        <time>2016-07-24T10:55:09Z</time>
      </trkpt>
      <trkpt lat="42.41558" lon="0.10046">
        <ele>735.5</ele>
        <time>2016-07-24T10:55:13Z</time>
      </trkpt>
      <trkpt lat="42.41558" lon="0.10039">
        <ele>735.3</ele>
        <time>2016-07-24T10:55:24Z</time>
      </trkpt>
      <trkpt lat="42.41557" lon="0.10034">
        <ele>735</ele>
        <time>2016-07-24T10:55:35Z</time>
      </trkpt>
      <trkpt lat="42.41556" lon="0.10028">
        <ele>734.3</ele>
        <time>2016-07-24T10:55:37Z</time>
      </trkpt>
      <trkpt lat="42.41553" lon="0.10022">
        <ele>733.2</ele>
        <time>2016-07-24T10:55:39Z</time>
      </trkpt>
      <trkpt lat="42.41551" lon="0.10018">
        <ele>732.5</ele>
        <time>2016-07-24T10:55:41Z</time>
      </trkpt>
      <trkpt lat="42.41549" lon="0.10021">
        <ele>732</ele>
        <time>2016-07-24T10:55:52Z</time>
      </trkpt>
      <trkpt lat="42.4155" lon="0.10027">
        <ele>732.4</ele>
        <time>2016-07-24T10:55:57Z</time>
      </trkpt>
      <trkpt lat="42.4155" lon="0.10031">
        <ele>732.8</ele>
        <time>2016-07-24T10:55:59Z</time>
      </trkpt>
      <trkpt lat="42.41552" lon="0.10036">
        <ele>733.6</ele>
        <time>2016-07-24T10:56:01Z</time>
      </trkpt>
      <trkpt lat="42.41553" lon="0.10041">
        <ele>734</ele>
        <time>2016-07-24T10:56:03Z</time>
      </trkpt>
      <trkpt lat="42.41552" lon="0.10045">
        <ele>734</ele>
        <time>2016-07-24T10:56:04Z</time>
      </trkpt>
      <trkpt lat="42.41552" lon="0.1005">
        <ele>733.9</ele>
        <time>2016-07-24T10:56:05Z</time>
      </trkpt>
      <trkpt lat="42.41552" lon="0.10054">
        <ele>733.9</ele>
        <time>2016-07-24T10:56:06Z</time>
      </trkpt>
      <trkpt lat="42.41551" lon="0.1006">
        <ele>733.7</ele>
        <time>2016-07-24T10:56:07Z</time>
      </trkpt>
      <trkpt lat="42.41549" lon="0.10066">
        <ele>733.2</ele>
        <time>2016-07-24T10:56:08Z</time>
      </trkpt>
      <trkpt lat="42.41545" lon="0.10072">
        <ele>732.4</ele>
        <time>2016-07-24T10:56:09Z</time>
      </trkpt>
      <trkpt lat="42.4154" lon="0.10076">
        <ele>731.5</ele>
        <time>2016-07-24T10:56:10Z</time>
      </trkpt>
      <trkpt lat="42.41535" lon="0.10079">
        <ele>730.9</ele>
        <time>2016-07-24T10:56:11Z</time>
      </trkpt>
      <trkpt lat="42.41533" lon="0.10081">
        <ele>730.5</ele>
        <time>2016-07-24T10:56:12Z</time>
      </trkpt>
      <trkpt lat="42.4153" lon="0.10086">
        <ele>730.2</ele>
        <time>2016-07-24T10:56:14Z</time>
      </trkpt>
      <trkpt lat="42.41528" lon="0.1009">
        <ele>730.2</ele>
        <time>2016-07-24T10:56:16Z</time>
      </trkpt>
      <trkpt lat="42.41527" lon="0.10093">
        <ele>730.2</ele>
        <time>2016-07-24T10:56:18Z</time>
      </trkpt>
      <trkpt lat="42.41525" lon="0.10099">
        <ele>730.2</ele>
        <time>2016-07-24T10:56:20Z</time>
      </trkpt>
      <trkpt lat="42.41524" lon="0.10103">
        <ele>730.3</ele>
        <time>2016-07-24T10:56:21Z</time>
      </trkpt>
      <trkpt lat="42.41522" lon="0.10109">
        <ele>730.4</ele>
        <time>2016-07-24T10:56:23Z</time>
      </trkpt>
      <trkpt lat="42.4152" lon="0.10114">
        <ele>730.5</ele>
        <time>2016-07-24T10:56:25Z</time>
      </trkpt>
      <trkpt lat="42.41518" lon="0.10119">
        <ele>730.6</ele>
        <time>2016-07-24T10:56:27Z</time>
      </trkpt>
      <trkpt lat="42.41514" lon="0.10123">
        <ele>730.5</ele>
        <time>2016-07-24T10:56:29Z</time>
      </trkpt>
      <trkpt lat="42.41511" lon="0.10125">
        <ele>730.4</ele>
        <time>2016-07-24T10:56:30Z</time>
      </trkpt>
      <trkpt lat="42.41508" lon="0.1013">
        <ele>730.1</ele>
        <time>2016-07-24T10:56:32Z</time>
      </trkpt>
      <trkpt lat="42.41507" lon="0.10133">
        <ele>730</ele>
        <time>2016-07-24T10:56:33Z</time>
      </trkpt>
      <trkpt lat="42.41506" lon="0.10138">
        <ele>729.9</ele>
        <time>2016-07-24T10:56:34Z</time>
      </trkpt>
      <trkpt lat="42.41505" lon="0.10142">
        <ele>729.9</ele>
        <time>2016-07-24T10:56:35Z</time>
      </trkpt>
      <trkpt lat="42.41504" lon="0.10146">
        <ele>729.8</ele>
        <time>2016-07-24T10:56:36Z</time>
      </trkpt>
      <trkpt lat="42.41503" lon="0.10149">
        <ele>729.8</ele>
        <time>2016-07-24T10:56:37Z</time>
      </trkpt>
      <trkpt lat="42.41501" lon="0.10153">
        <ele>729.7</ele>
        <time>2016-07-24T10:56:38Z</time>
      </trkpt>
      <trkpt lat="42.41499" lon="0.10156">
        <ele>729.6</ele>
        <time>2016-07-24T10:56:39Z</time>
      </trkpt>
      <trkpt lat="42.41497" lon="0.10159">
        <ele>729.6</ele>
        <time>2016-07-24T10:56:40Z</time>
      </trkpt>
      <trkpt lat="42.41494" lon="0.10165">
        <ele>729.6</ele>
        <time>2016-07-24T10:56:42Z</time>
      </trkpt>
      <trkpt lat="42.41493" lon="0.1017">
        <ele>729.7</ele>
        <time>2016-07-24T10:56:44Z</time>
      </trkpt>
      <trkpt lat="42.4149" lon="0.10176">
        <ele>729.8</ele>
        <time>2016-07-24T10:56:46Z</time>
      </trkpt>
      <trkpt lat="42.41489" lon="0.10182">
        <ele>729.9</ele>
        <time>2016-07-24T10:56:48Z</time>
      </trkpt>
      <trkpt lat="42.41491" lon="0.10189">
        <ele>730</ele>
        <time>2016-07-24T10:56:50Z</time>
      </trkpt>
      <trkpt lat="42.41494" lon="0.10192">
        <ele>730</ele>
        <time>2016-07-24T10:56:51Z</time>
      </trkpt>
      <trkpt lat="42.41498" lon="0.10195">
        <ele>730</ele>
        <time>2016-07-24T10:56:52Z</time>
      </trkpt>
      <trkpt lat="42.41502" lon="0.10197">
        <ele>729.9</ele>
        <time>2016-07-24T10:56:53Z</time>
      </trkpt>
      <trkpt lat="42.41506" lon="0.10198">
        <ele>729.7</ele>
        <time>2016-07-24T10:56:54Z</time>
      </trkpt>
      <trkpt lat="42.4151" lon="0.10198">
        <ele>729.6</ele>
        <time>2016-07-24T10:56:55Z</time>
      </trkpt>
      <trkpt lat="42.41515" lon="0.10197">
        <ele>729.5</ele>
        <time>2016-07-24T10:56:56Z</time>
      </trkpt>
      <trkpt lat="42.41519" lon="0.10196">
        <ele>729.4</ele>
        <time>2016-07-24T10:56:57Z</time>
      </trkpt>
      <trkpt lat="42.41522" lon="0.10197">
        <ele>729.3</ele>
        <time>2016-07-24T10:56:58Z</time>
      </trkpt>
      <trkpt lat="42.41525" lon="0.10198">
        <ele>729.2</ele>
        <time>2016-07-24T10:56:59Z</time>
      </trkpt>
      <trkpt lat="42.4153" lon="0.10202">
        <ele>728.8</ele>
        <time>2016-07-24T10:57:01Z</time>
      </trkpt>
      <trkpt lat="42.41532" lon="0.10205">
        <ele>728.6</ele>
        <time>2016-07-24T10:57:02Z</time>
      </trkpt>
      <trkpt lat="42.41536" lon="0.10206">
        <ele>728.4</ele>
        <time>2016-07-24T10:57:03Z</time>
      </trkpt>
      <trkpt lat="42.41539" lon="0.10206">
        <ele>728.2</ele>
        <time>2016-07-24T10:57:04Z</time>
      </trkpt>
      <trkpt lat="42.41543" lon="0.10206">
        <ele>728.1</ele>
        <time>2016-07-24T10:57:05Z</time>
      </trkpt>
      <trkpt lat="42.41546" lon="0.10205">
        <ele>728.2</ele>
        <time>2016-07-24T10:57:06Z</time>
      </trkpt>
      <trkpt lat="42.4155" lon="0.10203">
        <ele>728.2</ele>
        <time>2016-07-24T10:57:07Z</time>
      </trkpt>
      <trkpt lat="42.41554" lon="0.10203">
        <ele>728.2</ele>
        <time>2016-07-24T10:57:08Z</time>
      </trkpt>
      <trkpt lat="42.41557" lon="0.10202">
        <ele>728.2</ele>
        <time>2016-07-24T10:57:09Z</time>
      </trkpt>
      <trkpt lat="42.41559" lon="0.10202">
        <ele>728.2</ele>
        <time>2016-07-24T10:57:10Z</time>
      </trkpt>
      <trkpt lat="42.41562" lon="0.10202">
        <ele>728.2</ele>
        <time>2016-07-24T10:57:11Z</time>
      </trkpt>
      <trkpt lat="42.41567" lon="0.10202">
        <ele>728.1</ele>
        <time>2016-07-24T10:57:12Z</time>
      </trkpt>
      <trkpt lat="42.41571" lon="0.10204">
        <ele>727.8</ele>
        <time>2016-07-24T10:57:13Z</time>
      </trkpt>
      <trkpt lat="42.41575" lon="0.10205">
        <ele>727.6</ele>
        <time>2016-07-24T10:57:14Z</time>
      </trkpt>
      <trkpt lat="42.41579" lon="0.10205">
        <ele>727.5</ele>
        <time>2016-07-24T10:57:16Z</time>
      </trkpt>
      <trkpt lat="42.41581" lon="0.10202">
        <ele>727.9</ele>
        <time>2016-07-24T10:57:18Z</time>
      </trkpt>
      <trkpt lat="42.41586" lon="0.102">
        <ele>728.2</ele>
        <time>2016-07-24T10:57:20Z</time>
      </trkpt>
      <trkpt lat="42.4159" lon="0.10199">
        <ele>728.4</ele>
        <time>2016-07-24T10:57:21Z</time>
      </trkpt>
      <trkpt lat="42.41594" lon="0.10198">
        <ele>728.5</ele>
        <time>2016-07-24T10:57:22Z</time>
      </trkpt>
      <trkpt lat="42.41598" lon="0.10197">
        <ele>728.6</ele>
        <time>2016-07-24T10:57:23Z</time>
      </trkpt>
      <trkpt lat="42.41602" lon="0.10197">
        <ele>728.6</ele>
        <time>2016-07-24T10:57:24Z</time>
      </trkpt>
      <trkpt lat="42.41606" lon="0.10196">
        <ele>728.7</ele>
        <time>2016-07-24T10:57:25Z</time>
      </trkpt>
      <trkpt lat="42.41609" lon="0.10195">
        <ele>729</ele>
        <time>2016-07-24T10:57:26Z</time>
      </trkpt>
      <trkpt lat="42.41612" lon="0.10194">
        <ele>729.3</ele>
        <time>2016-07-24T10:57:27Z</time>
      </trkpt>
      <trkpt lat="42.41615" lon="0.10192">
        <ele>729.6</ele>
        <time>2016-07-24T10:57:28Z</time>
      </trkpt>
      <trkpt lat="42.41619" lon="0.10191">
        <ele>729.9</ele>
        <time>2016-07-24T10:57:29Z</time>
      </trkpt>
      <trkpt lat="42.41623" lon="0.1019">
        <ele>730.3</ele>
        <time>2016-07-24T10:57:30Z</time>
      </trkpt>
      <trkpt lat="42.41627" lon="0.10187">
        <ele>730.5</ele>
        <time>2016-07-24T10:57:31Z</time>
      </trkpt>
      <trkpt lat="42.41631" lon="0.10185">
        <ele>730.6</ele>
        <time>2016-07-24T10:57:32Z</time>
      </trkpt>
      <trkpt lat="42.41635" lon="0.10182">
        <ele>730.8</ele>
        <time>2016-07-24T10:57:33Z</time>
      </trkpt>
      <trkpt lat="42.41639" lon="0.10179">
        <ele>730.8</ele>
        <time>2016-07-24T10:57:34Z</time>
      </trkpt>
      <trkpt lat="42.41643" lon="0.10178">
        <ele>730.5</ele>
        <time>2016-07-24T10:57:35Z</time>
      </trkpt>
      <trkpt lat="42.41647" lon="0.10178">
        <ele>729.9</ele>
        <time>2016-07-24T10:57:36Z</time>
      </trkpt>
      <trkpt lat="42.4165" lon="0.10179">
        <ele>729.3</ele>
        <time>2016-07-24T10:57:37Z</time>
      </trkpt>
      <trkpt lat="42.41653" lon="0.10179">
        <ele>728.8</ele>
        <time>2016-07-24T10:57:38Z</time>
      </trkpt>
      <trkpt lat="42.41657" lon="0.10178">
        <ele>728.6</ele>
        <time>2016-07-24T10:57:39Z</time>
      </trkpt>
      <trkpt lat="42.4166" lon="0.10177">
        <ele>728.7</ele>
        <time>2016-07-24T10:57:40Z</time>
      </trkpt>
      <trkpt lat="42.41663" lon="0.10174">
        <ele>728.8</ele>
        <time>2016-07-24T10:57:41Z</time>
      </trkpt>
      <trkpt lat="42.41666" lon="0.10173">
        <ele>728.9</ele>
        <time>2016-07-24T10:57:42Z</time>
      </trkpt>
      <trkpt lat="42.41668" lon="0.10171">
        <ele>729</ele>
        <time>2016-07-24T10:57:43Z</time>
      </trkpt>
      <trkpt lat="42.41671" lon="0.10168">
        <ele>729.3</ele>
        <time>2016-07-24T10:57:44Z</time>
      </trkpt>
      <trkpt lat="42.41673" lon="0.10166">
        <ele>729.7</ele>
        <time>2016-07-24T10:57:45Z</time>
      </trkpt>
      <trkpt lat="42.41675" lon="0.10163">
        <ele>730.3</ele>
        <time>2016-07-24T10:57:46Z</time>
      </trkpt>
      <trkpt lat="42.41677" lon="0.1016">
        <ele>730.7</ele>
        <time>2016-07-24T10:57:47Z</time>
      </trkpt>
      <trkpt lat="42.41682" lon="0.10158">
        <ele>730.6</ele>
        <time>2016-07-24T10:57:49Z</time>
      </trkpt>
      <trkpt lat="42.41687" lon="0.1016">
        <ele>729.5</ele>
        <time>2016-07-24T10:57:51Z</time>
      </trkpt>
      <trkpt lat="42.4169" lon="0.10161">
        <ele>728.9</ele>
        <time>2016-07-24T10:57:52Z</time>
      </trkpt>
      <trkpt lat="42.41693" lon="0.10162">
        <ele>728.4</ele>
        <time>2016-07-24T10:57:53Z</time>
      </trkpt>
      <trkpt lat="42.41696" lon="0.10161">
        <ele>728</ele>
        <time>2016-07-24T10:57:54Z</time>
      </trkpt>
      <trkpt lat="42.41701" lon="0.1016">
        <ele>727.9</ele>
        <time>2016-07-24T10:57:56Z</time>
      </trkpt>
      <trkpt lat="42.41705" lon="0.10157">
        <ele>728</ele>
        <time>2016-07-24T10:57:58Z</time>
      </trkpt>
      <trkpt lat="42.41709" lon="0.10155">
        <ele>728.1</ele>
        <time>2016-07-24T10:58:00Z</time>
      </trkpt>
      <trkpt lat="42.41713" lon="0.10152">
        <ele>728.1</ele>
        <time>2016-07-24T10:58:02Z</time>
      </trkpt>
      <trkpt lat="42.41716" lon="0.1015">
        <ele>728.1</ele>
        <time>2016-07-24T10:58:04Z</time>
      </trkpt>
      <trkpt lat="42.41719" lon="0.10149">
        <ele>727.9</ele>
        <time>2016-07-24T10:58:06Z</time>
      </trkpt>
      <trkpt lat="42.41721" lon="0.10147">
        <ele>727.8</ele>
        <time>2016-07-24T10:58:08Z</time>
      </trkpt>
      <trkpt lat="42.41724" lon="0.10145">
        <ele>727.6</ele>
        <time>2016-07-24T10:58:10Z</time>
      </trkpt>
      <trkpt lat="42.41727" lon="0.10143">
        <ele>727.7</ele>
        <time>2016-07-24T10:58:12Z</time>
      </trkpt>
      <trkpt lat="42.4173" lon="0.1014">
        <ele>727.9</ele>
        <time>2016-07-24T10:58:14Z</time>
      </trkpt>
      <trkpt lat="42.41733" lon="0.10136">
        <ele>728.2</ele>
        <time>2016-07-24T10:58:16Z</time>
      </trkpt>
      <trkpt lat="42.41736" lon="0.10132">
        <ele>728.8</ele>
        <time>2016-07-24T10:58:18Z</time>
      </trkpt>
      <trkpt lat="42.41738" lon="0.10129">
        <ele>729.2</ele>
        <time>2016-07-24T10:58:19Z</time>
      </trkpt>
      <trkpt lat="42.4174" lon="0.10126">
        <ele>729.4</ele>
        <time>2016-07-24T10:58:20Z</time>
      </trkpt>
      <trkpt lat="42.41743" lon="0.10124">
        <ele>729.6</ele>
        <time>2016-07-24T10:58:21Z</time>
      </trkpt>
      <trkpt lat="42.41745" lon="0.10121">
        <ele>729.7</ele>
        <time>2016-07-24T10:58:22Z</time>
      </trkpt>
      <trkpt lat="42.41747" lon="0.10118">
        <ele>729.9</ele>
        <time>2016-07-24T10:58:23Z</time>
      </trkpt>
      <trkpt lat="42.4175" lon="0.10115">
        <ele>730.2</ele>
        <time>2016-07-24T10:58:24Z</time>
      </trkpt>
      <trkpt lat="42.41753" lon="0.10111">
        <ele>730.3</ele>
        <time>2016-07-24T10:58:25Z</time>
      </trkpt>
      <trkpt lat="42.41756" lon="0.10107">
        <ele>730.5</ele>
        <time>2016-07-24T10:58:26Z</time>
      </trkpt>
      <trkpt lat="42.41759" lon="0.10104">
        <ele>730.6</ele>
        <time>2016-07-24T10:58:27Z</time>
      </trkpt>
      <trkpt lat="42.41762" lon="0.101">
        <ele>730.9</ele>
        <time>2016-07-24T10:58:28Z</time>
      </trkpt>
      <trkpt lat="42.41764" lon="0.10096">
        <ele>731.3</ele>
        <time>2016-07-24T10:58:29Z</time>
      </trkpt>
      <trkpt lat="42.41766" lon="0.10092">
        <ele>731.6</ele>
        <time>2016-07-24T10:58:30Z</time>
      </trkpt>
      <trkpt lat="42.41769" lon="0.10088">
        <ele>731.9</ele>
        <time>2016-07-24T10:58:31Z</time>
      </trkpt>
      <trkpt lat="42.41771" lon="0.10084">
        <ele>732.2</ele>
        <time>2016-07-24T10:58:32Z</time>
      </trkpt>
      <trkpt lat="42.41773" lon="0.10081">
        <ele>732.5</ele>
        <time>2016-07-24T10:58:33Z</time>
      </trkpt>
      <trkpt lat="42.41775" lon="0.10075">
        <ele>733.1</ele>
        <time>2016-07-24T10:58:34Z</time>
      </trkpt>
      <trkpt lat="42.41777" lon="0.10069">
        <ele>733.7</ele>
        <time>2016-07-24T10:58:35Z</time>
      </trkpt>
      <trkpt lat="42.4178" lon="0.10063">
        <ele>734.2</ele>
        <time>2016-07-24T10:58:36Z</time>
      </trkpt>
      <trkpt lat="42.41782" lon="0.10057">
        <ele>734.9</ele>
        <time>2016-07-24T10:58:37Z</time>
      </trkpt>
      <trkpt lat="42.41785" lon="0.1005">
        <ele>735.5</ele>
        <time>2016-07-24T10:58:38Z</time>
      </trkpt>
      <trkpt lat="42.41787" lon="0.10043">
        <ele>736.2</ele>
        <time>2016-07-24T10:58:39Z</time>
      </trkpt>
      <trkpt lat="42.4179" lon="0.10036">
        <ele>736.4</ele>
        <time>2016-07-24T10:58:40Z</time>
      </trkpt>
      <trkpt lat="42.41792" lon="0.1003">
        <ele>736.5</ele>
        <time>2016-07-24T10:58:41Z</time>
      </trkpt>
      <trkpt lat="42.41794" lon="0.10023">
        <ele>736.6</ele>
        <time>2016-07-24T10:58:42Z</time>
      </trkpt>
      <trkpt lat="42.41797" lon="0.10017">
        <ele>736.4</ele>
        <time>2016-07-24T10:58:43Z</time>
      </trkpt>
      <trkpt lat="42.41799" lon="0.10011">
        <ele>736</ele>
        <time>2016-07-24T10:58:44Z</time>
      </trkpt>
      <trkpt lat="42.41802" lon="0.10006">
        <ele>735.6</ele>
        <time>2016-07-24T10:58:45Z</time>
      </trkpt>
      <trkpt lat="42.41804" lon="0.09999">
        <ele>735.2</ele>
        <time>2016-07-24T10:58:46Z</time>
      </trkpt>
      <trkpt lat="42.41807" lon="0.09993">
        <ele>735</ele>
        <time>2016-07-24T10:58:47Z</time>
      </trkpt>
      <trkpt lat="42.41809" lon="0.09987">
        <ele>734.9</ele>
        <time>2016-07-24T10:58:48Z</time>
      </trkpt>
      <trkpt lat="42.41811" lon="0.09981">
        <ele>734.8</ele>
        <time>2016-07-24T10:58:49Z</time>
      </trkpt>
      <trkpt lat="42.41813" lon="0.09974">
        <ele>734.6</ele>
        <time>2016-07-24T10:58:50Z</time>
      </trkpt>
      <trkpt lat="42.41815" lon="0.09968">
        <ele>734.3</ele>
        <time>2016-07-24T10:58:51Z</time>
      </trkpt>
      <trkpt lat="42.41817" lon="0.09964">
        <ele>734.1</ele>
        <time>2016-07-24T10:58:52Z</time>
      </trkpt>
      <trkpt lat="42.41818" lon="0.0996">
        <ele>733.7</ele>
        <time>2016-07-24T10:58:54Z</time>
      </trkpt>
      <trkpt lat="42.41821" lon="0.09958">
        <ele>732.6</ele>
        <time>2016-07-24T10:58:57Z</time>
      </trkpt>
      <trkpt lat="42.4182" lon="0.09962">
        <ele>732.3</ele>
        <time>2016-07-24T10:59:04Z</time>
      </trkpt>
      <trkpt lat="42.41819" lon="0.09966">
        <ele>732.8</ele>
        <time>2016-07-24T10:59:16Z</time>
      </trkpt>
      <trkpt lat="42.41817" lon="0.09969">
        <ele>732.9</ele>
        <time>2016-07-24T10:59:18Z</time>
      </trkpt>
      <trkpt lat="42.41816" lon="0.09976">
        <ele>732.5</ele>
        <time>2016-07-24T10:59:20Z</time>
      </trkpt>
      <trkpt lat="42.41816" lon="0.0998">
        <ele>732.2</ele>
        <time>2016-07-24T10:59:21Z</time>
      </trkpt>
      <trkpt lat="42.41815" lon="0.09984">
        <ele>731.9</ele>
        <time>2016-07-24T10:59:22Z</time>
      </trkpt>
      <trkpt lat="42.41815" lon="0.09987">
        <ele>731.7</ele>
        <time>2016-07-24T10:59:23Z</time>
      </trkpt>
      <trkpt lat="42.41814" lon="0.09991">
        <ele>731.6</ele>
        <time>2016-07-24T10:59:24Z</time>
      </trkpt>
      <trkpt lat="42.41813" lon="0.09995">
        <ele>731.4</ele>
        <time>2016-07-24T10:59:25Z</time>
      </trkpt>
      <trkpt lat="42.41812" lon="0.09999">
        <ele>731.1</ele>
        <time>2016-07-24T10:59:26Z</time>
      </trkpt>
      <trkpt lat="42.41812" lon="0.10004">
        <ele>730.7</ele>
        <time>2016-07-24T10:59:27Z</time>
      </trkpt>
      <trkpt lat="42.41811" lon="0.10009">
        <ele>730.2</ele>
        <time>2016-07-24T10:59:28Z</time>
      </trkpt>
      <trkpt lat="42.4181" lon="0.10015">
        <ele>729.9</ele>
        <time>2016-07-24T10:59:29Z</time>
      </trkpt>
      <trkpt lat="42.41809" lon="0.10021">
        <ele>729.8</ele>
        <time>2016-07-24T10:59:30Z</time>
      </trkpt>
      <trkpt lat="42.41808" lon="0.10026">
        <ele>729.7</ele>
        <time>2016-07-24T10:59:31Z</time>
      </trkpt>
      <trkpt lat="42.41807" lon="0.10029">
        <ele>729.5</ele>
        <time>2016-07-24T10:59:32Z</time>
      </trkpt>
      <trkpt lat="42.41806" lon="0.10034">
        <ele>729.4</ele>
        <time>2016-07-24T10:59:34Z</time>
      </trkpt>
      <trkpt lat="42.41805" lon="0.10039">
        <ele>729.2</ele>
        <time>2016-07-24T10:59:36Z</time>
      </trkpt>
      <trkpt lat="42.41804" lon="0.10043">
        <ele>729</ele>
        <time>2016-07-24T10:59:37Z</time>
      </trkpt>
      <trkpt lat="42.41802" lon="0.10048">
        <ele>728.7</ele>
        <time>2016-07-24T10:59:38Z</time>
      </trkpt>
      <trkpt lat="42.418" lon="0.10053">
        <ele>728.7</ele>
        <time>2016-07-24T10:59:39Z</time>
      </trkpt>
      <trkpt lat="42.41798" lon="0.10058">
        <ele>728.5</ele>
        <time>2016-07-24T10:59:40Z</time>
      </trkpt>
      <trkpt lat="42.41797" lon="0.10064">
        <ele>728.1</ele>
        <time>2016-07-24T10:59:41Z</time>
      </trkpt>
      <trkpt lat="42.41796" lon="0.1007">
        <ele>727.4</ele>
        <time>2016-07-24T10:59:42Z</time>
      </trkpt>
      <trkpt lat="42.41795" lon="0.10076">
        <ele>726.4</ele>
        <time>2016-07-24T10:59:43Z</time>
      </trkpt>
      <trkpt lat="42.41796" lon="0.10081">
        <ele>725.2</ele>
        <time>2016-07-24T10:59:44Z</time>
      </trkpt>
      <trkpt lat="42.41795" lon="0.10087">
        <ele>724.1</ele>
        <time>2016-07-24T10:59:45Z</time>
      </trkpt>
      <trkpt lat="42.41795" lon="0.10093">
        <ele>723</ele>
        <time>2016-07-24T10:59:46Z</time>
      </trkpt>
      <trkpt lat="42.41794" lon="0.101">
        <ele>722.2</ele>
        <time>2016-07-24T10:59:47Z</time>
      </trkpt>
      <trkpt lat="42.41792" lon="0.10107">
        <ele>721.6</ele>
        <time>2016-07-24T10:59:48Z</time>
      </trkpt>
      <trkpt lat="42.4179" lon="0.10113">
        <ele>720.9</ele>
        <time>2016-07-24T10:59:49Z</time>
      </trkpt>
      <trkpt lat="42.41787" lon="0.10118">
        <ele>720.4</ele>
        <time>2016-07-24T10:59:50Z</time>
      </trkpt>
      <trkpt lat="42.41785" lon="0.10123">
        <ele>720</ele>
        <time>2016-07-24T10:59:51Z</time>
      </trkpt>
      <trkpt lat="42.41782" lon="0.10128">
        <ele>719.4</ele>
        <time>2016-07-24T10:59:52Z</time>
      </trkpt>
      <trkpt lat="42.41779" lon="0.10133">
        <ele>718.7</ele>
        <time>2016-07-24T10:59:53Z</time>
      </trkpt>
      <trkpt lat="42.41777" lon="0.10138">
        <ele>717.9</ele>
        <time>2016-07-24T10:59:54Z</time>
      </trkpt>
      <trkpt lat="42.41774" lon="0.10143">
        <ele>717.2</ele>
        <time>2016-07-24T10:59:55Z</time>
      </trkpt>
      <trkpt lat="42.41771" lon="0.10148">
        <ele>716.5</ele>
        <time>2016-07-24T10:59:56Z</time>
      </trkpt>
      <trkpt lat="42.41768" lon="0.10153">
        <ele>715.9</ele>
        <time>2016-07-24T10:59:57Z</time>
      </trkpt>
      <trkpt lat="42.41765" lon="0.10158">
        <ele>715.2</ele>
        <time>2016-07-24T10:59:58Z</time>
      </trkpt>
      <trkpt lat="42.41763" lon="0.10163">
        <ele>714.3</ele>
        <time>2016-07-24T10:59:59Z</time>
      </trkpt>
      <trkpt lat="42.41761" lon="0.10168">
        <ele>713.4</ele>
        <time>2016-07-24T11:00:00Z</time>
      </trkpt>
      <trkpt lat="42.41759" lon="0.10172">
        <ele>712.5</ele>
        <time>2016-07-24T11:00:01Z</time>
      </trkpt>
      <trkpt lat="42.41757" lon="0.10176">
        <ele>711.9</ele>
        <time>2016-07-24T11:00:02Z</time>
      </trkpt>
      <trkpt lat="42.41755" lon="0.1018">
        <ele>711.4</ele>
        <time>2016-07-24T11:00:04Z</time>
      </trkpt>
      <trkpt lat="42.41753" lon="0.10185">
        <ele>710.5</ele>
        <time>2016-07-24T11:00:07Z</time>
      </trkpt>
      <trkpt lat="42.41751" lon="0.10188">
        <ele>710.1</ele>
        <time>2016-07-24T11:00:13Z</time>
      </trkpt>
      <trkpt lat="42.41748" lon="0.1019">
        <ele>710.1</ele>
        <time>2016-07-24T11:00:17Z</time>
      </trkpt>
      <trkpt lat="42.41744" lon="0.10191">
        <ele>710.5</ele>
        <time>2016-07-24T11:00:21Z</time>
      </trkpt>
      <trkpt lat="42.41741" lon="0.10193">
        <ele>710.7</ele>
        <time>2016-07-24T11:00:23Z</time>
      </trkpt>
      <trkpt lat="42.41737" lon="0.10197">
        <ele>710.4</ele>
        <time>2016-07-24T11:00:25Z</time>
      </trkpt>
      <trkpt lat="42.41735" lon="0.10199">
        <ele>710.2</ele>
        <time>2016-07-24T11:00:26Z</time>
      </trkpt>
      <trkpt lat="42.41733" lon="0.10201">
        <ele>710.1</ele>
        <time>2016-07-24T11:00:27Z</time>
      </trkpt>
      <trkpt lat="42.4173" lon="0.10203">
        <ele>710</ele>
        <time>2016-07-24T11:00:28Z</time>
      </trkpt>
      <trkpt lat="42.41726" lon="0.10206">
        <ele>710</ele>
        <time>2016-07-24T11:00:30Z</time>
      </trkpt>
      <trkpt lat="42.41723" lon="0.10208">
        <ele>709.9</ele>
        <time>2016-07-24T11:00:32Z</time>
      </trkpt>
      <trkpt lat="42.41719" lon="0.1021">
        <ele>710.6</ele>
        <time>2016-07-24T11:00:34Z</time>
      </trkpt>
      <trkpt lat="42.41714" lon="0.10212">
        <ele>711.4</ele>
        <time>2016-07-24T11:00:36Z</time>
      </trkpt>
      <trkpt lat="42.41711" lon="0.10213">
        <ele>711.9</ele>
        <time>2016-07-24T11:00:37Z</time>
      </trkpt>
      <trkpt lat="42.41707" lon="0.10215">
        <ele>712.4</ele>
        <time>2016-07-24T11:00:39Z</time>
      </trkpt>
      <trkpt lat="42.41703" lon="0.10217">
        <ele>712.7</ele>
        <time>2016-07-24T11:00:41Z</time>
      </trkpt>
      <trkpt lat="42.417" lon="0.1022">
        <ele>712.9</ele>
        <time>2016-07-24T11:00:44Z</time>
      </trkpt>
      <trkpt lat="42.41698" lon="0.10223">
        <ele>712.8</ele>
        <time>2016-07-24T11:00:46Z</time>
      </trkpt>
      <trkpt lat="42.41698" lon="0.10227">
        <ele>712.3</ele>
        <time>2016-07-24T11:00:48Z</time>
      </trkpt>
      <trkpt lat="42.417" lon="0.10233">
        <ele>711.1</ele>
        <time>2016-07-24T11:00:50Z</time>
      </trkpt>
      <trkpt lat="42.41702" lon="0.10239">
        <ele>710.2</ele>
        <time>2016-07-24T11:00:52Z</time>
      </trkpt>
      <trkpt lat="42.41704" lon="0.10243">
        <ele>709.6</ele>
        <time>2016-07-24T11:00:54Z</time>
      </trkpt>
      <trkpt lat="42.41705" lon="0.10248">
        <ele>708.6</ele>
        <time>2016-07-24T11:00:56Z</time>
      </trkpt>
      <trkpt lat="42.41707" lon="0.10255">
        <ele>707.7</ele>
        <time>2016-07-24T11:00:58Z</time>
      </trkpt>
      <trkpt lat="42.41707" lon="0.1026">
        <ele>707</ele>
        <time>2016-07-24T11:01:00Z</time>
      </trkpt>
      <trkpt lat="42.41708" lon="0.10265">
        <ele>706.3</ele>
        <time>2016-07-24T11:01:02Z</time>
      </trkpt>
      <trkpt lat="42.41709" lon="0.10271">
        <ele>705.4</ele>
        <time>2016-07-24T11:01:04Z</time>
      </trkpt>
      <trkpt lat="42.4171" lon="0.10277">
        <ele>704.4</ele>
        <time>2016-07-24T11:01:06Z</time>
      </trkpt>
      <trkpt lat="42.4171" lon="0.10282">
        <ele>703.7</ele>
        <time>2016-07-24T11:01:08Z</time>
      </trkpt>
      <trkpt lat="42.4171" lon="0.10287">
        <ele>702.9</ele>
        <time>2016-07-24T11:01:10Z</time>
      </trkpt>
      <trkpt lat="42.41711" lon="0.10292">
        <ele>702</ele>
        <time>2016-07-24T11:01:12Z</time>
      </trkpt>
      <trkpt lat="42.41711" lon="0.10296">
        <ele>701.5</ele>
        <time>2016-07-24T11:01:14Z</time>
      </trkpt>
      <trkpt lat="42.4171" lon="0.10303">
        <ele>701.2</ele>
        <time>2016-07-24T11:01:19Z</time>
      </trkpt>
      <trkpt lat="42.41709" lon="0.10307">
        <ele>700.9</ele>
        <time>2016-07-24T11:01:20Z</time>
      </trkpt>
      <trkpt lat="42.41709" lon="0.10311">
        <ele>700.7</ele>
        <time>2016-07-24T11:01:21Z</time>
      </trkpt>
      <trkpt lat="42.41708" lon="0.10318">
        <ele>700.3</ele>
        <time>2016-07-24T11:01:23Z</time>
      </trkpt>
      <trkpt lat="42.41707" lon="0.10324">
        <ele>699.7</ele>
        <time>2016-07-24T11:01:25Z</time>
      </trkpt>
      <trkpt lat="42.41707" lon="0.10328">
        <ele>699.4</ele>
        <time>2016-07-24T11:01:26Z</time>
      </trkpt>
      <trkpt lat="42.41706" lon="0.10332">
        <ele>699</ele>
        <time>2016-07-24T11:01:27Z</time>
      </trkpt>
      <trkpt lat="42.41706" lon="0.10336">
        <ele>698.7</ele>
        <time>2016-07-24T11:01:28Z</time>
      </trkpt>
      <trkpt lat="42.41705" lon="0.10341">
        <ele>698.4</ele>
        <time>2016-07-24T11:01:29Z</time>
      </trkpt>
      <trkpt lat="42.41704" lon="0.10345">
        <ele>698.2</ele>
        <time>2016-07-24T11:01:30Z</time>
      </trkpt>
      <trkpt lat="42.41702" lon="0.10348">
        <ele>698.2</ele>
        <time>2016-07-24T11:01:31Z</time>
      </trkpt>
      <trkpt lat="42.417" lon="0.10352">
        <ele>698.1</ele>
        <time>2016-07-24T11:01:32Z</time>
      </trkpt>
      <trkpt lat="42.41699" lon="0.10356">
        <ele>698</ele>
        <time>2016-07-24T11:01:33Z</time>
      </trkpt>
      <trkpt lat="42.41698" lon="0.1036">
        <ele>697.8</ele>
        <time>2016-07-24T11:01:34Z</time>
      </trkpt>
      <trkpt lat="42.41698" lon="0.10365">
        <ele>697.5</ele>
        <time>2016-07-24T11:01:35Z</time>
      </trkpt>
      <trkpt lat="42.41698" lon="0.1037">
        <ele>697</ele>
        <time>2016-07-24T11:01:36Z</time>
      </trkpt>
      <trkpt lat="42.41697" lon="0.10375">
        <ele>696.7</ele>
        <time>2016-07-24T11:01:37Z</time>
      </trkpt>
      <trkpt lat="42.41696" lon="0.1038">
        <ele>695.9</ele>
        <time>2016-07-24T11:01:38Z</time>
      </trkpt>
      <trkpt lat="42.41695" lon="0.10385">
        <ele>695.2</ele>
        <time>2016-07-24T11:01:39Z</time>
      </trkpt>
      <trkpt lat="42.41694" lon="0.10389">
        <ele>694.7</ele>
        <time>2016-07-24T11:01:40Z</time>
      </trkpt>
      <trkpt lat="42.41693" lon="0.10393">
        <ele>694.2</ele>
        <time>2016-07-24T11:01:41Z</time>
      </trkpt>
      <trkpt lat="42.41692" lon="0.10396">
        <ele>693.8</ele>
        <time>2016-07-24T11:01:42Z</time>
      </trkpt>
      <trkpt lat="42.41691" lon="0.10401">
        <ele>693.1</ele>
        <time>2016-07-24T11:01:43Z</time>
      </trkpt>
      <trkpt lat="42.4169" lon="0.10406">
        <ele>692.4</ele>
        <time>2016-07-24T11:01:44Z</time>
      </trkpt>
      <trkpt lat="42.41689" lon="0.10411">
        <ele>691.9</ele>
        <time>2016-07-24T11:01:45Z</time>
      </trkpt>
      <trkpt lat="42.41687" lon="0.10415">
        <ele>691.6</ele>
        <time>2016-07-24T11:01:46Z</time>
      </trkpt>
      <trkpt lat="42.41685" lon="0.10419">
        <ele>691.5</ele>
        <time>2016-07-24T11:01:47Z</time>
      </trkpt>
      <trkpt lat="42.41683" lon="0.10422">
        <ele>691.4</ele>
        <time>2016-07-24T11:01:48Z</time>
      </trkpt>
      <trkpt lat="42.41682" lon="0.10426">
        <ele>691.2</ele>
        <time>2016-07-24T11:01:49Z</time>
      </trkpt>
      <trkpt lat="42.41681" lon="0.10431">
        <ele>690.6</ele>
        <time>2016-07-24T11:01:50Z</time>
      </trkpt>
      <trkpt lat="42.41681" lon="0.10437">
        <ele>689.8</ele>
        <time>2016-07-24T11:01:51Z</time>
      </trkpt>
      <trkpt lat="42.4168" lon="0.10442">
        <ele>689.1</ele>
        <time>2016-07-24T11:01:52Z</time>
      </trkpt>
      <trkpt lat="42.41679" lon="0.10446">
        <ele>688.8</ele>
        <time>2016-07-24T11:01:53Z</time>
      </trkpt>
      <trkpt lat="42.41678" lon="0.1045">
        <ele>688.7</ele>
        <time>2016-07-24T11:01:54Z</time>
      </trkpt>
      <trkpt lat="42.41676" lon="0.10454">
        <ele>688.6</ele>
        <time>2016-07-24T11:01:55Z</time>
      </trkpt>
      <trkpt lat="42.41674" lon="0.10459">
        <ele>688.4</ele>
        <time>2016-07-24T11:01:56Z</time>
      </trkpt>
      <trkpt lat="42.41672" lon="0.10464">
        <ele>688</ele>
        <time>2016-07-24T11:01:57Z</time>
      </trkpt>
      <trkpt lat="42.4167" lon="0.10469">
        <ele>687.7</ele>
        <time>2016-07-24T11:01:58Z</time>
      </trkpt>
      <trkpt lat="42.41668" lon="0.10473">
        <ele>687.6</ele>
        <time>2016-07-24T11:01:59Z</time>
      </trkpt>
      <trkpt lat="42.41666" lon="0.10476">
        <ele>687.7</ele>
        <time>2016-07-24T11:02:00Z</time>
      </trkpt>
      <trkpt lat="42.41665" lon="0.1048">
        <ele>687.4</ele>
        <time>2016-07-24T11:02:01Z</time>
      </trkpt>
      <trkpt lat="42.41664" lon="0.10485">
        <ele>686.9</ele>
        <time>2016-07-24T11:02:02Z</time>
      </trkpt>
      <trkpt lat="42.41663" lon="0.10491">
        <ele>686</ele>
        <time>2016-07-24T11:02:03Z</time>
      </trkpt>
      <trkpt lat="42.41661" lon="0.10497">
        <ele>685.1</ele>
        <time>2016-07-24T11:02:04Z</time>
      </trkpt>
      <trkpt lat="42.4166" lon="0.10503">
        <ele>684.4</ele>
        <time>2016-07-24T11:02:05Z</time>
      </trkpt>
      <trkpt lat="42.41659" lon="0.10508">
        <ele>683.9</ele>
        <time>2016-07-24T11:02:06Z</time>
      </trkpt>
      <trkpt lat="42.41657" lon="0.10513">
        <ele>683.4</ele>
        <time>2016-07-24T11:02:07Z</time>
      </trkpt>
      <trkpt lat="42.41656" lon="0.10517">
        <ele>683</ele>
        <time>2016-07-24T11:02:08Z</time>
      </trkpt>
      <trkpt lat="42.41655" lon="0.10523">
        <ele>682.6</ele>
        <time>2016-07-24T11:02:09Z</time>
      </trkpt>
      <trkpt lat="42.41653" lon="0.10528">
        <ele>682.2</ele>
        <time>2016-07-24T11:02:10Z</time>
      </trkpt>
      <trkpt lat="42.41651" lon="0.10533">
        <ele>681.8</ele>
        <time>2016-07-24T11:02:11Z</time>
      </trkpt>
      <trkpt lat="42.4165" lon="0.10538">
        <ele>681.4</ele>
        <time>2016-07-24T11:02:12Z</time>
      </trkpt>
      <trkpt lat="42.41649" lon="0.10544">
        <ele>680.7</ele>
        <time>2016-07-24T11:02:13Z</time>
      </trkpt>
      <trkpt lat="42.41648" lon="0.10549">
        <ele>679.7</ele>
        <time>2016-07-24T11:02:14Z</time>
      </trkpt>
      <trkpt lat="42.41648" lon="0.10555">
        <ele>678.5</ele>
        <time>2016-07-24T11:02:15Z</time>
      </trkpt>
      <trkpt lat="42.41647" lon="0.10562">
        <ele>677.4</ele>
        <time>2016-07-24T11:02:16Z</time>
      </trkpt>
      <trkpt lat="42.41646" lon="0.10568">
        <ele>676.6</ele>
        <time>2016-07-24T11:02:17Z</time>
      </trkpt>
      <trkpt lat="42.41644" lon="0.10575">
        <ele>676.1</ele>
        <time>2016-07-24T11:02:18Z</time>
      </trkpt>
      <trkpt lat="42.41641" lon="0.1058">
        <ele>675.8</ele>
        <time>2016-07-24T11:02:19Z</time>
      </trkpt>
      <trkpt lat="42.4164" lon="0.10585">
        <ele>675.5</ele>
        <time>2016-07-24T11:02:20Z</time>
      </trkpt>
      <trkpt lat="42.41638" lon="0.10589">
        <ele>675.1</ele>
        <time>2016-07-24T11:02:21Z</time>
      </trkpt>
      <trkpt lat="42.41637" lon="0.10594">
        <ele>674.5</ele>
        <time>2016-07-24T11:02:22Z</time>
      </trkpt>
      <trkpt lat="42.41635" lon="0.106">
        <ele>673.8</ele>
        <time>2016-07-24T11:02:23Z</time>
      </trkpt>
      <trkpt lat="42.41633" lon="0.10607">
        <ele>673.1</ele>
        <time>2016-07-24T11:02:24Z</time>
      </trkpt>
      <trkpt lat="42.41631" lon="0.10614">
        <ele>672.3</ele>
        <time>2016-07-24T11:02:25Z</time>
      </trkpt>
      <trkpt lat="42.41629" lon="0.1062">
        <ele>671.7</ele>
        <time>2016-07-24T11:02:26Z</time>
      </trkpt>
      <trkpt lat="42.41628" lon="0.10625">
        <ele>671</ele>
        <time>2016-07-24T11:02:27Z</time>
      </trkpt>
      <trkpt lat="42.41627" lon="0.1063">
        <ele>670</ele>
        <time>2016-07-24T11:02:28Z</time>
      </trkpt>
      <trkpt lat="42.41627" lon="0.10635">
        <ele>668.9</ele>
        <time>2016-07-24T11:02:29Z</time>
      </trkpt>
      <trkpt lat="42.41627" lon="0.10639">
        <ele>668</ele>
        <time>2016-07-24T11:02:30Z</time>
      </trkpt>
      <trkpt lat="42.41626" lon="0.10643">
        <ele>667.1</ele>
        <time>2016-07-24T11:02:31Z</time>
      </trkpt>
      <trkpt lat="42.41626" lon="0.10648">
        <ele>666</ele>
        <time>2016-07-24T11:02:32Z</time>
      </trkpt>
      <trkpt lat="42.41625" lon="0.10652">
        <ele>665.1</ele>
        <time>2016-07-24T11:02:33Z</time>
      </trkpt>
      <trkpt lat="42.41624" lon="0.10657">
        <ele>664.6</ele>
        <time>2016-07-24T11:02:34Z</time>
      </trkpt>
      <trkpt lat="42.41621" lon="0.10661">
        <ele>664.5</ele>
        <time>2016-07-24T11:02:35Z</time>
      </trkpt>
      <trkpt lat="42.41619" lon="0.10665">
        <ele>664.3</ele>
        <time>2016-07-24T11:02:36Z</time>
      </trkpt>
      <trkpt lat="42.41617" lon="0.1067">
        <ele>663.8</ele>
        <time>2016-07-24T11:02:37Z</time>
      </trkpt>
      <trkpt lat="42.41615" lon="0.10676">
        <ele>662.9</ele>
        <time>2016-07-24T11:02:38Z</time>
      </trkpt>
      <trkpt lat="42.41614" lon="0.10681">
        <ele>661.9</ele>
        <time>2016-07-24T11:02:39Z</time>
      </trkpt>
      <trkpt lat="42.41613" lon="0.10686">
        <ele>661.1</ele>
        <time>2016-07-24T11:02:40Z</time>
      </trkpt>
      <trkpt lat="42.41612" lon="0.1069">
        <ele>660.3</ele>
        <time>2016-07-24T11:02:41Z</time>
      </trkpt>
      <trkpt lat="42.41611" lon="0.10695">
        <ele>659.1</ele>
        <time>2016-07-24T11:02:42Z</time>
      </trkpt>
      <trkpt lat="42.41611" lon="0.10701">
        <ele>657.7</ele>
        <time>2016-07-24T11:02:43Z</time>
      </trkpt>
      <trkpt lat="42.41611" lon="0.10706">
        <ele>656.5</ele>
        <time>2016-07-24T11:02:44Z</time>
      </trkpt>
      <trkpt lat="42.4161" lon="0.1071">
        <ele>655.7</ele>
        <time>2016-07-24T11:02:45Z</time>
      </trkpt>
      <trkpt lat="42.41607" lon="0.10714">
        <ele>655.2</ele>
        <time>2016-07-24T11:02:46Z</time>
      </trkpt>
      <trkpt lat="42.41604" lon="0.10719">
        <ele>654.7</ele>
        <time>2016-07-24T11:02:47Z</time>
      </trkpt>
      <trkpt lat="42.41602" lon="0.10725">
        <ele>653.9</ele>
        <time>2016-07-24T11:02:48Z</time>
      </trkpt>
      <trkpt lat="42.416" lon="0.10731">
        <ele>652.6</ele>
        <time>2016-07-24T11:02:49Z</time>
      </trkpt>
      <trkpt lat="42.41598" lon="0.10736">
        <ele>651.4</ele>
        <time>2016-07-24T11:02:50Z</time>
      </trkpt>
      <trkpt lat="42.41597" lon="0.10741">
        <ele>650.4</ele>
        <time>2016-07-24T11:02:51Z</time>
      </trkpt>
      <trkpt lat="42.41595" lon="0.10745">
        <ele>649.4</ele>
        <time>2016-07-24T11:02:52Z</time>
      </trkpt>
      <trkpt lat="42.41593" lon="0.1075">
        <ele>648.4</ele>
        <time>2016-07-24T11:02:53Z</time>
      </trkpt>
      <trkpt lat="42.4159" lon="0.10755">
        <ele>647.6</ele>
        <time>2016-07-24T11:02:54Z</time>
      </trkpt>
      <trkpt lat="42.41587" lon="0.1076">
        <ele>646.9</ele>
        <time>2016-07-24T11:02:55Z</time>
      </trkpt>
      <trkpt lat="42.41583" lon="0.10766">
        <ele>646</ele>
        <time>2016-07-24T11:02:56Z</time>
      </trkpt>
      <trkpt lat="42.41579" lon="0.10772">
        <ele>645</ele>
        <time>2016-07-24T11:02:57Z</time>
      </trkpt>
      <trkpt lat="42.41576" lon="0.10779">
        <ele>643.6</ele>
        <time>2016-07-24T11:02:58Z</time>
      </trkpt>
      <trkpt lat="42.41573" lon="0.10785">
        <ele>642.1</ele>
        <time>2016-07-24T11:02:59Z</time>
      </trkpt>
      <trkpt lat="42.4157" lon="0.10792">
        <ele>640.7</ele>
        <time>2016-07-24T11:03:00Z</time>
      </trkpt>
      <trkpt lat="42.41566" lon="0.10798">
        <ele>639.9</ele>
        <time>2016-07-24T11:03:01Z</time>
      </trkpt>
      <trkpt lat="42.41563" lon="0.10803">
        <ele>639.3</ele>
        <time>2016-07-24T11:03:02Z</time>
      </trkpt>
      <trkpt lat="42.41558" lon="0.10807">
        <ele>638.9</ele>
        <time>2016-07-24T11:03:03Z</time>
      </trkpt>
      <trkpt lat="42.41554" lon="0.10811">
        <ele>638.7</ele>
        <time>2016-07-24T11:03:04Z</time>
      </trkpt>
      <trkpt lat="42.4155" lon="0.10813">
        <ele>638.7</ele>
        <time>2016-07-24T11:03:05Z</time>
      </trkpt>
      <trkpt lat="42.41547" lon="0.10815">
        <ele>638.8</ele>
        <time>2016-07-24T11:03:06Z</time>
      </trkpt>
      <trkpt lat="42.41544" lon="0.10816">
        <ele>639.2</ele>
        <time>2016-07-24T11:03:07Z</time>
      </trkpt>
      <trkpt lat="42.41541" lon="0.10816">
        <ele>639.6</ele>
        <time>2016-07-24T11:03:08Z</time>
      </trkpt>
      <trkpt lat="42.41538" lon="0.10816">
        <ele>639.6</ele>
        <time>2016-07-24T11:03:09Z</time>
      </trkpt>
      <trkpt lat="42.41535" lon="0.10817">
        <ele>639.5</ele>
        <time>2016-07-24T11:03:10Z</time>
      </trkpt>
      <trkpt lat="42.41532" lon="0.10819">
        <ele>639.2</ele>
        <time>2016-07-24T11:03:11Z</time>
      </trkpt>
      <trkpt lat="42.4153" lon="0.10821">
        <ele>638.7</ele>
        <time>2016-07-24T11:03:12Z</time>
      </trkpt>
      <trkpt lat="42.41528" lon="0.10825">
        <ele>637.9</ele>
        <time>2016-07-24T11:03:13Z</time>
      </trkpt>
      <trkpt lat="42.41526" lon="0.10829">
        <ele>636.8</ele>
        <time>2016-07-24T11:03:14Z</time>
      </trkpt>
      <trkpt lat="42.41523" lon="0.10833">
        <ele>635.6</ele>
        <time>2016-07-24T11:03:15Z</time>
      </trkpt>
      <trkpt lat="42.4152" lon="0.10837">
        <ele>634.8</ele>
        <time>2016-07-24T11:03:16Z</time>
      </trkpt>
      <trkpt lat="42.41517" lon="0.1084">
        <ele>634.1</ele>
        <time>2016-07-24T11:03:17Z</time>
      </trkpt>
      <trkpt lat="42.41515" lon="0.10843">
        <ele>633.3</ele>
        <time>2016-07-24T11:03:18Z</time>
      </trkpt>
      <trkpt lat="42.41512" lon="0.10846">
        <ele>632.6</ele>
        <time>2016-07-24T11:03:19Z</time>
      </trkpt>
      <trkpt lat="42.4151" lon="0.10848">
        <ele>632</ele>
        <time>2016-07-24T11:03:20Z</time>
      </trkpt>
      <trkpt lat="42.41507" lon="0.1085">
        <ele>631.7</ele>
        <time>2016-07-24T11:03:21Z</time>
      </trkpt>
      <trkpt lat="42.41504" lon="0.1085">
        <ele>631.9</ele>
        <time>2016-07-24T11:03:22Z</time>
      </trkpt>
      <trkpt lat="42.415" lon="0.1085">
        <ele>632.4</ele>
        <time>2016-07-24T11:03:23Z</time>
      </trkpt>
      <trkpt lat="42.41497" lon="0.10848">
        <ele>633</ele>
        <time>2016-07-24T11:03:24Z</time>
      </trkpt>
      <trkpt lat="42.41495" lon="0.10847">
        <ele>633.6</ele>
        <time>2016-07-24T11:03:25Z</time>
      </trkpt>
      <trkpt lat="42.41492" lon="0.10847">
        <ele>634</ele>
        <time>2016-07-24T11:03:26Z</time>
      </trkpt>
      <trkpt lat="42.41489" lon="0.10847">
        <ele>634.3</ele>
        <time>2016-07-24T11:03:27Z</time>
      </trkpt>
      <trkpt lat="42.41486" lon="0.10847">
        <ele>634.6</ele>
        <time>2016-07-24T11:03:28Z</time>
      </trkpt>
      <trkpt lat="42.41483" lon="0.10847">
        <ele>634.7</ele>
        <time>2016-07-24T11:03:29Z</time>
      </trkpt>
      <trkpt lat="42.4148" lon="0.10847">
        <ele>634.8</ele>
        <time>2016-07-24T11:03:30Z</time>
      </trkpt>
      <trkpt lat="42.41477" lon="0.10848">
        <ele>635</ele>
        <time>2016-07-24T11:03:31Z</time>
      </trkpt>
      <trkpt lat="42.41473" lon="0.10848">
        <ele>635.3</ele>
        <time>2016-07-24T11:03:32Z</time>
      </trkpt>
      <trkpt lat="42.4147" lon="0.10847">
        <ele>635.6</ele>
        <time>2016-07-24T11:03:33Z</time>
      </trkpt>
      <trkpt lat="42.41466" lon="0.10847">
        <ele>636.1</ele>
        <time>2016-07-24T11:03:34Z</time>
      </trkpt>
      <trkpt lat="42.41463" lon="0.10847">
        <ele>636.5</ele>
        <time>2016-07-24T11:03:35Z</time>
      </trkpt>
      <trkpt lat="42.4146" lon="0.10846">
        <ele>636.9</ele>
        <time>2016-07-24T11:03:36Z</time>
      </trkpt>
      <trkpt lat="42.41456" lon="0.10846">
        <ele>636.7</ele>
        <time>2016-07-24T11:03:37Z</time>
      </trkpt>
      <trkpt lat="42.41453" lon="0.10846">
        <ele>636.2</ele>
        <time>2016-07-24T11:03:38Z</time>
      </trkpt>
      <trkpt lat="42.41449" lon="0.10846">
        <ele>635.8</ele>
        <time>2016-07-24T11:03:39Z</time>
      </trkpt>
      <trkpt lat="42.41446" lon="0.10845">
        <ele>635.3</ele>
        <time>2016-07-24T11:03:40Z</time>
      </trkpt>
      <trkpt lat="42.41442" lon="0.10845">
        <ele>634.9</ele>
        <time>2016-07-24T11:03:41Z</time>
      </trkpt>
      <trkpt lat="42.41439" lon="0.10844">
        <ele>634.6</ele>
        <time>2016-07-24T11:03:42Z</time>
      </trkpt>
      <trkpt lat="42.41436" lon="0.10844">
        <ele>634.3</ele>
        <time>2016-07-24T11:03:43Z</time>
      </trkpt>
      <trkpt lat="42.41433" lon="0.10843">
        <ele>634</ele>
        <time>2016-07-24T11:03:44Z</time>
      </trkpt>
      <trkpt lat="42.41429" lon="0.10842">
        <ele>633.7</ele>
        <time>2016-07-24T11:03:45Z</time>
      </trkpt>
      <trkpt lat="42.41426" lon="0.10841">
        <ele>633.4</ele>
        <time>2016-07-24T11:03:46Z</time>
      </trkpt>
      <trkpt lat="42.41422" lon="0.1084">
        <ele>633.2</ele>
        <time>2016-07-24T11:03:47Z</time>
      </trkpt>
      <trkpt lat="42.41419" lon="0.10839">
        <ele>633</ele>
        <time>2016-07-24T11:03:48Z</time>
      </trkpt>
      <trkpt lat="42.41417" lon="0.10838">
        <ele>633</ele>
        <time>2016-07-24T11:03:49Z</time>
      </trkpt>
      <trkpt lat="42.41412" lon="0.10836">
        <ele>632.9</ele>
        <time>2016-07-24T11:03:51Z</time>
      </trkpt>
      <trkpt lat="42.41408" lon="0.10834">
        <ele>633</ele>
        <time>2016-07-24T11:03:53Z</time>
      </trkpt>
      <trkpt lat="42.41404" lon="0.10831">
        <ele>633.1</ele>
        <time>2016-07-24T11:03:55Z</time>
      </trkpt>
      <trkpt lat="42.414" lon="0.10829">
        <ele>633.1</ele>
        <time>2016-07-24T11:03:57Z</time>
      </trkpt>
      <trkpt lat="42.41396" lon="0.10827">
        <ele>633.2</ele>
        <time>2016-07-24T11:03:59Z</time>
      </trkpt>
      <trkpt lat="42.41392" lon="0.10825">
        <ele>633.4</ele>
        <time>2016-07-24T11:04:01Z</time>
      </trkpt>
      <trkpt lat="42.41389" lon="0.10823">
        <ele>633.5</ele>
        <time>2016-07-24T11:04:03Z</time>
      </trkpt>
      <trkpt lat="42.41385" lon="0.10821">
        <ele>633.6</ele>
        <time>2016-07-24T11:04:05Z</time>
      </trkpt>
      <trkpt lat="42.41382" lon="0.10818">
        <ele>633.8</ele>
        <time>2016-07-24T11:04:07Z</time>
      </trkpt>
      <trkpt lat="42.41378" lon="0.10815">
        <ele>634.1</ele>
        <time>2016-07-24T11:04:09Z</time>
      </trkpt>
      <trkpt lat="42.41375" lon="0.10812">
        <ele>634.7</ele>
        <time>2016-07-24T11:04:11Z</time>
      </trkpt>
      <trkpt lat="42.41372" lon="0.10808">
        <ele>635.4</ele>
        <time>2016-07-24T11:04:13Z</time>
      </trkpt>
      <trkpt lat="42.4137" lon="0.10805">
        <ele>636.1</ele>
        <time>2016-07-24T11:04:15Z</time>
      </trkpt>
      <trkpt lat="42.41366" lon="0.10802">
        <ele>636.7</ele>
        <time>2016-07-24T11:04:17Z</time>
      </trkpt>
      <trkpt lat="42.41363" lon="0.10798">
        <ele>637.4</ele>
        <time>2016-07-24T11:04:19Z</time>
      </trkpt>
      <trkpt lat="42.41361" lon="0.10794">
        <ele>638.2</ele>
        <time>2016-07-24T11:04:21Z</time>
      </trkpt>
      <trkpt lat="42.41358" lon="0.10791">
        <ele>639</ele>
        <time>2016-07-24T11:04:23Z</time>
      </trkpt>
      <trkpt lat="42.41355" lon="0.10788">
        <ele>640.1</ele>
        <time>2016-07-24T11:04:25Z</time>
      </trkpt>
      <trkpt lat="42.41353" lon="0.10785">
        <ele>641.2</ele>
        <time>2016-07-24T11:04:27Z</time>
      </trkpt>
      <trkpt lat="42.4135" lon="0.10781">
        <ele>642.4</ele>
        <time>2016-07-24T11:04:29Z</time>
      </trkpt>
      <trkpt lat="42.41347" lon="0.10778">
        <ele>643.4</ele>
        <time>2016-07-24T11:04:31Z</time>
      </trkpt>
      <trkpt lat="42.41344" lon="0.10775">
        <ele>644.5</ele>
        <time>2016-07-24T11:04:33Z</time>
      </trkpt>
      <trkpt lat="42.41341" lon="0.10771">
        <ele>645.6</ele>
        <time>2016-07-24T11:04:35Z</time>
      </trkpt>
      <trkpt lat="42.41339" lon="0.10767">
        <ele>646.8</ele>
        <time>2016-07-24T11:04:37Z</time>
      </trkpt>
      <trkpt lat="42.41336" lon="0.10763">
        <ele>648.2</ele>
        <time>2016-07-24T11:04:39Z</time>
      </trkpt>
      <trkpt lat="42.41333" lon="0.10759">
        <ele>649.5</ele>
        <time>2016-07-24T11:04:41Z</time>
      </trkpt>
      <trkpt lat="42.4133" lon="0.10755">
        <ele>650.7</ele>
        <time>2016-07-24T11:04:43Z</time>
      </trkpt>
      <trkpt lat="42.41327" lon="0.10752">
        <ele>651.7</ele>
        <time>2016-07-24T11:04:45Z</time>
      </trkpt>
      <trkpt lat="42.41323" lon="0.10748">
        <ele>652.7</ele>
        <time>2016-07-24T11:04:47Z</time>
      </trkpt>
      <trkpt lat="42.4132" lon="0.10745">
        <ele>653.5</ele>
        <time>2016-07-24T11:04:49Z</time>
      </trkpt>
      <trkpt lat="42.41317" lon="0.10742">
        <ele>654.5</ele>
        <time>2016-07-24T11:04:51Z</time>
      </trkpt>
      <trkpt lat="42.41314" lon="0.10738">
        <ele>655.3</ele>
        <time>2016-07-24T11:04:53Z</time>
      </trkpt>
      <trkpt lat="42.4131" lon="0.10735">
        <ele>656.2</ele>
        <time>2016-07-24T11:04:55Z</time>
      </trkpt>
      <trkpt lat="42.41307" lon="0.10731">
        <ele>657.2</ele>
        <time>2016-07-24T11:04:57Z</time>
      </trkpt>
      <trkpt lat="42.41304" lon="0.10728">
        <ele>658</ele>
        <time>2016-07-24T11:04:59Z</time>
      </trkpt>
      <trkpt lat="42.41301" lon="0.10726">
        <ele>658.4</ele>
        <time>2016-07-24T11:05:01Z</time>
      </trkpt>
      <trkpt lat="42.41298" lon="0.10724">
        <ele>658.7</ele>
        <time>2016-07-24T11:05:03Z</time>
      </trkpt>
      <trkpt lat="42.41294" lon="0.10722">
        <ele>659</ele>
        <time>2016-07-24T11:05:05Z</time>
      </trkpt>
      <trkpt lat="42.41291" lon="0.10719">
        <ele>659.3</ele>
        <time>2016-07-24T11:05:07Z</time>
      </trkpt>
      <trkpt lat="42.41288" lon="0.10717">
        <ele>659.5</ele>
        <time>2016-07-24T11:05:09Z</time>
      </trkpt>
      <trkpt lat="42.41285" lon="0.10716">
        <ele>659.4</ele>
        <time>2016-07-24T11:05:11Z</time>
      </trkpt>
      <trkpt lat="42.41282" lon="0.10716">
        <ele>658.6</ele>
        <time>2016-07-24T11:05:14Z</time>
      </trkpt>
      <trkpt lat="42.4128" lon="0.10719">
        <ele>657.1</ele>
        <time>2016-07-24T11:05:17Z</time>
      </trkpt>
      <trkpt lat="42.41278" lon="0.10722">
        <ele>655.5</ele>
        <time>2016-07-24T11:05:19Z</time>
      </trkpt>
      <trkpt lat="42.41275" lon="0.10725">
        <ele>653.8</ele>
        <time>2016-07-24T11:05:21Z</time>
      </trkpt>
      <trkpt lat="42.41271" lon="0.10725">
        <ele>652.7</ele>
        <time>2016-07-24T11:05:23Z</time>
      </trkpt>
      <trkpt lat="42.41266" lon="0.10724">
        <ele>652.1</ele>
        <time>2016-07-24T11:05:25Z</time>
      </trkpt>
      <trkpt lat="42.41263" lon="0.10724">
        <ele>651.6</ele>
        <time>2016-07-24T11:05:26Z</time>
      </trkpt>
      <trkpt lat="42.4126" lon="0.10723">
        <ele>651</ele>
        <time>2016-07-24T11:05:27Z</time>
      </trkpt>
      <trkpt lat="42.41257" lon="0.10723">
        <ele>650.7</ele>
        <time>2016-07-24T11:05:28Z</time>
      </trkpt>
      <trkpt lat="42.41251" lon="0.10721">
        <ele>649.9</ele>
        <time>2016-07-24T11:05:30Z</time>
      </trkpt>
      <trkpt lat="42.41247" lon="0.10721">
        <ele>649</ele>
        <time>2016-07-24T11:05:31Z</time>
      </trkpt>
      <trkpt lat="42.41244" lon="0.10722">
        <ele>648.1</ele>
        <time>2016-07-24T11:05:32Z</time>
      </trkpt>
      <trkpt lat="42.4124" lon="0.10723">
        <ele>647</ele>
        <time>2016-07-24T11:05:33Z</time>
      </trkpt>
      <trkpt lat="42.41236" lon="0.10723">
        <ele>645.9</ele>
        <time>2016-07-24T11:05:34Z</time>
      </trkpt>
      <trkpt lat="42.41232" lon="0.10723">
        <ele>645</ele>
        <time>2016-07-24T11:05:35Z</time>
      </trkpt>
      <trkpt lat="42.41227" lon="0.10723">
        <ele>644.2</ele>
        <time>2016-07-24T11:05:36Z</time>
      </trkpt>
      <trkpt lat="42.41222" lon="0.10722">
        <ele>643.3</ele>
        <time>2016-07-24T11:05:37Z</time>
      </trkpt>
      <trkpt lat="42.41217" lon="0.10722">
        <ele>642.1</ele>
        <time>2016-07-24T11:05:38Z</time>
      </trkpt>
      <trkpt lat="42.41213" lon="0.10723">
        <ele>640.9</ele>
        <time>2016-07-24T11:05:39Z</time>
      </trkpt>
      <trkpt lat="42.41208" lon="0.10724">
        <ele>639.7</ele>
        <time>2016-07-24T11:05:41Z</time>
      </trkpt>
      <trkpt lat="42.41206" lon="0.10723">
        <ele>639.9</ele>
        <time>2016-07-24T11:05:42Z</time>
      </trkpt>
      <trkpt lat="42.41202" lon="0.10722">
        <ele>640.6</ele>
        <time>2016-07-24T11:05:43Z</time>
      </trkpt>
      <trkpt lat="42.41199" lon="0.1072">
        <ele>641.3</ele>
        <time>2016-07-24T11:05:44Z</time>
      </trkpt>
      <trkpt lat="42.41195" lon="0.10718">
        <ele>642</ele>
        <time>2016-07-24T11:05:45Z</time>
      </trkpt>
      <trkpt lat="42.41191" lon="0.10716">
        <ele>642.9</ele>
        <time>2016-07-24T11:05:46Z</time>
      </trkpt>
      <trkpt lat="42.41187" lon="0.10714">
        <ele>643.9</ele>
        <time>2016-07-24T11:05:47Z</time>
      </trkpt>
      <trkpt lat="42.41184" lon="0.10712">
        <ele>645</ele>
        <time>2016-07-24T11:05:48Z</time>
      </trkpt>
      <trkpt lat="42.41181" lon="0.10709">
        <ele>646</ele>
        <time>2016-07-24T11:05:49Z</time>
      </trkpt>
      <trkpt lat="42.41178" lon="0.10707">
        <ele>646.7</ele>
        <time>2016-07-24T11:05:50Z</time>
      </trkpt>
      <trkpt lat="42.41175" lon="0.10704">
        <ele>647.2</ele>
        <time>2016-07-24T11:05:51Z</time>
      </trkpt>
      <trkpt lat="42.41171" lon="0.107">
        <ele>647.8</ele>
        <time>2016-07-24T11:05:52Z</time>
      </trkpt>
      <trkpt lat="42.41167" lon="0.10696">
        <ele>648.4</ele>
        <time>2016-07-24T11:05:53Z</time>
      </trkpt>
      <trkpt lat="42.41164" lon="0.10693">
        <ele>648.9</ele>
        <time>2016-07-24T11:05:54Z</time>
      </trkpt>
      <trkpt lat="42.41161" lon="0.1069">
        <ele>649.3</ele>
        <time>2016-07-24T11:05:55Z</time>
      </trkpt>
      <trkpt lat="42.41159" lon="0.10687">
        <ele>649.6</ele>
        <time>2016-07-24T11:05:57Z</time>
      </trkpt>
      <trkpt lat="42.41157" lon="0.10687">
        <ele>649.7</ele>
        <time>2016-07-24T11:06:12Z</time>
      </trkpt>
      <trkpt lat="42.41153" lon="0.10685">
        <ele>650</ele>
        <time>2016-07-24T11:06:20Z</time>
      </trkpt>
      <trkpt lat="42.4115" lon="0.10685">
        <ele>650</ele>
        <time>2016-07-24T11:06:22Z</time>
      </trkpt>
      <trkpt lat="42.41147" lon="0.10688">
        <ele>649.8</ele>
        <time>2016-07-24T11:06:24Z</time>
      </trkpt>
      <trkpt lat="42.41146" lon="0.10693">
        <ele>649.5</ele>
        <time>2016-07-24T11:06:26Z</time>
      </trkpt>
      <trkpt lat="42.41143" lon="0.10699">
        <ele>649</ele>
        <time>2016-07-24T11:06:28Z</time>
      </trkpt>
      <trkpt lat="42.41141" lon="0.10704">
        <ele>648.6</ele>
        <time>2016-07-24T11:06:30Z</time>
      </trkpt>
      <trkpt lat="42.41138" lon="0.10707">
        <ele>648.5</ele>
        <time>2016-07-24T11:06:31Z</time>
      </trkpt>
      <trkpt lat="42.41136" lon="0.10709">
        <ele>648.1</ele>
        <time>2016-07-24T11:06:32Z</time>
      </trkpt>
      <trkpt lat="42.41133" lon="0.10712">
        <ele>646.9</ele>
        <time>2016-07-24T11:06:33Z</time>
      </trkpt>
      <trkpt lat="42.41131" lon="0.10716">
        <ele>645.2</ele>
        <time>2016-07-24T11:06:34Z</time>
      </trkpt>
      <trkpt lat="42.4113" lon="0.10721">
        <ele>643.1</ele>
        <time>2016-07-24T11:06:35Z</time>
      </trkpt>
      <trkpt lat="42.41129" lon="0.10726">
        <ele>641.1</ele>
        <time>2016-07-24T11:06:36Z</time>
      </trkpt>
      <trkpt lat="42.41129" lon="0.1073">
        <ele>639.3</ele>
        <time>2016-07-24T11:06:37Z</time>
      </trkpt>
      <trkpt lat="42.41127" lon="0.10734">
        <ele>637.7</ele>
        <time>2016-07-24T11:06:38Z</time>
      </trkpt>
      <trkpt lat="42.41124" lon="0.10737">
        <ele>636</ele>
        <time>2016-07-24T11:06:39Z</time>
      </trkpt>
      <trkpt lat="42.41122" lon="0.10741">
        <ele>633.6</ele>
        <time>2016-07-24T11:06:40Z</time>
      </trkpt>
      <trkpt lat="42.41119" lon="0.10744">
        <ele>631.6</ele>
        <time>2016-07-24T11:06:41Z</time>
      </trkpt>
      <trkpt lat="42.41116" lon="0.10749">
        <ele>628.1</ele>
        <time>2016-07-24T11:06:43Z</time>
      </trkpt>
      <trkpt lat="42.41113" lon="0.10753">
        <ele>625.3</ele>
        <time>2016-07-24T11:06:45Z</time>
      </trkpt>
      <trkpt lat="42.41108" lon="0.10755">
        <ele>623.1</ele>
        <time>2016-07-24T11:06:47Z</time>
      </trkpt>
      <trkpt lat="42.41105" lon="0.10756">
        <ele>621.9</ele>
        <time>2016-07-24T11:06:48Z</time>
      </trkpt>
      <trkpt lat="42.41101" lon="0.10757">
        <ele>620.7</ele>
        <time>2016-07-24T11:06:49Z</time>
      </trkpt>
      <trkpt lat="42.41099" lon="0.10757">
        <ele>619.5</ele>
        <time>2016-07-24T11:06:50Z</time>
      </trkpt>
      <trkpt lat="42.41093" lon="0.10759">
        <ele>617.4</ele>
        <time>2016-07-24T11:06:52Z</time>
      </trkpt>
      <trkpt lat="42.41089" lon="0.10759">
        <ele>616.4</ele>
        <time>2016-07-24T11:06:53Z</time>
      </trkpt>
      <trkpt lat="42.41086" lon="0.10758">
        <ele>615.7</ele>
        <time>2016-07-24T11:06:54Z</time>
      </trkpt>
      <trkpt lat="42.41083" lon="0.10758">
        <ele>615</ele>
        <time>2016-07-24T11:06:55Z</time>
      </trkpt>
      <trkpt lat="42.41079" lon="0.10759">
        <ele>613</ele>
        <time>2016-07-24T11:06:57Z</time>
      </trkpt>
      <trkpt lat="42.41074" lon="0.10762">
        <ele>610.5</ele>
        <time>2016-07-24T11:06:59Z</time>
      </trkpt>
      <trkpt lat="42.41071" lon="0.10763">
        <ele>609.2</ele>
        <time>2016-07-24T11:07:00Z</time>
      </trkpt>
      <trkpt lat="42.41068" lon="0.10764">
        <ele>608.2</ele>
        <time>2016-07-24T11:07:01Z</time>
      </trkpt>
      <trkpt lat="42.41065" lon="0.10764">
        <ele>607.3</ele>
        <time>2016-07-24T11:07:02Z</time>
      </trkpt>
      <trkpt lat="42.41062" lon="0.10764">
        <ele>606.4</ele>
        <time>2016-07-24T11:07:03Z</time>
      </trkpt>
      <trkpt lat="42.41059" lon="0.10765">
        <ele>605.4</ele>
        <time>2016-07-24T11:07:04Z</time>
      </trkpt>
      <trkpt lat="42.41056" lon="0.10764">
        <ele>604.5</ele>
        <time>2016-07-24T11:07:05Z</time>
      </trkpt>
      <trkpt lat="42.41053" lon="0.10764">
        <ele>603.9</ele>
        <time>2016-07-24T11:07:06Z</time>
      </trkpt>
      <trkpt lat="42.4105" lon="0.10762">
        <ele>603.6</ele>
        <time>2016-07-24T11:07:07Z</time>
      </trkpt>
      <trkpt lat="42.41047" lon="0.10761">
        <ele>603.3</ele>
        <time>2016-07-24T11:07:08Z</time>
      </trkpt>
      <trkpt lat="42.41043" lon="0.10758">
        <ele>603.3</ele>
        <time>2016-07-24T11:07:10Z</time>
      </trkpt>
      <trkpt lat="42.41039" lon="0.10756">
        <ele>602.8</ele>
        <time>2016-07-24T11:07:12Z</time>
      </trkpt>
      <trkpt lat="42.41036" lon="0.10755">
        <ele>601.8</ele>
        <time>2016-07-24T11:07:13Z</time>
      </trkpt>
      <trkpt lat="42.41033" lon="0.10755">
        <ele>600.7</ele>
        <time>2016-07-24T11:07:14Z</time>
      </trkpt>
      <trkpt lat="42.41029" lon="0.10755">
        <ele>599.4</ele>
        <time>2016-07-24T11:07:15Z</time>
      </trkpt>
      <trkpt lat="42.41025" lon="0.10755">
        <ele>598</ele>
        <time>2016-07-24T11:07:16Z</time>
      </trkpt>
      <trkpt lat="42.41021" lon="0.10755">
        <ele>596.8</ele>
        <time>2016-07-24T11:07:17Z</time>
      </trkpt>
      <trkpt lat="42.41018" lon="0.10755">
        <ele>595.9</ele>
        <time>2016-07-24T11:07:18Z</time>
      </trkpt>
      <trkpt lat="42.41015" lon="0.10753">
        <ele>595.1</ele>
        <time>2016-07-24T11:07:20Z</time>
      </trkpt>
      <trkpt lat="42.41015" lon="0.10758">
        <ele>594</ele>
        <time>2016-07-24T11:07:26Z</time>
      </trkpt>
      <trkpt lat="42.41017" lon="0.10764">
        <ele>593.1</ele>
        <time>2016-07-24T11:07:28Z</time>
      </trkpt>
      <trkpt lat="42.41016" lon="0.10767">
        <ele>591.9</ele>
        <time>2016-07-24T11:07:30Z</time>
      </trkpt>
      <trkpt lat="42.41012" lon="0.10767">
        <ele>590.7</ele>
        <time>2016-07-24T11:07:32Z</time>
      </trkpt>
      <trkpt lat="42.41009" lon="0.10766">
        <ele>590</ele>
        <time>2016-07-24T11:07:33Z</time>
      </trkpt>
      <trkpt lat="42.41005" lon="0.10765">
        <ele>589.2</ele>
        <time>2016-07-24T11:07:34Z</time>
      </trkpt>
      <trkpt lat="42.41002" lon="0.10764">
        <ele>588.2</ele>
        <time>2016-07-24T11:07:35Z</time>
      </trkpt>
      <trkpt lat="42.40998" lon="0.10763">
        <ele>587.3</ele>
        <time>2016-07-24T11:07:36Z</time>
      </trkpt>
      <trkpt lat="42.40994" lon="0.10761">
        <ele>586.3</ele>
        <time>2016-07-24T11:07:37Z</time>
      </trkpt>
      <trkpt lat="42.4099" lon="0.10759">
        <ele>585.3</ele>
        <time>2016-07-24T11:07:38Z</time>
      </trkpt>
      <trkpt lat="42.40986" lon="0.10758">
        <ele>584.4</ele>
        <time>2016-07-24T11:07:39Z</time>
      </trkpt>
      <trkpt lat="42.40983" lon="0.10756">
        <ele>583.6</ele>
        <time>2016-07-24T11:07:40Z</time>
      </trkpt>
      <trkpt lat="42.40981" lon="0.10754">
        <ele>582.9</ele>
        <time>2016-07-24T11:07:41Z</time>
      </trkpt>
      <trkpt lat="42.40976" lon="0.10753">
        <ele>581.6</ele>
        <time>2016-07-24T11:07:43Z</time>
      </trkpt>
      <trkpt lat="42.40976" lon="0.10757">
        <ele>581</ele>
        <time>2016-07-24T11:07:45Z</time>
      </trkpt>
      <trkpt lat="42.40978" lon="0.10762">
        <ele>581.1</ele>
        <time>2016-07-24T11:07:46Z</time>
      </trkpt>
      <trkpt lat="42.40981" lon="0.10768">
        <ele>581.2</ele>
        <time>2016-07-24T11:07:47Z</time>
      </trkpt>
      <trkpt lat="42.40984" lon="0.10773">
        <ele>581.2</ele>
        <time>2016-07-24T11:07:48Z</time>
      </trkpt>
      <trkpt lat="42.40986" lon="0.10779">
        <ele>580.9</ele>
        <time>2016-07-24T11:07:49Z</time>
      </trkpt>
      <trkpt lat="42.40988" lon="0.10786">
        <ele>580.5</ele>
        <time>2016-07-24T11:07:50Z</time>
      </trkpt>
      <trkpt lat="42.40991" lon="0.10793">
        <ele>579.9</ele>
        <time>2016-07-24T11:07:51Z</time>
      </trkpt>
      <trkpt lat="42.40993" lon="0.108">
        <ele>579.8</ele>
        <time>2016-07-24T11:07:52Z</time>
      </trkpt>
      <trkpt lat="42.40996" lon="0.10807">
        <ele>579.7</ele>
        <time>2016-07-24T11:07:53Z</time>
      </trkpt>
      <trkpt lat="42.40999" lon="0.10814">
        <ele>579.6</ele>
        <time>2016-07-24T11:07:54Z</time>
      </trkpt>
      <trkpt lat="42.41002" lon="0.1082">
        <ele>579.3</ele>
        <time>2016-07-24T11:07:55Z</time>
      </trkpt>
      <trkpt lat="42.41004" lon="0.10827">
        <ele>578.8</ele>
        <time>2016-07-24T11:07:56Z</time>
      </trkpt>
      <trkpt lat="42.41006" lon="0.10833">
        <ele>578.2</ele>
        <time>2016-07-24T11:07:57Z</time>
      </trkpt>
      <trkpt lat="42.41008" lon="0.1084">
        <ele>577.6</ele>
        <time>2016-07-24T11:07:58Z</time>
      </trkpt>
      <trkpt lat="42.4101" lon="0.10846">
        <ele>576.9</ele>
        <time>2016-07-24T11:07:59Z</time>
      </trkpt>
      <trkpt lat="42.41013" lon="0.10851">
        <ele>576.2</ele>
        <time>2016-07-24T11:08:00Z</time>
      </trkpt>
      <trkpt lat="42.41016" lon="0.10855">
        <ele>575.7</ele>
        <time>2016-07-24T11:08:01Z</time>
      </trkpt>
      <trkpt lat="42.4102" lon="0.10858">
        <ele>575.1</ele>
        <time>2016-07-24T11:08:02Z</time>
      </trkpt>
      <trkpt lat="42.41024" lon="0.10862">
        <ele>574.4</ele>
        <time>2016-07-24T11:08:03Z</time>
      </trkpt>
      <trkpt lat="42.41027" lon="0.10867">
        <ele>573.4</ele>
        <time>2016-07-24T11:08:04Z</time>
      </trkpt>
      <trkpt lat="42.4103" lon="0.10873">
        <ele>572.1</ele>
        <time>2016-07-24T11:08:05Z</time>
      </trkpt>
      <trkpt lat="42.41032" lon="0.10879">
        <ele>571.5</ele>
        <time>2016-07-24T11:08:06Z</time>
      </trkpt>
      <trkpt lat="42.41033" lon="0.10885">
        <ele>571.2</ele>
        <time>2016-07-24T11:08:07Z</time>
      </trkpt>
      <trkpt lat="42.41035" lon="0.10891">
        <ele>570.9</ele>
        <time>2016-07-24T11:08:08Z</time>
      </trkpt>
      <trkpt lat="42.41038" lon="0.10897">
        <ele>570.4</ele>
        <time>2016-07-24T11:08:09Z</time>
      </trkpt>
      <trkpt lat="42.41041" lon="0.10902">
        <ele>569.8</ele>
        <time>2016-07-24T11:08:10Z</time>
      </trkpt>
      <trkpt lat="42.41045" lon="0.10905">
        <ele>569.6</ele>
        <time>2016-07-24T11:08:11Z</time>
      </trkpt>
      <trkpt lat="42.4105" lon="0.10907">
        <ele>569.6</ele>
        <time>2016-07-24T11:08:12Z</time>
      </trkpt>
      <trkpt lat="42.41056" lon="0.10907">
        <ele>569.6</ele>
        <time>2016-07-24T11:08:13Z</time>
      </trkpt>
      <trkpt lat="42.41061" lon="0.10907">
        <ele>569.7</ele>
        <time>2016-07-24T11:08:14Z</time>
      </trkpt>
      <trkpt lat="42.41067" lon="0.10907">
        <ele>569.8</ele>
        <time>2016-07-24T11:08:15Z</time>
      </trkpt>
      <trkpt lat="42.41074" lon="0.10907">
        <ele>569.9</ele>
        <time>2016-07-24T11:08:16Z</time>
      </trkpt>
      <trkpt lat="42.41079" lon="0.10906">
        <ele>570.1</ele>
        <time>2016-07-24T11:08:17Z</time>
      </trkpt>
      <trkpt lat="42.41085" lon="0.10906">
        <ele>570.2</ele>
        <time>2016-07-24T11:08:18Z</time>
      </trkpt>
      <trkpt lat="42.41091" lon="0.10904">
        <ele>570.5</ele>
        <time>2016-07-24T11:08:19Z</time>
      </trkpt>
      <trkpt lat="42.41096" lon="0.10903">
        <ele>570.7</ele>
        <time>2016-07-24T11:08:20Z</time>
      </trkpt>
      <trkpt lat="42.41101" lon="0.109">
        <ele>571.2</ele>
        <time>2016-07-24T11:08:21Z</time>
      </trkpt>
      <trkpt lat="42.41105" lon="0.10896">
        <ele>571.9</ele>
        <time>2016-07-24T11:08:22Z</time>
      </trkpt>
      <trkpt lat="42.4111" lon="0.10892">
        <ele>572.7</ele>
        <time>2016-07-24T11:08:23Z</time>
      </trkpt>
      <trkpt lat="42.41116" lon="0.10888">
        <ele>573.4</ele>
        <time>2016-07-24T11:08:24Z</time>
      </trkpt>
      <trkpt lat="42.41121" lon="0.10885">
        <ele>574.2</ele>
        <time>2016-07-24T11:08:25Z</time>
      </trkpt>
      <trkpt lat="42.41127" lon="0.10882">
        <ele>574.9</ele>
        <time>2016-07-24T11:08:26Z</time>
      </trkpt>
      <trkpt lat="42.41132" lon="0.10881">
        <ele>575.4</ele>
        <time>2016-07-24T11:08:27Z</time>
      </trkpt>
      <trkpt lat="42.41138" lon="0.1088">
        <ele>575.9</ele>
        <time>2016-07-24T11:08:28Z</time>
      </trkpt>
      <trkpt lat="42.41143" lon="0.10879">
        <ele>576.3</ele>
        <time>2016-07-24T11:08:29Z</time>
      </trkpt>
      <trkpt lat="42.41148" lon="0.10878">
        <ele>576.8</ele>
        <time>2016-07-24T11:08:30Z</time>
      </trkpt>
      <trkpt lat="42.41153" lon="0.10876">
        <ele>577.4</ele>
        <time>2016-07-24T11:08:31Z</time>
      </trkpt>
      <trkpt lat="42.41158" lon="0.10874">
        <ele>578.4</ele>
        <time>2016-07-24T11:08:32Z</time>
      </trkpt>
      <trkpt lat="42.41161" lon="0.10871">
        <ele>579.8</ele>
        <time>2016-07-24T11:08:33Z</time>
      </trkpt>
      <trkpt lat="42.41163" lon="0.10869">
        <ele>581.1</ele>
        <time>2016-07-24T11:08:34Z</time>
      </trkpt>
      <trkpt lat="42.41165" lon="0.10865">
        <ele>582.8</ele>
        <time>2016-07-24T11:08:36Z</time>
      </trkpt>
      <trkpt lat="42.41169" lon="0.10863">
        <ele>583.7</ele>
        <time>2016-07-24T11:08:41Z</time>
      </trkpt>
      <trkpt lat="42.41173" lon="0.10864">
        <ele>583.8</ele>
        <time>2016-07-24T11:08:44Z</time>
      </trkpt>
      <trkpt lat="42.41175" lon="0.10867">
        <ele>582.6</ele>
        <time>2016-07-24T11:08:46Z</time>
      </trkpt>
      <trkpt lat="42.41178" lon="0.1087">
        <ele>581.2</ele>
        <time>2016-07-24T11:08:48Z</time>
      </trkpt>
      <trkpt lat="42.4118" lon="0.10874">
        <ele>579.9</ele>
        <time>2016-07-24T11:08:51Z</time>
      </trkpt>
      <trkpt lat="42.41182" lon="0.10877">
        <ele>579.1</ele>
        <time>2016-07-24T11:08:53Z</time>
      </trkpt>
      <trkpt lat="42.41185" lon="0.10881">
        <ele>578.5</ele>
        <time>2016-07-24T11:08:55Z</time>
      </trkpt>
      <trkpt lat="42.4119" lon="0.10885">
        <ele>577.9</ele>
        <time>2016-07-24T11:08:57Z</time>
      </trkpt>
      <trkpt lat="42.41194" lon="0.10887">
        <ele>577.7</ele>
        <time>2016-07-24T11:08:58Z</time>
      </trkpt>
      <trkpt lat="42.41198" lon="0.10889">
        <ele>577.6</ele>
        <time>2016-07-24T11:08:59Z</time>
      </trkpt>
      <trkpt lat="42.41202" lon="0.10891">
        <ele>577.3</ele>
        <time>2016-07-24T11:09:00Z</time>
      </trkpt>
      <trkpt lat="42.41206" lon="0.10894">
        <ele>577</ele>
        <time>2016-07-24T11:09:01Z</time>
      </trkpt>
      <trkpt lat="42.41209" lon="0.10897">
        <ele>576.7</ele>
        <time>2016-07-24T11:09:02Z</time>
      </trkpt>
      <trkpt lat="42.41213" lon="0.10898">
        <ele>576.9</ele>
        <time>2016-07-24T11:09:03Z</time>
      </trkpt>
      <trkpt lat="42.41217" lon="0.109">
        <ele>577</ele>
        <time>2016-07-24T11:09:04Z</time>
      </trkpt>
      <trkpt lat="42.4122" lon="0.10902">
        <ele>577.2</ele>
        <time>2016-07-24T11:09:05Z</time>
      </trkpt>
      <trkpt lat="42.41224" lon="0.10903">
        <ele>577.2</ele>
        <time>2016-07-24T11:09:06Z</time>
      </trkpt>
      <trkpt lat="42.41226" lon="0.10905">
        <ele>577.2</ele>
        <time>2016-07-24T11:09:07Z</time>
      </trkpt>
      <trkpt lat="42.41229" lon="0.10906">
        <ele>577.2</ele>
        <time>2016-07-24T11:09:09Z</time>
      </trkpt>
      <trkpt lat="42.41234" lon="0.1091">
        <ele>576.8</ele>
        <time>2016-07-24T11:09:11Z</time>
      </trkpt>
      <trkpt lat="42.41236" lon="0.10913">
        <ele>576.5</ele>
        <time>2016-07-24T11:09:12Z</time>
      </trkpt>
      <trkpt lat="42.4124" lon="0.10914">
        <ele>576.5</ele>
        <time>2016-07-24T11:09:13Z</time>
      </trkpt>
      <trkpt lat="42.41243" lon="0.10915">
        <ele>576.6</ele>
        <time>2016-07-24T11:09:14Z</time>
      </trkpt>
      <trkpt lat="42.41248" lon="0.10914">
        <ele>577.5</ele>
        <time>2016-07-24T11:09:16Z</time>
      </trkpt>
      <trkpt lat="42.41251" lon="0.10914">
        <ele>577.9</ele>
        <time>2016-07-24T11:09:17Z</time>
      </trkpt>
      <trkpt lat="42.41254" lon="0.10915">
        <ele>578</ele>
        <time>2016-07-24T11:09:18Z</time>
      </trkpt>
      <trkpt lat="42.41257" lon="0.10916">
        <ele>577.9</ele>
        <time>2016-07-24T11:09:19Z</time>
      </trkpt>
      <trkpt lat="42.41262" lon="0.10919">
        <ele>577.7</ele>
        <time>2016-07-24T11:09:21Z</time>
      </trkpt>
      <trkpt lat="42.41266" lon="0.10918">
        <ele>578.2</ele>
        <time>2016-07-24T11:09:23Z</time>
      </trkpt>
      <trkpt lat="42.41269" lon="0.1092">
        <ele>578.2</ele>
        <time>2016-07-24T11:09:25Z</time>
      </trkpt>
      <trkpt lat="42.41271" lon="0.10927">
        <ele>576.2</ele>
        <time>2016-07-24T11:09:27Z</time>
      </trkpt>
      <trkpt lat="42.41272" lon="0.10933">
        <ele>574.6</ele>
        <time>2016-07-24T11:09:29Z</time>
      </trkpt>
      <trkpt lat="42.41275" lon="0.10938">
        <ele>573.3</ele>
        <time>2016-07-24T11:09:31Z</time>
      </trkpt>
      <trkpt lat="42.41278" lon="0.1094">
        <ele>572.8</ele>
        <time>2016-07-24T11:09:32Z</time>
      </trkpt>
      <trkpt lat="42.41281" lon="0.10942">
        <ele>572.6</ele>
        <time>2016-07-24T11:09:33Z</time>
      </trkpt>
      <trkpt lat="42.41285" lon="0.10944">
        <ele>572.3</ele>
        <time>2016-07-24T11:09:35Z</time>
      </trkpt>
      <trkpt lat="42.41287" lon="0.10946">
        <ele>571.7</ele>
        <time>2016-07-24T11:09:44Z</time>
      </trkpt>
      <trkpt lat="42.41289" lon="0.10949">
        <ele>570.7</ele>
        <time>2016-07-24T11:09:47Z</time>
      </trkpt>
      <trkpt lat="42.41292" lon="0.10955">
        <ele>569.2</ele>
        <time>2016-07-24T11:09:49Z</time>
      </trkpt>
      <trkpt lat="42.41295" lon="0.10959">
        <ele>568.6</ele>
        <time>2016-07-24T11:09:50Z</time>
      </trkpt>
      <trkpt lat="42.41297" lon="0.10961">
        <ele>568.7</ele>
        <time>2016-07-24T11:09:51Z</time>
      </trkpt>
      <trkpt lat="42.413" lon="0.10964">
        <ele>569</ele>
        <time>2016-07-24T11:09:53Z</time>
      </trkpt>
      <trkpt lat="42.41303" lon="0.10967">
        <ele>569.1</ele>
        <time>2016-07-24T11:09:55Z</time>
      </trkpt>
      <trkpt lat="42.41307" lon="0.10972">
        <ele>569.1</ele>
        <time>2016-07-24T11:09:57Z</time>
      </trkpt>
      <trkpt lat="42.4131" lon="0.10977">
        <ele>569.1</ele>
        <time>2016-07-24T11:09:59Z</time>
      </trkpt>
      <trkpt lat="42.41313" lon="0.1098">
        <ele>569</ele>
        <time>2016-07-24T11:10:01Z</time>
      </trkpt>
      <trkpt lat="42.41316" lon="0.10984">
        <ele>568.9</ele>
        <time>2016-07-24T11:10:17Z</time>
      </trkpt>
      <trkpt lat="42.41319" lon="0.10988">
        <ele>568.7</ele>
        <time>2016-07-24T11:10:19Z</time>
      </trkpt>
      <trkpt lat="42.41321" lon="0.10991">
        <ele>568.5</ele>
        <time>2016-07-24T11:10:20Z</time>
      </trkpt>
      <trkpt lat="42.41323" lon="0.10994">
        <ele>568.3</ele>
        <time>2016-07-24T11:10:21Z</time>
      </trkpt>
      <trkpt lat="42.41326" lon="0.10997">
        <ele>568.2</ele>
        <time>2016-07-24T11:10:22Z</time>
      </trkpt>
      <trkpt lat="42.41329" lon="0.10998">
        <ele>568.2</ele>
        <time>2016-07-24T11:10:23Z</time>
      </trkpt>
      <trkpt lat="42.41332" lon="0.11001">
        <ele>568.1</ele>
        <time>2016-07-24T11:10:24Z</time>
      </trkpt>
      <trkpt lat="42.41335" lon="0.11003">
        <ele>567.8</ele>
        <time>2016-07-24T11:10:25Z</time>
      </trkpt>
      <trkpt lat="42.41338" lon="0.11007">
        <ele>567.3</ele>
        <time>2016-07-24T11:10:26Z</time>
      </trkpt>
      <trkpt lat="42.4134" lon="0.11011">
        <ele>566.7</ele>
        <time>2016-07-24T11:10:27Z</time>
      </trkpt>
      <trkpt lat="42.41341" lon="0.11016">
        <ele>565.9</ele>
        <time>2016-07-24T11:10:28Z</time>
      </trkpt>
      <trkpt lat="42.41343" lon="0.11021">
        <ele>565</ele>
        <time>2016-07-24T11:10:29Z</time>
      </trkpt>
      <trkpt lat="42.41344" lon="0.11026">
        <ele>564.2</ele>
        <time>2016-07-24T11:10:30Z</time>
      </trkpt>
      <trkpt lat="42.41346" lon="0.11029">
        <ele>563.5</ele>
        <time>2016-07-24T11:10:31Z</time>
      </trkpt>
      <trkpt lat="42.41348" lon="0.11032">
        <ele>562.9</ele>
        <time>2016-07-24T11:10:32Z</time>
      </trkpt>
      <trkpt lat="42.41351" lon="0.11034">
        <ele>562.5</ele>
        <time>2016-07-24T11:10:33Z</time>
      </trkpt>
      <trkpt lat="42.41354" lon="0.11036">
        <ele>562.3</ele>
        <time>2016-07-24T11:10:34Z</time>
      </trkpt>
      <trkpt lat="42.41356" lon="0.11037">
        <ele>562</ele>
        <time>2016-07-24T11:10:35Z</time>
      </trkpt>
      <trkpt lat="42.41359" lon="0.11039">
        <ele>561.6</ele>
        <time>2016-07-24T11:10:36Z</time>
      </trkpt>
      <trkpt lat="42.41361" lon="0.11042">
        <ele>561</ele>
        <time>2016-07-24T11:10:37Z</time>
      </trkpt>
      <trkpt lat="42.41363" lon="0.11045">
        <ele>560.8</ele>
        <time>2016-07-24T11:10:38Z</time>
      </trkpt>
      <trkpt lat="42.41366" lon="0.11049">
        <ele>560.6</ele>
        <time>2016-07-24T11:10:39Z</time>
      </trkpt>
      <trkpt lat="42.4137" lon="0.11052">
        <ele>560.3</ele>
        <time>2016-07-24T11:10:40Z</time>
      </trkpt>
      <trkpt lat="42.41373" lon="0.11055">
        <ele>560.1</ele>
        <time>2016-07-24T11:10:41Z</time>
      </trkpt>
      <trkpt lat="42.41376" lon="0.11058">
        <ele>560.1</ele>
        <time>2016-07-24T11:10:42Z</time>
      </trkpt>
      <trkpt lat="42.41379" lon="0.11061">
        <ele>560.5</ele>
        <time>2016-07-24T11:10:43Z</time>
      </trkpt>
      <trkpt lat="42.41382" lon="0.11065">
        <ele>560.9</ele>
        <time>2016-07-24T11:10:44Z</time>
      </trkpt>
      <trkpt lat="42.41385" lon="0.11068">
        <ele>561.2</ele>
        <time>2016-07-24T11:10:45Z</time>
      </trkpt>
      <trkpt lat="42.41387" lon="0.11072">
        <ele>561.4</ele>
        <time>2016-07-24T11:10:46Z</time>
      </trkpt>
      <trkpt lat="42.41389" lon="0.11075">
        <ele>561.7</ele>
        <time>2016-07-24T11:10:47Z</time>
      </trkpt>
      <trkpt lat="42.41391" lon="0.11078">
        <ele>562</ele>
        <time>2016-07-24T11:10:48Z</time>
      </trkpt>
      <trkpt lat="42.41394" lon="0.11081">
        <ele>562.2</ele>
        <time>2016-07-24T11:10:49Z</time>
      </trkpt>
      <trkpt lat="42.41396" lon="0.11084">
        <ele>562.4</ele>
        <time>2016-07-24T11:10:50Z</time>
      </trkpt>
      <trkpt lat="42.41399" lon="0.1109">
        <ele>562.7</ele>
        <time>2016-07-24T11:10:52Z</time>
      </trkpt>
      <trkpt lat="42.41401" lon="0.11093">
        <ele>562.9</ele>
        <time>2016-07-24T11:10:53Z</time>
      </trkpt>
      <trkpt lat="42.41404" lon="0.11097">
        <ele>563.2</ele>
        <time>2016-07-24T11:10:55Z</time>
      </trkpt>
      <trkpt lat="42.41407" lon="0.11101">
        <ele>563.5</ele>
        <time>2016-07-24T11:10:57Z</time>
      </trkpt>
      <trkpt lat="42.41409" lon="0.11106">
        <ele>563.5</ele>
        <time>2016-07-24T11:10:59Z</time>
      </trkpt>
      <trkpt lat="42.41411" lon="0.1111">
        <ele>563.5</ele>
        <time>2016-07-24T11:11:01Z</time>
      </trkpt>
      <trkpt lat="42.41412" lon="0.11115">
        <ele>563.4</ele>
        <time>2016-07-24T11:11:03Z</time>
      </trkpt>
      <trkpt lat="42.41413" lon="0.1112">
        <ele>563.2</ele>
        <time>2016-07-24T11:11:05Z</time>
      </trkpt>
      <trkpt lat="42.41413" lon="0.11125">
        <ele>562.8</ele>
        <time>2016-07-24T11:11:07Z</time>
      </trkpt>
      <trkpt lat="42.41413" lon="0.11131">
        <ele>562.8</ele>
        <time>2016-07-24T11:11:09Z</time>
      </trkpt>
      <trkpt lat="42.41412" lon="0.11137">
        <ele>562.8</ele>
        <time>2016-07-24T11:11:11Z</time>
      </trkpt>
      <trkpt lat="42.41412" lon="0.11142">
        <ele>562.7</ele>
        <time>2016-07-24T11:11:13Z</time>
      </trkpt>
      <trkpt lat="42.41411" lon="0.11147">
        <ele>562.6</ele>
        <time>2016-07-24T11:11:15Z</time>
      </trkpt>
      <trkpt lat="42.4141" lon="0.11152">
        <ele>562.5</ele>
        <time>2016-07-24T11:11:17Z</time>
      </trkpt>
      <trkpt lat="42.41409" lon="0.11157">
        <ele>562.4</ele>
        <time>2016-07-24T11:11:19Z</time>
      </trkpt>
      <trkpt lat="42.41408" lon="0.11161">
        <ele>562.3</ele>
        <time>2016-07-24T11:11:21Z</time>
      </trkpt>
      <trkpt lat="42.41406" lon="0.11166">
        <ele>562.1</ele>
        <time>2016-07-24T11:11:23Z</time>
      </trkpt>
      <trkpt lat="42.41406" lon="0.1117">
        <ele>562.1</ele>
        <time>2016-07-24T11:11:25Z</time>
      </trkpt>
      <trkpt lat="42.41407" lon="0.11175">
        <ele>562.3</ele>
        <time>2016-07-24T11:11:27Z</time>
      </trkpt>
      <trkpt lat="42.41408" lon="0.11178">
        <ele>562.6</ele>
        <time>2016-07-24T11:11:29Z</time>
      </trkpt>
      <trkpt lat="42.4141" lon="0.11182">
        <ele>563</ele>
        <time>2016-07-24T11:11:31Z</time>
      </trkpt>
      <trkpt lat="42.41412" lon="0.11185">
        <ele>563.4</ele>
        <time>2016-07-24T11:11:33Z</time>
      </trkpt>
      <trkpt lat="42.41415" lon="0.11188">
        <ele>564</ele>
        <time>2016-07-24T11:11:35Z</time>
      </trkpt>
      <trkpt lat="42.4142" lon="0.11191">
        <ele>564.8</ele>
        <time>2016-07-24T11:11:37Z</time>
      </trkpt>
      <trkpt lat="42.41422" lon="0.11193">
        <ele>565.2</ele>
        <time>2016-07-24T11:11:38Z</time>
      </trkpt>
      <trkpt lat="42.41425" lon="0.11195">
        <ele>565.7</ele>
        <time>2016-07-24T11:11:39Z</time>
      </trkpt>
      <trkpt lat="42.41428" lon="0.11197">
        <ele>566.1</ele>
        <time>2016-07-24T11:11:40Z</time>
      </trkpt>
      <trkpt lat="42.4143" lon="0.11199">
        <ele>566.6</ele>
        <time>2016-07-24T11:11:41Z</time>
      </trkpt>
      <trkpt lat="42.41433" lon="0.11201">
        <ele>567</ele>
        <time>2016-07-24T11:11:42Z</time>
      </trkpt>
      <trkpt lat="42.41436" lon="0.11204">
        <ele>567.5</ele>
        <time>2016-07-24T11:11:43Z</time>
      </trkpt>
      <trkpt lat="42.41439" lon="0.11206">
        <ele>568</ele>
        <time>2016-07-24T11:11:44Z</time>
      </trkpt>
      <trkpt lat="42.41442" lon="0.11209">
        <ele>568.4</ele>
        <time>2016-07-24T11:11:45Z</time>
      </trkpt>
      <trkpt lat="42.41445" lon="0.11211">
        <ele>568.5</ele>
        <time>2016-07-24T11:11:46Z</time>
      </trkpt>
      <trkpt lat="42.41448" lon="0.11214">
        <ele>568.6</ele>
        <time>2016-07-24T11:11:47Z</time>
      </trkpt>
      <trkpt lat="42.41451" lon="0.11217">
        <ele>568.7</ele>
        <time>2016-07-24T11:11:48Z</time>
      </trkpt>
      <trkpt lat="42.41454" lon="0.11219">
        <ele>568.8</ele>
        <time>2016-07-24T11:11:49Z</time>
      </trkpt>
      <trkpt lat="42.41457" lon="0.11222">
        <ele>568.8</ele>
        <time>2016-07-24T11:11:50Z</time>
      </trkpt>
      <trkpt lat="42.4146" lon="0.11225">
        <ele>569.2</ele>
        <time>2016-07-24T11:11:51Z</time>
      </trkpt>
      <trkpt lat="42.41463" lon="0.11228">
        <ele>569.7</ele>
        <time>2016-07-24T11:11:52Z</time>
      </trkpt>
      <trkpt lat="42.41466" lon="0.11231">
        <ele>570.1</ele>
        <time>2016-07-24T11:11:53Z</time>
      </trkpt>
      <trkpt lat="42.41469" lon="0.11235">
        <ele>570.4</ele>
        <time>2016-07-24T11:11:54Z</time>
      </trkpt>
      <trkpt lat="42.41471" lon="0.11238">
        <ele>570.6</ele>
        <time>2016-07-24T11:11:55Z</time>
      </trkpt>
      <trkpt lat="42.41474" lon="0.11242">
        <ele>570.8</ele>
        <time>2016-07-24T11:11:56Z</time>
      </trkpt>
      <trkpt lat="42.41476" lon="0.11245">
        <ele>570.9</ele>
        <time>2016-07-24T11:11:57Z</time>
      </trkpt>
      <trkpt lat="42.41479" lon="0.11249">
        <ele>571</ele>
        <time>2016-07-24T11:11:58Z</time>
      </trkpt>
      <trkpt lat="42.41482" lon="0.11252">
        <ele>571.2</ele>
        <time>2016-07-24T11:11:59Z</time>
      </trkpt>
      <trkpt lat="42.41484" lon="0.11255">
        <ele>571.5</ele>
        <time>2016-07-24T11:12:00Z</time>
      </trkpt>
      <trkpt lat="42.41487" lon="0.11257">
        <ele>571.8</ele>
        <time>2016-07-24T11:12:01Z</time>
      </trkpt>
      <trkpt lat="42.4149" lon="0.1126">
        <ele>572.1</ele>
        <time>2016-07-24T11:12:02Z</time>
      </trkpt>
      <trkpt lat="42.41493" lon="0.11262">
        <ele>572.6</ele>
        <time>2016-07-24T11:12:03Z</time>
      </trkpt>
      <trkpt lat="42.41496" lon="0.11264">
        <ele>573.1</ele>
        <time>2016-07-24T11:12:04Z</time>
      </trkpt>
      <trkpt lat="42.415" lon="0.11266">
        <ele>573.7</ele>
        <time>2016-07-24T11:12:05Z</time>
      </trkpt>
      <trkpt lat="42.41505" lon="0.11268">
        <ele>574.4</ele>
        <time>2016-07-24T11:12:06Z</time>
      </trkpt>
      <trkpt lat="42.4151" lon="0.11269">
        <ele>575.7</ele>
        <time>2016-07-24T11:12:07Z</time>
      </trkpt>
      <trkpt lat="42.41515" lon="0.1127">
        <ele>576.6</ele>
        <time>2016-07-24T11:12:08Z</time>
      </trkpt>
      <trkpt lat="42.4152" lon="0.11271">
        <ele>577.5</ele>
        <time>2016-07-24T11:12:09Z</time>
      </trkpt>
      <trkpt lat="42.41524" lon="0.11272">
        <ele>578.5</ele>
        <time>2016-07-24T11:12:10Z</time>
      </trkpt>
      <trkpt lat="42.41528" lon="0.11274">
        <ele>579.1</ele>
        <time>2016-07-24T11:12:11Z</time>
      </trkpt>
      <trkpt lat="42.41532" lon="0.11276">
        <ele>579.6</ele>
        <time>2016-07-24T11:12:12Z</time>
      </trkpt>
      <trkpt lat="42.41536" lon="0.11279">
        <ele>580</ele>
        <time>2016-07-24T11:12:13Z</time>
      </trkpt>
      <trkpt lat="42.41541" lon="0.11283">
        <ele>580.2</ele>
        <time>2016-07-24T11:12:14Z</time>
      </trkpt>
      <trkpt lat="42.41546" lon="0.11287">
        <ele>579.9</ele>
        <time>2016-07-24T11:12:15Z</time>
      </trkpt>
      <trkpt lat="42.41551" lon="0.11293">
        <ele>579.6</ele>
        <time>2016-07-24T11:12:16Z</time>
      </trkpt>
      <trkpt lat="42.41557" lon="0.11299">
        <ele>579.5</ele>
        <time>2016-07-24T11:12:17Z</time>
      </trkpt>
      <trkpt lat="42.41563" lon="0.11305">
        <ele>579.5</ele>
        <time>2016-07-24T11:12:18Z</time>
      </trkpt>
      <trkpt lat="42.4157" lon="0.1131">
        <ele>579.4</ele>
        <time>2016-07-24T11:12:19Z</time>
      </trkpt>
      <trkpt lat="42.41577" lon="0.11316">
        <ele>579.3</ele>
        <time>2016-07-24T11:12:20Z</time>
      </trkpt>
      <trkpt lat="42.41584" lon="0.1132">
        <ele>579.8</ele>
        <time>2016-07-24T11:12:21Z</time>
      </trkpt>
      <trkpt lat="42.41591" lon="0.11324">
        <ele>580</ele>
        <time>2016-07-24T11:12:22Z</time>
      </trkpt>
      <trkpt lat="42.41598" lon="0.11327">
        <ele>580.3</ele>
        <time>2016-07-24T11:12:23Z</time>
      </trkpt>
      <trkpt lat="42.41604" lon="0.11329">
        <ele>580.7</ele>
        <time>2016-07-24T11:12:24Z</time>
      </trkpt>
      <trkpt lat="42.41611" lon="0.11332">
        <ele>581.1</ele>
        <time>2016-07-24T11:12:25Z</time>
      </trkpt>
      <trkpt lat="42.41616" lon="0.11334">
        <ele>581.5</ele>
        <time>2016-07-24T11:12:26Z</time>
      </trkpt>
      <trkpt lat="42.41621" lon="0.11336">
        <ele>581.8</ele>
        <time>2016-07-24T11:12:27Z</time>
      </trkpt>
      <trkpt lat="42.41626" lon="0.11336">
        <ele>582.3</ele>
        <time>2016-07-24T11:12:28Z</time>
      </trkpt>
      <trkpt lat="42.41631" lon="0.11339">
        <ele>582</ele>
        <time>2016-07-24T11:12:29Z</time>
      </trkpt>
      <trkpt lat="42.41635" lon="0.11342">
        <ele>581.7</ele>
        <time>2016-07-24T11:12:30Z</time>
      </trkpt>
      <trkpt lat="42.4164" lon="0.11346">
        <ele>581</ele>
        <time>2016-07-24T11:12:31Z</time>
      </trkpt>
      <trkpt lat="42.41644" lon="0.11349">
        <ele>580.8</ele>
        <time>2016-07-24T11:12:32Z</time>
      </trkpt>
      <trkpt lat="42.41649" lon="0.11351">
        <ele>580.7</ele>
        <time>2016-07-24T11:12:33Z</time>
      </trkpt>
      <trkpt lat="42.41654" lon="0.11352">
        <ele>580.9</ele>
        <time>2016-07-24T11:12:34Z</time>
      </trkpt>
      <trkpt lat="42.41659" lon="0.11354">
        <ele>580.9</ele>
        <time>2016-07-24T11:12:35Z</time>
      </trkpt>
      <trkpt lat="42.41664" lon="0.11357">
        <ele>580.7</ele>
        <time>2016-07-24T11:12:36Z</time>
      </trkpt>
      <trkpt lat="42.41668" lon="0.11359">
        <ele>580.6</ele>
        <time>2016-07-24T11:12:37Z</time>
      </trkpt>
      <trkpt lat="42.41672" lon="0.11362">
        <ele>580.2</ele>
        <time>2016-07-24T11:12:38Z</time>
      </trkpt>
      <trkpt lat="42.41676" lon="0.11365">
        <ele>580</ele>
        <time>2016-07-24T11:12:39Z</time>
      </trkpt>
      <trkpt lat="42.41681" lon="0.11368">
        <ele>579.8</ele>
        <time>2016-07-24T11:12:40Z</time>
      </trkpt>
      <trkpt lat="42.41685" lon="0.1137">
        <ele>579.6</ele>
        <time>2016-07-24T11:12:41Z</time>
      </trkpt>
      <trkpt lat="42.41689" lon="0.11375">
        <ele>578.7</ele>
        <time>2016-07-24T11:12:42Z</time>
      </trkpt>
      <trkpt lat="42.41692" lon="0.11381">
        <ele>578</ele>
        <time>2016-07-24T11:12:43Z</time>
      </trkpt>
      <trkpt lat="42.41695" lon="0.11386">
        <ele>577.4</ele>
        <time>2016-07-24T11:12:44Z</time>
      </trkpt>
      <trkpt lat="42.41699" lon="0.11391">
        <ele>576.9</ele>
        <time>2016-07-24T11:12:45Z</time>
      </trkpt>
      <trkpt lat="42.41702" lon="0.11394">
        <ele>576.7</ele>
        <time>2016-07-24T11:12:46Z</time>
      </trkpt>
      <trkpt lat="42.41706" lon="0.11397">
        <ele>576.5</ele>
        <time>2016-07-24T11:12:47Z</time>
      </trkpt>
      <trkpt lat="42.4171" lon="0.114">
        <ele>576.4</ele>
        <time>2016-07-24T11:12:48Z</time>
      </trkpt>
      <trkpt lat="42.41713" lon="0.11402">
        <ele>576.5</ele>
        <time>2016-07-24T11:12:49Z</time>
      </trkpt>
      <trkpt lat="42.41717" lon="0.11405">
        <ele>576.7</ele>
        <time>2016-07-24T11:12:50Z</time>
      </trkpt>
      <trkpt lat="42.4172" lon="0.11405">
        <ele>577.1</ele>
        <time>2016-07-24T11:12:51Z</time>
      </trkpt>
      <trkpt lat="42.41725" lon="0.11406">
        <ele>577.6</ele>
        <time>2016-07-24T11:12:52Z</time>
      </trkpt>
      <trkpt lat="42.41729" lon="0.11407">
        <ele>578</ele>
        <time>2016-07-24T11:12:53Z</time>
      </trkpt>
      <trkpt lat="42.41734" lon="0.11411">
        <ele>578</ele>
        <time>2016-07-24T11:12:54Z</time>
      </trkpt>
      <trkpt lat="42.41738" lon="0.11413">
        <ele>578</ele>
        <time>2016-07-24T11:12:55Z</time>
      </trkpt>
      <trkpt lat="42.41742" lon="0.11417">
        <ele>577.7</ele>
        <time>2016-07-24T11:12:56Z</time>
      </trkpt>
      <trkpt lat="42.41747" lon="0.11421">
        <ele>577.4</ele>
        <time>2016-07-24T11:12:57Z</time>
      </trkpt>
      <trkpt lat="42.41751" lon="0.11425">
        <ele>577.1</ele>
        <time>2016-07-24T11:12:58Z</time>
      </trkpt>
      <trkpt lat="42.41756" lon="0.11426">
        <ele>577.4</ele>
        <time>2016-07-24T11:12:59Z</time>
      </trkpt>
      <trkpt lat="42.4176" lon="0.11427">
        <ele>577.8</ele>
        <time>2016-07-24T11:13:00Z</time>
      </trkpt>
      <trkpt lat="42.41764" lon="0.11429">
        <ele>578</ele>
        <time>2016-07-24T11:13:01Z</time>
      </trkpt>
      <trkpt lat="42.41769" lon="0.1143">
        <ele>578.3</ele>
        <time>2016-07-24T11:13:02Z</time>
      </trkpt>
      <trkpt lat="42.41773" lon="0.11433">
        <ele>578</ele>
        <time>2016-07-24T11:13:03Z</time>
      </trkpt>
      <trkpt lat="42.41778" lon="0.11437">
        <ele>577.4</ele>
        <time>2016-07-24T11:13:04Z</time>
      </trkpt>
      <trkpt lat="42.41783" lon="0.11441">
        <ele>577</ele>
        <time>2016-07-24T11:13:05Z</time>
      </trkpt>
      <trkpt lat="42.41787" lon="0.11444">
        <ele>576.6</ele>
        <time>2016-07-24T11:13:06Z</time>
      </trkpt>
      <trkpt lat="42.41788" lon="0.11451">
        <ele>574.8</ele>
        <time>2016-07-24T11:13:08Z</time>
      </trkpt>
      <trkpt lat="42.41787" lon="0.11457">
        <ele>573.1</ele>
        <time>2016-07-24T11:13:09Z</time>
      </trkpt>
      <trkpt lat="42.41785" lon="0.11462">
        <ele>571.7</ele>
        <time>2016-07-24T11:13:10Z</time>
      </trkpt>
      <trkpt lat="42.41783" lon="0.11467">
        <ele>570.8</ele>
        <time>2016-07-24T11:13:11Z</time>
      </trkpt>
      <trkpt lat="42.41781" lon="0.11474">
        <ele>569.6</ele>
        <time>2016-07-24T11:13:12Z</time>
      </trkpt>
      <trkpt lat="42.41779" lon="0.11482">
        <ele>568.2</ele>
        <time>2016-07-24T11:13:13Z</time>
      </trkpt>
      <trkpt lat="42.41778" lon="0.1149">
        <ele>567.1</ele>
        <time>2016-07-24T11:13:14Z</time>
      </trkpt>
      <trkpt lat="42.41776" lon="0.11498">
        <ele>565.8</ele>
        <time>2016-07-24T11:13:15Z</time>
      </trkpt>
      <trkpt lat="42.41775" lon="0.11506">
        <ele>564.5</ele>
        <time>2016-07-24T11:13:16Z</time>
      </trkpt>
      <trkpt lat="42.41775" lon="0.11515">
        <ele>563.2</ele>
        <time>2016-07-24T11:13:17Z</time>
      </trkpt>
      <trkpt lat="42.41775" lon="0.11525">
        <ele>561.8</ele>
        <time>2016-07-24T11:13:18Z</time>
      </trkpt>
      <trkpt lat="42.41774" lon="0.11534">
        <ele>560.4</ele>
        <time>2016-07-24T11:13:19Z</time>
      </trkpt>
      <trkpt lat="42.41773" lon="0.11544">
        <ele>559.2</ele>
        <time>2016-07-24T11:13:20Z</time>
      </trkpt>
      <trkpt lat="42.41773" lon="0.11554">
        <ele>558.7</ele>
        <time>2016-07-24T11:13:21Z</time>
      </trkpt>
      <trkpt lat="42.41773" lon="0.11564">
        <ele>558.2</ele>
        <time>2016-07-24T11:13:22Z</time>
      </trkpt>
      <trkpt lat="42.41772" lon="0.11573">
        <ele>557.7</ele>
        <time>2016-07-24T11:13:23Z</time>
      </trkpt>
      <trkpt lat="42.41772" lon="0.11582">
        <ele>557.2</ele>
        <time>2016-07-24T11:13:24Z</time>
      </trkpt>
      <trkpt lat="42.4177" lon="0.11592">
        <ele>556.7</ele>
        <time>2016-07-24T11:13:25Z</time>
      </trkpt>
      <trkpt lat="42.41768" lon="0.116">
        <ele>556.2</ele>
        <time>2016-07-24T11:13:26Z</time>
      </trkpt>
      <trkpt lat="42.41767" lon="0.11609">
        <ele>555.8</ele>
        <time>2016-07-24T11:13:27Z</time>
      </trkpt>
      <trkpt lat="42.41765" lon="0.11618">
        <ele>555.4</ele>
        <time>2016-07-24T11:13:28Z</time>
      </trkpt>
      <trkpt lat="42.41764" lon="0.11626">
        <ele>555</ele>
        <time>2016-07-24T11:13:29Z</time>
      </trkpt>
      <trkpt lat="42.41762" lon="0.11634">
        <ele>554.8</ele>
        <time>2016-07-24T11:13:30Z</time>
      </trkpt>
      <trkpt lat="42.4176" lon="0.11641">
        <ele>554.7</ele>
        <time>2016-07-24T11:13:31Z</time>
      </trkpt>
      <trkpt lat="42.41759" lon="0.11649">
        <ele>554.5</ele>
        <time>2016-07-24T11:13:32Z</time>
      </trkpt>
      <trkpt lat="42.41757" lon="0.11656">
        <ele>554.4</ele>
        <time>2016-07-24T11:13:33Z</time>
      </trkpt>
      <trkpt lat="42.41756" lon="0.11663">
        <ele>554.3</ele>
        <time>2016-07-24T11:13:34Z</time>
      </trkpt>
      <trkpt lat="42.41754" lon="0.11671">
        <ele>554.2</ele>
        <time>2016-07-24T11:13:35Z</time>
      </trkpt>
      <trkpt lat="42.41752" lon="0.11679">
        <ele>554</ele>
        <time>2016-07-24T11:13:36Z</time>
      </trkpt>
      <trkpt lat="42.41749" lon="0.11687">
        <ele>553.9</ele>
        <time>2016-07-24T11:13:37Z</time>
      </trkpt>
      <trkpt lat="42.41746" lon="0.11694">
        <ele>553.8</ele>
        <time>2016-07-24T11:13:38Z</time>
      </trkpt>
      <trkpt lat="42.41743" lon="0.11701">
        <ele>553.7</ele>
        <time>2016-07-24T11:13:39Z</time>
      </trkpt>
      <trkpt lat="42.4174" lon="0.11706">
        <ele>553.7</ele>
        <time>2016-07-24T11:13:40Z</time>
      </trkpt>
      <trkpt lat="42.41737" lon="0.11713">
        <ele>553.6</ele>
        <time>2016-07-24T11:13:41Z</time>
      </trkpt>
      <trkpt lat="42.41733" lon="0.11718">
        <ele>553.7</ele>
        <time>2016-07-24T11:13:42Z</time>
      </trkpt>
      <trkpt lat="42.41729" lon="0.11725">
        <ele>553.7</ele>
        <time>2016-07-24T11:13:43Z</time>
      </trkpt>
      <trkpt lat="42.41725" lon="0.11731">
        <ele>553.7</ele>
        <time>2016-07-24T11:13:44Z</time>
      </trkpt>
      <trkpt lat="42.41721" lon="0.11738">
        <ele>553.8</ele>
        <time>2016-07-24T11:13:45Z</time>
      </trkpt>
      <trkpt lat="42.41716" lon="0.11745">
        <ele>553.9</ele>
        <time>2016-07-24T11:13:46Z</time>
      </trkpt>
      <trkpt lat="42.41713" lon="0.11752">
        <ele>553.9</ele>
        <time>2016-07-24T11:13:47Z</time>
      </trkpt>
      <trkpt lat="42.4171" lon="0.11758">
        <ele>554</ele>
        <time>2016-07-24T11:13:48Z</time>
      </trkpt>
      <trkpt lat="42.41708" lon="0.11765">
        <ele>554</ele>
        <time>2016-07-24T11:13:49Z</time>
      </trkpt>
      <trkpt lat="42.41705" lon="0.11774">
        <ele>554</ele>
        <time>2016-07-24T11:13:50Z</time>
      </trkpt>
      <trkpt lat="42.41703" lon="0.11781">
        <ele>554</ele>
        <time>2016-07-24T11:13:51Z</time>
      </trkpt>
      <trkpt lat="42.41701" lon="0.11788">
        <ele>554</ele>
        <time>2016-07-24T11:13:52Z</time>
      </trkpt>
      <trkpt lat="42.41698" lon="0.11794">
        <ele>554</ele>
        <time>2016-07-24T11:13:53Z</time>
      </trkpt>
      <trkpt lat="42.41696" lon="0.11802">
        <ele>554</ele>
        <time>2016-07-24T11:13:54Z</time>
      </trkpt>
      <trkpt lat="42.41693" lon="0.11808">
        <ele>554</ele>
        <time>2016-07-24T11:13:55Z</time>
      </trkpt>
      <trkpt lat="42.41691" lon="0.11816">
        <ele>553.9</ele>
        <time>2016-07-24T11:13:56Z</time>
      </trkpt>
      <trkpt lat="42.41688" lon="0.11823">
        <ele>553.9</ele>
        <time>2016-07-24T11:13:57Z</time>
      </trkpt>
      <trkpt lat="42.41686" lon="0.11831">
        <ele>553.9</ele>
        <time>2016-07-24T11:13:58Z</time>
      </trkpt>
      <trkpt lat="42.41684" lon="0.11839">
        <ele>553.8</ele>
        <time>2016-07-24T11:13:59Z</time>
      </trkpt>
      <trkpt lat="42.41683" lon="0.11846">
        <ele>553.8</ele>
        <time>2016-07-24T11:14:00Z</time>
      </trkpt>
      <trkpt lat="42.41681" lon="0.11854">
        <ele>553.8</ele>
        <time>2016-07-24T11:14:01Z</time>
      </trkpt>
      <trkpt lat="42.41679" lon="0.11862">
        <ele>553.7</ele>
        <time>2016-07-24T11:14:02Z</time>
      </trkpt>
      <trkpt lat="42.41679" lon="0.1187">
        <ele>553.7</ele>
        <time>2016-07-24T11:14:03Z</time>
      </trkpt>
      <trkpt lat="42.41677" lon="0.11877">
        <ele>553.6</ele>
        <time>2016-07-24T11:14:04Z</time>
      </trkpt>
      <trkpt lat="42.41677" lon="0.11886">
        <ele>553.5</ele>
        <time>2016-07-24T11:14:05Z</time>
      </trkpt>
      <trkpt lat="42.41676" lon="0.11893">
        <ele>553.4</ele>
        <time>2016-07-24T11:14:06Z</time>
      </trkpt>
      <trkpt lat="42.41676" lon="0.11902">
        <ele>553.3</ele>
        <time>2016-07-24T11:14:07Z</time>
      </trkpt>
      <trkpt lat="42.41676" lon="0.11909">
        <ele>553.2</ele>
        <time>2016-07-24T11:14:08Z</time>
      </trkpt>
      <trkpt lat="42.41676" lon="0.11918">
        <ele>553.1</ele>
        <time>2016-07-24T11:14:09Z</time>
      </trkpt>
      <trkpt lat="42.41675" lon="0.11926">
        <ele>553</ele>
        <time>2016-07-24T11:14:10Z</time>
      </trkpt>
      <trkpt lat="42.41675" lon="0.11934">
        <ele>552.9</ele>
        <time>2016-07-24T11:14:11Z</time>
      </trkpt>
      <trkpt lat="42.41674" lon="0.11942">
        <ele>552.8</ele>
        <time>2016-07-24T11:14:12Z</time>
      </trkpt>
      <trkpt lat="42.41674" lon="0.11951">
        <ele>552.7</ele>
        <time>2016-07-24T11:14:13Z</time>
      </trkpt>
      <trkpt lat="42.41673" lon="0.11959">
        <ele>552.6</ele>
        <time>2016-07-24T11:14:14Z</time>
      </trkpt>
      <trkpt lat="42.41673" lon="0.11968">
        <ele>552.5</ele>
        <time>2016-07-24T11:14:15Z</time>
      </trkpt>
      <trkpt lat="42.41673" lon="0.11976">
        <ele>552.4</ele>
        <time>2016-07-24T11:14:16Z</time>
      </trkpt>
      <trkpt lat="42.41673" lon="0.11985">
        <ele>552.4</ele>
        <time>2016-07-24T11:14:17Z</time>
      </trkpt>
      <trkpt lat="42.41673" lon="0.11993">
        <ele>552.3</ele>
        <time>2016-07-24T11:14:18Z</time>
      </trkpt>
      <trkpt lat="42.41673" lon="0.12001">
        <ele>552.3</ele>
        <time>2016-07-24T11:14:19Z</time>
      </trkpt>
      <trkpt lat="42.41672" lon="0.12009">
        <ele>552.2</ele>
        <time>2016-07-24T11:14:20Z</time>
      </trkpt>
      <trkpt lat="42.4167" lon="0.12017">
        <ele>552.2</ele>
        <time>2016-07-24T11:14:21Z</time>
      </trkpt>
      <trkpt lat="42.41668" lon="0.12025">
        <ele>552.1</ele>
        <time>2016-07-24T11:14:22Z</time>
      </trkpt>
      <trkpt lat="42.41665" lon="0.12031">
        <ele>552.1</ele>
        <time>2016-07-24T11:14:23Z</time>
      </trkpt>
      <trkpt lat="42.41662" lon="0.12039">
        <ele>552</ele>
        <time>2016-07-24T11:14:24Z</time>
      </trkpt>
      <trkpt lat="42.41659" lon="0.12046">
        <ele>552</ele>
        <time>2016-07-24T11:14:25Z</time>
      </trkpt>
      <trkpt lat="42.41656" lon="0.12053">
        <ele>552</ele>
        <time>2016-07-24T11:14:26Z</time>
      </trkpt>
      <trkpt lat="42.41654" lon="0.1206">
        <ele>552</ele>
        <time>2016-07-24T11:14:27Z</time>
      </trkpt>
      <trkpt lat="42.41651" lon="0.12067">
        <ele>552</ele>
        <time>2016-07-24T11:14:28Z</time>
      </trkpt>
      <trkpt lat="42.41648" lon="0.12074">
        <ele>552</ele>
        <time>2016-07-24T11:14:29Z</time>
      </trkpt>
      <trkpt lat="42.41645" lon="0.12081">
        <ele>552</ele>
        <time>2016-07-24T11:14:30Z</time>
      </trkpt>
      <trkpt lat="42.41643" lon="0.12088">
        <ele>552</ele>
        <time>2016-07-24T11:14:31Z</time>
      </trkpt>
      <trkpt lat="42.4164" lon="0.12095">
        <ele>552</ele>
        <time>2016-07-24T11:14:32Z</time>
      </trkpt>
      <trkpt lat="42.41637" lon="0.12102">
        <ele>552</ele>
        <time>2016-07-24T11:14:33Z</time>
      </trkpt>
      <trkpt lat="42.41634" lon="0.12109">
        <ele>552</ele>
        <time>2016-07-24T11:14:34Z</time>
      </trkpt>
      <trkpt lat="42.41631" lon="0.12116">
        <ele>552</ele>
        <time>2016-07-24T11:14:35Z</time>
      </trkpt>
      <trkpt lat="42.41628" lon="0.12123">
        <ele>552</ele>
        <time>2016-07-24T11:14:36Z</time>
      </trkpt>
      <trkpt lat="42.41626" lon="0.12131">
        <ele>552.1</ele>
        <time>2016-07-24T11:14:37Z</time>
      </trkpt>
      <trkpt lat="42.41623" lon="0.12138">
        <ele>552.1</ele>
        <time>2016-07-24T11:14:38Z</time>
      </trkpt>
      <trkpt lat="42.41621" lon="0.12145">
        <ele>552.1</ele>
        <time>2016-07-24T11:14:39Z</time>
      </trkpt>
      <trkpt lat="42.41618" lon="0.12151">
        <ele>552.1</ele>
        <time>2016-07-24T11:14:40Z</time>
      </trkpt>
      <trkpt lat="42.41616" lon="0.12159">
        <ele>552</ele>
        <time>2016-07-24T11:14:41Z</time>
      </trkpt>
      <trkpt lat="42.41613" lon="0.12165">
        <ele>552</ele>
        <time>2016-07-24T11:14:42Z</time>
      </trkpt>
      <trkpt lat="42.4161" lon="0.12172">
        <ele>551.9</ele>
        <time>2016-07-24T11:14:43Z</time>
      </trkpt>
      <trkpt lat="42.41607" lon="0.12179">
        <ele>551.8</ele>
        <time>2016-07-24T11:14:44Z</time>
      </trkpt>
      <trkpt lat="42.41604" lon="0.12186">
        <ele>551.7</ele>
        <time>2016-07-24T11:14:45Z</time>
      </trkpt>
      <trkpt lat="42.41601" lon="0.12192">
        <ele>551.5</ele>
        <time>2016-07-24T11:14:46Z</time>
      </trkpt>
      <trkpt lat="42.41598" lon="0.12199">
        <ele>551.4</ele>
        <time>2016-07-24T11:14:47Z</time>
      </trkpt>
      <trkpt lat="42.41596" lon="0.12205">
        <ele>551.2</ele>
        <time>2016-07-24T11:14:48Z</time>
      </trkpt>
      <trkpt lat="42.41593" lon="0.12212">
        <ele>551</ele>
        <time>2016-07-24T11:14:49Z</time>
      </trkpt>
      <trkpt lat="42.4159" lon="0.1222">
        <ele>550.7</ele>
        <time>2016-07-24T11:14:50Z</time>
      </trkpt>
      <trkpt lat="42.41587" lon="0.12227">
        <ele>550.5</ele>
        <time>2016-07-24T11:14:51Z</time>
      </trkpt>
      <trkpt lat="42.41584" lon="0.12235">
        <ele>550.2</ele>
        <time>2016-07-24T11:14:52Z</time>
      </trkpt>
      <trkpt lat="42.41582" lon="0.12242">
        <ele>550</ele>
        <time>2016-07-24T11:14:53Z</time>
      </trkpt>
      <trkpt lat="42.4158" lon="0.12249">
        <ele>549.8</ele>
        <time>2016-07-24T11:14:54Z</time>
      </trkpt>
      <trkpt lat="42.41578" lon="0.12256">
        <ele>549.7</ele>
        <time>2016-07-24T11:14:55Z</time>
      </trkpt>
      <trkpt lat="42.41576" lon="0.12264">
        <ele>549.5</ele>
        <time>2016-07-24T11:14:56Z</time>
      </trkpt>
      <trkpt lat="42.41574" lon="0.12272">
        <ele>549.3</ele>
        <time>2016-07-24T11:14:57Z</time>
      </trkpt>
      <trkpt lat="42.41572" lon="0.1228">
        <ele>549.2</ele>
        <time>2016-07-24T11:14:58Z</time>
      </trkpt>
      <trkpt lat="42.4157" lon="0.12289">
        <ele>549</ele>
        <time>2016-07-24T11:14:59Z</time>
      </trkpt>
      <trkpt lat="42.41567" lon="0.12298">
        <ele>548.6</ele>
        <time>2016-07-24T11:15:00Z</time>
      </trkpt>
      <trkpt lat="42.41565" lon="0.12307">
        <ele>548.1</ele>
        <time>2016-07-24T11:15:01Z</time>
      </trkpt>
      <trkpt lat="42.41563" lon="0.12316">
        <ele>547.6</ele>
        <time>2016-07-24T11:15:02Z</time>
      </trkpt>
      <trkpt lat="42.41561" lon="0.12326">
        <ele>547.1</ele>
        <time>2016-07-24T11:15:03Z</time>
      </trkpt>
      <trkpt lat="42.41558" lon="0.12335">
        <ele>546.5</ele>
        <time>2016-07-24T11:15:04Z</time>
      </trkpt>
      <trkpt lat="42.41555" lon="0.12344">
        <ele>546</ele>
        <time>2016-07-24T11:15:05Z</time>
      </trkpt>
      <trkpt lat="42.41551" lon="0.12353">
        <ele>545.4</ele>
        <time>2016-07-24T11:15:06Z</time>
      </trkpt>
      <trkpt lat="42.41546" lon="0.12362">
        <ele>544.8</ele>
        <time>2016-07-24T11:15:07Z</time>
      </trkpt>
      <trkpt lat="42.41543" lon="0.12372">
        <ele>544.2</ele>
        <time>2016-07-24T11:15:08Z</time>
      </trkpt>
      <trkpt lat="42.41537" lon="0.12381">
        <ele>543.8</ele>
        <time>2016-07-24T11:15:09Z</time>
      </trkpt>
      <trkpt lat="42.41531" lon="0.1239">
        <ele>543.4</ele>
        <time>2016-07-24T11:15:10Z</time>
      </trkpt>
      <trkpt lat="42.41525" lon="0.12399">
        <ele>543.1</ele>
        <time>2016-07-24T11:15:11Z</time>
      </trkpt>
      <trkpt lat="42.41519" lon="0.12409">
        <ele>542.8</ele>
        <time>2016-07-24T11:15:12Z</time>
      </trkpt>
      <trkpt lat="42.41515" lon="0.12419">
        <ele>542.6</ele>
        <time>2016-07-24T11:15:13Z</time>
      </trkpt>
      <trkpt lat="42.41509" lon="0.12428">
        <ele>542.4</ele>
        <time>2016-07-24T11:15:14Z</time>
      </trkpt>
      <trkpt lat="42.41505" lon="0.12439">
        <ele>542.3</ele>
        <time>2016-07-24T11:15:15Z</time>
      </trkpt>
      <trkpt lat="42.415" lon="0.12449">
        <ele>542.2</ele>
        <time>2016-07-24T11:15:16Z</time>
      </trkpt>
      <trkpt lat="42.41496" lon="0.12458">
        <ele>542.1</ele>
        <time>2016-07-24T11:15:17Z</time>
      </trkpt>
      <trkpt lat="42.41493" lon="0.12469">
        <ele>542.1</ele>
        <time>2016-07-24T11:15:18Z</time>
      </trkpt>
      <trkpt lat="42.41488" lon="0.12477">
        <ele>542.1</ele>
        <time>2016-07-24T11:15:19Z</time>
      </trkpt>
      <trkpt lat="42.41484" lon="0.12485">
        <ele>542</ele>
        <time>2016-07-24T11:15:20Z</time>
      </trkpt>
      <trkpt lat="42.41479" lon="0.12493">
        <ele>542</ele>
        <time>2016-07-24T11:15:21Z</time>
      </trkpt>
      <trkpt lat="42.41475" lon="0.12501">
        <ele>541.9</ele>
        <time>2016-07-24T11:15:22Z</time>
      </trkpt>
      <trkpt lat="42.41471" lon="0.12508">
        <ele>541.8</ele>
        <time>2016-07-24T11:15:23Z</time>
      </trkpt>
      <trkpt lat="42.41466" lon="0.12515">
        <ele>541.7</ele>
        <time>2016-07-24T11:15:24Z</time>
      </trkpt>
      <trkpt lat="42.41461" lon="0.12521">
        <ele>541.5</ele>
        <time>2016-07-24T11:15:25Z</time>
      </trkpt>
      <trkpt lat="42.41458" lon="0.12528">
        <ele>541.3</ele>
        <time>2016-07-24T11:15:26Z</time>
      </trkpt>
      <trkpt lat="42.41454" lon="0.12535">
        <ele>541.1</ele>
        <time>2016-07-24T11:15:27Z</time>
      </trkpt>
      <trkpt lat="42.4145" lon="0.12541">
        <ele>540.9</ele>
        <time>2016-07-24T11:15:28Z</time>
      </trkpt>
      <trkpt lat="42.41446" lon="0.12546">
        <ele>540.9</ele>
        <time>2016-07-24T11:15:29Z</time>
      </trkpt>
      <trkpt lat="42.41442" lon="0.12551">
        <ele>540.9</ele>
        <time>2016-07-24T11:15:30Z</time>
      </trkpt>
      <trkpt lat="42.41439" lon="0.12557">
        <ele>540.9</ele>
        <time>2016-07-24T11:15:31Z</time>
      </trkpt>
      <trkpt lat="42.41436" lon="0.12561">
        <ele>541</ele>
        <time>2016-07-24T11:15:32Z</time>
      </trkpt>
      <trkpt lat="42.41432" lon="0.12568">
        <ele>541</ele>
        <time>2016-07-24T11:15:33Z</time>
      </trkpt>
      <trkpt lat="42.41429" lon="0.12574">
        <ele>541</ele>
        <time>2016-07-24T11:15:34Z</time>
      </trkpt>
      <trkpt lat="42.41425" lon="0.1258">
        <ele>541.1</ele>
        <time>2016-07-24T11:15:35Z</time>
      </trkpt>
      <trkpt lat="42.41422" lon="0.12585">
        <ele>541.1</ele>
        <time>2016-07-24T11:15:36Z</time>
      </trkpt>
      <trkpt lat="42.41419" lon="0.12589">
        <ele>541.1</ele>
        <time>2016-07-24T11:15:37Z</time>
      </trkpt>
      <trkpt lat="42.41417" lon="0.12594">
        <ele>541.1</ele>
        <time>2016-07-24T11:15:38Z</time>
      </trkpt>
      <trkpt lat="42.41414" lon="0.126">
        <ele>541.2</ele>
        <time>2016-07-24T11:15:39Z</time>
      </trkpt>
      <trkpt lat="42.41412" lon="0.12606">
        <ele>541.2</ele>
        <time>2016-07-24T11:15:40Z</time>
      </trkpt>
      <trkpt lat="42.41408" lon="0.12611">
        <ele>541.2</ele>
        <time>2016-07-24T11:15:41Z</time>
      </trkpt>
      <trkpt lat="42.41404" lon="0.12615">
        <ele>541.2</ele>
        <time>2016-07-24T11:15:42Z</time>
      </trkpt>
      <trkpt lat="42.41402" lon="0.12621">
        <ele>541.3</ele>
        <time>2016-07-24T11:15:43Z</time>
      </trkpt>
      <trkpt lat="42.41399" lon="0.12626">
        <ele>541.3</ele>
        <time>2016-07-24T11:15:44Z</time>
      </trkpt>
      <trkpt lat="42.41396" lon="0.12631">
        <ele>541.3</ele>
        <time>2016-07-24T11:15:45Z</time>
      </trkpt>
      <trkpt lat="42.41393" lon="0.12635">
        <ele>541.3</ele>
        <time>2016-07-24T11:15:46Z</time>
      </trkpt>
      <trkpt lat="42.41389" lon="0.12641">
        <ele>541.3</ele>
        <time>2016-07-24T11:15:47Z</time>
      </trkpt>
      <trkpt lat="42.41386" lon="0.12646">
        <ele>541.4</ele>
        <time>2016-07-24T11:15:48Z</time>
      </trkpt>
      <trkpt lat="42.41383" lon="0.12651">
        <ele>541.4</ele>
        <time>2016-07-24T11:15:49Z</time>
      </trkpt>
      <trkpt lat="42.4138" lon="0.12657">
        <ele>541.4</ele>
        <time>2016-07-24T11:15:50Z</time>
      </trkpt>
      <trkpt lat="42.41377" lon="0.12663">
        <ele>541.5</ele>
        <time>2016-07-24T11:15:51Z</time>
      </trkpt>
      <trkpt lat="42.41373" lon="0.12668">
        <ele>541.6</ele>
        <time>2016-07-24T11:15:52Z</time>
      </trkpt>
      <trkpt lat="42.41369" lon="0.12674">
        <ele>541.9</ele>
        <time>2016-07-24T11:15:53Z</time>
      </trkpt>
      <trkpt lat="42.41367" lon="0.12679">
        <ele>542</ele>
        <time>2016-07-24T11:15:54Z</time>
      </trkpt>
      <trkpt lat="42.41364" lon="0.12682">
        <ele>542.2</ele>
        <time>2016-07-24T11:15:55Z</time>
      </trkpt>
      <trkpt lat="42.41363" lon="0.12687">
        <ele>542.3</ele>
        <time>2016-07-24T11:15:56Z</time>
      </trkpt>
      <trkpt lat="42.41361" lon="0.12691">
        <ele>542.4</ele>
        <time>2016-07-24T11:15:57Z</time>
      </trkpt>
      <trkpt lat="42.41363" lon="0.12699">
        <ele>542.4</ele>
        <time>2016-07-24T11:15:59Z</time>
      </trkpt>
      <trkpt lat="42.41365" lon="0.12705">
        <ele>542.3</ele>
        <time>2016-07-24T11:16:00Z</time>
      </trkpt>
      <trkpt lat="42.41367" lon="0.12714">
        <ele>542.4</ele>
        <time>2016-07-24T11:16:02Z</time>
      </trkpt>
      <trkpt lat="42.4137" lon="0.12721">
        <ele>542.3</ele>
        <time>2016-07-24T11:16:03Z</time>
      </trkpt>
      <trkpt lat="42.41373" lon="0.12726">
        <ele>542.3</ele>
        <time>2016-07-24T11:16:04Z</time>
      </trkpt>
      <trkpt lat="42.41374" lon="0.12735">
        <ele>542.4</ele>
        <time>2016-07-24T11:16:05Z</time>
      </trkpt>
      <trkpt lat="42.41375" lon="0.12741">
        <ele>542.4</ele>
        <time>2016-07-24T11:16:06Z</time>
      </trkpt>
      <trkpt lat="42.41377" lon="0.12747">
        <ele>542.4</ele>
        <time>2016-07-24T11:16:07Z</time>
      </trkpt>
      <trkpt lat="42.41381" lon="0.12754">
        <ele>542.4</ele>
        <time>2016-07-24T11:16:08Z</time>
      </trkpt>
      <trkpt lat="42.41383" lon="0.12761">
        <ele>542.4</ele>
        <time>2016-07-24T11:16:09Z</time>
      </trkpt>
      <trkpt lat="42.41385" lon="0.12769">
        <ele>542.5</ele>
        <time>2016-07-24T11:16:10Z</time>
      </trkpt>
      <trkpt lat="42.41385" lon="0.12775">
        <ele>542.5</ele>
        <time>2016-07-24T11:16:11Z</time>
      </trkpt>
      <trkpt lat="42.41386" lon="0.12783">
        <ele>542.5</ele>
        <time>2016-07-24T11:16:12Z</time>
      </trkpt>
      <trkpt lat="42.41387" lon="0.1279">
        <ele>542.5</ele>
        <time>2016-07-24T11:16:13Z</time>
      </trkpt>
      <trkpt lat="42.41388" lon="0.12797">
        <ele>542.5</ele>
        <time>2016-07-24T11:16:14Z</time>
      </trkpt>
      <trkpt lat="42.41389" lon="0.12804">
        <ele>542.4</ele>
        <time>2016-07-24T11:16:15Z</time>
      </trkpt>
      <trkpt lat="42.41391" lon="0.12812">
        <ele>542.3</ele>
        <time>2016-07-24T11:16:16Z</time>
      </trkpt>
      <trkpt lat="42.41393" lon="0.1282">
        <ele>542.1</ele>
        <time>2016-07-24T11:16:17Z</time>
      </trkpt>
      <trkpt lat="42.41394" lon="0.12828">
        <ele>541.9</ele>
        <time>2016-07-24T11:16:18Z</time>
      </trkpt>
      <trkpt lat="42.41395" lon="0.12836">
        <ele>541.8</ele>
        <time>2016-07-24T11:16:19Z</time>
      </trkpt>
      <trkpt lat="42.41397" lon="0.12842">
        <ele>541.6</ele>
        <time>2016-07-24T11:16:20Z</time>
      </trkpt>
      <trkpt lat="42.41398" lon="0.1285">
        <ele>541.4</ele>
        <time>2016-07-24T11:16:21Z</time>
      </trkpt>
      <trkpt lat="42.41399" lon="0.12858">
        <ele>541.2</ele>
        <time>2016-07-24T11:16:22Z</time>
      </trkpt>
      <trkpt lat="42.41401" lon="0.12864">
        <ele>541</ele>
        <time>2016-07-24T11:16:23Z</time>
      </trkpt>
      <trkpt lat="42.414" lon="0.12874">
        <ele>540.9</ele>
        <time>2016-07-24T11:16:24Z</time>
      </trkpt>
      <trkpt lat="42.414" lon="0.12881">
        <ele>541</ele>
        <time>2016-07-24T11:16:25Z</time>
      </trkpt>
      <trkpt lat="42.41402" lon="0.12889">
        <ele>541.1</ele>
        <time>2016-07-24T11:16:26Z</time>
      </trkpt>
      <trkpt lat="42.41403" lon="0.12897">
        <ele>541.2</ele>
        <time>2016-07-24T11:16:27Z</time>
      </trkpt>
      <trkpt lat="42.41405" lon="0.12903">
        <ele>541.1</ele>
        <time>2016-07-24T11:16:28Z</time>
      </trkpt>
      <trkpt lat="42.41407" lon="0.1291">
        <ele>541.1</ele>
        <time>2016-07-24T11:16:29Z</time>
      </trkpt>
      <trkpt lat="42.41408" lon="0.12918">
        <ele>541.2</ele>
        <time>2016-07-24T11:16:30Z</time>
      </trkpt>
      <trkpt lat="42.41409" lon="0.12924">
        <ele>541.2</ele>
        <time>2016-07-24T11:16:31Z</time>
      </trkpt>
      <trkpt lat="42.4141" lon="0.12933">
        <ele>541.2</ele>
        <time>2016-07-24T11:16:32Z</time>
      </trkpt>
      <trkpt lat="42.41412" lon="0.12942">
        <ele>541.2</ele>
        <time>2016-07-24T11:16:33Z</time>
      </trkpt>
      <trkpt lat="42.41413" lon="0.12949">
        <ele>541.2</ele>
        <time>2016-07-24T11:16:34Z</time>
      </trkpt>
      <trkpt lat="42.41414" lon="0.12957">
        <ele>541.3</ele>
        <time>2016-07-24T11:16:35Z</time>
      </trkpt>
      <trkpt lat="42.41415" lon="0.12965">
        <ele>541.2</ele>
        <time>2016-07-24T11:16:36Z</time>
      </trkpt>
      <trkpt lat="42.41417" lon="0.12973">
        <ele>541</ele>
        <time>2016-07-24T11:16:37Z</time>
      </trkpt>
      <trkpt lat="42.41419" lon="0.12979">
        <ele>540.8</ele>
        <time>2016-07-24T11:16:38Z</time>
      </trkpt>
      <trkpt lat="42.41419" lon="0.12988">
        <ele>540.7</ele>
        <time>2016-07-24T11:16:39Z</time>
      </trkpt>
      <trkpt lat="42.41421" lon="0.12996">
        <ele>540.5</ele>
        <time>2016-07-24T11:16:40Z</time>
      </trkpt>
      <trkpt lat="42.41422" lon="0.13003">
        <ele>540.3</ele>
        <time>2016-07-24T11:16:41Z</time>
      </trkpt>
      <trkpt lat="42.41424" lon="0.13011">
        <ele>540.1</ele>
        <time>2016-07-24T11:16:42Z</time>
      </trkpt>
      <trkpt lat="42.41425" lon="0.13019">
        <ele>540</ele>
        <time>2016-07-24T11:16:43Z</time>
      </trkpt>
      <trkpt lat="42.41427" lon="0.13026">
        <ele>539.8</ele>
        <time>2016-07-24T11:16:44Z</time>
      </trkpt>
      <trkpt lat="42.41428" lon="0.13035">
        <ele>539.7</ele>
        <time>2016-07-24T11:16:45Z</time>
      </trkpt>
      <trkpt lat="42.4143" lon="0.13043">
        <ele>539.4</ele>
        <time>2016-07-24T11:16:46Z</time>
      </trkpt>
      <trkpt lat="42.4143" lon="0.13051">
        <ele>539.1</ele>
        <time>2016-07-24T11:16:47Z</time>
      </trkpt>
      <trkpt lat="42.41432" lon="0.13059">
        <ele>538.7</ele>
        <time>2016-07-24T11:16:48Z</time>
      </trkpt>
      <trkpt lat="42.41435" lon="0.13066">
        <ele>538.4</ele>
        <time>2016-07-24T11:16:49Z</time>
      </trkpt>
      <trkpt lat="42.41436" lon="0.13072">
        <ele>538.1</ele>
        <time>2016-07-24T11:16:50Z</time>
      </trkpt>
      <trkpt lat="42.41438" lon="0.13078">
        <ele>537.8</ele>
        <time>2016-07-24T11:16:51Z</time>
      </trkpt>
      <trkpt lat="42.41439" lon="0.13086">
        <ele>537.6</ele>
        <time>2016-07-24T11:16:52Z</time>
      </trkpt>
      <trkpt lat="42.41441" lon="0.13093">
        <ele>537.3</ele>
        <time>2016-07-24T11:16:53Z</time>
      </trkpt>
      <trkpt lat="42.41443" lon="0.131">
        <ele>537</ele>
        <time>2016-07-24T11:16:54Z</time>
      </trkpt>
      <trkpt lat="42.41443" lon="0.13107">
        <ele>537</ele>
        <time>2016-07-24T11:16:55Z</time>
      </trkpt>
      <trkpt lat="42.41445" lon="0.13115">
        <ele>536.8</ele>
        <time>2016-07-24T11:16:56Z</time>
      </trkpt>
      <trkpt lat="42.41446" lon="0.13123">
        <ele>536.6</ele>
        <time>2016-07-24T11:16:57Z</time>
      </trkpt>
      <trkpt lat="42.41447" lon="0.13131">
        <ele>536.5</ele>
        <time>2016-07-24T11:16:58Z</time>
      </trkpt>
      <trkpt lat="42.41449" lon="0.13139">
        <ele>536.3</ele>
        <time>2016-07-24T11:16:59Z</time>
      </trkpt>
      <trkpt lat="42.4145" lon="0.13146">
        <ele>536.1</ele>
        <time>2016-07-24T11:17:00Z</time>
      </trkpt>
      <trkpt lat="42.41452" lon="0.13154">
        <ele>535.9</ele>
        <time>2016-07-24T11:17:01Z</time>
      </trkpt>
      <trkpt lat="42.41454" lon="0.1316">
        <ele>535.8</ele>
        <time>2016-07-24T11:17:02Z</time>
      </trkpt>
      <trkpt lat="42.41455" lon="0.13167">
        <ele>535.6</ele>
        <time>2016-07-24T11:17:03Z</time>
      </trkpt>
      <trkpt lat="42.41457" lon="0.13175">
        <ele>535.5</ele>
        <time>2016-07-24T11:17:04Z</time>
      </trkpt>
      <trkpt lat="42.4146" lon="0.13182">
        <ele>535.3</ele>
        <time>2016-07-24T11:17:05Z</time>
      </trkpt>
      <trkpt lat="42.41461" lon="0.13189">
        <ele>535.2</ele>
        <time>2016-07-24T11:17:06Z</time>
      </trkpt>
      <trkpt lat="42.41462" lon="0.13197">
        <ele>535.1</ele>
        <time>2016-07-24T11:17:07Z</time>
      </trkpt>
      <trkpt lat="42.41463" lon="0.13206">
        <ele>535</ele>
        <time>2016-07-24T11:17:08Z</time>
      </trkpt>
      <trkpt lat="42.41465" lon="0.13211">
        <ele>534.9</ele>
        <time>2016-07-24T11:17:09Z</time>
      </trkpt>
      <trkpt lat="42.41466" lon="0.13219">
        <ele>534.8</ele>
        <time>2016-07-24T11:17:10Z</time>
      </trkpt>
      <trkpt lat="42.41467" lon="0.13227">
        <ele>534.7</ele>
        <time>2016-07-24T11:17:11Z</time>
      </trkpt>
      <trkpt lat="42.41469" lon="0.13234">
        <ele>534.5</ele>
        <time>2016-07-24T11:17:12Z</time>
      </trkpt>
      <trkpt lat="42.4147" lon="0.13242">
        <ele>534.4</ele>
        <time>2016-07-24T11:17:13Z</time>
      </trkpt>
      <trkpt lat="42.4147" lon="0.1325">
        <ele>534.3</ele>
        <time>2016-07-24T11:17:14Z</time>
      </trkpt>
      <trkpt lat="42.4147" lon="0.13257">
        <ele>534.2</ele>
        <time>2016-07-24T11:17:15Z</time>
      </trkpt>
      <trkpt lat="42.4147" lon="0.13265">
        <ele>534.1</ele>
        <time>2016-07-24T11:17:16Z</time>
      </trkpt>
      <trkpt lat="42.41471" lon="0.13274">
        <ele>534</ele>
        <time>2016-07-24T11:17:17Z</time>
      </trkpt>
      <trkpt lat="42.4147" lon="0.1328">
        <ele>533.9</ele>
        <time>2016-07-24T11:17:18Z</time>
      </trkpt>
      <trkpt lat="42.4147" lon="0.13289">
        <ele>533.8</ele>
        <time>2016-07-24T11:17:19Z</time>
      </trkpt>
      <trkpt lat="42.41467" lon="0.13297">
        <ele>533.8</ele>
        <time>2016-07-24T11:17:20Z</time>
      </trkpt>
      <trkpt lat="42.41465" lon="0.13305">
        <ele>534</ele>
        <time>2016-07-24T11:17:21Z</time>
      </trkpt>
      <trkpt lat="42.41464" lon="0.13312">
        <ele>534.1</ele>
        <time>2016-07-24T11:17:22Z</time>
      </trkpt>
      <trkpt lat="42.41464" lon="0.13322">
        <ele>534.2</ele>
        <time>2016-07-24T11:17:23Z</time>
      </trkpt>
      <trkpt lat="42.41462" lon="0.13329">
        <ele>534.3</ele>
        <time>2016-07-24T11:17:24Z</time>
      </trkpt>
      <trkpt lat="42.4146" lon="0.13337">
        <ele>534.5</ele>
        <time>2016-07-24T11:17:25Z</time>
      </trkpt>
      <trkpt lat="42.41457" lon="0.13346">
        <ele>534.7</ele>
        <time>2016-07-24T11:17:26Z</time>
      </trkpt>
      <trkpt lat="42.41455" lon="0.13353">
        <ele>534.8</ele>
        <time>2016-07-24T11:17:27Z</time>
      </trkpt>
      <trkpt lat="42.41454" lon="0.1336">
        <ele>534.8</ele>
        <time>2016-07-24T11:17:28Z</time>
      </trkpt>
      <trkpt lat="42.41452" lon="0.13368">
        <ele>534.9</ele>
        <time>2016-07-24T11:17:29Z</time>
      </trkpt>
      <trkpt lat="42.41451" lon="0.13376">
        <ele>535</ele>
        <time>2016-07-24T11:17:30Z</time>
      </trkpt>
      <trkpt lat="42.4145" lon="0.13383">
        <ele>534.8</ele>
        <time>2016-07-24T11:17:31Z</time>
      </trkpt>
      <trkpt lat="42.41449" lon="0.13391">
        <ele>534.6</ele>
        <time>2016-07-24T11:17:32Z</time>
      </trkpt>
      <trkpt lat="42.41448" lon="0.13399">
        <ele>534.4</ele>
        <time>2016-07-24T11:17:33Z</time>
      </trkpt>
      <trkpt lat="42.41447" lon="0.13406">
        <ele>534.3</ele>
        <time>2016-07-24T11:17:34Z</time>
      </trkpt>
      <trkpt lat="42.41446" lon="0.13415">
        <ele>534</ele>
        <time>2016-07-24T11:17:35Z</time>
      </trkpt>
      <trkpt lat="42.41446" lon="0.13424">
        <ele>533.8</ele>
        <time>2016-07-24T11:17:36Z</time>
      </trkpt>
      <trkpt lat="42.41444" lon="0.13432">
        <ele>533.6</ele>
        <time>2016-07-24T11:17:37Z</time>
      </trkpt>
      <trkpt lat="42.41443" lon="0.13438">
        <ele>533.5</ele>
        <time>2016-07-24T11:17:38Z</time>
      </trkpt>
      <trkpt lat="42.41441" lon="0.13445">
        <ele>533.3</ele>
        <time>2016-07-24T11:17:39Z</time>
      </trkpt>
      <trkpt lat="42.41437" lon="0.13453">
        <ele>533.1</ele>
        <time>2016-07-24T11:17:40Z</time>
      </trkpt>
      <trkpt lat="42.41435" lon="0.13459">
        <ele>533</ele>
        <time>2016-07-24T11:17:41Z</time>
      </trkpt>
      <trkpt lat="42.41433" lon="0.13466">
        <ele>532.9</ele>
        <time>2016-07-24T11:17:42Z</time>
      </trkpt>
      <trkpt lat="42.41431" lon="0.13474">
        <ele>532.7</ele>
        <time>2016-07-24T11:17:43Z</time>
      </trkpt>
      <trkpt lat="42.41428" lon="0.13482">
        <ele>532.5</ele>
        <time>2016-07-24T11:17:44Z</time>
      </trkpt>
      <trkpt lat="42.41427" lon="0.13489">
        <ele>532.3</ele>
        <time>2016-07-24T11:17:45Z</time>
      </trkpt>
      <trkpt lat="42.41425" lon="0.13497">
        <ele>532.2</ele>
        <time>2016-07-24T11:17:46Z</time>
      </trkpt>
      <trkpt lat="42.41422" lon="0.13504">
        <ele>532</ele>
        <time>2016-07-24T11:17:47Z</time>
      </trkpt>
      <trkpt lat="42.4142" lon="0.1351">
        <ele>531.8</ele>
        <time>2016-07-24T11:17:48Z</time>
      </trkpt>
      <trkpt lat="42.41418" lon="0.13517">
        <ele>531.6</ele>
        <time>2016-07-24T11:17:49Z</time>
      </trkpt>
      <trkpt lat="42.41416" lon="0.13524">
        <ele>531.4</ele>
        <time>2016-07-24T11:17:50Z</time>
      </trkpt>
      <trkpt lat="42.41413" lon="0.1353">
        <ele>531.2</ele>
        <time>2016-07-24T11:17:51Z</time>
      </trkpt>
      <trkpt lat="42.4141" lon="0.13536">
        <ele>531</ele>
        <time>2016-07-24T11:17:52Z</time>
      </trkpt>
      <trkpt lat="42.41407" lon="0.13541">
        <ele>530.8</ele>
        <time>2016-07-24T11:17:53Z</time>
      </trkpt>
      <trkpt lat="42.41403" lon="0.13547">
        <ele>530.7</ele>
        <time>2016-07-24T11:17:54Z</time>
      </trkpt>
      <trkpt lat="42.414" lon="0.13554">
        <ele>530.7</ele>
        <time>2016-07-24T11:17:55Z</time>
      </trkpt>
      <trkpt lat="42.41398" lon="0.13561">
        <ele>530.7</ele>
        <time>2016-07-24T11:17:56Z</time>
      </trkpt>
      <trkpt lat="42.41395" lon="0.13568">
        <ele>530.6</ele>
        <time>2016-07-24T11:17:57Z</time>
      </trkpt>
      <trkpt lat="42.41391" lon="0.13573">
        <ele>530.6</ele>
        <time>2016-07-24T11:17:58Z</time>
      </trkpt>
      <trkpt lat="42.41388" lon="0.13579">
        <ele>530.6</ele>
        <time>2016-07-24T11:17:59Z</time>
      </trkpt>
      <trkpt lat="42.41384" lon="0.13585">
        <ele>530.6</ele>
        <time>2016-07-24T11:18:00Z</time>
      </trkpt>
      <trkpt lat="42.41381" lon="0.13592">
        <ele>530.7</ele>
        <time>2016-07-24T11:18:01Z</time>
      </trkpt>
      <trkpt lat="42.41379" lon="0.13597">
        <ele>530.7</ele>
        <time>2016-07-24T11:18:02Z</time>
      </trkpt>
      <trkpt lat="42.41374" lon="0.13603">
        <ele>530.8</ele>
        <time>2016-07-24T11:18:03Z</time>
      </trkpt>
      <trkpt lat="42.4137" lon="0.13609">
        <ele>531</ele>
        <time>2016-07-24T11:18:04Z</time>
      </trkpt>
      <trkpt lat="42.41368" lon="0.13615">
        <ele>531.1</ele>
        <time>2016-07-24T11:18:05Z</time>
      </trkpt>
      <trkpt lat="42.41364" lon="0.13621">
        <ele>531.2</ele>
        <time>2016-07-24T11:18:06Z</time>
      </trkpt>
      <trkpt lat="42.4136" lon="0.13628">
        <ele>531.3</ele>
        <time>2016-07-24T11:18:07Z</time>
      </trkpt>
      <trkpt lat="42.41357" lon="0.13634">
        <ele>531.4</ele>
        <time>2016-07-24T11:18:08Z</time>
      </trkpt>
      <trkpt lat="42.41354" lon="0.1364">
        <ele>531.4</ele>
        <time>2016-07-24T11:18:09Z</time>
      </trkpt>
      <trkpt lat="42.4135" lon="0.13647">
        <ele>531.4</ele>
        <time>2016-07-24T11:18:10Z</time>
      </trkpt>
      <trkpt lat="42.41346" lon="0.13652">
        <ele>531.5</ele>
        <time>2016-07-24T11:18:11Z</time>
      </trkpt>
      <trkpt lat="42.41344" lon="0.13657">
        <ele>531.5</ele>
        <time>2016-07-24T11:18:12Z</time>
      </trkpt>
      <trkpt lat="42.4134" lon="0.13661">
        <ele>531.5</ele>
        <time>2016-07-24T11:18:13Z</time>
      </trkpt>
      <trkpt lat="42.41336" lon="0.13668">
        <ele>531.4</ele>
        <time>2016-07-24T11:18:14Z</time>
      </trkpt>
      <trkpt lat="42.41333" lon="0.13675">
        <ele>531.4</ele>
        <time>2016-07-24T11:18:15Z</time>
      </trkpt>
      <trkpt lat="42.4133" lon="0.13682">
        <ele>531.3</ele>
        <time>2016-07-24T11:18:16Z</time>
      </trkpt>
      <trkpt lat="42.41327" lon="0.13688">
        <ele>531.3</ele>
        <time>2016-07-24T11:18:17Z</time>
      </trkpt>
      <trkpt lat="42.41323" lon="0.13696">
        <ele>531.2</ele>
        <time>2016-07-24T11:18:18Z</time>
      </trkpt>
      <trkpt lat="42.41318" lon="0.13702">
        <ele>531.1</ele>
        <time>2016-07-24T11:18:19Z</time>
      </trkpt>
      <trkpt lat="42.41315" lon="0.13708">
        <ele>531</ele>
        <time>2016-07-24T11:18:20Z</time>
      </trkpt>
      <trkpt lat="42.41311" lon="0.13715">
        <ele>531</ele>
        <time>2016-07-24T11:18:21Z</time>
      </trkpt>
      <trkpt lat="42.41308" lon="0.13722">
        <ele>531.1</ele>
        <time>2016-07-24T11:18:22Z</time>
      </trkpt>
      <trkpt lat="42.41306" lon="0.13729">
        <ele>531.2</ele>
        <time>2016-07-24T11:18:23Z</time>
      </trkpt>
      <trkpt lat="42.41303" lon="0.13734">
        <ele>531.2</ele>
        <time>2016-07-24T11:18:24Z</time>
      </trkpt>
      <trkpt lat="42.413" lon="0.13741">
        <ele>531.3</ele>
        <time>2016-07-24T11:18:25Z</time>
      </trkpt>
      <trkpt lat="42.41298" lon="0.13748">
        <ele>531.4</ele>
        <time>2016-07-24T11:18:26Z</time>
      </trkpt>
      <trkpt lat="42.41295" lon="0.13754">
        <ele>531.5</ele>
        <time>2016-07-24T11:18:27Z</time>
      </trkpt>
      <trkpt lat="42.41292" lon="0.1376">
        <ele>531.6</ele>
        <time>2016-07-24T11:18:28Z</time>
      </trkpt>
      <trkpt lat="42.4129" lon="0.13767">
        <ele>531.9</ele>
        <time>2016-07-24T11:18:29Z</time>
      </trkpt>
      <trkpt lat="42.41288" lon="0.13775">
        <ele>532.2</ele>
        <time>2016-07-24T11:18:30Z</time>
      </trkpt>
      <trkpt lat="42.41286" lon="0.13782">
        <ele>532.4</ele>
        <time>2016-07-24T11:18:31Z</time>
      </trkpt>
      <trkpt lat="42.41286" lon="0.13791">
        <ele>532.4</ele>
        <time>2016-07-24T11:18:32Z</time>
      </trkpt>
      <trkpt lat="42.41285" lon="0.13798">
        <ele>532.5</ele>
        <time>2016-07-24T11:18:33Z</time>
      </trkpt>
      <trkpt lat="42.41282" lon="0.13804">
        <ele>532.7</ele>
        <time>2016-07-24T11:18:34Z</time>
      </trkpt>
      <trkpt lat="42.4128" lon="0.13812">
        <ele>532.7</ele>
        <time>2016-07-24T11:18:35Z</time>
      </trkpt>
      <trkpt lat="42.41279" lon="0.13819">
        <ele>532.8</ele>
        <time>2016-07-24T11:18:36Z</time>
      </trkpt>
      <trkpt lat="42.41277" lon="0.13827">
        <ele>532.8</ele>
        <time>2016-07-24T11:18:37Z</time>
      </trkpt>
      <trkpt lat="42.41276" lon="0.13835">
        <ele>532.8</ele>
        <time>2016-07-24T11:18:38Z</time>
      </trkpt>
      <trkpt lat="42.41275" lon="0.13844">
        <ele>532.8</ele>
        <time>2016-07-24T11:18:39Z</time>
      </trkpt>
      <trkpt lat="42.41276" lon="0.13851">
        <ele>532.6</ele>
        <time>2016-07-24T11:18:40Z</time>
      </trkpt>
      <trkpt lat="42.41274" lon="0.13856">
        <ele>532.7</ele>
        <time>2016-07-24T11:18:41Z</time>
      </trkpt>
      <trkpt lat="42.41274" lon="0.13863">
        <ele>532.6</ele>
        <time>2016-07-24T11:18:42Z</time>
      </trkpt>
      <trkpt lat="42.41274" lon="0.13869">
        <ele>532.6</ele>
        <time>2016-07-24T11:18:43Z</time>
      </trkpt>
      <trkpt lat="42.41273" lon="0.13876">
        <ele>532.5</ele>
        <time>2016-07-24T11:18:44Z</time>
      </trkpt>
      <trkpt lat="42.41273" lon="0.13884">
        <ele>532.4</ele>
        <time>2016-07-24T11:18:45Z</time>
      </trkpt>
      <trkpt lat="42.41274" lon="0.13892">
        <ele>532.1</ele>
        <time>2016-07-24T11:18:46Z</time>
      </trkpt>
      <trkpt lat="42.41274" lon="0.13899">
        <ele>531.9</ele>
        <time>2016-07-24T11:18:47Z</time>
      </trkpt>
      <trkpt lat="42.41275" lon="0.13907">
        <ele>531.7</ele>
        <time>2016-07-24T11:18:48Z</time>
      </trkpt>
      <trkpt lat="42.41274" lon="0.13914">
        <ele>531.6</ele>
        <time>2016-07-24T11:18:49Z</time>
      </trkpt>
      <trkpt lat="42.41274" lon="0.13921">
        <ele>531.5</ele>
        <time>2016-07-24T11:18:50Z</time>
      </trkpt>
      <trkpt lat="42.41274" lon="0.13928">
        <ele>531.3</ele>
        <time>2016-07-24T11:18:51Z</time>
      </trkpt>
      <trkpt lat="42.41273" lon="0.13935">
        <ele>531.3</ele>
        <time>2016-07-24T11:18:52Z</time>
      </trkpt>
      <trkpt lat="42.41271" lon="0.13942">
        <ele>531.3</ele>
        <time>2016-07-24T11:18:53Z</time>
      </trkpt>
      <trkpt lat="42.41269" lon="0.13947">
        <ele>531.4</ele>
        <time>2016-07-24T11:18:54Z</time>
      </trkpt>
      <trkpt lat="42.41267" lon="0.13951">
        <ele>531.5</ele>
        <time>2016-07-24T11:18:55Z</time>
      </trkpt>
      <trkpt lat="42.41266" lon="0.13955">
        <ele>531.5</ele>
        <time>2016-07-24T11:18:56Z</time>
      </trkpt>
      <trkpt lat="42.41263" lon="0.13959">
        <ele>531.8</ele>
        <time>2016-07-24T11:18:57Z</time>
      </trkpt>
      <trkpt lat="42.41259" lon="0.13962">
        <ele>532.3</ele>
        <time>2016-07-24T11:18:58Z</time>
      </trkpt>
      <trkpt lat="42.41254" lon="0.13965">
        <ele>532.8</ele>
        <time>2016-07-24T11:18:59Z</time>
      </trkpt>
      <trkpt lat="42.41251" lon="0.13967">
        <ele>533.1</ele>
        <time>2016-07-24T11:19:00Z</time>
      </trkpt>
      <trkpt lat="42.41248" lon="0.13968">
        <ele>533.4</ele>
        <time>2016-07-24T11:19:02Z</time>
      </trkpt>
      <trkpt lat="42.41246" lon="0.1397">
        <ele>533.7</ele>
        <time>2016-07-24T11:19:03Z</time>
      </trkpt>
      <trkpt lat="42.41243" lon="0.13973">
        <ele>533.9</ele>
        <time>2016-07-24T11:19:05Z</time>
      </trkpt>
      <trkpt lat="42.4124" lon="0.13975">
        <ele>534.3</ele>
        <time>2016-07-24T11:19:07Z</time>
      </trkpt>
      <trkpt lat="42.41237" lon="0.13977">
        <ele>534.5</ele>
        <time>2016-07-24T11:19:08Z</time>
      </trkpt>
      <trkpt lat="42.41234" lon="0.13979">
        <ele>534.9</ele>
        <time>2016-07-24T11:19:09Z</time>
      </trkpt>
      <trkpt lat="42.4123" lon="0.13981">
        <ele>535.2</ele>
        <time>2016-07-24T11:19:10Z</time>
      </trkpt>
      <trkpt lat="42.41226" lon="0.13983">
        <ele>535.6</ele>
        <time>2016-07-24T11:19:11Z</time>
      </trkpt>
      <trkpt lat="42.41222" lon="0.13986">
        <ele>535.9</ele>
        <time>2016-07-24T11:19:12Z</time>
      </trkpt>
      <trkpt lat="42.41219" lon="0.1399">
        <ele>536.2</ele>
        <time>2016-07-24T11:19:13Z</time>
      </trkpt>
      <trkpt lat="42.41217" lon="0.13994">
        <ele>536.3</ele>
        <time>2016-07-24T11:19:14Z</time>
      </trkpt>
      <trkpt lat="42.41216" lon="0.13998">
        <ele>536.4</ele>
        <time>2016-07-24T11:19:15Z</time>
      </trkpt>
      <trkpt lat="42.41216" lon="0.14004">
        <ele>536.5</ele>
        <time>2016-07-24T11:19:16Z</time>
      </trkpt>
      <trkpt lat="42.41215" lon="0.14009">
        <ele>536.6</ele>
        <time>2016-07-24T11:19:17Z</time>
      </trkpt>
      <trkpt lat="42.41215" lon="0.14014">
        <ele>536.5</ele>
        <time>2016-07-24T11:19:18Z</time>
      </trkpt>
      <trkpt lat="42.41217" lon="0.14019">
        <ele>536.5</ele>
        <time>2016-07-24T11:19:19Z</time>
      </trkpt>
      <trkpt lat="42.41219" lon="0.14024">
        <ele>536.4</ele>
        <time>2016-07-24T11:19:20Z</time>
      </trkpt>
      <trkpt lat="42.41222" lon="0.14027">
        <ele>536.2</ele>
        <time>2016-07-24T11:19:21Z</time>
      </trkpt>
      <trkpt lat="42.41224" lon="0.14031">
        <ele>536.1</ele>
        <time>2016-07-24T11:19:22Z</time>
      </trkpt>
      <trkpt lat="42.41226" lon="0.14035">
        <ele>536.1</ele>
        <time>2016-07-24T11:19:23Z</time>
      </trkpt>
      <trkpt lat="42.41228" lon="0.14038">
        <ele>536</ele>
        <time>2016-07-24T11:19:24Z</time>
      </trkpt>
      <trkpt lat="42.4123" lon="0.1404">
        <ele>536</ele>
        <time>2016-07-24T11:19:25Z</time>
      </trkpt>
      <trkpt lat="42.41232" lon="0.14043">
        <ele>536.1</ele>
        <time>2016-07-24T11:19:26Z</time>
      </trkpt>
      <trkpt lat="42.41235" lon="0.14046">
        <ele>536.3</ele>
        <time>2016-07-24T11:19:27Z</time>
      </trkpt>
      <trkpt lat="42.41238" lon="0.14048">
        <ele>536.3</ele>
        <time>2016-07-24T11:19:28Z</time>
      </trkpt>
      <trkpt lat="42.41242" lon="0.14049">
        <ele>536.3</ele>
        <time>2016-07-24T11:19:29Z</time>
      </trkpt>
      <trkpt lat="42.41246" lon="0.1405">
        <ele>536.2</ele>
        <time>2016-07-24T11:19:30Z</time>
      </trkpt>
      <trkpt lat="42.4125" lon="0.14051">
        <ele>536</ele>
        <time>2016-07-24T11:19:31Z</time>
      </trkpt>
      <trkpt lat="42.41255" lon="0.14051">
        <ele>535.7</ele>
        <time>2016-07-24T11:19:32Z</time>
      </trkpt>
      <trkpt lat="42.41259" lon="0.14051">
        <ele>535.4</ele>
        <time>2016-07-24T11:19:33Z</time>
      </trkpt>
      <trkpt lat="42.41264" lon="0.1405">
        <ele>535.1</ele>
        <time>2016-07-24T11:19:34Z</time>
      </trkpt>
      <trkpt lat="42.41268" lon="0.14049">
        <ele>534.8</ele>
        <time>2016-07-24T11:19:35Z</time>
      </trkpt>
      <trkpt lat="42.41273" lon="0.14046">
        <ele>534.2</ele>
        <time>2016-07-24T11:19:36Z</time>
      </trkpt>
      <trkpt lat="42.41279" lon="0.14045">
        <ele>533.8</ele>
        <time>2016-07-24T11:19:37Z</time>
      </trkpt>
      <trkpt lat="42.41284" lon="0.14044">
        <ele>533.5</ele>
        <time>2016-07-24T11:19:38Z</time>
      </trkpt>
      <trkpt lat="42.41289" lon="0.14043">
        <ele>533.2</ele>
        <time>2016-07-24T11:19:39Z</time>
      </trkpt>
      <trkpt lat="42.41293" lon="0.14044">
        <ele>533</ele>
        <time>2016-07-24T11:19:40Z</time>
      </trkpt>
      <trkpt lat="42.41297" lon="0.14044">
        <ele>532.8</ele>
        <time>2016-07-24T11:19:41Z</time>
      </trkpt>
      <trkpt lat="42.41301" lon="0.14041">
        <ele>532.4</ele>
        <time>2016-07-24T11:19:42Z</time>
      </trkpt>
      <trkpt lat="42.41306" lon="0.14041">
        <ele>532.1</ele>
        <time>2016-07-24T11:19:43Z</time>
      </trkpt>
      <trkpt lat="42.4131" lon="0.14041">
        <ele>531.9</ele>
        <time>2016-07-24T11:19:44Z</time>
      </trkpt>
      <trkpt lat="42.41315" lon="0.14041">
        <ele>531.6</ele>
        <time>2016-07-24T11:19:45Z</time>
      </trkpt>
      <trkpt lat="42.41319" lon="0.1404">
        <ele>531.3</ele>
        <time>2016-07-24T11:19:46Z</time>
      </trkpt>
      <trkpt lat="42.41323" lon="0.1404">
        <ele>531.1</ele>
        <time>2016-07-24T11:19:47Z</time>
      </trkpt>
      <trkpt lat="42.41326" lon="0.14039">
        <ele>530.9</ele>
        <time>2016-07-24T11:19:48Z</time>
      </trkpt>
      <trkpt lat="42.41331" lon="0.14039">
        <ele>530.6</ele>
        <time>2016-07-24T11:19:49Z</time>
      </trkpt>
      <trkpt lat="42.41335" lon="0.14039">
        <ele>530.3</ele>
        <time>2016-07-24T11:19:50Z</time>
      </trkpt>
      <trkpt lat="42.4134" lon="0.14037">
        <ele>530</ele>
        <time>2016-07-24T11:19:51Z</time>
      </trkpt>
      <trkpt lat="42.41344" lon="0.14037">
        <ele>529.7</ele>
        <time>2016-07-24T11:19:52Z</time>
      </trkpt>
      <trkpt lat="42.41348" lon="0.14037">
        <ele>529.5</ele>
        <time>2016-07-24T11:19:53Z</time>
      </trkpt>
      <trkpt lat="42.41353" lon="0.14038">
        <ele>529.3</ele>
        <time>2016-07-24T11:19:54Z</time>
      </trkpt>
      <trkpt lat="42.41356" lon="0.14037">
        <ele>529</ele>
        <time>2016-07-24T11:19:55Z</time>
      </trkpt>
      <trkpt lat="42.41361" lon="0.14036">
        <ele>528.8</ele>
        <time>2016-07-24T11:19:56Z</time>
      </trkpt>
      <trkpt lat="42.41365" lon="0.14036">
        <ele>528.5</ele>
        <time>2016-07-24T11:19:57Z</time>
      </trkpt>
      <trkpt lat="42.4137" lon="0.14035">
        <ele>528.2</ele>
        <time>2016-07-24T11:19:58Z</time>
      </trkpt>
      <trkpt lat="42.41375" lon="0.14034">
        <ele>527.9</ele>
        <time>2016-07-24T11:19:59Z</time>
      </trkpt>
      <trkpt lat="42.4138" lon="0.14035">
        <ele>528.2</ele>
        <time>2016-07-24T11:20:00Z</time>
      </trkpt>
      <trkpt lat="42.41384" lon="0.14034">
        <ele>528.5</ele>
        <time>2016-07-24T11:20:01Z</time>
      </trkpt>
      <trkpt lat="42.41389" lon="0.14036">
        <ele>528.9</ele>
        <time>2016-07-24T11:20:02Z</time>
      </trkpt>
      <trkpt lat="42.41392" lon="0.14035">
        <ele>529.1</ele>
        <time>2016-07-24T11:20:03Z</time>
      </trkpt>
      <trkpt lat="42.41397" lon="0.14034">
        <ele>529.4</ele>
        <time>2016-07-24T11:20:04Z</time>
      </trkpt>
      <trkpt lat="42.41402" lon="0.14032">
        <ele>529.7</ele>
        <time>2016-07-24T11:20:05Z</time>
      </trkpt>
      <trkpt lat="42.41407" lon="0.14031">
        <ele>530</ele>
        <time>2016-07-24T11:20:06Z</time>
      </trkpt>
      <trkpt lat="42.41412" lon="0.14029">
        <ele>530.3</ele>
        <time>2016-07-24T11:20:08Z</time>
      </trkpt>
      <trkpt lat="42.41416" lon="0.14029">
        <ele>530.6</ele>
        <time>2016-07-24T11:20:09Z</time>
      </trkpt>
      <trkpt lat="42.41422" lon="0.14029">
        <ele>531</ele>
        <time>2016-07-24T11:20:10Z</time>
      </trkpt>
      <trkpt lat="42.41428" lon="0.14028">
        <ele>531.3</ele>
        <time>2016-07-24T11:20:11Z</time>
      </trkpt>
      <trkpt lat="42.41432" lon="0.14028">
        <ele>531.6</ele>
        <time>2016-07-24T11:20:12Z</time>
      </trkpt>
      <trkpt lat="42.41436" lon="0.14028">
        <ele>531.9</ele>
        <time>2016-07-24T11:20:13Z</time>
      </trkpt>
      <trkpt lat="42.41439" lon="0.14028">
        <ele>532.1</ele>
        <time>2016-07-24T11:20:14Z</time>
      </trkpt>
      <trkpt lat="42.41442" lon="0.14028">
        <ele>532.3</ele>
        <time>2016-07-24T11:20:15Z</time>
      </trkpt>
      <trkpt lat="42.41447" lon="0.14027">
        <ele>532.6</ele>
        <time>2016-07-24T11:20:17Z</time>
      </trkpt>
      <trkpt lat="42.41451" lon="0.14025">
        <ele>532.8</ele>
        <time>2016-07-24T11:20:19Z</time>
      </trkpt>
      <trkpt lat="42.41454" lon="0.14026">
        <ele>533</ele>
        <time>2016-07-24T11:20:21Z</time>
      </trkpt>
      <trkpt lat="42.4146" lon="0.14028">
        <ele>533.6</ele>
        <time>2016-07-24T11:20:23Z</time>
      </trkpt>
      <trkpt lat="42.41463" lon="0.14031">
        <ele>534.4</ele>
        <time>2016-07-24T11:20:24Z</time>
      </trkpt>
      <trkpt lat="42.41465" lon="0.14035">
        <ele>535.2</ele>
        <time>2016-07-24T11:20:25Z</time>
      </trkpt>
      <trkpt lat="42.41467" lon="0.14041">
        <ele>535.8</ele>
        <time>2016-07-24T11:20:26Z</time>
      </trkpt>
      <trkpt lat="42.41464" lon="0.14053">
        <ele>535.3</ele>
        <time>2016-07-24T11:20:27Z</time>
      </trkpt>
      <trkpt lat="42.41465" lon="0.1406">
        <ele>535.6</ele>
        <time>2016-07-24T11:20:28Z</time>
      </trkpt>
      <trkpt lat="42.41469" lon="0.14066">
        <ele>536.2</ele>
        <time>2016-07-24T11:20:29Z</time>
      </trkpt>
      <trkpt lat="42.4147" lon="0.14072">
        <ele>536.3</ele>
        <time>2016-07-24T11:20:30Z</time>
      </trkpt>
      <trkpt lat="42.41471" lon="0.1408">
        <ele>536.5</ele>
        <time>2016-07-24T11:20:31Z</time>
      </trkpt>
      <trkpt lat="42.41473" lon="0.14088">
        <ele>536.6</ele>
        <time>2016-07-24T11:20:32Z</time>
      </trkpt>
      <trkpt lat="42.41474" lon="0.14095">
        <ele>536.6</ele>
        <time>2016-07-24T11:20:33Z</time>
      </trkpt>
      <trkpt lat="42.41472" lon="0.14103">
        <ele>536.4</ele>
        <time>2016-07-24T11:20:34Z</time>
      </trkpt>
      <trkpt lat="42.41474" lon="0.1411">
        <ele>536.4</ele>
        <time>2016-07-24T11:20:35Z</time>
      </trkpt>
      <trkpt lat="42.41475" lon="0.14116">
        <ele>536.4</ele>
        <time>2016-07-24T11:20:36Z</time>
      </trkpt>
      <trkpt lat="42.41476" lon="0.14123">
        <ele>536.2</ele>
        <time>2016-07-24T11:20:37Z</time>
      </trkpt>
      <trkpt lat="42.41478" lon="0.14131">
        <ele>535.8</ele>
        <time>2016-07-24T11:20:38Z</time>
      </trkpt>
      <trkpt lat="42.41478" lon="0.14138">
        <ele>535.2</ele>
        <time>2016-07-24T11:20:39Z</time>
      </trkpt>
      <trkpt lat="42.41479" lon="0.14145">
        <ele>534.7</ele>
        <time>2016-07-24T11:20:40Z</time>
      </trkpt>
      <trkpt lat="42.4148" lon="0.14152">
        <ele>534.1</ele>
        <time>2016-07-24T11:20:41Z</time>
      </trkpt>
      <trkpt lat="42.41482" lon="0.14159">
        <ele>533.5</ele>
        <time>2016-07-24T11:20:42Z</time>
      </trkpt>
      <trkpt lat="42.41482" lon="0.14167">
        <ele>532.9</ele>
        <time>2016-07-24T11:20:43Z</time>
      </trkpt>
      <trkpt lat="42.41483" lon="0.14174">
        <ele>532.4</ele>
        <time>2016-07-24T11:20:44Z</time>
      </trkpt>
      <trkpt lat="42.41484" lon="0.14179">
        <ele>531.9</ele>
        <time>2016-07-24T11:20:45Z</time>
      </trkpt>
      <trkpt lat="42.41485" lon="0.14186">
        <ele>531.5</ele>
        <time>2016-07-24T11:20:46Z</time>
      </trkpt>
      <trkpt lat="42.41486" lon="0.1419">
        <ele>531.1</ele>
        <time>2016-07-24T11:20:47Z</time>
      </trkpt>
      <trkpt lat="42.41487" lon="0.14196">
        <ele>530.6</ele>
        <time>2016-07-24T11:20:48Z</time>
      </trkpt>
      <trkpt lat="42.41487" lon="0.14203">
        <ele>530.1</ele>
        <time>2016-07-24T11:20:49Z</time>
      </trkpt>
      <trkpt lat="42.41488" lon="0.14207">
        <ele>529.8</ele>
        <time>2016-07-24T11:20:50Z</time>
      </trkpt>
      <trkpt lat="42.41488" lon="0.14212">
        <ele>529.6</ele>
        <time>2016-07-24T11:20:51Z</time>
      </trkpt>
      <trkpt lat="42.41488" lon="0.14216">
        <ele>529.5</ele>
        <time>2016-07-24T11:20:52Z</time>
      </trkpt>
      <trkpt lat="42.41489" lon="0.14221">
        <ele>529.3</ele>
        <time>2016-07-24T11:20:53Z</time>
      </trkpt>
      <trkpt lat="42.41489" lon="0.14227">
        <ele>529.1</ele>
        <time>2016-07-24T11:20:54Z</time>
      </trkpt>
      <trkpt lat="42.41491" lon="0.14233">
        <ele>528.8</ele>
        <time>2016-07-24T11:20:55Z</time>
      </trkpt>
      <trkpt lat="42.41491" lon="0.14239">
        <ele>528.6</ele>
        <time>2016-07-24T11:20:56Z</time>
      </trkpt>
      <trkpt lat="42.41492" lon="0.14245">
        <ele>528.4</ele>
        <time>2016-07-24T11:20:57Z</time>
      </trkpt>
      <trkpt lat="42.41493" lon="0.14251">
        <ele>528.2</ele>
        <time>2016-07-24T11:20:58Z</time>
      </trkpt>
      <trkpt lat="42.41494" lon="0.14257">
        <ele>527.9</ele>
        <time>2016-07-24T11:20:59Z</time>
      </trkpt>
      <trkpt lat="42.41495" lon="0.14263">
        <ele>527.7</ele>
        <time>2016-07-24T11:21:00Z</time>
      </trkpt>
      <trkpt lat="42.41496" lon="0.14268">
        <ele>527.5</ele>
        <time>2016-07-24T11:21:01Z</time>
      </trkpt>
      <trkpt lat="42.41497" lon="0.14272">
        <ele>527.4</ele>
        <time>2016-07-24T11:21:02Z</time>
      </trkpt>
      <trkpt lat="42.41498" lon="0.14278">
        <ele>527.1</ele>
        <time>2016-07-24T11:21:03Z</time>
      </trkpt>
      <trkpt lat="42.41499" lon="0.14284">
        <ele>526.8</ele>
        <time>2016-07-24T11:21:04Z</time>
      </trkpt>
      <trkpt lat="42.415" lon="0.14289">
        <ele>526.6</ele>
        <time>2016-07-24T11:21:05Z</time>
      </trkpt>
      <trkpt lat="42.41501" lon="0.14295">
        <ele>526.5</ele>
        <time>2016-07-24T11:21:06Z</time>
      </trkpt>
      <trkpt lat="42.41502" lon="0.14301">
        <ele>526.4</ele>
        <time>2016-07-24T11:21:07Z</time>
      </trkpt>
      <trkpt lat="42.41503" lon="0.14306">
        <ele>526.4</ele>
        <time>2016-07-24T11:21:08Z</time>
      </trkpt>
      <trkpt lat="42.41504" lon="0.14312">
        <ele>526.3</ele>
        <time>2016-07-24T11:21:09Z</time>
      </trkpt>
      <trkpt lat="42.41505" lon="0.14318">
        <ele>526.3</ele>
        <time>2016-07-24T11:21:10Z</time>
      </trkpt>
      <trkpt lat="42.41505" lon="0.14324">
        <ele>526.2</ele>
        <time>2016-07-24T11:21:11Z</time>
      </trkpt>
      <trkpt lat="42.41507" lon="0.14329">
        <ele>526.2</ele>
        <time>2016-07-24T11:21:12Z</time>
      </trkpt>
      <trkpt lat="42.41508" lon="0.14335">
        <ele>526.1</ele>
        <time>2016-07-24T11:21:13Z</time>
      </trkpt>
      <trkpt lat="42.41509" lon="0.14341">
        <ele>526</ele>
        <time>2016-07-24T11:21:14Z</time>
      </trkpt>
      <trkpt lat="42.41509" lon="0.14346">
        <ele>526</ele>
        <time>2016-07-24T11:21:15Z</time>
      </trkpt>
      <trkpt lat="42.4151" lon="0.14351">
        <ele>525.9</ele>
        <time>2016-07-24T11:21:16Z</time>
      </trkpt>
      <trkpt lat="42.4151" lon="0.14357">
        <ele>525.9</ele>
        <time>2016-07-24T11:21:17Z</time>
      </trkpt>
      <trkpt lat="42.41511" lon="0.14362">
        <ele>525.8</ele>
        <time>2016-07-24T11:21:18Z</time>
      </trkpt>
      <trkpt lat="42.41512" lon="0.14368">
        <ele>525.8</ele>
        <time>2016-07-24T11:21:19Z</time>
      </trkpt>
      <trkpt lat="42.41513" lon="0.14373">
        <ele>525.7</ele>
        <time>2016-07-24T11:21:20Z</time>
      </trkpt>
      <trkpt lat="42.41515" lon="0.14378">
        <ele>525.8</ele>
        <time>2016-07-24T11:21:21Z</time>
      </trkpt>
      <trkpt lat="42.41516" lon="0.14384">
        <ele>526</ele>
        <time>2016-07-24T11:21:22Z</time>
      </trkpt>
      <trkpt lat="42.41516" lon="0.1439">
        <ele>526.3</ele>
        <time>2016-07-24T11:21:23Z</time>
      </trkpt>
      <trkpt lat="42.41516" lon="0.14395">
        <ele>526.5</ele>
        <time>2016-07-24T11:21:24Z</time>
      </trkpt>
      <trkpt lat="42.41516" lon="0.14401">
        <ele>526.8</ele>
        <time>2016-07-24T11:21:25Z</time>
      </trkpt>
      <trkpt lat="42.41515" lon="0.14407">
        <ele>527.1</ele>
        <time>2016-07-24T11:21:26Z</time>
      </trkpt>
      <trkpt lat="42.41514" lon="0.14413">
        <ele>527.3</ele>
        <time>2016-07-24T11:21:27Z</time>
      </trkpt>
      <trkpt lat="42.41511" lon="0.1442">
        <ele>527.7</ele>
        <time>2016-07-24T11:21:28Z</time>
      </trkpt>
      <trkpt lat="42.4151" lon="0.14425">
        <ele>527.8</ele>
        <time>2016-07-24T11:21:29Z</time>
      </trkpt>
      <trkpt lat="42.41508" lon="0.1443">
        <ele>528.1</ele>
        <time>2016-07-24T11:21:30Z</time>
      </trkpt>
      <trkpt lat="42.41505" lon="0.14435">
        <ele>528.2</ele>
        <time>2016-07-24T11:21:31Z</time>
      </trkpt>
      <trkpt lat="42.415" lon="0.14437">
        <ele>528.2</ele>
        <time>2016-07-24T11:21:32Z</time>
      </trkpt>
      <trkpt lat="42.41496" lon="0.14437">
        <ele>528.2</ele>
        <time>2016-07-24T11:21:33Z</time>
      </trkpt>
      <trkpt lat="42.41492" lon="0.14434">
        <ele>528.1</ele>
        <time>2016-07-24T11:21:34Z</time>
      </trkpt>
      <trkpt lat="42.41489" lon="0.1443">
        <ele>527.9</ele>
        <time>2016-07-24T11:21:35Z</time>
      </trkpt>
      <trkpt lat="42.41487" lon="0.14426">
        <ele>527.8</ele>
        <time>2016-07-24T11:21:36Z</time>
      </trkpt>
      <trkpt lat="42.41486" lon="0.14421">
        <ele>527.6</ele>
        <time>2016-07-24T11:21:37Z</time>
      </trkpt>
      <trkpt lat="42.41485" lon="0.14417">
        <ele>527.5</ele>
        <time>2016-07-24T11:21:38Z</time>
      </trkpt>
      <trkpt lat="42.41484" lon="0.14414">
        <ele>527.4</ele>
        <time>2016-07-24T11:21:39Z</time>
      </trkpt>
      <trkpt lat="42.41484" lon="0.14409">
        <ele>527.3</ele>
        <time>2016-07-24T11:21:40Z</time>
      </trkpt>
      <trkpt lat="42.41483" lon="0.14405">
        <ele>527.2</ele>
        <time>2016-07-24T11:21:41Z</time>
      </trkpt>
      <trkpt lat="42.41482" lon="0.14402">
        <ele>527.1</ele>
        <time>2016-07-24T11:21:42Z</time>
      </trkpt>
      <trkpt lat="42.41479" lon="0.144">
        <ele>527.1</ele>
        <time>2016-07-24T11:21:46Z</time>
      </trkpt>
      <trkpt lat="42.41477" lon="0.14398">
        <ele>527.1</ele>
        <time>2016-07-24T11:21:53Z</time>
      </trkpt>
      <trkpt lat="42.41475" lon="0.14396">
        <ele>527.1</ele>
        <time>2016-07-24T11:22:03Z</time>
      </trkpt>
      <trkpt lat="42.41472" lon="0.14394">
        <ele>527</ele>
        <time>2016-07-24T11:22:08Z</time>
      </trkpt>
      <trkpt lat="42.41473" lon="0.14398">
        <ele>527.1</ele>
        <time>2016-07-24T11:22:18Z</time>
      </trkpt>
    </trkseg>
  </trk>
</gpx>